<?xml version="1.0" encoding="UTF-8" standalone="no" ?>
<gpx xmlns="http://www.topografix.com/GPX/1/1" xmlns:xsi="http://www.w3.org/2001/XMLSchema-instance" xsi:schemaLocation="http://www.topografix.com/GPX/1/1 http://www.topografix.com/GPX/1/1/gpx.xsd" version="1.1" creator="VisuGPX - https://www.visugpx.com">
  <metadata>
    <name>05 - La Bâtie Neuve : 3 circuits</name>
    <desc><![CDATA[Cet itinéraire fait partie de la collection de EquiLiberté : www.equiliberte.org Circuit NON ACCESSIBLE aux attelages
]]></desc>
  </metadata>
  <trk>
    <name><![CDATA[05 - La Bâtie Neuve nord - Ancelle]]></name>
    <extensions>
      <line xmlns="http://www.topografix.com/GPX/gpx_style/0/2">
        <color>0000FF</color>
        <width>4</width>
      </line>
    </extensions>
    <trkseg>
      <trkpt lat="44.57463" lon="6.21465">
        <ele>990.59997558594</ele>
        <time>2016-07-14T07:20:57.000Z</time>
      </trkpt>
      <trkpt lat="44.57463" lon="6.21465">
        <ele>990.59997558594</ele>
        <time>2016-07-14T07:20:57.000Z</time>
      </trkpt>
      <trkpt lat="44.57461" lon="6.2145">
        <ele>989.20001220703</ele>
        <time>2016-07-14T07:21:13.000Z</time>
      </trkpt>
      <trkpt lat="44.57463" lon="6.21425">
        <ele>988.59997558594</ele>
        <time>2016-07-14T07:21:27.000Z</time>
      </trkpt>
      <trkpt lat="44.57467" lon="6.21412">
        <ele>989.40002441406</ele>
        <time>2016-07-14T07:21:36.000Z</time>
      </trkpt>
      <trkpt lat="44.57471" lon="6.21398">
        <ele>991</ele>
        <time>2016-07-14T07:21:45.000Z</time>
      </trkpt>
      <trkpt lat="44.57473" lon="6.21381">
        <ele>991.79998779297</ele>
        <time>2016-07-14T07:21:56.000Z</time>
      </trkpt>
      <trkpt lat="44.57473" lon="6.21365">
        <ele>991.59997558594</ele>
        <time>2016-07-14T07:22:08.000Z</time>
      </trkpt>
      <trkpt lat="44.57471" lon="6.21352">
        <ele>990.40002441406</ele>
        <time>2016-07-14T07:22:16.000Z</time>
      </trkpt>
      <trkpt lat="44.5747" lon="6.2135">
        <ele>990.20001220703</ele>
        <time>2016-07-14T07:22:17.000Z</time>
      </trkpt>
      <trkpt lat="44.57466" lon="6.21338">
        <ele>988.20001220703</ele>
        <time>2016-07-14T07:22:26.000Z</time>
      </trkpt>
      <trkpt lat="44.57465" lon="6.21336">
        <ele>987.79998779297</ele>
        <time>2016-07-14T07:22:32.000Z</time>
      </trkpt>
      <trkpt lat="44.57463" lon="6.21331">
        <ele>986.79998779297</ele>
        <time>2016-07-14T07:22:37.000Z</time>
      </trkpt>
      <trkpt lat="44.57459" lon="6.21319">
        <ele>985.20001220703</ele>
        <time>2016-07-14T07:22:45.000Z</time>
      </trkpt>
      <trkpt lat="44.57455" lon="6.21305">
        <ele>983.40002441406</ele>
        <time>2016-07-14T07:22:53.000Z</time>
      </trkpt>
      <trkpt lat="44.57452" lon="6.21291">
        <ele>982</ele>
        <time>2016-07-14T07:23:03.000Z</time>
      </trkpt>
      <trkpt lat="44.57449" lon="6.21276">
        <ele>981</ele>
        <time>2016-07-14T07:23:12.000Z</time>
      </trkpt>
      <trkpt lat="44.57445" lon="6.21263">
        <ele>979.79998779297</ele>
        <time>2016-07-14T07:23:20.000Z</time>
      </trkpt>
      <trkpt lat="44.57442" lon="6.21249">
        <ele>979</ele>
        <time>2016-07-14T07:23:28.000Z</time>
      </trkpt>
      <trkpt lat="44.57437" lon="6.212">
        <ele>976.79998779297</ele>
        <time>2016-07-14T07:23:56.000Z</time>
      </trkpt>
      <trkpt lat="44.57433" lon="6.21183">
        <ele>975.79998779297</ele>
        <time>2016-07-14T07:24:06.000Z</time>
      </trkpt>
      <trkpt lat="44.5743" lon="6.2117">
        <ele>974.79998779297</ele>
        <time>2016-07-14T07:24:13.000Z</time>
      </trkpt>
      <trkpt lat="44.57428" lon="6.21158">
        <ele>974.40002441406</ele>
        <time>2016-07-14T07:24:20.000Z</time>
      </trkpt>
      <trkpt lat="44.57426" lon="6.21145">
        <ele>973.79998779297</ele>
        <time>2016-07-14T07:24:27.000Z</time>
      </trkpt>
      <trkpt lat="44.57422" lon="6.21137">
        <ele>972.59997558594</ele>
        <time>2016-07-14T07:24:32.000Z</time>
      </trkpt>
      <trkpt lat="44.57421" lon="6.21135">
        <ele>972.20001220703</ele>
        <time>2016-07-14T07:24:39.000Z</time>
      </trkpt>
      <trkpt lat="44.57419" lon="6.21128">
        <ele>971.40002441406</ele>
        <time>2016-07-14T07:24:44.000Z</time>
      </trkpt>
      <trkpt lat="44.57411" lon="6.21113">
        <ele>968.79998779297</ele>
        <time>2016-07-14T07:24:53.000Z</time>
      </trkpt>
      <trkpt lat="44.57411" lon="6.21112">
        <ele>968.59997558594</ele>
        <time>2016-07-14T07:24:54.000Z</time>
      </trkpt>
      <trkpt lat="44.57413" lon="6.21095">
        <ele>969.20001220703</ele>
        <time>2016-07-14T07:25:03.000Z</time>
      </trkpt>
      <trkpt lat="44.57413" lon="6.21093">
        <ele>969.20001220703</ele>
        <time>2016-07-14T07:25:04.000Z</time>
      </trkpt>
      <trkpt lat="44.57414" lon="6.21085">
        <ele>969.79998779297</ele>
        <time>2016-07-14T07:25:09.000Z</time>
      </trkpt>
      <trkpt lat="44.57419" lon="6.21068">
        <ele>971.59997558594</ele>
        <time>2016-07-14T07:25:19.000Z</time>
      </trkpt>
      <trkpt lat="44.57424" lon="6.21048">
        <ele>973.59997558594</ele>
        <time>2016-07-14T07:25:30.000Z</time>
      </trkpt>
      <trkpt lat="44.57429" lon="6.21029">
        <ele>975.59997558594</ele>
        <time>2016-07-14T07:25:41.000Z</time>
      </trkpt>
      <trkpt lat="44.57435" lon="6.21012">
        <ele>977.20001220703</ele>
        <time>2016-07-14T07:25:51.000Z</time>
      </trkpt>
      <trkpt lat="44.5744" lon="6.20999">
        <ele>978.79998779297</ele>
        <time>2016-07-14T07:25:59.000Z</time>
      </trkpt>
      <trkpt lat="44.57446" lon="6.20983">
        <ele>980.40002441406</ele>
        <time>2016-07-14T07:26:09.000Z</time>
      </trkpt>
      <trkpt lat="44.57448" lon="6.20976">
        <ele>981.20001220703</ele>
        <time>2016-07-14T07:26:13.000Z</time>
      </trkpt>
      <trkpt lat="44.57448" lon="6.20966">
        <ele>981.20001220703</ele>
        <time>2016-07-14T07:26:18.000Z</time>
      </trkpt>
      <trkpt lat="44.5745" lon="6.20944">
        <ele>982.20001220703</ele>
        <time>2016-07-14T07:26:30.000Z</time>
      </trkpt>
      <trkpt lat="44.57451" lon="6.20926">
        <ele>982.59997558594</ele>
        <time>2016-07-14T07:26:40.000Z</time>
      </trkpt>
      <trkpt lat="44.57452" lon="6.20924">
        <ele>982.79998779297</ele>
        <time>2016-07-14T07:26:41.000Z</time>
      </trkpt>
      <trkpt lat="44.57453" lon="6.20922">
        <ele>983.20001220703</ele>
        <time>2016-07-14T07:26:43.000Z</time>
      </trkpt>
      <trkpt lat="44.57452" lon="6.20923">
        <ele>983</ele>
        <time>2016-07-14T07:26:53.000Z</time>
      </trkpt>
      <trkpt lat="44.57453" lon="6.20924">
        <ele>983</ele>
        <time>2016-07-14T07:27:15.000Z</time>
      </trkpt>
      <trkpt lat="44.57453" lon="6.20923">
        <ele>983</ele>
        <time>2016-07-14T07:27:19.000Z</time>
      </trkpt>
      <trkpt lat="44.57453" lon="6.20921">
        <ele>983.20001220703</ele>
        <time>2016-07-14T07:27:23.000Z</time>
      </trkpt>
      <trkpt lat="44.57456" lon="6.20904">
        <ele>984.40002441406</ele>
        <time>2016-07-14T07:27:31.000Z</time>
      </trkpt>
      <trkpt lat="44.57461" lon="6.20883">
        <ele>985.79998779297</ele>
        <time>2016-07-14T07:27:42.000Z</time>
      </trkpt>
      <trkpt lat="44.57463" lon="6.20868">
        <ele>986.40002441406</ele>
        <time>2016-07-14T07:27:50.000Z</time>
      </trkpt>
      <trkpt lat="44.57465" lon="6.20847">
        <ele>987.40002441406</ele>
        <time>2016-07-14T07:28:00.000Z</time>
      </trkpt>
      <trkpt lat="44.5747" lon="6.20831">
        <ele>988.59997558594</ele>
        <time>2016-07-14T07:28:09.000Z</time>
      </trkpt>
      <trkpt lat="44.57472" lon="6.20813">
        <ele>988.79998779297</ele>
        <time>2016-07-14T07:28:20.000Z</time>
      </trkpt>
      <trkpt lat="44.57473" lon="6.20797">
        <ele>989.59997558594</ele>
        <time>2016-07-14T07:28:29.000Z</time>
      </trkpt>
      <trkpt lat="44.57473" lon="6.20792">
        <ele>990</ele>
        <time>2016-07-14T07:28:32.000Z</time>
      </trkpt>
      <trkpt lat="44.57473" lon="6.20782">
        <ele>990.40002441406</ele>
        <time>2016-07-14T07:28:39.000Z</time>
      </trkpt>
      <trkpt lat="44.57474" lon="6.20749">
        <ele>992.20001220703</ele>
        <time>2016-07-14T07:28:58.000Z</time>
      </trkpt>
      <trkpt lat="44.57473" lon="6.20735">
        <ele>992.59997558594</ele>
        <time>2016-07-14T07:29:07.000Z</time>
      </trkpt>
      <trkpt lat="44.57473" lon="6.20719">
        <ele>992.79998779297</ele>
        <time>2016-07-14T07:29:16.000Z</time>
      </trkpt>
      <trkpt lat="44.57475" lon="6.20704">
        <ele>993</ele>
        <time>2016-07-14T07:29:24.000Z</time>
      </trkpt>
      <trkpt lat="44.57477" lon="6.20688">
        <ele>993.40002441406</ele>
        <time>2016-07-14T07:29:33.000Z</time>
      </trkpt>
      <trkpt lat="44.57477" lon="6.20682">
        <ele>993.59997558594</ele>
        <time>2016-07-14T07:29:41.000Z</time>
      </trkpt>
      <trkpt lat="44.57488" lon="6.20671">
        <ele>996.20001220703</ele>
        <time>2016-07-14T07:29:55.000Z</time>
      </trkpt>
      <trkpt lat="44.5749" lon="6.20671">
        <ele>996.59997558594</ele>
        <time>2016-07-14T07:29:56.000Z</time>
      </trkpt>
      <trkpt lat="44.575" lon="6.20661">
        <ele>999.40002441406</ele>
        <time>2016-07-14T07:30:05.000Z</time>
      </trkpt>
      <trkpt lat="44.57511" lon="6.20656">
        <ele>1002</ele>
        <time>2016-07-14T07:30:14.000Z</time>
      </trkpt>
      <trkpt lat="44.57514" lon="6.20647">
        <ele>1003</ele>
        <time>2016-07-14T07:30:20.000Z</time>
      </trkpt>
      <trkpt lat="44.57514" lon="6.20638">
        <ele>1002.799987793</ele>
        <time>2016-07-14T07:30:25.000Z</time>
      </trkpt>
      <trkpt lat="44.57513" lon="6.2062">
        <ele>1002</ele>
        <time>2016-07-14T07:30:35.000Z</time>
      </trkpt>
      <trkpt lat="44.57513" lon="6.20611">
        <ele>1001.799987793</ele>
        <time>2016-07-14T07:30:43.000Z</time>
      </trkpt>
      <trkpt lat="44.57515" lon="6.20612">
        <ele>1002.200012207</ele>
        <time>2016-07-14T07:30:58.000Z</time>
      </trkpt>
      <trkpt lat="44.57514" lon="6.20626">
        <ele>1002.4000244141</ele>
        <time>2016-07-14T07:31:06.000Z</time>
      </trkpt>
      <trkpt lat="44.57515" lon="6.20639">
        <ele>1003</ele>
        <time>2016-07-14T07:31:14.000Z</time>
      </trkpt>
      <trkpt lat="44.57515" lon="6.20638">
        <ele>1003</ele>
        <time>2016-07-14T07:31:21.000Z</time>
      </trkpt>
      <trkpt lat="44.57514" lon="6.20623">
        <ele>1002.200012207</ele>
        <time>2016-07-14T07:31:29.000Z</time>
      </trkpt>
      <trkpt lat="44.57514" lon="6.20603">
        <ele>1001.799987793</ele>
        <time>2016-07-14T07:31:39.000Z</time>
      </trkpt>
      <trkpt lat="44.57512" lon="6.20583">
        <ele>1000.799987793</ele>
        <time>2016-07-14T07:31:49.000Z</time>
      </trkpt>
      <trkpt lat="44.57511" lon="6.20567">
        <ele>1000.200012207</ele>
        <time>2016-07-14T07:31:57.000Z</time>
      </trkpt>
      <trkpt lat="44.57516" lon="6.20555">
        <ele>1001</ele>
        <time>2016-07-14T07:32:04.000Z</time>
      </trkpt>
      <trkpt lat="44.57522" lon="6.20547">
        <ele>1002.200012207</ele>
        <time>2016-07-14T07:32:10.000Z</time>
      </trkpt>
      <trkpt lat="44.57527" lon="6.20541">
        <ele>1003.5999755859</ele>
        <time>2016-07-14T07:32:15.000Z</time>
      </trkpt>
      <trkpt lat="44.57536" lon="6.2053">
        <ele>1005.5999755859</ele>
        <time>2016-07-14T07:32:23.000Z</time>
      </trkpt>
      <trkpt lat="44.57539" lon="6.20521">
        <ele>1006</ele>
        <time>2016-07-14T07:32:30.000Z</time>
      </trkpt>
      <trkpt lat="44.57536" lon="6.20513">
        <ele>1005</ele>
        <time>2016-07-14T07:32:45.000Z</time>
      </trkpt>
      <trkpt lat="44.57531" lon="6.20497">
        <ele>1003.4000244141</ele>
        <time>2016-07-14T07:32:54.000Z</time>
      </trkpt>
      <trkpt lat="44.57526" lon="6.20484">
        <ele>1001.799987793</ele>
        <time>2016-07-14T07:33:02.000Z</time>
      </trkpt>
      <trkpt lat="44.57527" lon="6.20471">
        <ele>1002</ele>
        <time>2016-07-14T07:33:09.000Z</time>
      </trkpt>
      <trkpt lat="44.57531" lon="6.20456">
        <ele>1003.5999755859</ele>
        <time>2016-07-14T07:33:18.000Z</time>
      </trkpt>
      <trkpt lat="44.57536" lon="6.20437">
        <ele>1005.4000244141</ele>
        <time>2016-07-14T07:33:29.000Z</time>
      </trkpt>
      <trkpt lat="44.57541" lon="6.20422">
        <ele>1007.200012207</ele>
        <time>2016-07-14T07:33:38.000Z</time>
      </trkpt>
      <trkpt lat="44.57543" lon="6.20404">
        <ele>1008</ele>
        <time>2016-07-14T07:33:47.000Z</time>
      </trkpt>
      <trkpt lat="44.5754" lon="6.20386">
        <ele>1007.200012207</ele>
        <time>2016-07-14T07:33:56.000Z</time>
      </trkpt>
      <trkpt lat="44.57539" lon="6.20376">
        <ele>1006.5999755859</ele>
        <time>2016-07-14T07:34:01.000Z</time>
      </trkpt>
      <trkpt lat="44.57541" lon="6.20369">
        <ele>1006.5999755859</ele>
        <time>2016-07-14T07:34:05.000Z</time>
      </trkpt>
      <trkpt lat="44.57549" lon="6.20348">
        <ele>1008</ele>
        <time>2016-07-14T07:34:17.000Z</time>
      </trkpt>
      <trkpt lat="44.57557" lon="6.20328">
        <ele>1009.4000244141</ele>
        <time>2016-07-14T07:34:28.000Z</time>
      </trkpt>
      <trkpt lat="44.57566" lon="6.20305">
        <ele>1011.200012207</ele>
        <time>2016-07-14T07:34:40.000Z</time>
      </trkpt>
      <trkpt lat="44.57566" lon="6.20304">
        <ele>1011</ele>
        <time>2016-07-14T07:34:41.000Z</time>
      </trkpt>
      <trkpt lat="44.57566" lon="6.20302">
        <ele>1011</ele>
        <time>2016-07-14T07:34:42.000Z</time>
      </trkpt>
      <trkpt lat="44.5756" lon="6.20291">
        <ele>1009</ele>
        <time>2016-07-14T07:34:49.000Z</time>
      </trkpt>
      <trkpt lat="44.5757" lon="6.2026">
        <ele>1010.4000244141</ele>
        <time>2016-07-14T07:35:07.000Z</time>
      </trkpt>
      <trkpt lat="44.5758" lon="6.20259">
        <ele>1013</ele>
        <time>2016-07-14T07:35:13.000Z</time>
      </trkpt>
      <trkpt lat="44.57587" lon="6.20251">
        <ele>1014.4000244141</ele>
        <time>2016-07-14T07:35:18.000Z</time>
      </trkpt>
      <trkpt lat="44.57594" lon="6.20238">
        <ele>1015.5999755859</ele>
        <time>2016-07-14T07:35:26.000Z</time>
      </trkpt>
      <trkpt lat="44.57604" lon="6.20221">
        <ele>1017</ele>
        <time>2016-07-14T07:35:37.000Z</time>
      </trkpt>
      <trkpt lat="44.57616" lon="6.20171">
        <ele>1017</ele>
        <time>2016-07-14T07:36:05.000Z</time>
      </trkpt>
      <trkpt lat="44.57624" lon="6.20162">
        <ele>1018.4000244141</ele>
        <time>2016-07-14T07:36:13.000Z</time>
      </trkpt>
      <trkpt lat="44.57632" lon="6.2016">
        <ele>1020</ele>
        <time>2016-07-14T07:36:19.000Z</time>
      </trkpt>
      <trkpt lat="44.57632" lon="6.20159">
        <ele>1020</ele>
        <time>2016-07-14T07:36:26.000Z</time>
      </trkpt>
      <trkpt lat="44.5763" lon="6.20158">
        <ele>1019.5999755859</ele>
        <time>2016-07-14T07:36:27.000Z</time>
      </trkpt>
      <trkpt lat="44.57631" lon="6.20152">
        <ele>1019.4000244141</ele>
        <time>2016-07-14T07:36:32.000Z</time>
      </trkpt>
      <trkpt lat="44.57636" lon="6.20146">
        <ele>1020.5999755859</ele>
        <time>2016-07-14T07:36:50.000Z</time>
      </trkpt>
      <trkpt lat="44.57643" lon="6.2013">
        <ele>1021.200012207</ele>
        <time>2016-07-14T07:36:59.000Z</time>
      </trkpt>
      <trkpt lat="44.57649" lon="6.20119">
        <ele>1022</ele>
        <time>2016-07-14T07:37:06.000Z</time>
      </trkpt>
      <trkpt lat="44.57653" lon="6.20103">
        <ele>1021.799987793</ele>
        <time>2016-07-14T07:37:14.000Z</time>
      </trkpt>
      <trkpt lat="44.57658" lon="6.20086">
        <ele>1022</ele>
        <time>2016-07-14T07:37:23.000Z</time>
      </trkpt>
      <trkpt lat="44.5766" lon="6.20078">
        <ele>1022</ele>
        <time>2016-07-14T07:37:28.000Z</time>
      </trkpt>
      <trkpt lat="44.57659" lon="6.20076">
        <ele>1021.799987793</ele>
        <time>2016-07-14T07:37:37.000Z</time>
      </trkpt>
      <trkpt lat="44.5766" lon="6.20075">
        <ele>1022</ele>
        <time>2016-07-14T07:37:43.000Z</time>
      </trkpt>
      <trkpt lat="44.57662" lon="6.20076">
        <ele>1022.4000244141</ele>
        <time>2016-07-14T07:37:49.000Z</time>
      </trkpt>
      <trkpt lat="44.57662" lon="6.20075">
        <ele>1022.4000244141</ele>
        <time>2016-07-14T07:38:00.000Z</time>
      </trkpt>
      <trkpt lat="44.57661" lon="6.20075">
        <ele>1022.200012207</ele>
        <time>2016-07-14T07:38:09.000Z</time>
      </trkpt>
      <trkpt lat="44.57662" lon="6.20075">
        <ele>1022.4000244141</ele>
        <time>2016-07-14T07:38:15.000Z</time>
      </trkpt>
      <trkpt lat="44.57661" lon="6.20078">
        <ele>1022.4000244141</ele>
        <time>2016-07-14T07:39:00.000Z</time>
      </trkpt>
      <trkpt lat="44.5766" lon="6.20077">
        <ele>1022.200012207</ele>
        <time>2016-07-14T07:39:08.000Z</time>
      </trkpt>
      <trkpt lat="44.57662" lon="6.20077">
        <ele>1022.5999755859</ele>
        <time>2016-07-14T07:39:12.000Z</time>
      </trkpt>
      <trkpt lat="44.57662" lon="6.20076">
        <ele>1022.4000244141</ele>
        <time>2016-07-14T07:40:41.000Z</time>
      </trkpt>
      <trkpt lat="44.57663" lon="6.20075">
        <ele>1022.5999755859</ele>
        <time>2016-07-14T07:40:56.000Z</time>
      </trkpt>
      <trkpt lat="44.57662" lon="6.20075">
        <ele>1022.4000244141</ele>
        <time>2016-07-14T07:41:33.000Z</time>
      </trkpt>
      <trkpt lat="44.57661" lon="6.20076">
        <ele>1022.200012207</ele>
        <time>2016-07-14T07:41:40.000Z</time>
      </trkpt>
      <trkpt lat="44.57662" lon="6.20076">
        <ele>1022.4000244141</ele>
        <time>2016-07-14T07:41:44.000Z</time>
      </trkpt>
      <trkpt lat="44.57659" lon="6.20074">
        <ele>1021.5999755859</ele>
        <time>2016-07-14T07:42:05.000Z</time>
      </trkpt>
      <trkpt lat="44.57661" lon="6.20074">
        <ele>1022</ele>
        <time>2016-07-14T07:42:09.000Z</time>
      </trkpt>
      <trkpt lat="44.5766" lon="6.20073">
        <ele>1021.799987793</ele>
        <time>2016-07-14T07:42:15.000Z</time>
      </trkpt>
      <trkpt lat="44.57659" lon="6.20073">
        <ele>1021.5999755859</ele>
        <time>2016-07-14T07:42:21.000Z</time>
      </trkpt>
      <trkpt lat="44.5766" lon="6.20074">
        <ele>1021.799987793</ele>
        <time>2016-07-14T07:42:26.000Z</time>
      </trkpt>
      <trkpt lat="44.57659" lon="6.20073">
        <ele>1021.5999755859</ele>
        <time>2016-07-14T07:42:36.000Z</time>
      </trkpt>
      <trkpt lat="44.5766" lon="6.20074">
        <ele>1022</ele>
        <time>2016-07-14T07:42:48.000Z</time>
      </trkpt>
      <trkpt lat="44.57659" lon="6.20074">
        <ele>1021.4000244141</ele>
        <time>2016-07-14T07:42:57.000Z</time>
      </trkpt>
      <trkpt lat="44.57658" lon="6.20073">
        <ele>1021.200012207</ele>
        <time>2016-07-14T07:43:02.000Z</time>
      </trkpt>
      <trkpt lat="44.57656" lon="6.20073">
        <ele>1020.799987793</ele>
        <time>2016-07-14T07:43:24.000Z</time>
      </trkpt>
      <trkpt lat="44.57657" lon="6.20073">
        <ele>1020.799987793</ele>
        <time>2016-07-14T07:43:34.000Z</time>
      </trkpt>
      <trkpt lat="44.57657" lon="6.20075">
        <ele>1021</ele>
        <time>2016-07-14T07:43:41.000Z</time>
      </trkpt>
      <trkpt lat="44.57659" lon="6.20074">
        <ele>1021.5999755859</ele>
        <time>2016-07-14T07:43:54.000Z</time>
      </trkpt>
      <trkpt lat="44.57659" lon="6.20076">
        <ele>1021.799987793</ele>
        <time>2016-07-14T07:44:01.000Z</time>
      </trkpt>
      <trkpt lat="44.57659" lon="6.20074">
        <ele>1021.5999755859</ele>
        <time>2016-07-14T07:44:13.000Z</time>
      </trkpt>
      <trkpt lat="44.5766" lon="6.20071">
        <ele>1021.5999755859</ele>
        <time>2016-07-14T07:44:19.000Z</time>
      </trkpt>
      <trkpt lat="44.57661" lon="6.2007">
        <ele>1022</ele>
        <time>2016-07-14T07:44:23.000Z</time>
      </trkpt>
      <trkpt lat="44.57662" lon="6.20072">
        <ele>1022.200012207</ele>
        <time>2016-07-14T07:44:24.000Z</time>
      </trkpt>
      <trkpt lat="44.57661" lon="6.20075">
        <ele>1022</ele>
        <time>2016-07-14T07:44:29.000Z</time>
      </trkpt>
      <trkpt lat="44.57661" lon="6.20073">
        <ele>1022</ele>
        <time>2016-07-14T07:44:36.000Z</time>
      </trkpt>
      <trkpt lat="44.57663" lon="6.2007">
        <ele>1022.200012207</ele>
        <time>2016-07-14T07:44:51.000Z</time>
      </trkpt>
      <trkpt lat="44.57662" lon="6.20068">
        <ele>1022</ele>
        <time>2016-07-14T07:44:52.000Z</time>
      </trkpt>
      <trkpt lat="44.57663" lon="6.20065">
        <ele>1022.200012207</ele>
        <time>2016-07-14T07:44:58.000Z</time>
      </trkpt>
      <trkpt lat="44.57665" lon="6.20058">
        <ele>1022.4000244141</ele>
        <time>2016-07-14T07:45:07.000Z</time>
      </trkpt>
      <trkpt lat="44.57668" lon="6.20047">
        <ele>1022.799987793</ele>
        <time>2016-07-14T07:45:14.000Z</time>
      </trkpt>
      <trkpt lat="44.57668" lon="6.2003">
        <ele>1022</ele>
        <time>2016-07-14T07:45:22.000Z</time>
      </trkpt>
      <trkpt lat="44.57668" lon="6.20017">
        <ele>1021.200012207</ele>
        <time>2016-07-14T07:45:28.000Z</time>
      </trkpt>
      <trkpt lat="44.57688" lon="6.19979">
        <ele>1023</ele>
        <time>2016-07-14T07:45:52.000Z</time>
      </trkpt>
      <trkpt lat="44.57695" lon="6.19943">
        <ele>1021</ele>
        <time>2016-07-14T07:46:11.000Z</time>
      </trkpt>
      <trkpt lat="44.57699" lon="6.19925">
        <ele>1020.4000244141</ele>
        <time>2016-07-14T07:46:21.000Z</time>
      </trkpt>
      <trkpt lat="44.57705" lon="6.19912">
        <ele>1020.200012207</ele>
        <time>2016-07-14T07:46:30.000Z</time>
      </trkpt>
      <trkpt lat="44.57717" lon="6.19888">
        <ele>1019.5999755859</ele>
        <time>2016-07-14T07:46:45.000Z</time>
      </trkpt>
      <trkpt lat="44.57721" lon="6.19881">
        <ele>1019.4000244141</ele>
        <time>2016-07-14T07:46:50.000Z</time>
      </trkpt>
      <trkpt lat="44.57727" lon="6.19871">
        <ele>1019.200012207</ele>
        <time>2016-07-14T07:46:58.000Z</time>
      </trkpt>
      <trkpt lat="44.57728" lon="6.1987">
        <ele>1019.200012207</ele>
        <time>2016-07-14T07:46:59.000Z</time>
      </trkpt>
      <trkpt lat="44.57738" lon="6.19859">
        <ele>1019.5999755859</ele>
        <time>2016-07-14T07:47:08.000Z</time>
      </trkpt>
      <trkpt lat="44.57747" lon="6.1985">
        <ele>1020</ele>
        <time>2016-07-14T07:47:13.000Z</time>
      </trkpt>
      <trkpt lat="44.57758" lon="6.19835">
        <ele>1020.4000244141</ele>
        <time>2016-07-14T07:47:19.000Z</time>
      </trkpt>
      <trkpt lat="44.57761" lon="6.19824">
        <ele>1020</ele>
        <time>2016-07-14T07:47:24.000Z</time>
      </trkpt>
      <trkpt lat="44.57765" lon="6.19814">
        <ele>1019.799987793</ele>
        <time>2016-07-14T07:47:31.000Z</time>
      </trkpt>
      <trkpt lat="44.57767" lon="6.1981">
        <ele>1019.799987793</ele>
        <time>2016-07-14T07:47:34.000Z</time>
      </trkpt>
      <trkpt lat="44.57761" lon="6.1981">
        <ele>1018.5999755859</ele>
        <time>2016-07-14T07:47:40.000Z</time>
      </trkpt>
      <trkpt lat="44.5776" lon="6.19809">
        <ele>1018.4000244141</ele>
        <time>2016-07-14T07:47:41.000Z</time>
      </trkpt>
      <trkpt lat="44.57755" lon="6.19774">
        <ele>1015.200012207</ele>
        <time>2016-07-14T07:47:58.000Z</time>
      </trkpt>
      <trkpt lat="44.57755" lon="6.19758">
        <ele>1013.5999755859</ele>
        <time>2016-07-14T07:48:05.000Z</time>
      </trkpt>
      <trkpt lat="44.57755" lon="6.1974">
        <ele>1012</ele>
        <time>2016-07-14T07:48:12.000Z</time>
      </trkpt>
      <trkpt lat="44.57761" lon="6.19729">
        <ele>1011.5999755859</ele>
        <time>2016-07-14T07:48:19.000Z</time>
      </trkpt>
      <trkpt lat="44.57767" lon="6.19714">
        <ele>1011.5999755859</ele>
        <time>2016-07-14T07:48:27.000Z</time>
      </trkpt>
      <trkpt lat="44.57765" lon="6.1968">
        <ele>1009.5999755859</ele>
        <time>2016-07-14T07:48:45.000Z</time>
      </trkpt>
      <trkpt lat="44.57764" lon="6.19676">
        <ele>1009.200012207</ele>
        <time>2016-07-14T07:48:47.000Z</time>
      </trkpt>
      <trkpt lat="44.57769" lon="6.1967">
        <ele>1009.799987793</ele>
        <time>2016-07-14T07:48:52.000Z</time>
      </trkpt>
      <trkpt lat="44.57775" lon="6.19666">
        <ele>1010.5999755859</ele>
        <time>2016-07-14T07:48:57.000Z</time>
      </trkpt>
      <trkpt lat="44.57777" lon="6.19661">
        <ele>1010.5999755859</ele>
        <time>2016-07-14T07:49:00.000Z</time>
      </trkpt>
      <trkpt lat="44.5777" lon="6.19652">
        <ele>1009.200012207</ele>
        <time>2016-07-14T07:49:06.000Z</time>
      </trkpt>
      <trkpt lat="44.57767" lon="6.19648">
        <ele>1008.4000244141</ele>
        <time>2016-07-14T07:49:11.000Z</time>
      </trkpt>
      <trkpt lat="44.57767" lon="6.19646">
        <ele>1008.200012207</ele>
        <time>2016-07-14T07:49:12.000Z</time>
      </trkpt>
      <trkpt lat="44.57771" lon="6.19637">
        <ele>1008</ele>
        <time>2016-07-14T07:49:17.000Z</time>
      </trkpt>
      <trkpt lat="44.57776" lon="6.19627">
        <ele>1008</ele>
        <time>2016-07-14T07:49:23.000Z</time>
      </trkpt>
      <trkpt lat="44.57775" lon="6.19626">
        <ele>1007.799987793</ele>
        <time>2016-07-14T07:49:28.000Z</time>
      </trkpt>
      <trkpt lat="44.5777" lon="6.19636">
        <ele>1007.799987793</ele>
        <time>2016-07-14T07:49:36.000Z</time>
      </trkpt>
      <trkpt lat="44.57768" lon="6.19639">
        <ele>1007.799987793</ele>
        <time>2016-07-14T07:49:38.000Z</time>
      </trkpt>
      <trkpt lat="44.57764" lon="6.19645">
        <ele>1007.799987793</ele>
        <time>2016-07-14T07:49:43.000Z</time>
      </trkpt>
      <trkpt lat="44.57762" lon="6.19647">
        <ele>1007.5999755859</ele>
        <time>2016-07-14T07:49:46.000Z</time>
      </trkpt>
      <trkpt lat="44.57759" lon="6.19653">
        <ele>1007.4000244141</ele>
        <time>2016-07-14T07:49:51.000Z</time>
      </trkpt>
      <trkpt lat="44.57756" lon="6.19651">
        <ele>1006.799987793</ele>
        <time>2016-07-14T07:49:55.000Z</time>
      </trkpt>
      <trkpt lat="44.57758" lon="6.19652">
        <ele>1007.200012207</ele>
        <time>2016-07-14T07:50:04.000Z</time>
      </trkpt>
      <trkpt lat="44.5776" lon="6.19659">
        <ele>1007.799987793</ele>
        <time>2016-07-14T07:50:09.000Z</time>
      </trkpt>
      <trkpt lat="44.57761" lon="6.1966">
        <ele>1008</ele>
        <time>2016-07-14T07:50:10.000Z</time>
      </trkpt>
      <trkpt lat="44.57764" lon="6.19665">
        <ele>1008.799987793</ele>
        <time>2016-07-14T07:50:14.000Z</time>
      </trkpt>
      <trkpt lat="44.57764" lon="6.1967">
        <ele>1009</ele>
        <time>2016-07-14T07:50:20.000Z</time>
      </trkpt>
      <trkpt lat="44.5776" lon="6.19675">
        <ele>1008.5999755859</ele>
        <time>2016-07-14T07:50:25.000Z</time>
      </trkpt>
      <trkpt lat="44.57752" lon="6.19676">
        <ele>1007.4000244141</ele>
        <time>2016-07-14T07:50:31.000Z</time>
      </trkpt>
      <trkpt lat="44.57747" lon="6.19667">
        <ele>1006.200012207</ele>
        <time>2016-07-14T07:50:37.000Z</time>
      </trkpt>
      <trkpt lat="44.57743" lon="6.19645">
        <ele>1004.5999755859</ele>
        <time>2016-07-14T07:50:49.000Z</time>
      </trkpt>
      <trkpt lat="44.57738" lon="6.19638">
        <ele>1003</ele>
        <time>2016-07-14T07:50:55.000Z</time>
      </trkpt>
      <trkpt lat="44.57732" lon="6.19629">
        <ele>1001</ele>
        <time>2016-07-14T07:51:02.000Z</time>
      </trkpt>
      <trkpt lat="44.5773" lon="6.19626">
        <ele>1000.4000244141</ele>
        <time>2016-07-14T07:51:04.000Z</time>
      </trkpt>
      <trkpt lat="44.57721" lon="6.19616">
        <ele>997.79998779297</ele>
        <time>2016-07-14T07:51:13.000Z</time>
      </trkpt>
      <trkpt lat="44.57713" lon="6.1961">
        <ele>996</ele>
        <time>2016-07-14T07:51:19.000Z</time>
      </trkpt>
      <trkpt lat="44.577" lon="6.19602">
        <ele>993</ele>
        <time>2016-07-14T07:51:29.000Z</time>
      </trkpt>
      <trkpt lat="44.57685" lon="6.19597">
        <ele>988.79998779297</ele>
        <time>2016-07-14T07:51:40.000Z</time>
      </trkpt>
      <trkpt lat="44.57673" lon="6.19586">
        <ele>984.79998779297</ele>
        <time>2016-07-14T07:51:51.000Z</time>
      </trkpt>
      <trkpt lat="44.57673" lon="6.19585">
        <ele>984.59997558594</ele>
        <time>2016-07-14T07:51:52.000Z</time>
      </trkpt>
      <trkpt lat="44.57673" lon="6.19584">
        <ele>984.59997558594</ele>
        <time>2016-07-14T07:51:53.000Z</time>
      </trkpt>
      <trkpt lat="44.57677" lon="6.19589">
        <ele>986.20001220703</ele>
        <time>2016-07-14T07:52:08.000Z</time>
      </trkpt>
      <trkpt lat="44.57678" lon="6.19591">
        <ele>986.59997558594</ele>
        <time>2016-07-14T07:52:09.000Z</time>
      </trkpt>
      <trkpt lat="44.57683" lon="6.19601">
        <ele>988.79998779297</ele>
        <time>2016-07-14T07:52:14.000Z</time>
      </trkpt>
      <trkpt lat="44.57682" lon="6.19604">
        <ele>989</ele>
        <time>2016-07-14T07:52:15.000Z</time>
      </trkpt>
      <trkpt lat="44.57684" lon="6.1962">
        <ele>991</ele>
        <time>2016-07-14T07:52:24.000Z</time>
      </trkpt>
      <trkpt lat="44.57689" lon="6.19629">
        <ele>993.40002441406</ele>
        <time>2016-07-14T07:52:31.000Z</time>
      </trkpt>
      <trkpt lat="44.57697" lon="6.19631">
        <ele>995.40002441406</ele>
        <time>2016-07-14T07:52:37.000Z</time>
      </trkpt>
      <trkpt lat="44.57699" lon="6.19634">
        <ele>996.40002441406</ele>
        <time>2016-07-14T07:52:40.000Z</time>
      </trkpt>
      <trkpt lat="44.57701" lon="6.19639">
        <ele>997.40002441406</ele>
        <time>2016-07-14T07:52:43.000Z</time>
      </trkpt>
      <trkpt lat="44.57699" lon="6.19647">
        <ele>997.59997558594</ele>
        <time>2016-07-14T07:52:47.000Z</time>
      </trkpt>
      <trkpt lat="44.57696" lon="6.19662">
        <ele>997.79998779297</ele>
        <time>2016-07-14T07:52:55.000Z</time>
      </trkpt>
      <trkpt lat="44.57697" lon="6.19663">
        <ele>997.79998779297</ele>
        <time>2016-07-14T07:52:56.000Z</time>
      </trkpt>
      <trkpt lat="44.577" lon="6.19675">
        <ele>999.40002441406</ele>
        <time>2016-07-14T07:53:04.000Z</time>
      </trkpt>
      <trkpt lat="44.57704" lon="6.19684">
        <ele>1000.799987793</ele>
        <time>2016-07-14T07:53:10.000Z</time>
      </trkpt>
      <trkpt lat="44.57713" lon="6.19691">
        <ele>1002.4000244141</ele>
        <time>2016-07-14T07:53:14.000Z</time>
      </trkpt>
      <trkpt lat="44.57716" lon="6.19693">
        <ele>1003</ele>
        <time>2016-07-14T07:53:15.000Z</time>
      </trkpt>
      <trkpt lat="44.57729" lon="6.19712">
        <ele>1006</ele>
        <time>2016-07-14T07:53:22.000Z</time>
      </trkpt>
      <trkpt lat="44.57737" lon="6.19725">
        <ele>1008</ele>
        <time>2016-07-14T07:53:27.000Z</time>
      </trkpt>
      <trkpt lat="44.57741" lon="6.19737">
        <ele>1009.5999755859</ele>
        <time>2016-07-14T07:53:33.000Z</time>
      </trkpt>
      <trkpt lat="44.57742" lon="6.19743">
        <ele>1010.200012207</ele>
        <time>2016-07-14T07:53:36.000Z</time>
      </trkpt>
      <trkpt lat="44.57739" lon="6.19747">
        <ele>1010.200012207</ele>
        <time>2016-07-14T07:53:40.000Z</time>
      </trkpt>
      <trkpt lat="44.57737" lon="6.19758">
        <ele>1011</ele>
        <time>2016-07-14T07:53:49.000Z</time>
      </trkpt>
      <trkpt lat="44.57738" lon="6.19761">
        <ele>1011.4000244141</ele>
        <time>2016-07-14T07:53:51.000Z</time>
      </trkpt>
      <trkpt lat="44.57743" lon="6.19762">
        <ele>1012.4000244141</ele>
        <time>2016-07-14T07:53:55.000Z</time>
      </trkpt>
      <trkpt lat="44.57752" lon="6.19758">
        <ele>1013.200012207</ele>
        <time>2016-07-14T07:54:01.000Z</time>
      </trkpt>
      <trkpt lat="44.57759" lon="6.19766">
        <ele>1015</ele>
        <time>2016-07-14T07:54:08.000Z</time>
      </trkpt>
      <trkpt lat="44.57759" lon="6.19778">
        <ele>1016.200012207</ele>
        <time>2016-07-14T07:54:14.000Z</time>
      </trkpt>
      <trkpt lat="44.57762" lon="6.19793">
        <ele>1017.799987793</ele>
        <time>2016-07-14T07:54:22.000Z</time>
      </trkpt>
      <trkpt lat="44.57765" lon="6.19807">
        <ele>1019.200012207</ele>
        <time>2016-07-14T07:54:29.000Z</time>
      </trkpt>
      <trkpt lat="44.57766" lon="6.19808">
        <ele>1019.5999755859</ele>
        <time>2016-07-14T07:54:30.000Z</time>
      </trkpt>
      <trkpt lat="44.57776" lon="6.19797">
        <ele>1020.4000244141</ele>
        <time>2016-07-14T07:54:42.000Z</time>
      </trkpt>
      <trkpt lat="44.5779" lon="6.19788">
        <ele>1021.799987793</ele>
        <time>2016-07-14T07:54:52.000Z</time>
      </trkpt>
      <trkpt lat="44.57795" lon="6.19771">
        <ele>1021</ele>
        <time>2016-07-14T07:54:57.000Z</time>
      </trkpt>
      <trkpt lat="44.57803" lon="6.19752">
        <ele>1020.5999755859</ele>
        <time>2016-07-14T07:55:03.000Z</time>
      </trkpt>
      <trkpt lat="44.57811" lon="6.19742">
        <ele>1021</ele>
        <time>2016-07-14T07:55:10.000Z</time>
      </trkpt>
      <trkpt lat="44.57825" lon="6.19732">
        <ele>1022.200012207</ele>
        <time>2016-07-14T07:55:21.000Z</time>
      </trkpt>
      <trkpt lat="44.57833" lon="6.19727">
        <ele>1023</ele>
        <time>2016-07-14T07:55:28.000Z</time>
      </trkpt>
      <trkpt lat="44.57847" lon="6.19722">
        <ele>1025.1999511719</ele>
        <time>2016-07-14T07:55:40.000Z</time>
      </trkpt>
      <trkpt lat="44.57848" lon="6.19719">
        <ele>1025.1999511719</ele>
        <time>2016-07-14T07:55:42.000Z</time>
      </trkpt>
      <trkpt lat="44.57848" lon="6.19704">
        <ele>1024.4000244141</ele>
        <time>2016-07-14T07:55:49.000Z</time>
      </trkpt>
      <trkpt lat="44.57844" lon="6.19687">
        <ele>1022.799987793</ele>
        <time>2016-07-14T07:55:58.000Z</time>
      </trkpt>
      <trkpt lat="44.57841" lon="6.19668">
        <ele>1021.200012207</ele>
        <time>2016-07-14T07:56:08.000Z</time>
      </trkpt>
      <trkpt lat="44.57838" lon="6.1965">
        <ele>1019.5999755859</ele>
        <time>2016-07-14T07:56:17.000Z</time>
      </trkpt>
      <trkpt lat="44.57834" lon="6.19632">
        <ele>1017.799987793</ele>
        <time>2016-07-14T07:56:26.000Z</time>
      </trkpt>
      <trkpt lat="44.57833" lon="6.19621">
        <ele>1017</ele>
        <time>2016-07-14T07:56:31.000Z</time>
      </trkpt>
      <trkpt lat="44.57838" lon="6.19615">
        <ele>1017.200012207</ele>
        <time>2016-07-14T07:56:38.000Z</time>
      </trkpt>
      <trkpt lat="44.57841" lon="6.196">
        <ele>1017.799987793</ele>
        <time>2016-07-14T07:56:48.000Z</time>
      </trkpt>
      <trkpt lat="44.57842" lon="6.1959">
        <ele>1018</ele>
        <time>2016-07-14T07:56:53.000Z</time>
      </trkpt>
      <trkpt lat="44.57845" lon="6.19574">
        <ele>1018.799987793</ele>
        <time>2016-07-14T07:57:01.000Z</time>
      </trkpt>
      <trkpt lat="44.57845" lon="6.19562">
        <ele>1018.799987793</ele>
        <time>2016-07-14T07:57:07.000Z</time>
      </trkpt>
      <trkpt lat="44.57853" lon="6.19559">
        <ele>1020.4000244141</ele>
        <time>2016-07-14T07:57:13.000Z</time>
      </trkpt>
      <trkpt lat="44.57856" lon="6.19549">
        <ele>1021</ele>
        <time>2016-07-14T07:57:20.000Z</time>
      </trkpt>
      <trkpt lat="44.57857" lon="6.19547">
        <ele>1021.200012207</ele>
        <time>2016-07-14T07:57:22.000Z</time>
      </trkpt>
      <trkpt lat="44.57862" lon="6.19539">
        <ele>1023</ele>
        <time>2016-07-14T07:57:27.000Z</time>
      </trkpt>
      <trkpt lat="44.57863" lon="6.19537">
        <ele>1023.200012207</ele>
        <time>2016-07-14T07:57:29.000Z</time>
      </trkpt>
      <trkpt lat="44.57866" lon="6.19529">
        <ele>1024.4000244141</ele>
        <time>2016-07-14T07:57:34.000Z</time>
      </trkpt>
      <trkpt lat="44.57866" lon="6.19517">
        <ele>1024.4000244141</ele>
        <time>2016-07-14T07:57:41.000Z</time>
      </trkpt>
      <trkpt lat="44.57866" lon="6.19507">
        <ele>1024.8000488281</ele>
        <time>2016-07-14T07:57:47.000Z</time>
      </trkpt>
      <trkpt lat="44.57863" lon="6.19503">
        <ele>1024</ele>
        <time>2016-07-14T07:57:52.000Z</time>
      </trkpt>
      <trkpt lat="44.57863" lon="6.19496">
        <ele>1024</ele>
        <time>2016-07-14T07:57:57.000Z</time>
      </trkpt>
      <trkpt lat="44.57869" lon="6.19488">
        <ele>1026</ele>
        <time>2016-07-14T07:58:04.000Z</time>
      </trkpt>
      <trkpt lat="44.5787" lon="6.19487">
        <ele>1026.5999755859</ele>
        <time>2016-07-14T07:58:05.000Z</time>
      </trkpt>
      <trkpt lat="44.57877" lon="6.19479">
        <ele>1028.4000244141</ele>
        <time>2016-07-14T07:58:12.000Z</time>
      </trkpt>
      <trkpt lat="44.57879" lon="6.19477">
        <ele>1028.8000488281</ele>
        <time>2016-07-14T07:58:17.000Z</time>
      </trkpt>
      <trkpt lat="44.57879" lon="6.19474">
        <ele>1028.8000488281</ele>
        <time>2016-07-14T07:58:28.000Z</time>
      </trkpt>
      <trkpt lat="44.57882" lon="6.19465">
        <ele>1029</ele>
        <time>2016-07-14T07:58:39.000Z</time>
      </trkpt>
      <trkpt lat="44.5788" lon="6.19444">
        <ele>1027.5999755859</ele>
        <time>2016-07-14T07:58:52.000Z</time>
      </trkpt>
      <trkpt lat="44.5788" lon="6.19442">
        <ele>1027.5999755859</ele>
        <time>2016-07-14T07:58:53.000Z</time>
      </trkpt>
      <trkpt lat="44.57887" lon="6.19433">
        <ele>1029</ele>
        <time>2016-07-14T07:59:00.000Z</time>
      </trkpt>
      <trkpt lat="44.57891" lon="6.19423">
        <ele>1029.4000244141</ele>
        <time>2016-07-14T07:59:06.000Z</time>
      </trkpt>
      <trkpt lat="44.57892" lon="6.19421">
        <ele>1029.5999755859</ele>
        <time>2016-07-14T07:59:07.000Z</time>
      </trkpt>
      <trkpt lat="44.579" lon="6.19413">
        <ele>1031.1999511719</ele>
        <time>2016-07-14T07:59:14.000Z</time>
      </trkpt>
      <trkpt lat="44.57901" lon="6.1941">
        <ele>1031.5999755859</ele>
        <time>2016-07-14T07:59:16.000Z</time>
      </trkpt>
      <trkpt lat="44.57905" lon="6.19403">
        <ele>1032</ele>
        <time>2016-07-14T07:59:22.000Z</time>
      </trkpt>
      <trkpt lat="44.57908" lon="6.19394">
        <ele>1032.4000244141</ele>
        <time>2016-07-14T07:59:27.000Z</time>
      </trkpt>
      <trkpt lat="44.57909" lon="6.19393">
        <ele>1032.5999755859</ele>
        <time>2016-07-14T07:59:28.000Z</time>
      </trkpt>
      <trkpt lat="44.5791" lon="6.1938">
        <ele>1031.4000244141</ele>
        <time>2016-07-14T07:59:35.000Z</time>
      </trkpt>
      <trkpt lat="44.57916" lon="6.1936">
        <ele>1030.4000244141</ele>
        <time>2016-07-14T07:59:48.000Z</time>
      </trkpt>
      <trkpt lat="44.57918" lon="6.19344">
        <ele>1030.1999511719</ele>
        <time>2016-07-14T07:59:56.000Z</time>
      </trkpt>
      <trkpt lat="44.57918" lon="6.19337">
        <ele>1029.8000488281</ele>
        <time>2016-07-14T08:00:00.000Z</time>
      </trkpt>
      <trkpt lat="44.57919" lon="6.19333">
        <ele>1029.5999755859</ele>
        <time>2016-07-14T08:00:02.000Z</time>
      </trkpt>
      <trkpt lat="44.57923" lon="6.19321">
        <ele>1030.4000244141</ele>
        <time>2016-07-14T08:00:09.000Z</time>
      </trkpt>
      <trkpt lat="44.57927" lon="6.19311">
        <ele>1031</ele>
        <time>2016-07-14T08:00:16.000Z</time>
      </trkpt>
      <trkpt lat="44.57926" lon="6.19307">
        <ele>1030.4000244141</ele>
        <time>2016-07-14T08:00:18.000Z</time>
      </trkpt>
      <trkpt lat="44.57929" lon="6.19299">
        <ele>1030.1999511719</ele>
        <time>2016-07-14T08:00:22.000Z</time>
      </trkpt>
      <trkpt lat="44.57934" lon="6.1929">
        <ele>1031</ele>
        <time>2016-07-14T08:00:29.000Z</time>
      </trkpt>
      <trkpt lat="44.5794" lon="6.19275">
        <ele>1031.8000488281</ele>
        <time>2016-07-14T08:00:37.000Z</time>
      </trkpt>
      <trkpt lat="44.57941" lon="6.19274">
        <ele>1032</ele>
        <time>2016-07-14T08:00:38.000Z</time>
      </trkpt>
      <trkpt lat="44.57943" lon="6.19263">
        <ele>1032</ele>
        <time>2016-07-14T08:00:43.000Z</time>
      </trkpt>
      <trkpt lat="44.57951" lon="6.19251">
        <ele>1033.5999755859</ele>
        <time>2016-07-14T08:00:52.000Z</time>
      </trkpt>
      <trkpt lat="44.57955" lon="6.19248">
        <ele>1034.5999755859</ele>
        <time>2016-07-14T08:00:57.000Z</time>
      </trkpt>
      <trkpt lat="44.57961" lon="6.19241">
        <ele>1036</ele>
        <time>2016-07-14T08:01:04.000Z</time>
      </trkpt>
      <trkpt lat="44.57969" lon="6.19232">
        <ele>1037.1999511719</ele>
        <time>2016-07-14T08:01:12.000Z</time>
      </trkpt>
      <trkpt lat="44.57971" lon="6.19232">
        <ele>1037.5999755859</ele>
        <time>2016-07-14T08:01:13.000Z</time>
      </trkpt>
      <trkpt lat="44.57973" lon="6.19226">
        <ele>1037.5999755859</ele>
        <time>2016-07-14T08:01:24.000Z</time>
      </trkpt>
      <trkpt lat="44.57974" lon="6.19224">
        <ele>1037.5999755859</ele>
        <time>2016-07-14T08:01:27.000Z</time>
      </trkpt>
      <trkpt lat="44.57975" lon="6.19218">
        <ele>1037.4000244141</ele>
        <time>2016-07-14T08:01:34.000Z</time>
      </trkpt>
      <trkpt lat="44.57976" lon="6.19216">
        <ele>1037.5999755859</ele>
        <time>2016-07-14T08:01:35.000Z</time>
      </trkpt>
      <trkpt lat="44.57978" lon="6.1921">
        <ele>1037.8000488281</ele>
        <time>2016-07-14T08:01:39.000Z</time>
      </trkpt>
      <trkpt lat="44.57979" lon="6.19207">
        <ele>1037.8000488281</ele>
        <time>2016-07-14T08:01:41.000Z</time>
      </trkpt>
      <trkpt lat="44.57978" lon="6.19204">
        <ele>1037.4000244141</ele>
        <time>2016-07-14T08:01:49.000Z</time>
      </trkpt>
      <trkpt lat="44.57977" lon="6.19195">
        <ele>1036.4000244141</ele>
        <time>2016-07-14T08:02:06.000Z</time>
      </trkpt>
      <trkpt lat="44.57972" lon="6.19177">
        <ele>1033.5999755859</ele>
        <time>2016-07-14T08:02:17.000Z</time>
      </trkpt>
      <trkpt lat="44.57968" lon="6.19168">
        <ele>1032</ele>
        <time>2016-07-14T08:02:23.000Z</time>
      </trkpt>
      <trkpt lat="44.57963" lon="6.19153">
        <ele>1029.8000488281</ele>
        <time>2016-07-14T08:02:31.000Z</time>
      </trkpt>
      <trkpt lat="44.57956" lon="6.19131">
        <ele>1027</ele>
        <time>2016-07-14T08:02:43.000Z</time>
      </trkpt>
      <trkpt lat="44.57954" lon="6.19113">
        <ele>1026</ele>
        <time>2016-07-14T08:02:52.000Z</time>
      </trkpt>
      <trkpt lat="44.57952" lon="6.19101">
        <ele>1025.1999511719</ele>
        <time>2016-07-14T08:02:58.000Z</time>
      </trkpt>
      <trkpt lat="44.5795" lon="6.19082">
        <ele>1024.1999511719</ele>
        <time>2016-07-14T08:03:07.000Z</time>
      </trkpt>
      <trkpt lat="44.5795" lon="6.19068">
        <ele>1023.799987793</ele>
        <time>2016-07-14T08:03:14.000Z</time>
      </trkpt>
      <trkpt lat="44.5795" lon="6.19057">
        <ele>1023.4000244141</ele>
        <time>2016-07-14T08:03:20.000Z</time>
      </trkpt>
      <trkpt lat="44.5795" lon="6.19036">
        <ele>1022.200012207</ele>
        <time>2016-07-14T08:03:29.000Z</time>
      </trkpt>
      <trkpt lat="44.57952" lon="6.19012">
        <ele>1021.4000244141</ele>
        <time>2016-07-14T08:03:41.000Z</time>
      </trkpt>
      <trkpt lat="44.57953" lon="6.19008">
        <ele>1021.4000244141</ele>
        <time>2016-07-14T08:03:43.000Z</time>
      </trkpt>
      <trkpt lat="44.57958" lon="6.18991">
        <ele>1021.799987793</ele>
        <time>2016-07-14T08:03:52.000Z</time>
      </trkpt>
      <trkpt lat="44.5796" lon="6.18982">
        <ele>1022</ele>
        <time>2016-07-14T08:03:57.000Z</time>
      </trkpt>
      <trkpt lat="44.57965" lon="6.1897">
        <ele>1022.799987793</ele>
        <time>2016-07-14T08:04:04.000Z</time>
      </trkpt>
      <trkpt lat="44.57969" lon="6.18961">
        <ele>1023.5999755859</ele>
        <time>2016-07-14T08:04:10.000Z</time>
      </trkpt>
      <trkpt lat="44.57979" lon="6.18948">
        <ele>1025.8000488281</ele>
        <time>2016-07-14T08:04:20.000Z</time>
      </trkpt>
      <trkpt lat="44.57989" lon="6.1894">
        <ele>1028.4000244141</ele>
        <time>2016-07-14T08:04:28.000Z</time>
      </trkpt>
      <trkpt lat="44.58001" lon="6.18936">
        <ele>1031.4000244141</ele>
        <time>2016-07-14T08:04:37.000Z</time>
      </trkpt>
      <trkpt lat="44.58012" lon="6.18934">
        <ele>1033.5999755859</ele>
        <time>2016-07-14T08:04:45.000Z</time>
      </trkpt>
      <trkpt lat="44.58027" lon="6.18919">
        <ele>1035.1999511719</ele>
        <time>2016-07-14T08:04:58.000Z</time>
      </trkpt>
      <trkpt lat="44.58037" lon="6.18907">
        <ele>1036</ele>
        <time>2016-07-14T08:05:08.000Z</time>
      </trkpt>
      <trkpt lat="44.58044" lon="6.189">
        <ele>1036.8000488281</ele>
        <time>2016-07-14T08:05:16.000Z</time>
      </trkpt>
      <trkpt lat="44.58045" lon="6.189">
        <ele>1037</ele>
        <time>2016-07-14T08:05:17.000Z</time>
      </trkpt>
      <trkpt lat="44.58049" lon="6.18908">
        <ele>1038.8000488281</ele>
        <time>2016-07-14T08:05:24.000Z</time>
      </trkpt>
      <trkpt lat="44.58053" lon="6.18914">
        <ele>1040.4000244141</ele>
        <time>2016-07-14T08:05:28.000Z</time>
      </trkpt>
      <trkpt lat="44.58053" lon="6.18934">
        <ele>1043</ele>
        <time>2016-07-14T08:05:40.000Z</time>
      </trkpt>
      <trkpt lat="44.58034" lon="6.18948">
        <ele>1041</ele>
        <time>2016-07-14T08:05:56.000Z</time>
      </trkpt>
      <trkpt lat="44.58031" lon="6.18957">
        <ele>1041.1999511719</ele>
        <time>2016-07-14T08:06:02.000Z</time>
      </trkpt>
      <trkpt lat="44.58034" lon="6.18971">
        <ele>1043.8000488281</ele>
        <time>2016-07-14T08:06:10.000Z</time>
      </trkpt>
      <trkpt lat="44.58038" lon="6.18971">
        <ele>1044.8000488281</ele>
        <time>2016-07-14T08:06:14.000Z</time>
      </trkpt>
      <trkpt lat="44.5805" lon="6.18963">
        <ele>1046.4000244141</ele>
        <time>2016-07-14T08:06:23.000Z</time>
      </trkpt>
      <trkpt lat="44.58059" lon="6.18953">
        <ele>1046.8000488281</ele>
        <time>2016-07-14T08:06:31.000Z</time>
      </trkpt>
      <trkpt lat="44.58071" lon="6.18943">
        <ele>1048</ele>
        <time>2016-07-14T08:06:41.000Z</time>
      </trkpt>
      <trkpt lat="44.58077" lon="6.18944">
        <ele>1049.5999755859</ele>
        <time>2016-07-14T08:06:47.000Z</time>
      </trkpt>
      <trkpt lat="44.58078" lon="6.18946">
        <ele>1050</ele>
        <time>2016-07-14T08:06:48.000Z</time>
      </trkpt>
      <trkpt lat="44.58078" lon="6.18956">
        <ele>1051.4000244141</ele>
        <time>2016-07-14T08:06:53.000Z</time>
      </trkpt>
      <trkpt lat="44.58076" lon="6.1896">
        <ele>1051.5999755859</ele>
        <time>2016-07-14T08:06:56.000Z</time>
      </trkpt>
      <trkpt lat="44.58072" lon="6.18977">
        <ele>1052.8000488281</ele>
        <time>2016-07-14T08:07:05.000Z</time>
      </trkpt>
      <trkpt lat="44.58073" lon="6.18994">
        <ele>1054.8000488281</ele>
        <time>2016-07-14T08:07:14.000Z</time>
      </trkpt>
      <trkpt lat="44.58075" lon="6.18995">
        <ele>1055.4000244141</ele>
        <time>2016-07-14T08:07:16.000Z</time>
      </trkpt>
      <trkpt lat="44.58083" lon="6.18993">
        <ele>1056.8000488281</ele>
        <time>2016-07-14T08:07:22.000Z</time>
      </trkpt>
      <trkpt lat="44.58084" lon="6.18992">
        <ele>1057</ele>
        <time>2016-07-14T08:07:23.000Z</time>
      </trkpt>
      <trkpt lat="44.58089" lon="6.18984">
        <ele>1057.1999511719</ele>
        <time>2016-07-14T08:07:29.000Z</time>
      </trkpt>
      <trkpt lat="44.58094" lon="6.18962">
        <ele>1055.5999755859</ele>
        <time>2016-07-14T08:07:41.000Z</time>
      </trkpt>
      <trkpt lat="44.58109" lon="6.18965">
        <ele>1059.4000244141</ele>
        <time>2016-07-14T08:07:54.000Z</time>
      </trkpt>
      <trkpt lat="44.58109" lon="6.18966">
        <ele>1059.5999755859</ele>
        <time>2016-07-14T08:07:56.000Z</time>
      </trkpt>
      <trkpt lat="44.58111" lon="6.18972">
        <ele>1060.5999755859</ele>
        <time>2016-07-14T08:07:58.000Z</time>
      </trkpt>
      <trkpt lat="44.58118" lon="6.18987">
        <ele>1064</ele>
        <time>2016-07-14T08:08:08.000Z</time>
      </trkpt>
      <trkpt lat="44.58124" lon="6.19005">
        <ele>1067.1999511719</ele>
        <time>2016-07-14T08:08:18.000Z</time>
      </trkpt>
      <trkpt lat="44.58128" lon="6.19018">
        <ele>1069.4000244141</ele>
        <time>2016-07-14T08:08:26.000Z</time>
      </trkpt>
      <trkpt lat="44.5813" lon="6.19046">
        <ele>1072.8000488281</ele>
        <time>2016-07-14T08:08:42.000Z</time>
      </trkpt>
      <trkpt lat="44.58131" lon="6.1906">
        <ele>1074.1999511719</ele>
        <time>2016-07-14T08:08:51.000Z</time>
      </trkpt>
      <trkpt lat="44.58132" lon="6.19073">
        <ele>1076</ele>
        <time>2016-07-14T08:08:58.000Z</time>
      </trkpt>
      <trkpt lat="44.5813" lon="6.19087">
        <ele>1076.5999755859</ele>
        <time>2016-07-14T08:09:06.000Z</time>
      </trkpt>
      <trkpt lat="44.58129" lon="6.19096">
        <ele>1076.8000488281</ele>
        <time>2016-07-14T08:09:13.000Z</time>
      </trkpt>
      <trkpt lat="44.58127" lon="6.1911">
        <ele>1077.1999511719</ele>
        <time>2016-07-14T08:09:21.000Z</time>
      </trkpt>
      <trkpt lat="44.58128" lon="6.1912">
        <ele>1078.4000244141</ele>
        <time>2016-07-14T08:09:27.000Z</time>
      </trkpt>
      <trkpt lat="44.58133" lon="6.1912">
        <ele>1079.8000488281</ele>
        <time>2016-07-14T08:09:32.000Z</time>
      </trkpt>
      <trkpt lat="44.58136" lon="6.19117">
        <ele>1080.4000244141</ele>
        <time>2016-07-14T08:09:34.000Z</time>
      </trkpt>
      <trkpt lat="44.58142" lon="6.19098">
        <ele>1081</ele>
        <time>2016-07-14T08:09:45.000Z</time>
      </trkpt>
      <trkpt lat="44.58145" lon="6.1908">
        <ele>1080.4000244141</ele>
        <time>2016-07-14T08:09:55.000Z</time>
      </trkpt>
      <trkpt lat="44.58149" lon="6.19065">
        <ele>1079.5999755859</ele>
        <time>2016-07-14T08:10:04.000Z</time>
      </trkpt>
      <trkpt lat="44.58156" lon="6.19056">
        <ele>1080.4000244141</ele>
        <time>2016-07-14T08:10:10.000Z</time>
      </trkpt>
      <trkpt lat="44.5816" lon="6.19051">
        <ele>1081.1999511719</ele>
        <time>2016-07-14T08:10:14.000Z</time>
      </trkpt>
      <trkpt lat="44.58165" lon="6.19052">
        <ele>1082.5999755859</ele>
        <time>2016-07-14T08:10:18.000Z</time>
      </trkpt>
      <trkpt lat="44.58168" lon="6.19058">
        <ele>1083.8000488281</ele>
        <time>2016-07-14T08:10:22.000Z</time>
      </trkpt>
      <trkpt lat="44.58168" lon="6.19075">
        <ele>1085.8000488281</ele>
        <time>2016-07-14T08:10:31.000Z</time>
      </trkpt>
      <trkpt lat="44.58163" lon="6.19111">
        <ele>1088.5999755859</ele>
        <time>2016-07-14T08:10:53.000Z</time>
      </trkpt>
      <trkpt lat="44.58167" lon="6.19121">
        <ele>1090.5999755859</ele>
        <time>2016-07-14T08:11:00.000Z</time>
      </trkpt>
      <trkpt lat="44.58169" lon="6.19121">
        <ele>1091</ele>
        <time>2016-07-14T08:11:01.000Z</time>
      </trkpt>
      <trkpt lat="44.58172" lon="6.19122">
        <ele>1092.1999511719</ele>
        <time>2016-07-14T08:11:04.000Z</time>
      </trkpt>
      <trkpt lat="44.58179" lon="6.19118">
        <ele>1094</ele>
        <time>2016-07-14T08:11:10.000Z</time>
      </trkpt>
      <trkpt lat="44.58189" lon="6.19107">
        <ele>1095.1999511719</ele>
        <time>2016-07-14T08:11:20.000Z</time>
      </trkpt>
      <trkpt lat="44.58195" lon="6.19098">
        <ele>1095.5999755859</ele>
        <time>2016-07-14T08:11:26.000Z</time>
      </trkpt>
      <trkpt lat="44.58199" lon="6.19089">
        <ele>1095.5999755859</ele>
        <time>2016-07-14T08:11:32.000Z</time>
      </trkpt>
      <trkpt lat="44.58205" lon="6.19074">
        <ele>1095.4000244141</ele>
        <time>2016-07-14T08:11:42.000Z</time>
      </trkpt>
      <trkpt lat="44.58211" lon="6.19057">
        <ele>1095.4000244141</ele>
        <time>2016-07-14T08:11:52.000Z</time>
      </trkpt>
      <trkpt lat="44.58217" lon="6.19052">
        <ele>1097</ele>
        <time>2016-07-14T08:11:57.000Z</time>
      </trkpt>
      <trkpt lat="44.58225" lon="6.19057">
        <ele>1099.8000488281</ele>
        <time>2016-07-14T08:12:04.000Z</time>
      </trkpt>
      <trkpt lat="44.58232" lon="6.19067">
        <ele>1102.5999755859</ele>
        <time>2016-07-14T08:12:11.000Z</time>
      </trkpt>
      <trkpt lat="44.58232" lon="6.19078">
        <ele>1103.8000488281</ele>
        <time>2016-07-14T08:12:17.000Z</time>
      </trkpt>
      <trkpt lat="44.58229" lon="6.19086">
        <ele>1103.4000244141</ele>
        <time>2016-07-14T08:12:22.000Z</time>
      </trkpt>
      <trkpt lat="44.58225" lon="6.19098">
        <ele>1103.8000488281</ele>
        <time>2016-07-14T08:12:30.000Z</time>
      </trkpt>
      <trkpt lat="44.58224" lon="6.19103">
        <ele>1104.1999511719</ele>
        <time>2016-07-14T08:12:32.000Z</time>
      </trkpt>
      <trkpt lat="44.58224" lon="6.19111">
        <ele>1105.1999511719</ele>
        <time>2016-07-14T08:12:37.000Z</time>
      </trkpt>
      <trkpt lat="44.58223" lon="6.19125">
        <ele>1106.5999755859</ele>
        <time>2016-07-14T08:12:45.000Z</time>
      </trkpt>
      <trkpt lat="44.58226" lon="6.1913">
        <ele>1108</ele>
        <time>2016-07-14T08:12:49.000Z</time>
      </trkpt>
      <trkpt lat="44.58234" lon="6.19129">
        <ele>1110.1999511719</ele>
        <time>2016-07-14T08:12:56.000Z</time>
      </trkpt>
      <trkpt lat="44.58244" lon="6.19117">
        <ele>1111.4000244141</ele>
        <time>2016-07-14T08:13:06.000Z</time>
      </trkpt>
      <trkpt lat="44.58253" lon="6.19105">
        <ele>1112.5999755859</ele>
        <time>2016-07-14T08:13:14.000Z</time>
      </trkpt>
      <trkpt lat="44.58259" lon="6.19094">
        <ele>1113.4000244141</ele>
        <time>2016-07-14T08:13:22.000Z</time>
      </trkpt>
      <trkpt lat="44.58266" lon="6.19081">
        <ele>1114.4000244141</ele>
        <time>2016-07-14T08:13:31.000Z</time>
      </trkpt>
      <trkpt lat="44.58278" lon="6.19072">
        <ele>1117</ele>
        <time>2016-07-14T08:13:42.000Z</time>
      </trkpt>
      <trkpt lat="44.58281" lon="6.19074">
        <ele>1118.1999511719</ele>
        <time>2016-07-14T08:13:44.000Z</time>
      </trkpt>
      <trkpt lat="44.58286" lon="6.19087">
        <ele>1120.8000488281</ele>
        <time>2016-07-14T08:13:52.000Z</time>
      </trkpt>
      <trkpt lat="44.58285" lon="6.19102">
        <ele>1122</ele>
        <time>2016-07-14T08:14:01.000Z</time>
      </trkpt>
      <trkpt lat="44.58284" lon="6.19114">
        <ele>1122.8000488281</ele>
        <time>2016-07-14T08:14:07.000Z</time>
      </trkpt>
      <trkpt lat="44.58284" lon="6.19122">
        <ele>1123.8000488281</ele>
        <time>2016-07-14T08:14:12.000Z</time>
      </trkpt>
      <trkpt lat="44.58278" lon="6.19137">
        <ele>1123.1999511719</ele>
        <time>2016-07-14T08:14:22.000Z</time>
      </trkpt>
      <trkpt lat="44.58275" lon="6.1915">
        <ele>1123.5999755859</ele>
        <time>2016-07-14T08:14:30.000Z</time>
      </trkpt>
      <trkpt lat="44.58279" lon="6.19158">
        <ele>1125.5999755859</ele>
        <time>2016-07-14T08:14:36.000Z</time>
      </trkpt>
      <trkpt lat="44.58282" lon="6.19158">
        <ele>1126.5999755859</ele>
        <time>2016-07-14T08:14:39.000Z</time>
      </trkpt>
      <trkpt lat="44.58289" lon="6.19149">
        <ele>1127.5999755859</ele>
        <time>2016-07-14T08:14:46.000Z</time>
      </trkpt>
      <trkpt lat="44.58301" lon="6.19128">
        <ele>1128.5999755859</ele>
        <time>2016-07-14T08:15:00.000Z</time>
      </trkpt>
      <trkpt lat="44.58307" lon="6.1912">
        <ele>1129.4000244141</ele>
        <time>2016-07-14T08:15:06.000Z</time>
      </trkpt>
      <trkpt lat="44.58309" lon="6.19118">
        <ele>1130</ele>
        <time>2016-07-14T08:15:08.000Z</time>
      </trkpt>
      <trkpt lat="44.58316" lon="6.1912">
        <ele>1131.8000488281</ele>
        <time>2016-07-14T08:15:12.000Z</time>
      </trkpt>
      <trkpt lat="44.58318" lon="6.19131">
        <ele>1133.4000244141</ele>
        <time>2016-07-14T08:15:20.000Z</time>
      </trkpt>
      <trkpt lat="44.58316" lon="6.19143">
        <ele>1134</ele>
        <time>2016-07-14T08:15:26.000Z</time>
      </trkpt>
      <trkpt lat="44.58309" lon="6.19154">
        <ele>1133.4000244141</ele>
        <time>2016-07-14T08:15:34.000Z</time>
      </trkpt>
      <trkpt lat="44.58304" lon="6.19171">
        <ele>1133.4000244141</ele>
        <time>2016-07-14T08:15:44.000Z</time>
      </trkpt>
      <trkpt lat="44.58314" lon="6.19177">
        <ele>1136.8000488281</ele>
        <time>2016-07-14T08:15:56.000Z</time>
      </trkpt>
      <trkpt lat="44.58326" lon="6.19158">
        <ele>1138.1999511719</ele>
        <time>2016-07-14T08:16:10.000Z</time>
      </trkpt>
      <trkpt lat="44.58335" lon="6.19142">
        <ele>1138.8000488281</ele>
        <time>2016-07-14T08:16:20.000Z</time>
      </trkpt>
      <trkpt lat="44.58345" lon="6.19125">
        <ele>1140</ele>
        <time>2016-07-14T08:16:31.000Z</time>
      </trkpt>
      <trkpt lat="44.58354" lon="6.19111">
        <ele>1141</ele>
        <time>2016-07-14T08:16:41.000Z</time>
      </trkpt>
      <trkpt lat="44.5837" lon="6.19099">
        <ele>1144</ele>
        <time>2016-07-14T08:16:55.000Z</time>
      </trkpt>
      <trkpt lat="44.58372" lon="6.19101">
        <ele>1144.5999755859</ele>
        <time>2016-07-14T08:16:56.000Z</time>
      </trkpt>
      <trkpt lat="44.5837" lon="6.19118">
        <ele>1145.8000488281</ele>
        <time>2016-07-14T08:17:06.000Z</time>
      </trkpt>
      <trkpt lat="44.58366" lon="6.19133">
        <ele>1146.4000244141</ele>
        <time>2016-07-14T08:17:14.000Z</time>
      </trkpt>
      <trkpt lat="44.58368" lon="6.19142">
        <ele>1147.5999755859</ele>
        <time>2016-07-14T08:17:20.000Z</time>
      </trkpt>
      <trkpt lat="44.58375" lon="6.1914">
        <ele>1149</ele>
        <time>2016-07-14T08:17:26.000Z</time>
      </trkpt>
      <trkpt lat="44.58392" lon="6.19116">
        <ele>1150.4000244141</ele>
        <time>2016-07-14T08:17:44.000Z</time>
      </trkpt>
      <trkpt lat="44.58403" lon="6.19112">
        <ele>1152.5999755859</ele>
        <time>2016-07-14T08:17:53.000Z</time>
      </trkpt>
      <trkpt lat="44.5841" lon="6.19129">
        <ele>1155.5999755859</ele>
        <time>2016-07-14T08:18:05.000Z</time>
      </trkpt>
      <trkpt lat="44.58408" lon="6.19141">
        <ele>1156.4000244141</ele>
        <time>2016-07-14T08:18:12.000Z</time>
      </trkpt>
      <trkpt lat="44.584" lon="6.19158">
        <ele>1155.8000488281</ele>
        <time>2016-07-14T08:18:22.000Z</time>
      </trkpt>
      <trkpt lat="44.58392" lon="6.19174">
        <ele>1155.5999755859</ele>
        <time>2016-07-14T08:18:32.000Z</time>
      </trkpt>
      <trkpt lat="44.58386" lon="6.19191">
        <ele>1156</ele>
        <time>2016-07-14T08:18:42.000Z</time>
      </trkpt>
      <trkpt lat="44.58393" lon="6.19214">
        <ele>1159.8000488281</ele>
        <time>2016-07-14T08:18:56.000Z</time>
      </trkpt>
      <trkpt lat="44.58401" lon="6.19219">
        <ele>1161.8000488281</ele>
        <time>2016-07-14T08:19:04.000Z</time>
      </trkpt>
      <trkpt lat="44.58403" lon="6.1922">
        <ele>1162.1999511719</ele>
        <time>2016-07-14T08:19:06.000Z</time>
      </trkpt>
      <trkpt lat="44.58407" lon="6.1922">
        <ele>1163.1999511719</ele>
        <time>2016-07-14T08:19:10.000Z</time>
      </trkpt>
      <trkpt lat="44.58421" lon="6.19219">
        <ele>1165.8000488281</ele>
        <time>2016-07-14T08:19:20.000Z</time>
      </trkpt>
      <trkpt lat="44.58432" lon="6.19218">
        <ele>1168</ele>
        <time>2016-07-14T08:19:29.000Z</time>
      </trkpt>
      <trkpt lat="44.58439" lon="6.19226">
        <ele>1170.1999511719</ele>
        <time>2016-07-14T08:19:36.000Z</time>
      </trkpt>
      <trkpt lat="44.58436" lon="6.19242">
        <ele>1171.4000244141</ele>
        <time>2016-07-14T08:19:46.000Z</time>
      </trkpt>
      <trkpt lat="44.58427" lon="6.19258">
        <ele>1171.1999511719</ele>
        <time>2016-07-14T08:19:56.000Z</time>
      </trkpt>
      <trkpt lat="44.58422" lon="6.19271">
        <ele>1171.8000488281</ele>
        <time>2016-07-14T08:20:05.000Z</time>
      </trkpt>
      <trkpt lat="44.58421" lon="6.19289">
        <ele>1173.1999511719</ele>
        <time>2016-07-14T08:20:14.000Z</time>
      </trkpt>
      <trkpt lat="44.58425" lon="6.19307">
        <ele>1176</ele>
        <time>2016-07-14T08:20:24.000Z</time>
      </trkpt>
      <trkpt lat="44.58433" lon="6.19313">
        <ele>1178</ele>
        <time>2016-07-14T08:20:31.000Z</time>
      </trkpt>
      <trkpt lat="44.58439" lon="6.19307">
        <ele>1179</ele>
        <time>2016-07-14T08:20:37.000Z</time>
      </trkpt>
      <trkpt lat="44.58449" lon="6.19295">
        <ele>1179.8000488281</ele>
        <time>2016-07-14T08:20:49.000Z</time>
      </trkpt>
      <trkpt lat="44.58454" lon="6.19294">
        <ele>1180.5999755859</ele>
        <time>2016-07-14T08:20:52.000Z</time>
      </trkpt>
      <trkpt lat="44.58464" lon="6.19282">
        <ele>1181.4000244141</ele>
        <time>2016-07-14T08:21:03.000Z</time>
      </trkpt>
      <trkpt lat="44.58474" lon="6.19275">
        <ele>1182.8000488281</ele>
        <time>2016-07-14T08:21:12.000Z</time>
      </trkpt>
      <trkpt lat="44.58485" lon="6.19265">
        <ele>1184.1999511719</ele>
        <time>2016-07-14T08:21:23.000Z</time>
      </trkpt>
      <trkpt lat="44.58493" lon="6.19254">
        <ele>1184.4000244141</ele>
        <time>2016-07-14T08:21:31.000Z</time>
      </trkpt>
      <trkpt lat="44.58502" lon="6.19237">
        <ele>1184</ele>
        <time>2016-07-14T08:21:42.000Z</time>
      </trkpt>
      <trkpt lat="44.58512" lon="6.19226">
        <ele>1184.4000244141</ele>
        <time>2016-07-14T08:21:52.000Z</time>
      </trkpt>
      <trkpt lat="44.58514" lon="6.19226">
        <ele>1184.8000488281</ele>
        <time>2016-07-14T08:21:55.000Z</time>
      </trkpt>
      <trkpt lat="44.58519" lon="6.1923">
        <ele>1186.1999511719</ele>
        <time>2016-07-14T08:21:59.000Z</time>
      </trkpt>
      <trkpt lat="44.58518" lon="6.19234">
        <ele>1186.5999755859</ele>
        <time>2016-07-14T08:22:01.000Z</time>
      </trkpt>
      <trkpt lat="44.58515" lon="6.19248">
        <ele>1187.8000488281</ele>
        <time>2016-07-14T08:22:08.000Z</time>
      </trkpt>
      <trkpt lat="44.58512" lon="6.19257">
        <ele>1188.5999755859</ele>
        <time>2016-07-14T08:22:14.000Z</time>
      </trkpt>
      <trkpt lat="44.58514" lon="6.19275">
        <ele>1191.1999511719</ele>
        <time>2016-07-14T08:22:26.000Z</time>
      </trkpt>
      <trkpt lat="44.58519" lon="6.19271">
        <ele>1191.5999755859</ele>
        <time>2016-07-14T08:22:39.000Z</time>
      </trkpt>
      <trkpt lat="44.58534" lon="6.19265">
        <ele>1193.5999755859</ele>
        <time>2016-07-14T08:22:50.000Z</time>
      </trkpt>
      <trkpt lat="44.58545" lon="6.19258">
        <ele>1195.1999511719</ele>
        <time>2016-07-14T08:22:59.000Z</time>
      </trkpt>
      <trkpt lat="44.58554" lon="6.19251">
        <ele>1196.1999511719</ele>
        <time>2016-07-14T08:23:07.000Z</time>
      </trkpt>
      <trkpt lat="44.58559" lon="6.19235">
        <ele>1196.1999511719</ele>
        <time>2016-07-14T08:23:16.000Z</time>
      </trkpt>
      <trkpt lat="44.58557" lon="6.19221">
        <ele>1194.5999755859</ele>
        <time>2016-07-14T08:23:24.000Z</time>
      </trkpt>
      <trkpt lat="44.58556" lon="6.1922">
        <ele>1194.4000244141</ele>
        <time>2016-07-14T08:23:25.000Z</time>
      </trkpt>
      <trkpt lat="44.58548" lon="6.19211">
        <ele>1191.8000488281</ele>
        <time>2016-07-14T08:23:32.000Z</time>
      </trkpt>
      <trkpt lat="44.58545" lon="6.19193">
        <ele>1190.4000244141</ele>
        <time>2016-07-14T08:23:41.000Z</time>
      </trkpt>
      <trkpt lat="44.58547" lon="6.19177">
        <ele>1190.1999511719</ele>
        <time>2016-07-14T08:23:49.000Z</time>
      </trkpt>
      <trkpt lat="44.58548" lon="6.19163">
        <ele>1190.1999511719</ele>
        <time>2016-07-14T08:23:57.000Z</time>
      </trkpt>
      <trkpt lat="44.5855" lon="6.19151">
        <ele>1190.1999511719</ele>
        <time>2016-07-14T08:24:04.000Z</time>
      </trkpt>
      <trkpt lat="44.5855" lon="6.19149">
        <ele>1190</ele>
        <time>2016-07-14T08:24:05.000Z</time>
      </trkpt>
      <trkpt lat="44.5855" lon="6.19141">
        <ele>1189.5999755859</ele>
        <time>2016-07-14T08:24:12.000Z</time>
      </trkpt>
      <trkpt lat="44.58557" lon="6.19126">
        <ele>1190.4000244141</ele>
        <time>2016-07-14T08:24:20.000Z</time>
      </trkpt>
      <trkpt lat="44.58558" lon="6.19124">
        <ele>1190.5999755859</ele>
        <time>2016-07-14T08:24:25.000Z</time>
      </trkpt>
      <trkpt lat="44.58565" lon="6.19113">
        <ele>1191.5999755859</ele>
        <time>2016-07-14T08:24:33.000Z</time>
      </trkpt>
      <trkpt lat="44.58573" lon="6.19106">
        <ele>1193.4000244141</ele>
        <time>2016-07-14T08:24:39.000Z</time>
      </trkpt>
      <trkpt lat="44.58581" lon="6.19094">
        <ele>1194</ele>
        <time>2016-07-14T08:24:47.000Z</time>
      </trkpt>
      <trkpt lat="44.58582" lon="6.19087">
        <ele>1193.5999755859</ele>
        <time>2016-07-14T08:24:53.000Z</time>
      </trkpt>
      <trkpt lat="44.58583" lon="6.19079">
        <ele>1193</ele>
        <time>2016-07-14T08:25:14.000Z</time>
      </trkpt>
      <trkpt lat="44.58584" lon="6.19063">
        <ele>1191.8000488281</ele>
        <time>2016-07-14T08:25:22.000Z</time>
      </trkpt>
      <trkpt lat="44.58596" lon="6.19008">
        <ele>1193.5999755859</ele>
        <time>2016-07-14T08:25:53.000Z</time>
      </trkpt>
      <trkpt lat="44.58603" lon="6.18999">
        <ele>1195</ele>
        <time>2016-07-14T08:26:00.000Z</time>
      </trkpt>
      <trkpt lat="44.58611" lon="6.18987">
        <ele>1196.5999755859</ele>
        <time>2016-07-14T08:26:09.000Z</time>
      </trkpt>
      <trkpt lat="44.58614" lon="6.1898">
        <ele>1197</ele>
        <time>2016-07-14T08:26:14.000Z</time>
      </trkpt>
      <trkpt lat="44.58617" lon="6.18965">
        <ele>1196.5999755859</ele>
        <time>2016-07-14T08:26:22.000Z</time>
      </trkpt>
      <trkpt lat="44.5862" lon="6.18949">
        <ele>1195.5999755859</ele>
        <time>2016-07-14T08:26:31.000Z</time>
      </trkpt>
      <trkpt lat="44.58626" lon="6.18929">
        <ele>1194.8000488281</ele>
        <time>2016-07-14T08:26:41.000Z</time>
      </trkpt>
      <trkpt lat="44.5863" lon="6.18913">
        <ele>1194.1999511719</ele>
        <time>2016-07-14T08:26:50.000Z</time>
      </trkpt>
      <trkpt lat="44.58632" lon="6.18909">
        <ele>1194.1999511719</ele>
        <time>2016-07-14T08:26:52.000Z</time>
      </trkpt>
      <trkpt lat="44.58635" lon="6.18903">
        <ele>1194.5999755859</ele>
        <time>2016-07-14T08:26:57.000Z</time>
      </trkpt>
      <trkpt lat="44.58636" lon="6.18905">
        <ele>1195</ele>
        <time>2016-07-14T08:27:01.000Z</time>
      </trkpt>
      <trkpt lat="44.58632" lon="6.18906">
        <ele>1194</ele>
        <time>2016-07-14T08:27:06.000Z</time>
      </trkpt>
      <trkpt lat="44.58628" lon="6.18902">
        <ele>1192.8000488281</ele>
        <time>2016-07-14T08:27:13.000Z</time>
      </trkpt>
      <trkpt lat="44.58628" lon="6.18901">
        <ele>1192.5999755859</ele>
        <time>2016-07-14T08:27:14.000Z</time>
      </trkpt>
      <trkpt lat="44.58627" lon="6.18892">
        <ele>1192</ele>
        <time>2016-07-14T08:27:19.000Z</time>
      </trkpt>
      <trkpt lat="44.58628" lon="6.18888">
        <ele>1192</ele>
        <time>2016-07-14T08:27:21.000Z</time>
      </trkpt>
      <trkpt lat="44.58633" lon="6.18879">
        <ele>1192.5999755859</ele>
        <time>2016-07-14T08:27:27.000Z</time>
      </trkpt>
      <trkpt lat="44.58634" lon="6.1887">
        <ele>1192</ele>
        <time>2016-07-14T08:27:34.000Z</time>
      </trkpt>
      <trkpt lat="44.58632" lon="6.18859">
        <ele>1191</ele>
        <time>2016-07-14T08:27:42.000Z</time>
      </trkpt>
      <trkpt lat="44.58633" lon="6.18845">
        <ele>1190.1999511719</ele>
        <time>2016-07-14T08:27:50.000Z</time>
      </trkpt>
      <trkpt lat="44.58634" lon="6.18839">
        <ele>1190</ele>
        <time>2016-07-14T08:27:52.000Z</time>
      </trkpt>
      <trkpt lat="44.58635" lon="6.18828">
        <ele>1189.4000244141</ele>
        <time>2016-07-14T08:27:59.000Z</time>
      </trkpt>
      <trkpt lat="44.58636" lon="6.1882">
        <ele>1188.8000488281</ele>
        <time>2016-07-14T08:28:05.000Z</time>
      </trkpt>
      <trkpt lat="44.58635" lon="6.18813">
        <ele>1188</ele>
        <time>2016-07-14T08:28:22.000Z</time>
      </trkpt>
      <trkpt lat="44.58634" lon="6.18806">
        <ele>1187.5999755859</ele>
        <time>2016-07-14T08:28:28.000Z</time>
      </trkpt>
      <trkpt lat="44.58632" lon="6.18795">
        <ele>1186.5999755859</ele>
        <time>2016-07-14T08:28:35.000Z</time>
      </trkpt>
      <trkpt lat="44.58632" lon="6.18792">
        <ele>1186.5999755859</ele>
        <time>2016-07-14T08:28:36.000Z</time>
      </trkpt>
      <trkpt lat="44.58635" lon="6.18781">
        <ele>1187</ele>
        <time>2016-07-14T08:28:42.000Z</time>
      </trkpt>
      <trkpt lat="44.58635" lon="6.18779">
        <ele>1187</ele>
        <time>2016-07-14T08:28:44.000Z</time>
      </trkpt>
      <trkpt lat="44.58633" lon="6.18772">
        <ele>1186</ele>
        <time>2016-07-14T08:28:48.000Z</time>
      </trkpt>
      <trkpt lat="44.58632" lon="6.18769">
        <ele>1185.5999755859</ele>
        <time>2016-07-14T08:28:50.000Z</time>
      </trkpt>
      <trkpt lat="44.58628" lon="6.18764">
        <ele>1184.5999755859</ele>
        <time>2016-07-14T08:28:54.000Z</time>
      </trkpt>
      <trkpt lat="44.58619" lon="6.18762">
        <ele>1182.4000244141</ele>
        <time>2016-07-14T08:29:02.000Z</time>
      </trkpt>
      <trkpt lat="44.58612" lon="6.18759">
        <ele>1181</ele>
        <time>2016-07-14T08:29:07.000Z</time>
      </trkpt>
      <trkpt lat="44.58615" lon="6.18744">
        <ele>1181</ele>
        <time>2016-07-14T08:29:16.000Z</time>
      </trkpt>
      <trkpt lat="44.58616" lon="6.18731">
        <ele>1180.8000488281</ele>
        <time>2016-07-14T08:29:23.000Z</time>
      </trkpt>
      <trkpt lat="44.58619" lon="6.18718">
        <ele>1180.8000488281</ele>
        <time>2016-07-14T08:29:30.000Z</time>
      </trkpt>
      <trkpt lat="44.58622" lon="6.18706">
        <ele>1181</ele>
        <time>2016-07-14T08:29:37.000Z</time>
      </trkpt>
      <trkpt lat="44.58623" lon="6.18695">
        <ele>1180.8000488281</ele>
        <time>2016-07-14T08:29:44.000Z</time>
      </trkpt>
      <trkpt lat="44.58623" lon="6.18683">
        <ele>1180.4000244141</ele>
        <time>2016-07-14T08:29:50.000Z</time>
      </trkpt>
      <trkpt lat="44.58621" lon="6.18677">
        <ele>1179.8000488281</ele>
        <time>2016-07-14T08:29:55.000Z</time>
      </trkpt>
      <trkpt lat="44.58621" lon="6.18673">
        <ele>1179.5999755859</ele>
        <time>2016-07-14T08:29:58.000Z</time>
      </trkpt>
      <trkpt lat="44.58622" lon="6.18645">
        <ele>1178.8000488281</ele>
        <time>2016-07-14T08:30:14.000Z</time>
      </trkpt>
      <trkpt lat="44.58623" lon="6.18631">
        <ele>1177.4000244141</ele>
        <time>2016-07-14T08:30:21.000Z</time>
      </trkpt>
      <trkpt lat="44.58626" lon="6.18616">
        <ele>1176.4000244141</ele>
        <time>2016-07-14T08:30:30.000Z</time>
      </trkpt>
      <trkpt lat="44.58629" lon="6.18607">
        <ele>1176.1999511719</ele>
        <time>2016-07-14T08:30:35.000Z</time>
      </trkpt>
      <trkpt lat="44.5863" lon="6.18604">
        <ele>1175.8000488281</ele>
        <time>2016-07-14T08:30:37.000Z</time>
      </trkpt>
      <trkpt lat="44.58633" lon="6.18597">
        <ele>1175.8000488281</ele>
        <time>2016-07-14T08:30:42.000Z</time>
      </trkpt>
      <trkpt lat="44.58634" lon="6.18594">
        <ele>1175.5999755859</ele>
        <time>2016-07-14T08:30:44.000Z</time>
      </trkpt>
      <trkpt lat="44.5864" lon="6.18574">
        <ele>1174.5999755859</ele>
        <time>2016-07-14T08:30:58.000Z</time>
      </trkpt>
      <trkpt lat="44.58644" lon="6.18569">
        <ele>1175</ele>
        <time>2016-07-14T08:31:18.000Z</time>
      </trkpt>
      <trkpt lat="44.58645" lon="6.18568">
        <ele>1175.1999511719</ele>
        <time>2016-07-14T08:31:19.000Z</time>
      </trkpt>
      <trkpt lat="44.58657" lon="6.18561">
        <ele>1176.8000488281</ele>
        <time>2016-07-14T08:31:29.000Z</time>
      </trkpt>
      <trkpt lat="44.58667" lon="6.18547">
        <ele>1178.5999755859</ele>
        <time>2016-07-14T08:31:39.000Z</time>
      </trkpt>
      <trkpt lat="44.58673" lon="6.18531">
        <ele>1179.4000244141</ele>
        <time>2016-07-14T08:31:48.000Z</time>
      </trkpt>
      <trkpt lat="44.58677" lon="6.18514">
        <ele>1179.4000244141</ele>
        <time>2016-07-14T08:31:57.000Z</time>
      </trkpt>
      <trkpt lat="44.58675" lon="6.18501">
        <ele>1178.4000244141</ele>
        <time>2016-07-14T08:32:04.000Z</time>
      </trkpt>
      <trkpt lat="44.58677" lon="6.18485">
        <ele>1177.8000488281</ele>
        <time>2016-07-14T08:32:12.000Z</time>
      </trkpt>
      <trkpt lat="44.5868" lon="6.18468">
        <ele>1178</ele>
        <time>2016-07-14T08:32:21.000Z</time>
      </trkpt>
      <trkpt lat="44.58685" lon="6.18447">
        <ele>1178.4000244141</ele>
        <time>2016-07-14T08:32:31.000Z</time>
      </trkpt>
      <trkpt lat="44.5869" lon="6.18424">
        <ele>1179.1999511719</ele>
        <time>2016-07-14T08:32:43.000Z</time>
      </trkpt>
      <trkpt lat="44.58693" lon="6.18409">
        <ele>1179.5999755859</ele>
        <time>2016-07-14T08:32:51.000Z</time>
      </trkpt>
      <trkpt lat="44.58696" lon="6.18388">
        <ele>1179.5999755859</ele>
        <time>2016-07-14T08:33:02.000Z</time>
      </trkpt>
      <trkpt lat="44.58696" lon="6.18381">
        <ele>1179.4000244141</ele>
        <time>2016-07-14T08:33:05.000Z</time>
      </trkpt>
      <trkpt lat="44.58698" lon="6.18368">
        <ele>1179.4000244141</ele>
        <time>2016-07-14T08:33:12.000Z</time>
      </trkpt>
      <trkpt lat="44.587" lon="6.18347">
        <ele>1179.5999755859</ele>
        <time>2016-07-14T08:33:22.000Z</time>
      </trkpt>
      <trkpt lat="44.58702" lon="6.18327">
        <ele>1179.5999755859</ele>
        <time>2016-07-14T08:33:32.000Z</time>
      </trkpt>
      <trkpt lat="44.58703" lon="6.18303">
        <ele>1179</ele>
        <time>2016-07-14T08:33:44.000Z</time>
      </trkpt>
      <trkpt lat="44.58703" lon="6.18287">
        <ele>1178.5999755859</ele>
        <time>2016-07-14T08:33:52.000Z</time>
      </trkpt>
      <trkpt lat="44.58708" lon="6.18274">
        <ele>1179.4000244141</ele>
        <time>2016-07-14T08:34:00.000Z</time>
      </trkpt>
      <trkpt lat="44.58716" lon="6.18259">
        <ele>1181</ele>
        <time>2016-07-14T08:34:10.000Z</time>
      </trkpt>
      <trkpt lat="44.58721" lon="6.18245">
        <ele>1182</ele>
        <time>2016-07-14T08:34:19.000Z</time>
      </trkpt>
      <trkpt lat="44.58725" lon="6.18226">
        <ele>1182.4000244141</ele>
        <time>2016-07-14T08:34:30.000Z</time>
      </trkpt>
      <trkpt lat="44.58728" lon="6.18212">
        <ele>1182.5999755859</ele>
        <time>2016-07-14T08:34:37.000Z</time>
      </trkpt>
      <trkpt lat="44.58732" lon="6.18197">
        <ele>1183.1999511719</ele>
        <time>2016-07-14T08:34:46.000Z</time>
      </trkpt>
      <trkpt lat="44.58733" lon="6.18191">
        <ele>1183.4000244141</ele>
        <time>2016-07-14T08:34:52.000Z</time>
      </trkpt>
      <trkpt lat="44.58734" lon="6.18188">
        <ele>1183.5999755859</ele>
        <time>2016-07-14T08:34:58.000Z</time>
      </trkpt>
      <trkpt lat="44.58737" lon="6.18181">
        <ele>1184.1999511719</ele>
        <time>2016-07-14T08:35:02.000Z</time>
      </trkpt>
      <trkpt lat="44.58746" lon="6.18164">
        <ele>1184</ele>
        <time>2016-07-14T08:35:13.000Z</time>
      </trkpt>
      <trkpt lat="44.58754" lon="6.18154">
        <ele>1184.8000488281</ele>
        <time>2016-07-14T08:35:21.000Z</time>
      </trkpt>
      <trkpt lat="44.58766" lon="6.18144">
        <ele>1186.1999511719</ele>
        <time>2016-07-14T08:35:30.000Z</time>
      </trkpt>
      <trkpt lat="44.58777" lon="6.18136">
        <ele>1188</ele>
        <time>2016-07-14T08:35:39.000Z</time>
      </trkpt>
      <trkpt lat="44.58786" lon="6.18125">
        <ele>1188.8000488281</ele>
        <time>2016-07-14T08:35:48.000Z</time>
      </trkpt>
      <trkpt lat="44.5879" lon="6.18114">
        <ele>1188.8000488281</ele>
        <time>2016-07-14T08:35:55.000Z</time>
      </trkpt>
      <trkpt lat="44.58797" lon="6.18101">
        <ele>1189</ele>
        <time>2016-07-14T08:36:04.000Z</time>
      </trkpt>
      <trkpt lat="44.588" lon="6.18097">
        <ele>1189.1999511719</ele>
        <time>2016-07-14T08:36:07.000Z</time>
      </trkpt>
      <trkpt lat="44.588" lon="6.18096">
        <ele>1189.1999511719</ele>
        <time>2016-07-14T08:36:17.000Z</time>
      </trkpt>
      <trkpt lat="44.58801" lon="6.18092">
        <ele>1189</ele>
        <time>2016-07-14T08:36:23.000Z</time>
      </trkpt>
      <trkpt lat="44.58801" lon="6.18089">
        <ele>1189</ele>
        <time>2016-07-14T08:36:27.000Z</time>
      </trkpt>
      <trkpt lat="44.588" lon="6.18075">
        <ele>1187.5999755859</ele>
        <time>2016-07-14T08:36:34.000Z</time>
      </trkpt>
      <trkpt lat="44.58805" lon="6.1806">
        <ele>1187.8000488281</ele>
        <time>2016-07-14T08:36:44.000Z</time>
      </trkpt>
      <trkpt lat="44.58817" lon="6.1805">
        <ele>1190</ele>
        <time>2016-07-14T08:36:56.000Z</time>
      </trkpt>
      <trkpt lat="44.58823" lon="6.18042">
        <ele>1191.1999511719</ele>
        <time>2016-07-14T08:37:03.000Z</time>
      </trkpt>
      <trkpt lat="44.58826" lon="6.18031">
        <ele>1191.5999755859</ele>
        <time>2016-07-14T08:37:11.000Z</time>
      </trkpt>
      <trkpt lat="44.58827" lon="6.18017">
        <ele>1191.5999755859</ele>
        <time>2016-07-14T08:37:19.000Z</time>
      </trkpt>
      <trkpt lat="44.58832" lon="6.18004">
        <ele>1192.8000488281</ele>
        <time>2016-07-14T08:37:27.000Z</time>
      </trkpt>
      <trkpt lat="44.58837" lon="6.17993">
        <ele>1194.1999511719</ele>
        <time>2016-07-14T08:37:34.000Z</time>
      </trkpt>
      <trkpt lat="44.58841" lon="6.1798">
        <ele>1195</ele>
        <time>2016-07-14T08:37:42.000Z</time>
      </trkpt>
      <trkpt lat="44.58841" lon="6.1796">
        <ele>1195</ele>
        <time>2016-07-14T08:37:52.000Z</time>
      </trkpt>
      <trkpt lat="44.58845" lon="6.17945">
        <ele>1195.4000244141</ele>
        <time>2016-07-14T08:38:01.000Z</time>
      </trkpt>
      <trkpt lat="44.5885" lon="6.17932">
        <ele>1195.5999755859</ele>
        <time>2016-07-14T08:38:09.000Z</time>
      </trkpt>
      <trkpt lat="44.58855" lon="6.17916">
        <ele>1195.5999755859</ele>
        <time>2016-07-14T08:38:17.000Z</time>
      </trkpt>
      <trkpt lat="44.58857" lon="6.17908">
        <ele>1195.5999755859</ele>
        <time>2016-07-14T08:38:21.000Z</time>
      </trkpt>
      <trkpt lat="44.58858" lon="6.179">
        <ele>1195.4000244141</ele>
        <time>2016-07-14T08:38:25.000Z</time>
      </trkpt>
      <trkpt lat="44.58862" lon="6.17886">
        <ele>1195</ele>
        <time>2016-07-14T08:38:32.000Z</time>
      </trkpt>
      <trkpt lat="44.58865" lon="6.17875">
        <ele>1195.1999511719</ele>
        <time>2016-07-14T08:38:38.000Z</time>
      </trkpt>
      <trkpt lat="44.58869" lon="6.17865">
        <ele>1195.4000244141</ele>
        <time>2016-07-14T08:38:44.000Z</time>
      </trkpt>
      <trkpt lat="44.58871" lon="6.17863">
        <ele>1195.5999755859</ele>
        <time>2016-07-14T08:38:46.000Z</time>
      </trkpt>
      <trkpt lat="44.58879" lon="6.17848">
        <ele>1196</ele>
        <time>2016-07-14T08:38:55.000Z</time>
      </trkpt>
      <trkpt lat="44.58885" lon="6.17837">
        <ele>1196.4000244141</ele>
        <time>2016-07-14T08:39:02.000Z</time>
      </trkpt>
      <trkpt lat="44.58893" lon="6.17825">
        <ele>1197</ele>
        <time>2016-07-14T08:39:10.000Z</time>
      </trkpt>
      <trkpt lat="44.58893" lon="6.17823">
        <ele>1197.1999511719</ele>
        <time>2016-07-14T08:39:11.000Z</time>
      </trkpt>
      <trkpt lat="44.58903" lon="6.17806">
        <ele>1197.8000488281</ele>
        <time>2016-07-14T08:39:22.000Z</time>
      </trkpt>
      <trkpt lat="44.58913" lon="6.17793">
        <ele>1198.4000244141</ele>
        <time>2016-07-14T08:39:31.000Z</time>
      </trkpt>
      <trkpt lat="44.58921" lon="6.17783">
        <ele>1199</ele>
        <time>2016-07-14T08:39:38.000Z</time>
      </trkpt>
      <trkpt lat="44.58931" lon="6.17769">
        <ele>1199.8000488281</ele>
        <time>2016-07-14T08:39:48.000Z</time>
      </trkpt>
      <trkpt lat="44.58941" lon="6.17758">
        <ele>1200.5999755859</ele>
        <time>2016-07-14T08:39:57.000Z</time>
      </trkpt>
      <trkpt lat="44.58952" lon="6.17741">
        <ele>1201.1999511719</ele>
        <time>2016-07-14T08:40:08.000Z</time>
      </trkpt>
      <trkpt lat="44.58963" lon="6.17722">
        <ele>1201.5999755859</ele>
        <time>2016-07-14T08:40:20.000Z</time>
      </trkpt>
      <trkpt lat="44.5897" lon="6.17705">
        <ele>1202</ele>
        <time>2016-07-14T08:40:30.000Z</time>
      </trkpt>
      <trkpt lat="44.58975" lon="6.17689">
        <ele>1202</ele>
        <time>2016-07-14T08:40:39.000Z</time>
      </trkpt>
      <trkpt lat="44.58979" lon="6.17676">
        <ele>1202.1999511719</ele>
        <time>2016-07-14T08:40:47.000Z</time>
      </trkpt>
      <trkpt lat="44.5898" lon="6.17664">
        <ele>1202</ele>
        <time>2016-07-14T08:40:54.000Z</time>
      </trkpt>
      <trkpt lat="44.58981" lon="6.17648">
        <ele>1201.8000488281</ele>
        <time>2016-07-14T08:41:02.000Z</time>
      </trkpt>
      <trkpt lat="44.58981" lon="6.17628">
        <ele>1201.4000244141</ele>
        <time>2016-07-14T08:41:11.000Z</time>
      </trkpt>
      <trkpt lat="44.58983" lon="6.17612">
        <ele>1201.5999755859</ele>
        <time>2016-07-14T08:41:19.000Z</time>
      </trkpt>
      <trkpt lat="44.58987" lon="6.17593">
        <ele>1202.1999511719</ele>
        <time>2016-07-14T08:41:29.000Z</time>
      </trkpt>
      <trkpt lat="44.58992" lon="6.17569">
        <ele>1203.5999755859</ele>
        <time>2016-07-14T08:41:42.000Z</time>
      </trkpt>
      <trkpt lat="44.58996" lon="6.17548">
        <ele>1204.4000244141</ele>
        <time>2016-07-14T08:41:53.000Z</time>
      </trkpt>
      <trkpt lat="44.59001" lon="6.17527">
        <ele>1205.1999511719</ele>
        <time>2016-07-14T08:42:04.000Z</time>
      </trkpt>
      <trkpt lat="44.59007" lon="6.1751">
        <ele>1205.4000244141</ele>
        <time>2016-07-14T08:42:13.000Z</time>
      </trkpt>
      <trkpt lat="44.59014" lon="6.17494">
        <ele>1206</ele>
        <time>2016-07-14T08:42:23.000Z</time>
      </trkpt>
      <trkpt lat="44.59019" lon="6.17488">
        <ele>1206.8000488281</ele>
        <time>2016-07-14T08:42:28.000Z</time>
      </trkpt>
      <trkpt lat="44.5902" lon="6.17488">
        <ele>1206.8000488281</ele>
        <time>2016-07-14T08:42:29.000Z</time>
      </trkpt>
      <trkpt lat="44.59018" lon="6.17488">
        <ele>1206.4000244141</ele>
        <time>2016-07-14T08:42:37.000Z</time>
      </trkpt>
      <trkpt lat="44.59016" lon="6.17488">
        <ele>1206.1999511719</ele>
        <time>2016-07-14T08:42:39.000Z</time>
      </trkpt>
      <trkpt lat="44.59014" lon="6.17491">
        <ele>1205.8000488281</ele>
        <time>2016-07-14T08:42:43.000Z</time>
      </trkpt>
      <trkpt lat="44.59013" lon="6.17494">
        <ele>1205.8000488281</ele>
        <time>2016-07-14T08:42:59.000Z</time>
      </trkpt>
      <trkpt lat="44.59017" lon="6.17491">
        <ele>1206.4000244141</ele>
        <time>2016-07-14T08:43:05.000Z</time>
      </trkpt>
      <trkpt lat="44.59021" lon="6.17485">
        <ele>1207</ele>
        <time>2016-07-14T08:43:12.000Z</time>
      </trkpt>
      <trkpt lat="44.59022" lon="6.17484">
        <ele>1207</ele>
        <time>2016-07-14T08:43:21.000Z</time>
      </trkpt>
      <trkpt lat="44.59026" lon="6.17483">
        <ele>1207.8000488281</ele>
        <time>2016-07-14T08:43:26.000Z</time>
      </trkpt>
      <trkpt lat="44.59034" lon="6.1748">
        <ele>1209</ele>
        <time>2016-07-14T08:43:32.000Z</time>
      </trkpt>
      <trkpt lat="44.59053" lon="6.17473">
        <ele>1212.5999755859</ele>
        <time>2016-07-14T08:43:48.000Z</time>
      </trkpt>
      <trkpt lat="44.59064" lon="6.17468">
        <ele>1214.8000488281</ele>
        <time>2016-07-14T08:43:57.000Z</time>
      </trkpt>
      <trkpt lat="44.59073" lon="6.17462">
        <ele>1216.5999755859</ele>
        <time>2016-07-14T08:44:06.000Z</time>
      </trkpt>
      <trkpt lat="44.59081" lon="6.17459">
        <ele>1218</ele>
        <time>2016-07-14T08:44:12.000Z</time>
      </trkpt>
      <trkpt lat="44.5909" lon="6.17458">
        <ele>1219.8000488281</ele>
        <time>2016-07-14T08:44:20.000Z</time>
      </trkpt>
      <trkpt lat="44.59099" lon="6.17456">
        <ele>1221.4000244141</ele>
        <time>2016-07-14T08:44:27.000Z</time>
      </trkpt>
      <trkpt lat="44.59107" lon="6.17454">
        <ele>1222.5999755859</ele>
        <time>2016-07-14T08:44:34.000Z</time>
      </trkpt>
      <trkpt lat="44.59114" lon="6.17451">
        <ele>1223.8000488281</ele>
        <time>2016-07-14T08:44:41.000Z</time>
      </trkpt>
      <trkpt lat="44.59123" lon="6.17452">
        <ele>1225.1999511719</ele>
        <time>2016-07-14T08:44:48.000Z</time>
      </trkpt>
      <trkpt lat="44.5913" lon="6.17459">
        <ele>1226.5999755859</ele>
        <time>2016-07-14T08:44:55.000Z</time>
      </trkpt>
      <trkpt lat="44.59132" lon="6.1747">
        <ele>1227.1999511719</ele>
        <time>2016-07-14T08:45:02.000Z</time>
      </trkpt>
      <trkpt lat="44.59133" lon="6.17472">
        <ele>1227.4000244141</ele>
        <time>2016-07-14T08:45:03.000Z</time>
      </trkpt>
      <trkpt lat="44.5914" lon="6.17474">
        <ele>1228.5999755859</ele>
        <time>2016-07-14T08:45:10.000Z</time>
      </trkpt>
      <trkpt lat="44.59142" lon="6.17471">
        <ele>1228.8000488281</ele>
        <time>2016-07-14T08:45:12.000Z</time>
      </trkpt>
      <trkpt lat="44.59147" lon="6.17457">
        <ele>1229.4000244141</ele>
        <time>2016-07-14T08:45:20.000Z</time>
      </trkpt>
      <trkpt lat="44.59156" lon="6.17446">
        <ele>1230.5999755859</ele>
        <time>2016-07-14T08:45:29.000Z</time>
      </trkpt>
      <trkpt lat="44.59163" lon="6.17438">
        <ele>1231.5999755859</ele>
        <time>2016-07-14T08:45:37.000Z</time>
      </trkpt>
      <trkpt lat="44.5917" lon="6.17426">
        <ele>1232.5999755859</ele>
        <time>2016-07-14T08:45:45.000Z</time>
      </trkpt>
      <trkpt lat="44.59172" lon="6.17407">
        <ele>1232.8000488281</ele>
        <time>2016-07-14T08:45:55.000Z</time>
      </trkpt>
      <trkpt lat="44.59172" lon="6.17394">
        <ele>1232.8000488281</ele>
        <time>2016-07-14T08:46:03.000Z</time>
      </trkpt>
      <trkpt lat="44.59174" lon="6.17391">
        <ele>1233</ele>
        <time>2016-07-14T08:46:08.000Z</time>
      </trkpt>
      <trkpt lat="44.59182" lon="6.17395">
        <ele>1234.4000244141</ele>
        <time>2016-07-14T08:46:15.000Z</time>
      </trkpt>
      <trkpt lat="44.59192" lon="6.174">
        <ele>1236.4000244141</ele>
        <time>2016-07-14T08:46:23.000Z</time>
      </trkpt>
      <trkpt lat="44.59208" lon="6.17403">
        <ele>1239.1999511719</ele>
        <time>2016-07-14T08:46:35.000Z</time>
      </trkpt>
      <trkpt lat="44.59218" lon="6.17407">
        <ele>1240.8000488281</ele>
        <time>2016-07-14T08:46:43.000Z</time>
      </trkpt>
      <trkpt lat="44.59229" lon="6.1741">
        <ele>1242.8000488281</ele>
        <time>2016-07-14T08:46:52.000Z</time>
      </trkpt>
      <trkpt lat="44.59237" lon="6.17413">
        <ele>1244.1999511719</ele>
        <time>2016-07-14T08:47:00.000Z</time>
      </trkpt>
      <trkpt lat="44.59244" lon="6.17416">
        <ele>1245.4000244141</ele>
        <time>2016-07-14T08:47:06.000Z</time>
      </trkpt>
      <trkpt lat="44.59254" lon="6.17416">
        <ele>1247.1999511719</ele>
        <time>2016-07-14T08:47:13.000Z</time>
      </trkpt>
      <trkpt lat="44.59266" lon="6.17419">
        <ele>1249.1999511719</ele>
        <time>2016-07-14T08:47:22.000Z</time>
      </trkpt>
      <trkpt lat="44.59275" lon="6.17421">
        <ele>1250.8000488281</ele>
        <time>2016-07-14T08:47:30.000Z</time>
      </trkpt>
      <trkpt lat="44.59284" lon="6.17431">
        <ele>1252.4000244141</ele>
        <time>2016-07-14T08:47:40.000Z</time>
      </trkpt>
      <trkpt lat="44.59289" lon="6.17436">
        <ele>1253.1999511719</ele>
        <time>2016-07-14T08:47:44.000Z</time>
      </trkpt>
      <trkpt lat="44.59297" lon="6.17443">
        <ele>1254.1999511719</ele>
        <time>2016-07-14T08:47:52.000Z</time>
      </trkpt>
      <trkpt lat="44.59302" lon="6.17447">
        <ele>1255</ele>
        <time>2016-07-14T08:47:59.000Z</time>
      </trkpt>
      <trkpt lat="44.59309" lon="6.17452">
        <ele>1256</ele>
        <time>2016-07-14T08:48:25.000Z</time>
      </trkpt>
      <trkpt lat="44.59317" lon="6.1746">
        <ele>1257.1999511719</ele>
        <time>2016-07-14T08:48:34.000Z</time>
      </trkpt>
      <trkpt lat="44.59324" lon="6.17467">
        <ele>1258.1999511719</ele>
        <time>2016-07-14T08:48:40.000Z</time>
      </trkpt>
      <trkpt lat="44.5933" lon="6.1747">
        <ele>1259.1999511719</ele>
        <time>2016-07-14T08:48:46.000Z</time>
      </trkpt>
      <trkpt lat="44.59334" lon="6.1746">
        <ele>1259.8000488281</ele>
        <time>2016-07-14T08:48:53.000Z</time>
      </trkpt>
      <trkpt lat="44.59334" lon="6.17446">
        <ele>1260</ele>
        <time>2016-07-14T08:49:01.000Z</time>
      </trkpt>
      <trkpt lat="44.59333" lon="6.1743">
        <ele>1260</ele>
        <time>2016-07-14T08:49:11.000Z</time>
      </trkpt>
      <trkpt lat="44.59332" lon="6.17415">
        <ele>1260</ele>
        <time>2016-07-14T08:49:20.000Z</time>
      </trkpt>
      <trkpt lat="44.59332" lon="6.17401">
        <ele>1260.4000244141</ele>
        <time>2016-07-14T08:49:28.000Z</time>
      </trkpt>
      <trkpt lat="44.59335" lon="6.17384">
        <ele>1260.8000488281</ele>
        <time>2016-07-14T08:49:37.000Z</time>
      </trkpt>
      <trkpt lat="44.59337" lon="6.17373">
        <ele>1261.4000244141</ele>
        <time>2016-07-14T08:49:45.000Z</time>
      </trkpt>
      <trkpt lat="44.59338" lon="6.17372">
        <ele>1261.5999755859</ele>
        <time>2016-07-14T08:49:46.000Z</time>
      </trkpt>
      <trkpt lat="44.59342" lon="6.1738">
        <ele>1262.1999511719</ele>
        <time>2016-07-14T08:49:53.000Z</time>
      </trkpt>
      <trkpt lat="44.59346" lon="6.17397">
        <ele>1262.4000244141</ele>
        <time>2016-07-14T08:50:03.000Z</time>
      </trkpt>
      <trkpt lat="44.59353" lon="6.17407">
        <ele>1263.4000244141</ele>
        <time>2016-07-14T08:50:11.000Z</time>
      </trkpt>
      <trkpt lat="44.5936" lon="6.17415">
        <ele>1264.4000244141</ele>
        <time>2016-07-14T08:50:19.000Z</time>
      </trkpt>
      <trkpt lat="44.59368" lon="6.17422">
        <ele>1265.5999755859</ele>
        <time>2016-07-14T08:50:26.000Z</time>
      </trkpt>
      <trkpt lat="44.59377" lon="6.17438">
        <ele>1267.8000488281</ele>
        <time>2016-07-14T08:50:37.000Z</time>
      </trkpt>
      <trkpt lat="44.59387" lon="6.17454">
        <ele>1270</ele>
        <time>2016-07-14T08:50:48.000Z</time>
      </trkpt>
      <trkpt lat="44.59396" lon="6.1747">
        <ele>1272.1999511719</ele>
        <time>2016-07-14T08:50:59.000Z</time>
      </trkpt>
      <trkpt lat="44.59403" lon="6.17481">
        <ele>1274</ele>
        <time>2016-07-14T08:51:07.000Z</time>
      </trkpt>
      <trkpt lat="44.59411" lon="6.17491">
        <ele>1276.4000244141</ele>
        <time>2016-07-14T08:51:16.000Z</time>
      </trkpt>
      <trkpt lat="44.59417" lon="6.17502">
        <ele>1278.8000488281</ele>
        <time>2016-07-14T08:51:24.000Z</time>
      </trkpt>
      <trkpt lat="44.5942" lon="6.17516">
        <ele>1280.4000244141</ele>
        <time>2016-07-14T08:51:32.000Z</time>
      </trkpt>
      <trkpt lat="44.59423" lon="6.17534">
        <ele>1282</ele>
        <time>2016-07-14T08:51:42.000Z</time>
      </trkpt>
      <trkpt lat="44.59423" lon="6.17536">
        <ele>1282.1999511719</ele>
        <time>2016-07-14T08:51:43.000Z</time>
      </trkpt>
      <trkpt lat="44.59421" lon="6.17548">
        <ele>1282</ele>
        <time>2016-07-14T08:51:50.000Z</time>
      </trkpt>
      <trkpt lat="44.59413" lon="6.17551">
        <ele>1280</ele>
        <time>2016-07-14T08:51:57.000Z</time>
      </trkpt>
      <trkpt lat="44.594" lon="6.17551">
        <ele>1276.4000244141</ele>
        <time>2016-07-14T08:52:07.000Z</time>
      </trkpt>
      <trkpt lat="44.59393" lon="6.1756">
        <ele>1274.8000488281</ele>
        <time>2016-07-14T08:52:14.000Z</time>
      </trkpt>
      <trkpt lat="44.59391" lon="6.17576">
        <ele>1275.1999511719</ele>
        <time>2016-07-14T08:52:23.000Z</time>
      </trkpt>
      <trkpt lat="44.59392" lon="6.17592">
        <ele>1275.8000488281</ele>
        <time>2016-07-14T08:52:31.000Z</time>
      </trkpt>
      <trkpt lat="44.59397" lon="6.17604">
        <ele>1277.4000244141</ele>
        <time>2016-07-14T08:52:39.000Z</time>
      </trkpt>
      <trkpt lat="44.59403" lon="6.17617">
        <ele>1279.4000244141</ele>
        <time>2016-07-14T08:52:48.000Z</time>
      </trkpt>
      <trkpt lat="44.59406" lon="6.17627">
        <ele>1280.5999755859</ele>
        <time>2016-07-14T08:52:55.000Z</time>
      </trkpt>
      <trkpt lat="44.59411" lon="6.17646">
        <ele>1282.4000244141</ele>
        <time>2016-07-14T08:53:06.000Z</time>
      </trkpt>
      <trkpt lat="44.59414" lon="6.17661">
        <ele>1284.1999511719</ele>
        <time>2016-07-14T08:53:15.000Z</time>
      </trkpt>
      <trkpt lat="44.59415" lon="6.17663">
        <ele>1284.4000244141</ele>
        <time>2016-07-14T08:53:16.000Z</time>
      </trkpt>
      <trkpt lat="44.59422" lon="6.17671">
        <ele>1287.1999511719</ele>
        <time>2016-07-14T08:53:24.000Z</time>
      </trkpt>
      <trkpt lat="44.59423" lon="6.17673">
        <ele>1287.5999755859</ele>
        <time>2016-07-14T08:53:25.000Z</time>
      </trkpt>
      <trkpt lat="44.59429" lon="6.17681">
        <ele>1289.5999755859</ele>
        <time>2016-07-14T08:53:32.000Z</time>
      </trkpt>
      <trkpt lat="44.59436" lon="6.17687">
        <ele>1292.1999511719</ele>
        <time>2016-07-14T08:53:39.000Z</time>
      </trkpt>
      <trkpt lat="44.59445" lon="6.17693">
        <ele>1295.1999511719</ele>
        <time>2016-07-14T08:53:47.000Z</time>
      </trkpt>
      <trkpt lat="44.59455" lon="6.17699">
        <ele>1298.4000244141</ele>
        <time>2016-07-14T08:53:56.000Z</time>
      </trkpt>
      <trkpt lat="44.59466" lon="6.17705">
        <ele>1302</ele>
        <time>2016-07-14T08:54:06.000Z</time>
      </trkpt>
      <trkpt lat="44.59476" lon="6.1771">
        <ele>1304.8000488281</ele>
        <time>2016-07-14T08:54:14.000Z</time>
      </trkpt>
      <trkpt lat="44.59482" lon="6.17706">
        <ele>1306.4000244141</ele>
        <time>2016-07-14T08:54:20.000Z</time>
      </trkpt>
      <trkpt lat="44.59486" lon="6.1769">
        <ele>1306.5999755859</ele>
        <time>2016-07-14T08:54:29.000Z</time>
      </trkpt>
      <trkpt lat="44.5949" lon="6.17672">
        <ele>1306.1999511719</ele>
        <time>2016-07-14T08:54:39.000Z</time>
      </trkpt>
      <trkpt lat="44.595" lon="6.1767">
        <ele>1308.1999511719</ele>
        <time>2016-07-14T08:54:51.000Z</time>
      </trkpt>
      <trkpt lat="44.59499" lon="6.17677">
        <ele>1308.8000488281</ele>
        <time>2016-07-14T08:54:55.000Z</time>
      </trkpt>
      <trkpt lat="44.59499" lon="6.177">
        <ele>1310.5999755859</ele>
        <time>2016-07-14T08:55:07.000Z</time>
      </trkpt>
      <trkpt lat="44.59499" lon="6.17719">
        <ele>1311.8000488281</ele>
        <time>2016-07-14T08:55:17.000Z</time>
      </trkpt>
      <trkpt lat="44.595" lon="6.17737">
        <ele>1313.1999511719</ele>
        <time>2016-07-14T08:55:27.000Z</time>
      </trkpt>
      <trkpt lat="44.59501" lon="6.17756">
        <ele>1314.8000488281</ele>
        <time>2016-07-14T08:55:37.000Z</time>
      </trkpt>
      <trkpt lat="44.59504" lon="6.1777">
        <ele>1316.4000244141</ele>
        <time>2016-07-14T08:55:45.000Z</time>
      </trkpt>
      <trkpt lat="44.59505" lon="6.17773">
        <ele>1316.8000488281</ele>
        <time>2016-07-14T08:55:51.000Z</time>
      </trkpt>
      <trkpt lat="44.59503" lon="6.17771">
        <ele>1316.4000244141</ele>
        <time>2016-07-14T08:56:11.000Z</time>
      </trkpt>
      <trkpt lat="44.59504" lon="6.17775">
        <ele>1317</ele>
        <time>2016-07-14T08:56:18.000Z</time>
      </trkpt>
      <trkpt lat="44.59504" lon="6.17776">
        <ele>1316.8000488281</ele>
        <time>2016-07-14T08:57:37.000Z</time>
      </trkpt>
      <trkpt lat="44.59506" lon="6.17775">
        <ele>1317.4000244141</ele>
        <time>2016-07-14T09:00:29.000Z</time>
      </trkpt>
      <trkpt lat="44.59504" lon="6.17774">
        <ele>1316.5999755859</ele>
        <time>2016-07-14T09:02:07.000Z</time>
      </trkpt>
      <trkpt lat="44.59503" lon="6.17773">
        <ele>1316.4000244141</ele>
        <time>2016-07-14T09:02:17.000Z</time>
      </trkpt>
      <trkpt lat="44.59505" lon="6.17772">
        <ele>1317</ele>
        <time>2016-07-14T09:02:58.000Z</time>
      </trkpt>
      <trkpt lat="44.59504" lon="6.17774">
        <ele>1316.8000488281</ele>
        <time>2016-07-14T09:03:22.000Z</time>
      </trkpt>
      <trkpt lat="44.59503" lon="6.17773">
        <ele>1316.4000244141</ele>
        <time>2016-07-14T09:03:26.000Z</time>
      </trkpt>
      <trkpt lat="44.59502" lon="6.17781">
        <ele>1316.8000488281</ele>
        <time>2016-07-14T09:04:03.000Z</time>
      </trkpt>
      <trkpt lat="44.59501" lon="6.17795">
        <ele>1317.4000244141</ele>
        <time>2016-07-14T09:04:11.000Z</time>
      </trkpt>
      <trkpt lat="44.595" lon="6.17811">
        <ele>1318.4000244141</ele>
        <time>2016-07-14T09:04:20.000Z</time>
      </trkpt>
      <trkpt lat="44.59499" lon="6.17823">
        <ele>1318.8000488281</ele>
        <time>2016-07-14T09:04:27.000Z</time>
      </trkpt>
      <trkpt lat="44.59498" lon="6.17832">
        <ele>1319.1999511719</ele>
        <time>2016-07-14T09:04:32.000Z</time>
      </trkpt>
      <trkpt lat="44.59492" lon="6.17848">
        <ele>1318.8000488281</ele>
        <time>2016-07-14T09:04:42.000Z</time>
      </trkpt>
      <trkpt lat="44.59489" lon="6.1786">
        <ele>1319.1999511719</ele>
        <time>2016-07-14T09:04:49.000Z</time>
      </trkpt>
      <trkpt lat="44.59484" lon="6.17874">
        <ele>1319.5999755859</ele>
        <time>2016-07-14T09:04:58.000Z</time>
      </trkpt>
      <trkpt lat="44.59478" lon="6.17894">
        <ele>1320.4000244141</ele>
        <time>2016-07-14T09:05:10.000Z</time>
      </trkpt>
      <trkpt lat="44.59473" lon="6.17912">
        <ele>1320.4000244141</ele>
        <time>2016-07-14T09:05:21.000Z</time>
      </trkpt>
      <trkpt lat="44.59467" lon="6.17929">
        <ele>1321.1999511719</ele>
        <time>2016-07-14T09:05:32.000Z</time>
      </trkpt>
      <trkpt lat="44.59463" lon="6.17945">
        <ele>1322.1999511719</ele>
        <time>2016-07-14T09:05:41.000Z</time>
      </trkpt>
      <trkpt lat="44.59461" lon="6.17974">
        <ele>1325.1999511719</ele>
        <time>2016-07-14T09:05:58.000Z</time>
      </trkpt>
      <trkpt lat="44.59467" lon="6.1799">
        <ele>1327.5999755859</ele>
        <time>2016-07-14T09:06:08.000Z</time>
      </trkpt>
      <trkpt lat="44.59473" lon="6.18008">
        <ele>1330</ele>
        <time>2016-07-14T09:06:19.000Z</time>
      </trkpt>
      <trkpt lat="44.59475" lon="6.18027">
        <ele>1331.4000244141</ele>
        <time>2016-07-14T09:06:29.000Z</time>
      </trkpt>
      <trkpt lat="44.59475" lon="6.18051">
        <ele>1332.8000488281</ele>
        <time>2016-07-14T09:06:42.000Z</time>
      </trkpt>
      <trkpt lat="44.59474" lon="6.18072">
        <ele>1333.8000488281</ele>
        <time>2016-07-14T09:06:54.000Z</time>
      </trkpt>
      <trkpt lat="44.5947" lon="6.18095">
        <ele>1334.5999755859</ele>
        <time>2016-07-14T09:07:07.000Z</time>
      </trkpt>
      <trkpt lat="44.59467" lon="6.18114">
        <ele>1335</ele>
        <time>2016-07-14T09:07:18.000Z</time>
      </trkpt>
      <trkpt lat="44.59465" lon="6.18125">
        <ele>1335.4000244141</ele>
        <time>2016-07-14T09:07:25.000Z</time>
      </trkpt>
      <trkpt lat="44.59465" lon="6.18127">
        <ele>1335.4000244141</ele>
        <time>2016-07-14T09:07:27.000Z</time>
      </trkpt>
      <trkpt lat="44.59463" lon="6.18133">
        <ele>1335.5999755859</ele>
        <time>2016-07-14T09:07:32.000Z</time>
      </trkpt>
      <trkpt lat="44.59458" lon="6.18154">
        <ele>1335.8000488281</ele>
        <time>2016-07-14T09:07:44.000Z</time>
      </trkpt>
      <trkpt lat="44.59455" lon="6.18171">
        <ele>1336.1999511719</ele>
        <time>2016-07-14T09:07:54.000Z</time>
      </trkpt>
      <trkpt lat="44.59453" lon="6.18187">
        <ele>1336.8000488281</ele>
        <time>2016-07-14T09:08:03.000Z</time>
      </trkpt>
      <trkpt lat="44.59452" lon="6.18207">
        <ele>1337.8000488281</ele>
        <time>2016-07-14T09:08:14.000Z</time>
      </trkpt>
      <trkpt lat="44.59455" lon="6.18221">
        <ele>1339.1999511719</ele>
        <time>2016-07-14T09:08:22.000Z</time>
      </trkpt>
      <trkpt lat="44.59461" lon="6.18238">
        <ele>1340.8000488281</ele>
        <time>2016-07-14T09:08:32.000Z</time>
      </trkpt>
      <trkpt lat="44.59471" lon="6.18252">
        <ele>1342.5999755859</ele>
        <time>2016-07-14T09:08:43.000Z</time>
      </trkpt>
      <trkpt lat="44.59482" lon="6.18264">
        <ele>1345</ele>
        <time>2016-07-14T09:08:54.000Z</time>
      </trkpt>
      <trkpt lat="44.5949" lon="6.18271">
        <ele>1346.4000244141</ele>
        <time>2016-07-14T09:09:02.000Z</time>
      </trkpt>
      <trkpt lat="44.59495" lon="6.18282">
        <ele>1347.4000244141</ele>
        <time>2016-07-14T09:09:08.000Z</time>
      </trkpt>
      <trkpt lat="44.59499" lon="6.18301">
        <ele>1348.1999511719</ele>
        <time>2016-07-14T09:09:18.000Z</time>
      </trkpt>
      <trkpt lat="44.59501" lon="6.18318">
        <ele>1349</ele>
        <time>2016-07-14T09:09:27.000Z</time>
      </trkpt>
      <trkpt lat="44.59504" lon="6.18332">
        <ele>1350.5999755859</ele>
        <time>2016-07-14T09:09:35.000Z</time>
      </trkpt>
      <trkpt lat="44.59508" lon="6.18337">
        <ele>1351.8000488281</ele>
        <time>2016-07-14T09:09:39.000Z</time>
      </trkpt>
      <trkpt lat="44.5952" lon="6.18336">
        <ele>1353.8000488281</ele>
        <time>2016-07-14T09:09:48.000Z</time>
      </trkpt>
      <trkpt lat="44.59526" lon="6.18331">
        <ele>1354.5999755859</ele>
        <time>2016-07-14T09:09:53.000Z</time>
      </trkpt>
      <trkpt lat="44.59526" lon="6.18335">
        <ele>1355</ele>
        <time>2016-07-14T09:09:59.000Z</time>
      </trkpt>
      <trkpt lat="44.59524" lon="6.18336">
        <ele>1354.8000488281</ele>
        <time>2016-07-14T09:10:01.000Z</time>
      </trkpt>
      <trkpt lat="44.59515" lon="6.18341">
        <ele>1353.1999511719</ele>
        <time>2016-07-14T09:10:08.000Z</time>
      </trkpt>
      <trkpt lat="44.59514" lon="6.18342">
        <ele>1353.1999511719</ele>
        <time>2016-07-14T09:10:09.000Z</time>
      </trkpt>
      <trkpt lat="44.59518" lon="6.18347">
        <ele>1354.4000244141</ele>
        <time>2016-07-14T09:10:15.000Z</time>
      </trkpt>
      <trkpt lat="44.59519" lon="6.18347">
        <ele>1354.5999755859</ele>
        <time>2016-07-14T09:10:16.000Z</time>
      </trkpt>
      <trkpt lat="44.59529" lon="6.18342">
        <ele>1356</ele>
        <time>2016-07-14T09:10:24.000Z</time>
      </trkpt>
      <trkpt lat="44.59535" lon="6.18331">
        <ele>1356.5999755859</ele>
        <time>2016-07-14T09:10:32.000Z</time>
      </trkpt>
      <trkpt lat="44.5954" lon="6.18318">
        <ele>1356.8000488281</ele>
        <time>2016-07-14T09:10:40.000Z</time>
      </trkpt>
      <trkpt lat="44.59543" lon="6.18304">
        <ele>1357.1999511719</ele>
        <time>2016-07-14T09:10:48.000Z</time>
      </trkpt>
      <trkpt lat="44.59545" lon="6.18289">
        <ele>1357.8000488281</ele>
        <time>2016-07-14T09:10:56.000Z</time>
      </trkpt>
      <trkpt lat="44.59548" lon="6.18276">
        <ele>1358.8000488281</ele>
        <time>2016-07-14T09:11:04.000Z</time>
      </trkpt>
      <trkpt lat="44.59551" lon="6.18262">
        <ele>1359.5999755859</ele>
        <time>2016-07-14T09:11:12.000Z</time>
      </trkpt>
      <trkpt lat="44.59552" lon="6.18258">
        <ele>1359.8000488281</ele>
        <time>2016-07-14T09:11:14.000Z</time>
      </trkpt>
      <trkpt lat="44.59555" lon="6.18243">
        <ele>1360.5999755859</ele>
        <time>2016-07-14T09:11:23.000Z</time>
      </trkpt>
      <trkpt lat="44.59561" lon="6.18222">
        <ele>1361.8000488281</ele>
        <time>2016-07-14T09:11:35.000Z</time>
      </trkpt>
      <trkpt lat="44.59563" lon="6.18214">
        <ele>1362</ele>
        <time>2016-07-14T09:11:39.000Z</time>
      </trkpt>
      <trkpt lat="44.59568" lon="6.18199">
        <ele>1362.4000244141</ele>
        <time>2016-07-14T09:11:48.000Z</time>
      </trkpt>
      <trkpt lat="44.59573" lon="6.18187">
        <ele>1363.1999511719</ele>
        <time>2016-07-14T09:11:56.000Z</time>
      </trkpt>
      <trkpt lat="44.59578" lon="6.18177">
        <ele>1363.8000488281</ele>
        <time>2016-07-14T09:12:03.000Z</time>
      </trkpt>
      <trkpt lat="44.59583" lon="6.18165">
        <ele>1364.4000244141</ele>
        <time>2016-07-14T09:12:10.000Z</time>
      </trkpt>
      <trkpt lat="44.59589" lon="6.18153">
        <ele>1365.5999755859</ele>
        <time>2016-07-14T09:12:18.000Z</time>
      </trkpt>
      <trkpt lat="44.59599" lon="6.18137">
        <ele>1367.1999511719</ele>
        <time>2016-07-14T09:12:29.000Z</time>
      </trkpt>
      <trkpt lat="44.5961" lon="6.1812">
        <ele>1368.5999755859</ele>
        <time>2016-07-14T09:12:41.000Z</time>
      </trkpt>
      <trkpt lat="44.59622" lon="6.18105">
        <ele>1370</ele>
        <time>2016-07-14T09:12:53.000Z</time>
      </trkpt>
      <trkpt lat="44.59636" lon="6.18094">
        <ele>1373</ele>
        <time>2016-07-14T09:13:05.000Z</time>
      </trkpt>
      <trkpt lat="44.59649" lon="6.18089">
        <ele>1375.4000244141</ele>
        <time>2016-07-14T09:13:15.000Z</time>
      </trkpt>
      <trkpt lat="44.59662" lon="6.1808">
        <ele>1376.5999755859</ele>
        <time>2016-07-14T09:13:26.000Z</time>
      </trkpt>
      <trkpt lat="44.59674" lon="6.1807">
        <ele>1377</ele>
        <time>2016-07-14T09:13:36.000Z</time>
      </trkpt>
      <trkpt lat="44.59679" lon="6.18061">
        <ele>1376.5999755859</ele>
        <time>2016-07-14T09:13:43.000Z</time>
      </trkpt>
      <trkpt lat="44.59688" lon="6.18051">
        <ele>1377.1999511719</ele>
        <time>2016-07-14T09:13:51.000Z</time>
      </trkpt>
      <trkpt lat="44.597" lon="6.18039">
        <ele>1377.5999755859</ele>
        <time>2016-07-14T09:14:02.000Z</time>
      </trkpt>
      <trkpt lat="44.59709" lon="6.18029">
        <ele>1378.1999511719</ele>
        <time>2016-07-14T09:14:10.000Z</time>
      </trkpt>
      <trkpt lat="44.5972" lon="6.18018">
        <ele>1378.8000488281</ele>
        <time>2016-07-14T09:14:20.000Z</time>
      </trkpt>
      <trkpt lat="44.59732" lon="6.18004">
        <ele>1379.8000488281</ele>
        <time>2016-07-14T09:14:32.000Z</time>
      </trkpt>
      <trkpt lat="44.59732" lon="6.18003">
        <ele>1379.5999755859</ele>
        <time>2016-07-14T09:14:41.000Z</time>
      </trkpt>
      <trkpt lat="44.59735" lon="6.18001">
        <ele>1380.4000244141</ele>
        <time>2016-07-14T09:14:46.000Z</time>
      </trkpt>
      <trkpt lat="44.59741" lon="6.17994">
        <ele>1381</ele>
        <time>2016-07-14T09:14:52.000Z</time>
      </trkpt>
      <trkpt lat="44.59749" lon="6.17984">
        <ele>1382</ele>
        <time>2016-07-14T09:15:01.000Z</time>
      </trkpt>
      <trkpt lat="44.59754" lon="6.17977">
        <ele>1382.5999755859</ele>
        <time>2016-07-14T09:15:08.000Z</time>
      </trkpt>
      <trkpt lat="44.59755" lon="6.17975">
        <ele>1382.5999755859</ele>
        <time>2016-07-14T09:15:15.000Z</time>
      </trkpt>
      <trkpt lat="44.59756" lon="6.17977">
        <ele>1383</ele>
        <time>2016-07-14T09:16:24.000Z</time>
      </trkpt>
      <trkpt lat="44.59757" lon="6.17976">
        <ele>1383.1999511719</ele>
        <time>2016-07-14T09:19:03.000Z</time>
      </trkpt>
      <trkpt lat="44.59754" lon="6.17979">
        <ele>1382.8000488281</ele>
        <time>2016-07-14T09:19:09.000Z</time>
      </trkpt>
      <trkpt lat="44.59754" lon="6.17981">
        <ele>1382.8000488281</ele>
        <time>2016-07-14T09:19:17.000Z</time>
      </trkpt>
      <trkpt lat="44.59755" lon="6.17982">
        <ele>1383</ele>
        <time>2016-07-14T09:20:06.000Z</time>
      </trkpt>
      <trkpt lat="44.59757" lon="6.17977">
        <ele>1383.4000244141</ele>
        <time>2016-07-14T09:20:19.000Z</time>
      </trkpt>
      <trkpt lat="44.59757" lon="6.17976">
        <ele>1383.4000244141</ele>
        <time>2016-07-14T09:22:11.000Z</time>
      </trkpt>
      <trkpt lat="44.59755" lon="6.17982">
        <ele>1383</ele>
        <time>2016-07-14T09:23:11.000Z</time>
      </trkpt>
      <trkpt lat="44.59757" lon="6.1798">
        <ele>1383.4000244141</ele>
        <time>2016-07-14T09:23:16.000Z</time>
      </trkpt>
      <trkpt lat="44.59757" lon="6.17979">
        <ele>1383.4000244141</ele>
        <time>2016-07-14T09:23:17.000Z</time>
      </trkpt>
      <trkpt lat="44.59758" lon="6.17979">
        <ele>1383.5999755859</ele>
        <time>2016-07-14T09:23:28.000Z</time>
      </trkpt>
      <trkpt lat="44.59758" lon="6.17978">
        <ele>1383.4000244141</ele>
        <time>2016-07-14T09:24:24.000Z</time>
      </trkpt>
      <trkpt lat="44.59761" lon="6.17975">
        <ele>1384.1999511719</ele>
        <time>2016-07-14T09:25:43.000Z</time>
      </trkpt>
      <trkpt lat="44.59762" lon="6.17974">
        <ele>1384.1999511719</ele>
        <time>2016-07-14T09:25:44.000Z</time>
      </trkpt>
      <trkpt lat="44.59765" lon="6.17967">
        <ele>1384.5999755859</ele>
        <time>2016-07-14T09:25:51.000Z</time>
      </trkpt>
      <trkpt lat="44.59765" lon="6.17966">
        <ele>1384.5999755859</ele>
        <time>2016-07-14T09:25:52.000Z</time>
      </trkpt>
      <trkpt lat="44.59769" lon="6.17958">
        <ele>1385</ele>
        <time>2016-07-14T09:25:59.000Z</time>
      </trkpt>
      <trkpt lat="44.59774" lon="6.17947">
        <ele>1385.1999511719</ele>
        <time>2016-07-14T09:26:08.000Z</time>
      </trkpt>
      <trkpt lat="44.59779" lon="6.17938">
        <ele>1385.4000244141</ele>
        <time>2016-07-14T09:26:16.000Z</time>
      </trkpt>
      <trkpt lat="44.59782" lon="6.17931">
        <ele>1385.4000244141</ele>
        <time>2016-07-14T09:26:22.000Z</time>
      </trkpt>
      <trkpt lat="44.59786" lon="6.17924">
        <ele>1385.8000488281</ele>
        <time>2016-07-14T09:26:28.000Z</time>
      </trkpt>
      <trkpt lat="44.59795" lon="6.17917">
        <ele>1387</ele>
        <time>2016-07-14T09:26:37.000Z</time>
      </trkpt>
      <trkpt lat="44.59797" lon="6.17917">
        <ele>1387.4000244141</ele>
        <time>2016-07-14T09:26:39.000Z</time>
      </trkpt>
      <trkpt lat="44.59796" lon="6.17923">
        <ele>1387.8000488281</ele>
        <time>2016-07-14T09:26:43.000Z</time>
      </trkpt>
      <trkpt lat="44.59795" lon="6.17929">
        <ele>1388</ele>
        <time>2016-07-14T09:26:47.000Z</time>
      </trkpt>
      <trkpt lat="44.59795" lon="6.1793">
        <ele>1388.1999511719</ele>
        <time>2016-07-14T09:26:55.000Z</time>
      </trkpt>
      <trkpt lat="44.59796" lon="6.17932">
        <ele>1388.5999755859</ele>
        <time>2016-07-14T09:27:03.000Z</time>
      </trkpt>
      <trkpt lat="44.59795" lon="6.1793">
        <ele>1388.1999511719</ele>
        <time>2016-07-14T09:27:11.000Z</time>
      </trkpt>
      <trkpt lat="44.59793" lon="6.17935">
        <ele>1388.1999511719</ele>
        <time>2016-07-14T09:27:16.000Z</time>
      </trkpt>
      <trkpt lat="44.59793" lon="6.17941">
        <ele>1388.5999755859</ele>
        <time>2016-07-14T09:27:21.000Z</time>
      </trkpt>
      <trkpt lat="44.59793" lon="6.17949">
        <ele>1389.4000244141</ele>
        <time>2016-07-14T09:27:27.000Z</time>
      </trkpt>
      <trkpt lat="44.59798" lon="6.17955">
        <ele>1390.8000488281</ele>
        <time>2016-07-14T09:27:33.000Z</time>
      </trkpt>
      <trkpt lat="44.598" lon="6.17966">
        <ele>1392.1999511719</ele>
        <time>2016-07-14T09:27:43.000Z</time>
      </trkpt>
      <trkpt lat="44.59799" lon="6.17967">
        <ele>1392.1999511719</ele>
        <time>2016-07-14T09:27:44.000Z</time>
      </trkpt>
      <trkpt lat="44.59801" lon="6.17969">
        <ele>1392.5999755859</ele>
        <time>2016-07-14T09:27:49.000Z</time>
      </trkpt>
      <trkpt lat="44.59799" lon="6.17974">
        <ele>1392.8000488281</ele>
        <time>2016-07-14T09:27:54.000Z</time>
      </trkpt>
      <trkpt lat="44.59798" lon="6.17979">
        <ele>1392.8000488281</ele>
        <time>2016-07-14T09:28:00.000Z</time>
      </trkpt>
      <trkpt lat="44.59797" lon="6.17988">
        <ele>1393.1999511719</ele>
        <time>2016-07-14T09:28:08.000Z</time>
      </trkpt>
      <trkpt lat="44.59795" lon="6.17999">
        <ele>1393.5999755859</ele>
        <time>2016-07-14T09:28:15.000Z</time>
      </trkpt>
      <trkpt lat="44.5979" lon="6.18008">
        <ele>1393.8000488281</ele>
        <time>2016-07-14T09:28:21.000Z</time>
      </trkpt>
      <trkpt lat="44.59785" lon="6.18018">
        <ele>1393.8000488281</ele>
        <time>2016-07-14T09:28:28.000Z</time>
      </trkpt>
      <trkpt lat="44.59779" lon="6.18026">
        <ele>1393.1999511719</ele>
        <time>2016-07-14T09:28:35.000Z</time>
      </trkpt>
      <trkpt lat="44.59779" lon="6.18028">
        <ele>1393.4000244141</ele>
        <time>2016-07-14T09:28:37.000Z</time>
      </trkpt>
      <trkpt lat="44.59779" lon="6.18036">
        <ele>1394</ele>
        <time>2016-07-14T09:28:44.000Z</time>
      </trkpt>
      <trkpt lat="44.59779" lon="6.18047">
        <ele>1395.1999511719</ele>
        <time>2016-07-14T09:28:50.000Z</time>
      </trkpt>
      <trkpt lat="44.59777" lon="6.18051">
        <ele>1395.1999511719</ele>
        <time>2016-07-14T09:28:53.000Z</time>
      </trkpt>
      <trkpt lat="44.59777" lon="6.1806">
        <ele>1396.1999511719</ele>
        <time>2016-07-14T09:28:58.000Z</time>
      </trkpt>
      <trkpt lat="44.59771" lon="6.18067">
        <ele>1396</ele>
        <time>2016-07-14T09:29:05.000Z</time>
      </trkpt>
      <trkpt lat="44.5977" lon="6.18068">
        <ele>1396</ele>
        <time>2016-07-14T09:29:06.000Z</time>
      </trkpt>
      <trkpt lat="44.59766" lon="6.18068">
        <ele>1395.4000244141</ele>
        <time>2016-07-14T09:29:13.000Z</time>
      </trkpt>
      <trkpt lat="44.59763" lon="6.1807">
        <ele>1395</ele>
        <time>2016-07-14T09:29:17.000Z</time>
      </trkpt>
      <trkpt lat="44.59761" lon="6.18073">
        <ele>1395</ele>
        <time>2016-07-14T09:29:23.000Z</time>
      </trkpt>
      <trkpt lat="44.59756" lon="6.18084">
        <ele>1395.5999755859</ele>
        <time>2016-07-14T09:30:22.000Z</time>
      </trkpt>
      <trkpt lat="44.59755" lon="6.18085">
        <ele>1395.5999755859</ele>
        <time>2016-07-14T09:30:30.000Z</time>
      </trkpt>
      <trkpt lat="44.59755" lon="6.18087">
        <ele>1395.8000488281</ele>
        <time>2016-07-14T09:30:56.000Z</time>
      </trkpt>
      <trkpt lat="44.59755" lon="6.18085">
        <ele>1395.5999755859</ele>
        <time>2016-07-14T09:31:34.000Z</time>
      </trkpt>
      <trkpt lat="44.59759" lon="6.18078">
        <ele>1395.4000244141</ele>
        <time>2016-07-14T09:31:42.000Z</time>
      </trkpt>
      <trkpt lat="44.5976" lon="6.18077">
        <ele>1395.4000244141</ele>
        <time>2016-07-14T09:31:43.000Z</time>
      </trkpt>
      <trkpt lat="44.59764" lon="6.18075">
        <ele>1395.8000488281</ele>
        <time>2016-07-14T09:31:47.000Z</time>
      </trkpt>
      <trkpt lat="44.59766" lon="6.18073">
        <ele>1396</ele>
        <time>2016-07-14T09:31:51.000Z</time>
      </trkpt>
      <trkpt lat="44.59768" lon="6.18073">
        <ele>1396.1999511719</ele>
        <time>2016-07-14T09:32:03.000Z</time>
      </trkpt>
      <trkpt lat="44.5977" lon="6.18065">
        <ele>1395.4000244141</ele>
        <time>2016-07-14T09:32:18.000Z</time>
      </trkpt>
      <trkpt lat="44.59771" lon="6.18059">
        <ele>1394.8000488281</ele>
        <time>2016-07-14T09:32:22.000Z</time>
      </trkpt>
      <trkpt lat="44.59774" lon="6.18052">
        <ele>1394.4000244141</ele>
        <time>2016-07-14T09:32:29.000Z</time>
      </trkpt>
      <trkpt lat="44.59774" lon="6.18051">
        <ele>1394.4000244141</ele>
        <time>2016-07-14T09:32:30.000Z</time>
      </trkpt>
      <trkpt lat="44.59776" lon="6.18046">
        <ele>1394.4000244141</ele>
        <time>2016-07-14T09:32:35.000Z</time>
      </trkpt>
      <trkpt lat="44.59777" lon="6.1804">
        <ele>1394.1999511719</ele>
        <time>2016-07-14T09:32:40.000Z</time>
      </trkpt>
      <trkpt lat="44.5978" lon="6.18034">
        <ele>1394.1999511719</ele>
        <time>2016-07-14T09:32:47.000Z</time>
      </trkpt>
      <trkpt lat="44.59781" lon="6.18031">
        <ele>1394.1999511719</ele>
        <time>2016-07-14T09:32:49.000Z</time>
      </trkpt>
      <trkpt lat="44.59786" lon="6.18023">
        <ele>1394.4000244141</ele>
        <time>2016-07-14T09:32:56.000Z</time>
      </trkpt>
      <trkpt lat="44.59791" lon="6.18015">
        <ele>1394.5999755859</ele>
        <time>2016-07-14T09:33:02.000Z</time>
      </trkpt>
      <trkpt lat="44.59793" lon="6.18009">
        <ele>1394.4000244141</ele>
        <time>2016-07-14T09:33:07.000Z</time>
      </trkpt>
      <trkpt lat="44.59795" lon="6.18004">
        <ele>1394.1999511719</ele>
        <time>2016-07-14T09:33:11.000Z</time>
      </trkpt>
      <trkpt lat="44.59798" lon="6.17995">
        <ele>1393.8000488281</ele>
        <time>2016-07-14T09:33:18.000Z</time>
      </trkpt>
      <trkpt lat="44.59799" lon="6.17991">
        <ele>1393.8000488281</ele>
        <time>2016-07-14T09:33:24.000Z</time>
      </trkpt>
      <trkpt lat="44.598" lon="6.17988">
        <ele>1393.5999755859</ele>
        <time>2016-07-14T09:33:28.000Z</time>
      </trkpt>
      <trkpt lat="44.59801" lon="6.17983">
        <ele>1393.5999755859</ele>
        <time>2016-07-14T09:33:32.000Z</time>
      </trkpt>
      <trkpt lat="44.598" lon="6.17978">
        <ele>1393.1999511719</ele>
        <time>2016-07-14T09:33:36.000Z</time>
      </trkpt>
      <trkpt lat="44.59798" lon="6.1797">
        <ele>1392.1999511719</ele>
        <time>2016-07-14T09:33:41.000Z</time>
      </trkpt>
      <trkpt lat="44.59796" lon="6.1796">
        <ele>1390.8000488281</ele>
        <time>2016-07-14T09:33:48.000Z</time>
      </trkpt>
      <trkpt lat="44.59792" lon="6.17953">
        <ele>1389.4000244141</ele>
        <time>2016-07-14T09:33:54.000Z</time>
      </trkpt>
      <trkpt lat="44.59791" lon="6.17948">
        <ele>1388.5999755859</ele>
        <time>2016-07-14T09:33:57.000Z</time>
      </trkpt>
      <trkpt lat="44.59793" lon="6.17936">
        <ele>1388.1999511719</ele>
        <time>2016-07-14T09:34:04.000Z</time>
      </trkpt>
      <trkpt lat="44.59794" lon="6.17936">
        <ele>1388.4000244141</ele>
        <time>2016-07-14T09:34:05.000Z</time>
      </trkpt>
      <trkpt lat="44.59793" lon="6.17933">
        <ele>1388</ele>
        <time>2016-07-14T09:34:32.000Z</time>
      </trkpt>
      <trkpt lat="44.59793" lon="6.17928">
        <ele>1387.5999755859</ele>
        <time>2016-07-14T09:34:55.000Z</time>
      </trkpt>
      <trkpt lat="44.59794" lon="6.17924">
        <ele>1387.4000244141</ele>
        <time>2016-07-14T09:34:59.000Z</time>
      </trkpt>
      <trkpt lat="44.59795" lon="6.17918">
        <ele>1387.1999511719</ele>
        <time>2016-07-14T09:35:03.000Z</time>
      </trkpt>
      <trkpt lat="44.59799" lon="6.1791">
        <ele>1387.4000244141</ele>
        <time>2016-07-14T09:35:09.000Z</time>
      </trkpt>
      <trkpt lat="44.598" lon="6.17908">
        <ele>1387.1999511719</ele>
        <time>2016-07-14T09:35:10.000Z</time>
      </trkpt>
      <trkpt lat="44.598" lon="6.17907">
        <ele>1387.1999511719</ele>
        <time>2016-07-14T09:35:11.000Z</time>
      </trkpt>
      <trkpt lat="44.598" lon="6.17908">
        <ele>1387.1999511719</ele>
        <time>2016-07-14T09:35:16.000Z</time>
      </trkpt>
      <trkpt lat="44.59799" lon="6.17908">
        <ele>1387.1999511719</ele>
        <time>2016-07-14T09:35:20.000Z</time>
      </trkpt>
      <trkpt lat="44.59801" lon="6.17905">
        <ele>1387</ele>
        <time>2016-07-14T09:35:25.000Z</time>
      </trkpt>
      <trkpt lat="44.59805" lon="6.17903">
        <ele>1387.5999755859</ele>
        <time>2016-07-14T09:35:29.000Z</time>
      </trkpt>
      <trkpt lat="44.5982" lon="6.17899">
        <ele>1390</ele>
        <time>2016-07-14T09:35:41.000Z</time>
      </trkpt>
      <trkpt lat="44.59837" lon="6.17896">
        <ele>1392.5999755859</ele>
        <time>2016-07-14T09:35:54.000Z</time>
      </trkpt>
      <trkpt lat="44.59849" lon="6.17893">
        <ele>1394.4000244141</ele>
        <time>2016-07-14T09:36:03.000Z</time>
      </trkpt>
      <trkpt lat="44.59862" lon="6.1789">
        <ele>1396.5999755859</ele>
        <time>2016-07-14T09:36:12.000Z</time>
      </trkpt>
      <trkpt lat="44.59873" lon="6.17891">
        <ele>1398.1999511719</ele>
        <time>2016-07-14T09:36:20.000Z</time>
      </trkpt>
      <trkpt lat="44.59886" lon="6.17894">
        <ele>1399.5999755859</ele>
        <time>2016-07-14T09:36:29.000Z</time>
      </trkpt>
      <trkpt lat="44.59896" lon="6.17896">
        <ele>1400.8000488281</ele>
        <time>2016-07-14T09:36:37.000Z</time>
      </trkpt>
      <trkpt lat="44.59905" lon="6.17897">
        <ele>1401.8000488281</ele>
        <time>2016-07-14T09:36:44.000Z</time>
      </trkpt>
      <trkpt lat="44.59917" lon="6.17898">
        <ele>1403</ele>
        <time>2016-07-14T09:36:53.000Z</time>
      </trkpt>
      <trkpt lat="44.59927" lon="6.179">
        <ele>1404.1999511719</ele>
        <time>2016-07-14T09:37:01.000Z</time>
      </trkpt>
      <trkpt lat="44.59935" lon="6.17904">
        <ele>1405.1999511719</ele>
        <time>2016-07-14T09:37:08.000Z</time>
      </trkpt>
      <trkpt lat="44.59939" lon="6.17909">
        <ele>1406.1999511719</ele>
        <time>2016-07-14T09:37:14.000Z</time>
      </trkpt>
      <trkpt lat="44.59939" lon="6.17913">
        <ele>1406.5999755859</ele>
        <time>2016-07-14T09:37:30.000Z</time>
      </trkpt>
      <trkpt lat="44.5993" lon="6.17918">
        <ele>1406.1999511719</ele>
        <time>2016-07-14T09:37:38.000Z</time>
      </trkpt>
      <trkpt lat="44.59925" lon="6.1792">
        <ele>1406</ele>
        <time>2016-07-14T09:37:42.000Z</time>
      </trkpt>
      <trkpt lat="44.59919" lon="6.17924">
        <ele>1405.8000488281</ele>
        <time>2016-07-14T09:37:48.000Z</time>
      </trkpt>
      <trkpt lat="44.59912" lon="6.17934">
        <ele>1406</ele>
        <time>2016-07-14T09:37:55.000Z</time>
      </trkpt>
      <trkpt lat="44.59911" lon="6.17943">
        <ele>1406.8000488281</ele>
        <time>2016-07-14T09:38:00.000Z</time>
      </trkpt>
      <trkpt lat="44.59916" lon="6.17958">
        <ele>1409</ele>
        <time>2016-07-14T09:38:08.000Z</time>
      </trkpt>
      <trkpt lat="44.59917" lon="6.17959">
        <ele>1409.1999511719</ele>
        <time>2016-07-14T09:38:09.000Z</time>
      </trkpt>
      <trkpt lat="44.59926" lon="6.17971">
        <ele>1411.4000244141</ele>
        <time>2016-07-14T09:38:18.000Z</time>
      </trkpt>
      <trkpt lat="44.59933" lon="6.17979">
        <ele>1412.8000488281</ele>
        <time>2016-07-14T09:38:25.000Z</time>
      </trkpt>
      <trkpt lat="44.5994" lon="6.17983">
        <ele>1413.5999755859</ele>
        <time>2016-07-14T09:38:32.000Z</time>
      </trkpt>
      <trkpt lat="44.59948" lon="6.1799">
        <ele>1415</ele>
        <time>2016-07-14T09:38:40.000Z</time>
      </trkpt>
      <trkpt lat="44.5996" lon="6.17997">
        <ele>1416.4000244141</ele>
        <time>2016-07-14T09:38:50.000Z</time>
      </trkpt>
      <trkpt lat="44.59964" lon="6.17996">
        <ele>1416.8000488281</ele>
        <time>2016-07-14T09:38:55.000Z</time>
      </trkpt>
      <trkpt lat="44.59966" lon="6.17996">
        <ele>1416.8000488281</ele>
        <time>2016-07-14T09:38:57.000Z</time>
      </trkpt>
      <trkpt lat="44.59972" lon="6.17997">
        <ele>1417.4000244141</ele>
        <time>2016-07-14T09:39:03.000Z</time>
      </trkpt>
      <trkpt lat="44.59986" lon="6.17997">
        <ele>1418.5999755859</ele>
        <time>2016-07-14T09:39:14.000Z</time>
      </trkpt>
      <trkpt lat="44.59999" lon="6.18">
        <ele>1420.1999511719</ele>
        <time>2016-07-14T09:39:23.000Z</time>
      </trkpt>
      <trkpt lat="44.60007" lon="6.1801">
        <ele>1421.5999755859</ele>
        <time>2016-07-14T09:39:31.000Z</time>
      </trkpt>
      <trkpt lat="44.60008" lon="6.18029">
        <ele>1423</ele>
        <time>2016-07-14T09:39:44.000Z</time>
      </trkpt>
      <trkpt lat="44.59998" lon="6.18037">
        <ele>1423.1999511719</ele>
        <time>2016-07-14T09:39:54.000Z</time>
      </trkpt>
      <trkpt lat="44.59991" lon="6.18044">
        <ele>1423.5999755859</ele>
        <time>2016-07-14T09:40:01.000Z</time>
      </trkpt>
      <trkpt lat="44.59983" lon="6.18054">
        <ele>1424</ele>
        <time>2016-07-14T09:40:09.000Z</time>
      </trkpt>
      <trkpt lat="44.59974" lon="6.18068">
        <ele>1425</ele>
        <time>2016-07-14T09:40:19.000Z</time>
      </trkpt>
      <trkpt lat="44.59964" lon="6.18079">
        <ele>1426.1999511719</ele>
        <time>2016-07-14T09:40:28.000Z</time>
      </trkpt>
      <trkpt lat="44.59955" lon="6.18088">
        <ele>1427.8000488281</ele>
        <time>2016-07-14T09:40:36.000Z</time>
      </trkpt>
      <trkpt lat="44.5994" lon="6.18098">
        <ele>1428</ele>
        <time>2016-07-14T09:40:48.000Z</time>
      </trkpt>
      <trkpt lat="44.59928" lon="6.18103">
        <ele>1427.4000244141</ele>
        <time>2016-07-14T09:40:57.000Z</time>
      </trkpt>
      <trkpt lat="44.59915" lon="6.1811">
        <ele>1427</ele>
        <time>2016-07-14T09:41:07.000Z</time>
      </trkpt>
      <trkpt lat="44.59904" lon="6.18116">
        <ele>1426.4000244141</ele>
        <time>2016-07-14T09:41:16.000Z</time>
      </trkpt>
      <trkpt lat="44.59896" lon="6.18115">
        <ele>1425.1999511719</ele>
        <time>2016-07-14T09:41:22.000Z</time>
      </trkpt>
      <trkpt lat="44.59894" lon="6.18104">
        <ele>1423</ele>
        <time>2016-07-14T09:41:30.000Z</time>
      </trkpt>
      <trkpt lat="44.59896" lon="6.18099">
        <ele>1422.4000244141</ele>
        <time>2016-07-14T09:41:36.000Z</time>
      </trkpt>
      <trkpt lat="44.59894" lon="6.18099">
        <ele>1422</ele>
        <time>2016-07-14T09:41:53.000Z</time>
      </trkpt>
      <trkpt lat="44.59897" lon="6.18098">
        <ele>1422.1999511719</ele>
        <time>2016-07-14T09:42:10.000Z</time>
      </trkpt>
      <trkpt lat="44.59899" lon="6.18096">
        <ele>1422.1999511719</ele>
        <time>2016-07-14T09:42:13.000Z</time>
      </trkpt>
      <trkpt lat="44.59899" lon="6.18086">
        <ele>1420.5999755859</ele>
        <time>2016-07-14T09:42:19.000Z</time>
      </trkpt>
      <trkpt lat="44.59902" lon="6.18081">
        <ele>1420</ele>
        <time>2016-07-14T09:42:29.000Z</time>
      </trkpt>
      <trkpt lat="44.599" lon="6.1808">
        <ele>1419.5999755859</ele>
        <time>2016-07-14T09:42:34.000Z</time>
      </trkpt>
      <trkpt lat="44.59898" lon="6.18076">
        <ele>1418.5999755859</ele>
        <time>2016-07-14T09:42:40.000Z</time>
      </trkpt>
      <trkpt lat="44.59899" lon="6.18078">
        <ele>1419</ele>
        <time>2016-07-14T09:42:53.000Z</time>
      </trkpt>
      <trkpt lat="44.599" lon="6.18079">
        <ele>1419.4000244141</ele>
        <time>2016-07-14T09:42:58.000Z</time>
      </trkpt>
      <trkpt lat="44.59898" lon="6.18082">
        <ele>1419.5999755859</ele>
        <time>2016-07-14T09:43:04.000Z</time>
      </trkpt>
      <trkpt lat="44.59896" lon="6.1808">
        <ele>1419.1999511719</ele>
        <time>2016-07-14T09:43:09.000Z</time>
      </trkpt>
      <trkpt lat="44.59898" lon="6.18076">
        <ele>1418.5999755859</ele>
        <time>2016-07-14T09:43:12.000Z</time>
      </trkpt>
      <trkpt lat="44.59905" lon="6.18069">
        <ele>1418.1999511719</ele>
        <time>2016-07-14T09:43:19.000Z</time>
      </trkpt>
      <trkpt lat="44.59907" lon="6.18069">
        <ele>1418.4000244141</ele>
        <time>2016-07-14T09:43:22.000Z</time>
      </trkpt>
      <trkpt lat="44.59908" lon="6.18069">
        <ele>1418.5999755859</ele>
        <time>2016-07-14T09:43:29.000Z</time>
      </trkpt>
      <trkpt lat="44.59903" lon="6.1807">
        <ele>1418.1999511719</ele>
        <time>2016-07-14T09:43:35.000Z</time>
      </trkpt>
      <trkpt lat="44.599" lon="6.18073">
        <ele>1418.4000244141</ele>
        <time>2016-07-14T09:43:38.000Z</time>
      </trkpt>
      <trkpt lat="44.599" lon="6.18079">
        <ele>1419.1999511719</ele>
        <time>2016-07-14T09:43:42.000Z</time>
      </trkpt>
      <trkpt lat="44.59901" lon="6.18083">
        <ele>1420.1999511719</ele>
        <time>2016-07-14T09:43:49.000Z</time>
      </trkpt>
      <trkpt lat="44.599" lon="6.18093">
        <ele>1421.8000488281</ele>
        <time>2016-07-14T09:43:55.000Z</time>
      </trkpt>
      <trkpt lat="44.59895" lon="6.18097">
        <ele>1421.8000488281</ele>
        <time>2016-07-14T09:44:01.000Z</time>
      </trkpt>
      <trkpt lat="44.59895" lon="6.18096">
        <ele>1421.5999755859</ele>
        <time>2016-07-14T09:44:02.000Z</time>
      </trkpt>
      <trkpt lat="44.59895" lon="6.18101">
        <ele>1422.5999755859</ele>
        <time>2016-07-14T09:44:16.000Z</time>
      </trkpt>
      <trkpt lat="44.59896" lon="6.18109">
        <ele>1424</ele>
        <time>2016-07-14T09:44:21.000Z</time>
      </trkpt>
      <trkpt lat="44.599" lon="6.18116">
        <ele>1425.5999755859</ele>
        <time>2016-07-14T09:44:28.000Z</time>
      </trkpt>
      <trkpt lat="44.59901" lon="6.18116">
        <ele>1425.8000488281</ele>
        <time>2016-07-14T09:44:30.000Z</time>
      </trkpt>
      <trkpt lat="44.59903" lon="6.18114">
        <ele>1426</ele>
        <time>2016-07-14T09:44:36.000Z</time>
      </trkpt>
      <trkpt lat="44.59912" lon="6.18111">
        <ele>1426.5999755859</ele>
        <time>2016-07-14T09:44:45.000Z</time>
      </trkpt>
      <trkpt lat="44.59915" lon="6.18109">
        <ele>1426.5999755859</ele>
        <time>2016-07-14T09:44:53.000Z</time>
      </trkpt>
      <trkpt lat="44.59919" lon="6.18108">
        <ele>1427</ele>
        <time>2016-07-14T09:45:05.000Z</time>
      </trkpt>
      <trkpt lat="44.59927" lon="6.18104">
        <ele>1427.4000244141</ele>
        <time>2016-07-14T09:45:12.000Z</time>
      </trkpt>
      <trkpt lat="44.59936" lon="6.181">
        <ele>1427.8000488281</ele>
        <time>2016-07-14T09:45:20.000Z</time>
      </trkpt>
      <trkpt lat="44.59942" lon="6.18093">
        <ele>1427.4000244141</ele>
        <time>2016-07-14T09:45:28.000Z</time>
      </trkpt>
      <trkpt lat="44.59947" lon="6.1809">
        <ele>1427.5999755859</ele>
        <time>2016-07-14T09:45:39.000Z</time>
      </trkpt>
      <trkpt lat="44.59957" lon="6.18085">
        <ele>1427.1999511719</ele>
        <time>2016-07-14T09:45:47.000Z</time>
      </trkpt>
      <trkpt lat="44.59961" lon="6.1808">
        <ele>1426.4000244141</ele>
        <time>2016-07-14T09:45:51.000Z</time>
      </trkpt>
      <trkpt lat="44.59968" lon="6.18074">
        <ele>1425.5999755859</ele>
        <time>2016-07-14T09:45:58.000Z</time>
      </trkpt>
      <trkpt lat="44.59974" lon="6.18067">
        <ele>1425</ele>
        <time>2016-07-14T09:46:04.000Z</time>
      </trkpt>
      <trkpt lat="44.59982" lon="6.18058">
        <ele>1424.5999755859</ele>
        <time>2016-07-14T09:46:12.000Z</time>
      </trkpt>
      <trkpt lat="44.59983" lon="6.18057">
        <ele>1424.4000244141</ele>
        <time>2016-07-14T09:46:13.000Z</time>
      </trkpt>
      <trkpt lat="44.59989" lon="6.1805">
        <ele>1424</ele>
        <time>2016-07-14T09:46:19.000Z</time>
      </trkpt>
      <trkpt lat="44.59994" lon="6.18048">
        <ele>1424.1999511719</ele>
        <time>2016-07-14T09:46:22.000Z</time>
      </trkpt>
      <trkpt lat="44.59998" lon="6.18044">
        <ele>1424</ele>
        <time>2016-07-14T09:46:26.000Z</time>
      </trkpt>
      <trkpt lat="44.60003" lon="6.18038">
        <ele>1423.5999755859</ele>
        <time>2016-07-14T09:46:33.000Z</time>
      </trkpt>
      <trkpt lat="44.60007" lon="6.18034">
        <ele>1423.4000244141</ele>
        <time>2016-07-14T09:46:41.000Z</time>
      </trkpt>
      <trkpt lat="44.60014" lon="6.18029">
        <ele>1423.5999755859</ele>
        <time>2016-07-14T09:46:53.000Z</time>
      </trkpt>
      <trkpt lat="44.60018" lon="6.18021">
        <ele>1423.4000244141</ele>
        <time>2016-07-14T09:47:27.000Z</time>
      </trkpt>
      <trkpt lat="44.6002" lon="6.18021">
        <ele>1423.5999755859</ele>
        <time>2016-07-14T09:47:29.000Z</time>
      </trkpt>
      <trkpt lat="44.60028" lon="6.18032">
        <ele>1425.1999511719</ele>
        <time>2016-07-14T09:47:39.000Z</time>
      </trkpt>
      <trkpt lat="44.60031" lon="6.18035">
        <ele>1425.8000488281</ele>
        <time>2016-07-14T09:47:55.000Z</time>
      </trkpt>
      <trkpt lat="44.60032" lon="6.18038">
        <ele>1426</ele>
        <time>2016-07-14T09:48:01.000Z</time>
      </trkpt>
      <trkpt lat="44.60034" lon="6.18041">
        <ele>1426.4000244141</ele>
        <time>2016-07-14T09:48:49.000Z</time>
      </trkpt>
      <trkpt lat="44.60033" lon="6.18039">
        <ele>1426.1999511719</ele>
        <time>2016-07-14T09:48:57.000Z</time>
      </trkpt>
      <trkpt lat="44.6003" lon="6.18041">
        <ele>1426</ele>
        <time>2016-07-14T09:49:09.000Z</time>
      </trkpt>
      <trkpt lat="44.60029" lon="6.18039">
        <ele>1425.8000488281</ele>
        <time>2016-07-14T09:49:43.000Z</time>
      </trkpt>
      <trkpt lat="44.60027" lon="6.18039">
        <ele>1425.5999755859</ele>
        <time>2016-07-14T09:50:48.000Z</time>
      </trkpt>
      <trkpt lat="44.60027" lon="6.1804">
        <ele>1425.5999755859</ele>
        <time>2016-07-14T09:50:56.000Z</time>
      </trkpt>
      <trkpt lat="44.60028" lon="6.18043">
        <ele>1426</ele>
        <time>2016-07-14T09:51:05.000Z</time>
      </trkpt>
      <trkpt lat="44.60028" lon="6.1804">
        <ele>1425.8000488281</ele>
        <time>2016-07-14T09:51:12.000Z</time>
      </trkpt>
      <trkpt lat="44.60027" lon="6.18041">
        <ele>1425.8000488281</ele>
        <time>2016-07-14T09:51:25.000Z</time>
      </trkpt>
      <trkpt lat="44.60028" lon="6.1804">
        <ele>1425.8000488281</ele>
        <time>2016-07-14T09:51:32.000Z</time>
      </trkpt>
      <trkpt lat="44.60029" lon="6.18039">
        <ele>1425.8000488281</ele>
        <time>2016-07-14T09:51:42.000Z</time>
      </trkpt>
      <trkpt lat="44.60029" lon="6.18038">
        <ele>1425.5999755859</ele>
        <time>2016-07-14T09:52:11.000Z</time>
      </trkpt>
      <trkpt lat="44.60027" lon="6.18036">
        <ele>1425.4000244141</ele>
        <time>2016-07-14T09:52:26.000Z</time>
      </trkpt>
      <trkpt lat="44.60025" lon="6.18036">
        <ele>1425.1999511719</ele>
        <time>2016-07-14T09:52:33.000Z</time>
      </trkpt>
      <trkpt lat="44.60034" lon="6.18039">
        <ele>1426.4000244141</ele>
        <time>2016-07-14T09:52:42.000Z</time>
      </trkpt>
      <trkpt lat="44.60043" lon="6.18047">
        <ele>1427.1999511719</ele>
        <time>2016-07-14T09:52:50.000Z</time>
      </trkpt>
      <trkpt lat="44.60054" lon="6.18056">
        <ele>1428.4000244141</ele>
        <time>2016-07-14T09:53:00.000Z</time>
      </trkpt>
      <trkpt lat="44.60064" lon="6.18058">
        <ele>1428.8000488281</ele>
        <time>2016-07-14T09:53:08.000Z</time>
      </trkpt>
      <trkpt lat="44.60067" lon="6.18056">
        <ele>1428.8000488281</ele>
        <time>2016-07-14T09:53:11.000Z</time>
      </trkpt>
      <trkpt lat="44.60072" lon="6.18041">
        <ele>1427.8000488281</ele>
        <time>2016-07-14T09:53:20.000Z</time>
      </trkpt>
      <trkpt lat="44.6008" lon="6.18028">
        <ele>1427.1999511719</ele>
        <time>2016-07-14T09:53:29.000Z</time>
      </trkpt>
      <trkpt lat="44.60081" lon="6.18027">
        <ele>1427.1999511719</ele>
        <time>2016-07-14T09:53:30.000Z</time>
      </trkpt>
      <trkpt lat="44.60081" lon="6.18024">
        <ele>1427</ele>
        <time>2016-07-14T09:53:36.000Z</time>
      </trkpt>
      <trkpt lat="44.60081" lon="6.18027">
        <ele>1427.1999511719</ele>
        <time>2016-07-14T09:53:42.000Z</time>
      </trkpt>
      <trkpt lat="44.60088" lon="6.18031">
        <ele>1427.8000488281</ele>
        <time>2016-07-14T09:53:48.000Z</time>
      </trkpt>
      <trkpt lat="44.60092" lon="6.18033">
        <ele>1428</ele>
        <time>2016-07-14T09:53:51.000Z</time>
      </trkpt>
      <trkpt lat="44.60096" lon="6.18033">
        <ele>1428.1999511719</ele>
        <time>2016-07-14T09:53:54.000Z</time>
      </trkpt>
      <trkpt lat="44.60101" lon="6.18035">
        <ele>1428.5999755859</ele>
        <time>2016-07-14T09:53:58.000Z</time>
      </trkpt>
      <trkpt lat="44.6011" lon="6.18037">
        <ele>1429.1999511719</ele>
        <time>2016-07-14T09:54:06.000Z</time>
      </trkpt>
      <trkpt lat="44.60109" lon="6.18036">
        <ele>1429</ele>
        <time>2016-07-14T09:54:11.000Z</time>
      </trkpt>
      <trkpt lat="44.60113" lon="6.18038">
        <ele>1429.4000244141</ele>
        <time>2016-07-14T09:54:22.000Z</time>
      </trkpt>
      <trkpt lat="44.60123" lon="6.18036">
        <ele>1429.8000488281</ele>
        <time>2016-07-14T09:54:29.000Z</time>
      </trkpt>
      <trkpt lat="44.60142" lon="6.18033">
        <ele>1431</ele>
        <time>2016-07-14T09:54:44.000Z</time>
      </trkpt>
      <trkpt lat="44.60149" lon="6.18034">
        <ele>1431.5999755859</ele>
        <time>2016-07-14T09:54:50.000Z</time>
      </trkpt>
      <trkpt lat="44.60154" lon="6.18035">
        <ele>1432</ele>
        <time>2016-07-14T09:54:55.000Z</time>
      </trkpt>
      <trkpt lat="44.60155" lon="6.18035">
        <ele>1432</ele>
        <time>2016-07-14T09:54:56.000Z</time>
      </trkpt>
      <trkpt lat="44.60164" lon="6.18038">
        <ele>1433</ele>
        <time>2016-07-14T09:55:04.000Z</time>
      </trkpt>
      <trkpt lat="44.60177" lon="6.18041">
        <ele>1434</ele>
        <time>2016-07-14T09:55:13.000Z</time>
      </trkpt>
      <trkpt lat="44.60189" lon="6.18041">
        <ele>1435.1999511719</ele>
        <time>2016-07-14T09:55:21.000Z</time>
      </trkpt>
      <trkpt lat="44.60198" lon="6.18042">
        <ele>1436.4000244141</ele>
        <time>2016-07-14T09:55:28.000Z</time>
      </trkpt>
      <trkpt lat="44.60207" lon="6.18039">
        <ele>1437.5999755859</ele>
        <time>2016-07-14T09:55:35.000Z</time>
      </trkpt>
      <trkpt lat="44.60214" lon="6.18033">
        <ele>1439</ele>
        <time>2016-07-14T09:55:43.000Z</time>
      </trkpt>
      <trkpt lat="44.60223" lon="6.1803">
        <ele>1440.4000244141</ele>
        <time>2016-07-14T09:55:51.000Z</time>
      </trkpt>
      <trkpt lat="44.60224" lon="6.1803">
        <ele>1440.5999755859</ele>
        <time>2016-07-14T09:55:52.000Z</time>
      </trkpt>
      <trkpt lat="44.60229" lon="6.18032">
        <ele>1441.5999755859</ele>
        <time>2016-07-14T09:55:58.000Z</time>
      </trkpt>
      <trkpt lat="44.60233" lon="6.18029">
        <ele>1442.4000244141</ele>
        <time>2016-07-14T09:56:02.000Z</time>
      </trkpt>
      <trkpt lat="44.60238" lon="6.18028">
        <ele>1443.1999511719</ele>
        <time>2016-07-14T09:56:07.000Z</time>
      </trkpt>
      <trkpt lat="44.6025" lon="6.18021">
        <ele>1445</ele>
        <time>2016-07-14T09:56:18.000Z</time>
      </trkpt>
      <trkpt lat="44.60261" lon="6.18015">
        <ele>1446</ele>
        <time>2016-07-14T09:56:28.000Z</time>
      </trkpt>
      <trkpt lat="44.6027" lon="6.18012">
        <ele>1447</ele>
        <time>2016-07-14T09:56:36.000Z</time>
      </trkpt>
      <trkpt lat="44.60278" lon="6.1801">
        <ele>1448</ele>
        <time>2016-07-14T09:56:43.000Z</time>
      </trkpt>
      <trkpt lat="44.60291" lon="6.18008">
        <ele>1449.5999755859</ele>
        <time>2016-07-14T09:56:53.000Z</time>
      </trkpt>
      <trkpt lat="44.60302" lon="6.18006">
        <ele>1450.8000488281</ele>
        <time>2016-07-14T09:57:01.000Z</time>
      </trkpt>
      <trkpt lat="44.60314" lon="6.18003">
        <ele>1452</ele>
        <time>2016-07-14T09:57:11.000Z</time>
      </trkpt>
      <trkpt lat="44.60328" lon="6.17999">
        <ele>1452.4000244141</ele>
        <time>2016-07-14T09:57:22.000Z</time>
      </trkpt>
      <trkpt lat="44.6034" lon="6.17997">
        <ele>1452.8000488281</ele>
        <time>2016-07-14T09:57:32.000Z</time>
      </trkpt>
      <trkpt lat="44.60345" lon="6.17997">
        <ele>1453</ele>
        <time>2016-07-14T09:57:36.000Z</time>
      </trkpt>
      <trkpt lat="44.60349" lon="6.17997">
        <ele>1453.4000244141</ele>
        <time>2016-07-14T09:57:40.000Z</time>
      </trkpt>
      <trkpt lat="44.60365" lon="6.17998">
        <ele>1454.4000244141</ele>
        <time>2016-07-14T09:57:53.000Z</time>
      </trkpt>
      <trkpt lat="44.60378" lon="6.18002">
        <ele>1455.4000244141</ele>
        <time>2016-07-14T09:58:03.000Z</time>
      </trkpt>
      <trkpt lat="44.60382" lon="6.18004">
        <ele>1456</ele>
        <time>2016-07-14T09:58:09.000Z</time>
      </trkpt>
      <trkpt lat="44.60392" lon="6.18011">
        <ele>1457.1999511719</ele>
        <time>2016-07-14T09:58:17.000Z</time>
      </trkpt>
      <trkpt lat="44.60403" lon="6.18017">
        <ele>1458.4000244141</ele>
        <time>2016-07-14T09:58:26.000Z</time>
      </trkpt>
      <trkpt lat="44.60414" lon="6.18019">
        <ele>1459.1999511719</ele>
        <time>2016-07-14T09:58:36.000Z</time>
      </trkpt>
      <trkpt lat="44.60415" lon="6.18014">
        <ele>1458.4000244141</ele>
        <time>2016-07-14T09:58:41.000Z</time>
      </trkpt>
      <trkpt lat="44.60415" lon="6.18002">
        <ele>1456.8000488281</ele>
        <time>2016-07-14T09:58:50.000Z</time>
      </trkpt>
      <trkpt lat="44.60415" lon="6.17994">
        <ele>1455.8000488281</ele>
        <time>2016-07-14T09:58:58.000Z</time>
      </trkpt>
      <trkpt lat="44.60414" lon="6.17983">
        <ele>1454.4000244141</ele>
        <time>2016-07-14T09:59:05.000Z</time>
      </trkpt>
      <trkpt lat="44.60414" lon="6.1797">
        <ele>1452.8000488281</ele>
        <time>2016-07-14T09:59:14.000Z</time>
      </trkpt>
      <trkpt lat="44.60415" lon="6.17968">
        <ele>1452.8000488281</ele>
        <time>2016-07-14T09:59:15.000Z</time>
      </trkpt>
      <trkpt lat="44.60416" lon="6.1796">
        <ele>1452</ele>
        <time>2016-07-14T09:59:21.000Z</time>
      </trkpt>
      <trkpt lat="44.60417" lon="6.17959">
        <ele>1451.8000488281</ele>
        <time>2016-07-14T09:59:23.000Z</time>
      </trkpt>
      <trkpt lat="44.60418" lon="6.17958">
        <ele>1451.8000488281</ele>
        <time>2016-07-14T09:59:33.000Z</time>
      </trkpt>
      <trkpt lat="44.60418" lon="6.17956">
        <ele>1451.8000488281</ele>
        <time>2016-07-14T09:59:55.000Z</time>
      </trkpt>
      <trkpt lat="44.60419" lon="6.17949">
        <ele>1451</ele>
        <time>2016-07-14T10:01:16.000Z</time>
      </trkpt>
      <trkpt lat="44.60423" lon="6.17935">
        <ele>1450</ele>
        <time>2016-07-14T10:01:24.000Z</time>
      </trkpt>
      <trkpt lat="44.60426" lon="6.17921">
        <ele>1449</ele>
        <time>2016-07-14T10:01:32.000Z</time>
      </trkpt>
      <trkpt lat="44.60427" lon="6.17906">
        <ele>1447.8000488281</ele>
        <time>2016-07-14T10:01:40.000Z</time>
      </trkpt>
      <trkpt lat="44.60428" lon="6.17887">
        <ele>1446</ele>
        <time>2016-07-14T10:01:51.000Z</time>
      </trkpt>
      <trkpt lat="44.60429" lon="6.17873">
        <ele>1444</ele>
        <time>2016-07-14T10:02:01.000Z</time>
      </trkpt>
      <trkpt lat="44.60431" lon="6.17863">
        <ele>1443.1999511719</ele>
        <time>2016-07-14T10:02:08.000Z</time>
      </trkpt>
      <trkpt lat="44.60432" lon="6.17849">
        <ele>1442.1999511719</ele>
        <time>2016-07-14T10:02:16.000Z</time>
      </trkpt>
      <trkpt lat="44.60433" lon="6.17838">
        <ele>1441.4000244141</ele>
        <time>2016-07-14T10:02:23.000Z</time>
      </trkpt>
      <trkpt lat="44.60433" lon="6.17827">
        <ele>1440.5999755859</ele>
        <time>2016-07-14T10:02:30.000Z</time>
      </trkpt>
      <trkpt lat="44.60433" lon="6.17821">
        <ele>1440</ele>
        <time>2016-07-14T10:02:34.000Z</time>
      </trkpt>
      <trkpt lat="44.60434" lon="6.17817">
        <ele>1439.8000488281</ele>
        <time>2016-07-14T10:02:41.000Z</time>
      </trkpt>
      <trkpt lat="44.60433" lon="6.17806">
        <ele>1438.4000244141</ele>
        <time>2016-07-14T10:02:49.000Z</time>
      </trkpt>
      <trkpt lat="44.60432" lon="6.17792">
        <ele>1436.4000244141</ele>
        <time>2016-07-14T10:02:57.000Z</time>
      </trkpt>
      <trkpt lat="44.60432" lon="6.17777">
        <ele>1435.4000244141</ele>
        <time>2016-07-14T10:03:05.000Z</time>
      </trkpt>
      <trkpt lat="44.60434" lon="6.17764">
        <ele>1434.4000244141</ele>
        <time>2016-07-14T10:03:12.000Z</time>
      </trkpt>
      <trkpt lat="44.60435" lon="6.17748">
        <ele>1433.1999511719</ele>
        <time>2016-07-14T10:03:20.000Z</time>
      </trkpt>
      <trkpt lat="44.60438" lon="6.17735">
        <ele>1432.5999755859</ele>
        <time>2016-07-14T10:03:27.000Z</time>
      </trkpt>
      <trkpt lat="44.60442" lon="6.17725">
        <ele>1432.4000244141</ele>
        <time>2016-07-14T10:03:33.000Z</time>
      </trkpt>
      <trkpt lat="44.60445" lon="6.17712">
        <ele>1432.1999511719</ele>
        <time>2016-07-14T10:03:41.000Z</time>
      </trkpt>
      <trkpt lat="44.60445" lon="6.177">
        <ele>1431.4000244141</ele>
        <time>2016-07-14T10:03:47.000Z</time>
      </trkpt>
      <trkpt lat="44.60446" lon="6.17691">
        <ele>1431</ele>
        <time>2016-07-14T10:03:52.000Z</time>
      </trkpt>
      <trkpt lat="44.60447" lon="6.17681">
        <ele>1430.5999755859</ele>
        <time>2016-07-14T10:03:57.000Z</time>
      </trkpt>
      <trkpt lat="44.6045" lon="6.17667">
        <ele>1430</ele>
        <time>2016-07-14T10:04:05.000Z</time>
      </trkpt>
      <trkpt lat="44.60454" lon="6.17653">
        <ele>1429.5999755859</ele>
        <time>2016-07-14T10:04:13.000Z</time>
      </trkpt>
      <trkpt lat="44.60462" lon="6.17635">
        <ele>1428.4000244141</ele>
        <time>2016-07-14T10:04:23.000Z</time>
      </trkpt>
      <trkpt lat="44.60466" lon="6.17622">
        <ele>1427.1999511719</ele>
        <time>2016-07-14T10:04:31.000Z</time>
      </trkpt>
      <trkpt lat="44.60475" lon="6.17595">
        <ele>1425</ele>
        <time>2016-07-14T10:04:46.000Z</time>
      </trkpt>
      <trkpt lat="44.60478" lon="6.17587">
        <ele>1424.4000244141</ele>
        <time>2016-07-14T10:04:51.000Z</time>
      </trkpt>
      <trkpt lat="44.60486" lon="6.17572">
        <ele>1424.4000244141</ele>
        <time>2016-07-14T10:05:02.000Z</time>
      </trkpt>
      <trkpt lat="44.60488" lon="6.17569">
        <ele>1424.4000244141</ele>
        <time>2016-07-14T10:05:07.000Z</time>
      </trkpt>
      <trkpt lat="44.60487" lon="6.1757">
        <ele>1424.4000244141</ele>
        <time>2016-07-14T10:05:12.000Z</time>
      </trkpt>
      <trkpt lat="44.60487" lon="6.17569">
        <ele>1424.4000244141</ele>
        <time>2016-07-14T10:05:24.000Z</time>
      </trkpt>
      <trkpt lat="44.60492" lon="6.17556">
        <ele>1424</ele>
        <time>2016-07-14T10:05:32.000Z</time>
      </trkpt>
      <trkpt lat="44.60499" lon="6.17542">
        <ele>1423.4000244141</ele>
        <time>2016-07-14T10:05:41.000Z</time>
      </trkpt>
      <trkpt lat="44.60509" lon="6.17523">
        <ele>1423.1999511719</ele>
        <time>2016-07-14T10:05:53.000Z</time>
      </trkpt>
      <trkpt lat="44.60519" lon="6.17504">
        <ele>1423.8000488281</ele>
        <time>2016-07-14T10:06:05.000Z</time>
      </trkpt>
      <trkpt lat="44.6053" lon="6.17483">
        <ele>1424.4000244141</ele>
        <time>2016-07-14T10:06:18.000Z</time>
      </trkpt>
      <trkpt lat="44.60541" lon="6.17462">
        <ele>1423.5999755859</ele>
        <time>2016-07-14T10:06:31.000Z</time>
      </trkpt>
      <trkpt lat="44.60543" lon="6.17455">
        <ele>1423.1999511719</ele>
        <time>2016-07-14T10:06:35.000Z</time>
      </trkpt>
      <trkpt lat="44.6054" lon="6.17447">
        <ele>1422.4000244141</ele>
        <time>2016-07-14T10:06:40.000Z</time>
      </trkpt>
      <trkpt lat="44.60541" lon="6.17446">
        <ele>1422.4000244141</ele>
        <time>2016-07-14T10:06:46.000Z</time>
      </trkpt>
      <trkpt lat="44.60546" lon="6.1745">
        <ele>1422.5999755859</ele>
        <time>2016-07-14T10:06:51.000Z</time>
      </trkpt>
      <trkpt lat="44.60547" lon="6.1745">
        <ele>1422.5999755859</ele>
        <time>2016-07-14T10:06:52.000Z</time>
      </trkpt>
      <trkpt lat="44.60551" lon="6.17447">
        <ele>1422.4000244141</ele>
        <time>2016-07-14T10:06:56.000Z</time>
      </trkpt>
      <trkpt lat="44.60557" lon="6.17436">
        <ele>1421.4000244141</ele>
        <time>2016-07-14T10:07:03.000Z</time>
      </trkpt>
      <trkpt lat="44.60569" lon="6.17418">
        <ele>1420.8000488281</ele>
        <time>2016-07-14T10:07:15.000Z</time>
      </trkpt>
      <trkpt lat="44.60577" lon="6.17403">
        <ele>1421.4000244141</ele>
        <time>2016-07-14T10:07:25.000Z</time>
      </trkpt>
      <trkpt lat="44.60585" lon="6.17395">
        <ele>1422.1999511719</ele>
        <time>2016-07-14T10:07:32.000Z</time>
      </trkpt>
      <trkpt lat="44.60588" lon="6.17388">
        <ele>1421.8000488281</ele>
        <time>2016-07-14T10:07:36.000Z</time>
      </trkpt>
      <trkpt lat="44.60589" lon="6.17378">
        <ele>1421</ele>
        <time>2016-07-14T10:07:43.000Z</time>
      </trkpt>
      <trkpt lat="44.6059" lon="6.17378">
        <ele>1421.1999511719</ele>
        <time>2016-07-14T10:07:44.000Z</time>
      </trkpt>
      <trkpt lat="44.60593" lon="6.17377">
        <ele>1421.4000244141</ele>
        <time>2016-07-14T10:07:47.000Z</time>
      </trkpt>
      <trkpt lat="44.60603" lon="6.17366">
        <ele>1422</ele>
        <time>2016-07-14T10:07:56.000Z</time>
      </trkpt>
      <trkpt lat="44.60611" lon="6.17354">
        <ele>1422.5999755859</ele>
        <time>2016-07-14T10:08:04.000Z</time>
      </trkpt>
      <trkpt lat="44.60621" lon="6.1734">
        <ele>1423</ele>
        <time>2016-07-14T10:08:14.000Z</time>
      </trkpt>
      <trkpt lat="44.60634" lon="6.17326">
        <ele>1422.4000244141</ele>
        <time>2016-07-14T10:08:26.000Z</time>
      </trkpt>
      <trkpt lat="44.60658" lon="6.17303">
        <ele>1423.8000488281</ele>
        <time>2016-07-14T10:08:48.000Z</time>
      </trkpt>
      <trkpt lat="44.60667" lon="6.17295">
        <ele>1423.8000488281</ele>
        <time>2016-07-14T10:08:56.000Z</time>
      </trkpt>
      <trkpt lat="44.60675" lon="6.17287">
        <ele>1424</ele>
        <time>2016-07-14T10:09:04.000Z</time>
      </trkpt>
      <trkpt lat="44.60686" lon="6.17277">
        <ele>1425.8000488281</ele>
        <time>2016-07-14T10:09:14.000Z</time>
      </trkpt>
      <trkpt lat="44.607" lon="6.17265">
        <ele>1428.4000244141</ele>
        <time>2016-07-14T10:09:26.000Z</time>
      </trkpt>
      <trkpt lat="44.6071" lon="6.17252">
        <ele>1430</ele>
        <time>2016-07-14T10:09:36.000Z</time>
      </trkpt>
      <trkpt lat="44.60716" lon="6.17242">
        <ele>1431</ele>
        <time>2016-07-14T10:09:43.000Z</time>
      </trkpt>
      <trkpt lat="44.6072" lon="6.17236">
        <ele>1431.8000488281</ele>
        <time>2016-07-14T10:09:48.000Z</time>
      </trkpt>
      <trkpt lat="44.60729" lon="6.17226">
        <ele>1433.1999511719</ele>
        <time>2016-07-14T10:09:57.000Z</time>
      </trkpt>
      <trkpt lat="44.60735" lon="6.17213">
        <ele>1433.4000244141</ele>
        <time>2016-07-14T10:10:06.000Z</time>
      </trkpt>
      <trkpt lat="44.60747" lon="6.17197">
        <ele>1434</ele>
        <time>2016-07-14T10:10:18.000Z</time>
      </trkpt>
      <trkpt lat="44.6076" lon="6.17187">
        <ele>1434.8000488281</ele>
        <time>2016-07-14T10:10:29.000Z</time>
      </trkpt>
      <trkpt lat="44.6077" lon="6.17181">
        <ele>1435.5999755859</ele>
        <time>2016-07-14T10:10:37.000Z</time>
      </trkpt>
      <trkpt lat="44.60781" lon="6.17172">
        <ele>1436.1999511719</ele>
        <time>2016-07-14T10:10:47.000Z</time>
      </trkpt>
      <trkpt lat="44.60791" lon="6.17161">
        <ele>1436.8000488281</ele>
        <time>2016-07-14T10:10:56.000Z</time>
      </trkpt>
      <trkpt lat="44.60798" lon="6.17153">
        <ele>1437</ele>
        <time>2016-07-14T10:11:02.000Z</time>
      </trkpt>
      <trkpt lat="44.60805" lon="6.17138">
        <ele>1436.1999511719</ele>
        <time>2016-07-14T10:11:11.000Z</time>
      </trkpt>
      <trkpt lat="44.6081" lon="6.17129">
        <ele>1435.8000488281</ele>
        <time>2016-07-14T10:11:18.000Z</time>
      </trkpt>
      <trkpt lat="44.60818" lon="6.17112">
        <ele>1434.5999755859</ele>
        <time>2016-07-14T10:11:28.000Z</time>
      </trkpt>
      <trkpt lat="44.60819" lon="6.1711">
        <ele>1434.5999755859</ele>
        <time>2016-07-14T10:11:29.000Z</time>
      </trkpt>
      <trkpt lat="44.60828" lon="6.17093">
        <ele>1433.5999755859</ele>
        <time>2016-07-14T10:11:40.000Z</time>
      </trkpt>
      <trkpt lat="44.60837" lon="6.17079">
        <ele>1433.4000244141</ele>
        <time>2016-07-14T10:11:50.000Z</time>
      </trkpt>
      <trkpt lat="44.60848" lon="6.17068">
        <ele>1433.5999755859</ele>
        <time>2016-07-14T10:12:00.000Z</time>
      </trkpt>
      <trkpt lat="44.60861" lon="6.1706">
        <ele>1434.1999511719</ele>
        <time>2016-07-14T10:12:10.000Z</time>
      </trkpt>
      <trkpt lat="44.60874" lon="6.17052">
        <ele>1435</ele>
        <time>2016-07-14T10:12:22.000Z</time>
      </trkpt>
      <trkpt lat="44.60887" lon="6.17044">
        <ele>1435.8000488281</ele>
        <time>2016-07-14T10:12:33.000Z</time>
      </trkpt>
      <trkpt lat="44.60901" lon="6.1704">
        <ele>1437</ele>
        <time>2016-07-14T10:12:44.000Z</time>
      </trkpt>
      <trkpt lat="44.60914" lon="6.17038">
        <ele>1438.1999511719</ele>
        <time>2016-07-14T10:12:55.000Z</time>
      </trkpt>
      <trkpt lat="44.60923" lon="6.17045">
        <ele>1439.8000488281</ele>
        <time>2016-07-14T10:13:03.000Z</time>
      </trkpt>
      <trkpt lat="44.60932" lon="6.17061">
        <ele>1442</ele>
        <time>2016-07-14T10:13:14.000Z</time>
      </trkpt>
      <trkpt lat="44.60939" lon="6.17077">
        <ele>1444</ele>
        <time>2016-07-14T10:13:24.000Z</time>
      </trkpt>
      <trkpt lat="44.60947" lon="6.17094">
        <ele>1446.1999511719</ele>
        <time>2016-07-14T10:13:34.000Z</time>
      </trkpt>
      <trkpt lat="44.60956" lon="6.17117">
        <ele>1448.8000488281</ele>
        <time>2016-07-14T10:13:48.000Z</time>
      </trkpt>
      <trkpt lat="44.6096" lon="6.17135">
        <ele>1450.1999511719</ele>
        <time>2016-07-14T10:13:58.000Z</time>
      </trkpt>
      <trkpt lat="44.60959" lon="6.1715">
        <ele>1451.4000244141</ele>
        <time>2016-07-14T10:14:06.000Z</time>
      </trkpt>
      <trkpt lat="44.60959" lon="6.17167">
        <ele>1452.5999755859</ele>
        <time>2016-07-14T10:14:15.000Z</time>
      </trkpt>
      <trkpt lat="44.60963" lon="6.17182">
        <ele>1453.5999755859</ele>
        <time>2016-07-14T10:14:23.000Z</time>
      </trkpt>
      <trkpt lat="44.60968" lon="6.17195">
        <ele>1454.4000244141</ele>
        <time>2016-07-14T10:14:31.000Z</time>
      </trkpt>
      <trkpt lat="44.6097" lon="6.17213">
        <ele>1455.8000488281</ele>
        <time>2016-07-14T10:14:41.000Z</time>
      </trkpt>
      <trkpt lat="44.6097" lon="6.17216">
        <ele>1456</ele>
        <time>2016-07-14T10:14:43.000Z</time>
      </trkpt>
      <trkpt lat="44.60974" lon="6.17228">
        <ele>1456.8000488281</ele>
        <time>2016-07-14T10:14:53.000Z</time>
      </trkpt>
      <trkpt lat="44.60975" lon="6.17229">
        <ele>1456.5999755859</ele>
        <time>2016-07-14T10:15:03.000Z</time>
      </trkpt>
      <trkpt lat="44.60981" lon="6.17236">
        <ele>1456.4000244141</ele>
        <time>2016-07-14T10:15:10.000Z</time>
      </trkpt>
      <trkpt lat="44.60991" lon="6.17238">
        <ele>1456.1999511719</ele>
        <time>2016-07-14T10:15:18.000Z</time>
      </trkpt>
      <trkpt lat="44.61004" lon="6.17239">
        <ele>1456</ele>
        <time>2016-07-14T10:15:28.000Z</time>
      </trkpt>
      <trkpt lat="44.61015" lon="6.17246">
        <ele>1455.5999755859</ele>
        <time>2016-07-14T10:15:37.000Z</time>
      </trkpt>
      <trkpt lat="44.61022" lon="6.17246">
        <ele>1455.4000244141</ele>
        <time>2016-07-14T10:15:42.000Z</time>
      </trkpt>
      <trkpt lat="44.6103" lon="6.17247">
        <ele>1455.4000244141</ele>
        <time>2016-07-14T10:15:50.000Z</time>
      </trkpt>
      <trkpt lat="44.61039" lon="6.17246">
        <ele>1455</ele>
        <time>2016-07-14T10:15:58.000Z</time>
      </trkpt>
      <trkpt lat="44.61052" lon="6.17243">
        <ele>1454</ele>
        <time>2016-07-14T10:16:08.000Z</time>
      </trkpt>
      <trkpt lat="44.61061" lon="6.17238">
        <ele>1453.5999755859</ele>
        <time>2016-07-14T10:16:16.000Z</time>
      </trkpt>
      <trkpt lat="44.61065" lon="6.17231">
        <ele>1453.8000488281</ele>
        <time>2016-07-14T10:16:22.000Z</time>
      </trkpt>
      <trkpt lat="44.61068" lon="6.17234">
        <ele>1453.1999511719</ele>
        <time>2016-07-14T10:16:28.000Z</time>
      </trkpt>
      <trkpt lat="44.61068" lon="6.17236">
        <ele>1453.1999511719</ele>
        <time>2016-07-14T10:16:29.000Z</time>
      </trkpt>
      <trkpt lat="44.61068" lon="6.17239">
        <ele>1453</ele>
        <time>2016-07-14T10:16:31.000Z</time>
      </trkpt>
      <trkpt lat="44.61068" lon="6.17241">
        <ele>1452.8000488281</ele>
        <time>2016-07-14T10:16:39.000Z</time>
      </trkpt>
      <trkpt lat="44.61066" lon="6.17234">
        <ele>1453.4000244141</ele>
        <time>2016-07-14T10:17:41.000Z</time>
      </trkpt>
      <trkpt lat="44.61071" lon="6.17221">
        <ele>1453.1999511719</ele>
        <time>2016-07-14T10:17:49.000Z</time>
      </trkpt>
      <trkpt lat="44.6108" lon="6.17213">
        <ele>1452.1999511719</ele>
        <time>2016-07-14T10:17:57.000Z</time>
      </trkpt>
      <trkpt lat="44.6109" lon="6.17212">
        <ele>1451.1999511719</ele>
        <time>2016-07-14T10:18:05.000Z</time>
      </trkpt>
      <trkpt lat="44.61102" lon="6.1721">
        <ele>1450.4000244141</ele>
        <time>2016-07-14T10:18:14.000Z</time>
      </trkpt>
      <trkpt lat="44.61114" lon="6.17203">
        <ele>1450.4000244141</ele>
        <time>2016-07-14T10:18:24.000Z</time>
      </trkpt>
      <trkpt lat="44.61122" lon="6.17197">
        <ele>1450</ele>
        <time>2016-07-14T10:18:31.000Z</time>
      </trkpt>
      <trkpt lat="44.61134" lon="6.17191">
        <ele>1449.1999511719</ele>
        <time>2016-07-14T10:18:40.000Z</time>
      </trkpt>
      <trkpt lat="44.61145" lon="6.17185">
        <ele>1448.4000244141</ele>
        <time>2016-07-14T10:18:50.000Z</time>
      </trkpt>
      <trkpt lat="44.61146" lon="6.17183">
        <ele>1448.1999511719</ele>
        <time>2016-07-14T10:18:57.000Z</time>
      </trkpt>
      <trkpt lat="44.61149" lon="6.17176">
        <ele>1448</ele>
        <time>2016-07-14T10:19:09.000Z</time>
      </trkpt>
      <trkpt lat="44.61157" lon="6.17168">
        <ele>1448.1999511719</ele>
        <time>2016-07-14T10:19:17.000Z</time>
      </trkpt>
      <trkpt lat="44.61166" lon="6.17164">
        <ele>1448.1999511719</ele>
        <time>2016-07-14T10:19:24.000Z</time>
      </trkpt>
      <trkpt lat="44.6117" lon="6.17161">
        <ele>1448.1999511719</ele>
        <time>2016-07-14T10:19:31.000Z</time>
      </trkpt>
      <trkpt lat="44.61174" lon="6.1716">
        <ele>1448</ele>
        <time>2016-07-14T10:19:48.000Z</time>
      </trkpt>
      <trkpt lat="44.61185" lon="6.17155">
        <ele>1448</ele>
        <time>2016-07-14T10:19:57.000Z</time>
      </trkpt>
      <trkpt lat="44.61192" lon="6.17149">
        <ele>1448</ele>
        <time>2016-07-14T10:20:03.000Z</time>
      </trkpt>
      <trkpt lat="44.61197" lon="6.17148">
        <ele>1448</ele>
        <time>2016-07-14T10:20:06.000Z</time>
      </trkpt>
      <trkpt lat="44.61204" lon="6.17148">
        <ele>1447.5999755859</ele>
        <time>2016-07-14T10:20:11.000Z</time>
      </trkpt>
      <trkpt lat="44.61217" lon="6.1714">
        <ele>1445.5999755859</ele>
        <time>2016-07-14T10:20:20.000Z</time>
      </trkpt>
      <trkpt lat="44.61236" lon="6.17128">
        <ele>1442.1999511719</ele>
        <time>2016-07-14T10:20:28.000Z</time>
      </trkpt>
      <trkpt lat="44.6125" lon="6.17121">
        <ele>1439.5999755859</ele>
        <time>2016-07-14T10:20:36.000Z</time>
      </trkpt>
      <trkpt lat="44.61266" lon="6.17115">
        <ele>1438.1999511719</ele>
        <time>2016-07-14T10:20:47.000Z</time>
      </trkpt>
      <trkpt lat="44.61281" lon="6.17112">
        <ele>1437.8000488281</ele>
        <time>2016-07-14T10:20:58.000Z</time>
      </trkpt>
      <trkpt lat="44.61291" lon="6.17108">
        <ele>1437.1999511719</ele>
        <time>2016-07-14T10:21:06.000Z</time>
      </trkpt>
      <trkpt lat="44.61306" lon="6.17102">
        <ele>1436</ele>
        <time>2016-07-14T10:21:18.000Z</time>
      </trkpt>
      <trkpt lat="44.6132" lon="6.17095">
        <ele>1435</ele>
        <time>2016-07-14T10:21:29.000Z</time>
      </trkpt>
      <trkpt lat="44.6133" lon="6.17092">
        <ele>1434.8000488281</ele>
        <time>2016-07-14T10:21:37.000Z</time>
      </trkpt>
      <trkpt lat="44.61342" lon="6.17086">
        <ele>1434.8000488281</ele>
        <time>2016-07-14T10:21:47.000Z</time>
      </trkpt>
      <trkpt lat="44.61355" lon="6.17082">
        <ele>1434.5999755859</ele>
        <time>2016-07-14T10:21:57.000Z</time>
      </trkpt>
      <trkpt lat="44.61367" lon="6.1708">
        <ele>1434.4000244141</ele>
        <time>2016-07-14T10:22:06.000Z</time>
      </trkpt>
      <trkpt lat="44.61376" lon="6.17076">
        <ele>1433.8000488281</ele>
        <time>2016-07-14T10:22:13.000Z</time>
      </trkpt>
      <trkpt lat="44.61385" lon="6.17069">
        <ele>1433.8000488281</ele>
        <time>2016-07-14T10:22:21.000Z</time>
      </trkpt>
      <trkpt lat="44.61394" lon="6.17062">
        <ele>1434.4000244141</ele>
        <time>2016-07-14T10:22:29.000Z</time>
      </trkpt>
      <trkpt lat="44.61405" lon="6.17057">
        <ele>1433.5999755859</ele>
        <time>2016-07-14T10:22:38.000Z</time>
      </trkpt>
      <trkpt lat="44.61428" lon="6.17045">
        <ele>1431.4000244141</ele>
        <time>2016-07-14T10:22:57.000Z</time>
      </trkpt>
      <trkpt lat="44.61439" lon="6.17037">
        <ele>1430.4000244141</ele>
        <time>2016-07-14T10:23:06.000Z</time>
      </trkpt>
      <trkpt lat="44.61449" lon="6.17031">
        <ele>1429.4000244141</ele>
        <time>2016-07-14T10:23:14.000Z</time>
      </trkpt>
      <trkpt lat="44.61459" lon="6.17027">
        <ele>1428.4000244141</ele>
        <time>2016-07-14T10:23:22.000Z</time>
      </trkpt>
      <trkpt lat="44.6147" lon="6.17023">
        <ele>1427</ele>
        <time>2016-07-14T10:23:31.000Z</time>
      </trkpt>
      <trkpt lat="44.61481" lon="6.17026">
        <ele>1426.5999755859</ele>
        <time>2016-07-14T10:23:40.000Z</time>
      </trkpt>
      <trkpt lat="44.61493" lon="6.17032">
        <ele>1426.4000244141</ele>
        <time>2016-07-14T10:23:49.000Z</time>
      </trkpt>
      <trkpt lat="44.61502" lon="6.17036">
        <ele>1426.4000244141</ele>
        <time>2016-07-14T10:23:57.000Z</time>
      </trkpt>
      <trkpt lat="44.61512" lon="6.17037">
        <ele>1425.8000488281</ele>
        <time>2016-07-14T10:24:05.000Z</time>
      </trkpt>
      <trkpt lat="44.61527" lon="6.17038">
        <ele>1424.8000488281</ele>
        <time>2016-07-14T10:24:16.000Z</time>
      </trkpt>
      <trkpt lat="44.61539" lon="6.17042">
        <ele>1424.1999511719</ele>
        <time>2016-07-14T10:24:26.000Z</time>
      </trkpt>
      <trkpt lat="44.61547" lon="6.17046">
        <ele>1423.4000244141</ele>
        <time>2016-07-14T10:24:33.000Z</time>
      </trkpt>
      <trkpt lat="44.61559" lon="6.1705">
        <ele>1422</ele>
        <time>2016-07-14T10:24:42.000Z</time>
      </trkpt>
      <trkpt lat="44.61568" lon="6.17054">
        <ele>1421</ele>
        <time>2016-07-14T10:24:49.000Z</time>
      </trkpt>
      <trkpt lat="44.61582" lon="6.17051">
        <ele>1418.4000244141</ele>
        <time>2016-07-14T10:24:59.000Z</time>
      </trkpt>
      <trkpt lat="44.61592" lon="6.17051">
        <ele>1416.8000488281</ele>
        <time>2016-07-14T10:25:07.000Z</time>
      </trkpt>
      <trkpt lat="44.61602" lon="6.17051">
        <ele>1415.4000244141</ele>
        <time>2016-07-14T10:25:15.000Z</time>
      </trkpt>
      <trkpt lat="44.61615" lon="6.17049">
        <ele>1414</ele>
        <time>2016-07-14T10:25:25.000Z</time>
      </trkpt>
      <trkpt lat="44.61626" lon="6.17045">
        <ele>1412.8000488281</ele>
        <time>2016-07-14T10:25:35.000Z</time>
      </trkpt>
      <trkpt lat="44.61635" lon="6.1704">
        <ele>1411.5999755859</ele>
        <time>2016-07-14T10:25:43.000Z</time>
      </trkpt>
      <trkpt lat="44.61639" lon="6.17038">
        <ele>1411</ele>
        <time>2016-07-14T10:25:48.000Z</time>
      </trkpt>
      <trkpt lat="44.61641" lon="6.17037">
        <ele>1410.8000488281</ele>
        <time>2016-07-14T10:25:56.000Z</time>
      </trkpt>
      <trkpt lat="44.61645" lon="6.17034">
        <ele>1410.1999511719</ele>
        <time>2016-07-14T10:26:02.000Z</time>
      </trkpt>
      <trkpt lat="44.61653" lon="6.17028">
        <ele>1409</ele>
        <time>2016-07-14T10:26:10.000Z</time>
      </trkpt>
      <trkpt lat="44.61661" lon="6.17023">
        <ele>1408</ele>
        <time>2016-07-14T10:26:17.000Z</time>
      </trkpt>
      <trkpt lat="44.6167" lon="6.17012">
        <ele>1408</ele>
        <time>2016-07-14T10:26:27.000Z</time>
      </trkpt>
      <trkpt lat="44.6168" lon="6.17001">
        <ele>1408.4000244141</ele>
        <time>2016-07-14T10:26:37.000Z</time>
      </trkpt>
      <trkpt lat="44.61688" lon="6.16989">
        <ele>1408.8000488281</ele>
        <time>2016-07-14T10:26:46.000Z</time>
      </trkpt>
      <trkpt lat="44.61691" lon="6.16984">
        <ele>1409</ele>
        <time>2016-07-14T10:26:50.000Z</time>
      </trkpt>
      <trkpt lat="44.61694" lon="6.16981">
        <ele>1409</ele>
        <time>2016-07-14T10:26:53.000Z</time>
      </trkpt>
      <trkpt lat="44.61703" lon="6.1697">
        <ele>1408.4000244141</ele>
        <time>2016-07-14T10:27:04.000Z</time>
      </trkpt>
      <trkpt lat="44.6171" lon="6.16964">
        <ele>1407</ele>
        <time>2016-07-14T10:27:10.000Z</time>
      </trkpt>
      <trkpt lat="44.61722" lon="6.16956">
        <ele>1404.5999755859</ele>
        <time>2016-07-14T10:27:19.000Z</time>
      </trkpt>
      <trkpt lat="44.61735" lon="6.16947">
        <ele>1402</ele>
        <time>2016-07-14T10:27:29.000Z</time>
      </trkpt>
      <trkpt lat="44.61743" lon="6.16942">
        <ele>1400.4000244141</ele>
        <time>2016-07-14T10:27:35.000Z</time>
      </trkpt>
      <trkpt lat="44.61757" lon="6.16931">
        <ele>1399.5999755859</ele>
        <time>2016-07-14T10:27:47.000Z</time>
      </trkpt>
      <trkpt lat="44.61766" lon="6.16921">
        <ele>1399.5999755859</ele>
        <time>2016-07-14T10:27:55.000Z</time>
      </trkpt>
      <trkpt lat="44.61778" lon="6.16907">
        <ele>1399.5999755859</ele>
        <time>2016-07-14T10:28:07.000Z</time>
      </trkpt>
      <trkpt lat="44.61788" lon="6.1689">
        <ele>1399.1999511719</ele>
        <time>2016-07-14T10:28:18.000Z</time>
      </trkpt>
      <trkpt lat="44.61794" lon="6.16876">
        <ele>1397</ele>
        <time>2016-07-14T10:28:27.000Z</time>
      </trkpt>
      <trkpt lat="44.61801" lon="6.16859">
        <ele>1394.4000244141</ele>
        <time>2016-07-14T10:28:38.000Z</time>
      </trkpt>
      <trkpt lat="44.61807" lon="6.16844">
        <ele>1392.1999511719</ele>
        <time>2016-07-14T10:28:47.000Z</time>
      </trkpt>
      <trkpt lat="44.61816" lon="6.16827">
        <ele>1390.8000488281</ele>
        <time>2016-07-14T10:28:58.000Z</time>
      </trkpt>
      <trkpt lat="44.61821" lon="6.16819">
        <ele>1390.8000488281</ele>
        <time>2016-07-14T10:29:05.000Z</time>
      </trkpt>
      <trkpt lat="44.61831" lon="6.16806">
        <ele>1389.4000244141</ele>
        <time>2016-07-14T10:29:15.000Z</time>
      </trkpt>
      <trkpt lat="44.61846" lon="6.16792">
        <ele>1385.5999755859</ele>
        <time>2016-07-14T10:29:28.000Z</time>
      </trkpt>
      <trkpt lat="44.61857" lon="6.16783">
        <ele>1385</ele>
        <time>2016-07-14T10:29:37.000Z</time>
      </trkpt>
      <trkpt lat="44.6187" lon="6.16775">
        <ele>1384.8000488281</ele>
        <time>2016-07-14T10:29:47.000Z</time>
      </trkpt>
      <trkpt lat="44.61883" lon="6.16768">
        <ele>1383.8000488281</ele>
        <time>2016-07-14T10:29:56.000Z</time>
      </trkpt>
      <trkpt lat="44.619" lon="6.16758">
        <ele>1382.4000244141</ele>
        <time>2016-07-14T10:30:09.000Z</time>
      </trkpt>
      <trkpt lat="44.61913" lon="6.16748">
        <ele>1383.1999511719</ele>
        <time>2016-07-14T10:30:20.000Z</time>
      </trkpt>
      <trkpt lat="44.61927" lon="6.1674">
        <ele>1383.8000488281</ele>
        <time>2016-07-14T10:30:31.000Z</time>
      </trkpt>
      <trkpt lat="44.61943" lon="6.16725">
        <ele>1384.4000244141</ele>
        <time>2016-07-14T10:30:44.000Z</time>
      </trkpt>
      <trkpt lat="44.61952" lon="6.1672">
        <ele>1385</ele>
        <time>2016-07-14T10:30:51.000Z</time>
      </trkpt>
      <trkpt lat="44.6196" lon="6.16708">
        <ele>1385</ele>
        <time>2016-07-14T10:31:00.000Z</time>
      </trkpt>
      <trkpt lat="44.61968" lon="6.16693">
        <ele>1385</ele>
        <time>2016-07-14T10:31:11.000Z</time>
      </trkpt>
      <trkpt lat="44.61975" lon="6.1668">
        <ele>1385</ele>
        <time>2016-07-14T10:31:20.000Z</time>
      </trkpt>
      <trkpt lat="44.61983" lon="6.16664">
        <ele>1385.4000244141</ele>
        <time>2016-07-14T10:31:30.000Z</time>
      </trkpt>
      <trkpt lat="44.61993" lon="6.16646">
        <ele>1386.4000244141</ele>
        <time>2016-07-14T10:31:42.000Z</time>
      </trkpt>
      <trkpt lat="44.61998" lon="6.16637">
        <ele>1386.1999511719</ele>
        <time>2016-07-14T10:31:49.000Z</time>
      </trkpt>
      <trkpt lat="44.61998" lon="6.16636">
        <ele>1386</ele>
        <time>2016-07-14T10:31:55.000Z</time>
      </trkpt>
      <trkpt lat="44.61997" lon="6.16637">
        <ele>1386</ele>
        <time>2016-07-14T10:32:04.000Z</time>
      </trkpt>
      <trkpt lat="44.61997" lon="6.16637">
        <ele>1386</ele>
        <time>2016-07-14T10:33:14.000Z</time>
      </trkpt>
      <trkpt lat="44.61999" lon="6.16634">
        <ele>1386</ele>
        <time>2016-07-14T10:33:48.000Z</time>
      </trkpt>
      <trkpt lat="44.61998" lon="6.16633">
        <ele>1385.8000488281</ele>
        <time>2016-07-14T10:34:14.000Z</time>
      </trkpt>
      <trkpt lat="44.62006" lon="6.16626">
        <ele>1385.5999755859</ele>
        <time>2016-07-14T10:34:21.000Z</time>
      </trkpt>
      <trkpt lat="44.62009" lon="6.16618">
        <ele>1385.1999511719</ele>
        <time>2016-07-14T10:34:26.000Z</time>
      </trkpt>
      <trkpt lat="44.62014" lon="6.16611">
        <ele>1384.8000488281</ele>
        <time>2016-07-14T10:34:31.000Z</time>
      </trkpt>
      <trkpt lat="44.62015" lon="6.1661">
        <ele>1384.8000488281</ele>
        <time>2016-07-14T10:34:32.000Z</time>
      </trkpt>
      <trkpt lat="44.6202" lon="6.16598">
        <ele>1384</ele>
        <time>2016-07-14T10:34:39.000Z</time>
      </trkpt>
      <trkpt lat="44.62028" lon="6.16571">
        <ele>1382.4000244141</ele>
        <time>2016-07-14T10:34:54.000Z</time>
      </trkpt>
      <trkpt lat="44.62031" lon="6.16559">
        <ele>1381.5999755859</ele>
        <time>2016-07-14T10:35:01.000Z</time>
      </trkpt>
      <trkpt lat="44.62033" lon="6.16547">
        <ele>1380.1999511719</ele>
        <time>2016-07-14T10:35:08.000Z</time>
      </trkpt>
      <trkpt lat="44.62033" lon="6.16545">
        <ele>1379.8000488281</ele>
        <time>2016-07-14T10:35:09.000Z</time>
      </trkpt>
      <trkpt lat="44.62035" lon="6.1654">
        <ele>1379.1999511719</ele>
        <time>2016-07-14T10:35:13.000Z</time>
      </trkpt>
      <trkpt lat="44.62037" lon="6.16526">
        <ele>1377.1999511719</ele>
        <time>2016-07-14T10:35:21.000Z</time>
      </trkpt>
      <trkpt lat="44.62039" lon="6.16515">
        <ele>1375.4000244141</ele>
        <time>2016-07-14T10:35:27.000Z</time>
      </trkpt>
      <trkpt lat="44.62042" lon="6.16506">
        <ele>1373.8000488281</ele>
        <time>2016-07-14T10:35:33.000Z</time>
      </trkpt>
      <trkpt lat="44.62043" lon="6.16503">
        <ele>1373.4000244141</ele>
        <time>2016-07-14T10:35:35.000Z</time>
      </trkpt>
      <trkpt lat="44.62044" lon="6.16499">
        <ele>1372.8000488281</ele>
        <time>2016-07-14T10:35:37.000Z</time>
      </trkpt>
      <trkpt lat="44.62048" lon="6.16474">
        <ele>1369.5999755859</ele>
        <time>2016-07-14T10:35:51.000Z</time>
      </trkpt>
      <trkpt lat="44.6205" lon="6.16463">
        <ele>1368.1999511719</ele>
        <time>2016-07-14T10:35:58.000Z</time>
      </trkpt>
      <trkpt lat="44.62053" lon="6.1645">
        <ele>1366.4000244141</ele>
        <time>2016-07-14T10:36:05.000Z</time>
      </trkpt>
      <trkpt lat="44.62056" lon="6.16441">
        <ele>1365</ele>
        <time>2016-07-14T10:36:11.000Z</time>
      </trkpt>
      <trkpt lat="44.62057" lon="6.1644">
        <ele>1364.8000488281</ele>
        <time>2016-07-14T10:36:12.000Z</time>
      </trkpt>
      <trkpt lat="44.62056" lon="6.16439">
        <ele>1364.8000488281</ele>
        <time>2016-07-14T10:36:18.000Z</time>
      </trkpt>
      <trkpt lat="44.62055" lon="6.1644">
        <ele>1365</ele>
        <time>2016-07-14T10:36:23.000Z</time>
      </trkpt>
      <trkpt lat="44.62058" lon="6.16442">
        <ele>1365.1999511719</ele>
        <time>2016-07-14T10:36:38.000Z</time>
      </trkpt>
      <trkpt lat="44.6206" lon="6.16435">
        <ele>1364</ele>
        <time>2016-07-14T10:36:49.000Z</time>
      </trkpt>
      <trkpt lat="44.62065" lon="6.16426">
        <ele>1362.5999755859</ele>
        <time>2016-07-14T10:36:55.000Z</time>
      </trkpt>
      <trkpt lat="44.62072" lon="6.16416">
        <ele>1361.8000488281</ele>
        <time>2016-07-14T10:37:02.000Z</time>
      </trkpt>
      <trkpt lat="44.62079" lon="6.16405">
        <ele>1361.1999511719</ele>
        <time>2016-07-14T10:37:09.000Z</time>
      </trkpt>
      <trkpt lat="44.62085" lon="6.16401">
        <ele>1360.8000488281</ele>
        <time>2016-07-14T10:37:14.000Z</time>
      </trkpt>
      <trkpt lat="44.62089" lon="6.16399">
        <ele>1360.5999755859</ele>
        <time>2016-07-14T10:37:17.000Z</time>
      </trkpt>
      <trkpt lat="44.62096" lon="6.16394">
        <ele>1360.1999511719</ele>
        <time>2016-07-14T10:37:23.000Z</time>
      </trkpt>
      <trkpt lat="44.62106" lon="6.16389">
        <ele>1359.8000488281</ele>
        <time>2016-07-14T10:37:30.000Z</time>
      </trkpt>
      <trkpt lat="44.62109" lon="6.16387">
        <ele>1359.5999755859</ele>
        <time>2016-07-14T10:37:33.000Z</time>
      </trkpt>
      <trkpt lat="44.62124" lon="6.16381">
        <ele>1358.5999755859</ele>
        <time>2016-07-14T10:37:44.000Z</time>
      </trkpt>
      <trkpt lat="44.62135" lon="6.16376">
        <ele>1357.5999755859</ele>
        <time>2016-07-14T10:37:53.000Z</time>
      </trkpt>
      <trkpt lat="44.62139" lon="6.16375">
        <ele>1357.1999511719</ele>
        <time>2016-07-14T10:37:56.000Z</time>
      </trkpt>
      <trkpt lat="44.62149" lon="6.16371">
        <ele>1356.1999511719</ele>
        <time>2016-07-14T10:38:05.000Z</time>
      </trkpt>
      <trkpt lat="44.62159" lon="6.16372">
        <ele>1355.4000244141</ele>
        <time>2016-07-14T10:38:13.000Z</time>
      </trkpt>
      <trkpt lat="44.6217" lon="6.16373">
        <ele>1354.8000488281</ele>
        <time>2016-07-14T10:38:22.000Z</time>
      </trkpt>
      <trkpt lat="44.62182" lon="6.16374">
        <ele>1354</ele>
        <time>2016-07-14T10:38:32.000Z</time>
      </trkpt>
      <trkpt lat="44.62188" lon="6.16374">
        <ele>1354</ele>
        <time>2016-07-14T10:38:38.000Z</time>
      </trkpt>
      <trkpt lat="44.62195" lon="6.16374">
        <ele>1354</ele>
        <time>2016-07-14T10:38:43.000Z</time>
      </trkpt>
      <trkpt lat="44.62202" lon="6.16372">
        <ele>1354</ele>
        <time>2016-07-14T10:38:48.000Z</time>
      </trkpt>
      <trkpt lat="44.62214" lon="6.16367">
        <ele>1353</ele>
        <time>2016-07-14T10:38:57.000Z</time>
      </trkpt>
      <trkpt lat="44.62227" lon="6.16361">
        <ele>1352</ele>
        <time>2016-07-14T10:39:07.000Z</time>
      </trkpt>
      <trkpt lat="44.6223" lon="6.1636">
        <ele>1351.5999755859</ele>
        <time>2016-07-14T10:39:11.000Z</time>
      </trkpt>
      <trkpt lat="44.62238" lon="6.16358">
        <ele>1351</ele>
        <time>2016-07-14T10:39:18.000Z</time>
      </trkpt>
      <trkpt lat="44.62239" lon="6.16358">
        <ele>1350.8000488281</ele>
        <time>2016-07-14T10:39:19.000Z</time>
      </trkpt>
      <trkpt lat="44.62249" lon="6.16355">
        <ele>1350</ele>
        <time>2016-07-14T10:39:27.000Z</time>
      </trkpt>
      <trkpt lat="44.62258" lon="6.16356">
        <ele>1349.4000244141</ele>
        <time>2016-07-14T10:39:33.000Z</time>
      </trkpt>
      <trkpt lat="44.62269" lon="6.16356">
        <ele>1348.5999755859</ele>
        <time>2016-07-14T10:39:42.000Z</time>
      </trkpt>
      <trkpt lat="44.62282" lon="6.16356">
        <ele>1347.8000488281</ele>
        <time>2016-07-14T10:39:51.000Z</time>
      </trkpt>
      <trkpt lat="44.62294" lon="6.16362">
        <ele>1346.8000488281</ele>
        <time>2016-07-14T10:40:00.000Z</time>
      </trkpt>
      <trkpt lat="44.62299" lon="6.1637">
        <ele>1346.1999511719</ele>
        <time>2016-07-14T10:40:06.000Z</time>
      </trkpt>
      <trkpt lat="44.62305" lon="6.16378">
        <ele>1345.5999755859</ele>
        <time>2016-07-14T10:40:12.000Z</time>
      </trkpt>
      <trkpt lat="44.6231" lon="6.16385">
        <ele>1345</ele>
        <time>2016-07-14T10:40:19.000Z</time>
      </trkpt>
      <trkpt lat="44.62311" lon="6.16383">
        <ele>1345</ele>
        <time>2016-07-14T10:40:24.000Z</time>
      </trkpt>
      <trkpt lat="44.62312" lon="6.16385">
        <ele>1345</ele>
        <time>2016-07-14T10:40:40.000Z</time>
      </trkpt>
      <trkpt lat="44.62315" lon="6.16395">
        <ele>1344.4000244141</ele>
        <time>2016-07-14T10:40:46.000Z</time>
      </trkpt>
      <trkpt lat="44.62321" lon="6.16406">
        <ele>1344.1999511719</ele>
        <time>2016-07-14T10:40:53.000Z</time>
      </trkpt>
      <trkpt lat="44.62327" lon="6.16421">
        <ele>1344.1999511719</ele>
        <time>2016-07-14T10:41:02.000Z</time>
      </trkpt>
      <trkpt lat="44.62332" lon="6.16438">
        <ele>1344.1999511719</ele>
        <time>2016-07-14T10:41:11.000Z</time>
      </trkpt>
      <trkpt lat="44.62335" lon="6.16453">
        <ele>1344</ele>
        <time>2016-07-14T10:41:19.000Z</time>
      </trkpt>
      <trkpt lat="44.62335" lon="6.16455">
        <ele>1344</ele>
        <time>2016-07-14T10:41:20.000Z</time>
      </trkpt>
      <trkpt lat="44.62335" lon="6.16458">
        <ele>1344</ele>
        <time>2016-07-14T10:41:22.000Z</time>
      </trkpt>
      <trkpt lat="44.62332" lon="6.16465">
        <ele>1344.1999511719</ele>
        <time>2016-07-14T10:41:28.000Z</time>
      </trkpt>
      <trkpt lat="44.62333" lon="6.16464">
        <ele>1344.1999511719</ele>
        <time>2016-07-14T10:41:33.000Z</time>
      </trkpt>
      <trkpt lat="44.62331" lon="6.16465">
        <ele>1344.1999511719</ele>
        <time>2016-07-14T10:41:47.000Z</time>
      </trkpt>
      <trkpt lat="44.62332" lon="6.16467">
        <ele>1344.1999511719</ele>
        <time>2016-07-14T10:41:50.000Z</time>
      </trkpt>
      <trkpt lat="44.62333" lon="6.16467">
        <ele>1344.1999511719</ele>
        <time>2016-07-14T10:41:57.000Z</time>
      </trkpt>
      <trkpt lat="44.62333" lon="6.16468">
        <ele>1344.1999511719</ele>
        <time>2016-07-14T10:42:01.000Z</time>
      </trkpt>
      <trkpt lat="44.62333" lon="6.1647">
        <ele>1344.1999511719</ele>
        <time>2016-07-14T10:42:09.000Z</time>
      </trkpt>
      <trkpt lat="44.62334" lon="6.16466">
        <ele>1344.1999511719</ele>
        <time>2016-07-14T10:42:24.000Z</time>
      </trkpt>
      <trkpt lat="44.62333" lon="6.16465">
        <ele>1344.1999511719</ele>
        <time>2016-07-14T10:42:30.000Z</time>
      </trkpt>
      <trkpt lat="44.62332" lon="6.16466">
        <ele>1344.1999511719</ele>
        <time>2016-07-14T10:42:41.000Z</time>
      </trkpt>
      <trkpt lat="44.62332" lon="6.16468">
        <ele>1344.1999511719</ele>
        <time>2016-07-14T10:42:47.000Z</time>
      </trkpt>
      <trkpt lat="44.62334" lon="6.16466">
        <ele>1344</ele>
        <time>2016-07-14T10:42:51.000Z</time>
      </trkpt>
      <trkpt lat="44.62332" lon="6.16469">
        <ele>1344.1999511719</ele>
        <time>2016-07-14T10:42:54.000Z</time>
      </trkpt>
      <trkpt lat="44.62332" lon="6.16471">
        <ele>1344.1999511719</ele>
        <time>2016-07-14T10:43:00.000Z</time>
      </trkpt>
      <trkpt lat="44.62332" lon="6.16472">
        <ele>1344.1999511719</ele>
        <time>2016-07-14T10:43:12.000Z</time>
      </trkpt>
      <trkpt lat="44.62332" lon="6.1647">
        <ele>1344.1999511719</ele>
        <time>2016-07-14T10:43:33.000Z</time>
      </trkpt>
      <trkpt lat="44.62333" lon="6.16469">
        <ele>1344.1999511719</ele>
        <time>2016-07-14T10:43:47.000Z</time>
      </trkpt>
      <trkpt lat="44.62331" lon="6.16467">
        <ele>1344.1999511719</ele>
        <time>2016-07-14T10:45:58.000Z</time>
      </trkpt>
      <trkpt lat="44.6234" lon="6.16468">
        <ele>1343.8000488281</ele>
        <time>2016-07-14T11:31:51.000Z</time>
      </trkpt>
      <trkpt lat="44.62343" lon="6.16478">
        <ele>1343.5999755859</ele>
        <time>2016-07-14T11:31:58.000Z</time>
      </trkpt>
      <trkpt lat="44.62347" lon="6.16491">
        <ele>1343.4000244141</ele>
        <time>2016-07-14T11:32:06.000Z</time>
      </trkpt>
      <trkpt lat="44.62351" lon="6.16505">
        <ele>1343</ele>
        <time>2016-07-14T11:32:14.000Z</time>
      </trkpt>
      <trkpt lat="44.62354" lon="6.16517">
        <ele>1343</ele>
        <time>2016-07-14T11:32:21.000Z</time>
      </trkpt>
      <trkpt lat="44.62358" lon="6.16536">
        <ele>1342.5999755859</ele>
        <time>2016-07-14T11:32:31.000Z</time>
      </trkpt>
      <trkpt lat="44.62357" lon="6.16553">
        <ele>1342.8000488281</ele>
        <time>2016-07-14T11:32:40.000Z</time>
      </trkpt>
      <trkpt lat="44.62351" lon="6.16568">
        <ele>1343.8000488281</ele>
        <time>2016-07-14T11:32:49.000Z</time>
      </trkpt>
      <trkpt lat="44.62342" lon="6.16585">
        <ele>1344.8000488281</ele>
        <time>2016-07-14T11:33:00.000Z</time>
      </trkpt>
      <trkpt lat="44.62339" lon="6.16598">
        <ele>1345.4000244141</ele>
        <time>2016-07-14T11:33:07.000Z</time>
      </trkpt>
      <trkpt lat="44.62339" lon="6.16612">
        <ele>1345.4000244141</ele>
        <time>2016-07-14T11:33:14.000Z</time>
      </trkpt>
      <trkpt lat="44.62338" lon="6.16627">
        <ele>1346.1999511719</ele>
        <time>2016-07-14T11:33:22.000Z</time>
      </trkpt>
      <trkpt lat="44.62338" lon="6.16641">
        <ele>1346.8000488281</ele>
        <time>2016-07-14T11:33:29.000Z</time>
      </trkpt>
      <trkpt lat="44.62339" lon="6.16662">
        <ele>1347</ele>
        <time>2016-07-14T11:33:40.000Z</time>
      </trkpt>
      <trkpt lat="44.62342" lon="6.16678">
        <ele>1346.5999755859</ele>
        <time>2016-07-14T11:33:49.000Z</time>
      </trkpt>
      <trkpt lat="44.62346" lon="6.16693">
        <ele>1346</ele>
        <time>2016-07-14T11:33:57.000Z</time>
      </trkpt>
      <trkpt lat="44.6235" lon="6.16708">
        <ele>1345.5999755859</ele>
        <time>2016-07-14T11:34:05.000Z</time>
      </trkpt>
      <trkpt lat="44.6235" lon="6.1672">
        <ele>1345</ele>
        <time>2016-07-14T11:34:12.000Z</time>
      </trkpt>
      <trkpt lat="44.62351" lon="6.16732">
        <ele>1344.1999511719</ele>
        <time>2016-07-14T11:34:19.000Z</time>
      </trkpt>
      <trkpt lat="44.62354" lon="6.16747">
        <ele>1342.1999511719</ele>
        <time>2016-07-14T11:34:27.000Z</time>
      </trkpt>
      <trkpt lat="44.62359" lon="6.16766">
        <ele>1339.4000244141</ele>
        <time>2016-07-14T11:34:39.000Z</time>
      </trkpt>
      <trkpt lat="44.62363" lon="6.16783">
        <ele>1337</ele>
        <time>2016-07-14T11:34:49.000Z</time>
      </trkpt>
      <trkpt lat="44.62364" lon="6.16792">
        <ele>1335.8000488281</ele>
        <time>2016-07-14T11:34:55.000Z</time>
      </trkpt>
      <trkpt lat="44.62365" lon="6.16804">
        <ele>1334.1999511719</ele>
        <time>2016-07-14T11:35:03.000Z</time>
      </trkpt>
      <trkpt lat="44.62366" lon="6.16807">
        <ele>1333.8000488281</ele>
        <time>2016-07-14T11:35:06.000Z</time>
      </trkpt>
      <trkpt lat="44.62369" lon="6.16815">
        <ele>1332.5999755859</ele>
        <time>2016-07-14T11:35:13.000Z</time>
      </trkpt>
      <trkpt lat="44.6237" lon="6.16817">
        <ele>1332.1999511719</ele>
        <time>2016-07-14T11:35:14.000Z</time>
      </trkpt>
      <trkpt lat="44.62376" lon="6.16826">
        <ele>1329.5999755859</ele>
        <time>2016-07-14T11:35:21.000Z</time>
      </trkpt>
      <trkpt lat="44.62384" lon="6.16836">
        <ele>1326.4000244141</ele>
        <time>2016-07-14T11:35:30.000Z</time>
      </trkpt>
      <trkpt lat="44.62389" lon="6.16849">
        <ele>1323.4000244141</ele>
        <time>2016-07-14T11:35:38.000Z</time>
      </trkpt>
      <trkpt lat="44.62388" lon="6.16857">
        <ele>1323</ele>
        <time>2016-07-14T11:35:44.000Z</time>
      </trkpt>
      <trkpt lat="44.62382" lon="6.16872">
        <ele>1323</ele>
        <time>2016-07-14T11:35:54.000Z</time>
      </trkpt>
      <trkpt lat="44.62381" lon="6.16874">
        <ele>1323.1999511719</ele>
        <time>2016-07-14T11:35:55.000Z</time>
      </trkpt>
      <trkpt lat="44.62377" lon="6.16884">
        <ele>1323</ele>
        <time>2016-07-14T11:36:02.000Z</time>
      </trkpt>
      <trkpt lat="44.62374" lon="6.16897">
        <ele>1322</ele>
        <time>2016-07-14T11:36:09.000Z</time>
      </trkpt>
      <trkpt lat="44.62369" lon="6.1691">
        <ele>1321.1999511719</ele>
        <time>2016-07-14T11:36:17.000Z</time>
      </trkpt>
      <trkpt lat="44.62366" lon="6.16921">
        <ele>1319.5999755859</ele>
        <time>2016-07-14T11:36:24.000Z</time>
      </trkpt>
      <trkpt lat="44.62362" lon="6.16933">
        <ele>1318.1999511719</ele>
        <time>2016-07-14T11:36:32.000Z</time>
      </trkpt>
      <trkpt lat="44.62361" lon="6.16936">
        <ele>1317.5999755859</ele>
        <time>2016-07-14T11:36:34.000Z</time>
      </trkpt>
      <trkpt lat="44.62355" lon="6.16951">
        <ele>1315.8000488281</ele>
        <time>2016-07-14T11:36:43.000Z</time>
      </trkpt>
      <trkpt lat="44.62353" lon="6.16955">
        <ele>1315.4000244141</ele>
        <time>2016-07-14T11:36:47.000Z</time>
      </trkpt>
      <trkpt lat="44.62348" lon="6.16966">
        <ele>1314.5999755859</ele>
        <time>2016-07-14T11:36:54.000Z</time>
      </trkpt>
      <trkpt lat="44.62345" lon="6.16976">
        <ele>1314</ele>
        <time>2016-07-14T11:37:01.000Z</time>
      </trkpt>
      <trkpt lat="44.62339" lon="6.16989">
        <ele>1313</ele>
        <time>2016-07-14T11:37:09.000Z</time>
      </trkpt>
      <trkpt lat="44.62333" lon="6.17">
        <ele>1312</ele>
        <time>2016-07-14T11:37:16.000Z</time>
      </trkpt>
      <trkpt lat="44.62327" lon="6.17011">
        <ele>1311.1999511719</ele>
        <time>2016-07-14T11:37:23.000Z</time>
      </trkpt>
      <trkpt lat="44.62321" lon="6.1702">
        <ele>1311.1999511719</ele>
        <time>2016-07-14T11:37:30.000Z</time>
      </trkpt>
      <trkpt lat="44.62317" lon="6.17026">
        <ele>1312.1999511719</ele>
        <time>2016-07-14T11:37:35.000Z</time>
      </trkpt>
      <trkpt lat="44.62311" lon="6.17033">
        <ele>1313.5999755859</ele>
        <time>2016-07-14T11:37:42.000Z</time>
      </trkpt>
      <trkpt lat="44.62306" lon="6.17038">
        <ele>1314.5999755859</ele>
        <time>2016-07-14T11:37:47.000Z</time>
      </trkpt>
      <trkpt lat="44.62303" lon="6.17045">
        <ele>1314.8000488281</ele>
        <time>2016-07-14T11:37:52.000Z</time>
      </trkpt>
      <trkpt lat="44.62301" lon="6.17055">
        <ele>1314.5999755859</ele>
        <time>2016-07-14T11:37:58.000Z</time>
      </trkpt>
      <trkpt lat="44.623" lon="6.17059">
        <ele>1314.5999755859</ele>
        <time>2016-07-14T11:38:01.000Z</time>
      </trkpt>
      <trkpt lat="44.623" lon="6.17062">
        <ele>1314.1999511719</ele>
        <time>2016-07-14T11:38:03.000Z</time>
      </trkpt>
      <trkpt lat="44.62299" lon="6.17066">
        <ele>1313.4000244141</ele>
        <time>2016-07-14T11:38:06.000Z</time>
      </trkpt>
      <trkpt lat="44.62298" lon="6.1707">
        <ele>1312.8000488281</ele>
        <time>2016-07-14T11:38:09.000Z</time>
      </trkpt>
      <trkpt lat="44.62294" lon="6.17075">
        <ele>1313</ele>
        <time>2016-07-14T11:38:15.000Z</time>
      </trkpt>
      <trkpt lat="44.62293" lon="6.17077">
        <ele>1312.5999755859</ele>
        <time>2016-07-14T11:38:16.000Z</time>
      </trkpt>
      <trkpt lat="44.62291" lon="6.17082">
        <ele>1312.1999511719</ele>
        <time>2016-07-14T11:38:19.000Z</time>
      </trkpt>
      <trkpt lat="44.62287" lon="6.17088">
        <ele>1312</ele>
        <time>2016-07-14T11:38:25.000Z</time>
      </trkpt>
      <trkpt lat="44.62287" lon="6.17091">
        <ele>1311.1999511719</ele>
        <time>2016-07-14T11:38:27.000Z</time>
      </trkpt>
      <trkpt lat="44.62285" lon="6.17096">
        <ele>1310.8000488281</ele>
        <time>2016-07-14T11:38:31.000Z</time>
      </trkpt>
      <trkpt lat="44.62282" lon="6.17105">
        <ele>1308.8000488281</ele>
        <time>2016-07-14T11:38:39.000Z</time>
      </trkpt>
      <trkpt lat="44.62281" lon="6.17109">
        <ele>1308.1999511719</ele>
        <time>2016-07-14T11:38:41.000Z</time>
      </trkpt>
      <trkpt lat="44.62277" lon="6.1712">
        <ele>1306</ele>
        <time>2016-07-14T11:38:48.000Z</time>
      </trkpt>
      <trkpt lat="44.62277" lon="6.17121">
        <ele>1305.8000488281</ele>
        <time>2016-07-14T11:38:49.000Z</time>
      </trkpt>
      <trkpt lat="44.62274" lon="6.17129">
        <ele>1304.1999511719</ele>
        <time>2016-07-14T11:38:59.000Z</time>
      </trkpt>
      <trkpt lat="44.62272" lon="6.17137">
        <ele>1303</ele>
        <time>2016-07-14T11:39:05.000Z</time>
      </trkpt>
      <trkpt lat="44.62269" lon="6.17141">
        <ele>1302.5999755859</ele>
        <time>2016-07-14T11:39:08.000Z</time>
      </trkpt>
      <trkpt lat="44.62264" lon="6.17148">
        <ele>1302.1999511719</ele>
        <time>2016-07-14T11:39:15.000Z</time>
      </trkpt>
      <trkpt lat="44.62259" lon="6.17151">
        <ele>1302</ele>
        <time>2016-07-14T11:39:21.000Z</time>
      </trkpt>
      <trkpt lat="44.62257" lon="6.17151">
        <ele>1302.4000244141</ele>
        <time>2016-07-14T11:39:32.000Z</time>
      </trkpt>
      <trkpt lat="44.62257" lon="6.17152">
        <ele>1302.1999511719</ele>
        <time>2016-07-14T11:39:40.000Z</time>
      </trkpt>
      <trkpt lat="44.62252" lon="6.17155">
        <ele>1302.4000244141</ele>
        <time>2016-07-14T11:39:47.000Z</time>
      </trkpt>
      <trkpt lat="44.62246" lon="6.17162">
        <ele>1301.8000488281</ele>
        <time>2016-07-14T11:39:54.000Z</time>
      </trkpt>
      <trkpt lat="44.62245" lon="6.17163">
        <ele>1301.5999755859</ele>
        <time>2016-07-14T11:39:55.000Z</time>
      </trkpt>
      <trkpt lat="44.62239" lon="6.17175">
        <ele>1299.5999755859</ele>
        <time>2016-07-14T11:40:02.000Z</time>
      </trkpt>
      <trkpt lat="44.62231" lon="6.17186">
        <ele>1298.4000244141</ele>
        <time>2016-07-14T11:40:10.000Z</time>
      </trkpt>
      <trkpt lat="44.62222" lon="6.17198">
        <ele>1296.5999755859</ele>
        <time>2016-07-14T11:40:19.000Z</time>
      </trkpt>
      <trkpt lat="44.62215" lon="6.17205">
        <ele>1295.8000488281</ele>
        <time>2016-07-14T11:40:25.000Z</time>
      </trkpt>
      <trkpt lat="44.62215" lon="6.17206">
        <ele>1295.5999755859</ele>
        <time>2016-07-14T11:40:26.000Z</time>
      </trkpt>
      <trkpt lat="44.62212" lon="6.1721">
        <ele>1295.1999511719</ele>
        <time>2016-07-14T11:40:30.000Z</time>
      </trkpt>
      <trkpt lat="44.62208" lon="6.17213">
        <ele>1294.8000488281</ele>
        <time>2016-07-14T11:40:34.000Z</time>
      </trkpt>
      <trkpt lat="44.62203" lon="6.17222">
        <ele>1293.4000244141</ele>
        <time>2016-07-14T11:40:40.000Z</time>
      </trkpt>
      <trkpt lat="44.62199" lon="6.17229">
        <ele>1292.5999755859</ele>
        <time>2016-07-14T11:40:45.000Z</time>
      </trkpt>
      <trkpt lat="44.62193" lon="6.17236">
        <ele>1293.1999511719</ele>
        <time>2016-07-14T11:40:50.000Z</time>
      </trkpt>
      <trkpt lat="44.62191" lon="6.17237">
        <ele>1293.5999755859</ele>
        <time>2016-07-14T11:40:51.000Z</time>
      </trkpt>
      <trkpt lat="44.62183" lon="6.17242">
        <ele>1295</ele>
        <time>2016-07-14T11:40:58.000Z</time>
      </trkpt>
      <trkpt lat="44.62182" lon="6.17244">
        <ele>1295</ele>
        <time>2016-07-14T11:40:59.000Z</time>
      </trkpt>
      <trkpt lat="44.62174" lon="6.17257">
        <ele>1295.1999511719</ele>
        <time>2016-07-14T11:41:07.000Z</time>
      </trkpt>
      <trkpt lat="44.62173" lon="6.17259">
        <ele>1295.4000244141</ele>
        <time>2016-07-14T11:41:08.000Z</time>
      </trkpt>
      <trkpt lat="44.6217" lon="6.17262">
        <ele>1295.4000244141</ele>
        <time>2016-07-14T11:41:11.000Z</time>
      </trkpt>
      <trkpt lat="44.62168" lon="6.17269">
        <ele>1294.8000488281</ele>
        <time>2016-07-14T11:41:15.000Z</time>
      </trkpt>
      <trkpt lat="44.62166" lon="6.17275">
        <ele>1294.4000244141</ele>
        <time>2016-07-14T11:41:19.000Z</time>
      </trkpt>
      <trkpt lat="44.62165" lon="6.17278">
        <ele>1294.8000488281</ele>
        <time>2016-07-14T11:41:21.000Z</time>
      </trkpt>
      <trkpt lat="44.62159" lon="6.17282">
        <ele>1296.8000488281</ele>
        <time>2016-07-14T11:41:26.000Z</time>
      </trkpt>
      <trkpt lat="44.62154" lon="6.17284">
        <ele>1298.1999511719</ele>
        <time>2016-07-14T11:41:30.000Z</time>
      </trkpt>
      <trkpt lat="44.62153" lon="6.17294">
        <ele>1297.8000488281</ele>
        <time>2016-07-14T11:41:36.000Z</time>
      </trkpt>
      <trkpt lat="44.62153" lon="6.17298">
        <ele>1297.8000488281</ele>
        <time>2016-07-14T11:41:38.000Z</time>
      </trkpt>
      <trkpt lat="44.6215" lon="6.17311">
        <ele>1297.8000488281</ele>
        <time>2016-07-14T11:41:44.000Z</time>
      </trkpt>
      <trkpt lat="44.62145" lon="6.17324">
        <ele>1299</ele>
        <time>2016-07-14T11:41:51.000Z</time>
      </trkpt>
      <trkpt lat="44.6214" lon="6.17335">
        <ele>1299.8000488281</ele>
        <time>2016-07-14T11:41:57.000Z</time>
      </trkpt>
      <trkpt lat="44.62136" lon="6.1735">
        <ele>1298.4000244141</ele>
        <time>2016-07-14T11:42:05.000Z</time>
      </trkpt>
      <trkpt lat="44.62134" lon="6.17362">
        <ele>1297.1999511719</ele>
        <time>2016-07-14T11:42:11.000Z</time>
      </trkpt>
      <trkpt lat="44.62133" lon="6.17364">
        <ele>1297</ele>
        <time>2016-07-14T11:42:12.000Z</time>
      </trkpt>
      <trkpt lat="44.62133" lon="6.17365">
        <ele>1297</ele>
        <time>2016-07-14T11:42:13.000Z</time>
      </trkpt>
      <trkpt lat="44.62132" lon="6.17373">
        <ele>1295.8000488281</ele>
        <time>2016-07-14T11:42:17.000Z</time>
      </trkpt>
      <trkpt lat="44.62128" lon="6.17387">
        <ele>1294.5999755859</ele>
        <time>2016-07-14T11:42:24.000Z</time>
      </trkpt>
      <trkpt lat="44.62129" lon="6.17402">
        <ele>1293</ele>
        <time>2016-07-14T11:42:33.000Z</time>
      </trkpt>
      <trkpt lat="44.62129" lon="6.17409">
        <ele>1292.4000244141</ele>
        <time>2016-07-14T11:42:38.000Z</time>
      </trkpt>
      <trkpt lat="44.62128" lon="6.17416">
        <ele>1292.1999511719</ele>
        <time>2016-07-14T11:42:55.000Z</time>
      </trkpt>
      <trkpt lat="44.62129" lon="6.17426">
        <ele>1291.1999511719</ele>
        <time>2016-07-14T11:43:02.000Z</time>
      </trkpt>
      <trkpt lat="44.62129" lon="6.17436">
        <ele>1290.1999511719</ele>
        <time>2016-07-14T11:43:08.000Z</time>
      </trkpt>
      <trkpt lat="44.62129" lon="6.1745">
        <ele>1289</ele>
        <time>2016-07-14T11:43:15.000Z</time>
      </trkpt>
      <trkpt lat="44.62131" lon="6.17464">
        <ele>1287.5999755859</ele>
        <time>2016-07-14T11:43:22.000Z</time>
      </trkpt>
      <trkpt lat="44.62132" lon="6.17466">
        <ele>1287.1999511719</ele>
        <time>2016-07-14T11:43:23.000Z</time>
      </trkpt>
      <trkpt lat="44.62135" lon="6.17475">
        <ele>1285.5999755859</ele>
        <time>2016-07-14T11:43:28.000Z</time>
      </trkpt>
      <trkpt lat="44.62143" lon="6.17492">
        <ele>1283.5999755859</ele>
        <time>2016-07-14T11:43:39.000Z</time>
      </trkpt>
      <trkpt lat="44.6215" lon="6.17501">
        <ele>1282.4000244141</ele>
        <time>2016-07-14T11:43:46.000Z</time>
      </trkpt>
      <trkpt lat="44.6215" lon="6.17503">
        <ele>1282.1999511719</ele>
        <time>2016-07-14T11:43:47.000Z</time>
      </trkpt>
      <trkpt lat="44.62158" lon="6.17518">
        <ele>1280.5999755859</ele>
        <time>2016-07-14T11:43:56.000Z</time>
      </trkpt>
      <trkpt lat="44.62166" lon="6.17531">
        <ele>1278.5999755859</ele>
        <time>2016-07-14T11:44:05.000Z</time>
      </trkpt>
      <trkpt lat="44.62169" lon="6.17544">
        <ele>1277.4000244141</ele>
        <time>2016-07-14T11:44:12.000Z</time>
      </trkpt>
      <trkpt lat="44.6217" lon="6.17546">
        <ele>1277.1999511719</ele>
        <time>2016-07-14T11:44:13.000Z</time>
      </trkpt>
      <trkpt lat="44.62166" lon="6.17563">
        <ele>1277</ele>
        <time>2016-07-14T11:44:21.000Z</time>
      </trkpt>
      <trkpt lat="44.62162" lon="6.17574">
        <ele>1278.1999511719</ele>
        <time>2016-07-14T11:44:28.000Z</time>
      </trkpt>
      <trkpt lat="44.62153" lon="6.17596">
        <ele>1280.5999755859</ele>
        <time>2016-07-14T11:44:40.000Z</time>
      </trkpt>
      <trkpt lat="44.62145" lon="6.17611">
        <ele>1281</ele>
        <time>2016-07-14T11:44:49.000Z</time>
      </trkpt>
      <trkpt lat="44.62136" lon="6.17626">
        <ele>1281.5999755859</ele>
        <time>2016-07-14T11:44:58.000Z</time>
      </trkpt>
      <trkpt lat="44.62127" lon="6.17643">
        <ele>1282.1999511719</ele>
        <time>2016-07-14T11:45:08.000Z</time>
      </trkpt>
      <trkpt lat="44.62119" lon="6.17651">
        <ele>1282.5999755859</ele>
        <time>2016-07-14T11:45:15.000Z</time>
      </trkpt>
      <trkpt lat="44.6211" lon="6.17656">
        <ele>1283.1999511719</ele>
        <time>2016-07-14T11:45:22.000Z</time>
      </trkpt>
      <trkpt lat="44.62102" lon="6.17661">
        <ele>1283.5999755859</ele>
        <time>2016-07-14T11:45:28.000Z</time>
      </trkpt>
      <trkpt lat="44.62095" lon="6.17676">
        <ele>1283.4000244141</ele>
        <time>2016-07-14T11:45:37.000Z</time>
      </trkpt>
      <trkpt lat="44.62086" lon="6.17694">
        <ele>1283.1999511719</ele>
        <time>2016-07-14T11:45:48.000Z</time>
      </trkpt>
      <trkpt lat="44.62087" lon="6.17696">
        <ele>1283</ele>
        <time>2016-07-14T11:45:55.000Z</time>
      </trkpt>
      <trkpt lat="44.62091" lon="6.17698">
        <ele>1282.4000244141</ele>
        <time>2016-07-14T11:46:13.000Z</time>
      </trkpt>
      <trkpt lat="44.62102" lon="6.17703">
        <ele>1281</ele>
        <time>2016-07-14T11:46:22.000Z</time>
      </trkpt>
      <trkpt lat="44.62114" lon="6.17718">
        <ele>1279</ele>
        <time>2016-07-14T11:46:33.000Z</time>
      </trkpt>
      <trkpt lat="44.62122" lon="6.17737">
        <ele>1277.8000488281</ele>
        <time>2016-07-14T11:46:44.000Z</time>
      </trkpt>
      <trkpt lat="44.62131" lon="6.17759">
        <ele>1277.1999511719</ele>
        <time>2016-07-14T11:46:56.000Z</time>
      </trkpt>
      <trkpt lat="44.62132" lon="6.17761">
        <ele>1277.1999511719</ele>
        <time>2016-07-14T11:46:57.000Z</time>
      </trkpt>
      <trkpt lat="44.62141" lon="6.17764">
        <ele>1276.8000488281</ele>
        <time>2016-07-14T11:47:04.000Z</time>
      </trkpt>
      <trkpt lat="44.62151" lon="6.17769">
        <ele>1276.4000244141</ele>
        <time>2016-07-14T11:47:12.000Z</time>
      </trkpt>
      <trkpt lat="44.62164" lon="6.17777">
        <ele>1275.8000488281</ele>
        <time>2016-07-14T11:47:22.000Z</time>
      </trkpt>
      <trkpt lat="44.62176" lon="6.17785">
        <ele>1275.1999511719</ele>
        <time>2016-07-14T11:47:31.000Z</time>
      </trkpt>
      <trkpt lat="44.62184" lon="6.17787">
        <ele>1274.8000488281</ele>
        <time>2016-07-14T11:47:39.000Z</time>
      </trkpt>
      <trkpt lat="44.62189" lon="6.17788">
        <ele>1274.4000244141</ele>
        <time>2016-07-14T11:47:49.000Z</time>
      </trkpt>
      <trkpt lat="44.62202" lon="6.17791">
        <ele>1273.5999755859</ele>
        <time>2016-07-14T11:47:58.000Z</time>
      </trkpt>
      <trkpt lat="44.62221" lon="6.17793">
        <ele>1274</ele>
        <time>2016-07-14T11:48:11.000Z</time>
      </trkpt>
      <trkpt lat="44.62233" lon="6.17798">
        <ele>1274.4000244141</ele>
        <time>2016-07-14T11:48:20.000Z</time>
      </trkpt>
      <trkpt lat="44.62235" lon="6.17801">
        <ele>1274.5999755859</ele>
        <time>2016-07-14T11:48:23.000Z</time>
      </trkpt>
      <trkpt lat="44.62239" lon="6.17797">
        <ele>1274.5999755859</ele>
        <time>2016-07-14T11:48:28.000Z</time>
      </trkpt>
      <trkpt lat="44.6224" lon="6.17795">
        <ele>1274.5999755859</ele>
        <time>2016-07-14T11:48:29.000Z</time>
      </trkpt>
      <trkpt lat="44.62241" lon="6.17794">
        <ele>1274.5999755859</ele>
        <time>2016-07-14T11:48:30.000Z</time>
      </trkpt>
      <trkpt lat="44.62242" lon="6.17793">
        <ele>1274.5999755859</ele>
        <time>2016-07-14T11:48:31.000Z</time>
      </trkpt>
      <trkpt lat="44.62259" lon="6.17806">
        <ele>1275.1999511719</ele>
        <time>2016-07-14T11:48:44.000Z</time>
      </trkpt>
      <trkpt lat="44.62273" lon="6.17812">
        <ele>1275.8000488281</ele>
        <time>2016-07-14T11:48:54.000Z</time>
      </trkpt>
      <trkpt lat="44.6229" lon="6.1782">
        <ele>1276.4000244141</ele>
        <time>2016-07-14T11:49:07.000Z</time>
      </trkpt>
      <trkpt lat="44.62302" lon="6.17826">
        <ele>1277.4000244141</ele>
        <time>2016-07-14T11:49:16.000Z</time>
      </trkpt>
      <trkpt lat="44.6231" lon="6.17833">
        <ele>1278</ele>
        <time>2016-07-14T11:49:23.000Z</time>
      </trkpt>
      <trkpt lat="44.62329" lon="6.17834">
        <ele>1279.4000244141</ele>
        <time>2016-07-14T11:49:38.000Z</time>
      </trkpt>
      <trkpt lat="44.62331" lon="6.17834">
        <ele>1279.5999755859</ele>
        <time>2016-07-14T11:49:40.000Z</time>
      </trkpt>
      <trkpt lat="44.62331" lon="6.17838">
        <ele>1279.5999755859</ele>
        <time>2016-07-14T11:49:45.000Z</time>
      </trkpt>
      <trkpt lat="44.62327" lon="6.17853">
        <ele>1279.4000244141</ele>
        <time>2016-07-14T11:49:53.000Z</time>
      </trkpt>
      <trkpt lat="44.62327" lon="6.17872">
        <ele>1280</ele>
        <time>2016-07-14T11:50:02.000Z</time>
      </trkpt>
      <trkpt lat="44.62327" lon="6.1789">
        <ele>1280.4000244141</ele>
        <time>2016-07-14T11:50:10.000Z</time>
      </trkpt>
      <trkpt lat="44.62327" lon="6.17908">
        <ele>1281</ele>
        <time>2016-07-14T11:50:18.000Z</time>
      </trkpt>
      <trkpt lat="44.62327" lon="6.17923">
        <ele>1281.5999755859</ele>
        <time>2016-07-14T11:50:25.000Z</time>
      </trkpt>
      <trkpt lat="44.62329" lon="6.17939">
        <ele>1282.1999511719</ele>
        <time>2016-07-14T11:50:32.000Z</time>
      </trkpt>
      <trkpt lat="44.62328" lon="6.17962">
        <ele>1283.8000488281</ele>
        <time>2016-07-14T11:50:43.000Z</time>
      </trkpt>
      <trkpt lat="44.62319" lon="6.17979">
        <ele>1284.8000488281</ele>
        <time>2016-07-14T11:50:53.000Z</time>
      </trkpt>
      <trkpt lat="44.6231" lon="6.17992">
        <ele>1285.4000244141</ele>
        <time>2016-07-14T11:51:02.000Z</time>
      </trkpt>
      <trkpt lat="44.62302" lon="6.1801">
        <ele>1286.8000488281</ele>
        <time>2016-07-14T11:51:10.000Z</time>
      </trkpt>
      <trkpt lat="44.62301" lon="6.18021">
        <ele>1288</ele>
        <time>2016-07-14T11:51:16.000Z</time>
      </trkpt>
      <trkpt lat="44.62304" lon="6.18031">
        <ele>1288.8000488281</ele>
        <time>2016-07-14T11:51:20.000Z</time>
      </trkpt>
      <trkpt lat="44.62297" lon="6.18051">
        <ele>1290.8000488281</ele>
        <time>2016-07-14T11:51:26.000Z</time>
      </trkpt>
      <trkpt lat="44.62284" lon="6.18068">
        <ele>1292</ele>
        <time>2016-07-14T11:51:33.000Z</time>
      </trkpt>
      <trkpt lat="44.62277" lon="6.18075">
        <ele>1291.4000244141</ele>
        <time>2016-07-14T11:51:38.000Z</time>
      </trkpt>
      <trkpt lat="44.62268" lon="6.18085">
        <ele>1290.8000488281</ele>
        <time>2016-07-14T11:51:43.000Z</time>
      </trkpt>
      <trkpt lat="44.6226" lon="6.18102">
        <ele>1290.4000244141</ele>
        <time>2016-07-14T11:51:49.000Z</time>
      </trkpt>
      <trkpt lat="44.62262" lon="6.18118">
        <ele>1291.1999511719</ele>
        <time>2016-07-14T11:51:54.000Z</time>
      </trkpt>
      <trkpt lat="44.62264" lon="6.18127">
        <ele>1291.8000488281</ele>
        <time>2016-07-14T11:51:58.000Z</time>
      </trkpt>
      <trkpt lat="44.62263" lon="6.18131">
        <ele>1292</ele>
        <time>2016-07-14T11:52:00.000Z</time>
      </trkpt>
      <trkpt lat="44.6226" lon="6.18145">
        <ele>1292.5999755859</ele>
        <time>2016-07-14T11:52:07.000Z</time>
      </trkpt>
      <trkpt lat="44.62252" lon="6.18157">
        <ele>1292.1999511719</ele>
        <time>2016-07-14T11:52:16.000Z</time>
      </trkpt>
      <trkpt lat="44.6224" lon="6.18166">
        <ele>1291.4000244141</ele>
        <time>2016-07-14T11:52:26.000Z</time>
      </trkpt>
      <trkpt lat="44.62232" lon="6.18174">
        <ele>1291</ele>
        <time>2016-07-14T11:52:33.000Z</time>
      </trkpt>
      <trkpt lat="44.62228" lon="6.18186">
        <ele>1291</ele>
        <time>2016-07-14T11:52:40.000Z</time>
      </trkpt>
      <trkpt lat="44.6222" lon="6.18224">
        <ele>1291.5999755859</ele>
        <time>2016-07-14T11:52:59.000Z</time>
      </trkpt>
      <trkpt lat="44.62215" lon="6.18244">
        <ele>1291.5999755859</ele>
        <time>2016-07-14T11:53:09.000Z</time>
      </trkpt>
      <trkpt lat="44.62209" lon="6.18265">
        <ele>1292.5999755859</ele>
        <time>2016-07-14T11:53:20.000Z</time>
      </trkpt>
      <trkpt lat="44.62206" lon="6.18285">
        <ele>1293.5999755859</ele>
        <time>2016-07-14T11:53:30.000Z</time>
      </trkpt>
      <trkpt lat="44.62205" lon="6.18323">
        <ele>1295.1999511719</ele>
        <time>2016-07-14T11:53:48.000Z</time>
      </trkpt>
      <trkpt lat="44.62204" lon="6.18342">
        <ele>1295.4000244141</ele>
        <time>2016-07-14T11:53:57.000Z</time>
      </trkpt>
      <trkpt lat="44.62204" lon="6.18356">
        <ele>1295.5999755859</ele>
        <time>2016-07-14T11:54:04.000Z</time>
      </trkpt>
      <trkpt lat="44.622" lon="6.18374">
        <ele>1295.5999755859</ele>
        <time>2016-07-14T11:54:13.000Z</time>
      </trkpt>
      <trkpt lat="44.62197" lon="6.18386">
        <ele>1295.4000244141</ele>
        <time>2016-07-14T11:54:20.000Z</time>
      </trkpt>
      <trkpt lat="44.62193" lon="6.18405">
        <ele>1295.1999511719</ele>
        <time>2016-07-14T11:54:30.000Z</time>
      </trkpt>
      <trkpt lat="44.62188" lon="6.18425">
        <ele>1295</ele>
        <time>2016-07-14T11:54:40.000Z</time>
      </trkpt>
      <trkpt lat="44.62187" lon="6.18441">
        <ele>1295.1999511719</ele>
        <time>2016-07-14T11:54:48.000Z</time>
      </trkpt>
      <trkpt lat="44.62187" lon="6.18461">
        <ele>1295.4000244141</ele>
        <time>2016-07-14T11:54:58.000Z</time>
      </trkpt>
      <trkpt lat="44.62185" lon="6.18483">
        <ele>1295.5999755859</ele>
        <time>2016-07-14T11:55:08.000Z</time>
      </trkpt>
      <trkpt lat="44.62183" lon="6.18503">
        <ele>1296.4000244141</ele>
        <time>2016-07-14T11:55:18.000Z</time>
      </trkpt>
      <trkpt lat="44.62181" lon="6.18525">
        <ele>1297.1999511719</ele>
        <time>2016-07-14T11:55:29.000Z</time>
      </trkpt>
      <trkpt lat="44.62177" lon="6.18542">
        <ele>1297.5999755859</ele>
        <time>2016-07-14T11:55:38.000Z</time>
      </trkpt>
      <trkpt lat="44.62172" lon="6.18562">
        <ele>1297.8000488281</ele>
        <time>2016-07-14T11:55:48.000Z</time>
      </trkpt>
      <trkpt lat="44.62166" lon="6.18577">
        <ele>1297.4000244141</ele>
        <time>2016-07-14T11:55:56.000Z</time>
      </trkpt>
      <trkpt lat="44.62157" lon="6.18598">
        <ele>1296.5999755859</ele>
        <time>2016-07-14T11:56:07.000Z</time>
      </trkpt>
      <trkpt lat="44.62149" lon="6.18619">
        <ele>1296</ele>
        <time>2016-07-14T11:56:18.000Z</time>
      </trkpt>
      <trkpt lat="44.62145" lon="6.1863">
        <ele>1295.5999755859</ele>
        <time>2016-07-14T11:56:24.000Z</time>
      </trkpt>
      <trkpt lat="44.62139" lon="6.18649">
        <ele>1295.1999511719</ele>
        <time>2016-07-14T11:56:33.000Z</time>
      </trkpt>
      <trkpt lat="44.62139" lon="6.18664">
        <ele>1295.5999755859</ele>
        <time>2016-07-14T11:56:40.000Z</time>
      </trkpt>
      <trkpt lat="44.62142" lon="6.18679">
        <ele>1296.8000488281</ele>
        <time>2016-07-14T11:56:48.000Z</time>
      </trkpt>
      <trkpt lat="44.62145" lon="6.18692">
        <ele>1297.8000488281</ele>
        <time>2016-07-14T11:56:55.000Z</time>
      </trkpt>
      <trkpt lat="44.62145" lon="6.18705">
        <ele>1298.4000244141</ele>
        <time>2016-07-14T11:57:02.000Z</time>
      </trkpt>
      <trkpt lat="44.62144" lon="6.18725">
        <ele>1299.5999755859</ele>
        <time>2016-07-14T11:57:12.000Z</time>
      </trkpt>
      <trkpt lat="44.62145" lon="6.18742">
        <ele>1300.1999511719</ele>
        <time>2016-07-14T11:57:21.000Z</time>
      </trkpt>
      <trkpt lat="44.62152" lon="6.18779">
        <ele>1301.5999755859</ele>
        <time>2016-07-14T11:57:41.000Z</time>
      </trkpt>
      <trkpt lat="44.62153" lon="6.188">
        <ele>1302.1999511719</ele>
        <time>2016-07-14T11:57:52.000Z</time>
      </trkpt>
      <trkpt lat="44.62153" lon="6.18817">
        <ele>1302.5999755859</ele>
        <time>2016-07-14T11:58:01.000Z</time>
      </trkpt>
      <trkpt lat="44.62153" lon="6.18838">
        <ele>1303</ele>
        <time>2016-07-14T11:58:12.000Z</time>
      </trkpt>
      <trkpt lat="44.6215" lon="6.18859">
        <ele>1303</ele>
        <time>2016-07-14T11:58:23.000Z</time>
      </trkpt>
      <trkpt lat="44.62145" lon="6.18879">
        <ele>1302.5999755859</ele>
        <time>2016-07-14T11:58:34.000Z</time>
      </trkpt>
      <trkpt lat="44.62142" lon="6.18893">
        <ele>1302.1999511719</ele>
        <time>2016-07-14T11:58:41.000Z</time>
      </trkpt>
      <trkpt lat="44.62139" lon="6.1891">
        <ele>1302.4000244141</ele>
        <time>2016-07-14T11:58:50.000Z</time>
      </trkpt>
      <trkpt lat="44.62137" lon="6.18924">
        <ele>1302</ele>
        <time>2016-07-14T11:58:57.000Z</time>
      </trkpt>
      <trkpt lat="44.62134" lon="6.18946">
        <ele>1301.4000244141</ele>
        <time>2016-07-14T11:59:08.000Z</time>
      </trkpt>
      <trkpt lat="44.62132" lon="6.18962">
        <ele>1301</ele>
        <time>2016-07-14T11:59:17.000Z</time>
      </trkpt>
      <trkpt lat="44.62131" lon="6.1898">
        <ele>1300.5999755859</ele>
        <time>2016-07-14T11:59:26.000Z</time>
      </trkpt>
      <trkpt lat="44.62128" lon="6.18992">
        <ele>1300.1999511719</ele>
        <time>2016-07-14T11:59:35.000Z</time>
      </trkpt>
      <trkpt lat="44.62128" lon="6.18995">
        <ele>1300.1999511719</ele>
        <time>2016-07-14T11:59:51.000Z</time>
      </trkpt>
      <trkpt lat="44.62127" lon="6.19003">
        <ele>1300.1999511719</ele>
        <time>2016-07-14T12:00:17.000Z</time>
      </trkpt>
      <trkpt lat="44.62125" lon="6.19019">
        <ele>1300.1999511719</ele>
        <time>2016-07-14T12:00:26.000Z</time>
      </trkpt>
      <trkpt lat="44.62124" lon="6.19042">
        <ele>1300.1999511719</ele>
        <time>2016-07-14T12:00:38.000Z</time>
      </trkpt>
      <trkpt lat="44.62122" lon="6.19056">
        <ele>1300.1999511719</ele>
        <time>2016-07-14T12:00:45.000Z</time>
      </trkpt>
      <trkpt lat="44.62119" lon="6.19072">
        <ele>1300.4000244141</ele>
        <time>2016-07-14T12:00:53.000Z</time>
      </trkpt>
      <trkpt lat="44.62119" lon="6.19092">
        <ele>1301.1999511719</ele>
        <time>2016-07-14T12:01:03.000Z</time>
      </trkpt>
      <trkpt lat="44.62121" lon="6.19118">
        <ele>1302.1999511719</ele>
        <time>2016-07-14T12:01:16.000Z</time>
      </trkpt>
      <trkpt lat="44.6212" lon="6.19127">
        <ele>1302.4000244141</ele>
        <time>2016-07-14T12:01:23.000Z</time>
      </trkpt>
      <trkpt lat="44.6212" lon="6.19129">
        <ele>1302.5999755859</ele>
        <time>2016-07-14T12:01:49.000Z</time>
      </trkpt>
      <trkpt lat="44.6212" lon="6.19132">
        <ele>1302.5999755859</ele>
        <time>2016-07-14T12:01:53.000Z</time>
      </trkpt>
      <trkpt lat="44.62119" lon="6.19138">
        <ele>1302.8000488281</ele>
        <time>2016-07-14T12:02:00.000Z</time>
      </trkpt>
      <trkpt lat="44.62118" lon="6.19132">
        <ele>1302.5999755859</ele>
        <time>2016-07-14T12:02:06.000Z</time>
      </trkpt>
      <trkpt lat="44.62119" lon="6.19132">
        <ele>1302.5999755859</ele>
        <time>2016-07-14T12:02:12.000Z</time>
      </trkpt>
      <trkpt lat="44.62119" lon="6.19133">
        <ele>1302.5999755859</ele>
        <time>2016-07-14T12:02:27.000Z</time>
      </trkpt>
      <trkpt lat="44.62119" lon="6.1914">
        <ele>1302.8000488281</ele>
        <time>2016-07-14T12:02:34.000Z</time>
      </trkpt>
      <trkpt lat="44.62119" lon="6.19161">
        <ele>1303.4000244141</ele>
        <time>2016-07-14T12:02:42.000Z</time>
      </trkpt>
      <trkpt lat="44.62116" lon="6.19175">
        <ele>1303.8000488281</ele>
        <time>2016-07-14T12:02:49.000Z</time>
      </trkpt>
      <trkpt lat="44.62115" lon="6.19188">
        <ele>1304</ele>
        <time>2016-07-14T12:02:56.000Z</time>
      </trkpt>
      <trkpt lat="44.62112" lon="6.192">
        <ele>1304.4000244141</ele>
        <time>2016-07-14T12:03:03.000Z</time>
      </trkpt>
      <trkpt lat="44.62109" lon="6.19213">
        <ele>1304.5999755859</ele>
        <time>2016-07-14T12:03:10.000Z</time>
      </trkpt>
      <trkpt lat="44.62106" lon="6.1922">
        <ele>1304.8000488281</ele>
        <time>2016-07-14T12:03:14.000Z</time>
      </trkpt>
      <trkpt lat="44.62101" lon="6.19228">
        <ele>1305</ele>
        <time>2016-07-14T12:03:19.000Z</time>
      </trkpt>
      <trkpt lat="44.62096" lon="6.19238">
        <ele>1305.1999511719</ele>
        <time>2016-07-14T12:03:26.000Z</time>
      </trkpt>
      <trkpt lat="44.62095" lon="6.19241">
        <ele>1305.4000244141</ele>
        <time>2016-07-14T12:03:28.000Z</time>
      </trkpt>
      <trkpt lat="44.62094" lon="6.19249">
        <ele>1305.5999755859</ele>
        <time>2016-07-14T12:03:32.000Z</time>
      </trkpt>
      <trkpt lat="44.62097" lon="6.19263">
        <ele>1305.8000488281</ele>
        <time>2016-07-14T12:03:40.000Z</time>
      </trkpt>
      <trkpt lat="44.621" lon="6.1928">
        <ele>1306.1999511719</ele>
        <time>2016-07-14T12:03:49.000Z</time>
      </trkpt>
      <trkpt lat="44.62102" lon="6.19291">
        <ele>1306.4000244141</ele>
        <time>2016-07-14T12:03:55.000Z</time>
      </trkpt>
      <trkpt lat="44.62101" lon="6.19304">
        <ele>1306.5999755859</ele>
        <time>2016-07-14T12:04:02.000Z</time>
      </trkpt>
      <trkpt lat="44.62099" lon="6.19318">
        <ele>1307</ele>
        <time>2016-07-14T12:04:09.000Z</time>
      </trkpt>
      <trkpt lat="44.62094" lon="6.19333">
        <ele>1307.1999511719</ele>
        <time>2016-07-14T12:04:17.000Z</time>
      </trkpt>
      <trkpt lat="44.62091" lon="6.19343">
        <ele>1307.4000244141</ele>
        <time>2016-07-14T12:04:23.000Z</time>
      </trkpt>
      <trkpt lat="44.62086" lon="6.19356">
        <ele>1307.5999755859</ele>
        <time>2016-07-14T12:04:31.000Z</time>
      </trkpt>
      <trkpt lat="44.62081" lon="6.19365">
        <ele>1307.8000488281</ele>
        <time>2016-07-14T12:04:37.000Z</time>
      </trkpt>
      <trkpt lat="44.6208" lon="6.19366">
        <ele>1307.8000488281</ele>
        <time>2016-07-14T12:04:38.000Z</time>
      </trkpt>
      <trkpt lat="44.62068" lon="6.19376">
        <ele>1308</ele>
        <time>2016-07-14T12:04:48.000Z</time>
      </trkpt>
      <trkpt lat="44.62054" lon="6.19386">
        <ele>1308</ele>
        <time>2016-07-14T12:04:58.000Z</time>
      </trkpt>
      <trkpt lat="44.62045" lon="6.19397">
        <ele>1308.1999511719</ele>
        <time>2016-07-14T12:05:06.000Z</time>
      </trkpt>
      <trkpt lat="44.62039" lon="6.1941">
        <ele>1308.4000244141</ele>
        <time>2016-07-14T12:05:13.000Z</time>
      </trkpt>
      <trkpt lat="44.62039" lon="6.19417">
        <ele>1308.5999755859</ele>
        <time>2016-07-14T12:05:19.000Z</time>
      </trkpt>
      <trkpt lat="44.62037" lon="6.19422">
        <ele>1308.5999755859</ele>
        <time>2016-07-14T12:05:47.000Z</time>
      </trkpt>
      <trkpt lat="44.62033" lon="6.19424">
        <ele>1308.8000488281</ele>
        <time>2016-07-14T12:06:09.000Z</time>
      </trkpt>
      <trkpt lat="44.62021" lon="6.19422">
        <ele>1309.5999755859</ele>
        <time>2016-07-14T12:06:18.000Z</time>
      </trkpt>
      <trkpt lat="44.62008" lon="6.19418">
        <ele>1310.1999511719</ele>
        <time>2016-07-14T12:06:27.000Z</time>
      </trkpt>
      <trkpt lat="44.61998" lon="6.19414">
        <ele>1310.8000488281</ele>
        <time>2016-07-14T12:06:35.000Z</time>
      </trkpt>
      <trkpt lat="44.61979" lon="6.19409">
        <ele>1311.8000488281</ele>
        <time>2016-07-14T12:06:47.000Z</time>
      </trkpt>
      <trkpt lat="44.61966" lon="6.19405">
        <ele>1312.4000244141</ele>
        <time>2016-07-14T12:06:56.000Z</time>
      </trkpt>
      <trkpt lat="44.61954" lon="6.19398">
        <ele>1313</ele>
        <time>2016-07-14T12:07:05.000Z</time>
      </trkpt>
      <trkpt lat="44.61942" lon="6.19389">
        <ele>1313.4000244141</ele>
        <time>2016-07-14T12:07:13.000Z</time>
      </trkpt>
      <trkpt lat="44.61935" lon="6.1938">
        <ele>1313.4000244141</ele>
        <time>2016-07-14T12:07:19.000Z</time>
      </trkpt>
      <trkpt lat="44.61927" lon="6.19372">
        <ele>1313.5999755859</ele>
        <time>2016-07-14T12:07:25.000Z</time>
      </trkpt>
      <trkpt lat="44.61915" lon="6.19365">
        <ele>1314</ele>
        <time>2016-07-14T12:07:34.000Z</time>
      </trkpt>
      <trkpt lat="44.61899" lon="6.19358">
        <ele>1314.5999755859</ele>
        <time>2016-07-14T12:07:45.000Z</time>
      </trkpt>
      <trkpt lat="44.61884" lon="6.1935">
        <ele>1315.1999511719</ele>
        <time>2016-07-14T12:07:56.000Z</time>
      </trkpt>
      <trkpt lat="44.61873" lon="6.19346">
        <ele>1315.5999755859</ele>
        <time>2016-07-14T12:08:04.000Z</time>
      </trkpt>
      <trkpt lat="44.61853" lon="6.19339">
        <ele>1318.1999511719</ele>
        <time>2016-07-14T12:08:18.000Z</time>
      </trkpt>
      <trkpt lat="44.61849" lon="6.19335">
        <ele>1318.5999755859</ele>
        <time>2016-07-14T12:08:22.000Z</time>
      </trkpt>
      <trkpt lat="44.61848" lon="6.19334">
        <ele>1318.8000488281</ele>
        <time>2016-07-14T12:08:31.000Z</time>
      </trkpt>
      <trkpt lat="44.61844" lon="6.1934">
        <ele>1319.5999755859</ele>
        <time>2016-07-14T12:08:40.000Z</time>
      </trkpt>
      <trkpt lat="44.61841" lon="6.19357">
        <ele>1320.4000244141</ele>
        <time>2016-07-14T12:08:49.000Z</time>
      </trkpt>
      <trkpt lat="44.61836" lon="6.19373">
        <ele>1323</ele>
        <time>2016-07-14T12:08:58.000Z</time>
      </trkpt>
      <trkpt lat="44.61831" lon="6.19391">
        <ele>1327.1999511719</ele>
        <time>2016-07-14T12:09:07.000Z</time>
      </trkpt>
      <trkpt lat="44.61824" lon="6.19411">
        <ele>1330</ele>
        <time>2016-07-14T12:09:18.000Z</time>
      </trkpt>
      <trkpt lat="44.61815" lon="6.1943">
        <ele>1332.4000244141</ele>
        <time>2016-07-14T12:09:29.000Z</time>
      </trkpt>
      <trkpt lat="44.61805" lon="6.19444">
        <ele>1333.4000244141</ele>
        <time>2016-07-14T12:09:39.000Z</time>
      </trkpt>
      <trkpt lat="44.618" lon="6.19464">
        <ele>1333</ele>
        <time>2016-07-14T12:09:49.000Z</time>
      </trkpt>
      <trkpt lat="44.61797" lon="6.19485">
        <ele>1332.8000488281</ele>
        <time>2016-07-14T12:09:59.000Z</time>
      </trkpt>
      <trkpt lat="44.61796" lon="6.19507">
        <ele>1332.4000244141</ele>
        <time>2016-07-14T12:10:09.000Z</time>
      </trkpt>
      <trkpt lat="44.61794" lon="6.19514">
        <ele>1332.4000244141</ele>
        <time>2016-07-14T12:10:13.000Z</time>
      </trkpt>
      <trkpt lat="44.6179" lon="6.19515">
        <ele>1333</ele>
        <time>2016-07-14T12:10:19.000Z</time>
      </trkpt>
      <trkpt lat="44.61786" lon="6.19506">
        <ele>1333.8000488281</ele>
        <time>2016-07-14T12:10:25.000Z</time>
      </trkpt>
      <trkpt lat="44.61786" lon="6.19498">
        <ele>1334.1999511719</ele>
        <time>2016-07-14T12:10:29.000Z</time>
      </trkpt>
      <trkpt lat="44.61784" lon="6.19489">
        <ele>1335</ele>
        <time>2016-07-14T12:10:35.000Z</time>
      </trkpt>
      <trkpt lat="44.61776" lon="6.19484">
        <ele>1336.5999755859</ele>
        <time>2016-07-14T12:10:42.000Z</time>
      </trkpt>
      <trkpt lat="44.61768" lon="6.19488">
        <ele>1338.1999511719</ele>
        <time>2016-07-14T12:10:49.000Z</time>
      </trkpt>
      <trkpt lat="44.61758" lon="6.19493">
        <ele>1340</ele>
        <time>2016-07-14T12:10:58.000Z</time>
      </trkpt>
      <trkpt lat="44.61749" lon="6.19497">
        <ele>1341.8000488281</ele>
        <time>2016-07-14T12:11:06.000Z</time>
      </trkpt>
      <trkpt lat="44.6174" lon="6.19492">
        <ele>1343.8000488281</ele>
        <time>2016-07-14T12:11:13.000Z</time>
      </trkpt>
      <trkpt lat="44.61741" lon="6.19483">
        <ele>1343.8000488281</ele>
        <time>2016-07-14T12:11:19.000Z</time>
      </trkpt>
      <trkpt lat="44.61745" lon="6.19472">
        <ele>1343</ele>
        <time>2016-07-14T12:11:27.000Z</time>
      </trkpt>
      <trkpt lat="44.61748" lon="6.19459">
        <ele>1342</ele>
        <time>2016-07-14T12:11:35.000Z</time>
      </trkpt>
      <trkpt lat="44.61748" lon="6.19457">
        <ele>1341.8000488281</ele>
        <time>2016-07-14T12:11:36.000Z</time>
      </trkpt>
      <trkpt lat="44.6174" lon="6.19452">
        <ele>1343.1999511719</ele>
        <time>2016-07-14T12:11:43.000Z</time>
      </trkpt>
      <trkpt lat="44.61731" lon="6.19457">
        <ele>1345.1999511719</ele>
        <time>2016-07-14T12:11:51.000Z</time>
      </trkpt>
      <trkpt lat="44.61722" lon="6.19459">
        <ele>1347.1999511719</ele>
        <time>2016-07-14T12:11:58.000Z</time>
      </trkpt>
      <trkpt lat="44.61712" lon="6.19461">
        <ele>1349.1999511719</ele>
        <time>2016-07-14T12:12:06.000Z</time>
      </trkpt>
      <trkpt lat="44.61698" lon="6.19459">
        <ele>1351.8000488281</ele>
        <time>2016-07-14T12:12:16.000Z</time>
      </trkpt>
      <trkpt lat="44.61684" lon="6.19454">
        <ele>1353.1999511719</ele>
        <time>2016-07-14T12:12:26.000Z</time>
      </trkpt>
      <trkpt lat="44.61676" lon="6.19451">
        <ele>1354.1999511719</ele>
        <time>2016-07-14T12:12:32.000Z</time>
      </trkpt>
      <trkpt lat="44.61666" lon="6.19451">
        <ele>1355.5999755859</ele>
        <time>2016-07-14T12:12:40.000Z</time>
      </trkpt>
      <trkpt lat="44.61658" lon="6.19458">
        <ele>1357</ele>
        <time>2016-07-14T12:12:47.000Z</time>
      </trkpt>
      <trkpt lat="44.61651" lon="6.19467">
        <ele>1358.8000488281</ele>
        <time>2016-07-14T12:12:55.000Z</time>
      </trkpt>
      <trkpt lat="44.61643" lon="6.19474">
        <ele>1360.1999511719</ele>
        <time>2016-07-14T12:13:02.000Z</time>
      </trkpt>
      <trkpt lat="44.61638" lon="6.1948">
        <ele>1361.1999511719</ele>
        <time>2016-07-14T12:13:08.000Z</time>
      </trkpt>
      <trkpt lat="44.61632" lon="6.19491">
        <ele>1361.5999755859</ele>
        <time>2016-07-14T12:13:16.000Z</time>
      </trkpt>
      <trkpt lat="44.61628" lon="6.19494">
        <ele>1362.4000244141</ele>
        <time>2016-07-14T12:13:20.000Z</time>
      </trkpt>
      <trkpt lat="44.61617" lon="6.19498">
        <ele>1364.8000488281</ele>
        <time>2016-07-14T12:13:29.000Z</time>
      </trkpt>
      <trkpt lat="44.61612" lon="6.19502">
        <ele>1365.8000488281</ele>
        <time>2016-07-14T12:13:34.000Z</time>
      </trkpt>
      <trkpt lat="44.61604" lon="6.19505">
        <ele>1367.1999511719</ele>
        <time>2016-07-14T12:13:42.000Z</time>
      </trkpt>
      <trkpt lat="44.61601" lon="6.19508">
        <ele>1367.8000488281</ele>
        <time>2016-07-14T12:13:45.000Z</time>
      </trkpt>
      <trkpt lat="44.61597" lon="6.19512">
        <ele>1368.5999755859</ele>
        <time>2016-07-14T12:13:49.000Z</time>
      </trkpt>
      <trkpt lat="44.61587" lon="6.19519">
        <ele>1370.4000244141</ele>
        <time>2016-07-14T12:13:58.000Z</time>
      </trkpt>
      <trkpt lat="44.61577" lon="6.19525">
        <ele>1372.4000244141</ele>
        <time>2016-07-14T12:14:07.000Z</time>
      </trkpt>
      <trkpt lat="44.61565" lon="6.1953">
        <ele>1374.8000488281</ele>
        <time>2016-07-14T12:14:16.000Z</time>
      </trkpt>
      <trkpt lat="44.61555" lon="6.19533">
        <ele>1376.8000488281</ele>
        <time>2016-07-14T12:14:24.000Z</time>
      </trkpt>
      <trkpt lat="44.61547" lon="6.19536">
        <ele>1378.1999511719</ele>
        <time>2016-07-14T12:14:31.000Z</time>
      </trkpt>
      <trkpt lat="44.61527" lon="6.1953">
        <ele>1381</ele>
        <time>2016-07-14T12:14:46.000Z</time>
      </trkpt>
      <trkpt lat="44.61519" lon="6.19532">
        <ele>1382.1999511719</ele>
        <time>2016-07-14T12:14:53.000Z</time>
      </trkpt>
      <trkpt lat="44.61508" lon="6.19535">
        <ele>1383.5999755859</ele>
        <time>2016-07-14T12:15:01.000Z</time>
      </trkpt>
      <trkpt lat="44.61499" lon="6.19536">
        <ele>1384.8000488281</ele>
        <time>2016-07-14T12:15:08.000Z</time>
      </trkpt>
      <trkpt lat="44.61497" lon="6.19535">
        <ele>1385.1999511719</ele>
        <time>2016-07-14T12:15:14.000Z</time>
      </trkpt>
      <trkpt lat="44.61496" lon="6.19536">
        <ele>1385.4000244141</ele>
        <time>2016-07-14T12:15:25.000Z</time>
      </trkpt>
      <trkpt lat="44.61493" lon="6.19546">
        <ele>1386.5999755859</ele>
        <time>2016-07-14T12:15:32.000Z</time>
      </trkpt>
      <trkpt lat="44.61485" lon="6.19554">
        <ele>1388</ele>
        <time>2016-07-14T12:15:39.000Z</time>
      </trkpt>
      <trkpt lat="44.61479" lon="6.19561">
        <ele>1389.4000244141</ele>
        <time>2016-07-14T12:15:46.000Z</time>
      </trkpt>
      <trkpt lat="44.61474" lon="6.19567">
        <ele>1390.8000488281</ele>
        <time>2016-07-14T12:15:51.000Z</time>
      </trkpt>
      <trkpt lat="44.6147" lon="6.19577">
        <ele>1392.8000488281</ele>
        <time>2016-07-14T12:15:58.000Z</time>
      </trkpt>
      <trkpt lat="44.61461" lon="6.19593">
        <ele>1395.1999511719</ele>
        <time>2016-07-14T12:16:08.000Z</time>
      </trkpt>
      <trkpt lat="44.61452" lon="6.19602">
        <ele>1396.8000488281</ele>
        <time>2016-07-14T12:16:15.000Z</time>
      </trkpt>
      <trkpt lat="44.61451" lon="6.19604">
        <ele>1397.1999511719</ele>
        <time>2016-07-14T12:16:16.000Z</time>
      </trkpt>
      <trkpt lat="44.61444" lon="6.19612">
        <ele>1398.5999755859</ele>
        <time>2016-07-14T12:16:22.000Z</time>
      </trkpt>
      <trkpt lat="44.61434" lon="6.19618">
        <ele>1400.1999511719</ele>
        <time>2016-07-14T12:16:29.000Z</time>
      </trkpt>
      <trkpt lat="44.61422" lon="6.19626">
        <ele>1402.1999511719</ele>
        <time>2016-07-14T12:16:38.000Z</time>
      </trkpt>
      <trkpt lat="44.61417" lon="6.19631">
        <ele>1403</ele>
        <time>2016-07-14T12:16:43.000Z</time>
      </trkpt>
      <trkpt lat="44.61412" lon="6.19635">
        <ele>1403.8000488281</ele>
        <time>2016-07-14T12:16:47.000Z</time>
      </trkpt>
      <trkpt lat="44.61404" lon="6.19645">
        <ele>1405.5999755859</ele>
        <time>2016-07-14T12:16:54.000Z</time>
      </trkpt>
      <trkpt lat="44.61396" lon="6.19654">
        <ele>1407</ele>
        <time>2016-07-14T12:17:01.000Z</time>
      </trkpt>
      <trkpt lat="44.61385" lon="6.19663">
        <ele>1408.8000488281</ele>
        <time>2016-07-14T12:17:09.000Z</time>
      </trkpt>
      <trkpt lat="44.61372" lon="6.19668">
        <ele>1410.5999755859</ele>
        <time>2016-07-14T12:17:18.000Z</time>
      </trkpt>
      <trkpt lat="44.6136" lon="6.19677">
        <ele>1412.8000488281</ele>
        <time>2016-07-14T12:17:27.000Z</time>
      </trkpt>
      <trkpt lat="44.61347" lon="6.19685">
        <ele>1415.4000244141</ele>
        <time>2016-07-14T12:17:38.000Z</time>
      </trkpt>
      <trkpt lat="44.61335" lon="6.19688">
        <ele>1417.4000244141</ele>
        <time>2016-07-14T12:17:46.000Z</time>
      </trkpt>
      <trkpt lat="44.6132" lon="6.19694">
        <ele>1420</ele>
        <time>2016-07-14T12:17:57.000Z</time>
      </trkpt>
      <trkpt lat="44.61311" lon="6.19703">
        <ele>1421.8000488281</ele>
        <time>2016-07-14T12:18:05.000Z</time>
      </trkpt>
      <trkpt lat="44.61304" lon="6.19715">
        <ele>1423.5999755859</ele>
        <time>2016-07-14T12:18:12.000Z</time>
      </trkpt>
      <trkpt lat="44.61296" lon="6.19719">
        <ele>1425</ele>
        <time>2016-07-14T12:18:19.000Z</time>
      </trkpt>
      <trkpt lat="44.61286" lon="6.19717">
        <ele>1426</ele>
        <time>2016-07-14T12:18:26.000Z</time>
      </trkpt>
      <trkpt lat="44.61279" lon="6.19723">
        <ele>1427.5999755859</ele>
        <time>2016-07-14T12:18:32.000Z</time>
      </trkpt>
      <trkpt lat="44.61272" lon="6.19728">
        <ele>1429.4000244141</ele>
        <time>2016-07-14T12:18:38.000Z</time>
      </trkpt>
      <trkpt lat="44.61263" lon="6.19724">
        <ele>1430.5999755859</ele>
        <time>2016-07-14T12:18:44.000Z</time>
      </trkpt>
      <trkpt lat="44.61255" lon="6.19723">
        <ele>1432</ele>
        <time>2016-07-14T12:18:50.000Z</time>
      </trkpt>
      <trkpt lat="44.61254" lon="6.19724">
        <ele>1432.4000244141</ele>
        <time>2016-07-14T12:18:51.000Z</time>
      </trkpt>
      <trkpt lat="44.61239" lon="6.19734">
        <ele>1436.1999511719</ele>
        <time>2016-07-14T12:19:03.000Z</time>
      </trkpt>
      <trkpt lat="44.61229" lon="6.19741">
        <ele>1438.8000488281</ele>
        <time>2016-07-14T12:19:11.000Z</time>
      </trkpt>
      <trkpt lat="44.61221" lon="6.19751">
        <ele>1441.4000244141</ele>
        <time>2016-07-14T12:19:18.000Z</time>
      </trkpt>
      <trkpt lat="44.61216" lon="6.19757">
        <ele>1442.8000488281</ele>
        <time>2016-07-14T12:19:23.000Z</time>
      </trkpt>
      <trkpt lat="44.61208" lon="6.19751">
        <ele>1443.1999511719</ele>
        <time>2016-07-14T12:19:29.000Z</time>
      </trkpt>
      <trkpt lat="44.61203" lon="6.19755">
        <ele>1444.4000244141</ele>
        <time>2016-07-14T12:19:34.000Z</time>
      </trkpt>
      <trkpt lat="44.61202" lon="6.19756">
        <ele>1444.5999755859</ele>
        <time>2016-07-14T12:19:35.000Z</time>
      </trkpt>
      <trkpt lat="44.61197" lon="6.19767">
        <ele>1446.5999755859</ele>
        <time>2016-07-14T12:19:42.000Z</time>
      </trkpt>
      <trkpt lat="44.61192" lon="6.19765">
        <ele>1447.1999511719</ele>
        <time>2016-07-14T12:19:47.000Z</time>
      </trkpt>
      <trkpt lat="44.61191" lon="6.19764">
        <ele>1447.1999511719</ele>
        <time>2016-07-14T12:19:48.000Z</time>
      </trkpt>
      <trkpt lat="44.61184" lon="6.19755">
        <ele>1447.5999755859</ele>
        <time>2016-07-14T12:19:55.000Z</time>
      </trkpt>
      <trkpt lat="44.61176" lon="6.19745">
        <ele>1448</ele>
        <time>2016-07-14T12:20:03.000Z</time>
      </trkpt>
      <trkpt lat="44.61165" lon="6.19742">
        <ele>1449.5999755859</ele>
        <time>2016-07-14T12:20:11.000Z</time>
      </trkpt>
      <trkpt lat="44.61164" lon="6.19742">
        <ele>1449.8000488281</ele>
        <time>2016-07-14T12:20:12.000Z</time>
      </trkpt>
      <trkpt lat="44.61163" lon="6.19745">
        <ele>1450.1999511719</ele>
        <time>2016-07-14T12:20:18.000Z</time>
      </trkpt>
      <trkpt lat="44.61161" lon="6.19745">
        <ele>1450.4000244141</ele>
        <time>2016-07-14T12:20:21.000Z</time>
      </trkpt>
      <trkpt lat="44.6116" lon="6.1975">
        <ele>1451.1999511719</ele>
        <time>2016-07-14T12:20:27.000Z</time>
      </trkpt>
      <trkpt lat="44.61161" lon="6.19746">
        <ele>1450.5999755859</ele>
        <time>2016-07-14T12:20:31.000Z</time>
      </trkpt>
      <trkpt lat="44.61162" lon="6.19744">
        <ele>1450.1999511719</ele>
        <time>2016-07-14T12:20:36.000Z</time>
      </trkpt>
      <trkpt lat="44.61155" lon="6.1975">
        <ele>1452</ele>
        <time>2016-07-14T12:20:42.000Z</time>
      </trkpt>
      <trkpt lat="44.61148" lon="6.1975">
        <ele>1453.1999511719</ele>
        <time>2016-07-14T12:20:49.000Z</time>
      </trkpt>
      <trkpt lat="44.6114" lon="6.19751">
        <ele>1454.5999755859</ele>
        <time>2016-07-14T12:21:18.000Z</time>
      </trkpt>
      <trkpt lat="44.61125" lon="6.19758">
        <ele>1456.5999755859</ele>
        <time>2016-07-14T12:21:29.000Z</time>
      </trkpt>
      <trkpt lat="44.61111" lon="6.19761">
        <ele>1459</ele>
        <time>2016-07-14T12:21:39.000Z</time>
      </trkpt>
      <trkpt lat="44.61102" lon="6.19764">
        <ele>1461</ele>
        <time>2016-07-14T12:21:46.000Z</time>
      </trkpt>
      <trkpt lat="44.6109" lon="6.19774">
        <ele>1463.5999755859</ele>
        <time>2016-07-14T12:21:55.000Z</time>
      </trkpt>
      <trkpt lat="44.61088" lon="6.19775">
        <ele>1464.1999511719</ele>
        <time>2016-07-14T12:21:56.000Z</time>
      </trkpt>
      <trkpt lat="44.61079" lon="6.19768">
        <ele>1465.4000244141</ele>
        <time>2016-07-14T12:22:01.000Z</time>
      </trkpt>
      <trkpt lat="44.61078" lon="6.19767">
        <ele>1465.5999755859</ele>
        <time>2016-07-14T12:22:02.000Z</time>
      </trkpt>
      <trkpt lat="44.61071" lon="6.19755">
        <ele>1466.4000244141</ele>
        <time>2016-07-14T12:22:10.000Z</time>
      </trkpt>
      <trkpt lat="44.6107" lon="6.19754">
        <ele>1466.5999755859</ele>
        <time>2016-07-14T12:22:11.000Z</time>
      </trkpt>
      <trkpt lat="44.61066" lon="6.19754">
        <ele>1467.4000244141</ele>
        <time>2016-07-14T12:22:15.000Z</time>
      </trkpt>
      <trkpt lat="44.61055" lon="6.19761">
        <ele>1470</ele>
        <time>2016-07-14T12:22:23.000Z</time>
      </trkpt>
      <trkpt lat="44.61046" lon="6.19765">
        <ele>1472</ele>
        <time>2016-07-14T12:22:30.000Z</time>
      </trkpt>
      <trkpt lat="44.61038" lon="6.19777">
        <ele>1474.1999511719</ele>
        <time>2016-07-14T12:22:38.000Z</time>
      </trkpt>
      <trkpt lat="44.61037" lon="6.19789">
        <ele>1475.1999511719</ele>
        <time>2016-07-14T12:22:46.000Z</time>
      </trkpt>
      <trkpt lat="44.61035" lon="6.19789">
        <ele>1475.5999755859</ele>
        <time>2016-07-14T12:22:54.000Z</time>
      </trkpt>
      <trkpt lat="44.61023" lon="6.19783">
        <ele>1476.8000488281</ele>
        <time>2016-07-14T12:23:03.000Z</time>
      </trkpt>
      <trkpt lat="44.61011" lon="6.19786">
        <ele>1478.5999755859</ele>
        <time>2016-07-14T12:23:12.000Z</time>
      </trkpt>
      <trkpt lat="44.61" lon="6.19795">
        <ele>1481.5999755859</ele>
        <time>2016-07-14T12:23:21.000Z</time>
      </trkpt>
      <trkpt lat="44.60983" lon="6.198">
        <ele>1485.1999511719</ele>
        <time>2016-07-14T12:23:33.000Z</time>
      </trkpt>
      <trkpt lat="44.60966" lon="6.19812">
        <ele>1489.4000244141</ele>
        <time>2016-07-14T12:23:47.000Z</time>
      </trkpt>
      <trkpt lat="44.60963" lon="6.19826">
        <ele>1490.1999511719</ele>
        <time>2016-07-14T12:23:54.000Z</time>
      </trkpt>
      <trkpt lat="44.60961" lon="6.19829">
        <ele>1491</ele>
        <time>2016-07-14T12:23:56.000Z</time>
      </trkpt>
      <trkpt lat="44.60956" lon="6.1983">
        <ele>1492.1999511719</ele>
        <time>2016-07-14T12:24:00.000Z</time>
      </trkpt>
      <trkpt lat="44.60954" lon="6.19829">
        <ele>1492.8000488281</ele>
        <time>2016-07-14T12:24:02.000Z</time>
      </trkpt>
      <trkpt lat="44.6095" lon="6.19839">
        <ele>1494.1999511719</ele>
        <time>2016-07-14T12:24:08.000Z</time>
      </trkpt>
      <trkpt lat="44.60944" lon="6.19842">
        <ele>1495.5999755859</ele>
        <time>2016-07-14T12:24:13.000Z</time>
      </trkpt>
      <trkpt lat="44.60942" lon="6.1984">
        <ele>1495.8000488281</ele>
        <time>2016-07-14T12:24:15.000Z</time>
      </trkpt>
      <trkpt lat="44.6093" lon="6.19836">
        <ele>1497.5999755859</ele>
        <time>2016-07-14T12:24:24.000Z</time>
      </trkpt>
      <trkpt lat="44.60925" lon="6.19842">
        <ele>1499</ele>
        <time>2016-07-14T12:24:31.000Z</time>
      </trkpt>
      <trkpt lat="44.60921" lon="6.19852">
        <ele>1500.4000244141</ele>
        <time>2016-07-14T12:24:38.000Z</time>
      </trkpt>
      <trkpt lat="44.60911" lon="6.19857">
        <ele>1502.5999755859</ele>
        <time>2016-07-14T12:24:46.000Z</time>
      </trkpt>
      <trkpt lat="44.609" lon="6.19859">
        <ele>1505</ele>
        <time>2016-07-14T12:24:56.000Z</time>
      </trkpt>
      <trkpt lat="44.60892" lon="6.19869">
        <ele>1507.1999511719</ele>
        <time>2016-07-14T12:25:04.000Z</time>
      </trkpt>
      <trkpt lat="44.60884" lon="6.19877">
        <ele>1509.5999755859</ele>
        <time>2016-07-14T12:25:12.000Z</time>
      </trkpt>
      <trkpt lat="44.60875" lon="6.19877">
        <ele>1511.1999511719</ele>
        <time>2016-07-14T12:25:19.000Z</time>
      </trkpt>
      <trkpt lat="44.60864" lon="6.19886">
        <ele>1514.1999511719</ele>
        <time>2016-07-14T12:25:29.000Z</time>
      </trkpt>
      <trkpt lat="44.60857" lon="6.19891">
        <ele>1515.4000244141</ele>
        <time>2016-07-14T12:25:34.000Z</time>
      </trkpt>
      <trkpt lat="44.60844" lon="6.19896">
        <ele>1517</ele>
        <time>2016-07-14T12:25:44.000Z</time>
      </trkpt>
      <trkpt lat="44.60831" lon="6.19905">
        <ele>1519.8000488281</ele>
        <time>2016-07-14T12:25:55.000Z</time>
      </trkpt>
      <trkpt lat="44.60819" lon="6.1991">
        <ele>1521.5999755859</ele>
        <time>2016-07-14T12:26:04.000Z</time>
      </trkpt>
      <trkpt lat="44.6081" lon="6.19912">
        <ele>1523.1999511719</ele>
        <time>2016-07-14T12:26:11.000Z</time>
      </trkpt>
      <trkpt lat="44.60799" lon="6.19913">
        <ele>1524.5999755859</ele>
        <time>2016-07-14T12:26:19.000Z</time>
      </trkpt>
      <trkpt lat="44.60787" lon="6.19916">
        <ele>1526</ele>
        <time>2016-07-14T12:26:27.000Z</time>
      </trkpt>
      <trkpt lat="44.60776" lon="6.19917">
        <ele>1528.4000244141</ele>
        <time>2016-07-14T12:26:35.000Z</time>
      </trkpt>
      <trkpt lat="44.60762" lon="6.19919">
        <ele>1531.5999755859</ele>
        <time>2016-07-14T12:26:45.000Z</time>
      </trkpt>
      <trkpt lat="44.60752" lon="6.19922">
        <ele>1534</ele>
        <time>2016-07-14T12:26:52.000Z</time>
      </trkpt>
      <trkpt lat="44.60742" lon="6.19921">
        <ele>1536.1999511719</ele>
        <time>2016-07-14T12:27:00.000Z</time>
      </trkpt>
      <trkpt lat="44.60734" lon="6.19914">
        <ele>1537</ele>
        <time>2016-07-14T12:27:07.000Z</time>
      </trkpt>
      <trkpt lat="44.60725" lon="6.19911">
        <ele>1538.8000488281</ele>
        <time>2016-07-14T12:27:14.000Z</time>
      </trkpt>
      <trkpt lat="44.60716" lon="6.19907">
        <ele>1540.1999511719</ele>
        <time>2016-07-14T12:27:21.000Z</time>
      </trkpt>
      <trkpt lat="44.60704" lon="6.19906">
        <ele>1542.8000488281</ele>
        <time>2016-07-14T12:27:29.000Z</time>
      </trkpt>
      <trkpt lat="44.60693" lon="6.19905">
        <ele>1545.1999511719</ele>
        <time>2016-07-14T12:27:37.000Z</time>
      </trkpt>
      <trkpt lat="44.60689" lon="6.19902">
        <ele>1545.5999755859</ele>
        <time>2016-07-14T12:27:41.000Z</time>
      </trkpt>
      <trkpt lat="44.60686" lon="6.19902">
        <ele>1546</ele>
        <time>2016-07-14T12:27:43.000Z</time>
      </trkpt>
      <trkpt lat="44.6068" lon="6.19911">
        <ele>1548.5999755859</ele>
        <time>2016-07-14T12:27:50.000Z</time>
      </trkpt>
      <trkpt lat="44.60672" lon="6.19926">
        <ele>1552.1999511719</ele>
        <time>2016-07-14T12:28:00.000Z</time>
      </trkpt>
      <trkpt lat="44.60659" lon="6.19927">
        <ele>1555</ele>
        <time>2016-07-14T12:28:09.000Z</time>
      </trkpt>
      <trkpt lat="44.60649" lon="6.19922">
        <ele>1556.4000244141</ele>
        <time>2016-07-14T12:28:17.000Z</time>
      </trkpt>
      <trkpt lat="44.60641" lon="6.19917">
        <ele>1557.4000244141</ele>
        <time>2016-07-14T12:28:24.000Z</time>
      </trkpt>
      <trkpt lat="44.60634" lon="6.1993">
        <ele>1560.5999755859</ele>
        <time>2016-07-14T12:28:33.000Z</time>
      </trkpt>
      <trkpt lat="44.6063" lon="6.19934">
        <ele>1562.1999511719</ele>
        <time>2016-07-14T12:28:37.000Z</time>
      </trkpt>
      <trkpt lat="44.60628" lon="6.19933">
        <ele>1562.5999755859</ele>
        <time>2016-07-14T12:28:47.000Z</time>
      </trkpt>
      <trkpt lat="44.60624" lon="6.19928">
        <ele>1562.5999755859</ele>
        <time>2016-07-14T12:28:52.000Z</time>
      </trkpt>
      <trkpt lat="44.60617" lon="6.19922">
        <ele>1563.4000244141</ele>
        <time>2016-07-14T12:28:58.000Z</time>
      </trkpt>
      <trkpt lat="44.60609" lon="6.19917">
        <ele>1564.5999755859</ele>
        <time>2016-07-14T12:29:04.000Z</time>
      </trkpt>
      <trkpt lat="44.60606" lon="6.19915">
        <ele>1565</ele>
        <time>2016-07-14T12:29:07.000Z</time>
      </trkpt>
      <trkpt lat="44.60602" lon="6.19921">
        <ele>1567</ele>
        <time>2016-07-14T12:29:12.000Z</time>
      </trkpt>
      <trkpt lat="44.606" lon="6.19923">
        <ele>1567.5999755859</ele>
        <time>2016-07-14T12:29:13.000Z</time>
      </trkpt>
      <trkpt lat="44.60591" lon="6.19929">
        <ele>1571</ele>
        <time>2016-07-14T12:29:19.000Z</time>
      </trkpt>
      <trkpt lat="44.6058" lon="6.19932">
        <ele>1574.1999511719</ele>
        <time>2016-07-14T12:29:28.000Z</time>
      </trkpt>
      <trkpt lat="44.60573" lon="6.19931">
        <ele>1575.8000488281</ele>
        <time>2016-07-14T12:29:32.000Z</time>
      </trkpt>
      <trkpt lat="44.60561" lon="6.19932">
        <ele>1578.8000488281</ele>
        <time>2016-07-14T12:29:41.000Z</time>
      </trkpt>
      <trkpt lat="44.60547" lon="6.19928">
        <ele>1581.8000488281</ele>
        <time>2016-07-14T12:29:52.000Z</time>
      </trkpt>
      <trkpt lat="44.60535" lon="6.19921">
        <ele>1583.8000488281</ele>
        <time>2016-07-14T12:30:01.000Z</time>
      </trkpt>
      <trkpt lat="44.60524" lon="6.1992">
        <ele>1586.1999511719</ele>
        <time>2016-07-14T12:30:10.000Z</time>
      </trkpt>
      <trkpt lat="44.60513" lon="6.19925">
        <ele>1589.5999755859</ele>
        <time>2016-07-14T12:30:19.000Z</time>
      </trkpt>
      <trkpt lat="44.60508" lon="6.19932">
        <ele>1592</ele>
        <time>2016-07-14T12:30:26.000Z</time>
      </trkpt>
      <trkpt lat="44.60507" lon="6.19934">
        <ele>1592.1999511719</ele>
        <time>2016-07-14T12:30:32.000Z</time>
      </trkpt>
      <trkpt lat="44.60505" lon="6.19933">
        <ele>1592.8000488281</ele>
        <time>2016-07-14T12:30:37.000Z</time>
      </trkpt>
      <trkpt lat="44.60505" lon="6.19935">
        <ele>1593</ele>
        <time>2016-07-14T12:30:48.000Z</time>
      </trkpt>
      <trkpt lat="44.60506" lon="6.19936">
        <ele>1592.8000488281</ele>
        <time>2016-07-14T12:30:53.000Z</time>
      </trkpt>
      <trkpt lat="44.60509" lon="6.19939">
        <ele>1592.5999755859</ele>
        <time>2016-07-14T12:31:23.000Z</time>
      </trkpt>
      <trkpt lat="44.6051" lon="6.1994">
        <ele>1592.5999755859</ele>
        <time>2016-07-14T12:31:39.000Z</time>
      </trkpt>
      <trkpt lat="44.60508" lon="6.19939">
        <ele>1593</ele>
        <time>2016-07-14T12:32:28.000Z</time>
      </trkpt>
      <trkpt lat="44.60509" lon="6.19938">
        <ele>1592.4000244141</ele>
        <time>2016-07-14T12:33:48.000Z</time>
      </trkpt>
      <trkpt lat="44.60509" lon="6.19937">
        <ele>1592.4000244141</ele>
        <time>2016-07-14T12:34:19.000Z</time>
      </trkpt>
      <trkpt lat="44.60508" lon="6.19934">
        <ele>1592.1999511719</ele>
        <time>2016-07-14T12:34:46.000Z</time>
      </trkpt>
      <trkpt lat="44.60508" lon="6.19935">
        <ele>1592.1999511719</ele>
        <time>2016-07-14T12:34:52.000Z</time>
      </trkpt>
      <trkpt lat="44.60505" lon="6.19929">
        <ele>1592.1999511719</ele>
        <time>2016-07-14T12:34:57.000Z</time>
      </trkpt>
      <trkpt lat="44.60501" lon="6.19924">
        <ele>1592.4000244141</ele>
        <time>2016-07-14T12:35:01.000Z</time>
      </trkpt>
      <trkpt lat="44.605" lon="6.19923">
        <ele>1592.4000244141</ele>
        <time>2016-07-14T12:35:02.000Z</time>
      </trkpt>
      <trkpt lat="44.60495" lon="6.19913">
        <ele>1592.4000244141</ele>
        <time>2016-07-14T12:35:10.000Z</time>
      </trkpt>
      <trkpt lat="44.60493" lon="6.19913">
        <ele>1592.5999755859</ele>
        <time>2016-07-14T12:35:11.000Z</time>
      </trkpt>
      <trkpt lat="44.60487" lon="6.1991">
        <ele>1593.5999755859</ele>
        <time>2016-07-14T12:35:17.000Z</time>
      </trkpt>
      <trkpt lat="44.60485" lon="6.19909">
        <ele>1594.1999511719</ele>
        <time>2016-07-14T12:35:20.000Z</time>
      </trkpt>
      <trkpt lat="44.60485" lon="6.19902">
        <ele>1593</ele>
        <time>2016-07-14T12:35:26.000Z</time>
      </trkpt>
      <trkpt lat="44.60485" lon="6.19901">
        <ele>1593</ele>
        <time>2016-07-14T12:35:28.000Z</time>
      </trkpt>
      <trkpt lat="44.60482" lon="6.19899">
        <ele>1593.1999511719</ele>
        <time>2016-07-14T12:35:31.000Z</time>
      </trkpt>
      <trkpt lat="44.60476" lon="6.19892">
        <ele>1593.8000488281</ele>
        <time>2016-07-14T12:35:39.000Z</time>
      </trkpt>
      <trkpt lat="44.60469" lon="6.19885">
        <ele>1594.8000488281</ele>
        <time>2016-07-14T12:35:48.000Z</time>
      </trkpt>
      <trkpt lat="44.60463" lon="6.1988">
        <ele>1595.8000488281</ele>
        <time>2016-07-14T12:35:54.000Z</time>
      </trkpt>
      <trkpt lat="44.60461" lon="6.19877">
        <ele>1596</ele>
        <time>2016-07-14T12:35:57.000Z</time>
      </trkpt>
      <trkpt lat="44.60457" lon="6.19868">
        <ele>1596.1999511719</ele>
        <time>2016-07-14T12:36:04.000Z</time>
      </trkpt>
      <trkpt lat="44.60451" lon="6.19864">
        <ele>1597.1999511719</ele>
        <time>2016-07-14T12:36:10.000Z</time>
      </trkpt>
      <trkpt lat="44.60446" lon="6.19864">
        <ele>1598.1999511719</ele>
        <time>2016-07-14T12:36:16.000Z</time>
      </trkpt>
      <trkpt lat="44.60447" lon="6.19861">
        <ele>1597.8000488281</ele>
        <time>2016-07-14T12:36:29.000Z</time>
      </trkpt>
      <trkpt lat="44.60445" lon="6.19856">
        <ele>1597.8000488281</ele>
        <time>2016-07-14T12:36:49.000Z</time>
      </trkpt>
      <trkpt lat="44.60444" lon="6.19854">
        <ele>1597.8000488281</ele>
        <time>2016-07-14T12:36:54.000Z</time>
      </trkpt>
      <trkpt lat="44.60445" lon="6.19851">
        <ele>1597.1999511719</ele>
        <time>2016-07-14T12:37:07.000Z</time>
      </trkpt>
      <trkpt lat="44.60446" lon="6.1985">
        <ele>1597</ele>
        <time>2016-07-14T12:37:15.000Z</time>
      </trkpt>
      <trkpt lat="44.60442" lon="6.19853">
        <ele>1598</ele>
        <time>2016-07-14T12:37:20.000Z</time>
      </trkpt>
      <trkpt lat="44.60435" lon="6.19855">
        <ele>1599.8000488281</ele>
        <time>2016-07-14T12:37:26.000Z</time>
      </trkpt>
      <trkpt lat="44.6042" lon="6.19856">
        <ele>1603</ele>
        <time>2016-07-14T12:37:36.000Z</time>
      </trkpt>
      <trkpt lat="44.6041" lon="6.19853">
        <ele>1605</ele>
        <time>2016-07-14T12:37:44.000Z</time>
      </trkpt>
      <trkpt lat="44.60402" lon="6.19846">
        <ele>1606</ele>
        <time>2016-07-14T12:37:51.000Z</time>
      </trkpt>
      <trkpt lat="44.60393" lon="6.19846">
        <ele>1607.8000488281</ele>
        <time>2016-07-14T12:37:58.000Z</time>
      </trkpt>
      <trkpt lat="44.60384" lon="6.19852">
        <ele>1610</ele>
        <time>2016-07-14T12:38:05.000Z</time>
      </trkpt>
      <trkpt lat="44.6038" lon="6.19853">
        <ele>1610.8000488281</ele>
        <time>2016-07-14T12:38:08.000Z</time>
      </trkpt>
      <trkpt lat="44.60368" lon="6.19859">
        <ele>1613.4000244141</ele>
        <time>2016-07-14T12:38:17.000Z</time>
      </trkpt>
      <trkpt lat="44.6036" lon="6.19856">
        <ele>1617</ele>
        <time>2016-07-14T12:38:24.000Z</time>
      </trkpt>
      <trkpt lat="44.60346" lon="6.19847">
        <ele>1622.1999511719</ele>
        <time>2016-07-14T12:38:34.000Z</time>
      </trkpt>
      <trkpt lat="44.6034" lon="6.19842">
        <ele>1624.5999755859</ele>
        <time>2016-07-14T12:38:40.000Z</time>
      </trkpt>
      <trkpt lat="44.60335" lon="6.19831">
        <ele>1625.5999755859</ele>
        <time>2016-07-14T12:38:47.000Z</time>
      </trkpt>
      <trkpt lat="44.60335" lon="6.19829">
        <ele>1625.8000488281</ele>
        <time>2016-07-14T12:38:48.000Z</time>
      </trkpt>
      <trkpt lat="44.60332" lon="6.19819">
        <ele>1626.4000244141</ele>
        <time>2016-07-14T12:38:54.000Z</time>
      </trkpt>
      <trkpt lat="44.60328" lon="6.19802">
        <ele>1628.1999511719</ele>
        <time>2016-07-14T12:39:03.000Z</time>
      </trkpt>
      <trkpt lat="44.60332" lon="6.1979">
        <ele>1627.8000488281</ele>
        <time>2016-07-14T12:39:09.000Z</time>
      </trkpt>
      <trkpt lat="44.60341" lon="6.19785">
        <ele>1624.5999755859</ele>
        <time>2016-07-14T12:39:15.000Z</time>
      </trkpt>
      <trkpt lat="44.60348" lon="6.19775">
        <ele>1621.5999755859</ele>
        <time>2016-07-14T12:39:22.000Z</time>
      </trkpt>
      <trkpt lat="44.60357" lon="6.19765">
        <ele>1617.5999755859</ele>
        <time>2016-07-14T12:39:30.000Z</time>
      </trkpt>
      <trkpt lat="44.60364" lon="6.19756">
        <ele>1614.5999755859</ele>
        <time>2016-07-14T12:39:37.000Z</time>
      </trkpt>
      <trkpt lat="44.60365" lon="6.19755">
        <ele>1614.1999511719</ele>
        <time>2016-07-14T12:39:38.000Z</time>
      </trkpt>
      <trkpt lat="44.60368" lon="6.19752">
        <ele>1612.8000488281</ele>
        <time>2016-07-14T12:39:43.000Z</time>
      </trkpt>
      <trkpt lat="44.60373" lon="6.19745">
        <ele>1612.1999511719</ele>
        <time>2016-07-14T12:39:50.000Z</time>
      </trkpt>
      <trkpt lat="44.60378" lon="6.19735">
        <ele>1611.4000244141</ele>
        <time>2016-07-14T12:39:56.000Z</time>
      </trkpt>
      <trkpt lat="44.6038" lon="6.19723">
        <ele>1611.4000244141</ele>
        <time>2016-07-14T12:40:03.000Z</time>
      </trkpt>
      <trkpt lat="44.60381" lon="6.19717">
        <ele>1611.8000488281</ele>
        <time>2016-07-14T12:40:07.000Z</time>
      </trkpt>
      <trkpt lat="44.60383" lon="6.19704">
        <ele>1612.5999755859</ele>
        <time>2016-07-14T12:40:13.000Z</time>
      </trkpt>
      <trkpt lat="44.60384" lon="6.19697">
        <ele>1612.8000488281</ele>
        <time>2016-07-14T12:40:16.000Z</time>
      </trkpt>
      <trkpt lat="44.60387" lon="6.19684">
        <ele>1613.1999511719</ele>
        <time>2016-07-14T12:40:22.000Z</time>
      </trkpt>
      <trkpt lat="44.60389" lon="6.19671">
        <ele>1614.1999511719</ele>
        <time>2016-07-14T12:40:28.000Z</time>
      </trkpt>
      <trkpt lat="44.60387" lon="6.19661">
        <ele>1615.1999511719</ele>
        <time>2016-07-14T12:40:34.000Z</time>
      </trkpt>
      <trkpt lat="44.60387" lon="6.19659">
        <ele>1615.1999511719</ele>
        <time>2016-07-14T12:40:35.000Z</time>
      </trkpt>
      <trkpt lat="44.60384" lon="6.19647">
        <ele>1616.4000244141</ele>
        <time>2016-07-14T12:40:42.000Z</time>
      </trkpt>
      <trkpt lat="44.60382" lon="6.19635">
        <ele>1616.8000488281</ele>
        <time>2016-07-14T12:40:50.000Z</time>
      </trkpt>
      <trkpt lat="44.60382" lon="6.19634">
        <ele>1616.8000488281</ele>
        <time>2016-07-14T12:40:51.000Z</time>
      </trkpt>
      <trkpt lat="44.60386" lon="6.19624">
        <ele>1615.4000244141</ele>
        <time>2016-07-14T12:40:56.000Z</time>
      </trkpt>
      <trkpt lat="44.60387" lon="6.19619">
        <ele>1615</ele>
        <time>2016-07-14T12:40:59.000Z</time>
      </trkpt>
      <trkpt lat="44.60386" lon="6.19617">
        <ele>1615.4000244141</ele>
        <time>2016-07-14T12:41:09.000Z</time>
      </trkpt>
      <trkpt lat="44.60385" lon="6.1961">
        <ele>1615.5999755859</ele>
        <time>2016-07-14T12:41:22.000Z</time>
      </trkpt>
      <trkpt lat="44.60384" lon="6.19596">
        <ele>1615.8000488281</ele>
        <time>2016-07-14T12:41:29.000Z</time>
      </trkpt>
      <trkpt lat="44.60385" lon="6.19592">
        <ele>1615.1999511719</ele>
        <time>2016-07-14T12:41:33.000Z</time>
      </trkpt>
      <trkpt lat="44.60384" lon="6.19597">
        <ele>1615.5999755859</ele>
        <time>2016-07-14T12:41:41.000Z</time>
      </trkpt>
      <trkpt lat="44.60384" lon="6.19599">
        <ele>1615.8000488281</ele>
        <time>2016-07-14T12:41:43.000Z</time>
      </trkpt>
      <trkpt lat="44.60386" lon="6.19608">
        <ele>1615.1999511719</ele>
        <time>2016-07-14T12:41:49.000Z</time>
      </trkpt>
      <trkpt lat="44.60386" lon="6.19611">
        <ele>1615.1999511719</ele>
        <time>2016-07-14T12:41:51.000Z</time>
      </trkpt>
      <trkpt lat="44.60385" lon="6.19603">
        <ele>1615.5999755859</ele>
        <time>2016-07-14T12:42:07.000Z</time>
      </trkpt>
      <trkpt lat="44.60385" lon="6.19602">
        <ele>1615.5999755859</ele>
        <time>2016-07-14T12:42:08.000Z</time>
      </trkpt>
      <trkpt lat="44.60387" lon="6.19595">
        <ele>1614.8000488281</ele>
        <time>2016-07-14T12:42:12.000Z</time>
      </trkpt>
      <trkpt lat="44.60388" lon="6.19593">
        <ele>1614.5999755859</ele>
        <time>2016-07-14T12:42:14.000Z</time>
      </trkpt>
      <trkpt lat="44.60394" lon="6.19587">
        <ele>1612</ele>
        <time>2016-07-14T12:42:21.000Z</time>
      </trkpt>
      <trkpt lat="44.60397" lon="6.19583">
        <ele>1611.5999755859</ele>
        <time>2016-07-14T12:42:25.000Z</time>
      </trkpt>
      <trkpt lat="44.60407" lon="6.19578">
        <ele>1609.5999755859</ele>
        <time>2016-07-14T12:42:34.000Z</time>
      </trkpt>
      <trkpt lat="44.60415" lon="6.1957">
        <ele>1608.1999511719</ele>
        <time>2016-07-14T12:42:43.000Z</time>
      </trkpt>
      <trkpt lat="44.60422" lon="6.19556">
        <ele>1606.5999755859</ele>
        <time>2016-07-14T12:42:53.000Z</time>
      </trkpt>
      <trkpt lat="44.60424" lon="6.19546">
        <ele>1605.5999755859</ele>
        <time>2016-07-14T12:43:00.000Z</time>
      </trkpt>
      <trkpt lat="44.60424" lon="6.19542">
        <ele>1605.4000244141</ele>
        <time>2016-07-14T12:43:03.000Z</time>
      </trkpt>
      <trkpt lat="44.60424" lon="6.1953">
        <ele>1605.1999511719</ele>
        <time>2016-07-14T12:43:10.000Z</time>
      </trkpt>
      <trkpt lat="44.60425" lon="6.19516">
        <ele>1605.5999755859</ele>
        <time>2016-07-14T12:43:18.000Z</time>
      </trkpt>
      <trkpt lat="44.60426" lon="6.19509">
        <ele>1605.8000488281</ele>
        <time>2016-07-14T12:43:23.000Z</time>
      </trkpt>
      <trkpt lat="44.60425" lon="6.19504">
        <ele>1606.4000244141</ele>
        <time>2016-07-14T12:43:27.000Z</time>
      </trkpt>
      <trkpt lat="44.60424" lon="6.19499">
        <ele>1606.5999755859</ele>
        <time>2016-07-14T12:43:33.000Z</time>
      </trkpt>
      <trkpt lat="44.60425" lon="6.19499">
        <ele>1606.4000244141</ele>
        <time>2016-07-14T12:43:42.000Z</time>
      </trkpt>
      <trkpt lat="44.60428" lon="6.19491">
        <ele>1606.4000244141</ele>
        <time>2016-07-14T12:43:48.000Z</time>
      </trkpt>
      <trkpt lat="44.60429" lon="6.19488">
        <ele>1606.4000244141</ele>
        <time>2016-07-14T12:43:50.000Z</time>
      </trkpt>
      <trkpt lat="44.6043" lon="6.19477">
        <ele>1606.5999755859</ele>
        <time>2016-07-14T12:43:56.000Z</time>
      </trkpt>
      <trkpt lat="44.6043" lon="6.19474">
        <ele>1606.4000244141</ele>
        <time>2016-07-14T12:43:57.000Z</time>
      </trkpt>
      <trkpt lat="44.60434" lon="6.19458">
        <ele>1604.5999755859</ele>
        <time>2016-07-14T12:44:05.000Z</time>
      </trkpt>
      <trkpt lat="44.6044" lon="6.19446">
        <ele>1604.1999511719</ele>
        <time>2016-07-14T12:44:12.000Z</time>
      </trkpt>
      <trkpt lat="44.60439" lon="6.19434">
        <ele>1604.1999511719</ele>
        <time>2016-07-14T12:44:18.000Z</time>
      </trkpt>
      <trkpt lat="44.60439" lon="6.19432">
        <ele>1604.1999511719</ele>
        <time>2016-07-14T12:44:19.000Z</time>
      </trkpt>
      <trkpt lat="44.60438" lon="6.19422">
        <ele>1604.1999511719</ele>
        <time>2016-07-14T12:44:25.000Z</time>
      </trkpt>
      <trkpt lat="44.60438" lon="6.19421">
        <ele>1604.4000244141</ele>
        <time>2016-07-14T12:44:26.000Z</time>
      </trkpt>
      <trkpt lat="44.60431" lon="6.19407">
        <ele>1605</ele>
        <time>2016-07-14T12:44:36.000Z</time>
      </trkpt>
      <trkpt lat="44.60431" lon="6.19404">
        <ele>1605</ele>
        <time>2016-07-14T12:44:38.000Z</time>
      </trkpt>
      <trkpt lat="44.60425" lon="6.19393">
        <ele>1605.4000244141</ele>
        <time>2016-07-14T12:44:45.000Z</time>
      </trkpt>
      <trkpt lat="44.60416" lon="6.19387">
        <ele>1606</ele>
        <time>2016-07-14T12:44:52.000Z</time>
      </trkpt>
      <trkpt lat="44.60412" lon="6.19388">
        <ele>1606.4000244141</ele>
        <time>2016-07-14T12:44:55.000Z</time>
      </trkpt>
      <trkpt lat="44.60402" lon="6.19379">
        <ele>1607</ele>
        <time>2016-07-14T12:45:02.000Z</time>
      </trkpt>
      <trkpt lat="44.60392" lon="6.19371">
        <ele>1607.5999755859</ele>
        <time>2016-07-14T12:45:09.000Z</time>
      </trkpt>
      <trkpt lat="44.60381" lon="6.19364">
        <ele>1608.4000244141</ele>
        <time>2016-07-14T12:45:17.000Z</time>
      </trkpt>
      <trkpt lat="44.6038" lon="6.19363">
        <ele>1608.4000244141</ele>
        <time>2016-07-14T12:45:18.000Z</time>
      </trkpt>
      <trkpt lat="44.60367" lon="6.19357">
        <ele>1609</ele>
        <time>2016-07-14T12:45:27.000Z</time>
      </trkpt>
      <trkpt lat="44.60349" lon="6.19354">
        <ele>1608.1999511719</ele>
        <time>2016-07-14T12:45:38.000Z</time>
      </trkpt>
      <trkpt lat="44.60341" lon="6.19345">
        <ele>1607.1999511719</ele>
        <time>2016-07-14T12:45:45.000Z</time>
      </trkpt>
      <trkpt lat="44.60335" lon="6.1933">
        <ele>1606.4000244141</ele>
        <time>2016-07-14T12:45:53.000Z</time>
      </trkpt>
      <trkpt lat="44.60334" lon="6.19315">
        <ele>1605.5999755859</ele>
        <time>2016-07-14T12:46:02.000Z</time>
      </trkpt>
      <trkpt lat="44.60334" lon="6.19305">
        <ele>1605.1999511719</ele>
        <time>2016-07-14T12:46:08.000Z</time>
      </trkpt>
      <trkpt lat="44.60333" lon="6.19294">
        <ele>1605</ele>
        <time>2016-07-14T12:46:15.000Z</time>
      </trkpt>
      <trkpt lat="44.60332" lon="6.19288">
        <ele>1605</ele>
        <time>2016-07-14T12:46:18.000Z</time>
      </trkpt>
      <trkpt lat="44.60327" lon="6.19277">
        <ele>1604.5999755859</ele>
        <time>2016-07-14T12:46:24.000Z</time>
      </trkpt>
      <trkpt lat="44.60324" lon="6.19272">
        <ele>1604.4000244141</ele>
        <time>2016-07-14T12:46:27.000Z</time>
      </trkpt>
      <trkpt lat="44.60313" lon="6.19261">
        <ele>1603.8000488281</ele>
        <time>2016-07-14T12:46:34.000Z</time>
      </trkpt>
      <trkpt lat="44.603" lon="6.19261">
        <ele>1603</ele>
        <time>2016-07-14T12:46:43.000Z</time>
      </trkpt>
      <trkpt lat="44.60288" lon="6.19267">
        <ele>1602.5999755859</ele>
        <time>2016-07-14T12:46:52.000Z</time>
      </trkpt>
      <trkpt lat="44.60278" lon="6.19272">
        <ele>1601.4000244141</ele>
        <time>2016-07-14T12:47:00.000Z</time>
      </trkpt>
      <trkpt lat="44.60271" lon="6.19274">
        <ele>1600.1999511719</ele>
        <time>2016-07-14T12:47:06.000Z</time>
      </trkpt>
      <trkpt lat="44.60264" lon="6.19277">
        <ele>1599.1999511719</ele>
        <time>2016-07-14T12:47:13.000Z</time>
      </trkpt>
      <trkpt lat="44.60254" lon="6.1928">
        <ele>1597.8000488281</ele>
        <time>2016-07-14T12:47:20.000Z</time>
      </trkpt>
      <trkpt lat="44.60246" lon="6.19287">
        <ele>1596.1999511719</ele>
        <time>2016-07-14T12:47:28.000Z</time>
      </trkpt>
      <trkpt lat="44.6024" lon="6.19302">
        <ele>1595</ele>
        <time>2016-07-14T12:47:35.000Z</time>
      </trkpt>
      <trkpt lat="44.60232" lon="6.19321">
        <ele>1594.1999511719</ele>
        <time>2016-07-14T12:47:43.000Z</time>
      </trkpt>
      <trkpt lat="44.60224" lon="6.19338">
        <ele>1594.1999511719</ele>
        <time>2016-07-14T12:47:50.000Z</time>
      </trkpt>
      <trkpt lat="44.60218" lon="6.19343">
        <ele>1593.1999511719</ele>
        <time>2016-07-14T12:47:56.000Z</time>
      </trkpt>
      <trkpt lat="44.60216" lon="6.19343">
        <ele>1592.8000488281</ele>
        <time>2016-07-14T12:48:03.000Z</time>
      </trkpt>
      <trkpt lat="44.60215" lon="6.19345">
        <ele>1592.8000488281</ele>
        <time>2016-07-14T12:48:14.000Z</time>
      </trkpt>
      <trkpt lat="44.60209" lon="6.19368">
        <ele>1592.8000488281</ele>
        <time>2016-07-14T12:48:26.000Z</time>
      </trkpt>
      <trkpt lat="44.60208" lon="6.1937">
        <ele>1592.8000488281</ele>
        <time>2016-07-14T12:48:28.000Z</time>
      </trkpt>
      <trkpt lat="44.602" lon="6.19364">
        <ele>1590.8000488281</ele>
        <time>2016-07-14T12:48:36.000Z</time>
      </trkpt>
      <trkpt lat="44.60194" lon="6.19358">
        <ele>1589.1999511719</ele>
        <time>2016-07-14T12:48:41.000Z</time>
      </trkpt>
      <trkpt lat="44.60188" lon="6.19345">
        <ele>1587.4000244141</ele>
        <time>2016-07-14T12:48:47.000Z</time>
      </trkpt>
      <trkpt lat="44.60183" lon="6.19332">
        <ele>1585.5999755859</ele>
        <time>2016-07-14T12:48:53.000Z</time>
      </trkpt>
      <trkpt lat="44.60178" lon="6.19319">
        <ele>1583.8000488281</ele>
        <time>2016-07-14T12:49:00.000Z</time>
      </trkpt>
      <trkpt lat="44.60175" lon="6.19298">
        <ele>1582.5999755859</ele>
        <time>2016-07-14T12:49:10.000Z</time>
      </trkpt>
      <trkpt lat="44.60172" lon="6.19286">
        <ele>1582</ele>
        <time>2016-07-14T12:49:16.000Z</time>
      </trkpt>
      <trkpt lat="44.60175" lon="6.19276">
        <ele>1582.5999755859</ele>
        <time>2016-07-14T12:49:21.000Z</time>
      </trkpt>
      <trkpt lat="44.60171" lon="6.19267">
        <ele>1581.8000488281</ele>
        <time>2016-07-14T12:49:25.000Z</time>
      </trkpt>
      <trkpt lat="44.60169" lon="6.19265">
        <ele>1581.5999755859</ele>
        <time>2016-07-14T12:49:26.000Z</time>
      </trkpt>
      <trkpt lat="44.60165" lon="6.19262">
        <ele>1580.8000488281</ele>
        <time>2016-07-14T12:49:29.000Z</time>
      </trkpt>
      <trkpt lat="44.60135" lon="6.19259">
        <ele>1574.5999755859</ele>
        <time>2016-07-14T12:49:48.000Z</time>
      </trkpt>
      <trkpt lat="44.60124" lon="6.19252">
        <ele>1572.4000244141</ele>
        <time>2016-07-14T12:49:56.000Z</time>
      </trkpt>
      <trkpt lat="44.6012" lon="6.19249">
        <ele>1571.5999755859</ele>
        <time>2016-07-14T12:50:02.000Z</time>
      </trkpt>
      <trkpt lat="44.60119" lon="6.19251">
        <ele>1571.4000244141</ele>
        <time>2016-07-14T12:50:10.000Z</time>
      </trkpt>
      <trkpt lat="44.60118" lon="6.19247">
        <ele>1571.1999511719</ele>
        <time>2016-07-14T12:50:48.000Z</time>
      </trkpt>
      <trkpt lat="44.60118" lon="6.1925">
        <ele>1571.1999511719</ele>
        <time>2016-07-14T12:51:10.000Z</time>
      </trkpt>
      <trkpt lat="44.6012" lon="6.19253">
        <ele>1571.5999755859</ele>
        <time>2016-07-14T12:51:21.000Z</time>
      </trkpt>
      <trkpt lat="44.60118" lon="6.19249">
        <ele>1571.1999511719</ele>
        <time>2016-07-14T12:51:32.000Z</time>
      </trkpt>
      <trkpt lat="44.60119" lon="6.19249">
        <ele>1571.4000244141</ele>
        <time>2016-07-14T12:51:52.000Z</time>
      </trkpt>
      <trkpt lat="44.60118" lon="6.1925">
        <ele>1571.1999511719</ele>
        <time>2016-07-14T12:51:59.000Z</time>
      </trkpt>
      <trkpt lat="44.60119" lon="6.19249">
        <ele>1571.4000244141</ele>
        <time>2016-07-14T12:52:27.000Z</time>
      </trkpt>
      <trkpt lat="44.60119" lon="6.1925">
        <ele>1571.4000244141</ele>
        <time>2016-07-14T12:52:38.000Z</time>
      </trkpt>
      <trkpt lat="44.60117" lon="6.19251">
        <ele>1570.8000488281</ele>
        <time>2016-07-14T12:53:07.000Z</time>
      </trkpt>
      <trkpt lat="44.60123" lon="6.19255">
        <ele>1572.1999511719</ele>
        <time>2016-07-14T12:53:13.000Z</time>
      </trkpt>
      <trkpt lat="44.60136" lon="6.1926">
        <ele>1574.8000488281</ele>
        <time>2016-07-14T12:53:22.000Z</time>
      </trkpt>
      <trkpt lat="44.60139" lon="6.19262">
        <ele>1575.4000244141</ele>
        <time>2016-07-14T12:53:25.000Z</time>
      </trkpt>
      <trkpt lat="44.6015" lon="6.1926">
        <ele>1577.5999755859</ele>
        <time>2016-07-14T12:53:33.000Z</time>
      </trkpt>
      <trkpt lat="44.60152" lon="6.1926">
        <ele>1577.8000488281</ele>
        <time>2016-07-14T12:53:34.000Z</time>
      </trkpt>
      <trkpt lat="44.60167" lon="6.19264">
        <ele>1581</ele>
        <time>2016-07-14T12:53:45.000Z</time>
      </trkpt>
      <trkpt lat="44.60172" lon="6.19273">
        <ele>1582</ele>
        <time>2016-07-14T12:53:50.000Z</time>
      </trkpt>
      <trkpt lat="44.6017" lon="6.1929">
        <ele>1581.5999755859</ele>
        <time>2016-07-14T12:53:56.000Z</time>
      </trkpt>
      <trkpt lat="44.60171" lon="6.19294">
        <ele>1581.8000488281</ele>
        <time>2016-07-14T12:53:57.000Z</time>
      </trkpt>
      <trkpt lat="44.6018" lon="6.19323">
        <ele>1584.4000244141</ele>
        <time>2016-07-14T12:54:06.000Z</time>
      </trkpt>
      <trkpt lat="44.60181" lon="6.19324">
        <ele>1584.8000488281</ele>
        <time>2016-07-14T12:54:07.000Z</time>
      </trkpt>
      <trkpt lat="44.60188" lon="6.19329">
        <ele>1586.4000244141</ele>
        <time>2016-07-14T12:54:13.000Z</time>
      </trkpt>
      <trkpt lat="44.60189" lon="6.19331">
        <ele>1586.8000488281</ele>
        <time>2016-07-14T12:54:14.000Z</time>
      </trkpt>
      <trkpt lat="44.60192" lon="6.19334">
        <ele>1587.4000244141</ele>
        <time>2016-07-14T12:54:16.000Z</time>
      </trkpt>
      <trkpt lat="44.60194" lon="6.19346">
        <ele>1588.5999755859</ele>
        <time>2016-07-14T12:54:22.000Z</time>
      </trkpt>
      <trkpt lat="44.60201" lon="6.19365">
        <ele>1591</ele>
        <time>2016-07-14T12:54:32.000Z</time>
      </trkpt>
      <trkpt lat="44.60203" lon="6.19371">
        <ele>1592</ele>
        <time>2016-07-14T12:54:35.000Z</time>
      </trkpt>
      <trkpt lat="44.60207" lon="6.19368">
        <ele>1592.5999755859</ele>
        <time>2016-07-14T12:54:40.000Z</time>
      </trkpt>
      <trkpt lat="44.60208" lon="6.19367">
        <ele>1592.5999755859</ele>
        <time>2016-07-14T12:54:41.000Z</time>
      </trkpt>
      <trkpt lat="44.60213" lon="6.19353">
        <ele>1592.8000488281</ele>
        <time>2016-07-14T12:54:49.000Z</time>
      </trkpt>
      <trkpt lat="44.60217" lon="6.19346">
        <ele>1593.1999511719</ele>
        <time>2016-07-14T12:54:55.000Z</time>
      </trkpt>
      <trkpt lat="44.60217" lon="6.19339">
        <ele>1592.8000488281</ele>
        <time>2016-07-14T12:55:15.000Z</time>
      </trkpt>
      <trkpt lat="44.60222" lon="6.19325">
        <ele>1592.8000488281</ele>
        <time>2016-07-14T12:55:21.000Z</time>
      </trkpt>
      <trkpt lat="44.60232" lon="6.19312">
        <ele>1593.4000244141</ele>
        <time>2016-07-14T12:55:25.000Z</time>
      </trkpt>
      <trkpt lat="44.60245" lon="6.19294">
        <ele>1596</ele>
        <time>2016-07-14T12:55:31.000Z</time>
      </trkpt>
      <trkpt lat="44.60264" lon="6.1927">
        <ele>1599.1999511719</ele>
        <time>2016-07-14T12:55:45.000Z</time>
      </trkpt>
      <trkpt lat="44.60271" lon="6.19269">
        <ele>1600.4000244141</ele>
        <time>2016-07-14T12:55:52.000Z</time>
      </trkpt>
      <trkpt lat="44.60271" lon="6.19262">
        <ele>1600.1999511719</ele>
        <time>2016-07-14T12:55:56.000Z</time>
      </trkpt>
      <trkpt lat="44.60271" lon="6.19254">
        <ele>1600.1999511719</ele>
        <time>2016-07-14T12:56:00.000Z</time>
      </trkpt>
      <trkpt lat="44.60276" lon="6.19239">
        <ele>1600.8000488281</ele>
        <time>2016-07-14T12:56:08.000Z</time>
      </trkpt>
      <trkpt lat="44.6028" lon="6.19237">
        <ele>1601.4000244141</ele>
        <time>2016-07-14T12:56:11.000Z</time>
      </trkpt>
      <trkpt lat="44.60294" lon="6.19245">
        <ele>1602.5999755859</ele>
        <time>2016-07-14T12:56:22.000Z</time>
      </trkpt>
      <trkpt lat="44.60301" lon="6.1924">
        <ele>1602.5999755859</ele>
        <time>2016-07-14T12:56:28.000Z</time>
      </trkpt>
      <trkpt lat="44.60302" lon="6.19238">
        <ele>1602.5999755859</ele>
        <time>2016-07-14T12:56:29.000Z</time>
      </trkpt>
      <trkpt lat="44.60301" lon="6.1923">
        <ele>1602</ele>
        <time>2016-07-14T12:56:34.000Z</time>
      </trkpt>
      <trkpt lat="44.60305" lon="6.1922">
        <ele>1601</ele>
        <time>2016-07-14T12:56:40.000Z</time>
      </trkpt>
      <trkpt lat="44.60305" lon="6.19213">
        <ele>1600.4000244141</ele>
        <time>2016-07-14T12:56:44.000Z</time>
      </trkpt>
      <trkpt lat="44.60301" lon="6.19203">
        <ele>1599.1999511719</ele>
        <time>2016-07-14T12:56:52.000Z</time>
      </trkpt>
      <trkpt lat="44.60301" lon="6.19202">
        <ele>1599.1999511719</ele>
        <time>2016-07-14T12:57:00.000Z</time>
      </trkpt>
      <trkpt lat="44.60302" lon="6.19201">
        <ele>1599</ele>
        <time>2016-07-14T12:57:05.000Z</time>
      </trkpt>
      <trkpt lat="44.60303" lon="6.19197">
        <ele>1598.5999755859</ele>
        <time>2016-07-14T12:57:12.000Z</time>
      </trkpt>
      <trkpt lat="44.60301" lon="6.19187">
        <ele>1597.5999755859</ele>
        <time>2016-07-14T12:57:17.000Z</time>
      </trkpt>
      <trkpt lat="44.60299" lon="6.19179">
        <ele>1596.5999755859</ele>
        <time>2016-07-14T12:57:24.000Z</time>
      </trkpt>
      <trkpt lat="44.60301" lon="6.19174">
        <ele>1596</ele>
        <time>2016-07-14T12:57:30.000Z</time>
      </trkpt>
      <trkpt lat="44.60302" lon="6.19165">
        <ele>1595.1999511719</ele>
        <time>2016-07-14T12:57:35.000Z</time>
      </trkpt>
      <trkpt lat="44.60302" lon="6.19164">
        <ele>1595</ele>
        <time>2016-07-14T12:57:36.000Z</time>
      </trkpt>
      <trkpt lat="44.60306" lon="6.19151">
        <ele>1594.4000244141</ele>
        <time>2016-07-14T12:57:43.000Z</time>
      </trkpt>
      <trkpt lat="44.60305" lon="6.19146">
        <ele>1594</ele>
        <time>2016-07-14T12:57:48.000Z</time>
      </trkpt>
      <trkpt lat="44.60308" lon="6.1914">
        <ele>1593.1999511719</ele>
        <time>2016-07-14T12:57:53.000Z</time>
      </trkpt>
      <trkpt lat="44.60308" lon="6.19135">
        <ele>1592.4000244141</ele>
        <time>2016-07-14T12:58:03.000Z</time>
      </trkpt>
      <trkpt lat="44.60308" lon="6.19131">
        <ele>1591.8000488281</ele>
        <time>2016-07-14T12:58:06.000Z</time>
      </trkpt>
      <trkpt lat="44.60309" lon="6.19121">
        <ele>1590.1999511719</ele>
        <time>2016-07-14T12:58:13.000Z</time>
      </trkpt>
      <trkpt lat="44.60309" lon="6.19116">
        <ele>1589.1999511719</ele>
        <time>2016-07-14T12:58:17.000Z</time>
      </trkpt>
      <trkpt lat="44.60314" lon="6.19106">
        <ele>1587.8000488281</ele>
        <time>2016-07-14T12:58:24.000Z</time>
      </trkpt>
      <trkpt lat="44.60317" lon="6.19099">
        <ele>1586.8000488281</ele>
        <time>2016-07-14T12:58:30.000Z</time>
      </trkpt>
      <trkpt lat="44.60319" lon="6.19091">
        <ele>1585.5999755859</ele>
        <time>2016-07-14T12:58:35.000Z</time>
      </trkpt>
      <trkpt lat="44.60321" lon="6.19082">
        <ele>1584.1999511719</ele>
        <time>2016-07-14T12:58:41.000Z</time>
      </trkpt>
      <trkpt lat="44.60322" lon="6.19076">
        <ele>1583.1999511719</ele>
        <time>2016-07-14T12:58:47.000Z</time>
      </trkpt>
      <trkpt lat="44.60319" lon="6.1907">
        <ele>1582</ele>
        <time>2016-07-14T12:58:52.000Z</time>
      </trkpt>
      <trkpt lat="44.60318" lon="6.19064">
        <ele>1581</ele>
        <time>2016-07-14T12:58:56.000Z</time>
      </trkpt>
      <trkpt lat="44.6032" lon="6.19054">
        <ele>1579.8000488281</ele>
        <time>2016-07-14T12:59:02.000Z</time>
      </trkpt>
      <trkpt lat="44.60323" lon="6.19042">
        <ele>1578.1999511719</ele>
        <time>2016-07-14T12:59:10.000Z</time>
      </trkpt>
      <trkpt lat="44.60323" lon="6.19041">
        <ele>1578.1999511719</ele>
        <time>2016-07-14T12:59:11.000Z</time>
      </trkpt>
      <trkpt lat="44.60326" lon="6.19031">
        <ele>1577</ele>
        <time>2016-07-14T12:59:17.000Z</time>
      </trkpt>
      <trkpt lat="44.60331" lon="6.1902">
        <ele>1575.5999755859</ele>
        <time>2016-07-14T12:59:25.000Z</time>
      </trkpt>
      <trkpt lat="44.60333" lon="6.19017">
        <ele>1575.4000244141</ele>
        <time>2016-07-14T12:59:27.000Z</time>
      </trkpt>
      <trkpt lat="44.60339" lon="6.19008">
        <ele>1574.5999755859</ele>
        <time>2016-07-14T12:59:34.000Z</time>
      </trkpt>
      <trkpt lat="44.60346" lon="6.18995">
        <ele>1573.1999511719</ele>
        <time>2016-07-14T12:59:43.000Z</time>
      </trkpt>
      <trkpt lat="44.60348" lon="6.18991">
        <ele>1572.8000488281</ele>
        <time>2016-07-14T12:59:49.000Z</time>
      </trkpt>
      <trkpt lat="44.60348" lon="6.18992">
        <ele>1572.8000488281</ele>
        <time>2016-07-14T12:59:54.000Z</time>
      </trkpt>
      <trkpt lat="44.60351" lon="6.18987">
        <ele>1572.1999511719</ele>
        <time>2016-07-14T12:59:59.000Z</time>
      </trkpt>
      <trkpt lat="44.60354" lon="6.18977">
        <ele>1571.1999511719</ele>
        <time>2016-07-14T13:00:05.000Z</time>
      </trkpt>
      <trkpt lat="44.60357" lon="6.18964">
        <ele>1569.5999755859</ele>
        <time>2016-07-14T13:00:12.000Z</time>
      </trkpt>
      <trkpt lat="44.60358" lon="6.18953">
        <ele>1568.5999755859</ele>
        <time>2016-07-14T13:00:18.000Z</time>
      </trkpt>
      <trkpt lat="44.60357" lon="6.18945">
        <ele>1567.5999755859</ele>
        <time>2016-07-14T13:00:23.000Z</time>
      </trkpt>
      <trkpt lat="44.60356" lon="6.18938">
        <ele>1566.8000488281</ele>
        <time>2016-07-14T13:00:27.000Z</time>
      </trkpt>
      <trkpt lat="44.60352" lon="6.18923">
        <ele>1565</ele>
        <time>2016-07-14T13:00:37.000Z</time>
      </trkpt>
      <trkpt lat="44.60352" lon="6.18922">
        <ele>1564.8000488281</ele>
        <time>2016-07-14T13:00:38.000Z</time>
      </trkpt>
      <trkpt lat="44.60349" lon="6.18911">
        <ele>1563.4000244141</ele>
        <time>2016-07-14T13:00:45.000Z</time>
      </trkpt>
      <trkpt lat="44.60348" lon="6.18909">
        <ele>1563.1999511719</ele>
        <time>2016-07-14T13:00:46.000Z</time>
      </trkpt>
      <trkpt lat="44.60346" lon="6.18904">
        <ele>1562.4000244141</ele>
        <time>2016-07-14T13:00:49.000Z</time>
      </trkpt>
      <trkpt lat="44.60342" lon="6.18894">
        <ele>1561</ele>
        <time>2016-07-14T13:00:56.000Z</time>
      </trkpt>
      <trkpt lat="44.60336" lon="6.18881">
        <ele>1559</ele>
        <time>2016-07-14T13:01:05.000Z</time>
      </trkpt>
      <trkpt lat="44.60331" lon="6.18869">
        <ele>1557.1999511719</ele>
        <time>2016-07-14T13:01:12.000Z</time>
      </trkpt>
      <trkpt lat="44.60326" lon="6.18861">
        <ele>1556</ele>
        <time>2016-07-14T13:01:18.000Z</time>
      </trkpt>
      <trkpt lat="44.60322" lon="6.18854">
        <ele>1554.8000488281</ele>
        <time>2016-07-14T13:01:23.000Z</time>
      </trkpt>
      <trkpt lat="44.60313" lon="6.18836">
        <ele>1552</ele>
        <time>2016-07-14T13:01:35.000Z</time>
      </trkpt>
      <trkpt lat="44.60309" lon="6.18825">
        <ele>1550.4000244141</ele>
        <time>2016-07-14T13:01:41.000Z</time>
      </trkpt>
      <trkpt lat="44.60304" lon="6.18819">
        <ele>1549.4000244141</ele>
        <time>2016-07-14T13:01:46.000Z</time>
      </trkpt>
      <trkpt lat="44.60301" lon="6.18815">
        <ele>1548.8000488281</ele>
        <time>2016-07-14T13:01:50.000Z</time>
      </trkpt>
      <trkpt lat="44.60299" lon="6.18811">
        <ele>1548.1999511719</ele>
        <time>2016-07-14T13:01:53.000Z</time>
      </trkpt>
      <trkpt lat="44.60298" lon="6.18804">
        <ele>1547.1999511719</ele>
        <time>2016-07-14T13:01:59.000Z</time>
      </trkpt>
      <trkpt lat="44.60298" lon="6.18802">
        <ele>1547</ele>
        <time>2016-07-14T13:02:01.000Z</time>
      </trkpt>
      <trkpt lat="44.60299" lon="6.188">
        <ele>1546.8000488281</ele>
        <time>2016-07-14T13:02:03.000Z</time>
      </trkpt>
      <trkpt lat="44.60297" lon="6.18791">
        <ele>1545.8000488281</ele>
        <time>2016-07-14T13:02:09.000Z</time>
      </trkpt>
      <trkpt lat="44.60297" lon="6.18784">
        <ele>1545</ele>
        <time>2016-07-14T13:02:13.000Z</time>
      </trkpt>
      <trkpt lat="44.603" lon="6.18771">
        <ele>1543.8000488281</ele>
        <time>2016-07-14T13:02:22.000Z</time>
      </trkpt>
      <trkpt lat="44.603" lon="6.18769">
        <ele>1543.5999755859</ele>
        <time>2016-07-14T13:02:23.000Z</time>
      </trkpt>
      <trkpt lat="44.603" lon="6.18764">
        <ele>1543.1999511719</ele>
        <time>2016-07-14T13:02:29.000Z</time>
      </trkpt>
      <trkpt lat="44.60297" lon="6.18754">
        <ele>1541.8000488281</ele>
        <time>2016-07-14T13:02:36.000Z</time>
      </trkpt>
      <trkpt lat="44.60298" lon="6.18748">
        <ele>1541.1999511719</ele>
        <time>2016-07-14T13:02:39.000Z</time>
      </trkpt>
      <trkpt lat="44.60296" lon="6.18732">
        <ele>1539.1999511719</ele>
        <time>2016-07-14T13:02:48.000Z</time>
      </trkpt>
      <trkpt lat="44.60296" lon="6.18731">
        <ele>1538.8000488281</ele>
        <time>2016-07-14T13:02:49.000Z</time>
      </trkpt>
      <trkpt lat="44.60296" lon="6.18721">
        <ele>1537.8000488281</ele>
        <time>2016-07-14T13:02:55.000Z</time>
      </trkpt>
      <trkpt lat="44.60296" lon="6.18708">
        <ele>1536.5999755859</ele>
        <time>2016-07-14T13:03:03.000Z</time>
      </trkpt>
      <trkpt lat="44.60297" lon="6.18698">
        <ele>1535.5999755859</ele>
        <time>2016-07-14T13:03:09.000Z</time>
      </trkpt>
      <trkpt lat="44.60299" lon="6.18687">
        <ele>1534.8000488281</ele>
        <time>2016-07-14T13:03:15.000Z</time>
      </trkpt>
      <trkpt lat="44.603" lon="6.18686">
        <ele>1534.5999755859</ele>
        <time>2016-07-14T13:03:16.000Z</time>
      </trkpt>
      <trkpt lat="44.60304" lon="6.18681">
        <ele>1534.4000244141</ele>
        <time>2016-07-14T13:03:21.000Z</time>
      </trkpt>
      <trkpt lat="44.60309" lon="6.18664">
        <ele>1532.8000488281</ele>
        <time>2016-07-14T13:03:32.000Z</time>
      </trkpt>
      <trkpt lat="44.60309" lon="6.18663">
        <ele>1532.5999755859</ele>
        <time>2016-07-14T13:03:33.000Z</time>
      </trkpt>
      <trkpt lat="44.60308" lon="6.18658">
        <ele>1532</ele>
        <time>2016-07-14T13:03:36.000Z</time>
      </trkpt>
      <trkpt lat="44.60308" lon="6.18655">
        <ele>1531.5999755859</ele>
        <time>2016-07-14T13:03:38.000Z</time>
      </trkpt>
      <trkpt lat="44.60312" lon="6.18631">
        <ele>1528.8000488281</ele>
        <time>2016-07-14T13:03:53.000Z</time>
      </trkpt>
      <trkpt lat="44.60314" lon="6.1862">
        <ele>1527.8000488281</ele>
        <time>2016-07-14T13:04:00.000Z</time>
      </trkpt>
      <trkpt lat="44.60317" lon="6.18609">
        <ele>1526.5999755859</ele>
        <time>2016-07-14T13:04:07.000Z</time>
      </trkpt>
      <trkpt lat="44.60316" lon="6.18608">
        <ele>1526.4000244141</ele>
        <time>2016-07-14T13:04:08.000Z</time>
      </trkpt>
      <trkpt lat="44.60321" lon="6.18598">
        <ele>1525.4000244141</ele>
        <time>2016-07-14T13:04:16.000Z</time>
      </trkpt>
      <trkpt lat="44.60322" lon="6.18592">
        <ele>1524.8000488281</ele>
        <time>2016-07-14T13:04:21.000Z</time>
      </trkpt>
      <trkpt lat="44.60324" lon="6.18587">
        <ele>1524.4000244141</ele>
        <time>2016-07-14T13:04:24.000Z</time>
      </trkpt>
      <trkpt lat="44.60331" lon="6.18579">
        <ele>1523.8000488281</ele>
        <time>2016-07-14T13:04:31.000Z</time>
      </trkpt>
      <trkpt lat="44.60341" lon="6.18572">
        <ele>1523.4000244141</ele>
        <time>2016-07-14T13:04:40.000Z</time>
      </trkpt>
      <trkpt lat="44.60345" lon="6.18568">
        <ele>1523</ele>
        <time>2016-07-14T13:04:45.000Z</time>
      </trkpt>
      <trkpt lat="44.60349" lon="6.18564">
        <ele>1522.8000488281</ele>
        <time>2016-07-14T13:04:49.000Z</time>
      </trkpt>
      <trkpt lat="44.60356" lon="6.18556">
        <ele>1521.8000488281</ele>
        <time>2016-07-14T13:04:57.000Z</time>
      </trkpt>
      <trkpt lat="44.60357" lon="6.18555">
        <ele>1521.5999755859</ele>
        <time>2016-07-14T13:04:58.000Z</time>
      </trkpt>
      <trkpt lat="44.60361" lon="6.18551">
        <ele>1521.4000244141</ele>
        <time>2016-07-14T13:05:02.000Z</time>
      </trkpt>
      <trkpt lat="44.60367" lon="6.18546">
        <ele>1521.5999755859</ele>
        <time>2016-07-14T13:05:08.000Z</time>
      </trkpt>
      <trkpt lat="44.6037" lon="6.18543">
        <ele>1521.1999511719</ele>
        <time>2016-07-14T13:05:11.000Z</time>
      </trkpt>
      <trkpt lat="44.60376" lon="6.18534">
        <ele>1519.4000244141</ele>
        <time>2016-07-14T13:05:19.000Z</time>
      </trkpt>
      <trkpt lat="44.60379" lon="6.18526">
        <ele>1518.1999511719</ele>
        <time>2016-07-14T13:05:24.000Z</time>
      </trkpt>
      <trkpt lat="44.60384" lon="6.18512">
        <ele>1516.1999511719</ele>
        <time>2016-07-14T13:05:33.000Z</time>
      </trkpt>
      <trkpt lat="44.60391" lon="6.18487">
        <ele>1514.1999511719</ele>
        <time>2016-07-14T13:05:47.000Z</time>
      </trkpt>
      <trkpt lat="44.60394" lon="6.18473">
        <ele>1513.1999511719</ele>
        <time>2016-07-14T13:05:55.000Z</time>
      </trkpt>
      <trkpt lat="44.60397" lon="6.18457">
        <ele>1510.4000244141</ele>
        <time>2016-07-14T13:06:04.000Z</time>
      </trkpt>
      <trkpt lat="44.604" lon="6.18443">
        <ele>1507.8000488281</ele>
        <time>2016-07-14T13:06:13.000Z</time>
      </trkpt>
      <trkpt lat="44.60403" lon="6.18431">
        <ele>1505.5999755859</ele>
        <time>2016-07-14T13:06:20.000Z</time>
      </trkpt>
      <trkpt lat="44.60404" lon="6.18427">
        <ele>1505.4000244141</ele>
        <time>2016-07-14T13:06:25.000Z</time>
      </trkpt>
      <trkpt lat="44.60405" lon="6.18429">
        <ele>1505.4000244141</ele>
        <time>2016-07-14T13:06:30.000Z</time>
      </trkpt>
      <trkpt lat="44.60406" lon="6.1843">
        <ele>1505.5999755859</ele>
        <time>2016-07-14T13:07:52.000Z</time>
      </trkpt>
      <trkpt lat="44.60405" lon="6.18403">
        <ele>1505.1999511719</ele>
        <time>2016-07-14T13:08:07.000Z</time>
      </trkpt>
      <trkpt lat="44.60407" lon="6.18386">
        <ele>1504.4000244141</ele>
        <time>2016-07-14T13:08:16.000Z</time>
      </trkpt>
      <trkpt lat="44.60415" lon="6.18368">
        <ele>1503.1999511719</ele>
        <time>2016-07-14T13:08:27.000Z</time>
      </trkpt>
      <trkpt lat="44.6042" lon="6.18354">
        <ele>1502.8000488281</ele>
        <time>2016-07-14T13:08:35.000Z</time>
      </trkpt>
      <trkpt lat="44.60422" lon="6.18331">
        <ele>1502</ele>
        <time>2016-07-14T13:08:48.000Z</time>
      </trkpt>
      <trkpt lat="44.60426" lon="6.18318">
        <ele>1501.8000488281</ele>
        <time>2016-07-14T13:08:56.000Z</time>
      </trkpt>
      <trkpt lat="44.60429" lon="6.1831">
        <ele>1501.8000488281</ele>
        <time>2016-07-14T13:09:02.000Z</time>
      </trkpt>
      <trkpt lat="44.6043" lon="6.18296">
        <ele>1500.4000244141</ele>
        <time>2016-07-14T13:09:10.000Z</time>
      </trkpt>
      <trkpt lat="44.6043" lon="6.18286">
        <ele>1499.1999511719</ele>
        <time>2016-07-14T13:09:16.000Z</time>
      </trkpt>
      <trkpt lat="44.60433" lon="6.18276">
        <ele>1498</ele>
        <time>2016-07-14T13:09:23.000Z</time>
      </trkpt>
      <trkpt lat="44.60426" lon="6.18258">
        <ele>1494.8000488281</ele>
        <time>2016-07-14T13:09:36.000Z</time>
      </trkpt>
      <trkpt lat="44.60422" lon="6.18245">
        <ele>1492.5999755859</ele>
        <time>2016-07-14T13:09:45.000Z</time>
      </trkpt>
      <trkpt lat="44.60422" lon="6.18229">
        <ele>1490.4000244141</ele>
        <time>2016-07-14T13:09:54.000Z</time>
      </trkpt>
      <trkpt lat="44.60426" lon="6.18217">
        <ele>1489.1999511719</ele>
        <time>2016-07-14T13:10:02.000Z</time>
      </trkpt>
      <trkpt lat="44.60428" lon="6.18204">
        <ele>1487.8000488281</ele>
        <time>2016-07-14T13:10:10.000Z</time>
      </trkpt>
      <trkpt lat="44.60423" lon="6.18194">
        <ele>1486</ele>
        <time>2016-07-14T13:10:18.000Z</time>
      </trkpt>
      <trkpt lat="44.60422" lon="6.18194">
        <ele>1486</ele>
        <time>2016-07-14T13:10:19.000Z</time>
      </trkpt>
      <trkpt lat="44.6042" lon="6.18188">
        <ele>1484.8000488281</ele>
        <time>2016-07-14T13:10:23.000Z</time>
      </trkpt>
      <trkpt lat="44.60419" lon="6.1818">
        <ele>1483.5999755859</ele>
        <time>2016-07-14T13:10:28.000Z</time>
      </trkpt>
      <trkpt lat="44.60422" lon="6.18166">
        <ele>1481.5999755859</ele>
        <time>2016-07-14T13:10:36.000Z</time>
      </trkpt>
      <trkpt lat="44.60422" lon="6.18164">
        <ele>1481.1999511719</ele>
        <time>2016-07-14T13:10:37.000Z</time>
      </trkpt>
      <trkpt lat="44.60426" lon="6.18148">
        <ele>1478.8000488281</ele>
        <time>2016-07-14T13:10:47.000Z</time>
      </trkpt>
      <trkpt lat="44.60427" lon="6.18134">
        <ele>1477</ele>
        <time>2016-07-14T13:10:55.000Z</time>
      </trkpt>
      <trkpt lat="44.60429" lon="6.18129">
        <ele>1476.4000244141</ele>
        <time>2016-07-14T13:10:59.000Z</time>
      </trkpt>
      <trkpt lat="44.60428" lon="6.18121">
        <ele>1475.1999511719</ele>
        <time>2016-07-14T13:11:05.000Z</time>
      </trkpt>
      <trkpt lat="44.60435" lon="6.18107">
        <ele>1473</ele>
        <time>2016-07-14T13:11:17.000Z</time>
      </trkpt>
      <trkpt lat="44.60436" lon="6.18097">
        <ele>1471.4000244141</ele>
        <time>2016-07-14T13:11:23.000Z</time>
      </trkpt>
      <trkpt lat="44.60436" lon="6.18094">
        <ele>1471</ele>
        <time>2016-07-14T13:11:25.000Z</time>
      </trkpt>
      <trkpt lat="44.60437" lon="6.18083">
        <ele>1469.1999511719</ele>
        <time>2016-07-14T13:11:31.000Z</time>
      </trkpt>
      <trkpt lat="44.60441" lon="6.18051">
        <ele>1464.1999511719</ele>
        <time>2016-07-14T13:11:50.000Z</time>
      </trkpt>
      <trkpt lat="44.60442" lon="6.18042">
        <ele>1463</ele>
        <time>2016-07-14T13:11:57.000Z</time>
      </trkpt>
      <trkpt lat="44.60441" lon="6.18041">
        <ele>1462.8000488281</ele>
        <time>2016-07-14T13:12:05.000Z</time>
      </trkpt>
      <trkpt lat="44.60441" lon="6.18035">
        <ele>1462.1999511719</ele>
        <time>2016-07-14T13:12:17.000Z</time>
      </trkpt>
      <trkpt lat="44.60439" lon="6.18033">
        <ele>1461.8000488281</ele>
        <time>2016-07-14T13:12:20.000Z</time>
      </trkpt>
      <trkpt lat="44.60439" lon="6.1803">
        <ele>1461.4000244141</ele>
        <time>2016-07-14T13:12:28.000Z</time>
      </trkpt>
      <trkpt lat="44.60439" lon="6.18031">
        <ele>1461.5999755859</ele>
        <time>2016-07-14T13:12:44.000Z</time>
      </trkpt>
      <trkpt lat="44.60438" lon="6.18029">
        <ele>1461.1999511719</ele>
        <time>2016-07-14T13:13:24.000Z</time>
      </trkpt>
      <trkpt lat="44.60439" lon="6.18029">
        <ele>1461.1999511719</ele>
        <time>2016-07-14T13:13:30.000Z</time>
      </trkpt>
      <trkpt lat="44.60439" lon="6.1803">
        <ele>1461.4000244141</ele>
        <time>2016-07-14T13:14:25.000Z</time>
      </trkpt>
      <trkpt lat="44.60439" lon="6.18032">
        <ele>1461.5999755859</ele>
        <time>2016-07-14T13:14:48.000Z</time>
      </trkpt>
      <trkpt lat="44.60438" lon="6.18031">
        <ele>1461.4000244141</ele>
        <time>2016-07-14T13:14:53.000Z</time>
      </trkpt>
      <trkpt lat="44.60435" lon="6.18028">
        <ele>1461</ele>
        <time>2016-07-14T13:15:06.000Z</time>
      </trkpt>
      <trkpt lat="44.60425" lon="6.18025">
        <ele>1460.4000244141</ele>
        <time>2016-07-14T13:15:12.000Z</time>
      </trkpt>
      <trkpt lat="44.60413" lon="6.18019">
        <ele>1459</ele>
        <time>2016-07-14T13:15:21.000Z</time>
      </trkpt>
      <trkpt lat="44.60396" lon="6.18011">
        <ele>1457.4000244141</ele>
        <time>2016-07-14T13:15:33.000Z</time>
      </trkpt>
      <trkpt lat="44.60387" lon="6.18003">
        <ele>1456</ele>
        <time>2016-07-14T13:15:41.000Z</time>
      </trkpt>
      <trkpt lat="44.60378" lon="6.18">
        <ele>1455.1999511719</ele>
        <time>2016-07-14T13:15:48.000Z</time>
      </trkpt>
      <trkpt lat="44.60371" lon="6.17998">
        <ele>1454.8000488281</ele>
        <time>2016-07-14T13:15:53.000Z</time>
      </trkpt>
      <trkpt lat="44.6036" lon="6.17998">
        <ele>1454</ele>
        <time>2016-07-14T13:16:01.000Z</time>
      </trkpt>
      <trkpt lat="44.6035" lon="6.17998">
        <ele>1453.4000244141</ele>
        <time>2016-07-14T13:16:09.000Z</time>
      </trkpt>
      <trkpt lat="44.60342" lon="6.17998">
        <ele>1453</ele>
        <time>2016-07-14T13:16:16.000Z</time>
      </trkpt>
      <trkpt lat="44.60332" lon="6.18">
        <ele>1452.8000488281</ele>
        <time>2016-07-14T13:16:23.000Z</time>
      </trkpt>
      <trkpt lat="44.60317" lon="6.18004">
        <ele>1452.4000244141</ele>
        <time>2016-07-14T13:16:35.000Z</time>
      </trkpt>
      <trkpt lat="44.60307" lon="6.18007">
        <ele>1451.5999755859</ele>
        <time>2016-07-14T13:16:43.000Z</time>
      </trkpt>
      <trkpt lat="44.6028" lon="6.18012">
        <ele>1448.4000244141</ele>
        <time>2016-07-14T13:17:03.000Z</time>
      </trkpt>
      <trkpt lat="44.60274" lon="6.18013">
        <ele>1447.5999755859</ele>
        <time>2016-07-14T13:17:09.000Z</time>
      </trkpt>
      <trkpt lat="44.60263" lon="6.18017">
        <ele>1446.4000244141</ele>
        <time>2016-07-14T13:17:19.000Z</time>
      </trkpt>
      <trkpt lat="44.60255" lon="6.18022">
        <ele>1445.5999755859</ele>
        <time>2016-07-14T13:17:27.000Z</time>
      </trkpt>
      <trkpt lat="44.60246" lon="6.18028">
        <ele>1444.5999755859</ele>
        <time>2016-07-14T13:17:36.000Z</time>
      </trkpt>
      <trkpt lat="44.60241" lon="6.18031">
        <ele>1443.8000488281</ele>
        <time>2016-07-14T13:17:42.000Z</time>
      </trkpt>
      <trkpt lat="44.6024" lon="6.18031">
        <ele>1443.5999755859</ele>
        <time>2016-07-14T13:17:44.000Z</time>
      </trkpt>
      <trkpt lat="44.60237" lon="6.18031">
        <ele>1443</ele>
        <time>2016-07-14T13:17:54.000Z</time>
      </trkpt>
      <trkpt lat="44.60235" lon="6.18031">
        <ele>1442.5999755859</ele>
        <time>2016-07-14T13:17:56.000Z</time>
      </trkpt>
      <trkpt lat="44.6023" lon="6.18031">
        <ele>1441.8000488281</ele>
        <time>2016-07-14T13:18:02.000Z</time>
      </trkpt>
      <trkpt lat="44.60225" lon="6.18031">
        <ele>1440.8000488281</ele>
        <time>2016-07-14T13:18:10.000Z</time>
      </trkpt>
      <trkpt lat="44.60221" lon="6.18034">
        <ele>1440.1999511719</ele>
        <time>2016-07-14T13:18:14.000Z</time>
      </trkpt>
      <trkpt lat="44.60218" lon="6.18036">
        <ele>1439.5999755859</ele>
        <time>2016-07-14T13:18:18.000Z</time>
      </trkpt>
      <trkpt lat="44.60216" lon="6.18038">
        <ele>1439.1999511719</ele>
        <time>2016-07-14T13:18:21.000Z</time>
      </trkpt>
      <trkpt lat="44.60211" lon="6.18042">
        <ele>1438.4000244141</ele>
        <time>2016-07-14T13:18:27.000Z</time>
      </trkpt>
      <trkpt lat="44.60208" lon="6.18042">
        <ele>1438</ele>
        <time>2016-07-14T13:18:30.000Z</time>
      </trkpt>
      <trkpt lat="44.60202" lon="6.18041">
        <ele>1436.8000488281</ele>
        <time>2016-07-14T13:18:36.000Z</time>
      </trkpt>
      <trkpt lat="44.60191" lon="6.18042">
        <ele>1435.5999755859</ele>
        <time>2016-07-14T13:18:45.000Z</time>
      </trkpt>
      <trkpt lat="44.60187" lon="6.18042">
        <ele>1435</ele>
        <time>2016-07-14T13:18:50.000Z</time>
      </trkpt>
      <trkpt lat="44.60176" lon="6.18042">
        <ele>1434</ele>
        <time>2016-07-14T13:18:58.000Z</time>
      </trkpt>
      <trkpt lat="44.60163" lon="6.18037">
        <ele>1432.8000488281</ele>
        <time>2016-07-14T13:19:08.000Z</time>
      </trkpt>
      <trkpt lat="44.60154" lon="6.18035">
        <ele>1432</ele>
        <time>2016-07-14T13:19:16.000Z</time>
      </trkpt>
      <trkpt lat="44.60144" lon="6.18035">
        <ele>1431.4000244141</ele>
        <time>2016-07-14T13:19:24.000Z</time>
      </trkpt>
      <trkpt lat="44.60139" lon="6.18035">
        <ele>1430.8000488281</ele>
        <time>2016-07-14T13:19:29.000Z</time>
      </trkpt>
      <trkpt lat="44.60126" lon="6.18037">
        <ele>1430.1999511719</ele>
        <time>2016-07-14T13:19:39.000Z</time>
      </trkpt>
      <trkpt lat="44.60117" lon="6.1804">
        <ele>1429.5999755859</ele>
        <time>2016-07-14T13:19:46.000Z</time>
      </trkpt>
      <trkpt lat="44.6012" lon="6.18053">
        <ele>1430.5999755859</ele>
        <time>2016-07-14T13:19:58.000Z</time>
      </trkpt>
      <trkpt lat="44.60116" lon="6.18052">
        <ele>1430.4000244141</ele>
        <time>2016-07-14T13:20:04.000Z</time>
      </trkpt>
      <trkpt lat="44.60114" lon="6.18047">
        <ele>1430</ele>
        <time>2016-07-14T13:20:08.000Z</time>
      </trkpt>
      <trkpt lat="44.60115" lon="6.18045">
        <ele>1429.8000488281</ele>
        <time>2016-07-14T13:20:14.000Z</time>
      </trkpt>
      <trkpt lat="44.60116" lon="6.18045">
        <ele>1430</ele>
        <time>2016-07-14T13:20:21.000Z</time>
      </trkpt>
      <trkpt lat="44.60117" lon="6.18049">
        <ele>1430.1999511719</ele>
        <time>2016-07-14T13:20:41.000Z</time>
      </trkpt>
      <trkpt lat="44.60118" lon="6.1806">
        <ele>1431</ele>
        <time>2016-07-14T13:20:50.000Z</time>
      </trkpt>
      <trkpt lat="44.60118" lon="6.18059">
        <ele>1430.8000488281</ele>
        <time>2016-07-14T13:20:55.000Z</time>
      </trkpt>
      <trkpt lat="44.60117" lon="6.18053">
        <ele>1430.4000244141</ele>
        <time>2016-07-14T13:21:00.000Z</time>
      </trkpt>
      <trkpt lat="44.60115" lon="6.18047">
        <ele>1430</ele>
        <time>2016-07-14T13:21:04.000Z</time>
      </trkpt>
      <trkpt lat="44.60114" lon="6.18044">
        <ele>1429.8000488281</ele>
        <time>2016-07-14T13:21:11.000Z</time>
      </trkpt>
      <trkpt lat="44.60114" lon="6.18046">
        <ele>1429.8000488281</ele>
        <time>2016-07-14T13:21:18.000Z</time>
      </trkpt>
      <trkpt lat="44.60115" lon="6.18045">
        <ele>1429.8000488281</ele>
        <time>2016-07-14T13:21:27.000Z</time>
      </trkpt>
      <trkpt lat="44.60112" lon="6.18041">
        <ele>1429.4000244141</ele>
        <time>2016-07-14T13:21:32.000Z</time>
      </trkpt>
      <trkpt lat="44.60104" lon="6.18039">
        <ele>1429</ele>
        <time>2016-07-14T13:21:38.000Z</time>
      </trkpt>
      <trkpt lat="44.60102" lon="6.18039">
        <ele>1428.8000488281</ele>
        <time>2016-07-14T13:21:40.000Z</time>
      </trkpt>
      <trkpt lat="44.60092" lon="6.18035">
        <ele>1428.1999511719</ele>
        <time>2016-07-14T13:21:48.000Z</time>
      </trkpt>
      <trkpt lat="44.60082" lon="6.18033">
        <ele>1427.5999755859</ele>
        <time>2016-07-14T13:21:55.000Z</time>
      </trkpt>
      <trkpt lat="44.60078" lon="6.18036">
        <ele>1427.5999755859</ele>
        <time>2016-07-14T13:21:59.000Z</time>
      </trkpt>
      <trkpt lat="44.60073" lon="6.1805">
        <ele>1428.5999755859</ele>
        <time>2016-07-14T13:22:07.000Z</time>
      </trkpt>
      <trkpt lat="44.60068" lon="6.1806">
        <ele>1429.1999511719</ele>
        <time>2016-07-14T13:22:14.000Z</time>
      </trkpt>
      <trkpt lat="44.6006" lon="6.18061">
        <ele>1428.8000488281</ele>
        <time>2016-07-14T13:22:20.000Z</time>
      </trkpt>
      <trkpt lat="44.60049" lon="6.18055">
        <ele>1428</ele>
        <time>2016-07-14T13:22:28.000Z</time>
      </trkpt>
      <trkpt lat="44.60039" lon="6.18046">
        <ele>1427</ele>
        <time>2016-07-14T13:22:35.000Z</time>
      </trkpt>
      <trkpt lat="44.60032" lon="6.18042">
        <ele>1426.4000244141</ele>
        <time>2016-07-14T13:22:43.000Z</time>
      </trkpt>
      <trkpt lat="44.60024" lon="6.18034">
        <ele>1425</ele>
        <time>2016-07-14T13:22:50.000Z</time>
      </trkpt>
      <trkpt lat="44.60015" lon="6.18033">
        <ele>1424</ele>
        <time>2016-07-14T13:22:55.000Z</time>
      </trkpt>
      <trkpt lat="44.60004" lon="6.1804">
        <ele>1423.8000488281</ele>
        <time>2016-07-14T13:23:04.000Z</time>
      </trkpt>
      <trkpt lat="44.59996" lon="6.18049">
        <ele>1424.4000244141</ele>
        <time>2016-07-14T13:23:11.000Z</time>
      </trkpt>
      <trkpt lat="44.59992" lon="6.18053">
        <ele>1424.5999755859</ele>
        <time>2016-07-14T13:23:15.000Z</time>
      </trkpt>
      <trkpt lat="44.59982" lon="6.18065">
        <ele>1425.1999511719</ele>
        <time>2016-07-14T13:23:24.000Z</time>
      </trkpt>
      <trkpt lat="44.59972" lon="6.18078">
        <ele>1426.1999511719</ele>
        <time>2016-07-14T13:23:33.000Z</time>
      </trkpt>
      <trkpt lat="44.59969" lon="6.1808">
        <ele>1426.4000244141</ele>
        <time>2016-07-14T13:23:35.000Z</time>
      </trkpt>
      <trkpt lat="44.59968" lon="6.18079">
        <ele>1426.1999511719</ele>
        <time>2016-07-14T13:23:37.000Z</time>
      </trkpt>
      <trkpt lat="44.59974" lon="6.18072">
        <ele>1425.5999755859</ele>
        <time>2016-07-14T13:23:44.000Z</time>
      </trkpt>
      <trkpt lat="44.59974" lon="6.18071">
        <ele>1425.4000244141</ele>
        <time>2016-07-14T13:23:45.000Z</time>
      </trkpt>
      <trkpt lat="44.59967" lon="6.18072">
        <ele>1425.1999511719</ele>
        <time>2016-07-14T13:23:54.000Z</time>
      </trkpt>
      <trkpt lat="44.59958" lon="6.18074">
        <ele>1425.1999511719</ele>
        <time>2016-07-14T13:24:00.000Z</time>
      </trkpt>
      <trkpt lat="44.5995" lon="6.18076">
        <ele>1425.4000244141</ele>
        <time>2016-07-14T13:24:07.000Z</time>
      </trkpt>
      <trkpt lat="44.59946" lon="6.18077">
        <ele>1425.1999511719</ele>
        <time>2016-07-14T13:24:10.000Z</time>
      </trkpt>
      <trkpt lat="44.5994" lon="6.18085">
        <ele>1425.5999755859</ele>
        <time>2016-07-14T13:24:16.000Z</time>
      </trkpt>
      <trkpt lat="44.59936" lon="6.18087">
        <ele>1425.5999755859</ele>
        <time>2016-07-14T13:24:22.000Z</time>
      </trkpt>
      <trkpt lat="44.59929" lon="6.1809">
        <ele>1425.1999511719</ele>
        <time>2016-07-14T13:24:28.000Z</time>
      </trkpt>
      <trkpt lat="44.59926" lon="6.181">
        <ele>1426.5999755859</ele>
        <time>2016-07-14T13:24:34.000Z</time>
      </trkpt>
      <trkpt lat="44.59918" lon="6.18109">
        <ele>1427</ele>
        <time>2016-07-14T13:24:41.000Z</time>
      </trkpt>
      <trkpt lat="44.5991" lon="6.18111">
        <ele>1426.1999511719</ele>
        <time>2016-07-14T13:24:47.000Z</time>
      </trkpt>
      <trkpt lat="44.5991" lon="6.1811">
        <ele>1426.1999511719</ele>
        <time>2016-07-14T13:24:55.000Z</time>
      </trkpt>
      <trkpt lat="44.59923" lon="6.18108">
        <ele>1427.5999755859</ele>
        <time>2016-07-14T13:25:05.000Z</time>
      </trkpt>
      <trkpt lat="44.59929" lon="6.18104">
        <ele>1427.5999755859</ele>
        <time>2016-07-14T13:25:12.000Z</time>
      </trkpt>
      <trkpt lat="44.59923" lon="6.18101">
        <ele>1426.4000244141</ele>
        <time>2016-07-14T13:25:18.000Z</time>
      </trkpt>
      <trkpt lat="44.59923" lon="6.18095">
        <ele>1425.4000244141</ele>
        <time>2016-07-14T13:25:22.000Z</time>
      </trkpt>
      <trkpt lat="44.59923" lon="6.18093">
        <ele>1425</ele>
        <time>2016-07-14T13:25:30.000Z</time>
      </trkpt>
      <trkpt lat="44.59923" lon="6.18096">
        <ele>1425.4000244141</ele>
        <time>2016-07-14T13:25:38.000Z</time>
      </trkpt>
      <trkpt lat="44.59928" lon="6.18093">
        <ele>1425.5999755859</ele>
        <time>2016-07-14T13:25:44.000Z</time>
      </trkpt>
      <trkpt lat="44.59932" lon="6.18091">
        <ele>1425.8000488281</ele>
        <time>2016-07-14T13:25:49.000Z</time>
      </trkpt>
      <trkpt lat="44.59933" lon="6.1809">
        <ele>1425.5999755859</ele>
        <time>2016-07-14T13:25:50.000Z</time>
      </trkpt>
      <trkpt lat="44.59936" lon="6.18087">
        <ele>1425.4000244141</ele>
        <time>2016-07-14T13:25:54.000Z</time>
      </trkpt>
      <trkpt lat="44.59937" lon="6.18085">
        <ele>1425.4000244141</ele>
        <time>2016-07-14T13:25:55.000Z</time>
      </trkpt>
      <trkpt lat="44.59938" lon="6.18084">
        <ele>1425.1999511719</ele>
        <time>2016-07-14T13:25:58.000Z</time>
      </trkpt>
      <trkpt lat="44.59939" lon="6.18083">
        <ele>1425.1999511719</ele>
        <time>2016-07-14T13:26:08.000Z</time>
      </trkpt>
      <trkpt lat="44.59938" lon="6.1808">
        <ele>1424.4000244141</ele>
        <time>2016-07-14T13:26:42.000Z</time>
      </trkpt>
      <trkpt lat="44.59938" lon="6.18081">
        <ele>1424.8000488281</ele>
        <time>2016-07-14T13:27:03.000Z</time>
      </trkpt>
      <trkpt lat="44.5995" lon="6.18076">
        <ele>1425.4000244141</ele>
        <time>2016-07-14T13:27:11.000Z</time>
      </trkpt>
      <trkpt lat="44.59962" lon="6.18073">
        <ele>1425.1999511719</ele>
        <time>2016-07-14T13:27:20.000Z</time>
      </trkpt>
      <trkpt lat="44.59967" lon="6.18072">
        <ele>1425.1999511719</ele>
        <time>2016-07-14T13:27:24.000Z</time>
      </trkpt>
      <trkpt lat="44.59973" lon="6.18066">
        <ele>1424.8000488281</ele>
        <time>2016-07-14T13:27:30.000Z</time>
      </trkpt>
      <trkpt lat="44.59985" lon="6.18055">
        <ele>1424.4000244141</ele>
        <time>2016-07-14T13:27:40.000Z</time>
      </trkpt>
      <trkpt lat="44.59995" lon="6.18044">
        <ele>1423.8000488281</ele>
        <time>2016-07-14T13:27:48.000Z</time>
      </trkpt>
      <trkpt lat="44.60005" lon="6.18035">
        <ele>1423.4000244141</ele>
        <time>2016-07-14T13:27:56.000Z</time>
      </trkpt>
      <trkpt lat="44.60012" lon="6.1802">
        <ele>1422.8000488281</ele>
        <time>2016-07-14T13:28:05.000Z</time>
      </trkpt>
      <trkpt lat="44.60012" lon="6.18018">
        <ele>1422.5999755859</ele>
        <time>2016-07-14T13:28:07.000Z</time>
      </trkpt>
      <trkpt lat="44.60007" lon="6.18003">
        <ele>1421.1999511719</ele>
        <time>2016-07-14T13:28:15.000Z</time>
      </trkpt>
      <trkpt lat="44.6" lon="6.17998">
        <ele>1420.1999511719</ele>
        <time>2016-07-14T13:28:22.000Z</time>
      </trkpt>
      <trkpt lat="44.59988" lon="6.17998">
        <ele>1418.8000488281</ele>
        <time>2016-07-14T13:28:31.000Z</time>
      </trkpt>
      <trkpt lat="44.5997" lon="6.17998">
        <ele>1417.4000244141</ele>
        <time>2016-07-14T13:28:47.000Z</time>
      </trkpt>
      <trkpt lat="44.59962" lon="6.17997">
        <ele>1416.8000488281</ele>
        <time>2016-07-14T13:28:53.000Z</time>
      </trkpt>
      <trkpt lat="44.59949" lon="6.1799">
        <ele>1415.1999511719</ele>
        <time>2016-07-14T13:29:01.000Z</time>
      </trkpt>
      <trkpt lat="44.5994" lon="6.17979">
        <ele>1413.4000244141</ele>
        <time>2016-07-14T13:29:10.000Z</time>
      </trkpt>
      <trkpt lat="44.59928" lon="6.1797">
        <ele>1411.4000244141</ele>
        <time>2016-07-14T13:29:19.000Z</time>
      </trkpt>
      <trkpt lat="44.59919" lon="6.17961">
        <ele>1409.5999755859</ele>
        <time>2016-07-14T13:29:28.000Z</time>
      </trkpt>
      <trkpt lat="44.59903" lon="6.17971">
        <ele>1409.5999755859</ele>
        <time>2016-07-14T13:29:40.000Z</time>
      </trkpt>
      <trkpt lat="44.59894" lon="6.17982">
        <ele>1410.4000244141</ele>
        <time>2016-07-14T13:29:50.000Z</time>
      </trkpt>
      <trkpt lat="44.59881" lon="6.17995">
        <ele>1410.5999755859</ele>
        <time>2016-07-14T13:30:00.000Z</time>
      </trkpt>
      <trkpt lat="44.5987" lon="6.18007">
        <ele>1409.5999755859</ele>
        <time>2016-07-14T13:30:10.000Z</time>
      </trkpt>
      <trkpt lat="44.59867" lon="6.18012">
        <ele>1409.4000244141</ele>
        <time>2016-07-14T13:30:13.000Z</time>
      </trkpt>
      <trkpt lat="44.59864" lon="6.18016">
        <ele>1408.8000488281</ele>
        <time>2016-07-14T13:30:17.000Z</time>
      </trkpt>
      <trkpt lat="44.59855" lon="6.18029">
        <ele>1407.4000244141</ele>
        <time>2016-07-14T13:30:25.000Z</time>
      </trkpt>
      <trkpt lat="44.59845" lon="6.18041">
        <ele>1406</ele>
        <time>2016-07-14T13:30:34.000Z</time>
      </trkpt>
      <trkpt lat="44.59833" lon="6.18049">
        <ele>1404.8000488281</ele>
        <time>2016-07-14T13:30:43.000Z</time>
      </trkpt>
      <trkpt lat="44.59827" lon="6.18061">
        <ele>1405</ele>
        <time>2016-07-14T13:30:49.000Z</time>
      </trkpt>
      <trkpt lat="44.59821" lon="6.18068">
        <ele>1405.1999511719</ele>
        <time>2016-07-14T13:30:55.000Z</time>
      </trkpt>
      <trkpt lat="44.59822" lon="6.18063">
        <ele>1404.5999755859</ele>
        <time>2016-07-14T13:31:00.000Z</time>
      </trkpt>
      <trkpt lat="44.59828" lon="6.18058">
        <ele>1405</ele>
        <time>2016-07-14T13:31:05.000Z</time>
      </trkpt>
      <trkpt lat="44.59829" lon="6.18057">
        <ele>1405</ele>
        <time>2016-07-14T13:31:07.000Z</time>
      </trkpt>
      <trkpt lat="44.59834" lon="6.18048">
        <ele>1405</ele>
        <time>2016-07-14T13:31:13.000Z</time>
      </trkpt>
      <trkpt lat="44.59847" lon="6.18034">
        <ele>1406</ele>
        <time>2016-07-14T13:31:24.000Z</time>
      </trkpt>
      <trkpt lat="44.59855" lon="6.18025">
        <ele>1407.4000244141</ele>
        <time>2016-07-14T13:31:32.000Z</time>
      </trkpt>
      <trkpt lat="44.59858" lon="6.18021">
        <ele>1407.8000488281</ele>
        <time>2016-07-14T13:31:35.000Z</time>
      </trkpt>
      <trkpt lat="44.59868" lon="6.18011">
        <ele>1409.5999755859</ele>
        <time>2016-07-14T13:31:48.000Z</time>
      </trkpt>
      <trkpt lat="44.59875" lon="6.17999">
        <ele>1410</ele>
        <time>2016-07-14T13:31:56.000Z</time>
      </trkpt>
      <trkpt lat="44.59884" lon="6.17988">
        <ele>1410.1999511719</ele>
        <time>2016-07-14T13:32:05.000Z</time>
      </trkpt>
      <trkpt lat="44.59892" lon="6.1798">
        <ele>1409.8000488281</ele>
        <time>2016-07-14T13:32:12.000Z</time>
      </trkpt>
      <trkpt lat="44.599" lon="6.17969">
        <ele>1409.1999511719</ele>
        <time>2016-07-14T13:32:19.000Z</time>
      </trkpt>
      <trkpt lat="44.59909" lon="6.17957">
        <ele>1408.4000244141</ele>
        <time>2016-07-14T13:32:28.000Z</time>
      </trkpt>
      <trkpt lat="44.59913" lon="6.17944">
        <ele>1407.1999511719</ele>
        <time>2016-07-14T13:32:37.000Z</time>
      </trkpt>
      <trkpt lat="44.59916" lon="6.17936">
        <ele>1406.5999755859</ele>
        <time>2016-07-14T13:32:43.000Z</time>
      </trkpt>
      <trkpt lat="44.59917" lon="6.17935">
        <ele>1406.4000244141</ele>
        <time>2016-07-14T13:32:44.000Z</time>
      </trkpt>
      <trkpt lat="44.59922" lon="6.17928">
        <ele>1406.4000244141</ele>
        <time>2016-07-14T13:32:50.000Z</time>
      </trkpt>
      <trkpt lat="44.59932" lon="6.17922">
        <ele>1406.8000488281</ele>
        <time>2016-07-14T13:32:59.000Z</time>
      </trkpt>
      <trkpt lat="44.59935" lon="6.17919">
        <ele>1406.8000488281</ele>
        <time>2016-07-14T13:33:01.000Z</time>
      </trkpt>
      <trkpt lat="44.5993" lon="6.17912">
        <ele>1405.5999755859</ele>
        <time>2016-07-14T13:33:07.000Z</time>
      </trkpt>
      <trkpt lat="44.59927" lon="6.1791">
        <ele>1405.1999511719</ele>
        <time>2016-07-14T13:33:10.000Z</time>
      </trkpt>
      <trkpt lat="44.5992" lon="6.17907">
        <ele>1404</ele>
        <time>2016-07-14T13:33:19.000Z</time>
      </trkpt>
      <trkpt lat="44.59915" lon="6.17905">
        <ele>1403.5999755859</ele>
        <time>2016-07-14T13:33:24.000Z</time>
      </trkpt>
      <trkpt lat="44.59897" lon="6.179">
        <ele>1401.1999511719</ele>
        <time>2016-07-14T13:33:40.000Z</time>
      </trkpt>
      <trkpt lat="44.59886" lon="6.17896">
        <ele>1399.8000488281</ele>
        <time>2016-07-14T13:33:49.000Z</time>
      </trkpt>
      <trkpt lat="44.59879" lon="6.17894">
        <ele>1399</ele>
        <time>2016-07-14T13:33:55.000Z</time>
      </trkpt>
      <trkpt lat="44.59869" lon="6.17895">
        <ele>1398.1999511719</ele>
        <time>2016-07-14T13:34:04.000Z</time>
      </trkpt>
      <trkpt lat="44.5986" lon="6.17896">
        <ele>1396.8000488281</ele>
        <time>2016-07-14T13:34:10.000Z</time>
      </trkpt>
      <trkpt lat="44.59849" lon="6.17898">
        <ele>1395</ele>
        <time>2016-07-14T13:34:20.000Z</time>
      </trkpt>
      <trkpt lat="44.5984" lon="6.179">
        <ele>1393.4000244141</ele>
        <time>2016-07-14T13:34:28.000Z</time>
      </trkpt>
      <trkpt lat="44.5983" lon="6.17902">
        <ele>1391.8000488281</ele>
        <time>2016-07-14T13:34:35.000Z</time>
      </trkpt>
      <trkpt lat="44.5982" lon="6.17903">
        <ele>1390.1999511719</ele>
        <time>2016-07-14T13:34:43.000Z</time>
      </trkpt>
      <trkpt lat="44.59811" lon="6.17908">
        <ele>1389.1999511719</ele>
        <time>2016-07-14T13:34:52.000Z</time>
      </trkpt>
      <trkpt lat="44.59802" lon="6.17913">
        <ele>1388.1999511719</ele>
        <time>2016-07-14T13:35:00.000Z</time>
      </trkpt>
      <trkpt lat="44.59796" lon="6.17918">
        <ele>1387.4000244141</ele>
        <time>2016-07-14T13:35:07.000Z</time>
      </trkpt>
      <trkpt lat="44.59785" lon="6.1793">
        <ele>1386</ele>
        <time>2016-07-14T13:35:18.000Z</time>
      </trkpt>
      <trkpt lat="44.59778" lon="6.17943">
        <ele>1385.5999755859</ele>
        <time>2016-07-14T13:35:26.000Z</time>
      </trkpt>
      <trkpt lat="44.5977" lon="6.17959">
        <ele>1385.4000244141</ele>
        <time>2016-07-14T13:35:37.000Z</time>
      </trkpt>
      <trkpt lat="44.59752" lon="6.17986">
        <ele>1383</ele>
        <time>2016-07-14T13:35:58.000Z</time>
      </trkpt>
      <trkpt lat="44.59742" lon="6.17999">
        <ele>1381.5999755859</ele>
        <time>2016-07-14T13:36:08.000Z</time>
      </trkpt>
      <trkpt lat="44.59729" lon="6.18012">
        <ele>1380</ele>
        <time>2016-07-14T13:36:19.000Z</time>
      </trkpt>
      <trkpt lat="44.59714" lon="6.18027">
        <ele>1379.1999511719</ele>
        <time>2016-07-14T13:36:32.000Z</time>
      </trkpt>
      <trkpt lat="44.59704" lon="6.18039">
        <ele>1378.5999755859</ele>
        <time>2016-07-14T13:36:40.000Z</time>
      </trkpt>
      <trkpt lat="44.59697" lon="6.18048">
        <ele>1378.1999511719</ele>
        <time>2016-07-14T13:36:48.000Z</time>
      </trkpt>
      <trkpt lat="44.5969" lon="6.18058">
        <ele>1378.4000244141</ele>
        <time>2016-07-14T13:36:55.000Z</time>
      </trkpt>
      <trkpt lat="44.59682" lon="6.18067">
        <ele>1378.1999511719</ele>
        <time>2016-07-14T13:37:03.000Z</time>
      </trkpt>
      <trkpt lat="44.59671" lon="6.18077">
        <ele>1377.8000488281</ele>
        <time>2016-07-14T13:37:14.000Z</time>
      </trkpt>
      <trkpt lat="44.59659" lon="6.18084">
        <ele>1376.8000488281</ele>
        <time>2016-07-14T13:37:23.000Z</time>
      </trkpt>
      <trkpt lat="44.59648" lon="6.18091">
        <ele>1375.5999755859</ele>
        <time>2016-07-14T13:37:32.000Z</time>
      </trkpt>
      <trkpt lat="44.59635" lon="6.18097">
        <ele>1373</ele>
        <time>2016-07-14T13:37:42.000Z</time>
      </trkpt>
      <trkpt lat="44.59626" lon="6.18106">
        <ele>1371.4000244141</ele>
        <time>2016-07-14T13:37:50.000Z</time>
      </trkpt>
      <trkpt lat="44.59616" lon="6.18119">
        <ele>1370</ele>
        <time>2016-07-14T13:38:00.000Z</time>
      </trkpt>
      <trkpt lat="44.59607" lon="6.18134">
        <ele>1369.1999511719</ele>
        <time>2016-07-14T13:38:10.000Z</time>
      </trkpt>
      <trkpt lat="44.59598" lon="6.18148">
        <ele>1367.5999755859</ele>
        <time>2016-07-14T13:38:19.000Z</time>
      </trkpt>
      <trkpt lat="44.59593" lon="6.18156">
        <ele>1366.5999755859</ele>
        <time>2016-07-14T13:38:25.000Z</time>
      </trkpt>
      <trkpt lat="44.59589" lon="6.18165">
        <ele>1366</ele>
        <time>2016-07-14T13:38:30.000Z</time>
      </trkpt>
      <trkpt lat="44.59582" lon="6.18179">
        <ele>1365</ele>
        <time>2016-07-14T13:38:39.000Z</time>
      </trkpt>
      <trkpt lat="44.59575" lon="6.18193">
        <ele>1364</ele>
        <time>2016-07-14T13:38:47.000Z</time>
      </trkpt>
      <trkpt lat="44.59569" lon="6.18209">
        <ele>1363.4000244141</ele>
        <time>2016-07-14T13:38:55.000Z</time>
      </trkpt>
      <trkpt lat="44.59566" lon="6.18221">
        <ele>1363.1999511719</ele>
        <time>2016-07-14T13:39:03.000Z</time>
      </trkpt>
      <trkpt lat="44.59561" lon="6.18242">
        <ele>1362</ele>
        <time>2016-07-14T13:39:14.000Z</time>
      </trkpt>
      <trkpt lat="44.59557" lon="6.18258">
        <ele>1361</ele>
        <time>2016-07-14T13:39:23.000Z</time>
      </trkpt>
      <trkpt lat="44.59554" lon="6.18273">
        <ele>1360.1999511719</ele>
        <time>2016-07-14T13:39:31.000Z</time>
      </trkpt>
      <trkpt lat="44.59547" lon="6.18308">
        <ele>1358.1999511719</ele>
        <time>2016-07-14T13:39:50.000Z</time>
      </trkpt>
      <trkpt lat="44.59541" lon="6.18326">
        <ele>1357.8000488281</ele>
        <time>2016-07-14T13:40:01.000Z</time>
      </trkpt>
      <trkpt lat="44.59532" lon="6.18342">
        <ele>1356.5999755859</ele>
        <time>2016-07-14T13:40:13.000Z</time>
      </trkpt>
      <trkpt lat="44.59523" lon="6.18347">
        <ele>1355.4000244141</ele>
        <time>2016-07-14T13:40:20.000Z</time>
      </trkpt>
      <trkpt lat="44.59514" lon="6.18344">
        <ele>1353.4000244141</ele>
        <time>2016-07-14T13:40:28.000Z</time>
      </trkpt>
      <trkpt lat="44.59508" lon="6.18334">
        <ele>1351.4000244141</ele>
        <time>2016-07-14T13:40:36.000Z</time>
      </trkpt>
      <trkpt lat="44.59503" lon="6.18318">
        <ele>1349.4000244141</ele>
        <time>2016-07-14T13:40:45.000Z</time>
      </trkpt>
      <trkpt lat="44.59501" lon="6.183">
        <ele>1348.4000244141</ele>
        <time>2016-07-14T13:40:54.000Z</time>
      </trkpt>
      <trkpt lat="44.59497" lon="6.18285">
        <ele>1347.8000488281</ele>
        <time>2016-07-14T13:41:02.000Z</time>
      </trkpt>
      <trkpt lat="44.5949" lon="6.18273">
        <ele>1346.4000244141</ele>
        <time>2016-07-14T13:41:09.000Z</time>
      </trkpt>
      <trkpt lat="44.59478" lon="6.18262">
        <ele>1344.1999511719</ele>
        <time>2016-07-14T13:41:18.000Z</time>
      </trkpt>
      <trkpt lat="44.59468" lon="6.1825">
        <ele>1342</ele>
        <time>2016-07-14T13:41:27.000Z</time>
      </trkpt>
      <trkpt lat="44.59463" lon="6.18244">
        <ele>1341.1999511719</ele>
        <time>2016-07-14T13:41:30.000Z</time>
      </trkpt>
      <trkpt lat="44.5946" lon="6.18237">
        <ele>1340.5999755859</ele>
        <time>2016-07-14T13:41:35.000Z</time>
      </trkpt>
      <trkpt lat="44.59452" lon="6.18213">
        <ele>1338.1999511719</ele>
        <time>2016-07-14T13:41:48.000Z</time>
      </trkpt>
      <trkpt lat="44.59451" lon="6.18203">
        <ele>1337.4000244141</ele>
        <time>2016-07-14T13:41:54.000Z</time>
      </trkpt>
      <trkpt lat="44.59452" lon="6.18183">
        <ele>1336.4000244141</ele>
        <time>2016-07-14T13:42:04.000Z</time>
      </trkpt>
      <trkpt lat="44.59455" lon="6.18162">
        <ele>1335.8000488281</ele>
        <time>2016-07-14T13:42:15.000Z</time>
      </trkpt>
      <trkpt lat="44.59459" lon="6.18145">
        <ele>1335.4000244141</ele>
        <time>2016-07-14T13:42:24.000Z</time>
      </trkpt>
      <trkpt lat="44.59462" lon="6.18127">
        <ele>1335</ele>
        <time>2016-07-14T13:42:33.000Z</time>
      </trkpt>
      <trkpt lat="44.59464" lon="6.18114">
        <ele>1334.5999755859</ele>
        <time>2016-07-14T13:42:40.000Z</time>
      </trkpt>
      <trkpt lat="44.59468" lon="6.18097">
        <ele>1334.1999511719</ele>
        <time>2016-07-14T13:42:49.000Z</time>
      </trkpt>
      <trkpt lat="44.59471" lon="6.1808">
        <ele>1333.8000488281</ele>
        <time>2016-07-14T13:42:57.000Z</time>
      </trkpt>
      <trkpt lat="44.59472" lon="6.18066">
        <ele>1333.1999511719</ele>
        <time>2016-07-14T13:43:04.000Z</time>
      </trkpt>
      <trkpt lat="44.59473" lon="6.18046">
        <ele>1332.1999511719</ele>
        <time>2016-07-14T13:43:13.000Z</time>
      </trkpt>
      <trkpt lat="44.59473" lon="6.1802">
        <ele>1330.5999755859</ele>
        <time>2016-07-14T13:43:25.000Z</time>
      </trkpt>
      <trkpt lat="44.59469" lon="6.17996">
        <ele>1328.4000244141</ele>
        <time>2016-07-14T13:43:36.000Z</time>
      </trkpt>
      <trkpt lat="44.59464" lon="6.17984">
        <ele>1326.5999755859</ele>
        <time>2016-07-14T13:43:42.000Z</time>
      </trkpt>
      <trkpt lat="44.5946" lon="6.17969">
        <ele>1324.4000244141</ele>
        <time>2016-07-14T13:43:50.000Z</time>
      </trkpt>
      <trkpt lat="44.59458" lon="6.17955">
        <ele>1322.5999755859</ele>
        <time>2016-07-14T13:43:57.000Z</time>
      </trkpt>
      <trkpt lat="44.59461" lon="6.17939">
        <ele>1321.1999511719</ele>
        <time>2016-07-14T13:44:05.000Z</time>
      </trkpt>
      <trkpt lat="44.59468" lon="6.17919">
        <ele>1320</ele>
        <time>2016-07-14T13:44:16.000Z</time>
      </trkpt>
      <trkpt lat="44.59471" lon="6.17909">
        <ele>1319.5999755859</ele>
        <time>2016-07-14T13:44:21.000Z</time>
      </trkpt>
      <trkpt lat="44.59474" lon="6.17899">
        <ele>1319.5999755859</ele>
        <time>2016-07-14T13:44:25.000Z</time>
      </trkpt>
      <trkpt lat="44.59485" lon="6.17867">
        <ele>1319</ele>
        <time>2016-07-14T13:44:43.000Z</time>
      </trkpt>
      <trkpt lat="44.59492" lon="6.17845">
        <ele>1318.4000244141</ele>
        <time>2016-07-14T13:44:54.000Z</time>
      </trkpt>
      <trkpt lat="44.59497" lon="6.17825">
        <ele>1318.4000244141</ele>
        <time>2016-07-14T13:45:04.000Z</time>
      </trkpt>
      <trkpt lat="44.59498" lon="6.17807">
        <ele>1317.4000244141</ele>
        <time>2016-07-14T13:45:13.000Z</time>
      </trkpt>
      <trkpt lat="44.595" lon="6.17787">
        <ele>1316.4000244141</ele>
        <time>2016-07-14T13:45:22.000Z</time>
      </trkpt>
      <trkpt lat="44.595" lon="6.17771">
        <ele>1315.4000244141</ele>
        <time>2016-07-14T13:45:30.000Z</time>
      </trkpt>
      <trkpt lat="44.59499" lon="6.17753">
        <ele>1313.8000488281</ele>
        <time>2016-07-14T13:45:39.000Z</time>
      </trkpt>
      <trkpt lat="44.59498" lon="6.17728">
        <ele>1311.8000488281</ele>
        <time>2016-07-14T13:45:50.000Z</time>
      </trkpt>
      <trkpt lat="44.59496" lon="6.17708">
        <ele>1310.4000244141</ele>
        <time>2016-07-14T13:46:00.000Z</time>
      </trkpt>
      <trkpt lat="44.59497" lon="6.1769">
        <ele>1309.5999755859</ele>
        <time>2016-07-14T13:46:09.000Z</time>
      </trkpt>
      <trkpt lat="44.59498" lon="6.17671">
        <ele>1307.8000488281</ele>
        <time>2016-07-14T13:46:18.000Z</time>
      </trkpt>
      <trkpt lat="44.59497" lon="6.17666">
        <ele>1307.1999511719</ele>
        <time>2016-07-14T13:46:21.000Z</time>
      </trkpt>
      <trkpt lat="44.59494" lon="6.17663">
        <ele>1306.1999511719</ele>
        <time>2016-07-14T13:46:25.000Z</time>
      </trkpt>
      <trkpt lat="44.59492" lon="6.17664">
        <ele>1305.8000488281</ele>
        <time>2016-07-14T13:46:27.000Z</time>
      </trkpt>
      <trkpt lat="44.59488" lon="6.17685">
        <ele>1307</ele>
        <time>2016-07-14T13:46:38.000Z</time>
      </trkpt>
      <trkpt lat="44.59484" lon="6.17705">
        <ele>1306.8000488281</ele>
        <time>2016-07-14T13:46:49.000Z</time>
      </trkpt>
      <trkpt lat="44.59479" lon="6.17722">
        <ele>1306.1999511719</ele>
        <time>2016-07-14T13:46:58.000Z</time>
      </trkpt>
      <trkpt lat="44.5947" lon="6.17741">
        <ele>1305</ele>
        <time>2016-07-14T13:47:10.000Z</time>
      </trkpt>
      <trkpt lat="44.5946" lon="6.1776">
        <ele>1303.5999755859</ele>
        <time>2016-07-14T13:47:22.000Z</time>
      </trkpt>
      <trkpt lat="44.5945" lon="6.17777">
        <ele>1302</ele>
        <time>2016-07-14T13:47:33.000Z</time>
      </trkpt>
      <trkpt lat="44.59433" lon="6.17807">
        <ele>1299.8000488281</ele>
        <time>2016-07-14T13:47:52.000Z</time>
      </trkpt>
      <trkpt lat="44.59427" lon="6.17819">
        <ele>1299.1999511719</ele>
        <time>2016-07-14T13:48:00.000Z</time>
      </trkpt>
      <trkpt lat="44.59426" lon="6.17819">
        <ele>1299</ele>
        <time>2016-07-14T13:48:01.000Z</time>
      </trkpt>
      <trkpt lat="44.59419" lon="6.17814">
        <ele>1296.8000488281</ele>
        <time>2016-07-14T13:48:06.000Z</time>
      </trkpt>
      <trkpt lat="44.59419" lon="6.17811">
        <ele>1296.1999511719</ele>
        <time>2016-07-14T13:48:08.000Z</time>
      </trkpt>
      <trkpt lat="44.59419" lon="6.17803">
        <ele>1295.8000488281</ele>
        <time>2016-07-14T13:48:12.000Z</time>
      </trkpt>
      <trkpt lat="44.59422" lon="6.17785">
        <ele>1295</ele>
        <time>2016-07-14T13:48:21.000Z</time>
      </trkpt>
      <trkpt lat="44.59419" lon="6.17767">
        <ele>1292.8000488281</ele>
        <time>2016-07-14T13:48:30.000Z</time>
      </trkpt>
      <trkpt lat="44.59413" lon="6.17747">
        <ele>1289.8000488281</ele>
        <time>2016-07-14T13:48:41.000Z</time>
      </trkpt>
      <trkpt lat="44.5941" lon="6.1773">
        <ele>1287.5999755859</ele>
        <time>2016-07-14T13:48:50.000Z</time>
      </trkpt>
      <trkpt lat="44.59406" lon="6.17709">
        <ele>1285</ele>
        <time>2016-07-14T13:49:00.000Z</time>
      </trkpt>
      <trkpt lat="44.59403" lon="6.17691">
        <ele>1282.5999755859</ele>
        <time>2016-07-14T13:49:09.000Z</time>
      </trkpt>
      <trkpt lat="44.59399" lon="6.17669">
        <ele>1279.8000488281</ele>
        <time>2016-07-14T13:49:20.000Z</time>
      </trkpt>
      <trkpt lat="44.59397" lon="6.17655">
        <ele>1278.4000244141</ele>
        <time>2016-07-14T13:49:28.000Z</time>
      </trkpt>
      <trkpt lat="44.59393" lon="6.1763">
        <ele>1276.5999755859</ele>
        <time>2016-07-14T13:49:41.000Z</time>
      </trkpt>
      <trkpt lat="44.59391" lon="6.17611">
        <ele>1275.5999755859</ele>
        <time>2016-07-14T13:49:50.000Z</time>
      </trkpt>
      <trkpt lat="44.59389" lon="6.17593">
        <ele>1275</ele>
        <time>2016-07-14T13:49:59.000Z</time>
      </trkpt>
      <trkpt lat="44.5939" lon="6.17566">
        <ele>1274.1999511719</ele>
        <time>2016-07-14T13:50:12.000Z</time>
      </trkpt>
      <trkpt lat="44.59397" lon="6.17551">
        <ele>1275.4000244141</ele>
        <time>2016-07-14T13:50:21.000Z</time>
      </trkpt>
      <trkpt lat="44.59413" lon="6.17552">
        <ele>1280</ele>
        <time>2016-07-14T13:50:33.000Z</time>
      </trkpt>
      <trkpt lat="44.59419" lon="6.17536">
        <ele>1281.1999511719</ele>
        <time>2016-07-14T13:50:45.000Z</time>
      </trkpt>
      <trkpt lat="44.59418" lon="6.17522">
        <ele>1280.1999511719</ele>
        <time>2016-07-14T13:50:52.000Z</time>
      </trkpt>
      <trkpt lat="44.59415" lon="6.17507">
        <ele>1278.5999755859</ele>
        <time>2016-07-14T13:51:00.000Z</time>
      </trkpt>
      <trkpt lat="44.59408" lon="6.17492">
        <ele>1275.8000488281</ele>
        <time>2016-07-14T13:51:09.000Z</time>
      </trkpt>
      <trkpt lat="44.59402" lon="6.17482">
        <ele>1273.5999755859</ele>
        <time>2016-07-14T13:51:16.000Z</time>
      </trkpt>
      <trkpt lat="44.59394" lon="6.17469">
        <ele>1271.5999755859</ele>
        <time>2016-07-14T13:51:24.000Z</time>
      </trkpt>
      <trkpt lat="44.59386" lon="6.17459">
        <ele>1269.8000488281</ele>
        <time>2016-07-14T13:51:31.000Z</time>
      </trkpt>
      <trkpt lat="44.59374" lon="6.17438">
        <ele>1266.8000488281</ele>
        <time>2016-07-14T13:51:42.000Z</time>
      </trkpt>
      <trkpt lat="44.59367" lon="6.17427">
        <ele>1265.4000244141</ele>
        <time>2016-07-14T13:51:49.000Z</time>
      </trkpt>
      <trkpt lat="44.59366" lon="6.17425">
        <ele>1265.1999511719</ele>
        <time>2016-07-14T13:51:50.000Z</time>
      </trkpt>
      <trkpt lat="44.59356" lon="6.17416">
        <ele>1263.8000488281</ele>
        <time>2016-07-14T13:51:58.000Z</time>
      </trkpt>
      <trkpt lat="44.59347" lon="6.17405">
        <ele>1262.5999755859</ele>
        <time>2016-07-14T13:52:06.000Z</time>
      </trkpt>
      <trkpt lat="44.59341" lon="6.17389">
        <ele>1261.8000488281</ele>
        <time>2016-07-14T13:52:15.000Z</time>
      </trkpt>
      <trkpt lat="44.59338" lon="6.17372">
        <ele>1261.5999755859</ele>
        <time>2016-07-14T13:52:23.000Z</time>
      </trkpt>
      <trkpt lat="44.59332" lon="6.17355">
        <ele>1261</ele>
        <time>2016-07-14T13:52:32.000Z</time>
      </trkpt>
      <trkpt lat="44.59325" lon="6.17341">
        <ele>1260.4000244141</ele>
        <time>2016-07-14T13:52:40.000Z</time>
      </trkpt>
      <trkpt lat="44.59314" lon="6.17339">
        <ele>1258.1999511719</ele>
        <time>2016-07-14T13:52:48.000Z</time>
      </trkpt>
      <trkpt lat="44.59303" lon="6.17328">
        <ele>1256.5999755859</ele>
        <time>2016-07-14T13:52:57.000Z</time>
      </trkpt>
      <trkpt lat="44.59295" lon="6.17312">
        <ele>1256.1999511719</ele>
        <time>2016-07-14T13:53:06.000Z</time>
      </trkpt>
      <trkpt lat="44.59287" lon="6.17293">
        <ele>1254.4000244141</ele>
        <time>2016-07-14T13:53:17.000Z</time>
      </trkpt>
      <trkpt lat="44.59282" lon="6.1728">
        <ele>1253.1999511719</ele>
        <time>2016-07-14T13:53:25.000Z</time>
      </trkpt>
      <trkpt lat="44.59275" lon="6.17262">
        <ele>1251.8000488281</ele>
        <time>2016-07-14T13:53:34.000Z</time>
      </trkpt>
      <trkpt lat="44.59269" lon="6.17243">
        <ele>1250.1999511719</ele>
        <time>2016-07-14T13:53:44.000Z</time>
      </trkpt>
      <trkpt lat="44.59264" lon="6.17226">
        <ele>1248.8000488281</ele>
        <time>2016-07-14T13:53:53.000Z</time>
      </trkpt>
      <trkpt lat="44.59263" lon="6.17211">
        <ele>1248</ele>
        <time>2016-07-14T13:54:00.000Z</time>
      </trkpt>
      <trkpt lat="44.59268" lon="6.17198">
        <ele>1248.5999755859</ele>
        <time>2016-07-14T13:54:08.000Z</time>
      </trkpt>
      <trkpt lat="44.59269" lon="6.17196">
        <ele>1248.5999755859</ele>
        <time>2016-07-14T13:54:09.000Z</time>
      </trkpt>
      <trkpt lat="44.59263" lon="6.17187">
        <ele>1246.8000488281</ele>
        <time>2016-07-14T13:54:17.000Z</time>
      </trkpt>
      <trkpt lat="44.59261" lon="6.17186">
        <ele>1246.1999511719</ele>
        <time>2016-07-14T13:54:19.000Z</time>
      </trkpt>
      <trkpt lat="44.59254" lon="6.1719">
        <ele>1244.8000488281</ele>
        <time>2016-07-14T13:54:24.000Z</time>
      </trkpt>
      <trkpt lat="44.59248" lon="6.17208">
        <ele>1244.1999511719</ele>
        <time>2016-07-14T13:54:34.000Z</time>
      </trkpt>
      <trkpt lat="44.59244" lon="6.17231">
        <ele>1244.1999511719</ele>
        <time>2016-07-14T13:54:46.000Z</time>
      </trkpt>
      <trkpt lat="44.59242" lon="6.17248">
        <ele>1243.8000488281</ele>
        <time>2016-07-14T13:54:55.000Z</time>
      </trkpt>
      <trkpt lat="44.5924" lon="6.17264">
        <ele>1243.1999511719</ele>
        <time>2016-07-14T13:55:03.000Z</time>
      </trkpt>
      <trkpt lat="44.59235" lon="6.17282">
        <ele>1243</ele>
        <time>2016-07-14T13:55:13.000Z</time>
      </trkpt>
      <trkpt lat="44.59229" lon="6.17297">
        <ele>1242.5999755859</ele>
        <time>2016-07-14T13:55:21.000Z</time>
      </trkpt>
      <trkpt lat="44.59223" lon="6.17309">
        <ele>1242</ele>
        <time>2016-07-14T13:55:29.000Z</time>
      </trkpt>
      <trkpt lat="44.59216" lon="6.17322">
        <ele>1240.8000488281</ele>
        <time>2016-07-14T13:55:38.000Z</time>
      </trkpt>
      <trkpt lat="44.5921" lon="6.17335">
        <ele>1239.5999755859</ele>
        <time>2016-07-14T13:55:46.000Z</time>
      </trkpt>
      <trkpt lat="44.59201" lon="6.1735">
        <ele>1238</ele>
        <time>2016-07-14T13:55:55.000Z</time>
      </trkpt>
      <trkpt lat="44.59189" lon="6.17374">
        <ele>1235.8000488281</ele>
        <time>2016-07-14T13:56:10.000Z</time>
      </trkpt>
      <trkpt lat="44.59188" lon="6.17389">
        <ele>1235.5999755859</ele>
        <time>2016-07-14T13:56:18.000Z</time>
      </trkpt>
      <trkpt lat="44.59183" lon="6.17392">
        <ele>1234.5999755859</ele>
        <time>2016-07-14T13:56:23.000Z</time>
      </trkpt>
      <trkpt lat="44.59178" lon="6.17395">
        <ele>1233.8000488281</ele>
        <time>2016-07-14T13:57:01.000Z</time>
      </trkpt>
      <trkpt lat="44.59178" lon="6.17397">
        <ele>1233.8000488281</ele>
        <time>2016-07-14T13:57:02.000Z</time>
      </trkpt>
      <trkpt lat="44.59178" lon="6.17413">
        <ele>1234</ele>
        <time>2016-07-14T13:57:10.000Z</time>
      </trkpt>
      <trkpt lat="44.59177" lon="6.17425">
        <ele>1234</ele>
        <time>2016-07-14T13:57:16.000Z</time>
      </trkpt>
      <trkpt lat="44.59177" lon="6.17429">
        <ele>1234</ele>
        <time>2016-07-14T13:57:18.000Z</time>
      </trkpt>
      <trkpt lat="44.59173" lon="6.17435">
        <ele>1233.4000244141</ele>
        <time>2016-07-14T13:57:22.000Z</time>
      </trkpt>
      <trkpt lat="44.59163" lon="6.17445">
        <ele>1231.8000488281</ele>
        <time>2016-07-14T13:57:32.000Z</time>
      </trkpt>
      <trkpt lat="44.5916" lon="6.17449">
        <ele>1231.4000244141</ele>
        <time>2016-07-14T13:57:35.000Z</time>
      </trkpt>
      <trkpt lat="44.59158" lon="6.17452">
        <ele>1231</ele>
        <time>2016-07-14T13:57:42.000Z</time>
      </trkpt>
      <trkpt lat="44.59154" lon="6.1746">
        <ele>1230.5999755859</ele>
        <time>2016-07-14T13:57:47.000Z</time>
      </trkpt>
      <trkpt lat="44.5915" lon="6.17471">
        <ele>1230.1999511719</ele>
        <time>2016-07-14T13:57:53.000Z</time>
      </trkpt>
      <trkpt lat="44.59142" lon="6.17469">
        <ele>1228.8000488281</ele>
        <time>2016-07-14T13:58:01.000Z</time>
      </trkpt>
      <trkpt lat="44.59141" lon="6.17467">
        <ele>1228.5999755859</ele>
        <time>2016-07-14T13:58:02.000Z</time>
      </trkpt>
      <trkpt lat="44.59137" lon="6.17456">
        <ele>1227.5999755859</ele>
        <time>2016-07-14T13:58:10.000Z</time>
      </trkpt>
      <trkpt lat="44.59129" lon="6.17453">
        <ele>1226.1999511719</ele>
        <time>2016-07-14T13:58:17.000Z</time>
      </trkpt>
      <trkpt lat="44.59123" lon="6.17453">
        <ele>1225.1999511719</ele>
        <time>2016-07-14T13:58:22.000Z</time>
      </trkpt>
      <trkpt lat="44.59117" lon="6.17454">
        <ele>1224.1999511719</ele>
        <time>2016-07-14T13:58:27.000Z</time>
      </trkpt>
      <trkpt lat="44.59104" lon="6.17457">
        <ele>1222.1999511719</ele>
        <time>2016-07-14T13:58:38.000Z</time>
      </trkpt>
      <trkpt lat="44.59093" lon="6.17459">
        <ele>1220.4000244141</ele>
        <time>2016-07-14T13:58:46.000Z</time>
      </trkpt>
      <trkpt lat="44.59082" lon="6.1746">
        <ele>1218.1999511719</ele>
        <time>2016-07-14T13:58:54.000Z</time>
      </trkpt>
      <trkpt lat="44.59072" lon="6.17466">
        <ele>1216.1999511719</ele>
        <time>2016-07-14T13:59:02.000Z</time>
      </trkpt>
      <trkpt lat="44.59062" lon="6.17471">
        <ele>1214.1999511719</ele>
        <time>2016-07-14T13:59:10.000Z</time>
      </trkpt>
      <trkpt lat="44.59056" lon="6.17475">
        <ele>1213</ele>
        <time>2016-07-14T13:59:15.000Z</time>
      </trkpt>
      <trkpt lat="44.59043" lon="6.1748">
        <ele>1210.8000488281</ele>
        <time>2016-07-14T13:59:24.000Z</time>
      </trkpt>
      <trkpt lat="44.59038" lon="6.17474">
        <ele>1209.5999755859</ele>
        <time>2016-07-14T13:59:32.000Z</time>
      </trkpt>
      <trkpt lat="44.59038" lon="6.17473">
        <ele>1209.5999755859</ele>
        <time>2016-07-14T13:59:38.000Z</time>
      </trkpt>
      <trkpt lat="44.59037" lon="6.17473">
        <ele>1209.4000244141</ele>
        <time>2016-07-14T14:00:09.000Z</time>
      </trkpt>
      <trkpt lat="44.59034" lon="6.17478">
        <ele>1208.8000488281</ele>
        <time>2016-07-14T14:00:13.000Z</time>
      </trkpt>
      <trkpt lat="44.59023" lon="6.17484">
        <ele>1207.1999511719</ele>
        <time>2016-07-14T14:00:21.000Z</time>
      </trkpt>
      <trkpt lat="44.59015" lon="6.17493">
        <ele>1206</ele>
        <time>2016-07-14T14:00:28.000Z</time>
      </trkpt>
      <trkpt lat="44.59009" lon="6.17505">
        <ele>1205.5999755859</ele>
        <time>2016-07-14T14:00:36.000Z</time>
      </trkpt>
      <trkpt lat="44.59004" lon="6.1752">
        <ele>1205.4000244141</ele>
        <time>2016-07-14T14:00:44.000Z</time>
      </trkpt>
      <trkpt lat="44.58998" lon="6.17538">
        <ele>1204.8000488281</ele>
        <time>2016-07-14T14:00:54.000Z</time>
      </trkpt>
      <trkpt lat="44.58995" lon="6.17555">
        <ele>1204.4000244141</ele>
        <time>2016-07-14T14:01:03.000Z</time>
      </trkpt>
      <trkpt lat="44.58993" lon="6.17571">
        <ele>1203.8000488281</ele>
        <time>2016-07-14T14:01:11.000Z</time>
      </trkpt>
      <trkpt lat="44.5899" lon="6.17586">
        <ele>1203</ele>
        <time>2016-07-14T14:01:19.000Z</time>
      </trkpt>
      <trkpt lat="44.58986" lon="6.17611">
        <ele>1202.1999511719</ele>
        <time>2016-07-14T14:01:32.000Z</time>
      </trkpt>
      <trkpt lat="44.58983" lon="6.17648">
        <ele>1202.1999511719</ele>
        <time>2016-07-14T14:01:51.000Z</time>
      </trkpt>
      <trkpt lat="44.58982" lon="6.17651">
        <ele>1202</ele>
        <time>2016-07-14T14:01:53.000Z</time>
      </trkpt>
      <trkpt lat="44.58981" lon="6.17656">
        <ele>1202</ele>
        <time>2016-07-14T14:01:57.000Z</time>
      </trkpt>
      <trkpt lat="44.58982" lon="6.17655">
        <ele>1202</ele>
        <time>2016-07-14T14:02:02.000Z</time>
      </trkpt>
      <trkpt lat="44.58981" lon="6.17661">
        <ele>1202.1999511719</ele>
        <time>2016-07-14T14:02:10.000Z</time>
      </trkpt>
      <trkpt lat="44.58979" lon="6.17673">
        <ele>1202</ele>
        <time>2016-07-14T14:02:17.000Z</time>
      </trkpt>
      <trkpt lat="44.58976" lon="6.17685">
        <ele>1202</ele>
        <time>2016-07-14T14:02:24.000Z</time>
      </trkpt>
      <trkpt lat="44.5897" lon="6.17705">
        <ele>1202</ele>
        <time>2016-07-14T14:02:35.000Z</time>
      </trkpt>
      <trkpt lat="44.58964" lon="6.1772">
        <ele>1201.5999755859</ele>
        <time>2016-07-14T14:02:44.000Z</time>
      </trkpt>
      <trkpt lat="44.58953" lon="6.17739">
        <ele>1201</ele>
        <time>2016-07-14T14:02:56.000Z</time>
      </trkpt>
      <trkpt lat="44.58945" lon="6.1775">
        <ele>1200.8000488281</ele>
        <time>2016-07-14T14:03:04.000Z</time>
      </trkpt>
      <trkpt lat="44.58935" lon="6.17763">
        <ele>1200</ele>
        <time>2016-07-14T14:03:14.000Z</time>
      </trkpt>
      <trkpt lat="44.58924" lon="6.17775">
        <ele>1199</ele>
        <time>2016-07-14T14:03:24.000Z</time>
      </trkpt>
      <trkpt lat="44.58911" lon="6.17791">
        <ele>1198</ele>
        <time>2016-07-14T14:03:36.000Z</time>
      </trkpt>
      <trkpt lat="44.58901" lon="6.17807">
        <ele>1197.5999755859</ele>
        <time>2016-07-14T14:03:47.000Z</time>
      </trkpt>
      <trkpt lat="44.58896" lon="6.17818">
        <ele>1197.4000244141</ele>
        <time>2016-07-14T14:03:54.000Z</time>
      </trkpt>
      <trkpt lat="44.58891" lon="6.17827">
        <ele>1196.8000488281</ele>
        <time>2016-07-14T14:04:00.000Z</time>
      </trkpt>
      <trkpt lat="44.58887" lon="6.17832">
        <ele>1196.4000244141</ele>
        <time>2016-07-14T14:04:04.000Z</time>
      </trkpt>
      <trkpt lat="44.58881" lon="6.17843">
        <ele>1196</ele>
        <time>2016-07-14T14:04:12.000Z</time>
      </trkpt>
      <trkpt lat="44.58875" lon="6.17856">
        <ele>1195.8000488281</ele>
        <time>2016-07-14T14:04:20.000Z</time>
      </trkpt>
      <trkpt lat="44.5887" lon="6.17867">
        <ele>1195.8000488281</ele>
        <time>2016-07-14T14:04:27.000Z</time>
      </trkpt>
      <trkpt lat="44.58864" lon="6.17884">
        <ele>1195.5999755859</ele>
        <time>2016-07-14T14:04:37.000Z</time>
      </trkpt>
      <trkpt lat="44.58861" lon="6.17903">
        <ele>1196.1999511719</ele>
        <time>2016-07-14T14:04:47.000Z</time>
      </trkpt>
      <trkpt lat="44.58857" lon="6.17919">
        <ele>1196.1999511719</ele>
        <time>2016-07-14T14:04:56.000Z</time>
      </trkpt>
      <trkpt lat="44.58852" lon="6.17936">
        <ele>1196</ele>
        <time>2016-07-14T14:05:05.000Z</time>
      </trkpt>
      <trkpt lat="44.58847" lon="6.17952">
        <ele>1196</ele>
        <time>2016-07-14T14:05:13.000Z</time>
      </trkpt>
      <trkpt lat="44.58846" lon="6.1797">
        <ele>1196</ele>
        <time>2016-07-14T14:05:22.000Z</time>
      </trkpt>
      <trkpt lat="44.58841" lon="6.17986">
        <ele>1195</ele>
        <time>2016-07-14T14:05:31.000Z</time>
      </trkpt>
      <trkpt lat="44.58834" lon="6.17999">
        <ele>1193.1999511719</ele>
        <time>2016-07-14T14:05:40.000Z</time>
      </trkpt>
      <trkpt lat="44.5883" lon="6.18016">
        <ele>1192.4000244141</ele>
        <time>2016-07-14T14:05:49.000Z</time>
      </trkpt>
      <trkpt lat="44.58829" lon="6.18031">
        <ele>1192</ele>
        <time>2016-07-14T14:05:58.000Z</time>
      </trkpt>
      <trkpt lat="44.58824" lon="6.18041">
        <ele>1191.1999511719</ele>
        <time>2016-07-14T14:06:05.000Z</time>
      </trkpt>
      <trkpt lat="44.58813" lon="6.18049">
        <ele>1189.4000244141</ele>
        <time>2016-07-14T14:06:14.000Z</time>
      </trkpt>
      <trkpt lat="44.58807" lon="6.18055">
        <ele>1188.1999511719</ele>
        <time>2016-07-14T14:06:20.000Z</time>
      </trkpt>
      <trkpt lat="44.58803" lon="6.18066">
        <ele>1187.8000488281</ele>
        <time>2016-07-14T14:06:26.000Z</time>
      </trkpt>
      <trkpt lat="44.58805" lon="6.18083">
        <ele>1189.1999511719</ele>
        <time>2016-07-14T14:06:34.000Z</time>
      </trkpt>
      <trkpt lat="44.58804" lon="6.1809">
        <ele>1189.5999755859</ele>
        <time>2016-07-14T14:06:41.000Z</time>
      </trkpt>
      <trkpt lat="44.58801" lon="6.18095">
        <ele>1189.1999511719</ele>
        <time>2016-07-14T14:06:55.000Z</time>
      </trkpt>
      <trkpt lat="44.58792" lon="6.18111">
        <ele>1189</ele>
        <time>2016-07-14T14:07:06.000Z</time>
      </trkpt>
      <trkpt lat="44.58783" lon="6.18127">
        <ele>1188.4000244141</ele>
        <time>2016-07-14T14:07:16.000Z</time>
      </trkpt>
      <trkpt lat="44.58775" lon="6.18135">
        <ele>1187.5999755859</ele>
        <time>2016-07-14T14:07:24.000Z</time>
      </trkpt>
      <trkpt lat="44.58774" lon="6.18136">
        <ele>1187.4000244141</ele>
        <time>2016-07-14T14:07:25.000Z</time>
      </trkpt>
      <trkpt lat="44.58771" lon="6.18136">
        <ele>1186.8000488281</ele>
        <time>2016-07-14T14:07:28.000Z</time>
      </trkpt>
      <trkpt lat="44.58766" lon="6.18141">
        <ele>1186</ele>
        <time>2016-07-14T14:07:32.000Z</time>
      </trkpt>
      <trkpt lat="44.58753" lon="6.18153">
        <ele>1184.4000244141</ele>
        <time>2016-07-14T14:07:43.000Z</time>
      </trkpt>
      <trkpt lat="44.58743" lon="6.18166">
        <ele>1183.8000488281</ele>
        <time>2016-07-14T14:07:53.000Z</time>
      </trkpt>
      <trkpt lat="44.58737" lon="6.18181">
        <ele>1184.1999511719</ele>
        <time>2016-07-14T14:08:03.000Z</time>
      </trkpt>
      <trkpt lat="44.58734" lon="6.18194">
        <ele>1183.5999755859</ele>
        <time>2016-07-14T14:08:10.000Z</time>
      </trkpt>
      <trkpt lat="44.5873" lon="6.18209">
        <ele>1183.1999511719</ele>
        <time>2016-07-14T14:08:19.000Z</time>
      </trkpt>
      <trkpt lat="44.58727" lon="6.18226">
        <ele>1183</ele>
        <time>2016-07-14T14:08:28.000Z</time>
      </trkpt>
      <trkpt lat="44.58721" lon="6.18246">
        <ele>1182.1999511719</ele>
        <time>2016-07-14T14:08:40.000Z</time>
      </trkpt>
      <trkpt lat="44.58716" lon="6.18261">
        <ele>1181.1999511719</ele>
        <time>2016-07-14T14:08:49.000Z</time>
      </trkpt>
      <trkpt lat="44.58709" lon="6.18273">
        <ele>1179.5999755859</ele>
        <time>2016-07-14T14:08:57.000Z</time>
      </trkpt>
      <trkpt lat="44.58707" lon="6.18288">
        <ele>1179.5999755859</ele>
        <time>2016-07-14T14:09:05.000Z</time>
      </trkpt>
      <trkpt lat="44.58706" lon="6.18307">
        <ele>1180.1999511719</ele>
        <time>2016-07-14T14:09:14.000Z</time>
      </trkpt>
      <trkpt lat="44.58706" lon="6.18328">
        <ele>1180.5999755859</ele>
        <time>2016-07-14T14:09:24.000Z</time>
      </trkpt>
      <trkpt lat="44.58704" lon="6.18348">
        <ele>1180.5999755859</ele>
        <time>2016-07-14T14:09:34.000Z</time>
      </trkpt>
      <trkpt lat="44.58701" lon="6.18369">
        <ele>1180.1999511719</ele>
        <time>2016-07-14T14:09:44.000Z</time>
      </trkpt>
      <trkpt lat="44.587" lon="6.18385">
        <ele>1180.4000244141</ele>
        <time>2016-07-14T14:09:53.000Z</time>
      </trkpt>
      <trkpt lat="44.58697" lon="6.18406">
        <ele>1180.1999511719</ele>
        <time>2016-07-14T14:10:04.000Z</time>
      </trkpt>
      <trkpt lat="44.58693" lon="6.18421">
        <ele>1179.8000488281</ele>
        <time>2016-07-14T14:10:12.000Z</time>
      </trkpt>
      <trkpt lat="44.58689" lon="6.18446">
        <ele>1179.1999511719</ele>
        <time>2016-07-14T14:10:25.000Z</time>
      </trkpt>
      <trkpt lat="44.58685" lon="6.18469">
        <ele>1178.8000488281</ele>
        <time>2016-07-14T14:10:37.000Z</time>
      </trkpt>
      <trkpt lat="44.58681" lon="6.18486">
        <ele>1178.5999755859</ele>
        <time>2016-07-14T14:10:46.000Z</time>
      </trkpt>
      <trkpt lat="44.58681" lon="6.18504">
        <ele>1179.5999755859</ele>
        <time>2016-07-14T14:10:55.000Z</time>
      </trkpt>
      <trkpt lat="44.58682" lon="6.18514">
        <ele>1180.1999511719</ele>
        <time>2016-07-14T14:11:00.000Z</time>
      </trkpt>
      <trkpt lat="44.58677" lon="6.1853">
        <ele>1180.1999511719</ele>
        <time>2016-07-14T14:11:06.000Z</time>
      </trkpt>
      <trkpt lat="44.58674" lon="6.18535">
        <ele>1179.8000488281</ele>
        <time>2016-07-14T14:11:09.000Z</time>
      </trkpt>
      <trkpt lat="44.58672" lon="6.18542">
        <ele>1179.4000244141</ele>
        <time>2016-07-14T14:11:13.000Z</time>
      </trkpt>
      <trkpt lat="44.58664" lon="6.18553">
        <ele>1178.1999511719</ele>
        <time>2016-07-14T14:11:21.000Z</time>
      </trkpt>
      <trkpt lat="44.58658" lon="6.18558">
        <ele>1177.1999511719</ele>
        <time>2016-07-14T14:11:27.000Z</time>
      </trkpt>
      <trkpt lat="44.5865" lon="6.18563">
        <ele>1175.8000488281</ele>
        <time>2016-07-14T14:11:34.000Z</time>
      </trkpt>
      <trkpt lat="44.58643" lon="6.18573">
        <ele>1175.1999511719</ele>
        <time>2016-07-14T14:11:41.000Z</time>
      </trkpt>
      <trkpt lat="44.5864" lon="6.18582">
        <ele>1175.4000244141</ele>
        <time>2016-07-14T14:11:48.000Z</time>
      </trkpt>
      <trkpt lat="44.58637" lon="6.18593">
        <ele>1176</ele>
        <time>2016-07-14T14:11:54.000Z</time>
      </trkpt>
      <trkpt lat="44.58634" lon="6.18602">
        <ele>1176.4000244141</ele>
        <time>2016-07-14T14:12:00.000Z</time>
      </trkpt>
      <trkpt lat="44.5863" lon="6.18611">
        <ele>1176.8000488281</ele>
        <time>2016-07-14T14:12:06.000Z</time>
      </trkpt>
      <trkpt lat="44.58627" lon="6.18626">
        <ele>1177.5999755859</ele>
        <time>2016-07-14T14:12:15.000Z</time>
      </trkpt>
      <trkpt lat="44.58626" lon="6.1863">
        <ele>1178</ele>
        <time>2016-07-14T14:12:20.000Z</time>
      </trkpt>
      <trkpt lat="44.58626" lon="6.1864">
        <ele>1179</ele>
        <time>2016-07-14T14:12:26.000Z</time>
      </trkpt>
      <trkpt lat="44.58625" lon="6.18657">
        <ele>1180</ele>
        <time>2016-07-14T14:12:35.000Z</time>
      </trkpt>
      <trkpt lat="44.58624" lon="6.18664">
        <ele>1180</ele>
        <time>2016-07-14T14:12:40.000Z</time>
      </trkpt>
      <trkpt lat="44.58626" lon="6.18674">
        <ele>1180.5999755859</ele>
        <time>2016-07-14T14:12:47.000Z</time>
      </trkpt>
      <trkpt lat="44.58626" lon="6.18688">
        <ele>1181.1999511719</ele>
        <time>2016-07-14T14:12:55.000Z</time>
      </trkpt>
      <trkpt lat="44.58625" lon="6.18698">
        <ele>1181.4000244141</ele>
        <time>2016-07-14T14:13:02.000Z</time>
      </trkpt>
      <trkpt lat="44.58622" lon="6.18711">
        <ele>1181.1999511719</ele>
        <time>2016-07-14T14:13:10.000Z</time>
      </trkpt>
      <trkpt lat="44.5862" lon="6.18724">
        <ele>1181.1999511719</ele>
        <time>2016-07-14T14:13:17.000Z</time>
      </trkpt>
      <trkpt lat="44.58618" lon="6.18738">
        <ele>1181.4000244141</ele>
        <time>2016-07-14T14:13:24.000Z</time>
      </trkpt>
      <trkpt lat="44.58616" lon="6.18749">
        <ele>1181.4000244141</ele>
        <time>2016-07-14T14:13:30.000Z</time>
      </trkpt>
      <trkpt lat="44.58623" lon="6.18753">
        <ele>1183</ele>
        <time>2016-07-14T14:13:37.000Z</time>
      </trkpt>
      <trkpt lat="44.58636" lon="6.1876">
        <ele>1186.5999755859</ele>
        <time>2016-07-14T14:13:49.000Z</time>
      </trkpt>
      <trkpt lat="44.58638" lon="6.18766">
        <ele>1187</ele>
        <time>2016-07-14T14:13:52.000Z</time>
      </trkpt>
      <trkpt lat="44.5864" lon="6.18771">
        <ele>1187.5999755859</ele>
        <time>2016-07-14T14:13:56.000Z</time>
      </trkpt>
      <trkpt lat="44.58637" lon="6.18785">
        <ele>1187.5999755859</ele>
        <time>2016-07-14T14:14:03.000Z</time>
      </trkpt>
      <trkpt lat="44.5864" lon="6.18796">
        <ele>1188.5999755859</ele>
        <time>2016-07-14T14:14:10.000Z</time>
      </trkpt>
      <trkpt lat="44.5864" lon="6.18797">
        <ele>1188.8000488281</ele>
        <time>2016-07-14T14:14:11.000Z</time>
      </trkpt>
      <trkpt lat="44.58641" lon="6.188">
        <ele>1189.1999511719</ele>
        <time>2016-07-14T14:14:13.000Z</time>
      </trkpt>
      <trkpt lat="44.58642" lon="6.18808">
        <ele>1189.4000244141</ele>
        <time>2016-07-14T14:14:18.000Z</time>
      </trkpt>
      <trkpt lat="44.58642" lon="6.18811">
        <ele>1189.5999755859</ele>
        <time>2016-07-14T14:14:20.000Z</time>
      </trkpt>
      <trkpt lat="44.58641" lon="6.18814">
        <ele>1189.8000488281</ele>
        <time>2016-07-14T14:14:23.000Z</time>
      </trkpt>
      <trkpt lat="44.58642" lon="6.18819">
        <ele>1190.4000244141</ele>
        <time>2016-07-14T14:14:28.000Z</time>
      </trkpt>
      <trkpt lat="44.58641" lon="6.1882">
        <ele>1190.4000244141</ele>
        <time>2016-07-14T14:14:29.000Z</time>
      </trkpt>
      <trkpt lat="44.5864" lon="6.18831">
        <ele>1190.8000488281</ele>
        <time>2016-07-14T14:14:35.000Z</time>
      </trkpt>
      <trkpt lat="44.58638" lon="6.18838">
        <ele>1191</ele>
        <time>2016-07-14T14:14:39.000Z</time>
      </trkpt>
      <trkpt lat="44.58638" lon="6.18853">
        <ele>1192</ele>
        <time>2016-07-14T14:14:48.000Z</time>
      </trkpt>
      <trkpt lat="44.5864" lon="6.18861">
        <ele>1193.1999511719</ele>
        <time>2016-07-14T14:14:52.000Z</time>
      </trkpt>
      <trkpt lat="44.58641" lon="6.18864">
        <ele>1193.4000244141</ele>
        <time>2016-07-14T14:14:54.000Z</time>
      </trkpt>
      <trkpt lat="44.58641" lon="6.18867">
        <ele>1193.8000488281</ele>
        <time>2016-07-14T14:14:56.000Z</time>
      </trkpt>
      <trkpt lat="44.5864" lon="6.18874">
        <ele>1194</ele>
        <time>2016-07-14T14:15:00.000Z</time>
      </trkpt>
      <trkpt lat="44.58636" lon="6.1888">
        <ele>1193.4000244141</ele>
        <time>2016-07-14T14:15:05.000Z</time>
      </trkpt>
      <trkpt lat="44.58635" lon="6.18882">
        <ele>1193.4000244141</ele>
        <time>2016-07-14T14:15:06.000Z</time>
      </trkpt>
      <trkpt lat="44.58634" lon="6.1889">
        <ele>1193.8000488281</ele>
        <time>2016-07-14T14:15:11.000Z</time>
      </trkpt>
      <trkpt lat="44.58639" lon="6.18897">
        <ele>1195.4000244141</ele>
        <time>2016-07-14T14:15:17.000Z</time>
      </trkpt>
      <trkpt lat="44.58639" lon="6.18906">
        <ele>1195.8000488281</ele>
        <time>2016-07-14T14:15:22.000Z</time>
      </trkpt>
      <trkpt lat="44.58634" lon="6.1892">
        <ele>1195.5999755859</ele>
        <time>2016-07-14T14:15:30.000Z</time>
      </trkpt>
      <trkpt lat="44.58633" lon="6.18923">
        <ele>1195.5999755859</ele>
        <time>2016-07-14T14:15:32.000Z</time>
      </trkpt>
      <trkpt lat="44.58631" lon="6.18934">
        <ele>1196.4000244141</ele>
        <time>2016-07-14T14:15:38.000Z</time>
      </trkpt>
      <trkpt lat="44.58628" lon="6.18947">
        <ele>1197</ele>
        <time>2016-07-14T14:15:45.000Z</time>
      </trkpt>
      <trkpt lat="44.58626" lon="6.1896">
        <ele>1198</ele>
        <time>2016-07-14T14:15:52.000Z</time>
      </trkpt>
      <trkpt lat="44.58624" lon="6.1897">
        <ele>1198.4000244141</ele>
        <time>2016-07-14T14:15:58.000Z</time>
      </trkpt>
      <trkpt lat="44.58619" lon="6.18979">
        <ele>1198.1999511719</ele>
        <time>2016-07-14T14:16:04.000Z</time>
      </trkpt>
      <trkpt lat="44.58606" lon="6.18997">
        <ele>1195.8000488281</ele>
        <time>2016-07-14T14:16:16.000Z</time>
      </trkpt>
      <trkpt lat="44.58599" lon="6.1901">
        <ele>1194.4000244141</ele>
        <time>2016-07-14T14:16:24.000Z</time>
      </trkpt>
      <trkpt lat="44.58595" lon="6.19024">
        <ele>1193.4000244141</ele>
        <time>2016-07-14T14:16:32.000Z</time>
      </trkpt>
      <trkpt lat="44.58591" lon="6.19045">
        <ele>1192.8000488281</ele>
        <time>2016-07-14T14:16:42.000Z</time>
      </trkpt>
      <trkpt lat="44.58591" lon="6.19047">
        <ele>1192.8000488281</ele>
        <time>2016-07-14T14:16:43.000Z</time>
      </trkpt>
      <trkpt lat="44.58589" lon="6.19046">
        <ele>1192.4000244141</ele>
        <time>2016-07-14T14:16:48.000Z</time>
      </trkpt>
      <trkpt lat="44.58588" lon="6.19043">
        <ele>1192.4000244141</ele>
        <time>2016-07-14T14:16:53.000Z</time>
      </trkpt>
      <trkpt lat="44.5858" lon="6.19046">
        <ele>1190.5999755859</ele>
        <time>2016-07-14T14:17:01.000Z</time>
      </trkpt>
      <trkpt lat="44.58579" lon="6.19046">
        <ele>1190.4000244141</ele>
        <time>2016-07-14T14:17:02.000Z</time>
      </trkpt>
      <trkpt lat="44.58573" lon="6.19046">
        <ele>1189.1999511719</ele>
        <time>2016-07-14T14:17:08.000Z</time>
      </trkpt>
      <trkpt lat="44.58568" lon="6.19047">
        <ele>1188</ele>
        <time>2016-07-14T14:17:13.000Z</time>
      </trkpt>
      <trkpt lat="44.58565" lon="6.19048">
        <ele>1187.1999511719</ele>
        <time>2016-07-14T14:17:17.000Z</time>
      </trkpt>
      <trkpt lat="44.58557" lon="6.19051">
        <ele>1185.5999755859</ele>
        <time>2016-07-14T14:17:24.000Z</time>
      </trkpt>
      <trkpt lat="44.58547" lon="6.19054">
        <ele>1183.5999755859</ele>
        <time>2016-07-14T14:17:32.000Z</time>
      </trkpt>
      <trkpt lat="44.58534" lon="6.19062">
        <ele>1181</ele>
        <time>2016-07-14T14:17:45.000Z</time>
      </trkpt>
      <trkpt lat="44.58532" lon="6.19065">
        <ele>1180.5999755859</ele>
        <time>2016-07-14T14:17:48.000Z</time>
      </trkpt>
      <trkpt lat="44.58528" lon="6.19072">
        <ele>1180.1999511719</ele>
        <time>2016-07-14T14:17:55.000Z</time>
      </trkpt>
      <trkpt lat="44.58526" lon="6.19074">
        <ele>1179.8000488281</ele>
        <time>2016-07-14T14:18:00.000Z</time>
      </trkpt>
      <trkpt lat="44.58523" lon="6.19074">
        <ele>1179.1999511719</ele>
        <time>2016-07-14T14:18:06.000Z</time>
      </trkpt>
      <trkpt lat="44.58523" lon="6.19075">
        <ele>1179</ele>
        <time>2016-07-14T14:18:12.000Z</time>
      </trkpt>
      <trkpt lat="44.5852" lon="6.19075">
        <ele>1178.4000244141</ele>
        <time>2016-07-14T14:18:22.000Z</time>
      </trkpt>
      <trkpt lat="44.58519" lon="6.19075">
        <ele>1178.1999511719</ele>
        <time>2016-07-14T14:18:24.000Z</time>
      </trkpt>
      <trkpt lat="44.58508" lon="6.19087">
        <ele>1176.5999755859</ele>
        <time>2016-07-14T14:18:36.000Z</time>
      </trkpt>
      <trkpt lat="44.58501" lon="6.19096">
        <ele>1175.4000244141</ele>
        <time>2016-07-14T14:18:44.000Z</time>
      </trkpt>
      <trkpt lat="44.585" lon="6.19097">
        <ele>1175.4000244141</ele>
        <time>2016-07-14T14:18:45.000Z</time>
      </trkpt>
      <trkpt lat="44.58496" lon="6.19103">
        <ele>1174.5999755859</ele>
        <time>2016-07-14T14:18:50.000Z</time>
      </trkpt>
      <trkpt lat="44.58488" lon="6.19115">
        <ele>1173.1999511719</ele>
        <time>2016-07-14T14:18:59.000Z</time>
      </trkpt>
      <trkpt lat="44.58482" lon="6.19124">
        <ele>1172.1999511719</ele>
        <time>2016-07-14T14:19:06.000Z</time>
      </trkpt>
      <trkpt lat="44.58478" lon="6.19132">
        <ele>1171.8000488281</ele>
        <time>2016-07-14T14:19:11.000Z</time>
      </trkpt>
      <trkpt lat="44.58476" lon="6.19138">
        <ele>1171.5999755859</ele>
        <time>2016-07-14T14:19:14.000Z</time>
      </trkpt>
      <trkpt lat="44.58472" lon="6.19146">
        <ele>1170.8000488281</ele>
        <time>2016-07-14T14:19:19.000Z</time>
      </trkpt>
      <trkpt lat="44.58471" lon="6.19148">
        <ele>1170.8000488281</ele>
        <time>2016-07-14T14:19:21.000Z</time>
      </trkpt>
      <trkpt lat="44.58471" lon="6.19151">
        <ele>1170.8000488281</ele>
        <time>2016-07-14T14:19:27.000Z</time>
      </trkpt>
      <trkpt lat="44.5847" lon="6.19154">
        <ele>1170.5999755859</ele>
        <time>2016-07-14T14:19:33.000Z</time>
      </trkpt>
      <trkpt lat="44.58468" lon="6.19156">
        <ele>1170.4000244141</ele>
        <time>2016-07-14T14:19:40.000Z</time>
      </trkpt>
      <trkpt lat="44.58466" lon="6.1916">
        <ele>1170</ele>
        <time>2016-07-14T14:19:45.000Z</time>
      </trkpt>
      <trkpt lat="44.58465" lon="6.19161">
        <ele>1169.8000488281</ele>
        <time>2016-07-14T14:19:46.000Z</time>
      </trkpt>
      <trkpt lat="44.58462" lon="6.19163">
        <ele>1169.4000244141</ele>
        <time>2016-07-14T14:19:49.000Z</time>
      </trkpt>
      <trkpt lat="44.58459" lon="6.19168">
        <ele>1169.4000244141</ele>
        <time>2016-07-14T14:19:52.000Z</time>
      </trkpt>
      <trkpt lat="44.58455" lon="6.19175">
        <ele>1169.1999511719</ele>
        <time>2016-07-14T14:19:57.000Z</time>
      </trkpt>
      <trkpt lat="44.58453" lon="6.19178">
        <ele>1169.1999511719</ele>
        <time>2016-07-14T14:19:59.000Z</time>
      </trkpt>
      <trkpt lat="44.58449" lon="6.19182">
        <ele>1168.8000488281</ele>
        <time>2016-07-14T14:20:03.000Z</time>
      </trkpt>
      <trkpt lat="44.58444" lon="6.19193">
        <ele>1168.4000244141</ele>
        <time>2016-07-14T14:20:10.000Z</time>
      </trkpt>
      <trkpt lat="44.58436" lon="6.19198">
        <ele>1167.1999511719</ele>
        <time>2016-07-14T14:20:16.000Z</time>
      </trkpt>
      <trkpt lat="44.58432" lon="6.19201">
        <ele>1166.4000244141</ele>
        <time>2016-07-14T14:20:20.000Z</time>
      </trkpt>
      <trkpt lat="44.58426" lon="6.19209">
        <ele>1166</ele>
        <time>2016-07-14T14:20:32.000Z</time>
      </trkpt>
      <trkpt lat="44.58425" lon="6.1921">
        <ele>1165.8000488281</ele>
        <time>2016-07-14T14:20:33.000Z</time>
      </trkpt>
      <trkpt lat="44.58411" lon="6.19214">
        <ele>1163.1999511719</ele>
        <time>2016-07-14T14:20:45.000Z</time>
      </trkpt>
      <trkpt lat="44.58409" lon="6.19213">
        <ele>1163</ele>
        <time>2016-07-14T14:20:46.000Z</time>
      </trkpt>
      <trkpt lat="44.584" lon="6.19211">
        <ele>1160.8000488281</ele>
        <time>2016-07-14T14:20:54.000Z</time>
      </trkpt>
      <trkpt lat="44.58399" lon="6.1921">
        <ele>1160.5999755859</ele>
        <time>2016-07-14T14:20:55.000Z</time>
      </trkpt>
      <trkpt lat="44.58392" lon="6.19207">
        <ele>1158.8000488281</ele>
        <time>2016-07-14T14:21:01.000Z</time>
      </trkpt>
      <trkpt lat="44.58387" lon="6.19201">
        <ele>1157.4000244141</ele>
        <time>2016-07-14T14:21:06.000Z</time>
      </trkpt>
      <trkpt lat="44.58385" lon="6.19192">
        <ele>1156</ele>
        <time>2016-07-14T14:21:11.000Z</time>
      </trkpt>
      <trkpt lat="44.5839" lon="6.19178">
        <ele>1155.5999755859</ele>
        <time>2016-07-14T14:21:19.000Z</time>
      </trkpt>
      <trkpt lat="44.58395" lon="6.19166">
        <ele>1155.5999755859</ele>
        <time>2016-07-14T14:21:26.000Z</time>
      </trkpt>
      <trkpt lat="44.58396" lon="6.19164">
        <ele>1155.5999755859</ele>
        <time>2016-07-14T14:21:27.000Z</time>
      </trkpt>
      <trkpt lat="44.58403" lon="6.19151">
        <ele>1156</ele>
        <time>2016-07-14T14:21:35.000Z</time>
      </trkpt>
      <trkpt lat="44.58407" lon="6.19143">
        <ele>1156.1999511719</ele>
        <time>2016-07-14T14:21:41.000Z</time>
      </trkpt>
      <trkpt lat="44.58409" lon="6.1913">
        <ele>1155.4000244141</ele>
        <time>2016-07-14T14:21:49.000Z</time>
      </trkpt>
      <trkpt lat="44.5841" lon="6.19127">
        <ele>1155.1999511719</ele>
        <time>2016-07-14T14:21:51.000Z</time>
      </trkpt>
      <trkpt lat="44.58409" lon="6.1912">
        <ele>1154.4000244141</ele>
        <time>2016-07-14T14:21:55.000Z</time>
      </trkpt>
      <trkpt lat="44.58406" lon="6.19112">
        <ele>1153</ele>
        <time>2016-07-14T14:22:01.000Z</time>
      </trkpt>
      <trkpt lat="44.58399" lon="6.19109">
        <ele>1151.4000244141</ele>
        <time>2016-07-14T14:22:07.000Z</time>
      </trkpt>
      <trkpt lat="44.58392" lon="6.19115">
        <ele>1150.1999511719</ele>
        <time>2016-07-14T14:22:14.000Z</time>
      </trkpt>
      <trkpt lat="44.58391" lon="6.19116">
        <ele>1150.1999511719</ele>
        <time>2016-07-14T14:22:16.000Z</time>
      </trkpt>
      <trkpt lat="44.58387" lon="6.19121">
        <ele>1149.8000488281</ele>
        <time>2016-07-14T14:22:20.000Z</time>
      </trkpt>
      <trkpt lat="44.58379" lon="6.19132">
        <ele>1149.1999511719</ele>
        <time>2016-07-14T14:22:28.000Z</time>
      </trkpt>
      <trkpt lat="44.58376" lon="6.19136">
        <ele>1149</ele>
        <time>2016-07-14T14:22:32.000Z</time>
      </trkpt>
      <trkpt lat="44.58371" lon="6.19139">
        <ele>1148.1999511719</ele>
        <time>2016-07-14T14:22:36.000Z</time>
      </trkpt>
      <trkpt lat="44.58365" lon="6.1913">
        <ele>1145.8000488281</ele>
        <time>2016-07-14T14:22:45.000Z</time>
      </trkpt>
      <trkpt lat="44.5837" lon="6.19113">
        <ele>1145.4000244141</ele>
        <time>2016-07-14T14:22:55.000Z</time>
      </trkpt>
      <trkpt lat="44.58373" lon="6.19103">
        <ele>1145</ele>
        <time>2016-07-14T14:23:02.000Z</time>
      </trkpt>
      <trkpt lat="44.58367" lon="6.19097">
        <ele>1143.1999511719</ele>
        <time>2016-07-14T14:23:09.000Z</time>
      </trkpt>
      <trkpt lat="44.58362" lon="6.19101">
        <ele>1142.1999511719</ele>
        <time>2016-07-14T14:23:15.000Z</time>
      </trkpt>
      <trkpt lat="44.58356" lon="6.19112">
        <ele>1141.5999755859</ele>
        <time>2016-07-14T14:23:23.000Z</time>
      </trkpt>
      <trkpt lat="44.58341" lon="6.1913">
        <ele>1139.5999755859</ele>
        <time>2016-07-14T14:23:38.000Z</time>
      </trkpt>
      <trkpt lat="44.58338" lon="6.19134">
        <ele>1139</ele>
        <time>2016-07-14T14:23:41.000Z</time>
      </trkpt>
      <trkpt lat="44.58332" lon="6.19141">
        <ele>1138.1999511719</ele>
        <time>2016-07-14T14:23:46.000Z</time>
      </trkpt>
      <trkpt lat="44.5833" lon="6.19145">
        <ele>1138</ele>
        <time>2016-07-14T14:23:49.000Z</time>
      </trkpt>
      <trkpt lat="44.58324" lon="6.19157">
        <ele>1137.5999755859</ele>
        <time>2016-07-14T14:23:57.000Z</time>
      </trkpt>
      <trkpt lat="44.58319" lon="6.19168">
        <ele>1137.1999511719</ele>
        <time>2016-07-14T14:24:05.000Z</time>
      </trkpt>
      <trkpt lat="44.58313" lon="6.19178">
        <ele>1136.5999755859</ele>
        <time>2016-07-14T14:24:13.000Z</time>
      </trkpt>
      <trkpt lat="44.5831" lon="6.19181">
        <ele>1136</ele>
        <time>2016-07-14T14:24:16.000Z</time>
      </trkpt>
      <trkpt lat="44.58302" lon="6.19174">
        <ele>1133.4000244141</ele>
        <time>2016-07-14T14:24:24.000Z</time>
      </trkpt>
      <trkpt lat="44.58302" lon="6.19172">
        <ele>1133.1999511719</ele>
        <time>2016-07-14T14:24:25.000Z</time>
      </trkpt>
      <trkpt lat="44.58305" lon="6.19161">
        <ele>1133</ele>
        <time>2016-07-14T14:24:32.000Z</time>
      </trkpt>
      <trkpt lat="44.58309" lon="6.19159">
        <ele>1133.5999755859</ele>
        <time>2016-07-14T14:24:38.000Z</time>
      </trkpt>
      <trkpt lat="44.58309" lon="6.19161">
        <ele>1133.8000488281</ele>
        <time>2016-07-14T14:24:46.000Z</time>
      </trkpt>
      <trkpt lat="44.5831" lon="6.19164">
        <ele>1134.5999755859</ele>
        <time>2016-07-14T14:24:51.000Z</time>
      </trkpt>
      <trkpt lat="44.58308" lon="6.19162">
        <ele>1133.8000488281</ele>
        <time>2016-07-14T14:24:56.000Z</time>
      </trkpt>
      <trkpt lat="44.58305" lon="6.19157">
        <ele>1132.5999755859</ele>
        <time>2016-07-14T14:25:03.000Z</time>
      </trkpt>
      <trkpt lat="44.58307" lon="6.19152">
        <ele>1132.5999755859</ele>
        <time>2016-07-14T14:25:06.000Z</time>
      </trkpt>
      <trkpt lat="44.5831" lon="6.19144">
        <ele>1132.5999755859</ele>
        <time>2016-07-14T14:25:11.000Z</time>
      </trkpt>
      <trkpt lat="44.58313" lon="6.1913">
        <ele>1132</ele>
        <time>2016-07-14T14:25:19.000Z</time>
      </trkpt>
      <trkpt lat="44.58312" lon="6.19124">
        <ele>1131</ele>
        <time>2016-07-14T14:25:27.000Z</time>
      </trkpt>
      <trkpt lat="44.58309" lon="6.19121">
        <ele>1130.1999511719</ele>
        <time>2016-07-14T14:25:40.000Z</time>
      </trkpt>
      <trkpt lat="44.58301" lon="6.19123">
        <ele>1128.1999511719</ele>
        <time>2016-07-14T14:25:48.000Z</time>
      </trkpt>
      <trkpt lat="44.58295" lon="6.19135">
        <ele>1128</ele>
        <time>2016-07-14T14:25:56.000Z</time>
      </trkpt>
      <trkpt lat="44.58291" lon="6.19144">
        <ele>1127.5999755859</ele>
        <time>2016-07-14T14:26:02.000Z</time>
      </trkpt>
      <trkpt lat="44.58286" lon="6.19151">
        <ele>1126.8000488281</ele>
        <time>2016-07-14T14:26:09.000Z</time>
      </trkpt>
      <trkpt lat="44.58288" lon="6.19148">
        <ele>1127.1999511719</ele>
        <time>2016-07-14T14:26:17.000Z</time>
      </trkpt>
      <trkpt lat="44.58287" lon="6.19151">
        <ele>1127</ele>
        <time>2016-07-14T14:26:34.000Z</time>
      </trkpt>
      <trkpt lat="44.58281" lon="6.19156">
        <ele>1126</ele>
        <time>2016-07-14T14:26:40.000Z</time>
      </trkpt>
      <trkpt lat="44.58273" lon="6.19152">
        <ele>1123.5999755859</ele>
        <time>2016-07-14T14:26:47.000Z</time>
      </trkpt>
      <trkpt lat="44.58274" lon="6.19142">
        <ele>1122.8000488281</ele>
        <time>2016-07-14T14:26:52.000Z</time>
      </trkpt>
      <trkpt lat="44.58275" lon="6.1914">
        <ele>1122.8000488281</ele>
        <time>2016-07-14T14:26:53.000Z</time>
      </trkpt>
      <trkpt lat="44.5828" lon="6.19126">
        <ele>1122.8000488281</ele>
        <time>2016-07-14T14:27:02.000Z</time>
      </trkpt>
      <trkpt lat="44.58283" lon="6.19115">
        <ele>1122.5999755859</ele>
        <time>2016-07-14T14:27:09.000Z</time>
      </trkpt>
      <trkpt lat="44.58285" lon="6.19101">
        <ele>1122</ele>
        <time>2016-07-14T14:27:17.000Z</time>
      </trkpt>
      <trkpt lat="44.58286" lon="6.19096">
        <ele>1121.8000488281</ele>
        <time>2016-07-14T14:27:20.000Z</time>
      </trkpt>
      <trkpt lat="44.58285" lon="6.1909">
        <ele>1120.8000488281</ele>
        <time>2016-07-14T14:27:24.000Z</time>
      </trkpt>
      <trkpt lat="44.58282" lon="6.19078">
        <ele>1118.8000488281</ele>
        <time>2016-07-14T14:27:32.000Z</time>
      </trkpt>
      <trkpt lat="44.58273" lon="6.19072">
        <ele>1115.5999755859</ele>
        <time>2016-07-14T14:27:40.000Z</time>
      </trkpt>
      <trkpt lat="44.5827" lon="6.19075">
        <ele>1114.8000488281</ele>
        <time>2016-07-14T14:27:43.000Z</time>
      </trkpt>
      <trkpt lat="44.58263" lon="6.19085">
        <ele>1113.8000488281</ele>
        <time>2016-07-14T14:27:51.000Z</time>
      </trkpt>
      <trkpt lat="44.58258" lon="6.19095">
        <ele>1113.1999511719</ele>
        <time>2016-07-14T14:27:58.000Z</time>
      </trkpt>
      <trkpt lat="44.58251" lon="6.19107">
        <ele>1112.1999511719</ele>
        <time>2016-07-14T14:28:07.000Z</time>
      </trkpt>
      <trkpt lat="44.58246" lon="6.19115">
        <ele>1111.5999755859</ele>
        <time>2016-07-14T14:28:13.000Z</time>
      </trkpt>
      <trkpt lat="44.58239" lon="6.19124">
        <ele>1111</ele>
        <time>2016-07-14T14:28:20.000Z</time>
      </trkpt>
      <trkpt lat="44.58232" lon="6.19132">
        <ele>1110</ele>
        <time>2016-07-14T14:28:27.000Z</time>
      </trkpt>
      <trkpt lat="44.58225" lon="6.19132">
        <ele>1108</ele>
        <time>2016-07-14T14:28:33.000Z</time>
      </trkpt>
      <trkpt lat="44.58222" lon="6.19127">
        <ele>1106.5999755859</ele>
        <time>2016-07-14T14:28:37.000Z</time>
      </trkpt>
      <trkpt lat="44.58222" lon="6.19114">
        <ele>1105</ele>
        <time>2016-07-14T14:28:44.000Z</time>
      </trkpt>
      <trkpt lat="44.58226" lon="6.19102">
        <ele>1104.8000488281</ele>
        <time>2016-07-14T14:28:51.000Z</time>
      </trkpt>
      <trkpt lat="44.58231" lon="6.19091">
        <ele>1104.5999755859</ele>
        <time>2016-07-14T14:28:58.000Z</time>
      </trkpt>
      <trkpt lat="44.58233" lon="6.19084">
        <ele>1104.8000488281</ele>
        <time>2016-07-14T14:29:02.000Z</time>
      </trkpt>
      <trkpt lat="44.58234" lon="6.19076">
        <ele>1104.4000244141</ele>
        <time>2016-07-14T14:29:07.000Z</time>
      </trkpt>
      <trkpt lat="44.58234" lon="6.19074">
        <ele>1104</ele>
        <time>2016-07-14T14:29:09.000Z</time>
      </trkpt>
      <trkpt lat="44.58233" lon="6.19072">
        <ele>1103.5999755859</ele>
        <time>2016-07-14T14:29:10.000Z</time>
      </trkpt>
      <trkpt lat="44.58229" lon="6.19063">
        <ele>1101.4000244141</ele>
        <time>2016-07-14T14:29:17.000Z</time>
      </trkpt>
      <trkpt lat="44.58222" lon="6.19058">
        <ele>1098.8000488281</ele>
        <time>2016-07-14T14:29:24.000Z</time>
      </trkpt>
      <trkpt lat="44.58215" lon="6.19063">
        <ele>1097.1999511719</ele>
        <time>2016-07-14T14:29:31.000Z</time>
      </trkpt>
      <trkpt lat="44.58207" lon="6.19077">
        <ele>1096.5999755859</ele>
        <time>2016-07-14T14:29:41.000Z</time>
      </trkpt>
      <trkpt lat="44.58205" lon="6.1908">
        <ele>1096.1999511719</ele>
        <time>2016-07-14T14:29:44.000Z</time>
      </trkpt>
      <trkpt lat="44.58199" lon="6.19092">
        <ele>1096.1999511719</ele>
        <time>2016-07-14T14:29:52.000Z</time>
      </trkpt>
      <trkpt lat="44.58199" lon="6.19094">
        <ele>1096.1999511719</ele>
        <time>2016-07-14T14:29:53.000Z</time>
      </trkpt>
      <trkpt lat="44.58194" lon="6.19103">
        <ele>1096</ele>
        <time>2016-07-14T14:30:00.000Z</time>
      </trkpt>
      <trkpt lat="44.58187" lon="6.19113">
        <ele>1095.5999755859</ele>
        <time>2016-07-14T14:30:08.000Z</time>
      </trkpt>
      <trkpt lat="44.58181" lon="6.19122">
        <ele>1094.8000488281</ele>
        <time>2016-07-14T14:30:15.000Z</time>
      </trkpt>
      <trkpt lat="44.58177" lon="6.19126">
        <ele>1094.1999511719</ele>
        <time>2016-07-14T14:30:18.000Z</time>
      </trkpt>
      <trkpt lat="44.58173" lon="6.19127">
        <ele>1092.8000488281</ele>
        <time>2016-07-14T14:30:22.000Z</time>
      </trkpt>
      <trkpt lat="44.58167" lon="6.19126">
        <ele>1090.8000488281</ele>
        <time>2016-07-14T14:30:27.000Z</time>
      </trkpt>
      <trkpt lat="44.58165" lon="6.19124">
        <ele>1090.1999511719</ele>
        <time>2016-07-14T14:30:29.000Z</time>
      </trkpt>
      <trkpt lat="44.58162" lon="6.19113">
        <ele>1088.4000244141</ele>
        <time>2016-07-14T14:30:36.000Z</time>
      </trkpt>
      <trkpt lat="44.58163" lon="6.19105">
        <ele>1088.1999511719</ele>
        <time>2016-07-14T14:30:40.000Z</time>
      </trkpt>
      <trkpt lat="44.58164" lon="6.19101">
        <ele>1087.8000488281</ele>
        <time>2016-07-14T14:30:46.000Z</time>
      </trkpt>
      <trkpt lat="44.58166" lon="6.19093">
        <ele>1087.5999755859</ele>
        <time>2016-07-14T14:30:50.000Z</time>
      </trkpt>
      <trkpt lat="44.58169" lon="6.19083">
        <ele>1086.8000488281</ele>
        <time>2016-07-14T14:30:56.000Z</time>
      </trkpt>
      <trkpt lat="44.58168" lon="6.19066">
        <ele>1084.8000488281</ele>
        <time>2016-07-14T14:31:05.000Z</time>
      </trkpt>
      <trkpt lat="44.58166" lon="6.19055">
        <ele>1083</ele>
        <time>2016-07-14T14:31:12.000Z</time>
      </trkpt>
      <trkpt lat="44.58165" lon="6.19054">
        <ele>1082.5999755859</ele>
        <time>2016-07-14T14:31:13.000Z</time>
      </trkpt>
      <trkpt lat="44.58158" lon="6.19057">
        <ele>1081.1999511719</ele>
        <time>2016-07-14T14:31:19.000Z</time>
      </trkpt>
      <trkpt lat="44.58157" lon="6.19059">
        <ele>1081</ele>
        <time>2016-07-14T14:31:20.000Z</time>
      </trkpt>
      <trkpt lat="44.58152" lon="6.19073">
        <ele>1081.4000244141</ele>
        <time>2016-07-14T14:31:28.000Z</time>
      </trkpt>
      <trkpt lat="44.58148" lon="6.19087">
        <ele>1082</ele>
        <time>2016-07-14T14:31:36.000Z</time>
      </trkpt>
      <trkpt lat="44.58141" lon="6.191">
        <ele>1081</ele>
        <time>2016-07-14T14:31:45.000Z</time>
      </trkpt>
      <trkpt lat="44.58136" lon="6.19111">
        <ele>1080.1999511719</ele>
        <time>2016-07-14T14:31:52.000Z</time>
      </trkpt>
      <trkpt lat="44.58135" lon="6.19117">
        <ele>1080.4000244141</ele>
        <time>2016-07-14T14:31:55.000Z</time>
      </trkpt>
      <trkpt lat="44.58132" lon="6.19122">
        <ele>1079.5999755859</ele>
        <time>2016-07-14T14:31:59.000Z</time>
      </trkpt>
      <trkpt lat="44.58125" lon="6.19117">
        <ele>1077.1999511719</ele>
        <time>2016-07-14T14:32:06.000Z</time>
      </trkpt>
      <trkpt lat="44.58125" lon="6.19113">
        <ele>1076.8000488281</ele>
        <time>2016-07-14T14:32:08.000Z</time>
      </trkpt>
      <trkpt lat="44.58125" lon="6.19108">
        <ele>1076.5999755859</ele>
        <time>2016-07-14T14:32:11.000Z</time>
      </trkpt>
      <trkpt lat="44.58125" lon="6.19098">
        <ele>1075.8000488281</ele>
        <time>2016-07-14T14:32:18.000Z</time>
      </trkpt>
      <trkpt lat="44.58126" lon="6.19096">
        <ele>1076</ele>
        <time>2016-07-14T14:32:19.000Z</time>
      </trkpt>
      <trkpt lat="44.58127" lon="6.19093">
        <ele>1076</ele>
        <time>2016-07-14T14:32:21.000Z</time>
      </trkpt>
      <trkpt lat="44.58128" lon="6.19092">
        <ele>1076.4000244141</ele>
        <time>2016-07-14T14:32:31.000Z</time>
      </trkpt>
      <trkpt lat="44.58129" lon="6.19085">
        <ele>1076</ele>
        <time>2016-07-14T14:32:49.000Z</time>
      </trkpt>
      <trkpt lat="44.58129" lon="6.19074">
        <ele>1075.4000244141</ele>
        <time>2016-07-14T14:32:55.000Z</time>
      </trkpt>
      <trkpt lat="44.58129" lon="6.19064">
        <ele>1074.1999511719</ele>
        <time>2016-07-14T14:33:01.000Z</time>
      </trkpt>
      <trkpt lat="44.58128" lon="6.19058">
        <ele>1073.1999511719</ele>
        <time>2016-07-14T14:33:07.000Z</time>
      </trkpt>
      <trkpt lat="44.58127" lon="6.19051">
        <ele>1072.4000244141</ele>
        <time>2016-07-14T14:33:13.000Z</time>
      </trkpt>
      <trkpt lat="44.58127" lon="6.19039">
        <ele>1071.1999511719</ele>
        <time>2016-07-14T14:33:20.000Z</time>
      </trkpt>
      <trkpt lat="44.58126" lon="6.19027">
        <ele>1069.8000488281</ele>
        <time>2016-07-14T14:33:27.000Z</time>
      </trkpt>
      <trkpt lat="44.58123" lon="6.19011">
        <ele>1067.5999755859</ele>
        <time>2016-07-14T14:33:36.000Z</time>
      </trkpt>
      <trkpt lat="44.58119" lon="6.18999">
        <ele>1065.4000244141</ele>
        <time>2016-07-14T14:33:43.000Z</time>
      </trkpt>
      <trkpt lat="44.58114" lon="6.18988">
        <ele>1063</ele>
        <time>2016-07-14T14:33:50.000Z</time>
      </trkpt>
      <trkpt lat="44.58107" lon="6.18971">
        <ele>1059.5999755859</ele>
        <time>2016-07-14T14:34:00.000Z</time>
      </trkpt>
      <trkpt lat="44.58104" lon="6.18964">
        <ele>1058</ele>
        <time>2016-07-14T14:34:05.000Z</time>
      </trkpt>
      <trkpt lat="44.58098" lon="6.18964">
        <ele>1056.8000488281</ele>
        <time>2016-07-14T14:34:11.000Z</time>
      </trkpt>
      <trkpt lat="44.58093" lon="6.18976">
        <ele>1057.4000244141</ele>
        <time>2016-07-14T14:34:19.000Z</time>
      </trkpt>
      <trkpt lat="44.58087" lon="6.18986">
        <ele>1057</ele>
        <time>2016-07-14T14:34:27.000Z</time>
      </trkpt>
      <trkpt lat="44.58079" lon="6.18996">
        <ele>1056.1999511719</ele>
        <time>2016-07-14T14:34:35.000Z</time>
      </trkpt>
      <trkpt lat="44.58072" lon="6.18995">
        <ele>1054.8000488281</ele>
        <time>2016-07-14T14:34:41.000Z</time>
      </trkpt>
      <trkpt lat="44.58072" lon="6.18994">
        <ele>1054.5999755859</ele>
        <time>2016-07-14T14:34:42.000Z</time>
      </trkpt>
      <trkpt lat="44.58071" lon="6.18991">
        <ele>1054.1999511719</ele>
        <time>2016-07-14T14:34:49.000Z</time>
      </trkpt>
      <trkpt lat="44.58073" lon="6.18981">
        <ele>1053.4000244141</ele>
        <time>2016-07-14T14:34:55.000Z</time>
      </trkpt>
      <trkpt lat="44.58076" lon="6.1897">
        <ele>1052.8000488281</ele>
        <time>2016-07-14T14:35:01.000Z</time>
      </trkpt>
      <trkpt lat="44.58078" lon="6.18955">
        <ele>1051.4000244141</ele>
        <time>2016-07-14T14:35:10.000Z</time>
      </trkpt>
      <trkpt lat="44.58077" lon="6.18948">
        <ele>1050</ele>
        <time>2016-07-14T14:35:15.000Z</time>
      </trkpt>
      <trkpt lat="44.58069" lon="6.18948">
        <ele>1048.4000244141</ele>
        <time>2016-07-14T14:35:22.000Z</time>
      </trkpt>
      <trkpt lat="44.58068" lon="6.18949">
        <ele>1048.1999511719</ele>
        <time>2016-07-14T14:35:23.000Z</time>
      </trkpt>
      <trkpt lat="44.58065" lon="6.18952">
        <ele>1048.1999511719</ele>
        <time>2016-07-14T14:35:26.000Z</time>
      </trkpt>
      <trkpt lat="44.58059" lon="6.18957">
        <ele>1047.4000244141</ele>
        <time>2016-07-14T14:35:32.000Z</time>
      </trkpt>
      <trkpt lat="44.58057" lon="6.18957">
        <ele>1047.1999511719</ele>
        <time>2016-07-14T14:35:33.000Z</time>
      </trkpt>
      <trkpt lat="44.58046" lon="6.18966">
        <ele>1045.8000488281</ele>
        <time>2016-07-14T14:35:43.000Z</time>
      </trkpt>
      <trkpt lat="44.58041" lon="6.18971">
        <ele>1045.4000244141</ele>
        <time>2016-07-14T14:35:48.000Z</time>
      </trkpt>
      <trkpt lat="44.58035" lon="6.18972">
        <ele>1044.1999511719</ele>
        <time>2016-07-14T14:35:55.000Z</time>
      </trkpt>
      <trkpt lat="44.58032" lon="6.18967">
        <ele>1043</ele>
        <time>2016-07-14T14:35:59.000Z</time>
      </trkpt>
      <trkpt lat="44.58033" lon="6.18958">
        <ele>1042</ele>
        <time>2016-07-14T14:36:04.000Z</time>
      </trkpt>
      <trkpt lat="44.58034" lon="6.18955">
        <ele>1041.8000488281</ele>
        <time>2016-07-14T14:36:11.000Z</time>
      </trkpt>
      <trkpt lat="44.58035" lon="6.18954">
        <ele>1042</ele>
        <time>2016-07-14T14:36:25.000Z</time>
      </trkpt>
      <trkpt lat="44.58036" lon="6.18954">
        <ele>1042</ele>
        <time>2016-07-14T14:36:34.000Z</time>
      </trkpt>
      <trkpt lat="44.58034" lon="6.18956">
        <ele>1041.8000488281</ele>
        <time>2016-07-14T14:36:40.000Z</time>
      </trkpt>
      <trkpt lat="44.58036" lon="6.18954">
        <ele>1042</ele>
        <time>2016-07-14T14:36:54.000Z</time>
      </trkpt>
      <trkpt lat="44.58035" lon="6.18954">
        <ele>1042</ele>
        <time>2016-07-14T14:36:59.000Z</time>
      </trkpt>
      <trkpt lat="44.58034" lon="6.18955">
        <ele>1042</ele>
        <time>2016-07-14T14:37:09.000Z</time>
      </trkpt>
      <trkpt lat="44.58035" lon="6.18954">
        <ele>1041.8000488281</ele>
        <time>2016-07-14T14:37:18.000Z</time>
      </trkpt>
      <trkpt lat="44.58035" lon="6.18953">
        <ele>1041.8000488281</ele>
        <time>2016-07-14T14:37:23.000Z</time>
      </trkpt>
      <trkpt lat="44.58033" lon="6.18953">
        <ele>1041.4000244141</ele>
        <time>2016-07-14T14:38:35.000Z</time>
      </trkpt>
      <trkpt lat="44.5803" lon="6.18946">
        <ele>1039.8000488281</ele>
        <time>2016-07-14T14:38:56.000Z</time>
      </trkpt>
      <trkpt lat="44.58031" lon="6.18945">
        <ele>1039.8000488281</ele>
        <time>2016-07-14T14:38:57.000Z</time>
      </trkpt>
      <trkpt lat="44.58034" lon="6.18942">
        <ele>1040</ele>
        <time>2016-07-14T14:39:00.000Z</time>
      </trkpt>
      <trkpt lat="44.5804" lon="6.18935">
        <ele>1040.4000244141</ele>
        <time>2016-07-14T14:39:06.000Z</time>
      </trkpt>
      <trkpt lat="44.58042" lon="6.18934">
        <ele>1040.5999755859</ele>
        <time>2016-07-14T14:39:07.000Z</time>
      </trkpt>
      <trkpt lat="44.58046" lon="6.18933">
        <ele>1041.5999755859</ele>
        <time>2016-07-14T14:39:10.000Z</time>
      </trkpt>
      <trkpt lat="44.5805" lon="6.18925">
        <ele>1041.1999511719</ele>
        <time>2016-07-14T14:39:15.000Z</time>
      </trkpt>
      <trkpt lat="44.58048" lon="6.18915">
        <ele>1039.5999755859</ele>
        <time>2016-07-14T14:39:21.000Z</time>
      </trkpt>
      <trkpt lat="44.58042" lon="6.1891">
        <ele>1037.5999755859</ele>
        <time>2016-07-14T14:39:27.000Z</time>
      </trkpt>
      <trkpt lat="44.58041" lon="6.18909">
        <ele>1037.1999511719</ele>
        <time>2016-07-14T14:39:28.000Z</time>
      </trkpt>
      <trkpt lat="44.58033" lon="6.18913">
        <ele>1036</ele>
        <time>2016-07-14T14:39:34.000Z</time>
      </trkpt>
      <trkpt lat="44.58024" lon="6.1892">
        <ele>1034.8000488281</ele>
        <time>2016-07-14T14:39:42.000Z</time>
      </trkpt>
      <trkpt lat="44.58017" lon="6.18927">
        <ele>1034</ele>
        <time>2016-07-14T14:39:49.000Z</time>
      </trkpt>
      <trkpt lat="44.58009" lon="6.1893">
        <ele>1032.4000244141</ele>
        <time>2016-07-14T14:39:56.000Z</time>
      </trkpt>
      <trkpt lat="44.58007" lon="6.1893">
        <ele>1032.1999511719</ele>
        <time>2016-07-14T14:39:57.000Z</time>
      </trkpt>
      <trkpt lat="44.57999" lon="6.18929">
        <ele>1030</ele>
        <time>2016-07-14T14:40:03.000Z</time>
      </trkpt>
      <trkpt lat="44.57991" lon="6.18931">
        <ele>1028.1999511719</ele>
        <time>2016-07-14T14:40:10.000Z</time>
      </trkpt>
      <trkpt lat="44.57986" lon="6.18935">
        <ele>1027.1999511719</ele>
        <time>2016-07-14T14:40:15.000Z</time>
      </trkpt>
      <trkpt lat="44.57984" lon="6.1894">
        <ele>1026.8000488281</ele>
        <time>2016-07-14T14:40:20.000Z</time>
      </trkpt>
      <trkpt lat="44.57977" lon="6.18944">
        <ele>1025</ele>
        <time>2016-07-14T14:40:26.000Z</time>
      </trkpt>
      <trkpt lat="44.57972" lon="6.1895">
        <ele>1023.799987793</ele>
        <time>2016-07-14T14:40:32.000Z</time>
      </trkpt>
      <trkpt lat="44.57971" lon="6.18953">
        <ele>1023.5999755859</ele>
        <time>2016-07-14T14:40:34.000Z</time>
      </trkpt>
      <trkpt lat="44.57965" lon="6.1897">
        <ele>1022.799987793</ele>
        <time>2016-07-14T14:40:45.000Z</time>
      </trkpt>
      <trkpt lat="44.57965" lon="6.18972">
        <ele>1022.799987793</ele>
        <time>2016-07-14T14:40:46.000Z</time>
      </trkpt>
      <trkpt lat="44.57964" lon="6.18982">
        <ele>1023</ele>
        <time>2016-07-14T14:40:52.000Z</time>
      </trkpt>
      <trkpt lat="44.57962" lon="6.1899">
        <ele>1022.799987793</ele>
        <time>2016-07-14T14:40:57.000Z</time>
      </trkpt>
      <trkpt lat="44.57961" lon="6.18994">
        <ele>1022.799987793</ele>
        <time>2016-07-14T14:40:59.000Z</time>
      </trkpt>
      <trkpt lat="44.57961" lon="6.19005">
        <ele>1023.200012207</ele>
        <time>2016-07-14T14:41:05.000Z</time>
      </trkpt>
      <trkpt lat="44.57957" lon="6.19018">
        <ele>1023</ele>
        <time>2016-07-14T14:41:13.000Z</time>
      </trkpt>
      <trkpt lat="44.57957" lon="6.19019">
        <ele>1023</ele>
        <time>2016-07-14T14:41:14.000Z</time>
      </trkpt>
      <trkpt lat="44.57957" lon="6.19023">
        <ele>1023.200012207</ele>
        <time>2016-07-14T14:41:20.000Z</time>
      </trkpt>
      <trkpt lat="44.57957" lon="6.19022">
        <ele>1023.200012207</ele>
        <time>2016-07-14T14:41:25.000Z</time>
      </trkpt>
      <trkpt lat="44.57958" lon="6.1902">
        <ele>1023.5999755859</ele>
        <time>2016-07-14T14:41:30.000Z</time>
      </trkpt>
      <trkpt lat="44.57956" lon="6.19027">
        <ele>1023.200012207</ele>
        <time>2016-07-14T14:41:38.000Z</time>
      </trkpt>
      <trkpt lat="44.57953" lon="6.19043">
        <ele>1023.4000244141</ele>
        <time>2016-07-14T14:41:46.000Z</time>
      </trkpt>
      <trkpt lat="44.57954" lon="6.19061">
        <ele>1024.8000488281</ele>
        <time>2016-07-14T14:41:56.000Z</time>
      </trkpt>
      <trkpt lat="44.57955" lon="6.1908">
        <ele>1025.4000244141</ele>
        <time>2016-07-14T14:42:06.000Z</time>
      </trkpt>
      <trkpt lat="44.57956" lon="6.191">
        <ele>1026</ele>
        <time>2016-07-14T14:42:17.000Z</time>
      </trkpt>
      <trkpt lat="44.57959" lon="6.19123">
        <ele>1027.5999755859</ele>
        <time>2016-07-14T14:42:29.000Z</time>
      </trkpt>
      <trkpt lat="44.57965" lon="6.19143">
        <ele>1029.8000488281</ele>
        <time>2016-07-14T14:42:40.000Z</time>
      </trkpt>
      <trkpt lat="44.57971" lon="6.19159">
        <ele>1032.4000244141</ele>
        <time>2016-07-14T14:42:49.000Z</time>
      </trkpt>
      <trkpt lat="44.57976" lon="6.19174">
        <ele>1034.8000488281</ele>
        <time>2016-07-14T14:42:58.000Z</time>
      </trkpt>
      <trkpt lat="44.57976" lon="6.19176">
        <ele>1034.8000488281</ele>
        <time>2016-07-14T14:43:09.000Z</time>
      </trkpt>
      <trkpt lat="44.57976" lon="6.19178">
        <ele>1035</ele>
        <time>2016-07-14T14:43:26.000Z</time>
      </trkpt>
      <trkpt lat="44.57976" lon="6.19181">
        <ele>1035</ele>
        <time>2016-07-14T14:45:40.000Z</time>
      </trkpt>
      <trkpt lat="44.57975" lon="6.1918">
        <ele>1034.8000488281</ele>
        <time>2016-07-14T14:45:52.000Z</time>
      </trkpt>
      <trkpt lat="44.57977" lon="6.19183">
        <ele>1035.4000244141</ele>
        <time>2016-07-14T14:46:40.000Z</time>
      </trkpt>
      <trkpt lat="44.5798" lon="6.19189">
        <ele>1036.8000488281</ele>
        <time>2016-07-14T14:46:45.000Z</time>
      </trkpt>
      <trkpt lat="44.57985" lon="6.19201">
        <ele>1038.8000488281</ele>
        <time>2016-07-14T14:46:52.000Z</time>
      </trkpt>
      <trkpt lat="44.57984" lon="6.19202">
        <ele>1038.8000488281</ele>
        <time>2016-07-14T14:46:53.000Z</time>
      </trkpt>
      <trkpt lat="44.57983" lon="6.19207">
        <ele>1038.8000488281</ele>
        <time>2016-07-14T14:46:56.000Z</time>
      </trkpt>
      <trkpt lat="44.57981" lon="6.19213">
        <ele>1038.8000488281</ele>
        <time>2016-07-14T14:47:00.000Z</time>
      </trkpt>
      <trkpt lat="44.5798" lon="6.19215">
        <ele>1038.8000488281</ele>
        <time>2016-07-14T14:47:02.000Z</time>
      </trkpt>
      <trkpt lat="44.57979" lon="6.19217">
        <ele>1038.4000244141</ele>
        <time>2016-07-14T14:47:07.000Z</time>
      </trkpt>
      <trkpt lat="44.57979" lon="6.19216">
        <ele>1038.4000244141</ele>
        <time>2016-07-14T14:47:15.000Z</time>
      </trkpt>
      <trkpt lat="44.57978" lon="6.19217">
        <ele>1038.1999511719</ele>
        <time>2016-07-14T14:47:20.000Z</time>
      </trkpt>
      <trkpt lat="44.57978" lon="6.19216">
        <ele>1038.1999511719</ele>
        <time>2016-07-14T14:47:28.000Z</time>
      </trkpt>
      <trkpt lat="44.57976" lon="6.19219">
        <ele>1037.8000488281</ele>
        <time>2016-07-14T14:47:33.000Z</time>
      </trkpt>
      <trkpt lat="44.5797" lon="6.19227">
        <ele>1037</ele>
        <time>2016-07-14T14:47:40.000Z</time>
      </trkpt>
      <trkpt lat="44.57965" lon="6.19234">
        <ele>1036.1999511719</ele>
        <time>2016-07-14T14:47:47.000Z</time>
      </trkpt>
      <trkpt lat="44.57959" lon="6.19241">
        <ele>1035.4000244141</ele>
        <time>2016-07-14T14:47:55.000Z</time>
      </trkpt>
      <trkpt lat="44.57954" lon="6.19249">
        <ele>1034.4000244141</ele>
        <time>2016-07-14T14:48:01.000Z</time>
      </trkpt>
      <trkpt lat="44.57951" lon="6.19252">
        <ele>1034</ele>
        <time>2016-07-14T14:48:04.000Z</time>
      </trkpt>
      <trkpt lat="44.57949" lon="6.19263">
        <ele>1034</ele>
        <time>2016-07-14T14:48:11.000Z</time>
      </trkpt>
      <trkpt lat="44.57945" lon="6.19273">
        <ele>1033.4000244141</ele>
        <time>2016-07-14T14:48:18.000Z</time>
      </trkpt>
      <trkpt lat="44.57944" lon="6.19275">
        <ele>1033.1999511719</ele>
        <time>2016-07-14T14:48:20.000Z</time>
      </trkpt>
      <trkpt lat="44.57941" lon="6.1928">
        <ele>1032.5999755859</ele>
        <time>2016-07-14T14:48:25.000Z</time>
      </trkpt>
      <trkpt lat="44.57939" lon="6.19289">
        <ele>1032.5999755859</ele>
        <time>2016-07-14T14:48:31.000Z</time>
      </trkpt>
      <trkpt lat="44.57938" lon="6.19296">
        <ele>1033</ele>
        <time>2016-07-14T14:48:37.000Z</time>
      </trkpt>
      <trkpt lat="44.57938" lon="6.19298">
        <ele>1033</ele>
        <time>2016-07-14T14:48:38.000Z</time>
      </trkpt>
      <trkpt lat="44.57934" lon="6.19306">
        <ele>1032.8000488281</ele>
        <time>2016-07-14T14:48:44.000Z</time>
      </trkpt>
      <trkpt lat="44.57931" lon="6.19315">
        <ele>1032.8000488281</ele>
        <time>2016-07-14T14:48:50.000Z</time>
      </trkpt>
      <trkpt lat="44.57929" lon="6.19324">
        <ele>1032.5999755859</ele>
        <time>2016-07-14T14:48:55.000Z</time>
      </trkpt>
      <trkpt lat="44.57927" lon="6.19332">
        <ele>1032.1999511719</ele>
        <time>2016-07-14T14:48:59.000Z</time>
      </trkpt>
      <trkpt lat="44.57922" lon="6.19346">
        <ele>1031.5999755859</ele>
        <time>2016-07-14T14:49:07.000Z</time>
      </trkpt>
      <trkpt lat="44.57922" lon="6.19347">
        <ele>1031.5999755859</ele>
        <time>2016-07-14T14:49:08.000Z</time>
      </trkpt>
      <trkpt lat="44.57918" lon="6.19355">
        <ele>1030.8000488281</ele>
        <time>2016-07-14T14:49:14.000Z</time>
      </trkpt>
      <trkpt lat="44.57918" lon="6.19357">
        <ele>1030.8000488281</ele>
        <time>2016-07-14T14:49:15.000Z</time>
      </trkpt>
      <trkpt lat="44.57917" lon="6.19363">
        <ele>1031.1999511719</ele>
        <time>2016-07-14T14:49:18.000Z</time>
      </trkpt>
      <trkpt lat="44.57914" lon="6.19371">
        <ele>1031.4000244141</ele>
        <time>2016-07-14T14:49:23.000Z</time>
      </trkpt>
      <trkpt lat="44.57912" lon="6.19377">
        <ele>1031.5999755859</ele>
        <time>2016-07-14T14:49:27.000Z</time>
      </trkpt>
      <trkpt lat="44.57905" lon="6.19393">
        <ele>1031.4000244141</ele>
        <time>2016-07-14T14:49:37.000Z</time>
      </trkpt>
      <trkpt lat="44.57895" lon="6.19407">
        <ele>1029.8000488281</ele>
        <time>2016-07-14T14:49:46.000Z</time>
      </trkpt>
      <trkpt lat="44.57889" lon="6.19419">
        <ele>1028.5999755859</ele>
        <time>2016-07-14T14:49:54.000Z</time>
      </trkpt>
      <trkpt lat="44.57888" lon="6.19421">
        <ele>1028.4000244141</ele>
        <time>2016-07-14T14:49:56.000Z</time>
      </trkpt>
      <trkpt lat="44.57887" lon="6.19425">
        <ele>1028.4000244141</ele>
        <time>2016-07-14T14:50:00.000Z</time>
      </trkpt>
      <trkpt lat="44.57887" lon="6.1943">
        <ele>1028.8000488281</ele>
        <time>2016-07-14T14:50:04.000Z</time>
      </trkpt>
      <trkpt lat="44.57888" lon="6.19434">
        <ele>1029.1999511719</ele>
        <time>2016-07-14T14:50:07.000Z</time>
      </trkpt>
      <trkpt lat="44.5789" lon="6.19443">
        <ele>1030.1999511719</ele>
        <time>2016-07-14T14:50:14.000Z</time>
      </trkpt>
      <trkpt lat="44.5789" lon="6.19445">
        <ele>1030.4000244141</ele>
        <time>2016-07-14T14:50:15.000Z</time>
      </trkpt>
      <trkpt lat="44.5789" lon="6.19452">
        <ele>1030.5999755859</ele>
        <time>2016-07-14T14:50:18.000Z</time>
      </trkpt>
      <trkpt lat="44.57888" lon="6.19457">
        <ele>1030.1999511719</ele>
        <time>2016-07-14T14:50:22.000Z</time>
      </trkpt>
      <trkpt lat="44.57882" lon="6.19462">
        <ele>1029</ele>
        <time>2016-07-14T14:50:28.000Z</time>
      </trkpt>
      <trkpt lat="44.57876" lon="6.19468">
        <ele>1027.8000488281</ele>
        <time>2016-07-14T14:50:33.000Z</time>
      </trkpt>
      <trkpt lat="44.57873" lon="6.1947">
        <ele>1027</ele>
        <time>2016-07-14T14:50:36.000Z</time>
      </trkpt>
      <trkpt lat="44.57871" lon="6.19481">
        <ele>1027</ele>
        <time>2016-07-14T14:50:43.000Z</time>
      </trkpt>
      <trkpt lat="44.57873" lon="6.19484">
        <ele>1027.5999755859</ele>
        <time>2016-07-14T14:50:46.000Z</time>
      </trkpt>
      <trkpt lat="44.57874" lon="6.19485">
        <ele>1028</ele>
        <time>2016-07-14T14:50:48.000Z</time>
      </trkpt>
      <trkpt lat="44.57875" lon="6.19488">
        <ele>1028.1999511719</ele>
        <time>2016-07-14T14:50:50.000Z</time>
      </trkpt>
      <trkpt lat="44.57874" lon="6.19494">
        <ele>1027.8000488281</ele>
        <time>2016-07-14T14:50:55.000Z</time>
      </trkpt>
      <trkpt lat="44.57875" lon="6.19507">
        <ele>1027.8000488281</ele>
        <time>2016-07-14T14:51:03.000Z</time>
      </trkpt>
      <trkpt lat="44.5787" lon="6.19516">
        <ele>1025.8000488281</ele>
        <time>2016-07-14T14:51:12.000Z</time>
      </trkpt>
      <trkpt lat="44.57864" lon="6.19527">
        <ele>1023.799987793</ele>
        <time>2016-07-14T14:51:19.000Z</time>
      </trkpt>
      <trkpt lat="44.57864" lon="6.19529">
        <ele>1023.5999755859</ele>
        <time>2016-07-14T14:51:20.000Z</time>
      </trkpt>
      <trkpt lat="44.57864" lon="6.19535">
        <ele>1023.4000244141</ele>
        <time>2016-07-14T14:51:26.000Z</time>
      </trkpt>
      <trkpt lat="44.57863" lon="6.19539">
        <ele>1023</ele>
        <time>2016-07-14T14:51:29.000Z</time>
      </trkpt>
      <trkpt lat="44.57861" lon="6.19544">
        <ele>1022.4000244141</ele>
        <time>2016-07-14T14:51:32.000Z</time>
      </trkpt>
      <trkpt lat="44.57856" lon="6.19547">
        <ele>1021</ele>
        <time>2016-07-14T14:51:35.000Z</time>
      </trkpt>
      <trkpt lat="44.57851" lon="6.19556">
        <ele>1020</ele>
        <time>2016-07-14T14:51:40.000Z</time>
      </trkpt>
      <trkpt lat="44.57851" lon="6.19561">
        <ele>1020.200012207</ele>
        <time>2016-07-14T14:51:42.000Z</time>
      </trkpt>
      <trkpt lat="44.5785" lon="6.19577">
        <ele>1019.799987793</ele>
        <time>2016-07-14T14:51:49.000Z</time>
      </trkpt>
      <trkpt lat="44.57846" lon="6.19583">
        <ele>1019</ele>
        <time>2016-07-14T14:51:53.000Z</time>
      </trkpt>
      <trkpt lat="44.57846" lon="6.19595">
        <ele>1019</ele>
        <time>2016-07-14T14:52:00.000Z</time>
      </trkpt>
      <trkpt lat="44.57842" lon="6.19606">
        <ele>1018.200012207</ele>
        <time>2016-07-14T14:52:08.000Z</time>
      </trkpt>
      <trkpt lat="44.57839" lon="6.19613">
        <ele>1017.4000244141</ele>
        <time>2016-07-14T14:52:14.000Z</time>
      </trkpt>
      <trkpt lat="44.57838" lon="6.19617">
        <ele>1017.200012207</ele>
        <time>2016-07-14T14:52:16.000Z</time>
      </trkpt>
      <trkpt lat="44.57839" lon="6.19626">
        <ele>1018.200012207</ele>
        <time>2016-07-14T14:52:21.000Z</time>
      </trkpt>
      <trkpt lat="44.57842" lon="6.19646">
        <ele>1020</ele>
        <time>2016-07-14T14:52:31.000Z</time>
      </trkpt>
      <trkpt lat="44.57846" lon="6.19666">
        <ele>1021.799987793</ele>
        <time>2016-07-14T14:52:42.000Z</time>
      </trkpt>
      <trkpt lat="44.57849" lon="6.19684">
        <ele>1023.200012207</ele>
        <time>2016-07-14T14:52:52.000Z</time>
      </trkpt>
      <trkpt lat="44.57852" lon="6.19701">
        <ele>1025</ele>
        <time>2016-07-14T14:53:02.000Z</time>
      </trkpt>
      <trkpt lat="44.57853" lon="6.19718">
        <ele>1026</ele>
        <time>2016-07-14T14:53:11.000Z</time>
      </trkpt>
      <trkpt lat="44.57846" lon="6.19725">
        <ele>1025.1999511719</ele>
        <time>2016-07-14T14:53:18.000Z</time>
      </trkpt>
      <trkpt lat="44.57837" lon="6.19724">
        <ele>1023.5999755859</ele>
        <time>2016-07-14T14:53:25.000Z</time>
      </trkpt>
      <trkpt lat="44.57827" lon="6.19731">
        <ele>1022.5999755859</ele>
        <time>2016-07-14T14:53:34.000Z</time>
      </trkpt>
      <trkpt lat="44.57819" lon="6.19736">
        <ele>1021.799987793</ele>
        <time>2016-07-14T14:53:41.000Z</time>
      </trkpt>
      <trkpt lat="44.57808" lon="6.19746">
        <ele>1021</ele>
        <time>2016-07-14T14:53:50.000Z</time>
      </trkpt>
      <trkpt lat="44.57801" lon="6.1976">
        <ele>1021.200012207</ele>
        <time>2016-07-14T14:53:58.000Z</time>
      </trkpt>
      <trkpt lat="44.57794" lon="6.19775">
        <ele>1021.4000244141</ele>
        <time>2016-07-14T14:54:06.000Z</time>
      </trkpt>
      <trkpt lat="44.57789" lon="6.19785">
        <ele>1021.200012207</ele>
        <time>2016-07-14T14:54:12.000Z</time>
      </trkpt>
      <trkpt lat="44.57788" lon="6.19793">
        <ele>1022</ele>
        <time>2016-07-14T14:54:16.000Z</time>
      </trkpt>
      <trkpt lat="44.57783" lon="6.19796">
        <ele>1021.4000244141</ele>
        <time>2016-07-14T14:54:22.000Z</time>
      </trkpt>
      <trkpt lat="44.57782" lon="6.19796">
        <ele>1021</ele>
        <time>2016-07-14T14:54:24.000Z</time>
      </trkpt>
      <trkpt lat="44.5778" lon="6.19797">
        <ele>1020.799987793</ele>
        <time>2016-07-14T14:54:26.000Z</time>
      </trkpt>
      <trkpt lat="44.57773" lon="6.19812">
        <ele>1021</ele>
        <time>2016-07-14T14:54:36.000Z</time>
      </trkpt>
      <trkpt lat="44.57767" lon="6.19828">
        <ele>1021.4000244141</ele>
        <time>2016-07-14T14:54:45.000Z</time>
      </trkpt>
      <trkpt lat="44.57761" lon="6.19845">
        <ele>1021.799987793</ele>
        <time>2016-07-14T14:54:52.000Z</time>
      </trkpt>
      <trkpt lat="44.57747" lon="6.19858">
        <ele>1020.799987793</ele>
        <time>2016-07-14T14:54:58.000Z</time>
      </trkpt>
      <trkpt lat="44.57732" lon="6.19872">
        <ele>1020</ele>
        <time>2016-07-14T14:55:04.000Z</time>
      </trkpt>
      <trkpt lat="44.57726" lon="6.19884">
        <ele>1020.5999755859</ele>
        <time>2016-07-14T14:55:08.000Z</time>
      </trkpt>
      <trkpt lat="44.57718" lon="6.19897">
        <ele>1020.799987793</ele>
        <time>2016-07-14T14:55:13.000Z</time>
      </trkpt>
      <trkpt lat="44.57712" lon="6.19909">
        <ele>1021</ele>
        <time>2016-07-14T14:55:20.000Z</time>
      </trkpt>
      <trkpt lat="44.57705" lon="6.19924">
        <ele>1021.4000244141</ele>
        <time>2016-07-14T14:55:29.000Z</time>
      </trkpt>
      <trkpt lat="44.577" lon="6.19933">
        <ele>1021.4000244141</ele>
        <time>2016-07-14T14:55:35.000Z</time>
      </trkpt>
      <trkpt lat="44.57699" lon="6.19933">
        <ele>1021</ele>
        <time>2016-07-14T14:55:44.000Z</time>
      </trkpt>
      <trkpt lat="44.57698" lon="6.19935">
        <ele>1021</ele>
        <time>2016-07-14T14:55:58.000Z</time>
      </trkpt>
      <trkpt lat="44.57699" lon="6.19944">
        <ele>1022.200012207</ele>
        <time>2016-07-14T14:57:08.000Z</time>
      </trkpt>
      <trkpt lat="44.57699" lon="6.19956">
        <ele>1023.4000244141</ele>
        <time>2016-07-14T14:57:15.000Z</time>
      </trkpt>
      <trkpt lat="44.57698" lon="6.19967">
        <ele>1024.1999511719</ele>
        <time>2016-07-14T14:57:22.000Z</time>
      </trkpt>
      <trkpt lat="44.57698" lon="6.19969">
        <ele>1024.1999511719</ele>
        <time>2016-07-14T14:57:23.000Z</time>
      </trkpt>
      <trkpt lat="44.57696" lon="6.19975">
        <ele>1024.4000244141</ele>
        <time>2016-07-14T14:57:27.000Z</time>
      </trkpt>
      <trkpt lat="44.57689" lon="6.19988">
        <ele>1024</ele>
        <time>2016-07-14T14:57:36.000Z</time>
      </trkpt>
      <trkpt lat="44.57683" lon="6.19998">
        <ele>1023.200012207</ele>
        <time>2016-07-14T14:57:44.000Z</time>
      </trkpt>
      <trkpt lat="44.57676" lon="6.20007">
        <ele>1022.4000244141</ele>
        <time>2016-07-14T14:57:52.000Z</time>
      </trkpt>
      <trkpt lat="44.57674" lon="6.20018">
        <ele>1022.5999755859</ele>
        <time>2016-07-14T14:57:59.000Z</time>
      </trkpt>
      <trkpt lat="44.57672" lon="6.20031">
        <ele>1023.200012207</ele>
        <time>2016-07-14T14:58:06.000Z</time>
      </trkpt>
      <trkpt lat="44.57673" lon="6.20041">
        <ele>1023.799987793</ele>
        <time>2016-07-14T14:58:11.000Z</time>
      </trkpt>
      <trkpt lat="44.57672" lon="6.20052">
        <ele>1024</ele>
        <time>2016-07-14T14:58:17.000Z</time>
      </trkpt>
      <trkpt lat="44.57671" lon="6.20061">
        <ele>1024</ele>
        <time>2016-07-14T14:58:22.000Z</time>
      </trkpt>
      <trkpt lat="44.57668" lon="6.2007">
        <ele>1023.799987793</ele>
        <time>2016-07-14T14:58:28.000Z</time>
      </trkpt>
      <trkpt lat="44.57667" lon="6.20076">
        <ele>1023.5999755859</ele>
        <time>2016-07-14T14:58:32.000Z</time>
      </trkpt>
      <trkpt lat="44.57664" lon="6.20077">
        <ele>1023.200012207</ele>
        <time>2016-07-14T14:58:37.000Z</time>
      </trkpt>
      <trkpt lat="44.57665" lon="6.20078">
        <ele>1023.200012207</ele>
        <time>2016-07-14T14:58:49.000Z</time>
      </trkpt>
      <trkpt lat="44.57665" lon="6.20077">
        <ele>1023.4000244141</ele>
        <time>2016-07-14T14:58:57.000Z</time>
      </trkpt>
      <trkpt lat="44.57665" lon="6.20076">
        <ele>1023.4000244141</ele>
        <time>2016-07-14T14:59:05.000Z</time>
      </trkpt>
      <trkpt lat="44.57666" lon="6.2007">
        <ele>1023.200012207</ele>
        <time>2016-07-14T14:59:10.000Z</time>
      </trkpt>
      <trkpt lat="44.57666" lon="6.20074">
        <ele>1023.5999755859</ele>
        <time>2016-07-14T14:59:14.000Z</time>
      </trkpt>
      <trkpt lat="44.57662" lon="6.20077">
        <ele>1022.5999755859</ele>
        <time>2016-07-14T14:59:20.000Z</time>
      </trkpt>
      <trkpt lat="44.57662" lon="6.20075">
        <ele>1022.4000244141</ele>
        <time>2016-07-14T14:59:29.000Z</time>
      </trkpt>
      <trkpt lat="44.57663" lon="6.20077">
        <ele>1022.799987793</ele>
        <time>2016-07-14T14:59:34.000Z</time>
      </trkpt>
      <trkpt lat="44.57663" lon="6.20075">
        <ele>1022.5999755859</ele>
        <time>2016-07-14T14:59:42.000Z</time>
      </trkpt>
      <trkpt lat="44.57662" lon="6.20075">
        <ele>1022.5999755859</ele>
        <time>2016-07-14T14:59:57.000Z</time>
      </trkpt>
      <trkpt lat="44.57661" lon="6.20075">
        <ele>1022.200012207</ele>
        <time>2016-07-14T15:00:11.000Z</time>
      </trkpt>
      <trkpt lat="44.57663" lon="6.20075">
        <ele>1022.5999755859</ele>
        <time>2016-07-14T15:00:25.000Z</time>
      </trkpt>
      <trkpt lat="44.57661" lon="6.20076">
        <ele>1022.200012207</ele>
        <time>2016-07-14T15:00:55.000Z</time>
      </trkpt>
      <trkpt lat="44.57658" lon="6.20071">
        <ele>1021.200012207</ele>
        <time>2016-07-14T15:01:44.000Z</time>
      </trkpt>
      <trkpt lat="44.57657" lon="6.20073">
        <ele>1021</ele>
        <time>2016-07-14T15:01:48.000Z</time>
      </trkpt>
      <trkpt lat="44.5766" lon="6.20076">
        <ele>1022</ele>
        <time>2016-07-14T15:02:10.000Z</time>
      </trkpt>
      <trkpt lat="44.5766" lon="6.20078">
        <ele>1022</ele>
        <time>2016-07-14T15:02:13.000Z</time>
      </trkpt>
      <trkpt lat="44.57658" lon="6.20083">
        <ele>1021.799987793</ele>
        <time>2016-07-14T15:02:17.000Z</time>
      </trkpt>
      <trkpt lat="44.57655" lon="6.20097">
        <ele>1022</ele>
        <time>2016-07-14T15:02:25.000Z</time>
      </trkpt>
      <trkpt lat="44.57653" lon="6.20108">
        <ele>1022.200012207</ele>
        <time>2016-07-14T15:02:31.000Z</time>
      </trkpt>
      <trkpt lat="44.5765" lon="6.20119">
        <ele>1022.200012207</ele>
        <time>2016-07-14T15:02:37.000Z</time>
      </trkpt>
      <trkpt lat="44.57648" lon="6.20122">
        <ele>1022</ele>
        <time>2016-07-14T15:02:40.000Z</time>
      </trkpt>
      <trkpt lat="44.57646" lon="6.20126">
        <ele>1021.5999755859</ele>
        <time>2016-07-14T15:02:43.000Z</time>
      </trkpt>
      <trkpt lat="44.57643" lon="6.20128">
        <ele>1021.200012207</ele>
        <time>2016-07-14T15:02:47.000Z</time>
      </trkpt>
      <trkpt lat="44.57641" lon="6.20135">
        <ele>1021.200012207</ele>
        <time>2016-07-14T15:02:52.000Z</time>
      </trkpt>
      <trkpt lat="44.57636" lon="6.20146">
        <ele>1020.5999755859</ele>
        <time>2016-07-14T15:03:00.000Z</time>
      </trkpt>
      <trkpt lat="44.57633" lon="6.20149">
        <ele>1020</ele>
        <time>2016-07-14T15:03:03.000Z</time>
      </trkpt>
      <trkpt lat="44.57629" lon="6.20157">
        <ele>1019.200012207</ele>
        <time>2016-07-14T15:03:10.000Z</time>
      </trkpt>
      <trkpt lat="44.57626" lon="6.2016">
        <ele>1018.5999755859</ele>
        <time>2016-07-14T15:03:13.000Z</time>
      </trkpt>
      <trkpt lat="44.57623" lon="6.20162">
        <ele>1018.200012207</ele>
        <time>2016-07-14T15:03:16.000Z</time>
      </trkpt>
      <trkpt lat="44.57618" lon="6.20169">
        <ele>1017.4000244141</ele>
        <time>2016-07-14T15:03:22.000Z</time>
      </trkpt>
      <trkpt lat="44.57614" lon="6.20178">
        <ele>1017</ele>
        <time>2016-07-14T15:03:28.000Z</time>
      </trkpt>
      <trkpt lat="44.57613" lon="6.20185">
        <ele>1017.200012207</ele>
        <time>2016-07-14T15:03:32.000Z</time>
      </trkpt>
      <trkpt lat="44.57612" lon="6.20193">
        <ele>1017.4000244141</ele>
        <time>2016-07-14T15:03:39.000Z</time>
      </trkpt>
      <trkpt lat="44.57612" lon="6.20187">
        <ele>1017</ele>
        <time>2016-07-14T15:03:46.000Z</time>
      </trkpt>
      <trkpt lat="44.57612" lon="6.20188">
        <ele>1017.200012207</ele>
        <time>2016-07-14T15:03:56.000Z</time>
      </trkpt>
      <trkpt lat="44.57612" lon="6.2019">
        <ele>1017.200012207</ele>
        <time>2016-07-14T15:03:57.000Z</time>
      </trkpt>
      <trkpt lat="44.57612" lon="6.20195">
        <ele>1017.5999755859</ele>
        <time>2016-07-14T15:04:00.000Z</time>
      </trkpt>
      <trkpt lat="44.57609" lon="6.20211">
        <ele>1017.799987793</ele>
        <time>2016-07-14T15:04:09.000Z</time>
      </trkpt>
      <trkpt lat="44.57604" lon="6.20221">
        <ele>1017</ele>
        <time>2016-07-14T15:04:16.000Z</time>
      </trkpt>
      <trkpt lat="44.57595" lon="6.20236">
        <ele>1015.5999755859</ele>
        <time>2016-07-14T15:04:26.000Z</time>
      </trkpt>
      <trkpt lat="44.57588" lon="6.20251">
        <ele>1014.4000244141</ele>
        <time>2016-07-14T15:04:36.000Z</time>
      </trkpt>
      <trkpt lat="44.57587" lon="6.20253">
        <ele>1014.4000244141</ele>
        <time>2016-07-14T15:04:37.000Z</time>
      </trkpt>
      <trkpt lat="44.57581" lon="6.20258">
        <ele>1013</ele>
        <time>2016-07-14T15:04:44.000Z</time>
      </trkpt>
      <trkpt lat="44.5758" lon="6.20258">
        <ele>1012.799987793</ele>
        <time>2016-07-14T15:04:45.000Z</time>
      </trkpt>
      <trkpt lat="44.57571" lon="6.20259">
        <ele>1010.5999755859</ele>
        <time>2016-07-14T15:04:53.000Z</time>
      </trkpt>
      <trkpt lat="44.5757" lon="6.2026">
        <ele>1010.4000244141</ele>
        <time>2016-07-14T15:04:54.000Z</time>
      </trkpt>
      <trkpt lat="44.57564" lon="6.20276">
        <ele>1009.4000244141</ele>
        <time>2016-07-14T15:05:03.000Z</time>
      </trkpt>
      <trkpt lat="44.57562" lon="6.2029">
        <ele>1009.4000244141</ele>
        <time>2016-07-14T15:05:11.000Z</time>
      </trkpt>
      <trkpt lat="44.57567" lon="6.20302">
        <ele>1011.200012207</ele>
        <time>2016-07-14T15:05:18.000Z</time>
      </trkpt>
      <trkpt lat="44.57568" lon="6.20303">
        <ele>1011.4000244141</ele>
        <time>2016-07-14T15:05:19.000Z</time>
      </trkpt>
      <trkpt lat="44.57569" lon="6.20305">
        <ele>1011.799987793</ele>
        <time>2016-07-14T15:05:22.000Z</time>
      </trkpt>
      <trkpt lat="44.57568" lon="6.20307">
        <ele>1011.799987793</ele>
        <time>2016-07-14T15:05:29.000Z</time>
      </trkpt>
      <trkpt lat="44.57564" lon="6.20316">
        <ele>1010.799987793</ele>
        <time>2016-07-14T15:05:34.000Z</time>
      </trkpt>
      <trkpt lat="44.5755" lon="6.20344">
        <ele>1008.200012207</ele>
        <time>2016-07-14T15:05:51.000Z</time>
      </trkpt>
      <trkpt lat="44.57544" lon="6.20356">
        <ele>1007</ele>
        <time>2016-07-14T15:05:58.000Z</time>
      </trkpt>
      <trkpt lat="44.57538" lon="6.20373">
        <ele>1006</ele>
        <time>2016-07-14T15:06:09.000Z</time>
      </trkpt>
      <trkpt lat="44.5754" lon="6.2039">
        <ele>1007.200012207</ele>
        <time>2016-07-14T15:06:18.000Z</time>
      </trkpt>
      <trkpt lat="44.57542" lon="6.20404">
        <ele>1007.799987793</ele>
        <time>2016-07-14T15:06:26.000Z</time>
      </trkpt>
      <trkpt lat="44.57539" lon="6.20422">
        <ele>1006.5999755859</ele>
        <time>2016-07-14T15:06:35.000Z</time>
      </trkpt>
      <trkpt lat="44.57534" lon="6.20438">
        <ele>1004.799987793</ele>
        <time>2016-07-14T15:06:45.000Z</time>
      </trkpt>
      <trkpt lat="44.5753" lon="6.20458">
        <ele>1003.4000244141</ele>
        <time>2016-07-14T15:06:55.000Z</time>
      </trkpt>
      <trkpt lat="44.57526" lon="6.20473">
        <ele>1001.799987793</ele>
        <time>2016-07-14T15:07:03.000Z</time>
      </trkpt>
      <trkpt lat="44.57528" lon="6.20485">
        <ele>1002.4000244141</ele>
        <time>2016-07-14T15:07:10.000Z</time>
      </trkpt>
      <trkpt lat="44.57532" lon="6.205">
        <ele>1003.799987793</ele>
        <time>2016-07-14T15:07:18.000Z</time>
      </trkpt>
      <trkpt lat="44.57536" lon="6.20515">
        <ele>1005.4000244141</ele>
        <time>2016-07-14T15:07:27.000Z</time>
      </trkpt>
      <trkpt lat="44.57538" lon="6.20519">
        <ele>1005.799987793</ele>
        <time>2016-07-14T15:07:33.000Z</time>
      </trkpt>
      <trkpt lat="44.57537" lon="6.20519">
        <ele>1005.5999755859</ele>
        <time>2016-07-14T15:07:43.000Z</time>
      </trkpt>
      <trkpt lat="44.57536" lon="6.20528">
        <ele>1005.4000244141</ele>
        <time>2016-07-14T15:08:03.000Z</time>
      </trkpt>
      <trkpt lat="44.57529" lon="6.20537">
        <ele>1004</ele>
        <time>2016-07-14T15:08:10.000Z</time>
      </trkpt>
      <trkpt lat="44.57521" lon="6.20546">
        <ele>1002</ele>
        <time>2016-07-14T15:08:18.000Z</time>
      </trkpt>
      <trkpt lat="44.57512" lon="6.20561">
        <ele>1000.200012207</ele>
        <time>2016-07-14T15:08:28.000Z</time>
      </trkpt>
      <trkpt lat="44.5751" lon="6.20576">
        <ele>1000</ele>
        <time>2016-07-14T15:08:37.000Z</time>
      </trkpt>
      <trkpt lat="44.57513" lon="6.20593">
        <ele>1001.200012207</ele>
        <time>2016-07-14T15:08:46.000Z</time>
      </trkpt>
      <trkpt lat="44.57513" lon="6.20596">
        <ele>1001.4000244141</ele>
        <time>2016-07-14T15:08:47.000Z</time>
      </trkpt>
      <trkpt lat="44.57512" lon="6.20607">
        <ele>1001.4000244141</ele>
        <time>2016-07-14T15:08:53.000Z</time>
      </trkpt>
      <trkpt lat="44.57512" lon="6.20619">
        <ele>1001.799987793</ele>
        <time>2016-07-14T15:09:00.000Z</time>
      </trkpt>
      <trkpt lat="44.57514" lon="6.20634">
        <ele>1002.5999755859</ele>
        <time>2016-07-14T15:09:09.000Z</time>
      </trkpt>
      <trkpt lat="44.57515" lon="6.20648">
        <ele>1003.200012207</ele>
        <time>2016-07-14T15:09:18.000Z</time>
      </trkpt>
      <trkpt lat="44.57514" lon="6.20651">
        <ele>1003</ele>
        <time>2016-07-14T15:09:20.000Z</time>
      </trkpt>
      <trkpt lat="44.57507" lon="6.20659">
        <ele>1001</ele>
        <time>2016-07-14T15:09:27.000Z</time>
      </trkpt>
      <trkpt lat="44.57496" lon="6.20664">
        <ele>998.40002441406</ele>
        <time>2016-07-14T15:09:35.000Z</time>
      </trkpt>
      <trkpt lat="44.57486" lon="6.20673">
        <ele>995.59997558594</ele>
        <time>2016-07-14T15:09:44.000Z</time>
      </trkpt>
      <trkpt lat="44.5748" lon="6.20679">
        <ele>994.20001220703</ele>
        <time>2016-07-14T15:09:49.000Z</time>
      </trkpt>
      <trkpt lat="44.57477" lon="6.20681">
        <ele>993.59997558594</ele>
        <time>2016-07-14T15:09:55.000Z</time>
      </trkpt>
      <trkpt lat="44.57476" lon="6.20686">
        <ele>993.40002441406</ele>
        <time>2016-07-14T15:10:00.000Z</time>
      </trkpt>
      <trkpt lat="44.57476" lon="6.20701">
        <ele>993.20001220703</ele>
        <time>2016-07-14T15:10:08.000Z</time>
      </trkpt>
      <trkpt lat="44.57474" lon="6.20711">
        <ele>992.79998779297</ele>
        <time>2016-07-14T15:10:14.000Z</time>
      </trkpt>
      <trkpt lat="44.57474" lon="6.20725">
        <ele>992.79998779297</ele>
        <time>2016-07-14T15:10:22.000Z</time>
      </trkpt>
      <trkpt lat="44.57476" lon="6.2074">
        <ele>993</ele>
        <time>2016-07-14T15:10:30.000Z</time>
      </trkpt>
      <trkpt lat="44.57475" lon="6.20752">
        <ele>992.20001220703</ele>
        <time>2016-07-14T15:10:37.000Z</time>
      </trkpt>
      <trkpt lat="44.57473" lon="6.20766">
        <ele>991.20001220703</ele>
        <time>2016-07-14T15:10:46.000Z</time>
      </trkpt>
      <trkpt lat="44.57473" lon="6.20778">
        <ele>990.59997558594</ele>
        <time>2016-07-14T15:10:53.000Z</time>
      </trkpt>
      <trkpt lat="44.57472" lon="6.20797">
        <ele>989.40002441406</ele>
        <time>2016-07-14T15:11:03.000Z</time>
      </trkpt>
      <trkpt lat="44.5747" lon="6.20817">
        <ele>988.40002441406</ele>
        <time>2016-07-14T15:11:13.000Z</time>
      </trkpt>
      <trkpt lat="44.57468" lon="6.20829">
        <ele>988.20001220703</ele>
        <time>2016-07-14T15:11:20.000Z</time>
      </trkpt>
      <trkpt lat="44.57465" lon="6.20841">
        <ele>987.40002441406</ele>
        <time>2016-07-14T15:11:27.000Z</time>
      </trkpt>
      <trkpt lat="44.57463" lon="6.20859">
        <ele>986.40002441406</ele>
        <time>2016-07-14T15:11:36.000Z</time>
      </trkpt>
      <trkpt lat="44.57461" lon="6.20882">
        <ele>985.79998779297</ele>
        <time>2016-07-14T15:11:48.000Z</time>
      </trkpt>
      <trkpt lat="44.57461" lon="6.20894">
        <ele>985.59997558594</ele>
        <time>2016-07-14T15:11:56.000Z</time>
      </trkpt>
      <trkpt lat="44.5746" lon="6.20908">
        <ele>985.40002441406</ele>
        <time>2016-07-14T15:12:03.000Z</time>
      </trkpt>
      <trkpt lat="44.57458" lon="6.20926">
        <ele>984.59997558594</ele>
        <time>2016-07-14T15:12:12.000Z</time>
      </trkpt>
      <trkpt lat="44.57455" lon="6.2094">
        <ele>983.40002441406</ele>
        <time>2016-07-14T15:12:19.000Z</time>
      </trkpt>
      <trkpt lat="44.57452" lon="6.2096">
        <ele>982.40002441406</ele>
        <time>2016-07-14T15:12:29.000Z</time>
      </trkpt>
      <trkpt lat="44.57452" lon="6.2097">
        <ele>982.20001220703</ele>
        <time>2016-07-14T15:12:34.000Z</time>
      </trkpt>
      <trkpt lat="44.57447" lon="6.20984">
        <ele>980.79998779297</ele>
        <time>2016-07-14T15:12:41.000Z</time>
      </trkpt>
      <trkpt lat="44.57446" lon="6.20986">
        <ele>980.59997558594</ele>
        <time>2016-07-14T15:12:42.000Z</time>
      </trkpt>
      <trkpt lat="44.57443" lon="6.20999">
        <ele>979.59997558594</ele>
        <time>2016-07-14T15:12:48.000Z</time>
      </trkpt>
      <trkpt lat="44.57438" lon="6.21017">
        <ele>978</ele>
        <time>2016-07-14T15:12:58.000Z</time>
      </trkpt>
      <trkpt lat="44.57434" lon="6.2103">
        <ele>977</ele>
        <time>2016-07-14T15:13:05.000Z</time>
      </trkpt>
      <trkpt lat="44.57427" lon="6.2105">
        <ele>974.79998779297</ele>
        <time>2016-07-14T15:13:15.000Z</time>
      </trkpt>
      <trkpt lat="44.57424" lon="6.21063">
        <ele>973.59997558594</ele>
        <time>2016-07-14T15:13:22.000Z</time>
      </trkpt>
      <trkpt lat="44.5742" lon="6.21075">
        <ele>972</ele>
        <time>2016-07-14T15:13:29.000Z</time>
      </trkpt>
      <trkpt lat="44.57418" lon="6.2109">
        <ele>971</ele>
        <time>2016-07-14T15:13:37.000Z</time>
      </trkpt>
      <trkpt lat="44.57419" lon="6.21102">
        <ele>971.20001220703</ele>
        <time>2016-07-14T15:13:43.000Z</time>
      </trkpt>
      <trkpt lat="44.57419" lon="6.21113">
        <ele>971.20001220703</ele>
        <time>2016-07-14T15:13:49.000Z</time>
      </trkpt>
      <trkpt lat="44.5742" lon="6.21115">
        <ele>971.59997558594</ele>
        <time>2016-07-14T15:13:50.000Z</time>
      </trkpt>
      <trkpt lat="44.57427" lon="6.21132">
        <ele>973.79998779297</ele>
        <time>2016-07-14T15:14:00.000Z</time>
      </trkpt>
      <trkpt lat="44.57432" lon="6.21146">
        <ele>975.59997558594</ele>
        <time>2016-07-14T15:14:08.000Z</time>
      </trkpt>
      <trkpt lat="44.57434" lon="6.21164">
        <ele>976.20001220703</ele>
        <time>2016-07-14T15:14:18.000Z</time>
      </trkpt>
      <trkpt lat="44.57438" lon="6.21181">
        <ele>977.40002441406</ele>
        <time>2016-07-14T15:14:28.000Z</time>
      </trkpt>
      <trkpt lat="44.57441" lon="6.21197">
        <ele>978.20001220703</ele>
        <time>2016-07-14T15:14:38.000Z</time>
      </trkpt>
      <trkpt lat="44.57444" lon="6.21213">
        <ele>978.59997558594</ele>
        <time>2016-07-14T15:14:47.000Z</time>
      </trkpt>
      <trkpt lat="44.57444" lon="6.21233">
        <ele>979</ele>
        <time>2016-07-14T15:14:57.000Z</time>
      </trkpt>
      <trkpt lat="44.57446" lon="6.21249">
        <ele>980</ele>
        <time>2016-07-14T15:15:06.000Z</time>
      </trkpt>
      <trkpt lat="44.5745" lon="6.21266">
        <ele>981.20001220703</ele>
        <time>2016-07-14T15:15:16.000Z</time>
      </trkpt>
      <trkpt lat="44.57456" lon="6.21285">
        <ele>983.40002441406</ele>
        <time>2016-07-14T15:15:27.000Z</time>
      </trkpt>
      <trkpt lat="44.57458" lon="6.21291">
        <ele>984.40002441406</ele>
        <time>2016-07-14T15:15:31.000Z</time>
      </trkpt>
      <trkpt lat="44.57459" lon="6.21304">
        <ele>984.59997558594</ele>
        <time>2016-07-14T15:15:38.000Z</time>
      </trkpt>
      <trkpt lat="44.57461" lon="6.21315">
        <ele>985.79998779297</ele>
        <time>2016-07-14T15:15:45.000Z</time>
      </trkpt>
      <trkpt lat="44.57466" lon="6.21328">
        <ele>988.40002441406</ele>
        <time>2016-07-14T15:15:54.000Z</time>
      </trkpt>
      <trkpt lat="44.57471" lon="6.21339">
        <ele>990.59997558594</ele>
        <time>2016-07-14T15:16:02.000Z</time>
      </trkpt>
      <trkpt lat="44.57477" lon="6.21355">
        <ele>992.79998779297</ele>
        <time>2016-07-14T15:16:12.000Z</time>
      </trkpt>
      <trkpt lat="44.57477" lon="6.21367">
        <ele>993.40002441406</ele>
        <time>2016-07-14T15:16:19.000Z</time>
      </trkpt>
      <trkpt lat="44.57477" lon="6.21379">
        <ele>993.20001220703</ele>
        <time>2016-07-14T15:16:26.000Z</time>
      </trkpt>
      <trkpt lat="44.57477" lon="6.21383">
        <ele>993.40002441406</ele>
        <time>2016-07-14T15:16:28.000Z</time>
      </trkpt>
      <trkpt lat="44.57476" lon="6.21398">
        <ele>993.20001220703</ele>
        <time>2016-07-14T15:16:37.000Z</time>
      </trkpt>
      <trkpt lat="44.57472" lon="6.21414">
        <ele>991.59997558594</ele>
        <time>2016-07-14T15:16:47.000Z</time>
      </trkpt>
      <trkpt lat="44.57471" lon="6.21419">
        <ele>991.20001220703</ele>
        <time>2016-07-14T15:16:50.000Z</time>
      </trkpt>
      <trkpt lat="44.57469" lon="6.21435">
        <ele>991.20001220703</ele>
        <time>2016-07-14T15:16:59.000Z</time>
      </trkpt>
      <trkpt lat="44.57468" lon="6.21448">
        <ele>991.59997558594</ele>
        <time>2016-07-14T15:17:06.000Z</time>
      </trkpt>
      <trkpt lat="44.5747" lon="6.21463">
        <ele>993</ele>
        <time>2016-07-14T15:17:14.000Z</time>
      </trkpt>
      <trkpt lat="44.57471" lon="6.21466">
        <ele>993.40002441406</ele>
        <time>2016-07-14T15:17:20.000Z</time>
      </trkpt>
      <trkpt lat="44.57471" lon="6.21468">
        <ele>993.59997558594</ele>
        <time>2016-07-14T15:17:26.000Z</time>
      </trkpt>
    </trkseg>
  </trk>
  <trk>
    <name><![CDATA[05 - La Bâtie Neuve sud - Jarjayes]]></name>
    <extensions>
      <line xmlns="http://www.topografix.com/GPX/gpx_style/0/2">
        <color>00FF00</color>
        <width>4</width>
      </line>
    </extensions>
    <trkseg>
      <trkpt lat="44.57468" lon="6.21445">
        <ele>991.40002441406</ele>
        <time>2016-07-15T06:59:19.000Z</time>
      </trkpt>
      <trkpt lat="44.57468" lon="6.21445">
        <ele>991.40002441406</ele>
        <time>2016-07-15T06:59:19.000Z</time>
      </trkpt>
      <trkpt lat="44.57465" lon="6.21437">
        <ele>989.79998779297</ele>
        <time>2016-07-15T06:59:25.000Z</time>
      </trkpt>
      <trkpt lat="44.57464" lon="6.21427">
        <ele>989.20001220703</ele>
        <time>2016-07-15T06:59:32.000Z</time>
      </trkpt>
      <trkpt lat="44.57467" lon="6.2141">
        <ele>989.40002441406</ele>
        <time>2016-07-15T06:59:42.000Z</time>
      </trkpt>
      <trkpt lat="44.57471" lon="6.21394">
        <ele>991.20001220703</ele>
        <time>2016-07-15T06:59:53.000Z</time>
      </trkpt>
      <trkpt lat="44.57475" lon="6.21384">
        <ele>992.40002441406</ele>
        <time>2016-07-15T07:00:02.000Z</time>
      </trkpt>
      <trkpt lat="44.57476" lon="6.2137">
        <ele>992.59997558594</ele>
        <time>2016-07-15T07:00:12.000Z</time>
      </trkpt>
      <trkpt lat="44.57474" lon="6.21345">
        <ele>991.40002441406</ele>
        <time>2016-07-15T07:00:31.000Z</time>
      </trkpt>
      <trkpt lat="44.57469" lon="6.21333">
        <ele>989.40002441406</ele>
        <time>2016-07-15T07:00:41.000Z</time>
      </trkpt>
      <trkpt lat="44.57468" lon="6.21332">
        <ele>989</ele>
        <time>2016-07-15T07:00:47.000Z</time>
      </trkpt>
      <trkpt lat="44.57465" lon="6.21327">
        <ele>987.79998779297</ele>
        <time>2016-07-15T07:00:53.000Z</time>
      </trkpt>
      <trkpt lat="44.57463" lon="6.21321">
        <ele>986.79998779297</ele>
        <time>2016-07-15T07:01:00.000Z</time>
      </trkpt>
      <trkpt lat="44.57461" lon="6.21315">
        <ele>985.79998779297</ele>
        <time>2016-07-15T07:01:07.000Z</time>
      </trkpt>
      <trkpt lat="44.57459" lon="6.21309">
        <ele>984.79998779297</ele>
        <time>2016-07-15T07:01:11.000Z</time>
      </trkpt>
      <trkpt lat="44.57456" lon="6.21296">
        <ele>983.59997558594</ele>
        <time>2016-07-15T07:01:20.000Z</time>
      </trkpt>
      <trkpt lat="44.57454" lon="6.21283">
        <ele>982.59997558594</ele>
        <time>2016-07-15T07:01:29.000Z</time>
      </trkpt>
      <trkpt lat="44.5745" lon="6.2127">
        <ele>981.20001220703</ele>
        <time>2016-07-15T07:01:38.000Z</time>
      </trkpt>
      <trkpt lat="44.57447" lon="6.21255">
        <ele>980.20001220703</ele>
        <time>2016-07-15T07:01:47.000Z</time>
      </trkpt>
      <trkpt lat="44.57445" lon="6.21241">
        <ele>979.40002441406</ele>
        <time>2016-07-15T07:01:56.000Z</time>
      </trkpt>
      <trkpt lat="44.57443" lon="6.21228">
        <ele>979</ele>
        <time>2016-07-15T07:02:03.000Z</time>
      </trkpt>
      <trkpt lat="44.57442" lon="6.21214">
        <ele>978.20001220703</ele>
        <time>2016-07-15T07:02:11.000Z</time>
      </trkpt>
      <trkpt lat="44.5744" lon="6.21199">
        <ele>977.79998779297</ele>
        <time>2016-07-15T07:02:19.000Z</time>
      </trkpt>
      <trkpt lat="44.57436" lon="6.21182">
        <ele>976.59997558594</ele>
        <time>2016-07-15T07:02:29.000Z</time>
      </trkpt>
      <trkpt lat="44.57433" lon="6.21169">
        <ele>975.79998779297</ele>
        <time>2016-07-15T07:02:36.000Z</time>
      </trkpt>
      <trkpt lat="44.5743" lon="6.21152">
        <ele>975.20001220703</ele>
        <time>2016-07-15T07:02:45.000Z</time>
      </trkpt>
      <trkpt lat="44.57426" lon="6.21134">
        <ele>973.59997558594</ele>
        <time>2016-07-15T07:02:55.000Z</time>
      </trkpt>
      <trkpt lat="44.57426" lon="6.21133">
        <ele>973.59997558594</ele>
        <time>2016-07-15T07:02:56.000Z</time>
      </trkpt>
      <trkpt lat="44.57423" lon="6.21128">
        <ele>972.59997558594</ele>
        <time>2016-07-15T07:03:01.000Z</time>
      </trkpt>
      <trkpt lat="44.57416" lon="6.21114">
        <ele>970.20001220703</ele>
        <time>2016-07-15T07:03:10.000Z</time>
      </trkpt>
      <trkpt lat="44.57413" lon="6.21101">
        <ele>969.20001220703</ele>
        <time>2016-07-15T07:03:18.000Z</time>
      </trkpt>
      <trkpt lat="44.57417" lon="6.21089">
        <ele>970.59997558594</ele>
        <time>2016-07-15T07:03:26.000Z</time>
      </trkpt>
      <trkpt lat="44.57421" lon="6.21072">
        <ele>972.40002441406</ele>
        <time>2016-07-15T07:03:35.000Z</time>
      </trkpt>
      <trkpt lat="44.57426" lon="6.21057">
        <ele>974.40002441406</ele>
        <time>2016-07-15T07:03:45.000Z</time>
      </trkpt>
      <trkpt lat="44.57431" lon="6.21039">
        <ele>976.20001220703</ele>
        <time>2016-07-15T07:03:55.000Z</time>
      </trkpt>
      <trkpt lat="44.57438" lon="6.21022">
        <ele>978.20001220703</ele>
        <time>2016-07-15T07:04:06.000Z</time>
      </trkpt>
      <trkpt lat="44.57442" lon="6.21008">
        <ele>979.40002441406</ele>
        <time>2016-07-15T07:04:14.000Z</time>
      </trkpt>
      <trkpt lat="44.57448" lon="6.20992">
        <ele>981.20001220703</ele>
        <time>2016-07-15T07:04:25.000Z</time>
      </trkpt>
      <trkpt lat="44.57453" lon="6.20975">
        <ele>982.40002441406</ele>
        <time>2016-07-15T07:04:35.000Z</time>
      </trkpt>
      <trkpt lat="44.57454" lon="6.20959">
        <ele>983</ele>
        <time>2016-07-15T07:04:44.000Z</time>
      </trkpt>
      <trkpt lat="44.57454" lon="6.20947">
        <ele>983.40002441406</ele>
        <time>2016-07-15T07:04:50.000Z</time>
      </trkpt>
      <trkpt lat="44.57454" lon="6.20928">
        <ele>983.40002441406</ele>
        <time>2016-07-15T07:05:01.000Z</time>
      </trkpt>
      <trkpt lat="44.57455" lon="6.20917">
        <ele>983.79998779297</ele>
        <time>2016-07-15T07:05:07.000Z</time>
      </trkpt>
      <trkpt lat="44.57457" lon="6.20899">
        <ele>984.59997558594</ele>
        <time>2016-07-15T07:05:17.000Z</time>
      </trkpt>
      <trkpt lat="44.57459" lon="6.20886">
        <ele>985.20001220703</ele>
        <time>2016-07-15T07:05:26.000Z</time>
      </trkpt>
      <trkpt lat="44.5746" lon="6.20878">
        <ele>985.59997558594</ele>
        <time>2016-07-15T07:05:31.000Z</time>
      </trkpt>
      <trkpt lat="44.57461" lon="6.20875">
        <ele>985.79998779297</ele>
        <time>2016-07-15T07:05:33.000Z</time>
      </trkpt>
      <trkpt lat="44.57464" lon="6.20853">
        <ele>986.79998779297</ele>
        <time>2016-07-15T07:05:45.000Z</time>
      </trkpt>
      <trkpt lat="44.57467" lon="6.20838">
        <ele>988</ele>
        <time>2016-07-15T07:05:54.000Z</time>
      </trkpt>
      <trkpt lat="44.57471" lon="6.20823">
        <ele>988.79998779297</ele>
        <time>2016-07-15T07:06:03.000Z</time>
      </trkpt>
      <trkpt lat="44.57472" lon="6.20816">
        <ele>989</ele>
        <time>2016-07-15T07:06:08.000Z</time>
      </trkpt>
      <trkpt lat="44.57474" lon="6.20804">
        <ele>989.40002441406</ele>
        <time>2016-07-15T07:06:16.000Z</time>
      </trkpt>
      <trkpt lat="44.57475" lon="6.2079">
        <ele>990.40002441406</ele>
        <time>2016-07-15T07:06:25.000Z</time>
      </trkpt>
      <trkpt lat="44.57475" lon="6.20774">
        <ele>991.20001220703</ele>
        <time>2016-07-15T07:06:35.000Z</time>
      </trkpt>
      <trkpt lat="44.57476" lon="6.20773">
        <ele>991.40002441406</ele>
        <time>2016-07-15T07:06:36.000Z</time>
      </trkpt>
      <trkpt lat="44.57475" lon="6.20771">
        <ele>991.40002441406</ele>
        <time>2016-07-15T07:06:39.000Z</time>
      </trkpt>
      <trkpt lat="44.57476" lon="6.20765">
        <ele>992</ele>
        <time>2016-07-15T07:06:43.000Z</time>
      </trkpt>
      <trkpt lat="44.57477" lon="6.20761">
        <ele>992.20001220703</ele>
        <time>2016-07-15T07:06:46.000Z</time>
      </trkpt>
      <trkpt lat="44.57477" lon="6.20748">
        <ele>992.79998779297</ele>
        <time>2016-07-15T07:06:55.000Z</time>
      </trkpt>
      <trkpt lat="44.57475" lon="6.20736">
        <ele>993</ele>
        <time>2016-07-15T07:07:03.000Z</time>
      </trkpt>
      <trkpt lat="44.57475" lon="6.20735">
        <ele>993</ele>
        <time>2016-07-15T07:07:04.000Z</time>
      </trkpt>
      <trkpt lat="44.57475" lon="6.20721">
        <ele>993.20001220703</ele>
        <time>2016-07-15T07:07:13.000Z</time>
      </trkpt>
      <trkpt lat="44.57477" lon="6.20696">
        <ele>993.59997558594</ele>
        <time>2016-07-15T07:07:29.000Z</time>
      </trkpt>
      <trkpt lat="44.57479" lon="6.20684">
        <ele>993.79998779297</ele>
        <time>2016-07-15T07:07:37.000Z</time>
      </trkpt>
      <trkpt lat="44.57478" lon="6.20683">
        <ele>993.79998779297</ele>
        <time>2016-07-15T07:07:39.000Z</time>
      </trkpt>
      <trkpt lat="44.57474" lon="6.20679">
        <ele>993</ele>
        <time>2016-07-15T07:07:46.000Z</time>
      </trkpt>
      <trkpt lat="44.57471" lon="6.20678">
        <ele>992.20001220703</ele>
        <time>2016-07-15T07:07:50.000Z</time>
      </trkpt>
      <trkpt lat="44.57466" lon="6.20674">
        <ele>991.20001220703</ele>
        <time>2016-07-15T07:07:57.000Z</time>
      </trkpt>
      <trkpt lat="44.57461" lon="6.20672">
        <ele>990</ele>
        <time>2016-07-15T07:08:04.000Z</time>
      </trkpt>
      <trkpt lat="44.57453" lon="6.20667">
        <ele>988.40002441406</ele>
        <time>2016-07-15T07:08:14.000Z</time>
      </trkpt>
      <trkpt lat="44.57449" lon="6.20664">
        <ele>987.40002441406</ele>
        <time>2016-07-15T07:08:19.000Z</time>
      </trkpt>
      <trkpt lat="44.57445" lon="6.2066">
        <ele>986.40002441406</ele>
        <time>2016-07-15T07:08:24.000Z</time>
      </trkpt>
      <trkpt lat="44.57438" lon="6.20652">
        <ele>984.79998779297</ele>
        <time>2016-07-15T07:08:34.000Z</time>
      </trkpt>
      <trkpt lat="44.57438" lon="6.2065">
        <ele>984.79998779297</ele>
        <time>2016-07-15T07:08:35.000Z</time>
      </trkpt>
      <trkpt lat="44.57436" lon="6.20646">
        <ele>984.20001220703</ele>
        <time>2016-07-15T07:08:38.000Z</time>
      </trkpt>
      <trkpt lat="44.5743" lon="6.20635">
        <ele>982.40002441406</ele>
        <time>2016-07-15T07:08:46.000Z</time>
      </trkpt>
      <trkpt lat="44.57429" lon="6.20634">
        <ele>982.20001220703</ele>
        <time>2016-07-15T07:08:54.000Z</time>
      </trkpt>
      <trkpt lat="44.57429" lon="6.20632">
        <ele>982</ele>
        <time>2016-07-15T07:09:18.000Z</time>
      </trkpt>
      <trkpt lat="44.57424" lon="6.20623">
        <ele>980.59997558594</ele>
        <time>2016-07-15T07:09:24.000Z</time>
      </trkpt>
      <trkpt lat="44.57416" lon="6.20612">
        <ele>978.40002441406</ele>
        <time>2016-07-15T07:09:34.000Z</time>
      </trkpt>
      <trkpt lat="44.57416" lon="6.20611">
        <ele>978.20001220703</ele>
        <time>2016-07-15T07:09:35.000Z</time>
      </trkpt>
      <trkpt lat="44.57409" lon="6.20605">
        <ele>976.40002441406</ele>
        <time>2016-07-15T07:09:43.000Z</time>
      </trkpt>
      <trkpt lat="44.57408" lon="6.20605">
        <ele>976.20001220703</ele>
        <time>2016-07-15T07:09:44.000Z</time>
      </trkpt>
      <trkpt lat="44.57406" lon="6.20606">
        <ele>975.59997558594</ele>
        <time>2016-07-15T07:09:46.000Z</time>
      </trkpt>
      <trkpt lat="44.57399" lon="6.20601">
        <ele>973.79998779297</ele>
        <time>2016-07-15T07:09:56.000Z</time>
      </trkpt>
      <trkpt lat="44.57392" lon="6.20594">
        <ele>972</ele>
        <time>2016-07-15T07:10:05.000Z</time>
      </trkpt>
      <trkpt lat="44.57371" lon="6.20583">
        <ele>966.20001220703</ele>
        <time>2016-07-15T07:10:24.000Z</time>
      </trkpt>
      <trkpt lat="44.57362" lon="6.20585">
        <ele>964.20001220703</ele>
        <time>2016-07-15T07:10:33.000Z</time>
      </trkpt>
      <trkpt lat="44.57356" lon="6.20588">
        <ele>962.79998779297</ele>
        <time>2016-07-15T07:10:41.000Z</time>
      </trkpt>
      <trkpt lat="44.57352" lon="6.20591">
        <ele>962</ele>
        <time>2016-07-15T07:10:45.000Z</time>
      </trkpt>
      <trkpt lat="44.5735" lon="6.20594">
        <ele>961.40002441406</ele>
        <time>2016-07-15T07:10:49.000Z</time>
      </trkpt>
      <trkpt lat="44.57347" lon="6.20597">
        <ele>961</ele>
        <time>2016-07-15T07:10:52.000Z</time>
      </trkpt>
      <trkpt lat="44.57343" lon="6.20603">
        <ele>960</ele>
        <time>2016-07-15T07:10:58.000Z</time>
      </trkpt>
      <trkpt lat="44.57342" lon="6.20604">
        <ele>959.79998779297</ele>
        <time>2016-07-15T07:10:59.000Z</time>
      </trkpt>
      <trkpt lat="44.57335" lon="6.20609">
        <ele>958.20001220703</ele>
        <time>2016-07-15T07:11:06.000Z</time>
      </trkpt>
      <trkpt lat="44.57328" lon="6.20612">
        <ele>956.59997558594</ele>
        <time>2016-07-15T07:11:12.000Z</time>
      </trkpt>
      <trkpt lat="44.57326" lon="6.20614">
        <ele>956</ele>
        <time>2016-07-15T07:11:19.000Z</time>
      </trkpt>
      <trkpt lat="44.57313" lon="6.20612">
        <ele>952.59997558594</ele>
        <time>2016-07-15T07:11:31.000Z</time>
      </trkpt>
      <trkpt lat="44.57311" lon="6.20605">
        <ele>952</ele>
        <time>2016-07-15T07:11:36.000Z</time>
      </trkpt>
      <trkpt lat="44.57311" lon="6.20603">
        <ele>951.79998779297</ele>
        <time>2016-07-15T07:11:38.000Z</time>
      </trkpt>
      <trkpt lat="44.57309" lon="6.20593">
        <ele>951.59997558594</ele>
        <time>2016-07-15T07:11:43.000Z</time>
      </trkpt>
      <trkpt lat="44.57307" lon="6.20583">
        <ele>951</ele>
        <time>2016-07-15T07:11:49.000Z</time>
      </trkpt>
      <trkpt lat="44.57296" lon="6.20577">
        <ele>948</ele>
        <time>2016-07-15T07:12:00.000Z</time>
      </trkpt>
      <trkpt lat="44.5729" lon="6.20576">
        <ele>946.40002441406</ele>
        <time>2016-07-15T07:12:05.000Z</time>
      </trkpt>
      <trkpt lat="44.57279" lon="6.20579">
        <ele>943.79998779297</ele>
        <time>2016-07-15T07:12:13.000Z</time>
      </trkpt>
      <trkpt lat="44.57279" lon="6.20581">
        <ele>943.79998779297</ele>
        <time>2016-07-15T07:12:15.000Z</time>
      </trkpt>
      <trkpt lat="44.57279" lon="6.20584">
        <ele>943.79998779297</ele>
        <time>2016-07-15T07:12:17.000Z</time>
      </trkpt>
      <trkpt lat="44.57275" lon="6.20597">
        <ele>943</ele>
        <time>2016-07-15T07:12:25.000Z</time>
      </trkpt>
      <trkpt lat="44.57272" lon="6.20609">
        <ele>942.40002441406</ele>
        <time>2016-07-15T07:12:32.000Z</time>
      </trkpt>
      <trkpt lat="44.5727" lon="6.20615">
        <ele>941.79998779297</ele>
        <time>2016-07-15T07:12:39.000Z</time>
      </trkpt>
      <trkpt lat="44.5727" lon="6.20619">
        <ele>942</ele>
        <time>2016-07-15T07:12:45.000Z</time>
      </trkpt>
      <trkpt lat="44.57269" lon="6.20617">
        <ele>941.59997558594</ele>
        <time>2016-07-15T07:12:52.000Z</time>
      </trkpt>
      <trkpt lat="44.5727" lon="6.20613">
        <ele>942</ele>
        <time>2016-07-15T07:13:05.000Z</time>
      </trkpt>
      <trkpt lat="44.57273" lon="6.20603">
        <ele>942.40002441406</ele>
        <time>2016-07-15T07:13:12.000Z</time>
      </trkpt>
      <trkpt lat="44.57275" lon="6.20595">
        <ele>943</ele>
        <time>2016-07-15T07:13:17.000Z</time>
      </trkpt>
      <trkpt lat="44.57278" lon="6.20578">
        <ele>943.59997558594</ele>
        <time>2016-07-15T07:13:26.000Z</time>
      </trkpt>
      <trkpt lat="44.57278" lon="6.20577">
        <ele>943.59997558594</ele>
        <time>2016-07-15T07:13:27.000Z</time>
      </trkpt>
      <trkpt lat="44.57278" lon="6.20573">
        <ele>943.59997558594</ele>
        <time>2016-07-15T07:13:31.000Z</time>
      </trkpt>
      <trkpt lat="44.57275" lon="6.20564">
        <ele>943</ele>
        <time>2016-07-15T07:13:36.000Z</time>
      </trkpt>
      <trkpt lat="44.57274" lon="6.20559">
        <ele>942.79998779297</ele>
        <time>2016-07-15T07:13:39.000Z</time>
      </trkpt>
      <trkpt lat="44.57271" lon="6.20547">
        <ele>942.20001220703</ele>
        <time>2016-07-15T07:13:46.000Z</time>
      </trkpt>
      <trkpt lat="44.57271" lon="6.20543">
        <ele>942</ele>
        <time>2016-07-15T07:13:52.000Z</time>
      </trkpt>
      <trkpt lat="44.57271" lon="6.20547">
        <ele>942.20001220703</ele>
        <time>2016-07-15T07:13:56.000Z</time>
      </trkpt>
      <trkpt lat="44.57273" lon="6.20567">
        <ele>942.59997558594</ele>
        <time>2016-07-15T07:14:07.000Z</time>
      </trkpt>
      <trkpt lat="44.57274" lon="6.20583">
        <ele>942.59997558594</ele>
        <time>2016-07-15T07:14:18.000Z</time>
      </trkpt>
      <trkpt lat="44.57274" lon="6.20585">
        <ele>942.59997558594</ele>
        <time>2016-07-15T07:14:29.000Z</time>
      </trkpt>
      <trkpt lat="44.57273" lon="6.20588">
        <ele>942.59997558594</ele>
        <time>2016-07-15T07:14:34.000Z</time>
      </trkpt>
      <trkpt lat="44.57274" lon="6.20586">
        <ele>942.59997558594</ele>
        <time>2016-07-15T07:14:49.000Z</time>
      </trkpt>
      <trkpt lat="44.57275" lon="6.20586">
        <ele>943</ele>
        <time>2016-07-15T07:15:03.000Z</time>
      </trkpt>
      <trkpt lat="44.57276" lon="6.20591">
        <ele>943</ele>
        <time>2016-07-15T07:15:09.000Z</time>
      </trkpt>
      <trkpt lat="44.57277" lon="6.20583">
        <ele>943.40002441406</ele>
        <time>2016-07-15T07:15:27.000Z</time>
      </trkpt>
      <trkpt lat="44.57277" lon="6.20581">
        <ele>943.40002441406</ele>
        <time>2016-07-15T07:15:42.000Z</time>
      </trkpt>
      <trkpt lat="44.57278" lon="6.20583">
        <ele>943.59997558594</ele>
        <time>2016-07-15T07:15:50.000Z</time>
      </trkpt>
      <trkpt lat="44.57278" lon="6.20585">
        <ele>943.59997558594</ele>
        <time>2016-07-15T07:15:51.000Z</time>
      </trkpt>
      <trkpt lat="44.57277" lon="6.20586">
        <ele>943.40002441406</ele>
        <time>2016-07-15T07:15:55.000Z</time>
      </trkpt>
      <trkpt lat="44.57277" lon="6.20588">
        <ele>943.40002441406</ele>
        <time>2016-07-15T07:15:57.000Z</time>
      </trkpt>
      <trkpt lat="44.57277" lon="6.20589">
        <ele>943.20001220703</ele>
        <time>2016-07-15T07:16:04.000Z</time>
      </trkpt>
      <trkpt lat="44.57275" lon="6.20587">
        <ele>943</ele>
        <time>2016-07-15T07:16:12.000Z</time>
      </trkpt>
      <trkpt lat="44.57274" lon="6.20586">
        <ele>942.59997558594</ele>
        <time>2016-07-15T07:16:13.000Z</time>
      </trkpt>
      <trkpt lat="44.57273" lon="6.20586">
        <ele>942.59997558594</ele>
        <time>2016-07-15T07:16:14.000Z</time>
      </trkpt>
      <trkpt lat="44.57266" lon="6.20578">
        <ele>941</ele>
        <time>2016-07-15T07:16:28.000Z</time>
      </trkpt>
      <trkpt lat="44.57266" lon="6.20576">
        <ele>941</ele>
        <time>2016-07-15T07:16:29.000Z</time>
      </trkpt>
      <trkpt lat="44.57263" lon="6.20573">
        <ele>940.40002441406</ele>
        <time>2016-07-15T07:16:32.000Z</time>
      </trkpt>
      <trkpt lat="44.57256" lon="6.20564">
        <ele>938.79998779297</ele>
        <time>2016-07-15T07:16:40.000Z</time>
      </trkpt>
      <trkpt lat="44.57249" lon="6.20558">
        <ele>937.40002441406</ele>
        <time>2016-07-15T07:16:47.000Z</time>
      </trkpt>
      <trkpt lat="44.57246" lon="6.20556">
        <ele>936.79998779297</ele>
        <time>2016-07-15T07:16:50.000Z</time>
      </trkpt>
      <trkpt lat="44.57236" lon="6.20556">
        <ele>934.59997558594</ele>
        <time>2016-07-15T07:16:58.000Z</time>
      </trkpt>
      <trkpt lat="44.5723" lon="6.20562">
        <ele>933.20001220703</ele>
        <time>2016-07-15T07:17:05.000Z</time>
      </trkpt>
      <trkpt lat="44.57229" lon="6.20564">
        <ele>933</ele>
        <time>2016-07-15T07:17:12.000Z</time>
      </trkpt>
      <trkpt lat="44.57227" lon="6.20559">
        <ele>932.59997558594</ele>
        <time>2016-07-15T07:18:58.000Z</time>
      </trkpt>
      <trkpt lat="44.57228" lon="6.20564">
        <ele>932.79998779297</ele>
        <time>2016-07-15T07:19:57.000Z</time>
      </trkpt>
      <trkpt lat="44.57226" lon="6.2056">
        <ele>932.40002441406</ele>
        <time>2016-07-15T07:20:05.000Z</time>
      </trkpt>
      <trkpt lat="44.57228" lon="6.20559">
        <ele>932.79998779297</ele>
        <time>2016-07-15T07:20:12.000Z</time>
      </trkpt>
      <trkpt lat="44.57228" lon="6.2056">
        <ele>932.59997558594</ele>
        <time>2016-07-15T07:20:17.000Z</time>
      </trkpt>
      <trkpt lat="44.57226" lon="6.20565">
        <ele>932.40002441406</ele>
        <time>2016-07-15T07:20:42.000Z</time>
      </trkpt>
      <trkpt lat="44.57227" lon="6.20563">
        <ele>932.59997558594</ele>
        <time>2016-07-15T07:20:44.000Z</time>
      </trkpt>
      <trkpt lat="44.57226" lon="6.2057">
        <ele>932.20001220703</ele>
        <time>2016-07-15T07:20:49.000Z</time>
      </trkpt>
      <trkpt lat="44.57222" lon="6.2058">
        <ele>931.40002441406</ele>
        <time>2016-07-15T07:20:53.000Z</time>
      </trkpt>
      <trkpt lat="44.57221" lon="6.20581">
        <ele>931.20001220703</ele>
        <time>2016-07-15T07:20:54.000Z</time>
      </trkpt>
      <trkpt lat="44.57222" lon="6.20577">
        <ele>931.59997558594</ele>
        <time>2016-07-15T07:20:57.000Z</time>
      </trkpt>
      <trkpt lat="44.57227" lon="6.20566">
        <ele>932.59997558594</ele>
        <time>2016-07-15T07:21:04.000Z</time>
      </trkpt>
      <trkpt lat="44.57228" lon="6.20563">
        <ele>932.79998779297</ele>
        <time>2016-07-15T07:21:10.000Z</time>
      </trkpt>
      <trkpt lat="44.5723" lon="6.20562">
        <ele>933.20001220703</ele>
        <time>2016-07-15T07:21:45.000Z</time>
      </trkpt>
      <trkpt lat="44.57224" lon="6.20559">
        <ele>932</ele>
        <time>2016-07-15T07:22:09.000Z</time>
      </trkpt>
      <trkpt lat="44.57223" lon="6.20559">
        <ele>931.79998779297</ele>
        <time>2016-07-15T07:22:10.000Z</time>
      </trkpt>
      <trkpt lat="44.57214" lon="6.20556">
        <ele>930</ele>
        <time>2016-07-15T07:22:19.000Z</time>
      </trkpt>
      <trkpt lat="44.57209" lon="6.2056">
        <ele>928.79998779297</ele>
        <time>2016-07-15T07:22:24.000Z</time>
      </trkpt>
      <trkpt lat="44.57201" lon="6.20563">
        <ele>927</ele>
        <time>2016-07-15T07:22:30.000Z</time>
      </trkpt>
      <trkpt lat="44.57196" lon="6.20558">
        <ele>926.20001220703</ele>
        <time>2016-07-15T07:22:35.000Z</time>
      </trkpt>
      <trkpt lat="44.57196" lon="6.20557">
        <ele>926.20001220703</ele>
        <time>2016-07-15T07:22:40.000Z</time>
      </trkpt>
      <trkpt lat="44.572" lon="6.20563">
        <ele>926.59997558594</ele>
        <time>2016-07-15T07:22:45.000Z</time>
      </trkpt>
      <trkpt lat="44.572" lon="6.20565">
        <ele>926.59997558594</ele>
        <time>2016-07-15T07:22:46.000Z</time>
      </trkpt>
      <trkpt lat="44.57198" lon="6.20577">
        <ele>926</ele>
        <time>2016-07-15T07:22:53.000Z</time>
      </trkpt>
      <trkpt lat="44.57197" lon="6.20593">
        <ele>925.40002441406</ele>
        <time>2016-07-15T07:23:01.000Z</time>
      </trkpt>
      <trkpt lat="44.57193" lon="6.20606">
        <ele>924.40002441406</ele>
        <time>2016-07-15T07:23:08.000Z</time>
      </trkpt>
      <trkpt lat="44.57185" lon="6.20632">
        <ele>922</ele>
        <time>2016-07-15T07:23:24.000Z</time>
      </trkpt>
      <trkpt lat="44.5718" lon="6.20642">
        <ele>921.20001220703</ele>
        <time>2016-07-15T07:23:30.000Z</time>
      </trkpt>
      <trkpt lat="44.57172" lon="6.20659">
        <ele>919.59997558594</ele>
        <time>2016-07-15T07:23:41.000Z</time>
      </trkpt>
      <trkpt lat="44.57168" lon="6.20665">
        <ele>918.79998779297</ele>
        <time>2016-07-15T07:23:46.000Z</time>
      </trkpt>
      <trkpt lat="44.57164" lon="6.20668">
        <ele>918</ele>
        <time>2016-07-15T07:23:50.000Z</time>
      </trkpt>
      <trkpt lat="44.57151" lon="6.20666">
        <ele>915.59997558594</ele>
        <time>2016-07-15T07:24:00.000Z</time>
      </trkpt>
      <trkpt lat="44.57143" lon="6.20662">
        <ele>914.20001220703</ele>
        <time>2016-07-15T07:24:07.000Z</time>
      </trkpt>
      <trkpt lat="44.57141" lon="6.20663">
        <ele>914</ele>
        <time>2016-07-15T07:24:12.000Z</time>
      </trkpt>
      <trkpt lat="44.57141" lon="6.20661">
        <ele>914</ele>
        <time>2016-07-15T07:24:41.000Z</time>
      </trkpt>
      <trkpt lat="44.5714" lon="6.20661">
        <ele>913.79998779297</ele>
        <time>2016-07-15T07:24:48.000Z</time>
      </trkpt>
      <trkpt lat="44.5714" lon="6.20663">
        <ele>913.79998779297</ele>
        <time>2016-07-15T07:24:53.000Z</time>
      </trkpt>
      <trkpt lat="44.5714" lon="6.20657">
        <ele>913.79998779297</ele>
        <time>2016-07-15T07:25:20.000Z</time>
      </trkpt>
      <trkpt lat="44.57139" lon="6.20657">
        <ele>913.59997558594</ele>
        <time>2016-07-15T07:25:21.000Z</time>
      </trkpt>
      <trkpt lat="44.57138" lon="6.20657">
        <ele>913.59997558594</ele>
        <time>2016-07-15T07:25:22.000Z</time>
      </trkpt>
      <trkpt lat="44.57127" lon="6.2065">
        <ele>911.59997558594</ele>
        <time>2016-07-15T07:25:30.000Z</time>
      </trkpt>
      <trkpt lat="44.57122" lon="6.20646">
        <ele>910.79998779297</ele>
        <time>2016-07-15T07:25:34.000Z</time>
      </trkpt>
      <trkpt lat="44.5711" lon="6.20638">
        <ele>908.79998779297</ele>
        <time>2016-07-15T07:25:44.000Z</time>
      </trkpt>
      <trkpt lat="44.57098" lon="6.2063">
        <ele>906.79998779297</ele>
        <time>2016-07-15T07:25:53.000Z</time>
      </trkpt>
      <trkpt lat="44.57086" lon="6.2062">
        <ele>904.79998779297</ele>
        <time>2016-07-15T07:26:03.000Z</time>
      </trkpt>
      <trkpt lat="44.57067" lon="6.20603">
        <ele>902</ele>
        <time>2016-07-15T07:26:19.000Z</time>
      </trkpt>
      <trkpt lat="44.57043" lon="6.20601">
        <ele>897.59997558594</ele>
        <time>2016-07-15T07:26:36.000Z</time>
      </trkpt>
      <trkpt lat="44.57031" lon="6.20599">
        <ele>895.59997558594</ele>
        <time>2016-07-15T07:26:45.000Z</time>
      </trkpt>
      <trkpt lat="44.57021" lon="6.20592">
        <ele>894.59997558594</ele>
        <time>2016-07-15T07:26:53.000Z</time>
      </trkpt>
      <trkpt lat="44.57015" lon="6.2058">
        <ele>894</ele>
        <time>2016-07-15T07:27:01.000Z</time>
      </trkpt>
      <trkpt lat="44.57011" lon="6.20572">
        <ele>893.59997558594</ele>
        <time>2016-07-15T07:27:06.000Z</time>
      </trkpt>
      <trkpt lat="44.57006" lon="6.2055">
        <ele>893.20001220703</ele>
        <time>2016-07-15T07:27:19.000Z</time>
      </trkpt>
      <trkpt lat="44.56999" lon="6.20536">
        <ele>892.40002441406</ele>
        <time>2016-07-15T07:27:28.000Z</time>
      </trkpt>
      <trkpt lat="44.56992" lon="6.20531">
        <ele>891.40002441406</ele>
        <time>2016-07-15T07:27:34.000Z</time>
      </trkpt>
      <trkpt lat="44.56986" lon="6.20531">
        <ele>890.59997558594</ele>
        <time>2016-07-15T07:27:39.000Z</time>
      </trkpt>
      <trkpt lat="44.5698" lon="6.20538">
        <ele>889.79998779297</ele>
        <time>2016-07-15T07:27:45.000Z</time>
      </trkpt>
      <trkpt lat="44.56978" lon="6.20541">
        <ele>889.59997558594</ele>
        <time>2016-07-15T07:27:47.000Z</time>
      </trkpt>
      <trkpt lat="44.56976" lon="6.20546">
        <ele>889.40002441406</ele>
        <time>2016-07-15T07:27:53.000Z</time>
      </trkpt>
      <trkpt lat="44.56977" lon="6.20544">
        <ele>889.40002441406</ele>
        <time>2016-07-15T07:28:23.000Z</time>
      </trkpt>
      <trkpt lat="44.56976" lon="6.20546">
        <ele>889.20001220703</ele>
        <time>2016-07-15T07:28:39.000Z</time>
      </trkpt>
      <trkpt lat="44.56975" lon="6.20558">
        <ele>889.20001220703</ele>
        <time>2016-07-15T07:28:46.000Z</time>
      </trkpt>
      <trkpt lat="44.56975" lon="6.2056">
        <ele>889.20001220703</ele>
        <time>2016-07-15T07:28:47.000Z</time>
      </trkpt>
      <trkpt lat="44.56975" lon="6.20573">
        <ele>888.79998779297</ele>
        <time>2016-07-15T07:28:54.000Z</time>
      </trkpt>
      <trkpt lat="44.56977" lon="6.20586">
        <ele>888.79998779297</ele>
        <time>2016-07-15T07:29:01.000Z</time>
      </trkpt>
      <trkpt lat="44.5698" lon="6.20596">
        <ele>889</ele>
        <time>2016-07-15T07:29:07.000Z</time>
      </trkpt>
      <trkpt lat="44.5698" lon="6.2061">
        <ele>888.59997558594</ele>
        <time>2016-07-15T07:29:14.000Z</time>
      </trkpt>
      <trkpt lat="44.56976" lon="6.20619">
        <ele>888</ele>
        <time>2016-07-15T07:29:20.000Z</time>
      </trkpt>
      <trkpt lat="44.56966" lon="6.20625">
        <ele>886.40002441406</ele>
        <time>2016-07-15T07:29:29.000Z</time>
      </trkpt>
      <trkpt lat="44.56956" lon="6.20623">
        <ele>885.20001220703</ele>
        <time>2016-07-15T07:29:36.000Z</time>
      </trkpt>
      <trkpt lat="44.5695" lon="6.20615">
        <ele>884.59997558594</ele>
        <time>2016-07-15T07:29:42.000Z</time>
      </trkpt>
      <trkpt lat="44.56947" lon="6.20602">
        <ele>884.40002441406</ele>
        <time>2016-07-15T07:29:49.000Z</time>
      </trkpt>
      <trkpt lat="44.56942" lon="6.20587">
        <ele>884</ele>
        <time>2016-07-15T07:29:57.000Z</time>
      </trkpt>
      <trkpt lat="44.5694" lon="6.20584">
        <ele>883.79998779297</ele>
        <time>2016-07-15T07:30:02.000Z</time>
      </trkpt>
      <trkpt lat="44.56941" lon="6.20586">
        <ele>883.79998779297</ele>
        <time>2016-07-15T07:30:07.000Z</time>
      </trkpt>
      <trkpt lat="44.56939" lon="6.2058">
        <ele>883.59997558594</ele>
        <time>2016-07-15T07:30:42.000Z</time>
      </trkpt>
      <trkpt lat="44.56935" lon="6.20563">
        <ele>883.40002441406</ele>
        <time>2016-07-15T07:30:52.000Z</time>
      </trkpt>
      <trkpt lat="44.56931" lon="6.20549">
        <ele>883.20001220703</ele>
        <time>2016-07-15T07:31:00.000Z</time>
      </trkpt>
      <trkpt lat="44.56916" lon="6.20511">
        <ele>881.79998779297</ele>
        <time>2016-07-15T07:31:23.000Z</time>
      </trkpt>
      <trkpt lat="44.56902" lon="6.20485">
        <ele>880.20001220703</ele>
        <time>2016-07-15T07:31:40.000Z</time>
      </trkpt>
      <trkpt lat="44.56896" lon="6.20481">
        <ele>879.40002441406</ele>
        <time>2016-07-15T07:31:45.000Z</time>
      </trkpt>
      <trkpt lat="44.56892" lon="6.20482">
        <ele>879</ele>
        <time>2016-07-15T07:31:49.000Z</time>
      </trkpt>
      <trkpt lat="44.56882" lon="6.20482">
        <ele>877.79998779297</ele>
        <time>2016-07-15T07:31:57.000Z</time>
      </trkpt>
      <trkpt lat="44.56869" lon="6.20485">
        <ele>876</ele>
        <time>2016-07-15T07:32:07.000Z</time>
      </trkpt>
      <trkpt lat="44.56855" lon="6.20487">
        <ele>874.59997558594</ele>
        <time>2016-07-15T07:32:17.000Z</time>
      </trkpt>
      <trkpt lat="44.56836" lon="6.20491">
        <ele>872.79998779297</ele>
        <time>2016-07-15T07:32:30.000Z</time>
      </trkpt>
      <trkpt lat="44.56824" lon="6.20493">
        <ele>871.79998779297</ele>
        <time>2016-07-15T07:32:39.000Z</time>
      </trkpt>
      <trkpt lat="44.56811" lon="6.20495">
        <ele>870.59997558594</ele>
        <time>2016-07-15T07:32:48.000Z</time>
      </trkpt>
      <trkpt lat="44.56797" lon="6.20494">
        <ele>869.59997558594</ele>
        <time>2016-07-15T07:32:58.000Z</time>
      </trkpt>
      <trkpt lat="44.56787" lon="6.20495">
        <ele>868.79998779297</ele>
        <time>2016-07-15T07:33:05.000Z</time>
      </trkpt>
      <trkpt lat="44.56765" lon="6.20497">
        <ele>867.20001220703</ele>
        <time>2016-07-15T07:33:20.000Z</time>
      </trkpt>
      <trkpt lat="44.56761" lon="6.20498">
        <ele>866.79998779297</ele>
        <time>2016-07-15T07:33:23.000Z</time>
      </trkpt>
      <trkpt lat="44.56749" lon="6.205">
        <ele>866</ele>
        <time>2016-07-15T07:33:32.000Z</time>
      </trkpt>
      <trkpt lat="44.56738" lon="6.205">
        <ele>865.20001220703</ele>
        <time>2016-07-15T07:33:40.000Z</time>
      </trkpt>
      <trkpt lat="44.56725" lon="6.205">
        <ele>864.20001220703</ele>
        <time>2016-07-15T07:33:49.000Z</time>
      </trkpt>
      <trkpt lat="44.56713" lon="6.20498">
        <ele>863.40002441406</ele>
        <time>2016-07-15T07:33:58.000Z</time>
      </trkpt>
      <trkpt lat="44.56696" lon="6.20466">
        <ele>862.59997558594</ele>
        <time>2016-07-15T07:34:20.000Z</time>
      </trkpt>
      <trkpt lat="44.56689" lon="6.20448">
        <ele>862.20001220703</ele>
        <time>2016-07-15T07:34:29.000Z</time>
      </trkpt>
      <trkpt lat="44.56681" lon="6.20426">
        <ele>861.59997558594</ele>
        <time>2016-07-15T07:34:41.000Z</time>
      </trkpt>
      <trkpt lat="44.56676" lon="6.20414">
        <ele>861.20001220703</ele>
        <time>2016-07-15T07:34:48.000Z</time>
      </trkpt>
      <trkpt lat="44.5667" lon="6.20402">
        <ele>860.79998779297</ele>
        <time>2016-07-15T07:34:55.000Z</time>
      </trkpt>
      <trkpt lat="44.56663" lon="6.20388">
        <ele>860.20001220703</ele>
        <time>2016-07-15T07:35:03.000Z</time>
      </trkpt>
      <trkpt lat="44.56653" lon="6.20371">
        <ele>859.59997558594</ele>
        <time>2016-07-15T07:35:13.000Z</time>
      </trkpt>
      <trkpt lat="44.56647" lon="6.2036">
        <ele>859.20001220703</ele>
        <time>2016-07-15T07:35:20.000Z</time>
      </trkpt>
      <trkpt lat="44.56636" lon="6.2034">
        <ele>858.40002441406</ele>
        <time>2016-07-15T07:35:32.000Z</time>
      </trkpt>
      <trkpt lat="44.56628" lon="6.20322">
        <ele>857.79998779297</ele>
        <time>2016-07-15T07:35:42.000Z</time>
      </trkpt>
      <trkpt lat="44.5662" lon="6.20306">
        <ele>857.40002441406</ele>
        <time>2016-07-15T07:35:51.000Z</time>
      </trkpt>
      <trkpt lat="44.56608" lon="6.20285">
        <ele>857.79998779297</ele>
        <time>2016-07-15T07:36:03.000Z</time>
      </trkpt>
      <trkpt lat="44.56602" lon="6.20273">
        <ele>858</ele>
        <time>2016-07-15T07:36:10.000Z</time>
      </trkpt>
      <trkpt lat="44.56593" lon="6.20257">
        <ele>858.40002441406</ele>
        <time>2016-07-15T07:36:20.000Z</time>
      </trkpt>
      <trkpt lat="44.56583" lon="6.20239">
        <ele>858.79998779297</ele>
        <time>2016-07-15T07:36:31.000Z</time>
      </trkpt>
      <trkpt lat="44.56572" lon="6.20221">
        <ele>859</ele>
        <time>2016-07-15T07:36:42.000Z</time>
      </trkpt>
      <trkpt lat="44.56563" lon="6.20203">
        <ele>859.40002441406</ele>
        <time>2016-07-15T07:36:52.000Z</time>
      </trkpt>
      <trkpt lat="44.56556" lon="6.20189">
        <ele>859.40002441406</ele>
        <time>2016-07-15T07:36:59.000Z</time>
      </trkpt>
      <trkpt lat="44.5655" lon="6.20176">
        <ele>859.59997558594</ele>
        <time>2016-07-15T07:37:06.000Z</time>
      </trkpt>
      <trkpt lat="44.56541" lon="6.20159">
        <ele>859.79998779297</ele>
        <time>2016-07-15T07:37:15.000Z</time>
      </trkpt>
      <trkpt lat="44.56536" lon="6.20145">
        <ele>860</ele>
        <time>2016-07-15T07:37:22.000Z</time>
      </trkpt>
      <trkpt lat="44.56527" lon="6.20123">
        <ele>860.20001220703</ele>
        <time>2016-07-15T07:37:33.000Z</time>
      </trkpt>
      <trkpt lat="44.56522" lon="6.20107">
        <ele>860.40002441406</ele>
        <time>2016-07-15T07:37:41.000Z</time>
      </trkpt>
      <trkpt lat="44.56513" lon="6.20085">
        <ele>860.59997558594</ele>
        <time>2016-07-15T07:37:53.000Z</time>
      </trkpt>
      <trkpt lat="44.56504" lon="6.20062">
        <ele>860.79998779297</ele>
        <time>2016-07-15T07:38:05.000Z</time>
      </trkpt>
      <trkpt lat="44.56497" lon="6.20043">
        <ele>860.79998779297</ele>
        <time>2016-07-15T07:38:18.000Z</time>
      </trkpt>
      <trkpt lat="44.56491" lon="6.20024">
        <ele>861</ele>
        <time>2016-07-15T07:38:27.000Z</time>
      </trkpt>
      <trkpt lat="44.56483" lon="6.20007">
        <ele>861.20001220703</ele>
        <time>2016-07-15T07:38:35.000Z</time>
      </trkpt>
      <trkpt lat="44.56474" lon="6.19992">
        <ele>861.40002441406</ele>
        <time>2016-07-15T07:38:44.000Z</time>
      </trkpt>
      <trkpt lat="44.5647" lon="6.19977">
        <ele>861.40002441406</ele>
        <time>2016-07-15T07:38:52.000Z</time>
      </trkpt>
      <trkpt lat="44.56467" lon="6.19964">
        <ele>861</ele>
        <time>2016-07-15T07:38:58.000Z</time>
      </trkpt>
      <trkpt lat="44.56467" lon="6.19948">
        <ele>860.20001220703</ele>
        <time>2016-07-15T07:39:05.000Z</time>
      </trkpt>
      <trkpt lat="44.56467" lon="6.19944">
        <ele>860</ele>
        <time>2016-07-15T07:39:07.000Z</time>
      </trkpt>
      <trkpt lat="44.56468" lon="6.19924">
        <ele>859</ele>
        <time>2016-07-15T07:39:17.000Z</time>
      </trkpt>
      <trkpt lat="44.56469" lon="6.19914">
        <ele>858.40002441406</ele>
        <time>2016-07-15T07:39:22.000Z</time>
      </trkpt>
      <trkpt lat="44.56465" lon="6.1988">
        <ele>858</ele>
        <time>2016-07-15T07:39:38.000Z</time>
      </trkpt>
      <trkpt lat="44.56466" lon="6.19857">
        <ele>858</ele>
        <time>2016-07-15T07:39:48.000Z</time>
      </trkpt>
      <trkpt lat="44.56466" lon="6.19851">
        <ele>858</ele>
        <time>2016-07-15T07:39:51.000Z</time>
      </trkpt>
      <trkpt lat="44.5646" lon="6.19845">
        <ele>858</ele>
        <time>2016-07-15T07:39:56.000Z</time>
      </trkpt>
      <trkpt lat="44.56459" lon="6.19845">
        <ele>858</ele>
        <time>2016-07-15T07:39:57.000Z</time>
      </trkpt>
      <trkpt lat="44.56442" lon="6.19841">
        <ele>857.79998779297</ele>
        <time>2016-07-15T07:40:08.000Z</time>
      </trkpt>
      <trkpt lat="44.56421" lon="6.19838">
        <ele>857.59997558594</ele>
        <time>2016-07-15T07:40:23.000Z</time>
      </trkpt>
      <trkpt lat="44.56407" lon="6.19829">
        <ele>857.40002441406</ele>
        <time>2016-07-15T07:40:33.000Z</time>
      </trkpt>
      <trkpt lat="44.56399" lon="6.19825">
        <ele>857.40002441406</ele>
        <time>2016-07-15T07:40:39.000Z</time>
      </trkpt>
      <trkpt lat="44.5639" lon="6.19822">
        <ele>857.20001220703</ele>
        <time>2016-07-15T07:40:45.000Z</time>
      </trkpt>
      <trkpt lat="44.56377" lon="6.19818">
        <ele>857.20001220703</ele>
        <time>2016-07-15T07:40:55.000Z</time>
      </trkpt>
      <trkpt lat="44.56362" lon="6.19817">
        <ele>856.59997558594</ele>
        <time>2016-07-15T07:41:05.000Z</time>
      </trkpt>
      <trkpt lat="44.56352" lon="6.19814">
        <ele>856</ele>
        <time>2016-07-15T07:41:12.000Z</time>
      </trkpt>
      <trkpt lat="44.56349" lon="6.19808">
        <ele>856</ele>
        <time>2016-07-15T07:41:18.000Z</time>
      </trkpt>
      <trkpt lat="44.56349" lon="6.19807">
        <ele>856</ele>
        <time>2016-07-15T07:41:19.000Z</time>
      </trkpt>
      <trkpt lat="44.56348" lon="6.19806">
        <ele>856</ele>
        <time>2016-07-15T07:41:20.000Z</time>
      </trkpt>
      <trkpt lat="44.56346" lon="6.19806">
        <ele>855.79998779297</ele>
        <time>2016-07-15T07:41:23.000Z</time>
      </trkpt>
      <trkpt lat="44.56339" lon="6.19813">
        <ele>855.20001220703</ele>
        <time>2016-07-15T07:41:30.000Z</time>
      </trkpt>
      <trkpt lat="44.56335" lon="6.1982">
        <ele>855</ele>
        <time>2016-07-15T07:41:35.000Z</time>
      </trkpt>
      <trkpt lat="44.56332" lon="6.19828">
        <ele>854.59997558594</ele>
        <time>2016-07-15T07:41:39.000Z</time>
      </trkpt>
      <trkpt lat="44.56329" lon="6.19833">
        <ele>854.40002441406</ele>
        <time>2016-07-15T07:41:45.000Z</time>
      </trkpt>
      <trkpt lat="44.56325" lon="6.19832">
        <ele>854.20001220703</ele>
        <time>2016-07-15T07:41:54.000Z</time>
      </trkpt>
      <trkpt lat="44.56321" lon="6.19829">
        <ele>854</ele>
        <time>2016-07-15T07:41:58.000Z</time>
      </trkpt>
      <trkpt lat="44.5632" lon="6.19833">
        <ele>854</ele>
        <time>2016-07-15T07:42:05.000Z</time>
      </trkpt>
      <trkpt lat="44.56323" lon="6.19843">
        <ele>854</ele>
        <time>2016-07-15T07:42:11.000Z</time>
      </trkpt>
      <trkpt lat="44.56316" lon="6.19862">
        <ele>853.20001220703</ele>
        <time>2016-07-15T07:42:21.000Z</time>
      </trkpt>
      <trkpt lat="44.56315" lon="6.19863">
        <ele>853</ele>
        <time>2016-07-15T07:42:22.000Z</time>
      </trkpt>
      <trkpt lat="44.56315" lon="6.19865">
        <ele>853</ele>
        <time>2016-07-15T07:42:24.000Z</time>
      </trkpt>
      <trkpt lat="44.56318" lon="6.19876">
        <ele>852.79998779297</ele>
        <time>2016-07-15T07:42:30.000Z</time>
      </trkpt>
      <trkpt lat="44.56319" lon="6.19877">
        <ele>853</ele>
        <time>2016-07-15T07:42:31.000Z</time>
      </trkpt>
      <trkpt lat="44.56323" lon="6.19891">
        <ele>853</ele>
        <time>2016-07-15T07:42:39.000Z</time>
      </trkpt>
      <trkpt lat="44.56322" lon="6.19905">
        <ele>853</ele>
        <time>2016-07-15T07:42:46.000Z</time>
      </trkpt>
      <trkpt lat="44.5632" lon="6.19927">
        <ele>853.40002441406</ele>
        <time>2016-07-15T07:42:57.000Z</time>
      </trkpt>
      <trkpt lat="44.56318" lon="6.19944">
        <ele>853</ele>
        <time>2016-07-15T07:43:05.000Z</time>
      </trkpt>
      <trkpt lat="44.56316" lon="6.19961">
        <ele>852.59997558594</ele>
        <time>2016-07-15T07:43:13.000Z</time>
      </trkpt>
      <trkpt lat="44.56314" lon="6.19978">
        <ele>852.20001220703</ele>
        <time>2016-07-15T07:43:22.000Z</time>
      </trkpt>
      <trkpt lat="44.5631" lon="6.19998">
        <ele>852</ele>
        <time>2016-07-15T07:43:32.000Z</time>
      </trkpt>
      <trkpt lat="44.56308" lon="6.20012">
        <ele>852</ele>
        <time>2016-07-15T07:43:39.000Z</time>
      </trkpt>
      <trkpt lat="44.56308" lon="6.20014">
        <ele>852</ele>
        <time>2016-07-15T07:43:40.000Z</time>
      </trkpt>
      <trkpt lat="44.56307" lon="6.20034">
        <ele>852.20001220703</ele>
        <time>2016-07-15T07:43:49.000Z</time>
      </trkpt>
      <trkpt lat="44.56304" lon="6.20052">
        <ele>852</ele>
        <time>2016-07-15T07:43:58.000Z</time>
      </trkpt>
      <trkpt lat="44.56302" lon="6.20073">
        <ele>851.59997558594</ele>
        <time>2016-07-15T07:44:08.000Z</time>
      </trkpt>
      <trkpt lat="44.56298" lon="6.20091">
        <ele>850.40002441406</ele>
        <time>2016-07-15T07:44:17.000Z</time>
      </trkpt>
      <trkpt lat="44.56296" lon="6.20105">
        <ele>849.40002441406</ele>
        <time>2016-07-15T07:44:24.000Z</time>
      </trkpt>
      <trkpt lat="44.56294" lon="6.20128">
        <ele>848.20001220703</ele>
        <time>2016-07-15T07:44:35.000Z</time>
      </trkpt>
      <trkpt lat="44.56292" lon="6.20153">
        <ele>846.59997558594</ele>
        <time>2016-07-15T07:44:47.000Z</time>
      </trkpt>
      <trkpt lat="44.56288" lon="6.20174">
        <ele>845.59997558594</ele>
        <time>2016-07-15T07:44:57.000Z</time>
      </trkpt>
      <trkpt lat="44.56285" lon="6.20188">
        <ele>845</ele>
        <time>2016-07-15T07:45:04.000Z</time>
      </trkpt>
      <trkpt lat="44.56281" lon="6.20226">
        <ele>843.79998779297</ele>
        <time>2016-07-15T07:45:21.000Z</time>
      </trkpt>
      <trkpt lat="44.56279" lon="6.20241">
        <ele>843.59997558594</ele>
        <time>2016-07-15T07:45:28.000Z</time>
      </trkpt>
      <trkpt lat="44.56276" lon="6.20254">
        <ele>843.59997558594</ele>
        <time>2016-07-15T07:45:35.000Z</time>
      </trkpt>
      <trkpt lat="44.56272" lon="6.20276">
        <ele>843.59997558594</ele>
        <time>2016-07-15T07:45:45.000Z</time>
      </trkpt>
      <trkpt lat="44.56269" lon="6.2029">
        <ele>843.40002441406</ele>
        <time>2016-07-15T07:45:52.000Z</time>
      </trkpt>
      <trkpt lat="44.56267" lon="6.20307">
        <ele>843.79998779297</ele>
        <time>2016-07-15T07:46:00.000Z</time>
      </trkpt>
      <trkpt lat="44.56264" lon="6.2032">
        <ele>843.79998779297</ele>
        <time>2016-07-15T07:46:07.000Z</time>
      </trkpt>
      <trkpt lat="44.56262" lon="6.20339">
        <ele>843.59997558594</ele>
        <time>2016-07-15T07:46:16.000Z</time>
      </trkpt>
      <trkpt lat="44.56259" lon="6.2036">
        <ele>843.40002441406</ele>
        <time>2016-07-15T07:46:26.000Z</time>
      </trkpt>
      <trkpt lat="44.56256" lon="6.20378">
        <ele>843.40002441406</ele>
        <time>2016-07-15T07:46:34.000Z</time>
      </trkpt>
      <trkpt lat="44.56253" lon="6.20398">
        <ele>843.20001220703</ele>
        <time>2016-07-15T07:46:43.000Z</time>
      </trkpt>
      <trkpt lat="44.56249" lon="6.20415">
        <ele>843.20001220703</ele>
        <time>2016-07-15T07:46:51.000Z</time>
      </trkpt>
      <trkpt lat="44.56247" lon="6.2042">
        <ele>843</ele>
        <time>2016-07-15T07:46:55.000Z</time>
      </trkpt>
      <trkpt lat="44.56243" lon="6.20425">
        <ele>842.79998779297</ele>
        <time>2016-07-15T07:47:05.000Z</time>
      </trkpt>
      <trkpt lat="44.56243" lon="6.20422">
        <ele>842.79998779297</ele>
        <time>2016-07-15T07:47:13.000Z</time>
      </trkpt>
      <trkpt lat="44.56244" lon="6.20415">
        <ele>842.79998779297</ele>
        <time>2016-07-15T07:47:19.000Z</time>
      </trkpt>
      <trkpt lat="44.56238" lon="6.20413">
        <ele>842.40002441406</ele>
        <time>2016-07-15T07:47:23.000Z</time>
      </trkpt>
      <trkpt lat="44.5623" lon="6.20408">
        <ele>842</ele>
        <time>2016-07-15T07:47:28.000Z</time>
      </trkpt>
      <trkpt lat="44.56228" lon="6.20402">
        <ele>841.79998779297</ele>
        <time>2016-07-15T07:47:35.000Z</time>
      </trkpt>
      <trkpt lat="44.56226" lon="6.20394">
        <ele>841.59997558594</ele>
        <time>2016-07-15T07:47:47.000Z</time>
      </trkpt>
      <trkpt lat="44.56226" lon="6.20384">
        <ele>841.40002441406</ele>
        <time>2016-07-15T07:47:52.000Z</time>
      </trkpt>
      <trkpt lat="44.56227" lon="6.20371">
        <ele>841.59997558594</ele>
        <time>2016-07-15T07:47:59.000Z</time>
      </trkpt>
      <trkpt lat="44.56229" lon="6.20353">
        <ele>841.59997558594</ele>
        <time>2016-07-15T07:48:08.000Z</time>
      </trkpt>
      <trkpt lat="44.56231" lon="6.20327">
        <ele>841.79998779297</ele>
        <time>2016-07-15T07:48:20.000Z</time>
      </trkpt>
      <trkpt lat="44.56231" lon="6.20317">
        <ele>841.79998779297</ele>
        <time>2016-07-15T07:48:25.000Z</time>
      </trkpt>
      <trkpt lat="44.56224" lon="6.20312">
        <ele>841.40002441406</ele>
        <time>2016-07-15T07:48:31.000Z</time>
      </trkpt>
      <trkpt lat="44.56211" lon="6.20314">
        <ele>840.59997558594</ele>
        <time>2016-07-15T07:48:40.000Z</time>
      </trkpt>
      <trkpt lat="44.56199" lon="6.20317">
        <ele>839.79998779297</ele>
        <time>2016-07-15T07:48:48.000Z</time>
      </trkpt>
      <trkpt lat="44.56185" lon="6.20319">
        <ele>838.79998779297</ele>
        <time>2016-07-15T07:48:57.000Z</time>
      </trkpt>
      <trkpt lat="44.56177" lon="6.20319">
        <ele>838.20001220703</ele>
        <time>2016-07-15T07:49:02.000Z</time>
      </trkpt>
      <trkpt lat="44.56167" lon="6.2031">
        <ele>837.59997558594</ele>
        <time>2016-07-15T07:49:11.000Z</time>
      </trkpt>
      <trkpt lat="44.56161" lon="6.20304">
        <ele>837</ele>
        <time>2016-07-15T07:49:17.000Z</time>
      </trkpt>
      <trkpt lat="44.56151" lon="6.20281">
        <ele>836</ele>
        <time>2016-07-15T07:49:32.000Z</time>
      </trkpt>
      <trkpt lat="44.56154" lon="6.20265">
        <ele>836</ele>
        <time>2016-07-15T07:49:40.000Z</time>
      </trkpt>
      <trkpt lat="44.56158" lon="6.20253">
        <ele>835.79998779297</ele>
        <time>2016-07-15T07:49:47.000Z</time>
      </trkpt>
      <trkpt lat="44.56158" lon="6.20251">
        <ele>835.79998779297</ele>
        <time>2016-07-15T07:49:48.000Z</time>
      </trkpt>
      <trkpt lat="44.5616" lon="6.20243">
        <ele>835.59997558594</ele>
        <time>2016-07-15T07:49:52.000Z</time>
      </trkpt>
      <trkpt lat="44.56167" lon="6.20222">
        <ele>835.20001220703</ele>
        <time>2016-07-15T07:50:03.000Z</time>
      </trkpt>
      <trkpt lat="44.56178" lon="6.20185">
        <ele>836</ele>
        <time>2016-07-15T07:50:23.000Z</time>
      </trkpt>
      <trkpt lat="44.56187" lon="6.20164">
        <ele>837.79998779297</ele>
        <time>2016-07-15T07:50:35.000Z</time>
      </trkpt>
      <trkpt lat="44.56191" lon="6.20149">
        <ele>838.79998779297</ele>
        <time>2016-07-15T07:50:43.000Z</time>
      </trkpt>
      <trkpt lat="44.56194" lon="6.20137">
        <ele>839.40002441406</ele>
        <time>2016-07-15T07:50:50.000Z</time>
      </trkpt>
      <trkpt lat="44.56199" lon="6.20121">
        <ele>840.59997558594</ele>
        <time>2016-07-15T07:50:58.000Z</time>
      </trkpt>
      <trkpt lat="44.56203" lon="6.20103">
        <ele>841.59997558594</ele>
        <time>2016-07-15T07:51:07.000Z</time>
      </trkpt>
      <trkpt lat="44.56208" lon="6.20087">
        <ele>842.59997558594</ele>
        <time>2016-07-15T07:51:16.000Z</time>
      </trkpt>
      <trkpt lat="44.56209" lon="6.20077">
        <ele>843</ele>
        <time>2016-07-15T07:51:22.000Z</time>
      </trkpt>
      <trkpt lat="44.56209" lon="6.20075">
        <ele>843.20001220703</ele>
        <time>2016-07-15T07:51:23.000Z</time>
      </trkpt>
      <trkpt lat="44.56211" lon="6.20061">
        <ele>843.79998779297</ele>
        <time>2016-07-15T07:51:31.000Z</time>
      </trkpt>
      <trkpt lat="44.56213" lon="6.2005">
        <ele>844</ele>
        <time>2016-07-15T07:51:37.000Z</time>
      </trkpt>
      <trkpt lat="44.56216" lon="6.20035">
        <ele>844.20001220703</ele>
        <time>2016-07-15T07:51:45.000Z</time>
      </trkpt>
      <trkpt lat="44.56217" lon="6.20023">
        <ele>844.40002441406</ele>
        <time>2016-07-15T07:51:51.000Z</time>
      </trkpt>
      <trkpt lat="44.5622" lon="6.2001">
        <ele>844.59997558594</ele>
        <time>2016-07-15T07:51:57.000Z</time>
      </trkpt>
      <trkpt lat="44.56223" lon="6.19986">
        <ele>844.59997558594</ele>
        <time>2016-07-15T07:52:08.000Z</time>
      </trkpt>
      <trkpt lat="44.56224" lon="6.1998">
        <ele>844.59997558594</ele>
        <time>2016-07-15T07:52:14.000Z</time>
      </trkpt>
      <trkpt lat="44.5623" lon="6.19942">
        <ele>846</ele>
        <time>2016-07-15T07:52:32.000Z</time>
      </trkpt>
      <trkpt lat="44.56235" lon="6.19917">
        <ele>846.79998779297</ele>
        <time>2016-07-15T07:52:44.000Z</time>
      </trkpt>
      <trkpt lat="44.56239" lon="6.19893">
        <ele>847.40002441406</ele>
        <time>2016-07-15T07:52:55.000Z</time>
      </trkpt>
      <trkpt lat="44.5624" lon="6.19873">
        <ele>848.40002441406</ele>
        <time>2016-07-15T07:53:05.000Z</time>
      </trkpt>
      <trkpt lat="44.56239" lon="6.19861">
        <ele>849</ele>
        <time>2016-07-15T07:53:12.000Z</time>
      </trkpt>
      <trkpt lat="44.5624" lon="6.19852">
        <ele>849.40002441406</ele>
        <time>2016-07-15T07:53:39.000Z</time>
      </trkpt>
      <trkpt lat="44.56241" lon="6.1984">
        <ele>849.79998779297</ele>
        <time>2016-07-15T07:53:45.000Z</time>
      </trkpt>
      <trkpt lat="44.56241" lon="6.19838">
        <ele>849.79998779297</ele>
        <time>2016-07-15T07:53:46.000Z</time>
      </trkpt>
      <trkpt lat="44.56246" lon="6.19833">
        <ele>850.20001220703</ele>
        <time>2016-07-15T07:53:50.000Z</time>
      </trkpt>
      <trkpt lat="44.56255" lon="6.19826">
        <ele>850.59997558594</ele>
        <time>2016-07-15T07:53:57.000Z</time>
      </trkpt>
      <trkpt lat="44.56266" lon="6.19815">
        <ele>851.20001220703</ele>
        <time>2016-07-15T07:54:06.000Z</time>
      </trkpt>
      <trkpt lat="44.56271" lon="6.19801">
        <ele>852</ele>
        <time>2016-07-15T07:54:15.000Z</time>
      </trkpt>
      <trkpt lat="44.5627" lon="6.19797">
        <ele>852.20001220703</ele>
        <time>2016-07-15T07:54:34.000Z</time>
      </trkpt>
      <trkpt lat="44.56271" lon="6.19792">
        <ele>852.40002441406</ele>
        <time>2016-07-15T07:54:38.000Z</time>
      </trkpt>
      <trkpt lat="44.56278" lon="6.19781">
        <ele>853</ele>
        <time>2016-07-15T07:54:45.000Z</time>
      </trkpt>
      <trkpt lat="44.56287" lon="6.19772">
        <ele>853.59997558594</ele>
        <time>2016-07-15T07:54:52.000Z</time>
      </trkpt>
      <trkpt lat="44.56289" lon="6.19764">
        <ele>854</ele>
        <time>2016-07-15T07:54:55.000Z</time>
      </trkpt>
      <trkpt lat="44.5629" lon="6.19758">
        <ele>854.20001220703</ele>
        <time>2016-07-15T07:54:57.000Z</time>
      </trkpt>
      <trkpt lat="44.56295" lon="6.19748">
        <ele>855</ele>
        <time>2016-07-15T07:55:02.000Z</time>
      </trkpt>
      <trkpt lat="44.56299" lon="6.19733">
        <ele>855.20001220703</ele>
        <time>2016-07-15T07:55:09.000Z</time>
      </trkpt>
      <trkpt lat="44.56304" lon="6.19713">
        <ele>855.79998779297</ele>
        <time>2016-07-15T07:55:19.000Z</time>
      </trkpt>
      <trkpt lat="44.56308" lon="6.19699">
        <ele>856.40002441406</ele>
        <time>2016-07-15T07:55:26.000Z</time>
      </trkpt>
      <trkpt lat="44.56308" lon="6.19697">
        <ele>856.40002441406</ele>
        <time>2016-07-15T07:55:27.000Z</time>
      </trkpt>
      <trkpt lat="44.56304" lon="6.19695">
        <ele>856.40002441406</ele>
        <time>2016-07-15T07:55:30.000Z</time>
      </trkpt>
      <trkpt lat="44.56306" lon="6.19696">
        <ele>856.40002441406</ele>
        <time>2016-07-15T07:55:33.000Z</time>
      </trkpt>
      <trkpt lat="44.56307" lon="6.19699">
        <ele>856.40002441406</ele>
        <time>2016-07-15T07:55:37.000Z</time>
      </trkpt>
      <trkpt lat="44.5631" lon="6.19692">
        <ele>856.59997558594</ele>
        <time>2016-07-15T07:55:44.000Z</time>
      </trkpt>
      <trkpt lat="44.56316" lon="6.19673">
        <ele>857.20001220703</ele>
        <time>2016-07-15T07:55:50.000Z</time>
      </trkpt>
      <trkpt lat="44.56324" lon="6.19648">
        <ele>857.40002441406</ele>
        <time>2016-07-15T07:55:55.000Z</time>
      </trkpt>
      <trkpt lat="44.56334" lon="6.19623">
        <ele>858.79998779297</ele>
        <time>2016-07-15T07:56:00.000Z</time>
      </trkpt>
      <trkpt lat="44.56345" lon="6.19596">
        <ele>859</ele>
        <time>2016-07-15T07:56:05.000Z</time>
      </trkpt>
      <trkpt lat="44.56356" lon="6.19569">
        <ele>858.59997558594</ele>
        <time>2016-07-15T07:56:10.000Z</time>
      </trkpt>
      <trkpt lat="44.56364" lon="6.1955">
        <ele>858.59997558594</ele>
        <time>2016-07-15T07:56:16.000Z</time>
      </trkpt>
      <trkpt lat="44.56365" lon="6.19548">
        <ele>858.59997558594</ele>
        <time>2016-07-15T07:56:17.000Z</time>
      </trkpt>
      <trkpt lat="44.5638" lon="6.19522">
        <ele>859.59997558594</ele>
        <time>2016-07-15T07:56:32.000Z</time>
      </trkpt>
      <trkpt lat="44.56387" lon="6.19508">
        <ele>860.20001220703</ele>
        <time>2016-07-15T07:56:40.000Z</time>
      </trkpt>
      <trkpt lat="44.56395" lon="6.19492">
        <ele>860.20001220703</ele>
        <time>2016-07-15T07:56:49.000Z</time>
      </trkpt>
      <trkpt lat="44.56403" lon="6.19475">
        <ele>859.79998779297</ele>
        <time>2016-07-15T07:56:58.000Z</time>
      </trkpt>
      <trkpt lat="44.56411" lon="6.19453">
        <ele>860.40002441406</ele>
        <time>2016-07-15T07:57:09.000Z</time>
      </trkpt>
      <trkpt lat="44.5642" lon="6.19432">
        <ele>860.59997558594</ele>
        <time>2016-07-15T07:57:20.000Z</time>
      </trkpt>
      <trkpt lat="44.56431" lon="6.19403">
        <ele>860.79998779297</ele>
        <time>2016-07-15T07:57:36.000Z</time>
      </trkpt>
      <trkpt lat="44.56438" lon="6.19386">
        <ele>861.20001220703</ele>
        <time>2016-07-15T07:57:45.000Z</time>
      </trkpt>
      <trkpt lat="44.56446" lon="6.19368">
        <ele>860.79998779297</ele>
        <time>2016-07-15T07:57:55.000Z</time>
      </trkpt>
      <trkpt lat="44.56454" lon="6.19345">
        <ele>860.40002441406</ele>
        <time>2016-07-15T07:58:07.000Z</time>
      </trkpt>
      <trkpt lat="44.56461" lon="6.19328">
        <ele>860.40002441406</ele>
        <time>2016-07-15T07:58:16.000Z</time>
      </trkpt>
      <trkpt lat="44.5647" lon="6.19306">
        <ele>860.59997558594</ele>
        <time>2016-07-15T07:58:28.000Z</time>
      </trkpt>
      <trkpt lat="44.56479" lon="6.19283">
        <ele>862</ele>
        <time>2016-07-15T07:58:40.000Z</time>
      </trkpt>
      <trkpt lat="44.56486" lon="6.19264">
        <ele>863.20001220703</ele>
        <time>2016-07-15T07:58:50.000Z</time>
      </trkpt>
      <trkpt lat="44.56493" lon="6.19245">
        <ele>863.40002441406</ele>
        <time>2016-07-15T07:59:00.000Z</time>
      </trkpt>
      <trkpt lat="44.565" lon="6.19227">
        <ele>863.59997558594</ele>
        <time>2016-07-15T07:59:09.000Z</time>
      </trkpt>
      <trkpt lat="44.56506" lon="6.19207">
        <ele>865.59997558594</ele>
        <time>2016-07-15T07:59:19.000Z</time>
      </trkpt>
      <trkpt lat="44.56511" lon="6.19191">
        <ele>866.79998779297</ele>
        <time>2016-07-15T07:59:27.000Z</time>
      </trkpt>
      <trkpt lat="44.56513" lon="6.19176">
        <ele>868.20001220703</ele>
        <time>2016-07-15T07:59:34.000Z</time>
      </trkpt>
      <trkpt lat="44.56519" lon="6.1916">
        <ele>869.20001220703</ele>
        <time>2016-07-15T07:59:42.000Z</time>
      </trkpt>
      <trkpt lat="44.56526" lon="6.19141">
        <ele>870.40002441406</ele>
        <time>2016-07-15T07:59:52.000Z</time>
      </trkpt>
      <trkpt lat="44.56531" lon="6.19128">
        <ele>870.59997558594</ele>
        <time>2016-07-15T07:59:59.000Z</time>
      </trkpt>
      <trkpt lat="44.56538" lon="6.19109">
        <ele>871.20001220703</ele>
        <time>2016-07-15T08:00:09.000Z</time>
      </trkpt>
      <trkpt lat="44.56546" lon="6.19072">
        <ele>873</ele>
        <time>2016-07-15T08:00:27.000Z</time>
      </trkpt>
      <trkpt lat="44.56549" lon="6.1905">
        <ele>873.20001220703</ele>
        <time>2016-07-15T08:00:38.000Z</time>
      </trkpt>
      <trkpt lat="44.56553" lon="6.19027">
        <ele>874</ele>
        <time>2016-07-15T08:00:49.000Z</time>
      </trkpt>
      <trkpt lat="44.56555" lon="6.19005">
        <ele>875</ele>
        <time>2016-07-15T08:01:00.000Z</time>
      </trkpt>
      <trkpt lat="44.56556" lon="6.18984">
        <ele>875.79998779297</ele>
        <time>2016-07-15T08:01:11.000Z</time>
      </trkpt>
      <trkpt lat="44.56558" lon="6.18964">
        <ele>877.20001220703</ele>
        <time>2016-07-15T08:01:21.000Z</time>
      </trkpt>
      <trkpt lat="44.5656" lon="6.18945">
        <ele>878.59997558594</ele>
        <time>2016-07-15T08:01:31.000Z</time>
      </trkpt>
      <trkpt lat="44.56565" lon="6.18926">
        <ele>879.40002441406</ele>
        <time>2016-07-15T08:01:41.000Z</time>
      </trkpt>
      <trkpt lat="44.5657" lon="6.18913">
        <ele>878.79998779297</ele>
        <time>2016-07-15T08:01:49.000Z</time>
      </trkpt>
      <trkpt lat="44.56574" lon="6.18902">
        <ele>878.20001220703</ele>
        <time>2016-07-15T08:01:56.000Z</time>
      </trkpt>
      <trkpt lat="44.56577" lon="6.18887">
        <ele>878.40002441406</ele>
        <time>2016-07-15T08:02:05.000Z</time>
      </trkpt>
      <trkpt lat="44.56579" lon="6.18872">
        <ele>879.20001220703</ele>
        <time>2016-07-15T08:02:14.000Z</time>
      </trkpt>
      <trkpt lat="44.56581" lon="6.18858">
        <ele>880</ele>
        <time>2016-07-15T08:02:22.000Z</time>
      </trkpt>
      <trkpt lat="44.56586" lon="6.18844">
        <ele>880</ele>
        <time>2016-07-15T08:02:30.000Z</time>
      </trkpt>
      <trkpt lat="44.5659" lon="6.18828">
        <ele>880.20001220703</ele>
        <time>2016-07-15T08:02:38.000Z</time>
      </trkpt>
      <trkpt lat="44.56593" lon="6.18814">
        <ele>880.59997558594</ele>
        <time>2016-07-15T08:02:45.000Z</time>
      </trkpt>
      <trkpt lat="44.56593" lon="6.18799">
        <ele>881.40002441406</ele>
        <time>2016-07-15T08:02:52.000Z</time>
      </trkpt>
      <trkpt lat="44.5659" lon="6.18779">
        <ele>882.79998779297</ele>
        <time>2016-07-15T08:03:02.000Z</time>
      </trkpt>
      <trkpt lat="44.56586" lon="6.18764">
        <ele>884.20001220703</ele>
        <time>2016-07-15T08:03:10.000Z</time>
      </trkpt>
      <trkpt lat="44.56581" lon="6.18752">
        <ele>885.59997558594</ele>
        <time>2016-07-15T08:03:17.000Z</time>
      </trkpt>
      <trkpt lat="44.56572" lon="6.18731">
        <ele>888.40002441406</ele>
        <time>2016-07-15T08:03:29.000Z</time>
      </trkpt>
      <trkpt lat="44.56569" lon="6.18715">
        <ele>889.79998779297</ele>
        <time>2016-07-15T08:03:37.000Z</time>
      </trkpt>
      <trkpt lat="44.56568" lon="6.18694">
        <ele>890.79998779297</ele>
        <time>2016-07-15T08:03:47.000Z</time>
      </trkpt>
      <trkpt lat="44.5657" lon="6.18674">
        <ele>890.79998779297</ele>
        <time>2016-07-15T08:03:57.000Z</time>
      </trkpt>
      <trkpt lat="44.56575" lon="6.1866">
        <ele>889.59997558594</ele>
        <time>2016-07-15T08:04:05.000Z</time>
      </trkpt>
      <trkpt lat="44.5658" lon="6.18635">
        <ele>888.79998779297</ele>
        <time>2016-07-15T08:04:20.000Z</time>
      </trkpt>
      <trkpt lat="44.56583" lon="6.18621">
        <ele>888.40002441406</ele>
        <time>2016-07-15T08:04:28.000Z</time>
      </trkpt>
      <trkpt lat="44.56587" lon="6.18603">
        <ele>889</ele>
        <time>2016-07-15T08:04:38.000Z</time>
      </trkpt>
      <trkpt lat="44.56588" lon="6.18587">
        <ele>890.59997558594</ele>
        <time>2016-07-15T08:04:46.000Z</time>
      </trkpt>
      <trkpt lat="44.5659" lon="6.18573">
        <ele>892</ele>
        <time>2016-07-15T08:04:53.000Z</time>
      </trkpt>
      <trkpt lat="44.56591" lon="6.1856">
        <ele>893.20001220703</ele>
        <time>2016-07-15T08:05:00.000Z</time>
      </trkpt>
      <trkpt lat="44.56592" lon="6.18541">
        <ele>892.79998779297</ele>
        <time>2016-07-15T08:05:09.000Z</time>
      </trkpt>
      <trkpt lat="44.56591" lon="6.18519">
        <ele>893</ele>
        <time>2016-07-15T08:05:20.000Z</time>
      </trkpt>
      <trkpt lat="44.56591" lon="6.18517">
        <ele>893</ele>
        <time>2016-07-15T08:05:21.000Z</time>
      </trkpt>
      <trkpt lat="44.56594" lon="6.1851">
        <ele>892.59997558594</ele>
        <time>2016-07-15T08:05:23.000Z</time>
      </trkpt>
      <trkpt lat="44.56591" lon="6.18501">
        <ele>893.20001220703</ele>
        <time>2016-07-15T08:05:28.000Z</time>
      </trkpt>
      <trkpt lat="44.5659" lon="6.18499">
        <ele>893.40002441406</ele>
        <time>2016-07-15T08:05:29.000Z</time>
      </trkpt>
      <trkpt lat="44.56589" lon="6.18479">
        <ele>893.79998779297</ele>
        <time>2016-07-15T08:05:38.000Z</time>
      </trkpt>
      <trkpt lat="44.56587" lon="6.1846">
        <ele>894</ele>
        <time>2016-07-15T08:05:47.000Z</time>
      </trkpt>
      <trkpt lat="44.56584" lon="6.18446">
        <ele>894.40002441406</ele>
        <time>2016-07-15T08:05:55.000Z</time>
      </trkpt>
      <trkpt lat="44.5658" lon="6.18433">
        <ele>894.59997558594</ele>
        <time>2016-07-15T08:06:03.000Z</time>
      </trkpt>
      <trkpt lat="44.56574" lon="6.18416">
        <ele>895.20001220703</ele>
        <time>2016-07-15T08:06:12.000Z</time>
      </trkpt>
      <trkpt lat="44.56569" lon="6.184">
        <ele>895.59997558594</ele>
        <time>2016-07-15T08:06:20.000Z</time>
      </trkpt>
      <trkpt lat="44.56564" lon="6.18382">
        <ele>897</ele>
        <time>2016-07-15T08:06:30.000Z</time>
      </trkpt>
      <trkpt lat="44.5656" lon="6.18365">
        <ele>898.59997558594</ele>
        <time>2016-07-15T08:06:39.000Z</time>
      </trkpt>
      <trkpt lat="44.56554" lon="6.18344">
        <ele>900.59997558594</ele>
        <time>2016-07-15T08:06:50.000Z</time>
      </trkpt>
      <trkpt lat="44.5655" lon="6.18326">
        <ele>902.40002441406</ele>
        <time>2016-07-15T08:06:59.000Z</time>
      </trkpt>
      <trkpt lat="44.56545" lon="6.18312">
        <ele>903.59997558594</ele>
        <time>2016-07-15T08:07:07.000Z</time>
      </trkpt>
      <trkpt lat="44.56542" lon="6.18299">
        <ele>904.59997558594</ele>
        <time>2016-07-15T08:07:14.000Z</time>
      </trkpt>
      <trkpt lat="44.56539" lon="6.18288">
        <ele>905.79998779297</ele>
        <time>2016-07-15T08:07:20.000Z</time>
      </trkpt>
      <trkpt lat="44.56535" lon="6.1827">
        <ele>907.40002441406</ele>
        <time>2016-07-15T08:07:30.000Z</time>
      </trkpt>
      <trkpt lat="44.56535" lon="6.18268">
        <ele>907.40002441406</ele>
        <time>2016-07-15T08:07:31.000Z</time>
      </trkpt>
      <trkpt lat="44.5653" lon="6.18257">
        <ele>907.79998779297</ele>
        <time>2016-07-15T08:07:38.000Z</time>
      </trkpt>
      <trkpt lat="44.56527" lon="6.18248">
        <ele>907.79998779297</ele>
        <time>2016-07-15T08:07:43.000Z</time>
      </trkpt>
      <trkpt lat="44.56527" lon="6.18246">
        <ele>907.79998779297</ele>
        <time>2016-07-15T08:07:44.000Z</time>
      </trkpt>
      <trkpt lat="44.56525" lon="6.18239">
        <ele>908</ele>
        <time>2016-07-15T08:07:48.000Z</time>
      </trkpt>
      <trkpt lat="44.56523" lon="6.18229">
        <ele>908.20001220703</ele>
        <time>2016-07-15T08:07:54.000Z</time>
      </trkpt>
      <trkpt lat="44.56523" lon="6.18227">
        <ele>908.20001220703</ele>
        <time>2016-07-15T08:07:55.000Z</time>
      </trkpt>
      <trkpt lat="44.56518" lon="6.18208">
        <ele>907.40002441406</ele>
        <time>2016-07-15T08:08:04.000Z</time>
      </trkpt>
      <trkpt lat="44.56517" lon="6.18198">
        <ele>907</ele>
        <time>2016-07-15T08:08:10.000Z</time>
      </trkpt>
      <trkpt lat="44.56513" lon="6.18183">
        <ele>906.40002441406</ele>
        <time>2016-07-15T08:08:19.000Z</time>
      </trkpt>
      <trkpt lat="44.56511" lon="6.18178">
        <ele>906.20001220703</ele>
        <time>2016-07-15T08:08:22.000Z</time>
      </trkpt>
      <trkpt lat="44.56508" lon="6.18171">
        <ele>905.59997558594</ele>
        <time>2016-07-15T08:08:26.000Z</time>
      </trkpt>
      <trkpt lat="44.56503" lon="6.18153">
        <ele>904.79998779297</ele>
        <time>2016-07-15T08:08:35.000Z</time>
      </trkpt>
      <trkpt lat="44.565" lon="6.18128">
        <ele>903.79998779297</ele>
        <time>2016-07-15T08:08:46.000Z</time>
      </trkpt>
      <trkpt lat="44.565" lon="6.18109">
        <ele>903</ele>
        <time>2016-07-15T08:08:55.000Z</time>
      </trkpt>
      <trkpt lat="44.56499" lon="6.18089">
        <ele>902.59997558594</ele>
        <time>2016-07-15T08:09:05.000Z</time>
      </trkpt>
      <trkpt lat="44.56494" lon="6.18064">
        <ele>901.59997558594</ele>
        <time>2016-07-15T08:09:18.000Z</time>
      </trkpt>
      <trkpt lat="44.5649" lon="6.18049">
        <ele>901.20001220703</ele>
        <time>2016-07-15T08:09:26.000Z</time>
      </trkpt>
      <trkpt lat="44.56488" lon="6.18034">
        <ele>900.79998779297</ele>
        <time>2016-07-15T08:09:34.000Z</time>
      </trkpt>
      <trkpt lat="44.56484" lon="6.18013">
        <ele>900.40002441406</ele>
        <time>2016-07-15T08:09:45.000Z</time>
      </trkpt>
      <trkpt lat="44.56481" lon="6.17999">
        <ele>900.20001220703</ele>
        <time>2016-07-15T08:09:54.000Z</time>
      </trkpt>
      <trkpt lat="44.5648" lon="6.17998">
        <ele>900.20001220703</ele>
        <time>2016-07-15T08:09:59.000Z</time>
      </trkpt>
      <trkpt lat="44.56481" lon="6.17999">
        <ele>900.20001220703</ele>
        <time>2016-07-15T08:11:40.000Z</time>
      </trkpt>
      <trkpt lat="44.56481" lon="6.17998">
        <ele>900.20001220703</ele>
        <time>2016-07-15T08:11:54.000Z</time>
      </trkpt>
      <trkpt lat="44.5648" lon="6.17999">
        <ele>900.20001220703</ele>
        <time>2016-07-15T08:12:16.000Z</time>
      </trkpt>
      <trkpt lat="44.56481" lon="6.17999">
        <ele>900.20001220703</ele>
        <time>2016-07-15T08:12:56.000Z</time>
      </trkpt>
      <trkpt lat="44.56482" lon="6.17998">
        <ele>900.20001220703</ele>
        <time>2016-07-15T08:13:42.000Z</time>
      </trkpt>
      <trkpt lat="44.56483" lon="6.17998">
        <ele>900.20001220703</ele>
        <time>2016-07-15T08:13:59.000Z</time>
      </trkpt>
      <trkpt lat="44.56482" lon="6.18">
        <ele>900.20001220703</ele>
        <time>2016-07-15T08:14:06.000Z</time>
      </trkpt>
      <trkpt lat="44.56482" lon="6.17999">
        <ele>900.20001220703</ele>
        <time>2016-07-15T08:14:11.000Z</time>
      </trkpt>
      <trkpt lat="44.56482" lon="6.17997">
        <ele>900.20001220703</ele>
        <time>2016-07-15T08:14:16.000Z</time>
      </trkpt>
      <trkpt lat="44.5648" lon="6.1799">
        <ele>900</ele>
        <time>2016-07-15T08:14:27.000Z</time>
      </trkpt>
      <trkpt lat="44.5648" lon="6.17984">
        <ele>900</ele>
        <time>2016-07-15T08:14:32.000Z</time>
      </trkpt>
      <trkpt lat="44.56478" lon="6.17971">
        <ele>900</ele>
        <time>2016-07-15T08:14:39.000Z</time>
      </trkpt>
      <trkpt lat="44.56476" lon="6.17959">
        <ele>900</ele>
        <time>2016-07-15T08:14:45.000Z</time>
      </trkpt>
      <trkpt lat="44.56474" lon="6.17943">
        <ele>900</ele>
        <time>2016-07-15T08:14:54.000Z</time>
      </trkpt>
      <trkpt lat="44.56471" lon="6.17924">
        <ele>900.20001220703</ele>
        <time>2016-07-15T08:15:04.000Z</time>
      </trkpt>
      <trkpt lat="44.56469" lon="6.17898">
        <ele>901.20001220703</ele>
        <time>2016-07-15T08:15:17.000Z</time>
      </trkpt>
      <trkpt lat="44.56462" lon="6.17878">
        <ele>901.40002441406</ele>
        <time>2016-07-15T08:15:28.000Z</time>
      </trkpt>
      <trkpt lat="44.56456" lon="6.17864">
        <ele>901.40002441406</ele>
        <time>2016-07-15T08:15:36.000Z</time>
      </trkpt>
      <trkpt lat="44.5645" lon="6.17847">
        <ele>901.79998779297</ele>
        <time>2016-07-15T08:15:45.000Z</time>
      </trkpt>
      <trkpt lat="44.56445" lon="6.17834">
        <ele>902.40002441406</ele>
        <time>2016-07-15T08:15:52.000Z</time>
      </trkpt>
      <trkpt lat="44.56443" lon="6.17829">
        <ele>902.59997558594</ele>
        <time>2016-07-15T08:15:55.000Z</time>
      </trkpt>
      <trkpt lat="44.56441" lon="6.1782">
        <ele>903</ele>
        <time>2016-07-15T08:16:00.000Z</time>
      </trkpt>
      <trkpt lat="44.56441" lon="6.17817">
        <ele>903.20001220703</ele>
        <time>2016-07-15T08:16:01.000Z</time>
      </trkpt>
      <trkpt lat="44.56436" lon="6.17796">
        <ele>903.20001220703</ele>
        <time>2016-07-15T08:16:11.000Z</time>
      </trkpt>
      <trkpt lat="44.56431" lon="6.17772">
        <ele>904.40002441406</ele>
        <time>2016-07-15T08:16:23.000Z</time>
      </trkpt>
      <trkpt lat="44.56429" lon="6.17757">
        <ele>905.20001220703</ele>
        <time>2016-07-15T08:16:30.000Z</time>
      </trkpt>
      <trkpt lat="44.56425" lon="6.17732">
        <ele>906.59997558594</ele>
        <time>2016-07-15T08:16:42.000Z</time>
      </trkpt>
      <trkpt lat="44.56424" lon="6.17712">
        <ele>907</ele>
        <time>2016-07-15T08:16:51.000Z</time>
      </trkpt>
      <trkpt lat="44.56422" lon="6.17695">
        <ele>907</ele>
        <time>2016-07-15T08:16:59.000Z</time>
      </trkpt>
      <trkpt lat="44.56419" lon="6.17683">
        <ele>907</ele>
        <time>2016-07-15T08:17:05.000Z</time>
      </trkpt>
      <trkpt lat="44.56417" lon="6.17671">
        <ele>907.20001220703</ele>
        <time>2016-07-15T08:17:11.000Z</time>
      </trkpt>
      <trkpt lat="44.56415" lon="6.17658">
        <ele>907.40002441406</ele>
        <time>2016-07-15T08:17:18.000Z</time>
      </trkpt>
      <trkpt lat="44.56412" lon="6.17642">
        <ele>907.40002441406</ele>
        <time>2016-07-15T08:17:26.000Z</time>
      </trkpt>
      <trkpt lat="44.56409" lon="6.17622">
        <ele>906.79998779297</ele>
        <time>2016-07-15T08:17:36.000Z</time>
      </trkpt>
      <trkpt lat="44.56408" lon="6.1761">
        <ele>906.40002441406</ele>
        <time>2016-07-15T08:17:42.000Z</time>
      </trkpt>
      <trkpt lat="44.56408" lon="6.17608">
        <ele>906.20001220703</ele>
        <time>2016-07-15T08:17:43.000Z</time>
      </trkpt>
      <trkpt lat="44.56405" lon="6.17585">
        <ele>905.59997558594</ele>
        <time>2016-07-15T08:17:54.000Z</time>
      </trkpt>
      <trkpt lat="44.56403" lon="6.17566">
        <ele>905.20001220703</ele>
        <time>2016-07-15T08:18:03.000Z</time>
      </trkpt>
      <trkpt lat="44.56401" lon="6.17546">
        <ele>905.59997558594</ele>
        <time>2016-07-15T08:18:13.000Z</time>
      </trkpt>
      <trkpt lat="44.564" lon="6.17528">
        <ele>906.40002441406</ele>
        <time>2016-07-15T08:18:22.000Z</time>
      </trkpt>
      <trkpt lat="44.56399" lon="6.17511">
        <ele>906.79998779297</ele>
        <time>2016-07-15T08:18:30.000Z</time>
      </trkpt>
      <trkpt lat="44.56397" lon="6.17495">
        <ele>906.59997558594</ele>
        <time>2016-07-15T08:18:38.000Z</time>
      </trkpt>
      <trkpt lat="44.56396" lon="6.17479">
        <ele>906.40002441406</ele>
        <time>2016-07-15T08:18:46.000Z</time>
      </trkpt>
      <trkpt lat="44.56394" lon="6.17465">
        <ele>906</ele>
        <time>2016-07-15T08:18:53.000Z</time>
      </trkpt>
      <trkpt lat="44.56392" lon="6.17445">
        <ele>905.59997558594</ele>
        <time>2016-07-15T08:19:03.000Z</time>
      </trkpt>
      <trkpt lat="44.56391" lon="6.17441">
        <ele>905.59997558594</ele>
        <time>2016-07-15T08:19:05.000Z</time>
      </trkpt>
      <trkpt lat="44.56388" lon="6.17429">
        <ele>905.20001220703</ele>
        <time>2016-07-15T08:19:11.000Z</time>
      </trkpt>
      <trkpt lat="44.5638" lon="6.17407">
        <ele>904.20001220703</ele>
        <time>2016-07-15T08:19:24.000Z</time>
      </trkpt>
      <trkpt lat="44.56373" lon="6.17392">
        <ele>903.59997558594</ele>
        <time>2016-07-15T08:19:33.000Z</time>
      </trkpt>
      <trkpt lat="44.56364" lon="6.17378">
        <ele>903</ele>
        <time>2016-07-15T08:19:42.000Z</time>
      </trkpt>
      <trkpt lat="44.56362" lon="6.17373">
        <ele>902.79998779297</ele>
        <time>2016-07-15T08:19:45.000Z</time>
      </trkpt>
      <trkpt lat="44.56359" lon="6.17368">
        <ele>902.59997558594</ele>
        <time>2016-07-15T08:19:49.000Z</time>
      </trkpt>
      <trkpt lat="44.56352" lon="6.1736">
        <ele>902.40002441406</ele>
        <time>2016-07-15T08:19:57.000Z</time>
      </trkpt>
      <trkpt lat="44.5635" lon="6.17354">
        <ele>902.20001220703</ele>
        <time>2016-07-15T08:20:01.000Z</time>
      </trkpt>
      <trkpt lat="44.56343" lon="6.1734">
        <ele>901.79998779297</ele>
        <time>2016-07-15T08:20:09.000Z</time>
      </trkpt>
      <trkpt lat="44.56337" lon="6.17325">
        <ele>901.59997558594</ele>
        <time>2016-07-15T08:20:18.000Z</time>
      </trkpt>
      <trkpt lat="44.56333" lon="6.17309">
        <ele>901.40002441406</ele>
        <time>2016-07-15T08:20:26.000Z</time>
      </trkpt>
      <trkpt lat="44.56326" lon="6.17292">
        <ele>901</ele>
        <time>2016-07-15T08:20:35.000Z</time>
      </trkpt>
      <trkpt lat="44.56318" lon="6.17271">
        <ele>900.40002441406</ele>
        <time>2016-07-15T08:20:45.000Z</time>
      </trkpt>
      <trkpt lat="44.56315" lon="6.17261">
        <ele>900.20001220703</ele>
        <time>2016-07-15T08:20:50.000Z</time>
      </trkpt>
      <trkpt lat="44.56312" lon="6.17247">
        <ele>900.40002441406</ele>
        <time>2016-07-15T08:20:58.000Z</time>
      </trkpt>
      <trkpt lat="44.56307" lon="6.17234">
        <ele>900.40002441406</ele>
        <time>2016-07-15T08:21:05.000Z</time>
      </trkpt>
      <trkpt lat="44.56301" lon="6.17212">
        <ele>899.79998779297</ele>
        <time>2016-07-15T08:21:16.000Z</time>
      </trkpt>
      <trkpt lat="44.56296" lon="6.17187">
        <ele>898.79998779297</ele>
        <time>2016-07-15T08:21:30.000Z</time>
      </trkpt>
      <trkpt lat="44.56294" lon="6.17168">
        <ele>898.40002441406</ele>
        <time>2016-07-15T08:21:40.000Z</time>
      </trkpt>
      <trkpt lat="44.56294" lon="6.1715">
        <ele>898.20001220703</ele>
        <time>2016-07-15T08:21:49.000Z</time>
      </trkpt>
      <trkpt lat="44.56296" lon="6.17138">
        <ele>898</ele>
        <time>2016-07-15T08:21:55.000Z</time>
      </trkpt>
      <trkpt lat="44.563" lon="6.17124">
        <ele>897.79998779297</ele>
        <time>2016-07-15T08:22:02.000Z</time>
      </trkpt>
      <trkpt lat="44.56305" lon="6.17109">
        <ele>897.79998779297</ele>
        <time>2016-07-15T08:22:10.000Z</time>
      </trkpt>
      <trkpt lat="44.56311" lon="6.17095">
        <ele>897.79998779297</ele>
        <time>2016-07-15T08:22:18.000Z</time>
      </trkpt>
      <trkpt lat="44.56317" lon="6.17081">
        <ele>896.79998779297</ele>
        <time>2016-07-15T08:22:26.000Z</time>
      </trkpt>
      <trkpt lat="44.56322" lon="6.1707">
        <ele>895.59997558594</ele>
        <time>2016-07-15T08:22:32.000Z</time>
      </trkpt>
      <trkpt lat="44.56324" lon="6.17064">
        <ele>894.79998779297</ele>
        <time>2016-07-15T08:22:37.000Z</time>
      </trkpt>
      <trkpt lat="44.56329" lon="6.17051">
        <ele>894.59997558594</ele>
        <time>2016-07-15T08:22:45.000Z</time>
      </trkpt>
      <trkpt lat="44.56335" lon="6.17036">
        <ele>894.79998779297</ele>
        <time>2016-07-15T08:22:54.000Z</time>
      </trkpt>
      <trkpt lat="44.56338" lon="6.17019">
        <ele>894.40002441406</ele>
        <time>2016-07-15T08:23:03.000Z</time>
      </trkpt>
      <trkpt lat="44.56341" lon="6.16995">
        <ele>893.59997558594</ele>
        <time>2016-07-15T08:23:16.000Z</time>
      </trkpt>
      <trkpt lat="44.56342" lon="6.1698">
        <ele>893</ele>
        <time>2016-07-15T08:23:23.000Z</time>
      </trkpt>
      <trkpt lat="44.56342" lon="6.16971">
        <ele>893.20001220703</ele>
        <time>2016-07-15T08:23:28.000Z</time>
      </trkpt>
      <trkpt lat="44.56334" lon="6.16961">
        <ele>893.40002441406</ele>
        <time>2016-07-15T08:23:36.000Z</time>
      </trkpt>
      <trkpt lat="44.56332" lon="6.1696">
        <ele>893.40002441406</ele>
        <time>2016-07-15T08:23:37.000Z</time>
      </trkpt>
      <trkpt lat="44.56327" lon="6.16955">
        <ele>893.59997558594</ele>
        <time>2016-07-15T08:23:41.000Z</time>
      </trkpt>
      <trkpt lat="44.56321" lon="6.1695">
        <ele>893.59997558594</ele>
        <time>2016-07-15T08:23:46.000Z</time>
      </trkpt>
      <trkpt lat="44.56308" lon="6.1694">
        <ele>894</ele>
        <time>2016-07-15T08:23:56.000Z</time>
      </trkpt>
      <trkpt lat="44.56294" lon="6.16932">
        <ele>894.20001220703</ele>
        <time>2016-07-15T08:24:07.000Z</time>
      </trkpt>
      <trkpt lat="44.56278" lon="6.16926">
        <ele>894.59997558594</ele>
        <time>2016-07-15T08:24:18.000Z</time>
      </trkpt>
      <trkpt lat="44.56266" lon="6.1692">
        <ele>895.59997558594</ele>
        <time>2016-07-15T08:24:27.000Z</time>
      </trkpt>
      <trkpt lat="44.56253" lon="6.16913">
        <ele>896.40002441406</ele>
        <time>2016-07-15T08:24:37.000Z</time>
      </trkpt>
      <trkpt lat="44.56243" lon="6.16904">
        <ele>897.20001220703</ele>
        <time>2016-07-15T08:24:45.000Z</time>
      </trkpt>
      <trkpt lat="44.56234" lon="6.16888">
        <ele>897.79998779297</ele>
        <time>2016-07-15T08:24:56.000Z</time>
      </trkpt>
      <trkpt lat="44.56228" lon="6.16875">
        <ele>897.79998779297</ele>
        <time>2016-07-15T08:25:04.000Z</time>
      </trkpt>
      <trkpt lat="44.56223" lon="6.16858">
        <ele>897.79998779297</ele>
        <time>2016-07-15T08:25:13.000Z</time>
      </trkpt>
      <trkpt lat="44.56217" lon="6.16844">
        <ele>897.79998779297</ele>
        <time>2016-07-15T08:25:21.000Z</time>
      </trkpt>
      <trkpt lat="44.56212" lon="6.16831">
        <ele>897.79998779297</ele>
        <time>2016-07-15T08:25:29.000Z</time>
      </trkpt>
      <trkpt lat="44.56203" lon="6.16819">
        <ele>898</ele>
        <time>2016-07-15T08:25:38.000Z</time>
      </trkpt>
      <trkpt lat="44.56192" lon="6.16806">
        <ele>899</ele>
        <time>2016-07-15T08:25:48.000Z</time>
      </trkpt>
      <trkpt lat="44.56185" lon="6.16795">
        <ele>899.59997558594</ele>
        <time>2016-07-15T08:25:55.000Z</time>
      </trkpt>
      <trkpt lat="44.56178" lon="6.16781">
        <ele>900.20001220703</ele>
        <time>2016-07-15T08:26:03.000Z</time>
      </trkpt>
      <trkpt lat="44.56171" lon="6.16763">
        <ele>900.79998779297</ele>
        <time>2016-07-15T08:26:13.000Z</time>
      </trkpt>
      <trkpt lat="44.56164" lon="6.1675">
        <ele>901.59997558594</ele>
        <time>2016-07-15T08:26:22.000Z</time>
      </trkpt>
      <trkpt lat="44.56155" lon="6.16737">
        <ele>902.40002441406</ele>
        <time>2016-07-15T08:26:31.000Z</time>
      </trkpt>
      <trkpt lat="44.56145" lon="6.16724">
        <ele>903.59997558594</ele>
        <time>2016-07-15T08:26:40.000Z</time>
      </trkpt>
      <trkpt lat="44.56134" lon="6.16709">
        <ele>905.40002441406</ele>
        <time>2016-07-15T08:26:50.000Z</time>
      </trkpt>
      <trkpt lat="44.56124" lon="6.16695">
        <ele>907</ele>
        <time>2016-07-15T08:26:59.000Z</time>
      </trkpt>
      <trkpt lat="44.56118" lon="6.16685">
        <ele>908</ele>
        <time>2016-07-15T08:27:06.000Z</time>
      </trkpt>
      <trkpt lat="44.56109" lon="6.16673">
        <ele>910</ele>
        <time>2016-07-15T08:27:14.000Z</time>
      </trkpt>
      <trkpt lat="44.561" lon="6.1666">
        <ele>912</ele>
        <time>2016-07-15T08:27:23.000Z</time>
      </trkpt>
      <trkpt lat="44.5609" lon="6.16647">
        <ele>914.20001220703</ele>
        <time>2016-07-15T08:27:32.000Z</time>
      </trkpt>
      <trkpt lat="44.56082" lon="6.16636">
        <ele>915.59997558594</ele>
        <time>2016-07-15T08:27:40.000Z</time>
      </trkpt>
      <trkpt lat="44.56076" lon="6.16624">
        <ele>916.79998779297</ele>
        <time>2016-07-15T08:27:47.000Z</time>
      </trkpt>
      <trkpt lat="44.5607" lon="6.16611">
        <ele>917.79998779297</ele>
        <time>2016-07-15T08:27:55.000Z</time>
      </trkpt>
      <trkpt lat="44.56068" lon="6.16591">
        <ele>918.40002441406</ele>
        <time>2016-07-15T08:28:05.000Z</time>
      </trkpt>
      <trkpt lat="44.56067" lon="6.16577">
        <ele>918.79998779297</ele>
        <time>2016-07-15T08:28:12.000Z</time>
      </trkpt>
      <trkpt lat="44.56065" lon="6.16555">
        <ele>919.40002441406</ele>
        <time>2016-07-15T08:28:23.000Z</time>
      </trkpt>
      <trkpt lat="44.56066" lon="6.16549">
        <ele>919.40002441406</ele>
        <time>2016-07-15T08:28:26.000Z</time>
      </trkpt>
      <trkpt lat="44.56064" lon="6.1653">
        <ele>920.20001220703</ele>
        <time>2016-07-15T08:28:36.000Z</time>
      </trkpt>
      <trkpt lat="44.5606" lon="6.1651">
        <ele>921.20001220703</ele>
        <time>2016-07-15T08:28:47.000Z</time>
      </trkpt>
      <trkpt lat="44.56059" lon="6.16502">
        <ele>921.59997558594</ele>
        <time>2016-07-15T08:28:52.000Z</time>
      </trkpt>
      <trkpt lat="44.56056" lon="6.16487">
        <ele>922.20001220703</ele>
        <time>2016-07-15T08:29:01.000Z</time>
      </trkpt>
      <trkpt lat="44.56055" lon="6.16486">
        <ele>922.20001220703</ele>
        <time>2016-07-15T08:29:02.000Z</time>
      </trkpt>
      <trkpt lat="44.56054" lon="6.16481">
        <ele>922.40002441406</ele>
        <time>2016-07-15T08:29:05.000Z</time>
      </trkpt>
      <trkpt lat="44.56053" lon="6.16476">
        <ele>922.79998779297</ele>
        <time>2016-07-15T08:29:08.000Z</time>
      </trkpt>
      <trkpt lat="44.56043" lon="6.16462">
        <ele>924.59997558594</ele>
        <time>2016-07-15T08:29:18.000Z</time>
      </trkpt>
      <trkpt lat="44.56036" lon="6.1646">
        <ele>926</ele>
        <time>2016-07-15T08:29:24.000Z</time>
      </trkpt>
      <trkpt lat="44.56028" lon="6.16458">
        <ele>927.40002441406</ele>
        <time>2016-07-15T08:29:30.000Z</time>
      </trkpt>
      <trkpt lat="44.56018" lon="6.16461">
        <ele>929</ele>
        <time>2016-07-15T08:29:38.000Z</time>
      </trkpt>
      <trkpt lat="44.56016" lon="6.16462">
        <ele>929.40002441406</ele>
        <time>2016-07-15T08:29:40.000Z</time>
      </trkpt>
      <trkpt lat="44.56008" lon="6.1647">
        <ele>930.40002441406</ele>
        <time>2016-07-15T08:29:47.000Z</time>
      </trkpt>
      <trkpt lat="44.56005" lon="6.16481">
        <ele>930.59997558594</ele>
        <time>2016-07-15T08:29:54.000Z</time>
      </trkpt>
      <trkpt lat="44.56002" lon="6.16496">
        <ele>930.59997558594</ele>
        <time>2016-07-15T08:30:03.000Z</time>
      </trkpt>
      <trkpt lat="44.56002" lon="6.16511">
        <ele>930.40002441406</ele>
        <time>2016-07-15T08:30:11.000Z</time>
      </trkpt>
      <trkpt lat="44.56002" lon="6.16522">
        <ele>930</ele>
        <time>2016-07-15T08:30:17.000Z</time>
      </trkpt>
      <trkpt lat="44.56002" lon="6.16534">
        <ele>929.20001220703</ele>
        <time>2016-07-15T08:30:24.000Z</time>
      </trkpt>
      <trkpt lat="44.56" lon="6.16551">
        <ele>927.59997558594</ele>
        <time>2016-07-15T08:30:33.000Z</time>
      </trkpt>
      <trkpt lat="44.55993" lon="6.16563">
        <ele>927</ele>
        <time>2016-07-15T08:30:41.000Z</time>
      </trkpt>
      <trkpt lat="44.55985" lon="6.1657">
        <ele>927.40002441406</ele>
        <time>2016-07-15T08:30:49.000Z</time>
      </trkpt>
      <trkpt lat="44.55974" lon="6.16571">
        <ele>928.20001220703</ele>
        <time>2016-07-15T08:30:57.000Z</time>
      </trkpt>
      <trkpt lat="44.55961" lon="6.16568">
        <ele>929.20001220703</ele>
        <time>2016-07-15T08:31:07.000Z</time>
      </trkpt>
      <trkpt lat="44.55948" lon="6.16564">
        <ele>930</ele>
        <time>2016-07-15T08:31:17.000Z</time>
      </trkpt>
      <trkpt lat="44.55931" lon="6.16563">
        <ele>930.79998779297</ele>
        <time>2016-07-15T08:31:29.000Z</time>
      </trkpt>
      <trkpt lat="44.55921" lon="6.16562">
        <ele>931</ele>
        <time>2016-07-15T08:31:36.000Z</time>
      </trkpt>
      <trkpt lat="44.5591" lon="6.1656">
        <ele>931.59997558594</ele>
        <time>2016-07-15T08:31:45.000Z</time>
      </trkpt>
      <trkpt lat="44.55896" lon="6.16555">
        <ele>932.79998779297</ele>
        <time>2016-07-15T08:31:56.000Z</time>
      </trkpt>
      <trkpt lat="44.55884" lon="6.1655">
        <ele>933.79998779297</ele>
        <time>2016-07-15T08:32:05.000Z</time>
      </trkpt>
      <trkpt lat="44.55872" lon="6.16547">
        <ele>934.79998779297</ele>
        <time>2016-07-15T08:32:14.000Z</time>
      </trkpt>
      <trkpt lat="44.55861" lon="6.16544">
        <ele>936</ele>
        <time>2016-07-15T08:32:22.000Z</time>
      </trkpt>
      <trkpt lat="44.55845" lon="6.16541">
        <ele>938.20001220703</ele>
        <time>2016-07-15T08:32:34.000Z</time>
      </trkpt>
      <trkpt lat="44.55837" lon="6.16544">
        <ele>938.59997558594</ele>
        <time>2016-07-15T08:32:40.000Z</time>
      </trkpt>
      <trkpt lat="44.55824" lon="6.16547">
        <ele>939.40002441406</ele>
        <time>2016-07-15T08:32:49.000Z</time>
      </trkpt>
      <trkpt lat="44.55813" lon="6.16543">
        <ele>941</ele>
        <time>2016-07-15T08:32:57.000Z</time>
      </trkpt>
      <trkpt lat="44.558" lon="6.16535">
        <ele>943.40002441406</ele>
        <time>2016-07-15T08:33:07.000Z</time>
      </trkpt>
      <trkpt lat="44.5579" lon="6.16529">
        <ele>945.40002441406</ele>
        <time>2016-07-15T08:33:15.000Z</time>
      </trkpt>
      <trkpt lat="44.55775" lon="6.16523">
        <ele>947.59997558594</ele>
        <time>2016-07-15T08:33:26.000Z</time>
      </trkpt>
      <trkpt lat="44.55764" lon="6.16524">
        <ele>948.40002441406</ele>
        <time>2016-07-15T08:33:34.000Z</time>
      </trkpt>
      <trkpt lat="44.55752" lon="6.16525">
        <ele>948.79998779297</ele>
        <time>2016-07-15T08:33:42.000Z</time>
      </trkpt>
      <trkpt lat="44.55749" lon="6.16523">
        <ele>949.59997558594</ele>
        <time>2016-07-15T08:33:45.000Z</time>
      </trkpt>
      <trkpt lat="44.55751" lon="6.16511">
        <ele>951.20001220703</ele>
        <time>2016-07-15T08:33:52.000Z</time>
      </trkpt>
      <trkpt lat="44.55752" lon="6.16511">
        <ele>951.20001220703</ele>
        <time>2016-07-15T08:33:53.000Z</time>
      </trkpt>
      <trkpt lat="44.55763" lon="6.16506">
        <ele>951</ele>
        <time>2016-07-15T08:34:02.000Z</time>
      </trkpt>
      <trkpt lat="44.55773" lon="6.16503">
        <ele>951</ele>
        <time>2016-07-15T08:34:09.000Z</time>
      </trkpt>
      <trkpt lat="44.55779" lon="6.16488">
        <ele>952.79998779297</ele>
        <time>2016-07-15T08:34:18.000Z</time>
      </trkpt>
      <trkpt lat="44.55773" lon="6.16475">
        <ele>955</ele>
        <time>2016-07-15T08:34:27.000Z</time>
      </trkpt>
      <trkpt lat="44.55762" lon="6.16472">
        <ele>956.20001220703</ele>
        <time>2016-07-15T08:34:35.000Z</time>
      </trkpt>
      <trkpt lat="44.55753" lon="6.16471">
        <ele>956.79998779297</ele>
        <time>2016-07-15T08:34:42.000Z</time>
      </trkpt>
      <trkpt lat="44.5574" lon="6.16466">
        <ele>958.20001220703</ele>
        <time>2016-07-15T08:34:52.000Z</time>
      </trkpt>
      <trkpt lat="44.55735" lon="6.16458">
        <ele>959.40002441406</ele>
        <time>2016-07-15T08:34:59.000Z</time>
      </trkpt>
      <trkpt lat="44.55731" lon="6.16441">
        <ele>961.40002441406</ele>
        <time>2016-07-15T08:35:09.000Z</time>
      </trkpt>
      <trkpt lat="44.55729" lon="6.16426">
        <ele>963</ele>
        <time>2016-07-15T08:35:18.000Z</time>
      </trkpt>
      <trkpt lat="44.55727" lon="6.16407">
        <ele>964.20001220703</ele>
        <time>2016-07-15T08:35:28.000Z</time>
      </trkpt>
      <trkpt lat="44.55727" lon="6.16389">
        <ele>965.20001220703</ele>
        <time>2016-07-15T08:35:36.000Z</time>
      </trkpt>
      <trkpt lat="44.5573" lon="6.16367">
        <ele>967.20001220703</ele>
        <time>2016-07-15T08:35:47.000Z</time>
      </trkpt>
      <trkpt lat="44.55734" lon="6.16349">
        <ele>968.40002441406</ele>
        <time>2016-07-15T08:35:57.000Z</time>
      </trkpt>
      <trkpt lat="44.55731" lon="6.16338">
        <ele>970</ele>
        <time>2016-07-15T08:36:04.000Z</time>
      </trkpt>
      <trkpt lat="44.55715" lon="6.16341">
        <ele>972</ele>
        <time>2016-07-15T08:36:17.000Z</time>
      </trkpt>
      <trkpt lat="44.55704" lon="6.16344">
        <ele>973</ele>
        <time>2016-07-15T08:36:26.000Z</time>
      </trkpt>
      <trkpt lat="44.55691" lon="6.16349">
        <ele>975</ele>
        <time>2016-07-15T08:36:36.000Z</time>
      </trkpt>
      <trkpt lat="44.55684" lon="6.16355">
        <ele>976</ele>
        <time>2016-07-15T08:36:42.000Z</time>
      </trkpt>
      <trkpt lat="44.55673" lon="6.16364">
        <ele>977.20001220703</ele>
        <time>2016-07-15T08:36:51.000Z</time>
      </trkpt>
      <trkpt lat="44.5566" lon="6.16376">
        <ele>979.20001220703</ele>
        <time>2016-07-15T08:37:03.000Z</time>
      </trkpt>
      <trkpt lat="44.55644" lon="6.16388">
        <ele>981.59997558594</ele>
        <time>2016-07-15T08:37:16.000Z</time>
      </trkpt>
      <trkpt lat="44.55628" lon="6.16401">
        <ele>984.20001220703</ele>
        <time>2016-07-15T08:37:29.000Z</time>
      </trkpt>
      <trkpt lat="44.55621" lon="6.16407">
        <ele>984.40002441406</ele>
        <time>2016-07-15T08:37:35.000Z</time>
      </trkpt>
      <trkpt lat="44.55616" lon="6.1641">
        <ele>985</ele>
        <time>2016-07-15T08:37:39.000Z</time>
      </trkpt>
      <trkpt lat="44.55606" lon="6.16423">
        <ele>984.59997558594</ele>
        <time>2016-07-15T08:37:49.000Z</time>
      </trkpt>
      <trkpt lat="44.55596" lon="6.16434">
        <ele>984.40002441406</ele>
        <time>2016-07-15T08:37:58.000Z</time>
      </trkpt>
      <trkpt lat="44.55585" lon="6.16446">
        <ele>984.40002441406</ele>
        <time>2016-07-15T08:38:08.000Z</time>
      </trkpt>
      <trkpt lat="44.55558" lon="6.16473">
        <ele>984.79998779297</ele>
        <time>2016-07-15T08:38:33.000Z</time>
      </trkpt>
      <trkpt lat="44.55544" lon="6.16481">
        <ele>985.79998779297</ele>
        <time>2016-07-15T08:38:44.000Z</time>
      </trkpt>
      <trkpt lat="44.55536" lon="6.16486">
        <ele>986.59997558594</ele>
        <time>2016-07-15T08:38:51.000Z</time>
      </trkpt>
      <trkpt lat="44.55535" lon="6.16487">
        <ele>986.79998779297</ele>
        <time>2016-07-15T08:38:52.000Z</time>
      </trkpt>
      <trkpt lat="44.5553" lon="6.1649">
        <ele>987</ele>
        <time>2016-07-15T08:38:56.000Z</time>
      </trkpt>
      <trkpt lat="44.55518" lon="6.16491">
        <ele>988</ele>
        <time>2016-07-15T08:39:05.000Z</time>
      </trkpt>
      <trkpt lat="44.55509" lon="6.16494">
        <ele>988.59997558594</ele>
        <time>2016-07-15T08:39:12.000Z</time>
      </trkpt>
      <trkpt lat="44.55498" lon="6.16494">
        <ele>989.59997558594</ele>
        <time>2016-07-15T08:39:20.000Z</time>
      </trkpt>
      <trkpt lat="44.55478" lon="6.16489">
        <ele>992</ele>
        <time>2016-07-15T08:39:34.000Z</time>
      </trkpt>
      <trkpt lat="44.55465" lon="6.16485">
        <ele>993.79998779297</ele>
        <time>2016-07-15T08:39:44.000Z</time>
      </trkpt>
      <trkpt lat="44.55462" lon="6.16483">
        <ele>994.20001220703</ele>
        <time>2016-07-15T08:39:47.000Z</time>
      </trkpt>
      <trkpt lat="44.55455" lon="6.16483">
        <ele>995.20001220703</ele>
        <time>2016-07-15T08:39:52.000Z</time>
      </trkpt>
      <trkpt lat="44.55436" lon="6.16482">
        <ele>996.59997558594</ele>
        <time>2016-07-15T08:40:05.000Z</time>
      </trkpt>
      <trkpt lat="44.55417" lon="6.16482">
        <ele>997.79998779297</ele>
        <time>2016-07-15T08:40:18.000Z</time>
      </trkpt>
      <trkpt lat="44.55403" lon="6.16479">
        <ele>998.79998779297</ele>
        <time>2016-07-15T08:40:28.000Z</time>
      </trkpt>
      <trkpt lat="44.55391" lon="6.16476">
        <ele>999.79998779297</ele>
        <time>2016-07-15T08:40:37.000Z</time>
      </trkpt>
      <trkpt lat="44.55385" lon="6.16474">
        <ele>1000.4000244141</ele>
        <time>2016-07-15T08:40:42.000Z</time>
      </trkpt>
      <trkpt lat="44.55379" lon="6.1647">
        <ele>1001.200012207</ele>
        <time>2016-07-15T08:40:47.000Z</time>
      </trkpt>
      <trkpt lat="44.5537" lon="6.16464">
        <ele>1002.4000244141</ele>
        <time>2016-07-15T08:40:55.000Z</time>
      </trkpt>
      <trkpt lat="44.55369" lon="6.16463">
        <ele>1002.5999755859</ele>
        <time>2016-07-15T08:40:56.000Z</time>
      </trkpt>
      <trkpt lat="44.55359" lon="6.16462">
        <ele>1002</ele>
        <time>2016-07-15T08:41:03.000Z</time>
      </trkpt>
      <trkpt lat="44.55346" lon="6.16456">
        <ele>1001.5999755859</ele>
        <time>2016-07-15T08:41:12.000Z</time>
      </trkpt>
      <trkpt lat="44.55336" lon="6.1645">
        <ele>1001.799987793</ele>
        <time>2016-07-15T08:41:20.000Z</time>
      </trkpt>
      <trkpt lat="44.55335" lon="6.1645">
        <ele>1001.799987793</ele>
        <time>2016-07-15T08:41:21.000Z</time>
      </trkpt>
      <trkpt lat="44.55334" lon="6.16449">
        <ele>1001.799987793</ele>
        <time>2016-07-15T08:41:34.000Z</time>
      </trkpt>
      <trkpt lat="44.55331" lon="6.16442">
        <ele>1001.799987793</ele>
        <time>2016-07-15T08:41:46.000Z</time>
      </trkpt>
      <trkpt lat="44.55329" lon="6.16424">
        <ele>1003.5999755859</ele>
        <time>2016-07-15T08:41:56.000Z</time>
      </trkpt>
      <trkpt lat="44.55327" lon="6.16411">
        <ele>1004.799987793</ele>
        <time>2016-07-15T08:42:04.000Z</time>
      </trkpt>
      <trkpt lat="44.55327" lon="6.16379">
        <ele>1007</ele>
        <time>2016-07-15T08:42:21.000Z</time>
      </trkpt>
      <trkpt lat="44.55329" lon="6.1636">
        <ele>1007.5999755859</ele>
        <time>2016-07-15T08:42:31.000Z</time>
      </trkpt>
      <trkpt lat="44.55335" lon="6.16347">
        <ele>1008.4000244141</ele>
        <time>2016-07-15T08:42:39.000Z</time>
      </trkpt>
      <trkpt lat="44.55341" lon="6.16335">
        <ele>1009.200012207</ele>
        <time>2016-07-15T08:42:47.000Z</time>
      </trkpt>
      <trkpt lat="44.55346" lon="6.16321">
        <ele>1010</ele>
        <time>2016-07-15T08:42:55.000Z</time>
      </trkpt>
      <trkpt lat="44.55351" lon="6.1631">
        <ele>1010.5999755859</ele>
        <time>2016-07-15T08:43:02.000Z</time>
      </trkpt>
      <trkpt lat="44.55357" lon="6.16301">
        <ele>1011.200012207</ele>
        <time>2016-07-15T08:43:09.000Z</time>
      </trkpt>
      <trkpt lat="44.55363" lon="6.1629">
        <ele>1010.799987793</ele>
        <time>2016-07-15T08:43:16.000Z</time>
      </trkpt>
      <trkpt lat="44.55363" lon="6.16289">
        <ele>1010.799987793</ele>
        <time>2016-07-15T08:43:26.000Z</time>
      </trkpt>
      <trkpt lat="44.55366" lon="6.16285">
        <ele>1010.5999755859</ele>
        <time>2016-07-15T08:43:32.000Z</time>
      </trkpt>
      <trkpt lat="44.55371" lon="6.16277">
        <ele>1010.799987793</ele>
        <time>2016-07-15T08:43:39.000Z</time>
      </trkpt>
      <trkpt lat="44.55371" lon="6.16276">
        <ele>1010.799987793</ele>
        <time>2016-07-15T08:43:49.000Z</time>
      </trkpt>
      <trkpt lat="44.55375" lon="6.16264">
        <ele>1010.5999755859</ele>
        <time>2016-07-15T08:45:22.000Z</time>
      </trkpt>
      <trkpt lat="44.55382" lon="6.16253">
        <ele>1010.799987793</ele>
        <time>2016-07-15T08:45:30.000Z</time>
      </trkpt>
      <trkpt lat="44.55386" lon="6.16237">
        <ele>1010.799987793</ele>
        <time>2016-07-15T08:45:38.000Z</time>
      </trkpt>
      <trkpt lat="44.55392" lon="6.16226">
        <ele>1011.4000244141</ele>
        <time>2016-07-15T08:45:45.000Z</time>
      </trkpt>
      <trkpt lat="44.55399" lon="6.16212">
        <ele>1012</ele>
        <time>2016-07-15T08:45:53.000Z</time>
      </trkpt>
      <trkpt lat="44.55401" lon="6.16203">
        <ele>1012.200012207</ele>
        <time>2016-07-15T08:45:58.000Z</time>
      </trkpt>
      <trkpt lat="44.55409" lon="6.16194">
        <ele>1013.200012207</ele>
        <time>2016-07-15T08:46:05.000Z</time>
      </trkpt>
      <trkpt lat="44.55413" lon="6.16178">
        <ele>1013.4000244141</ele>
        <time>2016-07-15T08:46:14.000Z</time>
      </trkpt>
      <trkpt lat="44.55416" lon="6.16158">
        <ele>1013.200012207</ele>
        <time>2016-07-15T08:46:24.000Z</time>
      </trkpt>
      <trkpt lat="44.5542" lon="6.16148">
        <ele>1013.5999755859</ele>
        <time>2016-07-15T08:46:32.000Z</time>
      </trkpt>
      <trkpt lat="44.55419" lon="6.16139">
        <ele>1013.4000244141</ele>
        <time>2016-07-15T08:46:38.000Z</time>
      </trkpt>
      <trkpt lat="44.55418" lon="6.16127">
        <ele>1013.4000244141</ele>
        <time>2016-07-15T08:46:45.000Z</time>
      </trkpt>
      <trkpt lat="44.55418" lon="6.16126">
        <ele>1013.200012207</ele>
        <time>2016-07-15T08:46:46.000Z</time>
      </trkpt>
      <trkpt lat="44.55416" lon="6.16122">
        <ele>1013</ele>
        <time>2016-07-15T08:46:50.000Z</time>
      </trkpt>
      <trkpt lat="44.55414" lon="6.16122">
        <ele>1012.5999755859</ele>
        <time>2016-07-15T08:46:57.000Z</time>
      </trkpt>
      <trkpt lat="44.55413" lon="6.16127">
        <ele>1012.4000244141</ele>
        <time>2016-07-15T08:47:13.000Z</time>
      </trkpt>
      <trkpt lat="44.5541" lon="6.16129">
        <ele>1012.200012207</ele>
        <time>2016-07-15T08:47:16.000Z</time>
      </trkpt>
      <trkpt lat="44.55406" lon="6.16128">
        <ele>1011.5999755859</ele>
        <time>2016-07-15T08:47:20.000Z</time>
      </trkpt>
      <trkpt lat="44.55393" lon="6.16128">
        <ele>1009.5999755859</ele>
        <time>2016-07-15T08:47:30.000Z</time>
      </trkpt>
      <trkpt lat="44.55382" lon="6.16125">
        <ele>1008</ele>
        <time>2016-07-15T08:47:39.000Z</time>
      </trkpt>
      <trkpt lat="44.5537" lon="6.16122">
        <ele>1006.200012207</ele>
        <time>2016-07-15T08:47:48.000Z</time>
      </trkpt>
      <trkpt lat="44.55356" lon="6.16122">
        <ele>1006.799987793</ele>
        <time>2016-07-15T08:47:55.000Z</time>
      </trkpt>
      <trkpt lat="44.55336" lon="6.16119">
        <ele>1007.5999755859</ele>
        <time>2016-07-15T08:48:02.000Z</time>
      </trkpt>
      <trkpt lat="44.55315" lon="6.16118">
        <ele>1007.5999755859</ele>
        <time>2016-07-15T08:48:09.000Z</time>
      </trkpt>
      <trkpt lat="44.55297" lon="6.16115">
        <ele>1007.799987793</ele>
        <time>2016-07-15T08:48:15.000Z</time>
      </trkpt>
      <trkpt lat="44.55278" lon="6.16112">
        <ele>1008.5999755859</ele>
        <time>2016-07-15T08:48:21.000Z</time>
      </trkpt>
      <trkpt lat="44.55261" lon="6.16107">
        <ele>1010.799987793</ele>
        <time>2016-07-15T08:48:27.000Z</time>
      </trkpt>
      <trkpt lat="44.55249" lon="6.16105">
        <ele>1012.200012207</ele>
        <time>2016-07-15T08:48:32.000Z</time>
      </trkpt>
      <trkpt lat="44.55239" lon="6.16102">
        <ele>1013.4000244141</ele>
        <time>2016-07-15T08:48:38.000Z</time>
      </trkpt>
      <trkpt lat="44.55231" lon="6.161">
        <ele>1014.5999755859</ele>
        <time>2016-07-15T08:48:44.000Z</time>
      </trkpt>
      <trkpt lat="44.55218" lon="6.16098">
        <ele>1016.4000244141</ele>
        <time>2016-07-15T08:48:53.000Z</time>
      </trkpt>
      <trkpt lat="44.5521" lon="6.16096">
        <ele>1017.5999755859</ele>
        <time>2016-07-15T08:48:59.000Z</time>
      </trkpt>
      <trkpt lat="44.552" lon="6.16093">
        <ele>1019</ele>
        <time>2016-07-15T08:49:06.000Z</time>
      </trkpt>
      <trkpt lat="44.55188" lon="6.1609">
        <ele>1021.799987793</ele>
        <time>2016-07-15T08:49:15.000Z</time>
      </trkpt>
      <trkpt lat="44.55169" lon="6.16088">
        <ele>1025.8000488281</ele>
        <time>2016-07-15T08:49:28.000Z</time>
      </trkpt>
      <trkpt lat="44.55156" lon="6.16086">
        <ele>1028.8000488281</ele>
        <time>2016-07-15T08:49:38.000Z</time>
      </trkpt>
      <trkpt lat="44.55144" lon="6.16081">
        <ele>1031.5999755859</ele>
        <time>2016-07-15T08:49:48.000Z</time>
      </trkpt>
      <trkpt lat="44.55135" lon="6.16071">
        <ele>1033.8000488281</ele>
        <time>2016-07-15T08:49:57.000Z</time>
      </trkpt>
      <trkpt lat="44.55132" lon="6.16061">
        <ele>1034.8000488281</ele>
        <time>2016-07-15T08:50:04.000Z</time>
      </trkpt>
      <trkpt lat="44.55128" lon="6.16059">
        <ele>1035.5999755859</ele>
        <time>2016-07-15T08:50:08.000Z</time>
      </trkpt>
      <trkpt lat="44.55123" lon="6.16058">
        <ele>1036.8000488281</ele>
        <time>2016-07-15T08:50:12.000Z</time>
      </trkpt>
      <trkpt lat="44.55115" lon="6.16062">
        <ele>1038.5999755859</ele>
        <time>2016-07-15T08:50:20.000Z</time>
      </trkpt>
      <trkpt lat="44.55106" lon="6.16064">
        <ele>1040.8000488281</ele>
        <time>2016-07-15T08:50:28.000Z</time>
      </trkpt>
      <trkpt lat="44.55097" lon="6.16068">
        <ele>1043</ele>
        <time>2016-07-15T08:50:36.000Z</time>
      </trkpt>
      <trkpt lat="44.55086" lon="6.16072">
        <ele>1045.5999755859</ele>
        <time>2016-07-15T08:50:45.000Z</time>
      </trkpt>
      <trkpt lat="44.55074" lon="6.16072">
        <ele>1048.5999755859</ele>
        <time>2016-07-15T08:50:55.000Z</time>
      </trkpt>
      <trkpt lat="44.55062" lon="6.16069">
        <ele>1051.4000244141</ele>
        <time>2016-07-15T08:51:04.000Z</time>
      </trkpt>
      <trkpt lat="44.55059" lon="6.16066">
        <ele>1052</ele>
        <time>2016-07-15T08:51:11.000Z</time>
      </trkpt>
      <trkpt lat="44.5505" lon="6.1606">
        <ele>1054.1999511719</ele>
        <time>2016-07-15T08:51:32.000Z</time>
      </trkpt>
      <trkpt lat="44.55043" lon="6.16053">
        <ele>1055</ele>
        <time>2016-07-15T08:51:39.000Z</time>
      </trkpt>
      <trkpt lat="44.55038" lon="6.16046">
        <ele>1055.1999511719</ele>
        <time>2016-07-15T08:51:45.000Z</time>
      </trkpt>
      <trkpt lat="44.55028" lon="6.16036">
        <ele>1055.1999511719</ele>
        <time>2016-07-15T08:51:55.000Z</time>
      </trkpt>
      <trkpt lat="44.5502" lon="6.1603">
        <ele>1054.5999755859</ele>
        <time>2016-07-15T08:52:02.000Z</time>
      </trkpt>
      <trkpt lat="44.55019" lon="6.16029">
        <ele>1054.4000244141</ele>
        <time>2016-07-15T08:52:03.000Z</time>
      </trkpt>
      <trkpt lat="44.5499" lon="6.16011">
        <ele>1053</ele>
        <time>2016-07-15T08:52:27.000Z</time>
      </trkpt>
      <trkpt lat="44.5498" lon="6.16006">
        <ele>1052.5999755859</ele>
        <time>2016-07-15T08:52:35.000Z</time>
      </trkpt>
      <trkpt lat="44.54972" lon="6.16004">
        <ele>1052.5999755859</ele>
        <time>2016-07-15T08:52:42.000Z</time>
      </trkpt>
      <trkpt lat="44.54965" lon="6.16002">
        <ele>1052.4000244141</ele>
        <time>2016-07-15T08:52:48.000Z</time>
      </trkpt>
      <trkpt lat="44.54959" lon="6.16003">
        <ele>1052.5999755859</ele>
        <time>2016-07-15T08:52:52.000Z</time>
      </trkpt>
      <trkpt lat="44.54949" lon="6.16004">
        <ele>1052.5999755859</ele>
        <time>2016-07-15T08:53:00.000Z</time>
      </trkpt>
      <trkpt lat="44.54925" lon="6.16017">
        <ele>1051.8000488281</ele>
        <time>2016-07-15T08:53:18.000Z</time>
      </trkpt>
      <trkpt lat="44.54912" lon="6.16025">
        <ele>1051.4000244141</ele>
        <time>2016-07-15T08:53:28.000Z</time>
      </trkpt>
      <trkpt lat="44.54899" lon="6.1603">
        <ele>1050.1999511719</ele>
        <time>2016-07-15T08:53:37.000Z</time>
      </trkpt>
      <trkpt lat="44.54887" lon="6.16035">
        <ele>1049.1999511719</ele>
        <time>2016-07-15T08:53:45.000Z</time>
      </trkpt>
      <trkpt lat="44.54874" lon="6.16038">
        <ele>1047.8000488281</ele>
        <time>2016-07-15T08:53:54.000Z</time>
      </trkpt>
      <trkpt lat="44.54863" lon="6.1604">
        <ele>1047.1999511719</ele>
        <time>2016-07-15T08:54:02.000Z</time>
      </trkpt>
      <trkpt lat="44.54852" lon="6.16044">
        <ele>1047.4000244141</ele>
        <time>2016-07-15T08:54:10.000Z</time>
      </trkpt>
      <trkpt lat="44.54838" lon="6.16049">
        <ele>1047.4000244141</ele>
        <time>2016-07-15T08:54:20.000Z</time>
      </trkpt>
      <trkpt lat="44.54824" lon="6.16056">
        <ele>1047.5999755859</ele>
        <time>2016-07-15T08:54:30.000Z</time>
      </trkpt>
      <trkpt lat="44.54814" lon="6.16065">
        <ele>1048</ele>
        <time>2016-07-15T08:54:38.000Z</time>
      </trkpt>
      <trkpt lat="44.54803" lon="6.16075">
        <ele>1048.8000488281</ele>
        <time>2016-07-15T08:54:47.000Z</time>
      </trkpt>
      <trkpt lat="44.54791" lon="6.16087">
        <ele>1049.4000244141</ele>
        <time>2016-07-15T08:54:57.000Z</time>
      </trkpt>
      <trkpt lat="44.54781" lon="6.16097">
        <ele>1050.5999755859</ele>
        <time>2016-07-15T08:55:06.000Z</time>
      </trkpt>
      <trkpt lat="44.54768" lon="6.16107">
        <ele>1053.4000244141</ele>
        <time>2016-07-15T08:55:16.000Z</time>
      </trkpt>
      <trkpt lat="44.54755" lon="6.16114">
        <ele>1056.4000244141</ele>
        <time>2016-07-15T08:55:26.000Z</time>
      </trkpt>
      <trkpt lat="44.5474" lon="6.16124">
        <ele>1057.4000244141</ele>
        <time>2016-07-15T08:55:37.000Z</time>
      </trkpt>
      <trkpt lat="44.54728" lon="6.16129">
        <ele>1058.1999511719</ele>
        <time>2016-07-15T08:55:46.000Z</time>
      </trkpt>
      <trkpt lat="44.54719" lon="6.16134">
        <ele>1058.8000488281</ele>
        <time>2016-07-15T08:55:53.000Z</time>
      </trkpt>
      <trkpt lat="44.54708" lon="6.16142">
        <ele>1059.4000244141</ele>
        <time>2016-07-15T08:56:02.000Z</time>
      </trkpt>
      <trkpt lat="44.54675" lon="6.16175">
        <ele>1063.5999755859</ele>
        <time>2016-07-15T08:56:34.000Z</time>
      </trkpt>
      <trkpt lat="44.54664" lon="6.16184">
        <ele>1065</ele>
        <time>2016-07-15T08:56:43.000Z</time>
      </trkpt>
      <trkpt lat="44.54653" lon="6.16194">
        <ele>1065.5999755859</ele>
        <time>2016-07-15T08:56:53.000Z</time>
      </trkpt>
      <trkpt lat="44.5464" lon="6.16199">
        <ele>1066</ele>
        <time>2016-07-15T08:57:03.000Z</time>
      </trkpt>
      <trkpt lat="44.54631" lon="6.16196">
        <ele>1066.4000244141</ele>
        <time>2016-07-15T08:57:10.000Z</time>
      </trkpt>
      <trkpt lat="44.54618" lon="6.16192">
        <ele>1067.1999511719</ele>
        <time>2016-07-15T08:57:20.000Z</time>
      </trkpt>
      <trkpt lat="44.54601" lon="6.16191">
        <ele>1068</ele>
        <time>2016-07-15T08:57:32.000Z</time>
      </trkpt>
      <trkpt lat="44.54587" lon="6.16192">
        <ele>1068.4000244141</ele>
        <time>2016-07-15T08:57:43.000Z</time>
      </trkpt>
      <trkpt lat="44.54578" lon="6.16189">
        <ele>1068.8000488281</ele>
        <time>2016-07-15T08:57:50.000Z</time>
      </trkpt>
      <trkpt lat="44.54573" lon="6.16183">
        <ele>1069.1999511719</ele>
        <time>2016-07-15T08:57:57.000Z</time>
      </trkpt>
      <trkpt lat="44.5457" lon="6.16179">
        <ele>1069.4000244141</ele>
        <time>2016-07-15T08:58:03.000Z</time>
      </trkpt>
      <trkpt lat="44.54566" lon="6.16173">
        <ele>1069.8000488281</ele>
        <time>2016-07-15T08:58:29.000Z</time>
      </trkpt>
      <trkpt lat="44.54558" lon="6.16164">
        <ele>1070.4000244141</ele>
        <time>2016-07-15T08:58:37.000Z</time>
      </trkpt>
      <trkpt lat="44.54552" lon="6.16154">
        <ele>1071</ele>
        <time>2016-07-15T08:58:45.000Z</time>
      </trkpt>
      <trkpt lat="44.54544" lon="6.16145">
        <ele>1071.5999755859</ele>
        <time>2016-07-15T08:58:54.000Z</time>
      </trkpt>
      <trkpt lat="44.54534" lon="6.16144">
        <ele>1072</ele>
        <time>2016-07-15T08:59:01.000Z</time>
      </trkpt>
      <trkpt lat="44.54521" lon="6.16152">
        <ele>1071.8000488281</ele>
        <time>2016-07-15T08:59:11.000Z</time>
      </trkpt>
      <trkpt lat="44.54509" lon="6.16158">
        <ele>1071.8000488281</ele>
        <time>2016-07-15T08:59:20.000Z</time>
      </trkpt>
      <trkpt lat="44.54499" lon="6.16163">
        <ele>1071.8000488281</ele>
        <time>2016-07-15T08:59:27.000Z</time>
      </trkpt>
      <trkpt lat="44.54488" lon="6.16168">
        <ele>1071.8000488281</ele>
        <time>2016-07-15T08:59:35.000Z</time>
      </trkpt>
      <trkpt lat="44.54476" lon="6.1617">
        <ele>1071.8000488281</ele>
        <time>2016-07-15T08:59:44.000Z</time>
      </trkpt>
      <trkpt lat="44.54459" lon="6.16168">
        <ele>1071</ele>
        <time>2016-07-15T08:59:56.000Z</time>
      </trkpt>
      <trkpt lat="44.54445" lon="6.16163">
        <ele>1070.8000488281</ele>
        <time>2016-07-15T09:00:07.000Z</time>
      </trkpt>
      <trkpt lat="44.5443" lon="6.16158">
        <ele>1071</ele>
        <time>2016-07-15T09:00:18.000Z</time>
      </trkpt>
      <trkpt lat="44.54414" lon="6.16155">
        <ele>1071</ele>
        <time>2016-07-15T09:00:30.000Z</time>
      </trkpt>
      <trkpt lat="44.54405" lon="6.16153">
        <ele>1071</ele>
        <time>2016-07-15T09:00:38.000Z</time>
      </trkpt>
      <trkpt lat="44.54395" lon="6.16151">
        <ele>1071</ele>
        <time>2016-07-15T09:00:45.000Z</time>
      </trkpt>
      <trkpt lat="44.54381" lon="6.16149">
        <ele>1070.8000488281</ele>
        <time>2016-07-15T09:00:55.000Z</time>
      </trkpt>
      <trkpt lat="44.54374" lon="6.16148">
        <ele>1070.8000488281</ele>
        <time>2016-07-15T09:01:00.000Z</time>
      </trkpt>
      <trkpt lat="44.5436" lon="6.16148">
        <ele>1069.4000244141</ele>
        <time>2016-07-15T09:01:10.000Z</time>
      </trkpt>
      <trkpt lat="44.54347" lon="6.16147">
        <ele>1067.1999511719</ele>
        <time>2016-07-15T09:01:19.000Z</time>
      </trkpt>
      <trkpt lat="44.54329" lon="6.16132">
        <ele>1065.5999755859</ele>
        <time>2016-07-15T09:01:35.000Z</time>
      </trkpt>
      <trkpt lat="44.54324" lon="6.16125">
        <ele>1065.5999755859</ele>
        <time>2016-07-15T09:01:43.000Z</time>
      </trkpt>
      <trkpt lat="44.5432" lon="6.16118">
        <ele>1065.5999755859</ele>
        <time>2016-07-15T09:01:54.000Z</time>
      </trkpt>
      <trkpt lat="44.54313" lon="6.16102">
        <ele>1066</ele>
        <time>2016-07-15T09:02:04.000Z</time>
      </trkpt>
      <trkpt lat="44.54305" lon="6.16085">
        <ele>1066.1999511719</ele>
        <time>2016-07-15T09:02:14.000Z</time>
      </trkpt>
      <trkpt lat="44.54299" lon="6.16067">
        <ele>1066.8000488281</ele>
        <time>2016-07-15T09:02:24.000Z</time>
      </trkpt>
      <trkpt lat="44.54292" lon="6.16055">
        <ele>1066.8000488281</ele>
        <time>2016-07-15T09:02:32.000Z</time>
      </trkpt>
      <trkpt lat="44.54286" lon="6.16047">
        <ele>1066.4000244141</ele>
        <time>2016-07-15T09:02:38.000Z</time>
      </trkpt>
      <trkpt lat="44.54275" lon="6.16034">
        <ele>1066.1999511719</ele>
        <time>2016-07-15T09:02:48.000Z</time>
      </trkpt>
      <trkpt lat="44.54268" lon="6.16028">
        <ele>1066</ele>
        <time>2016-07-15T09:02:54.000Z</time>
      </trkpt>
      <trkpt lat="44.54261" lon="6.16019">
        <ele>1065.8000488281</ele>
        <time>2016-07-15T09:03:01.000Z</time>
      </trkpt>
      <trkpt lat="44.54253" lon="6.16004">
        <ele>1066</ele>
        <time>2016-07-15T09:03:10.000Z</time>
      </trkpt>
      <trkpt lat="44.54245" lon="6.15988">
        <ele>1066.4000244141</ele>
        <time>2016-07-15T09:03:20.000Z</time>
      </trkpt>
      <trkpt lat="44.54239" lon="6.15977">
        <ele>1066.5999755859</ele>
        <time>2016-07-15T09:03:27.000Z</time>
      </trkpt>
      <trkpt lat="44.54232" lon="6.15966">
        <ele>1066.8000488281</ele>
        <time>2016-07-15T09:03:36.000Z</time>
      </trkpt>
      <trkpt lat="44.54222" lon="6.15956">
        <ele>1066.5999755859</ele>
        <time>2016-07-15T09:03:45.000Z</time>
      </trkpt>
      <trkpt lat="44.54209" lon="6.1595">
        <ele>1065.5999755859</ele>
        <time>2016-07-15T09:03:55.000Z</time>
      </trkpt>
      <trkpt lat="44.5419" lon="6.15947">
        <ele>1064</ele>
        <time>2016-07-15T09:04:08.000Z</time>
      </trkpt>
      <trkpt lat="44.54173" lon="6.15941">
        <ele>1063.1999511719</ele>
        <time>2016-07-15T09:04:20.000Z</time>
      </trkpt>
      <trkpt lat="44.54154" lon="6.1593">
        <ele>1062.5999755859</ele>
        <time>2016-07-15T09:04:35.000Z</time>
      </trkpt>
      <trkpt lat="44.54139" lon="6.15921">
        <ele>1062.1999511719</ele>
        <time>2016-07-15T09:04:46.000Z</time>
      </trkpt>
      <trkpt lat="44.54125" lon="6.15912">
        <ele>1062</ele>
        <time>2016-07-15T09:04:56.000Z</time>
      </trkpt>
      <trkpt lat="44.54115" lon="6.15905">
        <ele>1062</ele>
        <time>2016-07-15T09:05:04.000Z</time>
      </trkpt>
      <trkpt lat="44.54102" lon="6.15894">
        <ele>1062.5999755859</ele>
        <time>2016-07-15T09:05:14.000Z</time>
      </trkpt>
      <trkpt lat="44.54099" lon="6.15892">
        <ele>1062.8000488281</ele>
        <time>2016-07-15T09:05:16.000Z</time>
      </trkpt>
      <trkpt lat="44.54091" lon="6.15886">
        <ele>1063</ele>
        <time>2016-07-15T09:05:22.000Z</time>
      </trkpt>
      <trkpt lat="44.54078" lon="6.15876">
        <ele>1063.4000244141</ele>
        <time>2016-07-15T09:05:31.000Z</time>
      </trkpt>
      <trkpt lat="44.54062" lon="6.15864">
        <ele>1063.8000488281</ele>
        <time>2016-07-15T09:05:43.000Z</time>
      </trkpt>
      <trkpt lat="44.54051" lon="6.15854">
        <ele>1064.4000244141</ele>
        <time>2016-07-15T09:05:52.000Z</time>
      </trkpt>
      <trkpt lat="44.5404" lon="6.15839">
        <ele>1065.1999511719</ele>
        <time>2016-07-15T09:06:02.000Z</time>
      </trkpt>
      <trkpt lat="44.54033" lon="6.15825">
        <ele>1066</ele>
        <time>2016-07-15T09:06:10.000Z</time>
      </trkpt>
      <trkpt lat="44.54025" lon="6.15812">
        <ele>1066.4000244141</ele>
        <time>2016-07-15T09:06:19.000Z</time>
      </trkpt>
      <trkpt lat="44.54017" lon="6.15798">
        <ele>1067</ele>
        <time>2016-07-15T09:06:28.000Z</time>
      </trkpt>
      <trkpt lat="44.54009" lon="6.15786">
        <ele>1067.5999755859</ele>
        <time>2016-07-15T09:06:36.000Z</time>
      </trkpt>
      <trkpt lat="44.53999" lon="6.15772">
        <ele>1067.8000488281</ele>
        <time>2016-07-15T09:06:46.000Z</time>
      </trkpt>
      <trkpt lat="44.53998" lon="6.15771">
        <ele>1068</ele>
        <time>2016-07-15T09:06:47.000Z</time>
      </trkpt>
      <trkpt lat="44.53992" lon="6.15772">
        <ele>1067.8000488281</ele>
        <time>2016-07-15T09:06:53.000Z</time>
      </trkpt>
      <trkpt lat="44.53989" lon="6.15766">
        <ele>1068</ele>
        <time>2016-07-15T09:06:57.000Z</time>
      </trkpt>
      <trkpt lat="44.53979" lon="6.1575">
        <ele>1068.4000244141</ele>
        <time>2016-07-15T09:07:07.000Z</time>
      </trkpt>
      <trkpt lat="44.53969" lon="6.15737">
        <ele>1068.5999755859</ele>
        <time>2016-07-15T09:07:16.000Z</time>
      </trkpt>
      <trkpt lat="44.53956" lon="6.1572">
        <ele>1069</ele>
        <time>2016-07-15T09:07:27.000Z</time>
      </trkpt>
      <trkpt lat="44.53943" lon="6.15703">
        <ele>1069.4000244141</ele>
        <time>2016-07-15T09:07:39.000Z</time>
      </trkpt>
      <trkpt lat="44.53931" lon="6.15688">
        <ele>1069.8000488281</ele>
        <time>2016-07-15T09:07:50.000Z</time>
      </trkpt>
      <trkpt lat="44.53923" lon="6.15679">
        <ele>1070</ele>
        <time>2016-07-15T09:07:58.000Z</time>
      </trkpt>
      <trkpt lat="44.5391" lon="6.1567">
        <ele>1070.1999511719</ele>
        <time>2016-07-15T09:08:08.000Z</time>
      </trkpt>
      <trkpt lat="44.53901" lon="6.15664">
        <ele>1070.4000244141</ele>
        <time>2016-07-15T09:08:15.000Z</time>
      </trkpt>
      <trkpt lat="44.53889" lon="6.15655">
        <ele>1070.5999755859</ele>
        <time>2016-07-15T09:08:24.000Z</time>
      </trkpt>
      <trkpt lat="44.5388" lon="6.15646">
        <ele>1070.8000488281</ele>
        <time>2016-07-15T09:08:32.000Z</time>
      </trkpt>
      <trkpt lat="44.5387" lon="6.15634">
        <ele>1071.8000488281</ele>
        <time>2016-07-15T09:08:41.000Z</time>
      </trkpt>
      <trkpt lat="44.53864" lon="6.15624">
        <ele>1072.8000488281</ele>
        <time>2016-07-15T09:08:48.000Z</time>
      </trkpt>
      <trkpt lat="44.53856" lon="6.15614">
        <ele>1074.1999511719</ele>
        <time>2016-07-15T09:08:56.000Z</time>
      </trkpt>
      <trkpt lat="44.53845" lon="6.15599">
        <ele>1076</ele>
        <time>2016-07-15T09:09:07.000Z</time>
      </trkpt>
      <trkpt lat="44.53836" lon="6.15588">
        <ele>1077.5999755859</ele>
        <time>2016-07-15T09:09:16.000Z</time>
      </trkpt>
      <trkpt lat="44.53825" lon="6.15576">
        <ele>1079.1999511719</ele>
        <time>2016-07-15T09:09:26.000Z</time>
      </trkpt>
      <trkpt lat="44.53814" lon="6.15564">
        <ele>1081</ele>
        <time>2016-07-15T09:09:36.000Z</time>
      </trkpt>
      <trkpt lat="44.53802" lon="6.15548">
        <ele>1082</ele>
        <time>2016-07-15T09:09:48.000Z</time>
      </trkpt>
      <trkpt lat="44.53791" lon="6.15533">
        <ele>1083</ele>
        <time>2016-07-15T09:09:59.000Z</time>
      </trkpt>
      <trkpt lat="44.53781" lon="6.15517">
        <ele>1083.5999755859</ele>
        <time>2016-07-15T09:10:10.000Z</time>
      </trkpt>
      <trkpt lat="44.53767" lon="6.15491">
        <ele>1083.8000488281</ele>
        <time>2016-07-15T09:10:27.000Z</time>
      </trkpt>
      <trkpt lat="44.5376" lon="6.1548">
        <ele>1084</ele>
        <time>2016-07-15T09:10:36.000Z</time>
      </trkpt>
      <trkpt lat="44.53751" lon="6.15468">
        <ele>1084</ele>
        <time>2016-07-15T09:10:45.000Z</time>
      </trkpt>
      <trkpt lat="44.53741" lon="6.15454">
        <ele>1084</ele>
        <time>2016-07-15T09:10:55.000Z</time>
      </trkpt>
      <trkpt lat="44.53731" lon="6.15442">
        <ele>1084</ele>
        <time>2016-07-15T09:11:05.000Z</time>
      </trkpt>
      <trkpt lat="44.53722" lon="6.15434">
        <ele>1084</ele>
        <time>2016-07-15T09:11:12.000Z</time>
      </trkpt>
      <trkpt lat="44.53714" lon="6.15426">
        <ele>1084</ele>
        <time>2016-07-15T09:11:20.000Z</time>
      </trkpt>
      <trkpt lat="44.53702" lon="6.15415">
        <ele>1084</ele>
        <time>2016-07-15T09:11:30.000Z</time>
      </trkpt>
      <trkpt lat="44.53688" lon="6.15401">
        <ele>1082.1999511719</ele>
        <time>2016-07-15T09:11:42.000Z</time>
      </trkpt>
      <trkpt lat="44.53677" lon="6.15385">
        <ele>1081.5999755859</ele>
        <time>2016-07-15T09:11:53.000Z</time>
      </trkpt>
      <trkpt lat="44.53668" lon="6.15368">
        <ele>1082</ele>
        <time>2016-07-15T09:12:04.000Z</time>
      </trkpt>
      <trkpt lat="44.53663" lon="6.15354">
        <ele>1082.4000244141</ele>
        <time>2016-07-15T09:12:12.000Z</time>
      </trkpt>
      <trkpt lat="44.53656" lon="6.15338">
        <ele>1083</ele>
        <time>2016-07-15T09:12:21.000Z</time>
      </trkpt>
      <trkpt lat="44.53649" lon="6.15325">
        <ele>1083.1999511719</ele>
        <time>2016-07-15T09:12:29.000Z</time>
      </trkpt>
      <trkpt lat="44.5364" lon="6.15308">
        <ele>1083.4000244141</ele>
        <time>2016-07-15T09:12:39.000Z</time>
      </trkpt>
      <trkpt lat="44.53631" lon="6.15292">
        <ele>1083.5999755859</ele>
        <time>2016-07-15T09:12:49.000Z</time>
      </trkpt>
      <trkpt lat="44.53621" lon="6.15276">
        <ele>1083.4000244141</ele>
        <time>2016-07-15T09:12:59.000Z</time>
      </trkpt>
      <trkpt lat="44.53611" lon="6.15262">
        <ele>1084.4000244141</ele>
        <time>2016-07-15T09:13:09.000Z</time>
      </trkpt>
      <trkpt lat="44.53602" lon="6.15252">
        <ele>1085.5999755859</ele>
        <time>2016-07-15T09:13:18.000Z</time>
      </trkpt>
      <trkpt lat="44.53594" lon="6.15245">
        <ele>1086.4000244141</ele>
        <time>2016-07-15T09:13:25.000Z</time>
      </trkpt>
      <trkpt lat="44.53582" lon="6.15233">
        <ele>1087.8000488281</ele>
        <time>2016-07-15T09:13:35.000Z</time>
      </trkpt>
      <trkpt lat="44.53574" lon="6.15229">
        <ele>1088.4000244141</ele>
        <time>2016-07-15T09:13:43.000Z</time>
      </trkpt>
      <trkpt lat="44.53574" lon="6.15228">
        <ele>1088.4000244141</ele>
        <time>2016-07-15T09:13:44.000Z</time>
      </trkpt>
      <trkpt lat="44.53573" lon="6.15225">
        <ele>1088.8000488281</ele>
        <time>2016-07-15T09:13:52.000Z</time>
      </trkpt>
      <trkpt lat="44.53572" lon="6.15228">
        <ele>1088.5999755859</ele>
        <time>2016-07-15T09:14:13.000Z</time>
      </trkpt>
      <trkpt lat="44.53571" lon="6.15229">
        <ele>1088.5999755859</ele>
        <time>2016-07-15T09:14:21.000Z</time>
      </trkpt>
      <trkpt lat="44.53573" lon="6.15226">
        <ele>1088.5999755859</ele>
        <time>2016-07-15T09:14:25.000Z</time>
      </trkpt>
      <trkpt lat="44.53573" lon="6.15221">
        <ele>1089</ele>
        <time>2016-07-15T09:14:29.000Z</time>
      </trkpt>
      <trkpt lat="44.53572" lon="6.15223">
        <ele>1088.8000488281</ele>
        <time>2016-07-15T09:14:35.000Z</time>
      </trkpt>
      <trkpt lat="44.53574" lon="6.15224">
        <ele>1088.8000488281</ele>
        <time>2016-07-15T09:14:40.000Z</time>
      </trkpt>
      <trkpt lat="44.53576" lon="6.15221">
        <ele>1088.8000488281</ele>
        <time>2016-07-15T09:14:56.000Z</time>
      </trkpt>
      <trkpt lat="44.53571" lon="6.15222">
        <ele>1089</ele>
        <time>2016-07-15T09:15:13.000Z</time>
      </trkpt>
      <trkpt lat="44.53571" lon="6.1522">
        <ele>1089</ele>
        <time>2016-07-15T09:15:17.000Z</time>
      </trkpt>
      <trkpt lat="44.53568" lon="6.15225">
        <ele>1089</ele>
        <time>2016-07-15T09:15:26.000Z</time>
      </trkpt>
      <trkpt lat="44.53568" lon="6.15226">
        <ele>1088.8000488281</ele>
        <time>2016-07-15T09:15:32.000Z</time>
      </trkpt>
      <trkpt lat="44.53568" lon="6.15227">
        <ele>1088.8000488281</ele>
        <time>2016-07-15T09:16:00.000Z</time>
      </trkpt>
      <trkpt lat="44.53569" lon="6.15223">
        <ele>1089</ele>
        <time>2016-07-15T09:16:07.000Z</time>
      </trkpt>
      <trkpt lat="44.53571" lon="6.15219">
        <ele>1089</ele>
        <time>2016-07-15T09:16:13.000Z</time>
      </trkpt>
      <trkpt lat="44.5357" lon="6.15219">
        <ele>1089.1999511719</ele>
        <time>2016-07-15T09:16:19.000Z</time>
      </trkpt>
      <trkpt lat="44.53571" lon="6.15217">
        <ele>1089.1999511719</ele>
        <time>2016-07-15T09:17:22.000Z</time>
      </trkpt>
      <trkpt lat="44.53571" lon="6.15218">
        <ele>1089.1999511719</ele>
        <time>2016-07-15T09:17:39.000Z</time>
      </trkpt>
      <trkpt lat="44.5357" lon="6.15218">
        <ele>1089.1999511719</ele>
        <time>2016-07-15T09:18:01.000Z</time>
      </trkpt>
      <trkpt lat="44.53571" lon="6.15222">
        <ele>1089</ele>
        <time>2016-07-15T09:18:19.000Z</time>
      </trkpt>
      <trkpt lat="44.53573" lon="6.15214">
        <ele>1089.1999511719</ele>
        <time>2016-07-15T09:18:27.000Z</time>
      </trkpt>
      <trkpt lat="44.53572" lon="6.15199">
        <ele>1090</ele>
        <time>2016-07-15T09:18:35.000Z</time>
      </trkpt>
      <trkpt lat="44.53572" lon="6.15191">
        <ele>1090.4000244141</ele>
        <time>2016-07-15T09:18:39.000Z</time>
      </trkpt>
      <trkpt lat="44.53569" lon="6.15174">
        <ele>1091.4000244141</ele>
        <time>2016-07-15T09:18:48.000Z</time>
      </trkpt>
      <trkpt lat="44.53567" lon="6.1516">
        <ele>1092.1999511719</ele>
        <time>2016-07-15T09:18:56.000Z</time>
      </trkpt>
      <trkpt lat="44.53566" lon="6.15141">
        <ele>1093.4000244141</ele>
        <time>2016-07-15T09:19:06.000Z</time>
      </trkpt>
      <trkpt lat="44.53562" lon="6.15125">
        <ele>1094.4000244141</ele>
        <time>2016-07-15T09:19:15.000Z</time>
      </trkpt>
      <trkpt lat="44.53557" lon="6.15108">
        <ele>1095.5999755859</ele>
        <time>2016-07-15T09:19:24.000Z</time>
      </trkpt>
      <trkpt lat="44.53553" lon="6.15096">
        <ele>1096.4000244141</ele>
        <time>2016-07-15T09:19:32.000Z</time>
      </trkpt>
      <trkpt lat="44.53545" lon="6.1508">
        <ele>1097.5999755859</ele>
        <time>2016-07-15T09:19:42.000Z</time>
      </trkpt>
      <trkpt lat="44.53542" lon="6.15067">
        <ele>1098.5999755859</ele>
        <time>2016-07-15T09:19:50.000Z</time>
      </trkpt>
      <trkpt lat="44.53542" lon="6.1505">
        <ele>1099.5999755859</ele>
        <time>2016-07-15T09:19:58.000Z</time>
      </trkpt>
      <trkpt lat="44.53543" lon="6.15047">
        <ele>1099.8000488281</ele>
        <time>2016-07-15T09:20:00.000Z</time>
      </trkpt>
      <trkpt lat="44.53544" lon="6.15033">
        <ele>1100.5999755859</ele>
        <time>2016-07-15T09:20:07.000Z</time>
      </trkpt>
      <trkpt lat="44.53545" lon="6.14999">
        <ele>1102.5999755859</ele>
        <time>2016-07-15T09:20:25.000Z</time>
      </trkpt>
      <trkpt lat="44.53537" lon="6.14983">
        <ele>1103.5999755859</ele>
        <time>2016-07-15T09:20:35.000Z</time>
      </trkpt>
      <trkpt lat="44.53526" lon="6.14975">
        <ele>1104.8000488281</ele>
        <time>2016-07-15T09:20:45.000Z</time>
      </trkpt>
      <trkpt lat="44.53518" lon="6.14973">
        <ele>1105.4000244141</ele>
        <time>2016-07-15T09:20:52.000Z</time>
      </trkpt>
      <trkpt lat="44.53504" lon="6.14973">
        <ele>1106.4000244141</ele>
        <time>2016-07-15T09:21:03.000Z</time>
      </trkpt>
      <trkpt lat="44.53498" lon="6.14979">
        <ele>1106.5999755859</ele>
        <time>2016-07-15T09:21:10.000Z</time>
      </trkpt>
      <trkpt lat="44.5349" lon="6.14986">
        <ele>1106.5999755859</ele>
        <time>2016-07-15T09:21:17.000Z</time>
      </trkpt>
      <trkpt lat="44.53481" lon="6.14996">
        <ele>1106.8000488281</ele>
        <time>2016-07-15T09:21:25.000Z</time>
      </trkpt>
      <trkpt lat="44.53469" lon="6.15007">
        <ele>1107</ele>
        <time>2016-07-15T09:21:35.000Z</time>
      </trkpt>
      <trkpt lat="44.53456" lon="6.15016">
        <ele>1107.1999511719</ele>
        <time>2016-07-15T09:21:46.000Z</time>
      </trkpt>
      <trkpt lat="44.53445" lon="6.15027">
        <ele>1108</ele>
        <time>2016-07-15T09:21:56.000Z</time>
      </trkpt>
      <trkpt lat="44.53432" lon="6.15041">
        <ele>1109.4000244141</ele>
        <time>2016-07-15T09:22:07.000Z</time>
      </trkpt>
      <trkpt lat="44.53418" lon="6.15053">
        <ele>1108.8000488281</ele>
        <time>2016-07-15T09:22:19.000Z</time>
      </trkpt>
      <trkpt lat="44.53406" lon="6.15062">
        <ele>1108.5999755859</ele>
        <time>2016-07-15T09:22:29.000Z</time>
      </trkpt>
      <trkpt lat="44.53398" lon="6.15068">
        <ele>1109</ele>
        <time>2016-07-15T09:22:36.000Z</time>
      </trkpt>
      <trkpt lat="44.5339" lon="6.15073">
        <ele>1109.4000244141</ele>
        <time>2016-07-15T09:22:42.000Z</time>
      </trkpt>
      <trkpt lat="44.53377" lon="6.1508">
        <ele>1109.5999755859</ele>
        <time>2016-07-15T09:22:52.000Z</time>
      </trkpt>
      <trkpt lat="44.53366" lon="6.15088">
        <ele>1109.5999755859</ele>
        <time>2016-07-15T09:23:01.000Z</time>
      </trkpt>
      <trkpt lat="44.53356" lon="6.15096">
        <ele>1110</ele>
        <time>2016-07-15T09:23:09.000Z</time>
      </trkpt>
      <trkpt lat="44.53349" lon="6.15102">
        <ele>1110.1999511719</ele>
        <time>2016-07-15T09:23:15.000Z</time>
      </trkpt>
      <trkpt lat="44.53343" lon="6.15107">
        <ele>1110.5999755859</ele>
        <time>2016-07-15T09:23:20.000Z</time>
      </trkpt>
      <trkpt lat="44.53342" lon="6.15108">
        <ele>1110.5999755859</ele>
        <time>2016-07-15T09:23:26.000Z</time>
      </trkpt>
      <trkpt lat="44.53336" lon="6.15108">
        <ele>1111.1999511719</ele>
        <time>2016-07-15T09:23:43.000Z</time>
      </trkpt>
      <trkpt lat="44.53328" lon="6.15114">
        <ele>1111</ele>
        <time>2016-07-15T09:23:50.000Z</time>
      </trkpt>
      <trkpt lat="44.53319" lon="6.15123">
        <ele>1110</ele>
        <time>2016-07-15T09:23:58.000Z</time>
      </trkpt>
      <trkpt lat="44.53308" lon="6.15135">
        <ele>1108.4000244141</ele>
        <time>2016-07-15T09:24:08.000Z</time>
      </trkpt>
      <trkpt lat="44.53295" lon="6.1514">
        <ele>1108.1999511719</ele>
        <time>2016-07-15T09:24:18.000Z</time>
      </trkpt>
      <trkpt lat="44.53277" lon="6.1514">
        <ele>1107.8000488281</ele>
        <time>2016-07-15T09:24:31.000Z</time>
      </trkpt>
      <trkpt lat="44.5326" lon="6.15132">
        <ele>1107</ele>
        <time>2016-07-15T09:24:44.000Z</time>
      </trkpt>
      <trkpt lat="44.53247" lon="6.15118">
        <ele>1107.8000488281</ele>
        <time>2016-07-15T09:24:56.000Z</time>
      </trkpt>
      <trkpt lat="44.53236" lon="6.15104">
        <ele>1108.5999755859</ele>
        <time>2016-07-15T09:25:07.000Z</time>
      </trkpt>
      <trkpt lat="44.53228" lon="6.15093">
        <ele>1109.4000244141</ele>
        <time>2016-07-15T09:25:16.000Z</time>
      </trkpt>
      <trkpt lat="44.53214" lon="6.15076">
        <ele>1110.1999511719</ele>
        <time>2016-07-15T09:25:30.000Z</time>
      </trkpt>
      <trkpt lat="44.53207" lon="6.15064">
        <ele>1111.1999511719</ele>
        <time>2016-07-15T09:25:38.000Z</time>
      </trkpt>
      <trkpt lat="44.53199" lon="6.15054">
        <ele>1111.4000244141</ele>
        <time>2016-07-15T09:25:46.000Z</time>
      </trkpt>
      <trkpt lat="44.53187" lon="6.1504">
        <ele>1111</ele>
        <time>2016-07-15T09:25:57.000Z</time>
      </trkpt>
      <trkpt lat="44.53175" lon="6.15021">
        <ele>1111</ele>
        <time>2016-07-15T09:26:10.000Z</time>
      </trkpt>
      <trkpt lat="44.53167" lon="6.15006">
        <ele>1111.4000244141</ele>
        <time>2016-07-15T09:26:18.000Z</time>
      </trkpt>
      <trkpt lat="44.53162" lon="6.14995">
        <ele>1111.5999755859</ele>
        <time>2016-07-15T09:26:25.000Z</time>
      </trkpt>
      <trkpt lat="44.53156" lon="6.1498">
        <ele>1112.1999511719</ele>
        <time>2016-07-15T09:26:34.000Z</time>
      </trkpt>
      <trkpt lat="44.5315" lon="6.14969">
        <ele>1111.4000244141</ele>
        <time>2016-07-15T09:26:42.000Z</time>
      </trkpt>
      <trkpt lat="44.53141" lon="6.14955">
        <ele>1109.5999755859</ele>
        <time>2016-07-15T09:26:51.000Z</time>
      </trkpt>
      <trkpt lat="44.53134" lon="6.14944">
        <ele>1108.4000244141</ele>
        <time>2016-07-15T09:27:01.000Z</time>
      </trkpt>
      <trkpt lat="44.53135" lon="6.14943">
        <ele>1108.5999755859</ele>
        <time>2016-07-15T09:28:26.000Z</time>
      </trkpt>
      <trkpt lat="44.53135" lon="6.1494">
        <ele>1108.4000244141</ele>
        <time>2016-07-15T09:28:46.000Z</time>
      </trkpt>
      <trkpt lat="44.53131" lon="6.14932">
        <ele>1107.8000488281</ele>
        <time>2016-07-15T09:28:53.000Z</time>
      </trkpt>
      <trkpt lat="44.53129" lon="6.14928">
        <ele>1107.4000244141</ele>
        <time>2016-07-15T09:28:55.000Z</time>
      </trkpt>
      <trkpt lat="44.53125" lon="6.14918">
        <ele>1106.5999755859</ele>
        <time>2016-07-15T09:29:02.000Z</time>
      </trkpt>
      <trkpt lat="44.53121" lon="6.14912">
        <ele>1105.8000488281</ele>
        <time>2016-07-15T09:29:08.000Z</time>
      </trkpt>
      <trkpt lat="44.5312" lon="6.14909">
        <ele>1105.5999755859</ele>
        <time>2016-07-15T09:29:10.000Z</time>
      </trkpt>
      <trkpt lat="44.53113" lon="6.14897">
        <ele>1102.8000488281</ele>
        <time>2016-07-15T09:29:20.000Z</time>
      </trkpt>
      <trkpt lat="44.53107" lon="6.14888">
        <ele>1101</ele>
        <time>2016-07-15T09:29:26.000Z</time>
      </trkpt>
      <trkpt lat="44.531" lon="6.14879">
        <ele>1099.1999511719</ele>
        <time>2016-07-15T09:29:34.000Z</time>
      </trkpt>
      <trkpt lat="44.53093" lon="6.14871">
        <ele>1096.8000488281</ele>
        <time>2016-07-15T09:29:40.000Z</time>
      </trkpt>
      <trkpt lat="44.53086" lon="6.14864">
        <ele>1094.1999511719</ele>
        <time>2016-07-15T09:29:48.000Z</time>
      </trkpt>
      <trkpt lat="44.53076" lon="6.14855">
        <ele>1091</ele>
        <time>2016-07-15T09:29:56.000Z</time>
      </trkpt>
      <trkpt lat="44.53068" lon="6.1485">
        <ele>1088</ele>
        <time>2016-07-15T09:30:04.000Z</time>
      </trkpt>
      <trkpt lat="44.53061" lon="6.14844">
        <ele>1085.1999511719</ele>
        <time>2016-07-15T09:30:10.000Z</time>
      </trkpt>
      <trkpt lat="44.53054" lon="6.14837">
        <ele>1083</ele>
        <time>2016-07-15T09:30:17.000Z</time>
      </trkpt>
      <trkpt lat="44.53049" lon="6.14832">
        <ele>1081.1999511719</ele>
        <time>2016-07-15T09:30:24.000Z</time>
      </trkpt>
      <trkpt lat="44.53048" lon="6.14832">
        <ele>1080.8000488281</ele>
        <time>2016-07-15T09:30:35.000Z</time>
      </trkpt>
      <trkpt lat="44.53046" lon="6.14831">
        <ele>1080.1999511719</ele>
        <time>2016-07-15T09:30:58.000Z</time>
      </trkpt>
      <trkpt lat="44.53046" lon="6.14829">
        <ele>1080.1999511719</ele>
        <time>2016-07-15T09:30:59.000Z</time>
      </trkpt>
      <trkpt lat="44.53042" lon="6.14824">
        <ele>1079</ele>
        <time>2016-07-15T09:31:02.000Z</time>
      </trkpt>
      <trkpt lat="44.5304" lon="6.14818">
        <ele>1078.8000488281</ele>
        <time>2016-07-15T09:31:10.000Z</time>
      </trkpt>
      <trkpt lat="44.53037" lon="6.1481">
        <ele>1078.5999755859</ele>
        <time>2016-07-15T09:31:37.000Z</time>
      </trkpt>
      <trkpt lat="44.53035" lon="6.14807">
        <ele>1078.4000244141</ele>
        <time>2016-07-15T09:31:38.000Z</time>
      </trkpt>
      <trkpt lat="44.53034" lon="6.14803">
        <ele>1078.5999755859</ele>
        <time>2016-07-15T09:31:45.000Z</time>
      </trkpt>
      <trkpt lat="44.53031" lon="6.14795">
        <ele>1078.4000244141</ele>
        <time>2016-07-15T09:31:52.000Z</time>
      </trkpt>
      <trkpt lat="44.53029" lon="6.14788">
        <ele>1078.4000244141</ele>
        <time>2016-07-15T09:31:56.000Z</time>
      </trkpt>
      <trkpt lat="44.53029" lon="6.14787">
        <ele>1078.4000244141</ele>
        <time>2016-07-15T09:32:09.000Z</time>
      </trkpt>
      <trkpt lat="44.53027" lon="6.14781">
        <ele>1078.4000244141</ele>
        <time>2016-07-15T09:32:22.000Z</time>
      </trkpt>
      <trkpt lat="44.53026" lon="6.14776">
        <ele>1078.5999755859</ele>
        <time>2016-07-15T09:32:26.000Z</time>
      </trkpt>
      <trkpt lat="44.53024" lon="6.14772">
        <ele>1078.5999755859</ele>
        <time>2016-07-15T09:32:28.000Z</time>
      </trkpt>
      <trkpt lat="44.53025" lon="6.14764">
        <ele>1080.1999511719</ele>
        <time>2016-07-15T09:32:33.000Z</time>
      </trkpt>
      <trkpt lat="44.53025" lon="6.14756">
        <ele>1081.5999755859</ele>
        <time>2016-07-15T09:32:38.000Z</time>
      </trkpt>
      <trkpt lat="44.53026" lon="6.14746">
        <ele>1084</ele>
        <time>2016-07-15T09:32:44.000Z</time>
      </trkpt>
      <trkpt lat="44.53023" lon="6.14747">
        <ele>1082.1999511719</ele>
        <time>2016-07-15T09:32:48.000Z</time>
      </trkpt>
      <trkpt lat="44.53019" lon="6.14753">
        <ele>1079</ele>
        <time>2016-07-15T09:32:53.000Z</time>
      </trkpt>
      <trkpt lat="44.53013" lon="6.14758">
        <ele>1075.1999511719</ele>
        <time>2016-07-15T09:32:59.000Z</time>
      </trkpt>
      <trkpt lat="44.53011" lon="6.14762">
        <ele>1073.4000244141</ele>
        <time>2016-07-15T09:33:02.000Z</time>
      </trkpt>
      <trkpt lat="44.5301" lon="6.14765">
        <ele>1072.5999755859</ele>
        <time>2016-07-15T09:33:05.000Z</time>
      </trkpt>
      <trkpt lat="44.53008" lon="6.1477">
        <ele>1070.5999755859</ele>
        <time>2016-07-15T09:33:08.000Z</time>
      </trkpt>
      <trkpt lat="44.53006" lon="6.1478">
        <ele>1067.8000488281</ele>
        <time>2016-07-15T09:33:17.000Z</time>
      </trkpt>
      <trkpt lat="44.53005" lon="6.14781">
        <ele>1067.1999511719</ele>
        <time>2016-07-15T09:33:18.000Z</time>
      </trkpt>
      <trkpt lat="44.53" lon="6.14778">
        <ele>1065</ele>
        <time>2016-07-15T09:33:23.000Z</time>
      </trkpt>
      <trkpt lat="44.52999" lon="6.14777">
        <ele>1065</ele>
        <time>2016-07-15T09:33:24.000Z</time>
      </trkpt>
      <trkpt lat="44.52999" lon="6.14764">
        <ele>1066.5999755859</ele>
        <time>2016-07-15T09:33:32.000Z</time>
      </trkpt>
      <trkpt lat="44.52999" lon="6.14758">
        <ele>1068</ele>
        <time>2016-07-15T09:33:35.000Z</time>
      </trkpt>
      <trkpt lat="44.52996" lon="6.14758">
        <ele>1066.1999511719</ele>
        <time>2016-07-15T09:33:42.000Z</time>
      </trkpt>
      <trkpt lat="44.52992" lon="6.14763">
        <ele>1063.5999755859</ele>
        <time>2016-07-15T09:33:56.000Z</time>
      </trkpt>
      <trkpt lat="44.5299" lon="6.14774">
        <ele>1060.1999511719</ele>
        <time>2016-07-15T09:34:04.000Z</time>
      </trkpt>
      <trkpt lat="44.5299" lon="6.14781">
        <ele>1059.1999511719</ele>
        <time>2016-07-15T09:34:08.000Z</time>
      </trkpt>
      <trkpt lat="44.52989" lon="6.14785">
        <ele>1057.8000488281</ele>
        <time>2016-07-15T09:34:12.000Z</time>
      </trkpt>
      <trkpt lat="44.52983" lon="6.14783">
        <ele>1055</ele>
        <time>2016-07-15T09:34:19.000Z</time>
      </trkpt>
      <trkpt lat="44.52982" lon="6.14782">
        <ele>1054.5999755859</ele>
        <time>2016-07-15T09:34:20.000Z</time>
      </trkpt>
      <trkpt lat="44.52979" lon="6.14784">
        <ele>1052.4000244141</ele>
        <time>2016-07-15T09:34:26.000Z</time>
      </trkpt>
      <trkpt lat="44.52979" lon="6.14789">
        <ele>1051.5999755859</ele>
        <time>2016-07-15T09:34:29.000Z</time>
      </trkpt>
      <trkpt lat="44.52983" lon="6.148">
        <ele>1051.5999755859</ele>
        <time>2016-07-15T09:34:37.000Z</time>
      </trkpt>
      <trkpt lat="44.52983" lon="6.14801">
        <ele>1051.5999755859</ele>
        <time>2016-07-15T09:34:38.000Z</time>
      </trkpt>
      <trkpt lat="44.52984" lon="6.14814">
        <ele>1049.5999755859</ele>
        <time>2016-07-15T09:34:45.000Z</time>
      </trkpt>
      <trkpt lat="44.52985" lon="6.14819">
        <ele>1049.4000244141</ele>
        <time>2016-07-15T09:34:49.000Z</time>
      </trkpt>
      <trkpt lat="44.52981" lon="6.14823">
        <ele>1046.5999755859</ele>
        <time>2016-07-15T09:34:55.000Z</time>
      </trkpt>
      <trkpt lat="44.52978" lon="6.14816">
        <ele>1046</ele>
        <time>2016-07-15T09:35:00.000Z</time>
      </trkpt>
      <trkpt lat="44.52976" lon="6.14809">
        <ele>1046</ele>
        <time>2016-07-15T09:35:05.000Z</time>
      </trkpt>
      <trkpt lat="44.52971" lon="6.14801">
        <ele>1045</ele>
        <time>2016-07-15T09:35:13.000Z</time>
      </trkpt>
      <trkpt lat="44.5297" lon="6.14798">
        <ele>1045.1999511719</ele>
        <time>2016-07-15T09:35:26.000Z</time>
      </trkpt>
      <trkpt lat="44.5297" lon="6.14796">
        <ele>1045.1999511719</ele>
        <time>2016-07-15T09:35:28.000Z</time>
      </trkpt>
      <trkpt lat="44.52969" lon="6.14795">
        <ele>1045</ele>
        <time>2016-07-15T09:35:30.000Z</time>
      </trkpt>
      <trkpt lat="44.52965" lon="6.14791">
        <ele>1043.5999755859</ele>
        <time>2016-07-15T09:35:36.000Z</time>
      </trkpt>
      <trkpt lat="44.52962" lon="6.1479">
        <ele>1042.1999511719</ele>
        <time>2016-07-15T09:35:42.000Z</time>
      </trkpt>
      <trkpt lat="44.52961" lon="6.14793">
        <ele>1041</ele>
        <time>2016-07-15T09:35:47.000Z</time>
      </trkpt>
      <trkpt lat="44.52961" lon="6.14804">
        <ele>1038.5999755859</ele>
        <time>2016-07-15T09:35:55.000Z</time>
      </trkpt>
      <trkpt lat="44.52962" lon="6.14814">
        <ele>1037.8000488281</ele>
        <time>2016-07-15T09:36:02.000Z</time>
      </trkpt>
      <trkpt lat="44.52962" lon="6.14818">
        <ele>1037.4000244141</ele>
        <time>2016-07-15T09:36:05.000Z</time>
      </trkpt>
      <trkpt lat="44.52958" lon="6.14823">
        <ele>1034.5999755859</ele>
        <time>2016-07-15T09:36:10.000Z</time>
      </trkpt>
      <trkpt lat="44.52957" lon="6.14827">
        <ele>1033.5999755859</ele>
        <time>2016-07-15T09:36:14.000Z</time>
      </trkpt>
      <trkpt lat="44.52957" lon="6.14828">
        <ele>1033.5999755859</ele>
        <time>2016-07-15T09:36:16.000Z</time>
      </trkpt>
      <trkpt lat="44.52957" lon="6.14832">
        <ele>1033</ele>
        <time>2016-07-15T09:36:18.000Z</time>
      </trkpt>
      <trkpt lat="44.5296" lon="6.14841">
        <ele>1033.8000488281</ele>
        <time>2016-07-15T09:36:26.000Z</time>
      </trkpt>
      <trkpt lat="44.52961" lon="6.14847">
        <ele>1033.4000244141</ele>
        <time>2016-07-15T09:36:30.000Z</time>
      </trkpt>
      <trkpt lat="44.52957" lon="6.14848">
        <ele>1031.4000244141</ele>
        <time>2016-07-15T09:36:34.000Z</time>
      </trkpt>
      <trkpt lat="44.52952" lon="6.14841">
        <ele>1029.4000244141</ele>
        <time>2016-07-15T09:36:42.000Z</time>
      </trkpt>
      <trkpt lat="44.52951" lon="6.14836">
        <ele>1029.4000244141</ele>
        <time>2016-07-15T09:36:46.000Z</time>
      </trkpt>
      <trkpt lat="44.5295" lon="6.14835">
        <ele>1029.4000244141</ele>
        <time>2016-07-15T09:36:48.000Z</time>
      </trkpt>
      <trkpt lat="44.52948" lon="6.14832">
        <ele>1029</ele>
        <time>2016-07-15T09:36:50.000Z</time>
      </trkpt>
      <trkpt lat="44.52942" lon="6.1482">
        <ele>1028.5999755859</ele>
        <time>2016-07-15T09:37:01.000Z</time>
      </trkpt>
      <trkpt lat="44.52936" lon="6.14813">
        <ele>1027.5999755859</ele>
        <time>2016-07-15T09:37:08.000Z</time>
      </trkpt>
      <trkpt lat="44.52929" lon="6.14811">
        <ele>1025.5999755859</ele>
        <time>2016-07-15T09:37:20.000Z</time>
      </trkpt>
      <trkpt lat="44.52931" lon="6.14815">
        <ele>1025.5999755859</ele>
        <time>2016-07-15T09:37:25.000Z</time>
      </trkpt>
      <trkpt lat="44.52932" lon="6.14817">
        <ele>1025.8000488281</ele>
        <time>2016-07-15T09:37:27.000Z</time>
      </trkpt>
      <trkpt lat="44.52933" lon="6.14824">
        <ele>1025.1999511719</ele>
        <time>2016-07-15T09:37:34.000Z</time>
      </trkpt>
      <trkpt lat="44.52933" lon="6.14826">
        <ele>1025</ele>
        <time>2016-07-15T09:37:36.000Z</time>
      </trkpt>
      <trkpt lat="44.52933" lon="6.14832">
        <ele>1024.4000244141</ele>
        <time>2016-07-15T09:37:41.000Z</time>
      </trkpt>
      <trkpt lat="44.52933" lon="6.14842">
        <ele>1023.200012207</ele>
        <time>2016-07-15T09:37:49.000Z</time>
      </trkpt>
      <trkpt lat="44.52933" lon="6.14848">
        <ele>1022.799987793</ele>
        <time>2016-07-15T09:37:53.000Z</time>
      </trkpt>
      <trkpt lat="44.52934" lon="6.14851">
        <ele>1022.799987793</ele>
        <time>2016-07-15T09:37:56.000Z</time>
      </trkpt>
      <trkpt lat="44.52933" lon="6.14859">
        <ele>1021.5999755859</ele>
        <time>2016-07-15T09:38:02.000Z</time>
      </trkpt>
      <trkpt lat="44.52931" lon="6.1486">
        <ele>1020.5999755859</ele>
        <time>2016-07-15T09:38:05.000Z</time>
      </trkpt>
      <trkpt lat="44.52928" lon="6.1486">
        <ele>1020</ele>
        <time>2016-07-15T09:38:08.000Z</time>
      </trkpt>
      <trkpt lat="44.52921" lon="6.14854">
        <ele>1018.4000244141</ele>
        <time>2016-07-15T09:38:20.000Z</time>
      </trkpt>
      <trkpt lat="44.52917" lon="6.14847">
        <ele>1018</ele>
        <time>2016-07-15T09:38:27.000Z</time>
      </trkpt>
      <trkpt lat="44.52915" lon="6.14843">
        <ele>1018</ele>
        <time>2016-07-15T09:38:33.000Z</time>
      </trkpt>
      <trkpt lat="44.52915" lon="6.14836">
        <ele>1018.4000244141</ele>
        <time>2016-07-15T09:38:39.000Z</time>
      </trkpt>
      <trkpt lat="44.52914" lon="6.14835">
        <ele>1018.4000244141</ele>
        <time>2016-07-15T09:38:40.000Z</time>
      </trkpt>
      <trkpt lat="44.52912" lon="6.14832">
        <ele>1018.4000244141</ele>
        <time>2016-07-15T09:38:43.000Z</time>
      </trkpt>
      <trkpt lat="44.52912" lon="6.14828">
        <ele>1018.5999755859</ele>
        <time>2016-07-15T09:38:46.000Z</time>
      </trkpt>
      <trkpt lat="44.52909" lon="6.14824">
        <ele>1018.200012207</ele>
        <time>2016-07-15T09:38:50.000Z</time>
      </trkpt>
      <trkpt lat="44.52904" lon="6.14817">
        <ele>1017.4000244141</ele>
        <time>2016-07-15T09:38:58.000Z</time>
      </trkpt>
      <trkpt lat="44.52903" lon="6.14816">
        <ele>1017.200012207</ele>
        <time>2016-07-15T09:38:59.000Z</time>
      </trkpt>
      <trkpt lat="44.52903" lon="6.14812">
        <ele>1017.5999755859</ele>
        <time>2016-07-15T09:39:02.000Z</time>
      </trkpt>
      <trkpt lat="44.52899" lon="6.14803">
        <ele>1019.4000244141</ele>
        <time>2016-07-15T09:39:10.000Z</time>
      </trkpt>
      <trkpt lat="44.52897" lon="6.14795">
        <ele>1021.5999755859</ele>
        <time>2016-07-15T09:39:17.000Z</time>
      </trkpt>
      <trkpt lat="44.52896" lon="6.14787">
        <ele>1024</ele>
        <time>2016-07-15T09:39:22.000Z</time>
      </trkpt>
      <trkpt lat="44.52892" lon="6.14781">
        <ele>1025</ele>
        <time>2016-07-15T09:39:27.000Z</time>
      </trkpt>
      <trkpt lat="44.5289" lon="6.14778">
        <ele>1025.1999511719</ele>
        <time>2016-07-15T09:39:29.000Z</time>
      </trkpt>
      <trkpt lat="44.52889" lon="6.14772">
        <ele>1026.8000488281</ele>
        <time>2016-07-15T09:39:36.000Z</time>
      </trkpt>
      <trkpt lat="44.52888" lon="6.14774">
        <ele>1025.8000488281</ele>
        <time>2016-07-15T09:39:45.000Z</time>
      </trkpt>
      <trkpt lat="44.52885" lon="6.14777">
        <ele>1024.1999511719</ele>
        <time>2016-07-15T09:40:12.000Z</time>
      </trkpt>
      <trkpt lat="44.52889" lon="6.14778">
        <ele>1025</ele>
        <time>2016-07-15T09:40:46.000Z</time>
      </trkpt>
      <trkpt lat="44.52884" lon="6.14777">
        <ele>1024</ele>
        <time>2016-07-15T09:40:50.000Z</time>
      </trkpt>
      <trkpt lat="44.52879" lon="6.14778">
        <ele>1021.799987793</ele>
        <time>2016-07-15T09:40:56.000Z</time>
      </trkpt>
      <trkpt lat="44.52872" lon="6.14781">
        <ele>1018.5999755859</ele>
        <time>2016-07-15T09:41:01.000Z</time>
      </trkpt>
      <trkpt lat="44.5287" lon="6.14783">
        <ele>1017.4000244141</ele>
        <time>2016-07-15T09:41:06.000Z</time>
      </trkpt>
      <trkpt lat="44.52865" lon="6.14785">
        <ele>1015.5999755859</ele>
        <time>2016-07-15T09:41:12.000Z</time>
      </trkpt>
      <trkpt lat="44.52862" lon="6.14786">
        <ele>1014.5999755859</ele>
        <time>2016-07-15T09:41:16.000Z</time>
      </trkpt>
      <trkpt lat="44.5286" lon="6.14786">
        <ele>1014.200012207</ele>
        <time>2016-07-15T09:41:20.000Z</time>
      </trkpt>
      <trkpt lat="44.52858" lon="6.14784">
        <ele>1014.200012207</ele>
        <time>2016-07-15T09:41:25.000Z</time>
      </trkpt>
      <trkpt lat="44.52857" lon="6.14783">
        <ele>1014.200012207</ele>
        <time>2016-07-15T09:41:29.000Z</time>
      </trkpt>
      <trkpt lat="44.52857" lon="6.14782">
        <ele>1014.799987793</ele>
        <time>2016-07-15T09:41:33.000Z</time>
      </trkpt>
      <trkpt lat="44.52858" lon="6.14779">
        <ele>1016</ele>
        <time>2016-07-15T09:41:37.000Z</time>
      </trkpt>
      <trkpt lat="44.5286" lon="6.14776">
        <ele>1017.4000244141</ele>
        <time>2016-07-15T09:41:41.000Z</time>
      </trkpt>
      <trkpt lat="44.52859" lon="6.1478">
        <ele>1015.5999755859</ele>
        <time>2016-07-15T09:41:48.000Z</time>
      </trkpt>
      <trkpt lat="44.52859" lon="6.14782">
        <ele>1015.200012207</ele>
        <time>2016-07-15T09:41:59.000Z</time>
      </trkpt>
      <trkpt lat="44.52859" lon="6.14783">
        <ele>1014.799987793</ele>
        <time>2016-07-15T09:42:08.000Z</time>
      </trkpt>
      <trkpt lat="44.5286" lon="6.14781">
        <ele>1015.5999755859</ele>
        <time>2016-07-15T09:42:17.000Z</time>
      </trkpt>
      <trkpt lat="44.52859" lon="6.14783">
        <ele>1015</ele>
        <time>2016-07-15T09:42:22.000Z</time>
      </trkpt>
      <trkpt lat="44.52856" lon="6.14786">
        <ele>1013</ele>
        <time>2016-07-15T09:42:26.000Z</time>
      </trkpt>
      <trkpt lat="44.52853" lon="6.14795">
        <ele>1009.4000244141</ele>
        <time>2016-07-15T09:42:32.000Z</time>
      </trkpt>
      <trkpt lat="44.5285" lon="6.14801">
        <ele>1007.200012207</ele>
        <time>2016-07-15T09:42:36.000Z</time>
      </trkpt>
      <trkpt lat="44.52848" lon="6.14804">
        <ele>1006.200012207</ele>
        <time>2016-07-15T09:42:47.000Z</time>
      </trkpt>
      <trkpt lat="44.52846" lon="6.14805">
        <ele>1005.799987793</ele>
        <time>2016-07-15T09:42:48.000Z</time>
      </trkpt>
      <trkpt lat="44.5284" lon="6.14812">
        <ele>1003.200012207</ele>
        <time>2016-07-15T09:42:55.000Z</time>
      </trkpt>
      <trkpt lat="44.52839" lon="6.14813">
        <ele>1002.799987793</ele>
        <time>2016-07-15T09:43:01.000Z</time>
      </trkpt>
      <trkpt lat="44.52836" lon="6.14817">
        <ele>1001.5999755859</ele>
        <time>2016-07-15T09:43:07.000Z</time>
      </trkpt>
      <trkpt lat="44.52829" lon="6.14828">
        <ele>998.40002441406</ele>
        <time>2016-07-15T09:43:14.000Z</time>
      </trkpt>
      <trkpt lat="44.5282" lon="6.14831">
        <ele>996.40002441406</ele>
        <time>2016-07-15T09:43:24.000Z</time>
      </trkpt>
      <trkpt lat="44.52814" lon="6.14835">
        <ele>994.79998779297</ele>
        <time>2016-07-15T09:43:31.000Z</time>
      </trkpt>
      <trkpt lat="44.52814" lon="6.14836">
        <ele>994.59997558594</ele>
        <time>2016-07-15T09:43:32.000Z</time>
      </trkpt>
      <trkpt lat="44.52812" lon="6.14843">
        <ele>992.40002441406</ele>
        <time>2016-07-15T09:43:40.000Z</time>
      </trkpt>
      <trkpt lat="44.52813" lon="6.14847">
        <ele>991.40002441406</ele>
        <time>2016-07-15T09:43:46.000Z</time>
      </trkpt>
      <trkpt lat="44.52808" lon="6.14854">
        <ele>988.59997558594</ele>
        <time>2016-07-15T09:43:53.000Z</time>
      </trkpt>
      <trkpt lat="44.52807" lon="6.14854">
        <ele>988.20001220703</ele>
        <time>2016-07-15T09:43:55.000Z</time>
      </trkpt>
      <trkpt lat="44.52802" lon="6.14855">
        <ele>986.79998779297</ele>
        <time>2016-07-15T09:44:00.000Z</time>
      </trkpt>
      <trkpt lat="44.52799" lon="6.14857">
        <ele>985.59997558594</ele>
        <time>2016-07-15T09:44:03.000Z</time>
      </trkpt>
      <trkpt lat="44.5279" lon="6.14862">
        <ele>982.40002441406</ele>
        <time>2016-07-15T09:44:10.000Z</time>
      </trkpt>
      <trkpt lat="44.52778" lon="6.14864">
        <ele>979.20001220703</ele>
        <time>2016-07-15T09:44:19.000Z</time>
      </trkpt>
      <trkpt lat="44.5277" lon="6.14859">
        <ele>978.40002441406</ele>
        <time>2016-07-15T09:44:26.000Z</time>
      </trkpt>
      <trkpt lat="44.52765" lon="6.14847">
        <ele>980.59997558594</ele>
        <time>2016-07-15T09:44:33.000Z</time>
      </trkpt>
      <trkpt lat="44.52759" lon="6.14833">
        <ele>982.59997558594</ele>
        <time>2016-07-15T09:44:43.000Z</time>
      </trkpt>
      <trkpt lat="44.52752" lon="6.14834">
        <ele>980.59997558594</ele>
        <time>2016-07-15T09:44:49.000Z</time>
      </trkpt>
      <trkpt lat="44.52744" lon="6.14838">
        <ele>977</ele>
        <time>2016-07-15T09:44:56.000Z</time>
      </trkpt>
      <trkpt lat="44.5274" lon="6.14842">
        <ele>975</ele>
        <time>2016-07-15T09:45:00.000Z</time>
      </trkpt>
      <trkpt lat="44.52735" lon="6.14848">
        <ele>972.40002441406</ele>
        <time>2016-07-15T09:45:06.000Z</time>
      </trkpt>
      <trkpt lat="44.52734" lon="6.1485">
        <ele>972.20001220703</ele>
        <time>2016-07-15T09:45:07.000Z</time>
      </trkpt>
      <trkpt lat="44.52727" lon="6.14859">
        <ele>971.20001220703</ele>
        <time>2016-07-15T09:45:14.000Z</time>
      </trkpt>
      <trkpt lat="44.52725" lon="6.1486">
        <ele>971</ele>
        <time>2016-07-15T09:45:16.000Z</time>
      </trkpt>
      <trkpt lat="44.52716" lon="6.14866">
        <ele>970</ele>
        <time>2016-07-15T09:45:24.000Z</time>
      </trkpt>
      <trkpt lat="44.52712" lon="6.14872">
        <ele>969.20001220703</ele>
        <time>2016-07-15T09:45:30.000Z</time>
      </trkpt>
      <trkpt lat="44.52711" lon="6.14873">
        <ele>969.20001220703</ele>
        <time>2016-07-15T09:45:31.000Z</time>
      </trkpt>
      <trkpt lat="44.5271" lon="6.14881">
        <ele>968.59997558594</ele>
        <time>2016-07-15T09:45:37.000Z</time>
      </trkpt>
      <trkpt lat="44.52708" lon="6.14889">
        <ele>967.79998779297</ele>
        <time>2016-07-15T09:45:44.000Z</time>
      </trkpt>
      <trkpt lat="44.52705" lon="6.14893">
        <ele>967.40002441406</ele>
        <time>2016-07-15T09:45:48.000Z</time>
      </trkpt>
      <trkpt lat="44.52697" lon="6.14895">
        <ele>966.40002441406</ele>
        <time>2016-07-15T09:45:56.000Z</time>
      </trkpt>
      <trkpt lat="44.5269" lon="6.14895">
        <ele>965.59997558594</ele>
        <time>2016-07-15T09:46:02.000Z</time>
      </trkpt>
      <trkpt lat="44.52683" lon="6.14896">
        <ele>964.40002441406</ele>
        <time>2016-07-15T09:46:08.000Z</time>
      </trkpt>
      <trkpt lat="44.52674" lon="6.14899">
        <ele>962.79998779297</ele>
        <time>2016-07-15T09:46:15.000Z</time>
      </trkpt>
      <trkpt lat="44.52668" lon="6.149">
        <ele>961.79998779297</ele>
        <time>2016-07-15T09:46:20.000Z</time>
      </trkpt>
      <trkpt lat="44.52658" lon="6.14903">
        <ele>960</ele>
        <time>2016-07-15T09:46:29.000Z</time>
      </trkpt>
      <trkpt lat="44.52652" lon="6.14906">
        <ele>958.40002441406</ele>
        <time>2016-07-15T09:46:36.000Z</time>
      </trkpt>
      <trkpt lat="44.52646" lon="6.14909">
        <ele>957.20001220703</ele>
        <time>2016-07-15T09:46:42.000Z</time>
      </trkpt>
      <trkpt lat="44.52643" lon="6.14912">
        <ele>956.20001220703</ele>
        <time>2016-07-15T09:46:46.000Z</time>
      </trkpt>
      <trkpt lat="44.52642" lon="6.14914">
        <ele>955.59997558594</ele>
        <time>2016-07-15T09:46:48.000Z</time>
      </trkpt>
      <trkpt lat="44.52639" lon="6.14916">
        <ele>954.59997558594</ele>
        <time>2016-07-15T09:46:50.000Z</time>
      </trkpt>
      <trkpt lat="44.52629" lon="6.14927">
        <ele>954.40002441406</ele>
        <time>2016-07-15T09:47:02.000Z</time>
      </trkpt>
      <trkpt lat="44.52621" lon="6.14933">
        <ele>954.40002441406</ele>
        <time>2016-07-15T09:47:09.000Z</time>
      </trkpt>
      <trkpt lat="44.52615" lon="6.14938">
        <ele>953.59997558594</ele>
        <time>2016-07-15T09:47:15.000Z</time>
      </trkpt>
      <trkpt lat="44.52605" lon="6.14947">
        <ele>950.59997558594</ele>
        <time>2016-07-15T09:47:24.000Z</time>
      </trkpt>
      <trkpt lat="44.52594" lon="6.14957">
        <ele>947.20001220703</ele>
        <time>2016-07-15T09:47:35.000Z</time>
      </trkpt>
      <trkpt lat="44.52588" lon="6.14965">
        <ele>947.59997558594</ele>
        <time>2016-07-15T09:47:42.000Z</time>
      </trkpt>
      <trkpt lat="44.52583" lon="6.14971">
        <ele>948</ele>
        <time>2016-07-15T09:47:49.000Z</time>
      </trkpt>
      <trkpt lat="44.52583" lon="6.14972">
        <ele>948</ele>
        <time>2016-07-15T09:47:50.000Z</time>
      </trkpt>
      <trkpt lat="44.52582" lon="6.14975">
        <ele>948.20001220703</ele>
        <time>2016-07-15T09:47:52.000Z</time>
      </trkpt>
      <trkpt lat="44.52578" lon="6.14977">
        <ele>948.20001220703</ele>
        <time>2016-07-15T09:47:57.000Z</time>
      </trkpt>
      <trkpt lat="44.52574" lon="6.14982">
        <ele>947</ele>
        <time>2016-07-15T09:48:02.000Z</time>
      </trkpt>
      <trkpt lat="44.52573" lon="6.14983">
        <ele>946.40002441406</ele>
        <time>2016-07-15T09:48:04.000Z</time>
      </trkpt>
      <trkpt lat="44.52569" lon="6.14987">
        <ele>945.20001220703</ele>
        <time>2016-07-15T09:48:10.000Z</time>
      </trkpt>
      <trkpt lat="44.52568" lon="6.14987">
        <ele>945.20001220703</ele>
        <time>2016-07-15T09:48:11.000Z</time>
      </trkpt>
      <trkpt lat="44.52567" lon="6.14987">
        <ele>945</ele>
        <time>2016-07-15T09:48:12.000Z</time>
      </trkpt>
      <trkpt lat="44.52558" lon="6.14992">
        <ele>943</ele>
        <time>2016-07-15T09:48:23.000Z</time>
      </trkpt>
      <trkpt lat="44.52553" lon="6.14993">
        <ele>942.20001220703</ele>
        <time>2016-07-15T09:48:29.000Z</time>
      </trkpt>
      <trkpt lat="44.5255" lon="6.14993">
        <ele>941.79998779297</ele>
        <time>2016-07-15T09:48:31.000Z</time>
      </trkpt>
      <trkpt lat="44.52543" lon="6.14991">
        <ele>942.20001220703</ele>
        <time>2016-07-15T09:48:39.000Z</time>
      </trkpt>
      <trkpt lat="44.52538" lon="6.1499">
        <ele>942.40002441406</ele>
        <time>2016-07-15T09:49:01.000Z</time>
      </trkpt>
      <trkpt lat="44.52533" lon="6.14988">
        <ele>942.20001220703</ele>
        <time>2016-07-15T09:49:07.000Z</time>
      </trkpt>
      <trkpt lat="44.52527" lon="6.14986">
        <ele>941.20001220703</ele>
        <time>2016-07-15T09:49:11.000Z</time>
      </trkpt>
      <trkpt lat="44.52522" lon="6.14985">
        <ele>940.20001220703</ele>
        <time>2016-07-15T09:49:15.000Z</time>
      </trkpt>
      <trkpt lat="44.52513" lon="6.14986">
        <ele>938</ele>
        <time>2016-07-15T09:49:23.000Z</time>
      </trkpt>
      <trkpt lat="44.52509" lon="6.14989">
        <ele>936.40002441406</ele>
        <time>2016-07-15T09:49:28.000Z</time>
      </trkpt>
      <trkpt lat="44.52507" lon="6.14989">
        <ele>936</ele>
        <time>2016-07-15T09:49:29.000Z</time>
      </trkpt>
      <trkpt lat="44.52504" lon="6.1499">
        <ele>935.20001220703</ele>
        <time>2016-07-15T09:49:32.000Z</time>
      </trkpt>
      <trkpt lat="44.52497" lon="6.14993">
        <ele>933</ele>
        <time>2016-07-15T09:49:39.000Z</time>
      </trkpt>
      <trkpt lat="44.52487" lon="6.14991">
        <ele>930.79998779297</ele>
        <time>2016-07-15T09:49:48.000Z</time>
      </trkpt>
      <trkpt lat="44.52477" lon="6.14989">
        <ele>928.79998779297</ele>
        <time>2016-07-15T09:49:57.000Z</time>
      </trkpt>
      <trkpt lat="44.52469" lon="6.14987">
        <ele>927.20001220703</ele>
        <time>2016-07-15T09:50:05.000Z</time>
      </trkpt>
      <trkpt lat="44.52462" lon="6.14985">
        <ele>925.59997558594</ele>
        <time>2016-07-15T09:50:13.000Z</time>
      </trkpt>
      <trkpt lat="44.52456" lon="6.14983">
        <ele>924.40002441406</ele>
        <time>2016-07-15T09:50:20.000Z</time>
      </trkpt>
      <trkpt lat="44.52448" lon="6.14984">
        <ele>922.79998779297</ele>
        <time>2016-07-15T09:50:28.000Z</time>
      </trkpt>
      <trkpt lat="44.52443" lon="6.14981">
        <ele>921.79998779297</ele>
        <time>2016-07-15T09:50:34.000Z</time>
      </trkpt>
      <trkpt lat="44.52436" lon="6.14979">
        <ele>920.59997558594</ele>
        <time>2016-07-15T09:50:41.000Z</time>
      </trkpt>
      <trkpt lat="44.52432" lon="6.14978">
        <ele>919.79998779297</ele>
        <time>2016-07-15T09:50:45.000Z</time>
      </trkpt>
      <trkpt lat="44.52427" lon="6.14974">
        <ele>918.79998779297</ele>
        <time>2016-07-15T09:50:52.000Z</time>
      </trkpt>
      <trkpt lat="44.52425" lon="6.14973">
        <ele>918.20001220703</ele>
        <time>2016-07-15T09:50:53.000Z</time>
      </trkpt>
      <trkpt lat="44.52416" lon="6.14969">
        <ele>916.40002441406</ele>
        <time>2016-07-15T09:51:01.000Z</time>
      </trkpt>
      <trkpt lat="44.52415" lon="6.14967">
        <ele>916</ele>
        <time>2016-07-15T09:51:03.000Z</time>
      </trkpt>
      <trkpt lat="44.52412" lon="6.14962">
        <ele>915.59997558594</ele>
        <time>2016-07-15T09:51:07.000Z</time>
      </trkpt>
      <trkpt lat="44.52411" lon="6.1496">
        <ele>915.20001220703</ele>
        <time>2016-07-15T09:51:09.000Z</time>
      </trkpt>
      <trkpt lat="44.52405" lon="6.14959">
        <ele>914</ele>
        <time>2016-07-15T09:51:16.000Z</time>
      </trkpt>
      <trkpt lat="44.52404" lon="6.1496">
        <ele>913.79998779297</ele>
        <time>2016-07-15T09:51:17.000Z</time>
      </trkpt>
      <trkpt lat="44.52403" lon="6.14965">
        <ele>913.40002441406</ele>
        <time>2016-07-15T09:51:20.000Z</time>
      </trkpt>
      <trkpt lat="44.52401" lon="6.14975">
        <ele>912.79998779297</ele>
        <time>2016-07-15T09:51:29.000Z</time>
      </trkpt>
      <trkpt lat="44.52399" lon="6.14978">
        <ele>912.20001220703</ele>
        <time>2016-07-15T09:51:32.000Z</time>
      </trkpt>
      <trkpt lat="44.52397" lon="6.1498">
        <ele>911.59997558594</ele>
        <time>2016-07-15T09:51:34.000Z</time>
      </trkpt>
      <trkpt lat="44.52393" lon="6.14976">
        <ele>911</ele>
        <time>2016-07-15T09:51:38.000Z</time>
      </trkpt>
      <trkpt lat="44.52392" lon="6.14974">
        <ele>910.59997558594</ele>
        <time>2016-07-15T09:51:41.000Z</time>
      </trkpt>
      <trkpt lat="44.52389" lon="6.1497">
        <ele>910.20001220703</ele>
        <time>2016-07-15T09:51:45.000Z</time>
      </trkpt>
      <trkpt lat="44.52387" lon="6.14965">
        <ele>909.79998779297</ele>
        <time>2016-07-15T09:51:49.000Z</time>
      </trkpt>
      <trkpt lat="44.52385" lon="6.14954">
        <ele>909.40002441406</ele>
        <time>2016-07-15T09:51:58.000Z</time>
      </trkpt>
      <trkpt lat="44.52385" lon="6.14949">
        <ele>909.40002441406</ele>
        <time>2016-07-15T09:52:02.000Z</time>
      </trkpt>
      <trkpt lat="44.52386" lon="6.14938">
        <ele>909.79998779297</ele>
        <time>2016-07-15T09:52:10.000Z</time>
      </trkpt>
      <trkpt lat="44.5239" lon="6.14928">
        <ele>910.79998779297</ele>
        <time>2016-07-15T09:52:19.000Z</time>
      </trkpt>
      <trkpt lat="44.52389" lon="6.14927">
        <ele>910.59997558594</ele>
        <time>2016-07-15T09:52:20.000Z</time>
      </trkpt>
      <trkpt lat="44.52388" lon="6.14923">
        <ele>910.40002441406</ele>
        <time>2016-07-15T09:52:23.000Z</time>
      </trkpt>
      <trkpt lat="44.52385" lon="6.14923">
        <ele>909.59997558594</ele>
        <time>2016-07-15T09:52:26.000Z</time>
      </trkpt>
      <trkpt lat="44.52383" lon="6.14923">
        <ele>909.20001220703</ele>
        <time>2016-07-15T09:52:28.000Z</time>
      </trkpt>
      <trkpt lat="44.52373" lon="6.14923">
        <ele>907</ele>
        <time>2016-07-15T09:52:38.000Z</time>
      </trkpt>
      <trkpt lat="44.52366" lon="6.14927">
        <ele>906</ele>
        <time>2016-07-15T09:52:45.000Z</time>
      </trkpt>
      <trkpt lat="44.52363" lon="6.14932">
        <ele>906.79998779297</ele>
        <time>2016-07-15T09:52:51.000Z</time>
      </trkpt>
      <trkpt lat="44.52361" lon="6.14936">
        <ele>907.40002441406</ele>
        <time>2016-07-15T09:52:53.000Z</time>
      </trkpt>
      <trkpt lat="44.52363" lon="6.14949">
        <ele>906.59997558594</ele>
        <time>2016-07-15T09:53:02.000Z</time>
      </trkpt>
      <trkpt lat="44.52364" lon="6.14954">
        <ele>906.40002441406</ele>
        <time>2016-07-15T09:53:06.000Z</time>
      </trkpt>
      <trkpt lat="44.5236" lon="6.14951">
        <ele>907.59997558594</ele>
        <time>2016-07-15T09:53:10.000Z</time>
      </trkpt>
      <trkpt lat="44.5235" lon="6.14939">
        <ele>910.79998779297</ele>
        <time>2016-07-15T09:53:20.000Z</time>
      </trkpt>
      <trkpt lat="44.52347" lon="6.14931">
        <ele>912.20001220703</ele>
        <time>2016-07-15T09:53:27.000Z</time>
      </trkpt>
      <trkpt lat="44.52342" lon="6.14921">
        <ele>913.59997558594</ele>
        <time>2016-07-15T09:53:33.000Z</time>
      </trkpt>
      <trkpt lat="44.52337" lon="6.14912">
        <ele>915.59997558594</ele>
        <time>2016-07-15T09:53:40.000Z</time>
      </trkpt>
      <trkpt lat="44.5233" lon="6.14901">
        <ele>917.79998779297</ele>
        <time>2016-07-15T09:53:47.000Z</time>
      </trkpt>
      <trkpt lat="44.5233" lon="6.149">
        <ele>918</ele>
        <time>2016-07-15T09:53:48.000Z</time>
      </trkpt>
      <trkpt lat="44.52331" lon="6.14896">
        <ele>917.59997558594</ele>
        <time>2016-07-15T09:53:55.000Z</time>
      </trkpt>
      <trkpt lat="44.52328" lon="6.14899">
        <ele>918.79998779297</ele>
        <time>2016-07-15T09:54:00.000Z</time>
      </trkpt>
      <trkpt lat="44.52328" lon="6.149">
        <ele>918.79998779297</ele>
        <time>2016-07-15T09:54:05.000Z</time>
      </trkpt>
      <trkpt lat="44.52325" lon="6.14901">
        <ele>919.40002441406</ele>
        <time>2016-07-15T09:54:21.000Z</time>
      </trkpt>
      <trkpt lat="44.52318" lon="6.14903">
        <ele>921.79998779297</ele>
        <time>2016-07-15T09:54:27.000Z</time>
      </trkpt>
      <trkpt lat="44.5231" lon="6.14909">
        <ele>924.40002441406</ele>
        <time>2016-07-15T09:54:35.000Z</time>
      </trkpt>
      <trkpt lat="44.52307" lon="6.14913">
        <ele>925.20001220703</ele>
        <time>2016-07-15T09:54:38.000Z</time>
      </trkpt>
      <trkpt lat="44.52305" lon="6.14921">
        <ele>925.40002441406</ele>
        <time>2016-07-15T09:54:43.000Z</time>
      </trkpt>
      <trkpt lat="44.52306" lon="6.14933">
        <ele>924</ele>
        <time>2016-07-15T09:54:50.000Z</time>
      </trkpt>
      <trkpt lat="44.52305" lon="6.14938">
        <ele>923.59997558594</ele>
        <time>2016-07-15T09:54:54.000Z</time>
      </trkpt>
      <trkpt lat="44.52305" lon="6.14948">
        <ele>922.79998779297</ele>
        <time>2016-07-15T09:55:00.000Z</time>
      </trkpt>
      <trkpt lat="44.52304" lon="6.14954">
        <ele>922.40002441406</ele>
        <time>2016-07-15T09:55:04.000Z</time>
      </trkpt>
      <trkpt lat="44.52301" lon="6.14965">
        <ele>922</ele>
        <time>2016-07-15T09:55:12.000Z</time>
      </trkpt>
      <trkpt lat="44.52296" lon="6.14985">
        <ele>922</ele>
        <time>2016-07-15T09:55:27.000Z</time>
      </trkpt>
      <trkpt lat="44.52291" lon="6.14995">
        <ele>921.40002441406</ele>
        <time>2016-07-15T09:55:33.000Z</time>
      </trkpt>
      <trkpt lat="44.52285" lon="6.15002">
        <ele>920.40002441406</ele>
        <time>2016-07-15T09:55:40.000Z</time>
      </trkpt>
      <trkpt lat="44.5228" lon="6.1501">
        <ele>919.59997558594</ele>
        <time>2016-07-15T09:55:47.000Z</time>
      </trkpt>
      <trkpt lat="44.52277" lon="6.15015">
        <ele>919</ele>
        <time>2016-07-15T09:55:52.000Z</time>
      </trkpt>
      <trkpt lat="44.52271" lon="6.1502">
        <ele>918.40002441406</ele>
        <time>2016-07-15T09:55:58.000Z</time>
      </trkpt>
      <trkpt lat="44.52266" lon="6.15025">
        <ele>918.20001220703</ele>
        <time>2016-07-15T09:56:03.000Z</time>
      </trkpt>
      <trkpt lat="44.52262" lon="6.1503">
        <ele>917.59997558594</ele>
        <time>2016-07-15T09:56:06.000Z</time>
      </trkpt>
      <trkpt lat="44.52256" lon="6.15037">
        <ele>916.79998779297</ele>
        <time>2016-07-15T09:56:11.000Z</time>
      </trkpt>
      <trkpt lat="44.52247" lon="6.15054">
        <ele>914</ele>
        <time>2016-07-15T09:56:20.000Z</time>
      </trkpt>
      <trkpt lat="44.52242" lon="6.15068">
        <ele>912.20001220703</ele>
        <time>2016-07-15T09:56:27.000Z</time>
      </trkpt>
      <trkpt lat="44.52236" lon="6.15079">
        <ele>911.20001220703</ele>
        <time>2016-07-15T09:56:33.000Z</time>
      </trkpt>
      <trkpt lat="44.52225" lon="6.15091">
        <ele>910.79998779297</ele>
        <time>2016-07-15T09:56:42.000Z</time>
      </trkpt>
      <trkpt lat="44.52217" lon="6.15096">
        <ele>911.20001220703</ele>
        <time>2016-07-15T09:56:49.000Z</time>
      </trkpt>
      <trkpt lat="44.52208" lon="6.151">
        <ele>911.79998779297</ele>
        <time>2016-07-15T09:56:56.000Z</time>
      </trkpt>
      <trkpt lat="44.52199" lon="6.15104">
        <ele>912.40002441406</ele>
        <time>2016-07-15T09:57:02.000Z</time>
      </trkpt>
      <trkpt lat="44.52186" lon="6.15109">
        <ele>912.40002441406</ele>
        <time>2016-07-15T09:57:09.000Z</time>
      </trkpt>
      <trkpt lat="44.52173" lon="6.15115">
        <ele>912.40002441406</ele>
        <time>2016-07-15T09:57:18.000Z</time>
      </trkpt>
      <trkpt lat="44.5216" lon="6.15123">
        <ele>911.59997558594</ele>
        <time>2016-07-15T09:57:27.000Z</time>
      </trkpt>
      <trkpt lat="44.52147" lon="6.15132">
        <ele>910.40002441406</ele>
        <time>2016-07-15T09:57:37.000Z</time>
      </trkpt>
      <trkpt lat="44.52136" lon="6.15139">
        <ele>909.59997558594</ele>
        <time>2016-07-15T09:57:46.000Z</time>
      </trkpt>
      <trkpt lat="44.52124" lon="6.15145">
        <ele>908.79998779297</ele>
        <time>2016-07-15T09:57:55.000Z</time>
      </trkpt>
      <trkpt lat="44.52113" lon="6.15147">
        <ele>908.79998779297</ele>
        <time>2016-07-15T09:58:02.000Z</time>
      </trkpt>
      <trkpt lat="44.52101" lon="6.15148">
        <ele>908.59997558594</ele>
        <time>2016-07-15T09:58:10.000Z</time>
      </trkpt>
      <trkpt lat="44.52092" lon="6.15148">
        <ele>908.40002441406</ele>
        <time>2016-07-15T09:58:17.000Z</time>
      </trkpt>
      <trkpt lat="44.52083" lon="6.15148">
        <ele>908.40002441406</ele>
        <time>2016-07-15T09:58:24.000Z</time>
      </trkpt>
      <trkpt lat="44.52072" lon="6.15146">
        <ele>908.40002441406</ele>
        <time>2016-07-15T09:58:32.000Z</time>
      </trkpt>
      <trkpt lat="44.52055" lon="6.15143">
        <ele>908.40002441406</ele>
        <time>2016-07-15T09:58:44.000Z</time>
      </trkpt>
      <trkpt lat="44.52041" lon="6.15142">
        <ele>908.40002441406</ele>
        <time>2016-07-15T09:58:53.000Z</time>
      </trkpt>
      <trkpt lat="44.52031" lon="6.15139">
        <ele>908</ele>
        <time>2016-07-15T09:59:02.000Z</time>
      </trkpt>
      <trkpt lat="44.52021" lon="6.15136">
        <ele>907.20001220703</ele>
        <time>2016-07-15T09:59:10.000Z</time>
      </trkpt>
      <trkpt lat="44.52008" lon="6.15132">
        <ele>906.20001220703</ele>
        <time>2016-07-15T09:59:20.000Z</time>
      </trkpt>
      <trkpt lat="44.51997" lon="6.1513">
        <ele>905.20001220703</ele>
        <time>2016-07-15T09:59:28.000Z</time>
      </trkpt>
      <trkpt lat="44.51987" lon="6.15135">
        <ele>904</ele>
        <time>2016-07-15T09:59:36.000Z</time>
      </trkpt>
      <trkpt lat="44.51985" lon="6.15135">
        <ele>903.79998779297</ele>
        <time>2016-07-15T09:59:38.000Z</time>
      </trkpt>
      <trkpt lat="44.51989" lon="6.15132">
        <ele>904.20001220703</ele>
        <time>2016-07-15T09:59:44.000Z</time>
      </trkpt>
      <trkpt lat="44.5199" lon="6.15133">
        <ele>904.40002441406</ele>
        <time>2016-07-15T09:59:45.000Z</time>
      </trkpt>
      <trkpt lat="44.52001" lon="6.15134">
        <ele>905.40002441406</ele>
        <time>2016-07-15T09:59:53.000Z</time>
      </trkpt>
      <trkpt lat="44.52011" lon="6.15135">
        <ele>906.20001220703</ele>
        <time>2016-07-15T10:00:01.000Z</time>
      </trkpt>
      <trkpt lat="44.52021" lon="6.15138">
        <ele>907</ele>
        <time>2016-07-15T10:00:08.000Z</time>
      </trkpt>
      <trkpt lat="44.52028" lon="6.1514">
        <ele>907.59997558594</ele>
        <time>2016-07-15T10:00:15.000Z</time>
      </trkpt>
      <trkpt lat="44.5203" lon="6.15142">
        <ele>907.79998779297</ele>
        <time>2016-07-15T10:00:46.000Z</time>
      </trkpt>
      <trkpt lat="44.52032" lon="6.1515">
        <ele>907.20001220703</ele>
        <time>2016-07-15T10:00:53.000Z</time>
      </trkpt>
      <trkpt lat="44.52031" lon="6.15151">
        <ele>907</ele>
        <time>2016-07-15T10:00:55.000Z</time>
      </trkpt>
      <trkpt lat="44.52031" lon="6.15147">
        <ele>907.40002441406</ele>
        <time>2016-07-15T10:00:59.000Z</time>
      </trkpt>
      <trkpt lat="44.5203" lon="6.15141">
        <ele>907.79998779297</ele>
        <time>2016-07-15T10:01:04.000Z</time>
      </trkpt>
      <trkpt lat="44.5202" lon="6.15136">
        <ele>907</ele>
        <time>2016-07-15T10:01:13.000Z</time>
      </trkpt>
      <trkpt lat="44.52009" lon="6.15133">
        <ele>906.20001220703</ele>
        <time>2016-07-15T10:01:21.000Z</time>
      </trkpt>
      <trkpt lat="44.51998" lon="6.15131">
        <ele>905.20001220703</ele>
        <time>2016-07-15T10:01:29.000Z</time>
      </trkpt>
      <trkpt lat="44.51983" lon="6.15134">
        <ele>903.59997558594</ele>
        <time>2016-07-15T10:01:39.000Z</time>
      </trkpt>
      <trkpt lat="44.51982" lon="6.15133">
        <ele>903.59997558594</ele>
        <time>2016-07-15T10:01:46.000Z</time>
      </trkpt>
      <trkpt lat="44.51964" lon="6.15135">
        <ele>901.79998779297</ele>
        <time>2016-07-15T10:02:23.000Z</time>
      </trkpt>
      <trkpt lat="44.51957" lon="6.15136">
        <ele>901</ele>
        <time>2016-07-15T10:02:30.000Z</time>
      </trkpt>
      <trkpt lat="44.51953" lon="6.15136">
        <ele>900.59997558594</ele>
        <time>2016-07-15T10:02:34.000Z</time>
      </trkpt>
      <trkpt lat="44.51947" lon="6.15136">
        <ele>900</ele>
        <time>2016-07-15T10:02:40.000Z</time>
      </trkpt>
      <trkpt lat="44.51937" lon="6.15138">
        <ele>898.79998779297</ele>
        <time>2016-07-15T10:02:48.000Z</time>
      </trkpt>
      <trkpt lat="44.51925" lon="6.1514">
        <ele>897</ele>
        <time>2016-07-15T10:02:57.000Z</time>
      </trkpt>
      <trkpt lat="44.51914" lon="6.15139">
        <ele>895.59997558594</ele>
        <time>2016-07-15T10:03:05.000Z</time>
      </trkpt>
      <trkpt lat="44.51891" lon="6.15131">
        <ele>893.20001220703</ele>
        <time>2016-07-15T10:03:23.000Z</time>
      </trkpt>
      <trkpt lat="44.51881" lon="6.15129">
        <ele>892</ele>
        <time>2016-07-15T10:03:31.000Z</time>
      </trkpt>
      <trkpt lat="44.51863" lon="6.15125">
        <ele>890.20001220703</ele>
        <time>2016-07-15T10:03:43.000Z</time>
      </trkpt>
      <trkpt lat="44.51845" lon="6.15126">
        <ele>888.59997558594</ele>
        <time>2016-07-15T10:03:55.000Z</time>
      </trkpt>
      <trkpt lat="44.51837" lon="6.15125">
        <ele>888.40002441406</ele>
        <time>2016-07-15T10:04:04.000Z</time>
      </trkpt>
      <trkpt lat="44.51836" lon="6.15124">
        <ele>888.40002441406</ele>
        <time>2016-07-15T10:04:11.000Z</time>
      </trkpt>
      <trkpt lat="44.51834" lon="6.15119">
        <ele>888.40002441406</ele>
        <time>2016-07-15T10:04:17.000Z</time>
      </trkpt>
      <trkpt lat="44.51833" lon="6.1512">
        <ele>888.40002441406</ele>
        <time>2016-07-15T10:04:24.000Z</time>
      </trkpt>
      <trkpt lat="44.51835" lon="6.15122">
        <ele>888.40002441406</ele>
        <time>2016-07-15T10:04:29.000Z</time>
      </trkpt>
      <trkpt lat="44.51835" lon="6.15125">
        <ele>888.40002441406</ele>
        <time>2016-07-15T10:04:34.000Z</time>
      </trkpt>
      <trkpt lat="44.51834" lon="6.15122">
        <ele>888.40002441406</ele>
        <time>2016-07-15T10:04:46.000Z</time>
      </trkpt>
      <trkpt lat="44.51833" lon="6.15122">
        <ele>888.40002441406</ele>
        <time>2016-07-15T10:04:52.000Z</time>
      </trkpt>
      <trkpt lat="44.51829" lon="6.15116">
        <ele>888.40002441406</ele>
        <time>2016-07-15T10:05:00.000Z</time>
      </trkpt>
      <trkpt lat="44.51821" lon="6.151">
        <ele>888.40002441406</ele>
        <time>2016-07-15T10:05:10.000Z</time>
      </trkpt>
      <trkpt lat="44.51812" lon="6.15083">
        <ele>888.79998779297</ele>
        <time>2016-07-15T10:05:20.000Z</time>
      </trkpt>
      <trkpt lat="44.518" lon="6.15062">
        <ele>889.40002441406</ele>
        <time>2016-07-15T10:05:33.000Z</time>
      </trkpt>
      <trkpt lat="44.51791" lon="6.15046">
        <ele>889.59997558594</ele>
        <time>2016-07-15T10:05:43.000Z</time>
      </trkpt>
      <trkpt lat="44.51786" lon="6.15027">
        <ele>890.20001220703</ele>
        <time>2016-07-15T10:05:54.000Z</time>
      </trkpt>
      <trkpt lat="44.51786" lon="6.15024">
        <ele>890.40002441406</ele>
        <time>2016-07-15T10:05:56.000Z</time>
      </trkpt>
      <trkpt lat="44.51789" lon="6.15016">
        <ele>891.20001220703</ele>
        <time>2016-07-15T10:06:00.000Z</time>
      </trkpt>
      <trkpt lat="44.51798" lon="6.14996">
        <ele>893.20001220703</ele>
        <time>2016-07-15T10:06:12.000Z</time>
      </trkpt>
      <trkpt lat="44.51798" lon="6.14981">
        <ele>894.40002441406</ele>
        <time>2016-07-15T10:06:19.000Z</time>
      </trkpt>
      <trkpt lat="44.51798" lon="6.14977">
        <ele>894.79998779297</ele>
        <time>2016-07-15T10:06:21.000Z</time>
      </trkpt>
      <trkpt lat="44.51795" lon="6.1497">
        <ele>895.20001220703</ele>
        <time>2016-07-15T10:06:25.000Z</time>
      </trkpt>
      <trkpt lat="44.51785" lon="6.14952">
        <ele>896.40002441406</ele>
        <time>2016-07-15T10:06:36.000Z</time>
      </trkpt>
      <trkpt lat="44.51783" lon="6.14948">
        <ele>896.59997558594</ele>
        <time>2016-07-15T10:06:39.000Z</time>
      </trkpt>
      <trkpt lat="44.51772" lon="6.14947">
        <ele>896</ele>
        <time>2016-07-15T10:06:47.000Z</time>
      </trkpt>
      <trkpt lat="44.51766" lon="6.14949">
        <ele>895.40002441406</ele>
        <time>2016-07-15T10:06:53.000Z</time>
      </trkpt>
      <trkpt lat="44.51757" lon="6.14952">
        <ele>894.40002441406</ele>
        <time>2016-07-15T10:07:02.000Z</time>
      </trkpt>
      <trkpt lat="44.51749" lon="6.14951">
        <ele>893.59997558594</ele>
        <time>2016-07-15T10:07:08.000Z</time>
      </trkpt>
      <trkpt lat="44.51742" lon="6.14941">
        <ele>894.59997558594</ele>
        <time>2016-07-15T10:07:16.000Z</time>
      </trkpt>
      <trkpt lat="44.51742" lon="6.14924">
        <ele>897</ele>
        <time>2016-07-15T10:07:26.000Z</time>
      </trkpt>
      <trkpt lat="44.51742" lon="6.14923">
        <ele>897</ele>
        <time>2016-07-15T10:07:34.000Z</time>
      </trkpt>
      <trkpt lat="44.51744" lon="6.14917">
        <ele>897.79998779297</ele>
        <time>2016-07-15T10:07:46.000Z</time>
      </trkpt>
      <trkpt lat="44.5175" lon="6.14904">
        <ele>899.79998779297</ele>
        <time>2016-07-15T10:07:55.000Z</time>
      </trkpt>
      <trkpt lat="44.51755" lon="6.14886">
        <ele>903</ele>
        <time>2016-07-15T10:08:05.000Z</time>
      </trkpt>
      <trkpt lat="44.51757" lon="6.14871">
        <ele>906.40002441406</ele>
        <time>2016-07-15T10:08:14.000Z</time>
      </trkpt>
      <trkpt lat="44.51746" lon="6.14866">
        <ele>906.79998779297</ele>
        <time>2016-07-15T10:08:24.000Z</time>
      </trkpt>
      <trkpt lat="44.51732" lon="6.14876">
        <ele>903.79998779297</ele>
        <time>2016-07-15T10:08:35.000Z</time>
      </trkpt>
      <trkpt lat="44.51728" lon="6.14877">
        <ele>903.20001220703</ele>
        <time>2016-07-15T10:08:38.000Z</time>
      </trkpt>
      <trkpt lat="44.51718" lon="6.14876">
        <ele>903</ele>
        <time>2016-07-15T10:08:46.000Z</time>
      </trkpt>
      <trkpt lat="44.51707" lon="6.14881">
        <ele>901.20001220703</ele>
        <time>2016-07-15T10:08:55.000Z</time>
      </trkpt>
      <trkpt lat="44.51695" lon="6.14882">
        <ele>899.40002441406</ele>
        <time>2016-07-15T10:09:04.000Z</time>
      </trkpt>
      <trkpt lat="44.51673" lon="6.14878">
        <ele>896</ele>
        <time>2016-07-15T10:09:20.000Z</time>
      </trkpt>
      <trkpt lat="44.51668" lon="6.14876">
        <ele>895.59997558594</ele>
        <time>2016-07-15T10:09:26.000Z</time>
      </trkpt>
      <trkpt lat="44.51658" lon="6.14877">
        <ele>894</ele>
        <time>2016-07-15T10:09:34.000Z</time>
      </trkpt>
      <trkpt lat="44.51648" lon="6.14881">
        <ele>892.20001220703</ele>
        <time>2016-07-15T10:09:41.000Z</time>
      </trkpt>
      <trkpt lat="44.51647" lon="6.14881">
        <ele>891.79998779297</ele>
        <time>2016-07-15T10:09:42.000Z</time>
      </trkpt>
      <trkpt lat="44.51643" lon="6.14883">
        <ele>891.20001220703</ele>
        <time>2016-07-15T10:09:45.000Z</time>
      </trkpt>
      <trkpt lat="44.5163" lon="6.14885">
        <ele>889</ele>
        <time>2016-07-15T10:09:54.000Z</time>
      </trkpt>
      <trkpt lat="44.51616" lon="6.1488">
        <ele>887.79998779297</ele>
        <time>2016-07-15T10:10:03.000Z</time>
      </trkpt>
      <trkpt lat="44.5161" lon="6.14875">
        <ele>889</ele>
        <time>2016-07-15T10:10:08.000Z</time>
      </trkpt>
      <trkpt lat="44.51602" lon="6.14856">
        <ele>892.20001220703</ele>
        <time>2016-07-15T10:10:19.000Z</time>
      </trkpt>
      <trkpt lat="44.51602" lon="6.14841">
        <ele>894</ele>
        <time>2016-07-15T10:10:27.000Z</time>
      </trkpt>
      <trkpt lat="44.516" lon="6.14823">
        <ele>896.40002441406</ele>
        <time>2016-07-15T10:10:36.000Z</time>
      </trkpt>
      <trkpt lat="44.51597" lon="6.14797">
        <ele>900.40002441406</ele>
        <time>2016-07-15T10:10:49.000Z</time>
      </trkpt>
      <trkpt lat="44.51594" lon="6.1478">
        <ele>903.59997558594</ele>
        <time>2016-07-15T10:10:58.000Z</time>
      </trkpt>
      <trkpt lat="44.51593" lon="6.14765">
        <ele>906.59997558594</ele>
        <time>2016-07-15T10:11:06.000Z</time>
      </trkpt>
      <trkpt lat="44.51589" lon="6.1475">
        <ele>909.59997558594</ele>
        <time>2016-07-15T10:11:15.000Z</time>
      </trkpt>
      <trkpt lat="44.51588" lon="6.14749">
        <ele>909.79998779297</ele>
        <time>2016-07-15T10:11:16.000Z</time>
      </trkpt>
      <trkpt lat="44.51584" lon="6.1475">
        <ele>910.20001220703</ele>
        <time>2016-07-15T10:11:19.000Z</time>
      </trkpt>
      <trkpt lat="44.51583" lon="6.14752">
        <ele>909.79998779297</ele>
        <time>2016-07-15T10:11:21.000Z</time>
      </trkpt>
      <trkpt lat="44.51578" lon="6.14759">
        <ele>909</ele>
        <time>2016-07-15T10:11:27.000Z</time>
      </trkpt>
      <trkpt lat="44.51576" lon="6.14763">
        <ele>908.59997558594</ele>
        <time>2016-07-15T10:11:33.000Z</time>
      </trkpt>
      <trkpt lat="44.51574" lon="6.14768">
        <ele>907.79998779297</ele>
        <time>2016-07-15T10:11:40.000Z</time>
      </trkpt>
      <trkpt lat="44.5157" lon="6.14776">
        <ele>907</ele>
        <time>2016-07-15T10:11:46.000Z</time>
      </trkpt>
      <trkpt lat="44.51565" lon="6.14783">
        <ele>906.20001220703</ele>
        <time>2016-07-15T10:11:52.000Z</time>
      </trkpt>
      <trkpt lat="44.51564" lon="6.14784">
        <ele>906.20001220703</ele>
        <time>2016-07-15T10:11:53.000Z</time>
      </trkpt>
      <trkpt lat="44.51556" lon="6.14797">
        <ele>904.79998779297</ele>
        <time>2016-07-15T10:12:03.000Z</time>
      </trkpt>
      <trkpt lat="44.51555" lon="6.14798">
        <ele>904.79998779297</ele>
        <time>2016-07-15T10:12:04.000Z</time>
      </trkpt>
      <trkpt lat="44.51553" lon="6.14803">
        <ele>904.40002441406</ele>
        <time>2016-07-15T10:12:07.000Z</time>
      </trkpt>
      <trkpt lat="44.51546" lon="6.14815">
        <ele>903.20001220703</ele>
        <time>2016-07-15T10:12:15.000Z</time>
      </trkpt>
      <trkpt lat="44.51544" lon="6.14817">
        <ele>903</ele>
        <time>2016-07-15T10:12:16.000Z</time>
      </trkpt>
      <trkpt lat="44.51541" lon="6.14822">
        <ele>902.59997558594</ele>
        <time>2016-07-15T10:12:20.000Z</time>
      </trkpt>
      <trkpt lat="44.51537" lon="6.14828">
        <ele>901.79998779297</ele>
        <time>2016-07-15T10:12:24.000Z</time>
      </trkpt>
      <trkpt lat="44.51531" lon="6.14837">
        <ele>900.20001220703</ele>
        <time>2016-07-15T10:12:32.000Z</time>
      </trkpt>
      <trkpt lat="44.51526" lon="6.14846">
        <ele>898.40002441406</ele>
        <time>2016-07-15T10:12:38.000Z</time>
      </trkpt>
      <trkpt lat="44.51517" lon="6.14853">
        <ele>896.79998779297</ele>
        <time>2016-07-15T10:12:45.000Z</time>
      </trkpt>
      <trkpt lat="44.51513" lon="6.14854">
        <ele>896.40002441406</ele>
        <time>2016-07-15T10:12:50.000Z</time>
      </trkpt>
      <trkpt lat="44.5151" lon="6.14853">
        <ele>896.59997558594</ele>
        <time>2016-07-15T10:12:52.000Z</time>
      </trkpt>
      <trkpt lat="44.51507" lon="6.14846">
        <ele>897.79998779297</ele>
        <time>2016-07-15T10:12:58.000Z</time>
      </trkpt>
      <trkpt lat="44.51506" lon="6.14839">
        <ele>899</ele>
        <time>2016-07-15T10:13:03.000Z</time>
      </trkpt>
      <trkpt lat="44.51507" lon="6.14835">
        <ele>899.79998779297</ele>
        <time>2016-07-15T10:13:07.000Z</time>
      </trkpt>
      <trkpt lat="44.51507" lon="6.1483">
        <ele>900.59997558594</ele>
        <time>2016-07-15T10:13:11.000Z</time>
      </trkpt>
      <trkpt lat="44.51506" lon="6.14826">
        <ele>901.20001220703</ele>
        <time>2016-07-15T10:13:14.000Z</time>
      </trkpt>
      <trkpt lat="44.51508" lon="6.14816">
        <ele>903.20001220703</ele>
        <time>2016-07-15T10:13:22.000Z</time>
      </trkpt>
      <trkpt lat="44.51509" lon="6.14814">
        <ele>903.59997558594</ele>
        <time>2016-07-15T10:13:24.000Z</time>
      </trkpt>
      <trkpt lat="44.51508" lon="6.14806">
        <ele>904.59997558594</ele>
        <time>2016-07-15T10:13:30.000Z</time>
      </trkpt>
      <trkpt lat="44.51506" lon="6.14796">
        <ele>905.20001220703</ele>
        <time>2016-07-15T10:13:51.000Z</time>
      </trkpt>
      <trkpt lat="44.51506" lon="6.14788">
        <ele>906</ele>
        <time>2016-07-15T10:13:56.000Z</time>
      </trkpt>
      <trkpt lat="44.51506" lon="6.14786">
        <ele>906.20001220703</ele>
        <time>2016-07-15T10:13:58.000Z</time>
      </trkpt>
      <trkpt lat="44.51507" lon="6.1478">
        <ele>907</ele>
        <time>2016-07-15T10:14:02.000Z</time>
      </trkpt>
      <trkpt lat="44.51507" lon="6.14778">
        <ele>907.40002441406</ele>
        <time>2016-07-15T10:14:05.000Z</time>
      </trkpt>
      <trkpt lat="44.51509" lon="6.14774">
        <ele>908.20001220703</ele>
        <time>2016-07-15T10:14:09.000Z</time>
      </trkpt>
      <trkpt lat="44.51509" lon="6.14772">
        <ele>908.59997558594</ele>
        <time>2016-07-15T10:14:11.000Z</time>
      </trkpt>
      <trkpt lat="44.51512" lon="6.14766">
        <ele>910</ele>
        <time>2016-07-15T10:14:16.000Z</time>
      </trkpt>
      <trkpt lat="44.51513" lon="6.14761">
        <ele>911</ele>
        <time>2016-07-15T10:14:20.000Z</time>
      </trkpt>
      <trkpt lat="44.51514" lon="6.14757">
        <ele>911.59997558594</ele>
        <time>2016-07-15T10:14:22.000Z</time>
      </trkpt>
      <trkpt lat="44.51516" lon="6.14752">
        <ele>912.79998779297</ele>
        <time>2016-07-15T10:14:26.000Z</time>
      </trkpt>
      <trkpt lat="44.51518" lon="6.14747">
        <ele>913.79998779297</ele>
        <time>2016-07-15T10:14:30.000Z</time>
      </trkpt>
      <trkpt lat="44.51518" lon="6.14745">
        <ele>914.20001220703</ele>
        <time>2016-07-15T10:14:32.000Z</time>
      </trkpt>
      <trkpt lat="44.51526" lon="6.1473">
        <ele>917.59997558594</ele>
        <time>2016-07-15T10:14:40.000Z</time>
      </trkpt>
      <trkpt lat="44.5153" lon="6.14722">
        <ele>919.79998779297</ele>
        <time>2016-07-15T10:14:45.000Z</time>
      </trkpt>
      <trkpt lat="44.51531" lon="6.14718">
        <ele>920.40002441406</ele>
        <time>2016-07-15T10:14:47.000Z</time>
      </trkpt>
      <trkpt lat="44.51532" lon="6.14713">
        <ele>921.40002441406</ele>
        <time>2016-07-15T10:14:51.000Z</time>
      </trkpt>
      <trkpt lat="44.51531" lon="6.14709">
        <ele>922</ele>
        <time>2016-07-15T10:14:54.000Z</time>
      </trkpt>
      <trkpt lat="44.51532" lon="6.147">
        <ele>923.79998779297</ele>
        <time>2016-07-15T10:15:00.000Z</time>
      </trkpt>
      <trkpt lat="44.51532" lon="6.14698">
        <ele>924.20001220703</ele>
        <time>2016-07-15T10:15:02.000Z</time>
      </trkpt>
      <trkpt lat="44.51527" lon="6.14689">
        <ele>925.40002441406</ele>
        <time>2016-07-15T10:15:08.000Z</time>
      </trkpt>
      <trkpt lat="44.51525" lon="6.14686">
        <ele>925.59997558594</ele>
        <time>2016-07-15T10:15:10.000Z</time>
      </trkpt>
      <trkpt lat="44.51522" lon="6.14679">
        <ele>926.59997558594</ele>
        <time>2016-07-15T10:15:14.000Z</time>
      </trkpt>
      <trkpt lat="44.5152" lon="6.14674">
        <ele>927.20001220703</ele>
        <time>2016-07-15T10:15:17.000Z</time>
      </trkpt>
      <trkpt lat="44.51517" lon="6.14667">
        <ele>928.20001220703</ele>
        <time>2016-07-15T10:15:22.000Z</time>
      </trkpt>
      <trkpt lat="44.51513" lon="6.14661">
        <ele>929</ele>
        <time>2016-07-15T10:15:27.000Z</time>
      </trkpt>
      <trkpt lat="44.51512" lon="6.14658">
        <ele>929.40002441406</ele>
        <time>2016-07-15T10:15:29.000Z</time>
      </trkpt>
      <trkpt lat="44.51511" lon="6.14656">
        <ele>929.79998779297</ele>
        <time>2016-07-15T10:15:31.000Z</time>
      </trkpt>
      <trkpt lat="44.51508" lon="6.14646">
        <ele>931.20001220703</ele>
        <time>2016-07-15T10:15:37.000Z</time>
      </trkpt>
      <trkpt lat="44.51505" lon="6.14638">
        <ele>932.59997558594</ele>
        <time>2016-07-15T10:15:42.000Z</time>
      </trkpt>
      <trkpt lat="44.51502" lon="6.14629">
        <ele>934.40002441406</ele>
        <time>2016-07-15T10:15:48.000Z</time>
      </trkpt>
      <trkpt lat="44.51501" lon="6.14628">
        <ele>934.59997558594</ele>
        <time>2016-07-15T10:15:49.000Z</time>
      </trkpt>
      <trkpt lat="44.51497" lon="6.14621">
        <ele>935.59997558594</ele>
        <time>2016-07-15T10:15:53.000Z</time>
      </trkpt>
      <trkpt lat="44.51497" lon="6.14611">
        <ele>938</ele>
        <time>2016-07-15T10:15:58.000Z</time>
      </trkpt>
      <trkpt lat="44.51497" lon="6.14599">
        <ele>941.20001220703</ele>
        <time>2016-07-15T10:16:03.000Z</time>
      </trkpt>
      <trkpt lat="44.51495" lon="6.14586">
        <ele>944.40002441406</ele>
        <time>2016-07-15T10:16:06.000Z</time>
      </trkpt>
      <trkpt lat="44.51489" lon="6.1457">
        <ele>947.59997558594</ele>
        <time>2016-07-15T10:16:11.000Z</time>
      </trkpt>
      <trkpt lat="44.51488" lon="6.14569">
        <ele>947.79998779297</ele>
        <time>2016-07-15T10:16:12.000Z</time>
      </trkpt>
      <trkpt lat="44.51486" lon="6.14567">
        <ele>948</ele>
        <time>2016-07-15T10:16:14.000Z</time>
      </trkpt>
      <trkpt lat="44.51487" lon="6.14541">
        <ele>950</ele>
        <time>2016-07-15T10:16:29.000Z</time>
      </trkpt>
      <trkpt lat="44.5149" lon="6.1454">
        <ele>950.40002441406</ele>
        <time>2016-07-15T10:16:46.000Z</time>
      </trkpt>
      <trkpt lat="44.51498" lon="6.14543">
        <ele>951.59997558594</ele>
        <time>2016-07-15T10:16:53.000Z</time>
      </trkpt>
      <trkpt lat="44.51506" lon="6.14546">
        <ele>952.59997558594</ele>
        <time>2016-07-15T10:17:00.000Z</time>
      </trkpt>
      <trkpt lat="44.51508" lon="6.14547">
        <ele>952.79998779297</ele>
        <time>2016-07-15T10:17:02.000Z</time>
      </trkpt>
      <trkpt lat="44.51512" lon="6.14549">
        <ele>953.40002441406</ele>
        <time>2016-07-15T10:17:06.000Z</time>
      </trkpt>
      <trkpt lat="44.51522" lon="6.14555">
        <ele>954.59997558594</ele>
        <time>2016-07-15T10:17:14.000Z</time>
      </trkpt>
      <trkpt lat="44.51539" lon="6.14561">
        <ele>956</ele>
        <time>2016-07-15T10:17:28.000Z</time>
      </trkpt>
      <trkpt lat="44.51548" lon="6.14562">
        <ele>956.20001220703</ele>
        <time>2016-07-15T10:17:35.000Z</time>
      </trkpt>
      <trkpt lat="44.51555" lon="6.14557">
        <ele>957.59997558594</ele>
        <time>2016-07-15T10:17:42.000Z</time>
      </trkpt>
      <trkpt lat="44.51556" lon="6.14555">
        <ele>958</ele>
        <time>2016-07-15T10:17:43.000Z</time>
      </trkpt>
      <trkpt lat="44.51555" lon="6.14543">
        <ele>959.79998779297</ele>
        <time>2016-07-15T10:17:50.000Z</time>
      </trkpt>
      <trkpt lat="44.5155" lon="6.14539">
        <ele>960.20001220703</ele>
        <time>2016-07-15T10:17:56.000Z</time>
      </trkpt>
      <trkpt lat="44.51549" lon="6.14538">
        <ele>960.40002441406</ele>
        <time>2016-07-15T10:17:57.000Z</time>
      </trkpt>
      <trkpt lat="44.51543" lon="6.1453">
        <ele>961.20001220703</ele>
        <time>2016-07-15T10:18:05.000Z</time>
      </trkpt>
      <trkpt lat="44.51542" lon="6.14529">
        <ele>961.40002441406</ele>
        <time>2016-07-15T10:18:06.000Z</time>
      </trkpt>
      <trkpt lat="44.5154" lon="6.14524">
        <ele>962</ele>
        <time>2016-07-15T10:18:09.000Z</time>
      </trkpt>
      <trkpt lat="44.51536" lon="6.1451">
        <ele>964</ele>
        <time>2016-07-15T10:18:18.000Z</time>
      </trkpt>
      <trkpt lat="44.51534" lon="6.14499">
        <ele>965.59997558594</ele>
        <time>2016-07-15T10:18:25.000Z</time>
      </trkpt>
      <trkpt lat="44.51533" lon="6.14497">
        <ele>965.79998779297</ele>
        <time>2016-07-15T10:18:26.000Z</time>
      </trkpt>
      <trkpt lat="44.51529" lon="6.14488">
        <ele>966.20001220703</ele>
        <time>2016-07-15T10:18:33.000Z</time>
      </trkpt>
      <trkpt lat="44.51529" lon="6.14487">
        <ele>966.20001220703</ele>
        <time>2016-07-15T10:18:34.000Z</time>
      </trkpt>
      <trkpt lat="44.51529" lon="6.14484">
        <ele>966.79998779297</ele>
        <time>2016-07-15T10:18:43.000Z</time>
      </trkpt>
      <trkpt lat="44.51532" lon="6.14487">
        <ele>967.20001220703</ele>
        <time>2016-07-15T10:18:48.000Z</time>
      </trkpt>
      <trkpt lat="44.51537" lon="6.14498">
        <ele>966</ele>
        <time>2016-07-15T10:18:56.000Z</time>
      </trkpt>
      <trkpt lat="44.51538" lon="6.14503">
        <ele>965.20001220703</ele>
        <time>2016-07-15T10:18:59.000Z</time>
      </trkpt>
      <trkpt lat="44.5154" lon="6.145">
        <ele>965.79998779297</ele>
        <time>2016-07-15T10:19:04.000Z</time>
      </trkpt>
      <trkpt lat="44.5154" lon="6.14498">
        <ele>966</ele>
        <time>2016-07-15T10:19:05.000Z</time>
      </trkpt>
      <trkpt lat="44.5154" lon="6.14492">
        <ele>967</ele>
        <time>2016-07-15T10:19:09.000Z</time>
      </trkpt>
      <trkpt lat="44.51541" lon="6.14481">
        <ele>969.20001220703</ele>
        <time>2016-07-15T10:19:15.000Z</time>
      </trkpt>
      <trkpt lat="44.5154" lon="6.14475">
        <ele>970</ele>
        <time>2016-07-15T10:19:19.000Z</time>
      </trkpt>
      <trkpt lat="44.5154" lon="6.14473">
        <ele>970</ele>
        <time>2016-07-15T10:19:20.000Z</time>
      </trkpt>
      <trkpt lat="44.51539" lon="6.14466">
        <ele>969.79998779297</ele>
        <time>2016-07-15T10:19:24.000Z</time>
      </trkpt>
      <trkpt lat="44.51538" lon="6.14452">
        <ele>969.59997558594</ele>
        <time>2016-07-15T10:19:32.000Z</time>
      </trkpt>
      <trkpt lat="44.51538" lon="6.14445">
        <ele>969.40002441406</ele>
        <time>2016-07-15T10:19:36.000Z</time>
      </trkpt>
      <trkpt lat="44.51538" lon="6.14432">
        <ele>969.20001220703</ele>
        <time>2016-07-15T10:19:43.000Z</time>
      </trkpt>
      <trkpt lat="44.51539" lon="6.1443">
        <ele>969.40002441406</ele>
        <time>2016-07-15T10:19:45.000Z</time>
      </trkpt>
      <trkpt lat="44.51545" lon="6.14426">
        <ele>970.40002441406</ele>
        <time>2016-07-15T10:19:52.000Z</time>
      </trkpt>
      <trkpt lat="44.51547" lon="6.14427">
        <ele>970.79998779297</ele>
        <time>2016-07-15T10:19:54.000Z</time>
      </trkpt>
      <trkpt lat="44.51554" lon="6.14431">
        <ele>972.20001220703</ele>
        <time>2016-07-15T10:20:01.000Z</time>
      </trkpt>
      <trkpt lat="44.5156" lon="6.14433">
        <ele>973.20001220703</ele>
        <time>2016-07-15T10:20:07.000Z</time>
      </trkpt>
      <trkpt lat="44.51566" lon="6.14435">
        <ele>974.40002441406</ele>
        <time>2016-07-15T10:20:13.000Z</time>
      </trkpt>
      <trkpt lat="44.51567" lon="6.14435">
        <ele>974.59997558594</ele>
        <time>2016-07-15T10:20:14.000Z</time>
      </trkpt>
      <trkpt lat="44.51569" lon="6.14435">
        <ele>974.79998779297</ele>
        <time>2016-07-15T10:20:15.000Z</time>
      </trkpt>
      <trkpt lat="44.51574" lon="6.14438">
        <ele>975.79998779297</ele>
        <time>2016-07-15T10:20:21.000Z</time>
      </trkpt>
      <trkpt lat="44.51575" lon="6.14438">
        <ele>976</ele>
        <time>2016-07-15T10:20:22.000Z</time>
      </trkpt>
      <trkpt lat="44.5158" lon="6.1444">
        <ele>977</ele>
        <time>2016-07-15T10:20:26.000Z</time>
      </trkpt>
      <trkpt lat="44.51589" lon="6.14437">
        <ele>980</ele>
        <time>2016-07-15T10:20:33.000Z</time>
      </trkpt>
      <trkpt lat="44.51596" lon="6.14434">
        <ele>982.40002441406</ele>
        <time>2016-07-15T10:20:39.000Z</time>
      </trkpt>
      <trkpt lat="44.51603" lon="6.14433">
        <ele>984.59997558594</ele>
        <time>2016-07-15T10:20:44.000Z</time>
      </trkpt>
      <trkpt lat="44.51615" lon="6.14434">
        <ele>988.20001220703</ele>
        <time>2016-07-15T10:20:53.000Z</time>
      </trkpt>
      <trkpt lat="44.51625" lon="6.14433">
        <ele>989.40002441406</ele>
        <time>2016-07-15T10:21:01.000Z</time>
      </trkpt>
      <trkpt lat="44.51634" lon="6.14435">
        <ele>989.79998779297</ele>
        <time>2016-07-15T10:21:08.000Z</time>
      </trkpt>
      <trkpt lat="44.51644" lon="6.1443">
        <ele>991</ele>
        <time>2016-07-15T10:21:20.000Z</time>
      </trkpt>
      <trkpt lat="44.51644" lon="6.14428">
        <ele>991.20001220703</ele>
        <time>2016-07-15T10:21:21.000Z</time>
      </trkpt>
      <trkpt lat="44.51641" lon="6.14412">
        <ele>994.20001220703</ele>
        <time>2016-07-15T10:21:29.000Z</time>
      </trkpt>
      <trkpt lat="44.51641" lon="6.14399">
        <ele>997.79998779297</ele>
        <time>2016-07-15T10:21:38.000Z</time>
      </trkpt>
      <trkpt lat="44.51641" lon="6.14389">
        <ele>999.59997558594</ele>
        <time>2016-07-15T10:21:45.000Z</time>
      </trkpt>
      <trkpt lat="44.51645" lon="6.14378">
        <ele>1000.799987793</ele>
        <time>2016-07-15T10:21:52.000Z</time>
      </trkpt>
      <trkpt lat="44.51647" lon="6.14372">
        <ele>1001.4000244141</ele>
        <time>2016-07-15T10:21:56.000Z</time>
      </trkpt>
      <trkpt lat="44.51651" lon="6.1436">
        <ele>1002.799987793</ele>
        <time>2016-07-15T10:22:04.000Z</time>
      </trkpt>
      <trkpt lat="44.51652" lon="6.14354">
        <ele>1003.200012207</ele>
        <time>2016-07-15T10:22:08.000Z</time>
      </trkpt>
      <trkpt lat="44.51654" lon="6.14344">
        <ele>1004.4000244141</ele>
        <time>2016-07-15T10:22:15.000Z</time>
      </trkpt>
      <trkpt lat="44.51658" lon="6.1433">
        <ele>1008.4000244141</ele>
        <time>2016-07-15T10:22:24.000Z</time>
      </trkpt>
      <trkpt lat="44.51664" lon="6.14318">
        <ele>1012.5999755859</ele>
        <time>2016-07-15T10:22:33.000Z</time>
      </trkpt>
      <trkpt lat="44.51669" lon="6.1431">
        <ele>1015.5999755859</ele>
        <time>2016-07-15T10:22:40.000Z</time>
      </trkpt>
      <trkpt lat="44.51674" lon="6.14304">
        <ele>1018.5999755859</ele>
        <time>2016-07-15T10:22:46.000Z</time>
      </trkpt>
      <trkpt lat="44.5168" lon="6.14294">
        <ele>1022.4000244141</ele>
        <time>2016-07-15T10:22:53.000Z</time>
      </trkpt>
      <trkpt lat="44.51684" lon="6.14286">
        <ele>1023.799987793</ele>
        <time>2016-07-15T10:22:59.000Z</time>
      </trkpt>
      <trkpt lat="44.51684" lon="6.14285">
        <ele>1023.799987793</ele>
        <time>2016-07-15T10:23:00.000Z</time>
      </trkpt>
      <trkpt lat="44.51684" lon="6.14277">
        <ele>1023.5999755859</ele>
        <time>2016-07-15T10:23:04.000Z</time>
      </trkpt>
      <trkpt lat="44.51684" lon="6.14267">
        <ele>1023.4000244141</ele>
        <time>2016-07-15T10:23:10.000Z</time>
      </trkpt>
      <trkpt lat="44.51684" lon="6.14262">
        <ele>1023.4000244141</ele>
        <time>2016-07-15T10:23:13.000Z</time>
      </trkpt>
      <trkpt lat="44.51682" lon="6.14256">
        <ele>1023</ele>
        <time>2016-07-15T10:23:17.000Z</time>
      </trkpt>
      <trkpt lat="44.51683" lon="6.14252">
        <ele>1023.200012207</ele>
        <time>2016-07-15T10:23:19.000Z</time>
      </trkpt>
      <trkpt lat="44.51685" lon="6.14241">
        <ele>1023.5999755859</ele>
        <time>2016-07-15T10:23:25.000Z</time>
      </trkpt>
      <trkpt lat="44.51687" lon="6.14237">
        <ele>1023.799987793</ele>
        <time>2016-07-15T10:23:27.000Z</time>
      </trkpt>
      <trkpt lat="44.5169" lon="6.14227">
        <ele>1024.5999755859</ele>
        <time>2016-07-15T10:23:33.000Z</time>
      </trkpt>
      <trkpt lat="44.5169" lon="6.14218">
        <ele>1026.5999755859</ele>
        <time>2016-07-15T10:23:38.000Z</time>
      </trkpt>
      <trkpt lat="44.5169" lon="6.14214">
        <ele>1026.8000488281</ele>
        <time>2016-07-15T10:23:40.000Z</time>
      </trkpt>
      <trkpt lat="44.51692" lon="6.14201">
        <ele>1026.8000488281</ele>
        <time>2016-07-15T10:23:47.000Z</time>
      </trkpt>
      <trkpt lat="44.51695" lon="6.14191">
        <ele>1027</ele>
        <time>2016-07-15T10:23:53.000Z</time>
      </trkpt>
      <trkpt lat="44.51699" lon="6.14179">
        <ele>1027</ele>
        <time>2016-07-15T10:24:00.000Z</time>
      </trkpt>
      <trkpt lat="44.51699" lon="6.14178">
        <ele>1027</ele>
        <time>2016-07-15T10:24:01.000Z</time>
      </trkpt>
      <trkpt lat="44.51698" lon="6.14166">
        <ele>1027</ele>
        <time>2016-07-15T10:24:07.000Z</time>
      </trkpt>
      <trkpt lat="44.51698" lon="6.14163">
        <ele>1027</ele>
        <time>2016-07-15T10:24:09.000Z</time>
      </trkpt>
      <trkpt lat="44.51697" lon="6.14147">
        <ele>1027</ele>
        <time>2016-07-15T10:24:17.000Z</time>
      </trkpt>
      <trkpt lat="44.51696" lon="6.1414">
        <ele>1027.8000488281</ele>
        <time>2016-07-15T10:24:21.000Z</time>
      </trkpt>
      <trkpt lat="44.51697" lon="6.14129">
        <ele>1029.1999511719</ele>
        <time>2016-07-15T10:24:30.000Z</time>
      </trkpt>
      <trkpt lat="44.51697" lon="6.14125">
        <ele>1029.8000488281</ele>
        <time>2016-07-15T10:24:32.000Z</time>
      </trkpt>
      <trkpt lat="44.51693" lon="6.14111">
        <ele>1031.8000488281</ele>
        <time>2016-07-15T10:24:40.000Z</time>
      </trkpt>
      <trkpt lat="44.51689" lon="6.14087">
        <ele>1035.1999511719</ele>
        <time>2016-07-15T10:24:53.000Z</time>
      </trkpt>
      <trkpt lat="44.51688" lon="6.14079">
        <ele>1036.4000244141</ele>
        <time>2016-07-15T10:24:58.000Z</time>
      </trkpt>
      <trkpt lat="44.51687" lon="6.14072">
        <ele>1037.5999755859</ele>
        <time>2016-07-15T10:25:03.000Z</time>
      </trkpt>
      <trkpt lat="44.5169" lon="6.14067">
        <ele>1038</ele>
        <time>2016-07-15T10:25:07.000Z</time>
      </trkpt>
      <trkpt lat="44.51694" lon="6.14064">
        <ele>1038.1999511719</ele>
        <time>2016-07-15T10:25:11.000Z</time>
      </trkpt>
      <trkpt lat="44.51697" lon="6.1406">
        <ele>1038.4000244141</ele>
        <time>2016-07-15T10:25:14.000Z</time>
      </trkpt>
      <trkpt lat="44.51702" lon="6.14052">
        <ele>1041</ele>
        <time>2016-07-15T10:25:19.000Z</time>
      </trkpt>
      <trkpt lat="44.51707" lon="6.14044">
        <ele>1044.1999511719</ele>
        <time>2016-07-15T10:25:24.000Z</time>
      </trkpt>
      <trkpt lat="44.51708" lon="6.14042">
        <ele>1045</ele>
        <time>2016-07-15T10:25:25.000Z</time>
      </trkpt>
      <trkpt lat="44.5171" lon="6.14041">
        <ele>1045.5999755859</ele>
        <time>2016-07-15T10:25:26.000Z</time>
      </trkpt>
      <trkpt lat="44.51715" lon="6.14032">
        <ele>1049.1999511719</ele>
        <time>2016-07-15T10:25:32.000Z</time>
      </trkpt>
      <trkpt lat="44.51717" lon="6.14031">
        <ele>1049.8000488281</ele>
        <time>2016-07-15T10:25:33.000Z</time>
      </trkpt>
      <trkpt lat="44.51723" lon="6.14024">
        <ele>1053.5999755859</ele>
        <time>2016-07-15T10:25:40.000Z</time>
      </trkpt>
      <trkpt lat="44.51726" lon="6.14022">
        <ele>1054.5999755859</ele>
        <time>2016-07-15T10:25:43.000Z</time>
      </trkpt>
      <trkpt lat="44.5173" lon="6.14021">
        <ele>1056.1999511719</ele>
        <time>2016-07-15T10:25:47.000Z</time>
      </trkpt>
      <trkpt lat="44.51735" lon="6.14017">
        <ele>1058.4000244141</ele>
        <time>2016-07-15T10:25:53.000Z</time>
      </trkpt>
      <trkpt lat="44.51729" lon="6.14011">
        <ele>1058.4000244141</ele>
        <time>2016-07-15T10:25:59.000Z</time>
      </trkpt>
      <trkpt lat="44.51724" lon="6.14008">
        <ele>1057.8000488281</ele>
        <time>2016-07-15T10:26:01.000Z</time>
      </trkpt>
      <trkpt lat="44.51715" lon="6.13999">
        <ele>1058</ele>
        <time>2016-07-15T10:26:06.000Z</time>
      </trkpt>
      <trkpt lat="44.51709" lon="6.13995">
        <ele>1057.4000244141</ele>
        <time>2016-07-15T10:26:09.000Z</time>
      </trkpt>
      <trkpt lat="44.51707" lon="6.13994">
        <ele>1057.1999511719</ele>
        <time>2016-07-15T10:26:10.000Z</time>
      </trkpt>
      <trkpt lat="44.51697" lon="6.13991">
        <ele>1056.5999755859</ele>
        <time>2016-07-15T10:26:15.000Z</time>
      </trkpt>
      <trkpt lat="44.51692" lon="6.1399">
        <ele>1057.1999511719</ele>
        <time>2016-07-15T10:26:19.000Z</time>
      </trkpt>
      <trkpt lat="44.51688" lon="6.13984">
        <ele>1058.8000488281</ele>
        <time>2016-07-15T10:26:25.000Z</time>
      </trkpt>
      <trkpt lat="44.51684" lon="6.1398">
        <ele>1060</ele>
        <time>2016-07-15T10:26:31.000Z</time>
      </trkpt>
      <trkpt lat="44.51679" lon="6.13977">
        <ele>1061</ele>
        <time>2016-07-15T10:26:38.000Z</time>
      </trkpt>
      <trkpt lat="44.51673" lon="6.13974">
        <ele>1062</ele>
        <time>2016-07-15T10:26:44.000Z</time>
      </trkpt>
      <trkpt lat="44.51665" lon="6.13971">
        <ele>1063</ele>
        <time>2016-07-15T10:26:52.000Z</time>
      </trkpt>
      <trkpt lat="44.51664" lon="6.13971">
        <ele>1063</ele>
        <time>2016-07-15T10:26:53.000Z</time>
      </trkpt>
      <trkpt lat="44.51663" lon="6.1397">
        <ele>1063.1999511719</ele>
        <time>2016-07-15T10:26:54.000Z</time>
      </trkpt>
      <trkpt lat="44.51658" lon="6.13968">
        <ele>1063.8000488281</ele>
        <time>2016-07-15T10:26:58.000Z</time>
      </trkpt>
      <trkpt lat="44.51652" lon="6.13963">
        <ele>1065.1999511719</ele>
        <time>2016-07-15T10:27:04.000Z</time>
      </trkpt>
      <trkpt lat="44.51647" lon="6.13961">
        <ele>1065.8000488281</ele>
        <time>2016-07-15T10:27:08.000Z</time>
      </trkpt>
      <trkpt lat="44.51642" lon="6.13958">
        <ele>1066.5999755859</ele>
        <time>2016-07-15T10:27:13.000Z</time>
      </trkpt>
      <trkpt lat="44.51628" lon="6.13957">
        <ele>1067.4000244141</ele>
        <time>2016-07-15T10:27:26.000Z</time>
      </trkpt>
      <trkpt lat="44.51619" lon="6.13957">
        <ele>1067.8000488281</ele>
        <time>2016-07-15T10:27:33.000Z</time>
      </trkpt>
      <trkpt lat="44.51613" lon="6.13955">
        <ele>1068.4000244141</ele>
        <time>2016-07-15T10:27:39.000Z</time>
      </trkpt>
      <trkpt lat="44.51607" lon="6.13956">
        <ele>1068.4000244141</ele>
        <time>2016-07-15T10:27:43.000Z</time>
      </trkpt>
      <trkpt lat="44.51601" lon="6.13959">
        <ele>1068.1999511719</ele>
        <time>2016-07-15T10:27:49.000Z</time>
      </trkpt>
      <trkpt lat="44.51599" lon="6.13959">
        <ele>1068.1999511719</ele>
        <time>2016-07-15T10:27:50.000Z</time>
      </trkpt>
      <trkpt lat="44.51594" lon="6.13956">
        <ele>1069</ele>
        <time>2016-07-15T10:27:54.000Z</time>
      </trkpt>
      <trkpt lat="44.51585" lon="6.13953">
        <ele>1070</ele>
        <time>2016-07-15T10:28:00.000Z</time>
      </trkpt>
      <trkpt lat="44.51576" lon="6.13949">
        <ele>1071</ele>
        <time>2016-07-15T10:28:06.000Z</time>
      </trkpt>
      <trkpt lat="44.51574" lon="6.13948">
        <ele>1071.4000244141</ele>
        <time>2016-07-15T10:28:08.000Z</time>
      </trkpt>
      <trkpt lat="44.51566" lon="6.13945">
        <ele>1072.1999511719</ele>
        <time>2016-07-15T10:28:14.000Z</time>
      </trkpt>
      <trkpt lat="44.51561" lon="6.13936">
        <ele>1074</ele>
        <time>2016-07-15T10:28:25.000Z</time>
      </trkpt>
      <trkpt lat="44.51564" lon="6.1393">
        <ele>1075.1999511719</ele>
        <time>2016-07-15T10:28:30.000Z</time>
      </trkpt>
      <trkpt lat="44.51569" lon="6.13923">
        <ele>1076</ele>
        <time>2016-07-15T10:28:35.000Z</time>
      </trkpt>
      <trkpt lat="44.51576" lon="6.13914">
        <ele>1077.5999755859</ele>
        <time>2016-07-15T10:28:44.000Z</time>
      </trkpt>
      <trkpt lat="44.51581" lon="6.13909">
        <ele>1078.5999755859</ele>
        <time>2016-07-15T10:28:49.000Z</time>
      </trkpt>
      <trkpt lat="44.51585" lon="6.13903">
        <ele>1079.4000244141</ele>
        <time>2016-07-15T10:28:54.000Z</time>
      </trkpt>
      <trkpt lat="44.51595" lon="6.139">
        <ele>1079.5999755859</ele>
        <time>2016-07-15T10:29:00.000Z</time>
      </trkpt>
      <trkpt lat="44.51604" lon="6.13897">
        <ele>1079.8000488281</ele>
        <time>2016-07-15T10:29:07.000Z</time>
      </trkpt>
      <trkpt lat="44.51611" lon="6.13896">
        <ele>1079.8000488281</ele>
        <time>2016-07-15T10:29:12.000Z</time>
      </trkpt>
      <trkpt lat="44.51612" lon="6.13895">
        <ele>1080</ele>
        <time>2016-07-15T10:29:13.000Z</time>
      </trkpt>
      <trkpt lat="44.5162" lon="6.13893">
        <ele>1080.1999511719</ele>
        <time>2016-07-15T10:29:19.000Z</time>
      </trkpt>
      <trkpt lat="44.51629" lon="6.1389">
        <ele>1080.5999755859</ele>
        <time>2016-07-15T10:29:25.000Z</time>
      </trkpt>
      <trkpt lat="44.51633" lon="6.13888">
        <ele>1081</ele>
        <time>2016-07-15T10:29:30.000Z</time>
      </trkpt>
      <trkpt lat="44.51639" lon="6.13889">
        <ele>1080.8000488281</ele>
        <time>2016-07-15T10:29:35.000Z</time>
      </trkpt>
      <trkpt lat="44.51648" lon="6.13888">
        <ele>1081</ele>
        <time>2016-07-15T10:29:43.000Z</time>
      </trkpt>
      <trkpt lat="44.51651" lon="6.13888">
        <ele>1080.8000488281</ele>
        <time>2016-07-15T10:29:46.000Z</time>
      </trkpt>
      <trkpt lat="44.51657" lon="6.13888">
        <ele>1080.8000488281</ele>
        <time>2016-07-15T10:29:50.000Z</time>
      </trkpt>
      <trkpt lat="44.5166" lon="6.13887">
        <ele>1081</ele>
        <time>2016-07-15T10:29:52.000Z</time>
      </trkpt>
      <trkpt lat="44.5167" lon="6.13887">
        <ele>1080.8000488281</ele>
        <time>2016-07-15T10:29:59.000Z</time>
      </trkpt>
      <trkpt lat="44.51681" lon="6.13886">
        <ele>1081</ele>
        <time>2016-07-15T10:30:07.000Z</time>
      </trkpt>
      <trkpt lat="44.51689" lon="6.13884">
        <ele>1081.1999511719</ele>
        <time>2016-07-15T10:30:13.000Z</time>
      </trkpt>
      <trkpt lat="44.51695" lon="6.13884">
        <ele>1081</ele>
        <time>2016-07-15T10:30:19.000Z</time>
      </trkpt>
      <trkpt lat="44.51706" lon="6.13884">
        <ele>1081.4000244141</ele>
        <time>2016-07-15T10:30:26.000Z</time>
      </trkpt>
      <trkpt lat="44.51709" lon="6.13884">
        <ele>1081.4000244141</ele>
        <time>2016-07-15T10:30:29.000Z</time>
      </trkpt>
      <trkpt lat="44.51715" lon="6.13883">
        <ele>1081.5999755859</ele>
        <time>2016-07-15T10:30:33.000Z</time>
      </trkpt>
      <trkpt lat="44.51725" lon="6.13885">
        <ele>1081.5999755859</ele>
        <time>2016-07-15T10:30:40.000Z</time>
      </trkpt>
      <trkpt lat="44.51726" lon="6.13885">
        <ele>1081.5999755859</ele>
        <time>2016-07-15T10:30:41.000Z</time>
      </trkpt>
      <trkpt lat="44.51732" lon="6.13885">
        <ele>1081.8000488281</ele>
        <time>2016-07-15T10:30:45.000Z</time>
      </trkpt>
      <trkpt lat="44.5174" lon="6.13886">
        <ele>1081.5999755859</ele>
        <time>2016-07-15T10:30:51.000Z</time>
      </trkpt>
      <trkpt lat="44.51742" lon="6.13887">
        <ele>1081.5999755859</ele>
        <time>2016-07-15T10:30:52.000Z</time>
      </trkpt>
      <trkpt lat="44.51752" lon="6.13887">
        <ele>1081.5999755859</ele>
        <time>2016-07-15T10:30:59.000Z</time>
      </trkpt>
      <trkpt lat="44.51755" lon="6.13888">
        <ele>1081.5999755859</ele>
        <time>2016-07-15T10:31:01.000Z</time>
      </trkpt>
      <trkpt lat="44.51758" lon="6.13891">
        <ele>1081</ele>
        <time>2016-07-15T10:31:04.000Z</time>
      </trkpt>
      <trkpt lat="44.51764" lon="6.13895">
        <ele>1080.1999511719</ele>
        <time>2016-07-15T10:31:11.000Z</time>
      </trkpt>
      <trkpt lat="44.51774" lon="6.13899">
        <ele>1079.8000488281</ele>
        <time>2016-07-15T10:31:18.000Z</time>
      </trkpt>
      <trkpt lat="44.51782" lon="6.13901">
        <ele>1079.1999511719</ele>
        <time>2016-07-15T10:31:23.000Z</time>
      </trkpt>
      <trkpt lat="44.51789" lon="6.13906">
        <ele>1079.5999755859</ele>
        <time>2016-07-15T10:31:27.000Z</time>
      </trkpt>
      <trkpt lat="44.51796" lon="6.13912">
        <ele>1080.1999511719</ele>
        <time>2016-07-15T10:31:31.000Z</time>
      </trkpt>
      <trkpt lat="44.51804" lon="6.13922">
        <ele>1080.1999511719</ele>
        <time>2016-07-15T10:31:37.000Z</time>
      </trkpt>
      <trkpt lat="44.51805" lon="6.13924">
        <ele>1080</ele>
        <time>2016-07-15T10:31:38.000Z</time>
      </trkpt>
      <trkpt lat="44.5181" lon="6.13936">
        <ele>1078.1999511719</ele>
        <time>2016-07-15T10:31:45.000Z</time>
      </trkpt>
      <trkpt lat="44.51812" lon="6.13941">
        <ele>1077.8000488281</ele>
        <time>2016-07-15T10:31:48.000Z</time>
      </trkpt>
      <trkpt lat="44.51816" lon="6.13952">
        <ele>1076.4000244141</ele>
        <time>2016-07-15T10:31:53.000Z</time>
      </trkpt>
      <trkpt lat="44.51818" lon="6.13955">
        <ele>1076</ele>
        <time>2016-07-15T10:31:55.000Z</time>
      </trkpt>
      <trkpt lat="44.51823" lon="6.13971">
        <ele>1074</ele>
        <time>2016-07-15T10:32:04.000Z</time>
      </trkpt>
      <trkpt lat="44.5183" lon="6.13984">
        <ele>1073.8000488281</ele>
        <time>2016-07-15T10:32:12.000Z</time>
      </trkpt>
      <trkpt lat="44.51833" lon="6.13986">
        <ele>1074.1999511719</ele>
        <time>2016-07-15T10:32:18.000Z</time>
      </trkpt>
      <trkpt lat="44.51837" lon="6.13988">
        <ele>1075.1999511719</ele>
        <time>2016-07-15T10:32:22.000Z</time>
      </trkpt>
      <trkpt lat="44.51838" lon="6.13989">
        <ele>1075.1999511719</ele>
        <time>2016-07-15T10:32:23.000Z</time>
      </trkpt>
      <trkpt lat="44.51844" lon="6.13993">
        <ele>1076.8000488281</ele>
        <time>2016-07-15T10:32:31.000Z</time>
      </trkpt>
      <trkpt lat="44.51845" lon="6.13994">
        <ele>1076.8000488281</ele>
        <time>2016-07-15T10:32:32.000Z</time>
      </trkpt>
      <trkpt lat="44.51846" lon="6.13997">
        <ele>1077</ele>
        <time>2016-07-15T10:32:34.000Z</time>
      </trkpt>
      <trkpt lat="44.51847" lon="6.13999">
        <ele>1076.8000488281</ele>
        <time>2016-07-15T10:32:36.000Z</time>
      </trkpt>
      <trkpt lat="44.51849" lon="6.14005">
        <ele>1076.8000488281</ele>
        <time>2016-07-15T10:32:40.000Z</time>
      </trkpt>
      <trkpt lat="44.5185" lon="6.14011">
        <ele>1076.5999755859</ele>
        <time>2016-07-15T10:32:43.000Z</time>
      </trkpt>
      <trkpt lat="44.5185" lon="6.14022">
        <ele>1075.8000488281</ele>
        <time>2016-07-15T10:32:49.000Z</time>
      </trkpt>
      <trkpt lat="44.51851" lon="6.14024">
        <ele>1075.8000488281</ele>
        <time>2016-07-15T10:32:50.000Z</time>
      </trkpt>
      <trkpt lat="44.51852" lon="6.1403">
        <ele>1075.5999755859</ele>
        <time>2016-07-15T10:32:54.000Z</time>
      </trkpt>
      <trkpt lat="44.51853" lon="6.1404">
        <ele>1075.1999511719</ele>
        <time>2016-07-15T10:33:00.000Z</time>
      </trkpt>
      <trkpt lat="44.51854" lon="6.14042">
        <ele>1075.1999511719</ele>
        <time>2016-07-15T10:33:01.000Z</time>
      </trkpt>
      <trkpt lat="44.51855" lon="6.14043">
        <ele>1075.1999511719</ele>
        <time>2016-07-15T10:33:02.000Z</time>
      </trkpt>
      <trkpt lat="44.51857" lon="6.14049">
        <ele>1075.4000244141</ele>
        <time>2016-07-15T10:33:06.000Z</time>
      </trkpt>
      <trkpt lat="44.51859" lon="6.14051">
        <ele>1075.8000488281</ele>
        <time>2016-07-15T10:33:08.000Z</time>
      </trkpt>
      <trkpt lat="44.51862" lon="6.14052">
        <ele>1076.4000244141</ele>
        <time>2016-07-15T10:33:10.000Z</time>
      </trkpt>
      <trkpt lat="44.51864" lon="6.14056">
        <ele>1076.5999755859</ele>
        <time>2016-07-15T10:33:13.000Z</time>
      </trkpt>
      <trkpt lat="44.51867" lon="6.14069">
        <ele>1078</ele>
        <time>2016-07-15T10:33:21.000Z</time>
      </trkpt>
      <trkpt lat="44.51873" lon="6.14074">
        <ele>1080</ele>
        <time>2016-07-15T10:33:27.000Z</time>
      </trkpt>
      <trkpt lat="44.51881" lon="6.1408">
        <ele>1082.5999755859</ele>
        <time>2016-07-15T10:33:34.000Z</time>
      </trkpt>
      <trkpt lat="44.5189" lon="6.14087">
        <ele>1085.1999511719</ele>
        <time>2016-07-15T10:33:41.000Z</time>
      </trkpt>
      <trkpt lat="44.51895" lon="6.14093">
        <ele>1087</ele>
        <time>2016-07-15T10:33:46.000Z</time>
      </trkpt>
      <trkpt lat="44.51896" lon="6.14094">
        <ele>1087.4000244141</ele>
        <time>2016-07-15T10:33:48.000Z</time>
      </trkpt>
      <trkpt lat="44.51898" lon="6.14102">
        <ele>1088.8000488281</ele>
        <time>2016-07-15T10:33:52.000Z</time>
      </trkpt>
      <trkpt lat="44.51893" lon="6.14101">
        <ele>1087.8000488281</ele>
        <time>2016-07-15T10:33:55.000Z</time>
      </trkpt>
      <trkpt lat="44.51885" lon="6.14103">
        <ele>1086.1999511719</ele>
        <time>2016-07-15T10:34:01.000Z</time>
      </trkpt>
      <trkpt lat="44.5188" lon="6.14109">
        <ele>1086</ele>
        <time>2016-07-15T10:34:06.000Z</time>
      </trkpt>
      <trkpt lat="44.51884" lon="6.14113">
        <ele>1087.4000244141</ele>
        <time>2016-07-15T10:34:10.000Z</time>
      </trkpt>
      <trkpt lat="44.51886" lon="6.14117">
        <ele>1088.4000244141</ele>
        <time>2016-07-15T10:34:14.000Z</time>
      </trkpt>
      <trkpt lat="44.51882" lon="6.14122">
        <ele>1088.1999511719</ele>
        <time>2016-07-15T10:34:18.000Z</time>
      </trkpt>
      <trkpt lat="44.51881" lon="6.14124">
        <ele>1088.4000244141</ele>
        <time>2016-07-15T10:34:19.000Z</time>
      </trkpt>
      <trkpt lat="44.51881" lon="6.14127">
        <ele>1088.4000244141</ele>
        <time>2016-07-15T10:34:20.000Z</time>
      </trkpt>
      <trkpt lat="44.51871" lon="6.14139">
        <ele>1088.1999511719</ele>
        <time>2016-07-15T10:34:26.000Z</time>
      </trkpt>
      <trkpt lat="44.51868" lon="6.14144">
        <ele>1088.1999511719</ele>
        <time>2016-07-15T10:34:30.000Z</time>
      </trkpt>
      <trkpt lat="44.51864" lon="6.14149">
        <ele>1087.8000488281</ele>
        <time>2016-07-15T10:34:35.000Z</time>
      </trkpt>
      <trkpt lat="44.51863" lon="6.1415">
        <ele>1087.8000488281</ele>
        <time>2016-07-15T10:34:36.000Z</time>
      </trkpt>
      <trkpt lat="44.51858" lon="6.14156">
        <ele>1087.4000244141</ele>
        <time>2016-07-15T10:34:41.000Z</time>
      </trkpt>
      <trkpt lat="44.51855" lon="6.14165">
        <ele>1087.8000488281</ele>
        <time>2016-07-15T10:34:46.000Z</time>
      </trkpt>
      <trkpt lat="44.51853" lon="6.14169">
        <ele>1087.8000488281</ele>
        <time>2016-07-15T10:34:49.000Z</time>
      </trkpt>
      <trkpt lat="44.51848" lon="6.14179">
        <ele>1088.1999511719</ele>
        <time>2016-07-15T10:34:54.000Z</time>
      </trkpt>
      <trkpt lat="44.51845" lon="6.14184">
        <ele>1088.4000244141</ele>
        <time>2016-07-15T10:34:57.000Z</time>
      </trkpt>
      <trkpt lat="44.51841" lon="6.14191">
        <ele>1088.4000244141</ele>
        <time>2016-07-15T10:35:03.000Z</time>
      </trkpt>
      <trkpt lat="44.51841" lon="6.14193">
        <ele>1088.5999755859</ele>
        <time>2016-07-15T10:35:04.000Z</time>
      </trkpt>
      <trkpt lat="44.51839" lon="6.14201">
        <ele>1089.1999511719</ele>
        <time>2016-07-15T10:35:08.000Z</time>
      </trkpt>
      <trkpt lat="44.51836" lon="6.14212">
        <ele>1088</ele>
        <time>2016-07-15T10:35:16.000Z</time>
      </trkpt>
      <trkpt lat="44.51835" lon="6.14224">
        <ele>1088</ele>
        <time>2016-07-15T10:35:23.000Z</time>
      </trkpt>
      <trkpt lat="44.51833" lon="6.14231">
        <ele>1087.4000244141</ele>
        <time>2016-07-15T10:35:27.000Z</time>
      </trkpt>
      <trkpt lat="44.51828" lon="6.14244">
        <ele>1084.5999755859</ele>
        <time>2016-07-15T10:35:33.000Z</time>
      </trkpt>
      <trkpt lat="44.51828" lon="6.1425">
        <ele>1084.5999755859</ele>
        <time>2016-07-15T10:35:37.000Z</time>
      </trkpt>
      <trkpt lat="44.51829" lon="6.1425">
        <ele>1085</ele>
        <time>2016-07-15T10:35:38.000Z</time>
      </trkpt>
      <trkpt lat="44.51834" lon="6.14245">
        <ele>1087.8000488281</ele>
        <time>2016-07-15T10:35:45.000Z</time>
      </trkpt>
      <trkpt lat="44.5184" lon="6.1424">
        <ele>1090.5999755859</ele>
        <time>2016-07-15T10:35:51.000Z</time>
      </trkpt>
      <trkpt lat="44.51845" lon="6.14237">
        <ele>1093.4000244141</ele>
        <time>2016-07-15T10:35:56.000Z</time>
      </trkpt>
      <trkpt lat="44.5185" lon="6.14235">
        <ele>1096</ele>
        <time>2016-07-15T10:36:03.000Z</time>
      </trkpt>
      <trkpt lat="44.51849" lon="6.14242">
        <ele>1095.4000244141</ele>
        <time>2016-07-15T10:36:32.000Z</time>
      </trkpt>
      <trkpt lat="44.51848" lon="6.14253">
        <ele>1094.8000488281</ele>
        <time>2016-07-15T10:36:39.000Z</time>
      </trkpt>
      <trkpt lat="44.51844" lon="6.14264">
        <ele>1092.8000488281</ele>
        <time>2016-07-15T10:36:46.000Z</time>
      </trkpt>
      <trkpt lat="44.51842" lon="6.14283">
        <ele>1092</ele>
        <time>2016-07-15T10:36:57.000Z</time>
      </trkpt>
      <trkpt lat="44.5184" lon="6.14297">
        <ele>1090.4000244141</ele>
        <time>2016-07-15T10:37:05.000Z</time>
      </trkpt>
      <trkpt lat="44.5184" lon="6.14299">
        <ele>1090.1999511719</ele>
        <time>2016-07-15T10:37:06.000Z</time>
      </trkpt>
      <trkpt lat="44.5184" lon="6.14303">
        <ele>1089.8000488281</ele>
        <time>2016-07-15T10:37:15.000Z</time>
      </trkpt>
      <trkpt lat="44.5184" lon="6.14314">
        <ele>1088.4000244141</ele>
        <time>2016-07-15T10:37:21.000Z</time>
      </trkpt>
      <trkpt lat="44.51838" lon="6.14323">
        <ele>1084.5999755859</ele>
        <time>2016-07-15T10:37:27.000Z</time>
      </trkpt>
      <trkpt lat="44.51838" lon="6.14334">
        <ele>1081.4000244141</ele>
        <time>2016-07-15T10:37:34.000Z</time>
      </trkpt>
      <trkpt lat="44.51842" lon="6.14346">
        <ele>1080</ele>
        <time>2016-07-15T10:37:43.000Z</time>
      </trkpt>
      <trkpt lat="44.51848" lon="6.14355">
        <ele>1080.8000488281</ele>
        <time>2016-07-15T10:37:51.000Z</time>
      </trkpt>
      <trkpt lat="44.51852" lon="6.14364">
        <ele>1080.5999755859</ele>
        <time>2016-07-15T10:37:59.000Z</time>
      </trkpt>
      <trkpt lat="44.5186" lon="6.14373">
        <ele>1082</ele>
        <time>2016-07-15T10:38:07.000Z</time>
      </trkpt>
      <trkpt lat="44.51866" lon="6.14382">
        <ele>1082.8000488281</ele>
        <time>2016-07-15T10:38:15.000Z</time>
      </trkpt>
      <trkpt lat="44.51873" lon="6.14388">
        <ele>1085.1999511719</ele>
        <time>2016-07-15T10:38:24.000Z</time>
      </trkpt>
      <trkpt lat="44.5188" lon="6.14398">
        <ele>1084.8000488281</ele>
        <time>2016-07-15T10:38:34.000Z</time>
      </trkpt>
      <trkpt lat="44.51886" lon="6.14405">
        <ele>1084</ele>
        <time>2016-07-15T10:38:41.000Z</time>
      </trkpt>
      <trkpt lat="44.51887" lon="6.14405">
        <ele>1084</ele>
        <time>2016-07-15T10:38:42.000Z</time>
      </trkpt>
      <trkpt lat="44.51894" lon="6.14414">
        <ele>1082.8000488281</ele>
        <time>2016-07-15T10:38:50.000Z</time>
      </trkpt>
      <trkpt lat="44.519" lon="6.14423">
        <ele>1080.5999755859</ele>
        <time>2016-07-15T10:38:58.000Z</time>
      </trkpt>
      <trkpt lat="44.51904" lon="6.14427">
        <ele>1079.5999755859</ele>
        <time>2016-07-15T10:39:02.000Z</time>
      </trkpt>
      <trkpt lat="44.51905" lon="6.14437">
        <ele>1075</ele>
        <time>2016-07-15T10:39:11.000Z</time>
      </trkpt>
      <trkpt lat="44.51905" lon="6.1444">
        <ele>1073.5999755859</ele>
        <time>2016-07-15T10:39:18.000Z</time>
      </trkpt>
      <trkpt lat="44.51906" lon="6.1444">
        <ele>1074</ele>
        <time>2016-07-15T10:39:26.000Z</time>
      </trkpt>
      <trkpt lat="44.51905" lon="6.1444">
        <ele>1073.5999755859</ele>
        <time>2016-07-15T10:40:09.000Z</time>
      </trkpt>
      <trkpt lat="44.5191" lon="6.1444">
        <ele>1075.5999755859</ele>
        <time>2016-07-15T10:40:25.000Z</time>
      </trkpt>
      <trkpt lat="44.51913" lon="6.1444">
        <ele>1076.4000244141</ele>
        <time>2016-07-15T10:40:30.000Z</time>
      </trkpt>
      <trkpt lat="44.51917" lon="6.14441">
        <ele>1078.4000244141</ele>
        <time>2016-07-15T10:40:35.000Z</time>
      </trkpt>
      <trkpt lat="44.51918" lon="6.14441">
        <ele>1079.1999511719</ele>
        <time>2016-07-15T10:40:36.000Z</time>
      </trkpt>
      <trkpt lat="44.51925" lon="6.14441">
        <ele>1083</ele>
        <time>2016-07-15T10:40:41.000Z</time>
      </trkpt>
      <trkpt lat="44.51926" lon="6.14441">
        <ele>1083.4000244141</ele>
        <time>2016-07-15T10:40:42.000Z</time>
      </trkpt>
      <trkpt lat="44.51931" lon="6.14441">
        <ele>1086.5999755859</ele>
        <time>2016-07-15T10:40:48.000Z</time>
      </trkpt>
      <trkpt lat="44.51936" lon="6.1444">
        <ele>1089.5999755859</ele>
        <time>2016-07-15T10:40:54.000Z</time>
      </trkpt>
      <trkpt lat="44.51941" lon="6.14441">
        <ele>1091.8000488281</ele>
        <time>2016-07-15T10:41:01.000Z</time>
      </trkpt>
      <trkpt lat="44.51939" lon="6.14445">
        <ele>1088.1999511719</ele>
        <time>2016-07-15T10:41:05.000Z</time>
      </trkpt>
      <trkpt lat="44.51938" lon="6.14446">
        <ele>1087.4000244141</ele>
        <time>2016-07-15T10:41:06.000Z</time>
      </trkpt>
      <trkpt lat="44.51934" lon="6.14454">
        <ele>1079.8000488281</ele>
        <time>2016-07-15T10:41:14.000Z</time>
      </trkpt>
      <trkpt lat="44.51933" lon="6.14456">
        <ele>1077.8000488281</ele>
        <time>2016-07-15T10:41:16.000Z</time>
      </trkpt>
      <trkpt lat="44.51929" lon="6.14462">
        <ele>1073</ele>
        <time>2016-07-15T10:41:25.000Z</time>
      </trkpt>
      <trkpt lat="44.51926" lon="6.14468">
        <ele>1069.4000244141</ele>
        <time>2016-07-15T10:41:32.000Z</time>
      </trkpt>
      <trkpt lat="44.5193" lon="6.14467">
        <ele>1071</ele>
        <time>2016-07-15T10:41:36.000Z</time>
      </trkpt>
      <trkpt lat="44.51931" lon="6.14467">
        <ele>1071.5999755859</ele>
        <time>2016-07-15T10:41:37.000Z</time>
      </trkpt>
      <trkpt lat="44.51934" lon="6.14466">
        <ele>1073</ele>
        <time>2016-07-15T10:41:43.000Z</time>
      </trkpt>
      <trkpt lat="44.51929" lon="6.14474">
        <ele>1067.5999755859</ele>
        <time>2016-07-15T10:41:51.000Z</time>
      </trkpt>
      <trkpt lat="44.51925" lon="6.14478">
        <ele>1064.1999511719</ele>
        <time>2016-07-15T10:41:56.000Z</time>
      </trkpt>
      <trkpt lat="44.51925" lon="6.14479">
        <ele>1063.5999755859</ele>
        <time>2016-07-15T10:41:57.000Z</time>
      </trkpt>
      <trkpt lat="44.51928" lon="6.14479">
        <ele>1065.1999511719</ele>
        <time>2016-07-15T10:42:04.000Z</time>
      </trkpt>
      <trkpt lat="44.51932" lon="6.14478">
        <ele>1067</ele>
        <time>2016-07-15T10:42:08.000Z</time>
      </trkpt>
      <trkpt lat="44.51936" lon="6.14477">
        <ele>1068.5999755859</ele>
        <time>2016-07-15T10:42:13.000Z</time>
      </trkpt>
      <trkpt lat="44.51938" lon="6.14476">
        <ele>1070</ele>
        <time>2016-07-15T10:42:16.000Z</time>
      </trkpt>
      <trkpt lat="44.51938" lon="6.14475">
        <ele>1070.8000488281</ele>
        <time>2016-07-15T10:42:18.000Z</time>
      </trkpt>
      <trkpt lat="44.51952" lon="6.14473">
        <ele>1076.8000488281</ele>
        <time>2016-07-15T10:42:27.000Z</time>
      </trkpt>
      <trkpt lat="44.51957" lon="6.14473">
        <ele>1076.1999511719</ele>
        <time>2016-07-15T10:42:31.000Z</time>
      </trkpt>
      <trkpt lat="44.5196" lon="6.14473">
        <ele>1075.8000488281</ele>
        <time>2016-07-15T10:42:34.000Z</time>
      </trkpt>
      <trkpt lat="44.51967" lon="6.14473">
        <ele>1075.4000244141</ele>
        <time>2016-07-15T10:42:39.000Z</time>
      </trkpt>
      <trkpt lat="44.5197" lon="6.14472">
        <ele>1075.5999755859</ele>
        <time>2016-07-15T10:42:42.000Z</time>
      </trkpt>
      <trkpt lat="44.51974" lon="6.1447">
        <ele>1076.4000244141</ele>
        <time>2016-07-15T10:42:47.000Z</time>
      </trkpt>
      <trkpt lat="44.51973" lon="6.14468">
        <ele>1077.8000488281</ele>
        <time>2016-07-15T10:42:57.000Z</time>
      </trkpt>
      <trkpt lat="44.51977" lon="6.14465">
        <ele>1079.4000244141</ele>
        <time>2016-07-15T10:43:02.000Z</time>
      </trkpt>
      <trkpt lat="44.51979" lon="6.14465">
        <ele>1079.1999511719</ele>
        <time>2016-07-15T10:43:04.000Z</time>
      </trkpt>
      <trkpt lat="44.51978" lon="6.14469">
        <ele>1077</ele>
        <time>2016-07-15T10:43:09.000Z</time>
      </trkpt>
      <trkpt lat="44.51974" lon="6.14473">
        <ele>1074.4000244141</ele>
        <time>2016-07-15T10:43:14.000Z</time>
      </trkpt>
      <trkpt lat="44.51973" lon="6.14475">
        <ele>1073.5999755859</ele>
        <time>2016-07-15T10:43:16.000Z</time>
      </trkpt>
      <trkpt lat="44.51967" lon="6.14481">
        <ele>1071.1999511719</ele>
        <time>2016-07-15T10:43:23.000Z</time>
      </trkpt>
      <trkpt lat="44.51966" lon="6.14482">
        <ele>1070.8000488281</ele>
        <time>2016-07-15T10:43:24.000Z</time>
      </trkpt>
      <trkpt lat="44.5196" lon="6.1449">
        <ele>1068</ele>
        <time>2016-07-15T10:43:31.000Z</time>
      </trkpt>
      <trkpt lat="44.51955" lon="6.14498">
        <ele>1064.5999755859</ele>
        <time>2016-07-15T10:43:38.000Z</time>
      </trkpt>
      <trkpt lat="44.51951" lon="6.14503">
        <ele>1062.1999511719</ele>
        <time>2016-07-15T10:43:42.000Z</time>
      </trkpt>
      <trkpt lat="44.51946" lon="6.14512">
        <ele>1056</ele>
        <time>2016-07-15T10:43:49.000Z</time>
      </trkpt>
      <trkpt lat="44.51941" lon="6.14518">
        <ele>1051.4000244141</ele>
        <time>2016-07-15T10:43:54.000Z</time>
      </trkpt>
      <trkpt lat="44.51936" lon="6.14526">
        <ele>1046.1999511719</ele>
        <time>2016-07-15T10:44:00.000Z</time>
      </trkpt>
      <trkpt lat="44.51931" lon="6.14537">
        <ele>1039.4000244141</ele>
        <time>2016-07-15T10:44:08.000Z</time>
      </trkpt>
      <trkpt lat="44.51931" lon="6.14539">
        <ele>1038</ele>
        <time>2016-07-15T10:44:10.000Z</time>
      </trkpt>
      <trkpt lat="44.51933" lon="6.14545">
        <ele>1036.1999511719</ele>
        <time>2016-07-15T10:44:15.000Z</time>
      </trkpt>
      <trkpt lat="44.51937" lon="6.14557">
        <ele>1033.8000488281</ele>
        <time>2016-07-15T10:44:24.000Z</time>
      </trkpt>
      <trkpt lat="44.51939" lon="6.14565">
        <ele>1031.8000488281</ele>
        <time>2016-07-15T10:44:31.000Z</time>
      </trkpt>
      <trkpt lat="44.5194" lon="6.14566">
        <ele>1031.4000244141</ele>
        <time>2016-07-15T10:44:32.000Z</time>
      </trkpt>
      <trkpt lat="44.51942" lon="6.14571">
        <ele>1030</ele>
        <time>2016-07-15T10:44:37.000Z</time>
      </trkpt>
      <trkpt lat="44.51943" lon="6.14574">
        <ele>1029.1999511719</ele>
        <time>2016-07-15T10:44:40.000Z</time>
      </trkpt>
      <trkpt lat="44.51945" lon="6.1458">
        <ele>1027.4000244141</ele>
        <time>2016-07-15T10:44:46.000Z</time>
      </trkpt>
      <trkpt lat="44.51949" lon="6.14585">
        <ele>1026.1999511719</ele>
        <time>2016-07-15T10:44:52.000Z</time>
      </trkpt>
      <trkpt lat="44.51949" lon="6.14589">
        <ele>1024.8000488281</ele>
        <time>2016-07-15T10:44:55.000Z</time>
      </trkpt>
      <trkpt lat="44.51954" lon="6.14597">
        <ele>1022.799987793</ele>
        <time>2016-07-15T10:45:02.000Z</time>
      </trkpt>
      <trkpt lat="44.51958" lon="6.14604">
        <ele>1021</ele>
        <time>2016-07-15T10:45:07.000Z</time>
      </trkpt>
      <trkpt lat="44.5196" lon="6.1461">
        <ele>1019.200012207</ele>
        <time>2016-07-15T10:45:11.000Z</time>
      </trkpt>
      <trkpt lat="44.51966" lon="6.14624">
        <ele>1015.4000244141</ele>
        <time>2016-07-15T10:45:21.000Z</time>
      </trkpt>
      <trkpt lat="44.51966" lon="6.14625">
        <ele>1015.200012207</ele>
        <time>2016-07-15T10:45:22.000Z</time>
      </trkpt>
      <trkpt lat="44.51967" lon="6.14626">
        <ele>1014.799987793</ele>
        <time>2016-07-15T10:45:23.000Z</time>
      </trkpt>
      <trkpt lat="44.51973" lon="6.14632">
        <ele>1013.799987793</ele>
        <time>2016-07-15T10:45:29.000Z</time>
      </trkpt>
      <trkpt lat="44.51976" lon="6.14639">
        <ele>1011.799987793</ele>
        <time>2016-07-15T10:45:35.000Z</time>
      </trkpt>
      <trkpt lat="44.51976" lon="6.14641">
        <ele>1011.200012207</ele>
        <time>2016-07-15T10:45:36.000Z</time>
      </trkpt>
      <trkpt lat="44.51978" lon="6.14646">
        <ele>1009.5999755859</ele>
        <time>2016-07-15T10:45:41.000Z</time>
      </trkpt>
      <trkpt lat="44.51979" lon="6.14651">
        <ele>1008.4000244141</ele>
        <time>2016-07-15T10:45:47.000Z</time>
      </trkpt>
      <trkpt lat="44.51978" lon="6.14651">
        <ele>1008</ele>
        <time>2016-07-15T10:45:59.000Z</time>
      </trkpt>
      <trkpt lat="44.51977" lon="6.14654">
        <ele>1007.200012207</ele>
        <time>2016-07-15T10:46:42.000Z</time>
      </trkpt>
      <trkpt lat="44.51979" lon="6.14658">
        <ele>1006</ele>
        <time>2016-07-15T10:48:39.000Z</time>
      </trkpt>
      <trkpt lat="44.51978" lon="6.14658">
        <ele>1006</ele>
        <time>2016-07-15T10:48:44.000Z</time>
      </trkpt>
      <trkpt lat="44.51981" lon="6.14659">
        <ele>1006.200012207</ele>
        <time>2016-07-15T10:49:28.000Z</time>
      </trkpt>
      <trkpt lat="44.5198" lon="6.14658">
        <ele>1006.4000244141</ele>
        <time>2016-07-15T10:51:21.000Z</time>
      </trkpt>
      <trkpt lat="44.51979" lon="6.14658">
        <ele>1006.200012207</ele>
        <time>2016-07-15T10:51:28.000Z</time>
      </trkpt>
      <trkpt lat="44.51978" lon="6.14657">
        <ele>1006.4000244141</ele>
        <time>2016-07-15T10:51:50.000Z</time>
      </trkpt>
      <trkpt lat="44.51978" lon="6.14655">
        <ele>1006.799987793</ele>
        <time>2016-07-15T10:53:06.000Z</time>
      </trkpt>
      <trkpt lat="44.51977" lon="6.14653">
        <ele>1007.5999755859</ele>
        <time>2016-07-15T10:53:10.000Z</time>
      </trkpt>
      <trkpt lat="44.51974" lon="6.14643">
        <ele>1010</ele>
        <time>2016-07-15T10:53:17.000Z</time>
      </trkpt>
      <trkpt lat="44.51974" lon="6.1464">
        <ele>1011</ele>
        <time>2016-07-15T10:53:19.000Z</time>
      </trkpt>
      <trkpt lat="44.51968" lon="6.14633">
        <ele>1012.5999755859</ele>
        <time>2016-07-15T10:53:26.000Z</time>
      </trkpt>
      <trkpt lat="44.51967" lon="6.14631">
        <ele>1013</ele>
        <time>2016-07-15T10:53:27.000Z</time>
      </trkpt>
      <trkpt lat="44.51963" lon="6.14623">
        <ele>1015.200012207</ele>
        <time>2016-07-15T10:53:34.000Z</time>
      </trkpt>
      <trkpt lat="44.5196" lon="6.14617">
        <ele>1016.799987793</ele>
        <time>2016-07-15T10:53:38.000Z</time>
      </trkpt>
      <trkpt lat="44.51956" lon="6.1461">
        <ele>1018.799987793</ele>
        <time>2016-07-15T10:53:45.000Z</time>
      </trkpt>
      <trkpt lat="44.51951" lon="6.14603">
        <ele>1020.5999755859</ele>
        <time>2016-07-15T10:53:51.000Z</time>
      </trkpt>
      <trkpt lat="44.51948" lon="6.14595">
        <ele>1022.5999755859</ele>
        <time>2016-07-15T10:53:57.000Z</time>
      </trkpt>
      <trkpt lat="44.51947" lon="6.14594">
        <ele>1022.799987793</ele>
        <time>2016-07-15T10:53:58.000Z</time>
      </trkpt>
      <trkpt lat="44.51946" lon="6.1459">
        <ele>1024</ele>
        <time>2016-07-15T10:54:02.000Z</time>
      </trkpt>
      <trkpt lat="44.51944" lon="6.14586">
        <ele>1025</ele>
        <time>2016-07-15T10:54:06.000Z</time>
      </trkpt>
      <trkpt lat="44.51943" lon="6.14585">
        <ele>1025.5999755859</ele>
        <time>2016-07-15T10:54:08.000Z</time>
      </trkpt>
      <trkpt lat="44.51939" lon="6.14577">
        <ele>1027.4000244141</ele>
        <time>2016-07-15T10:54:16.000Z</time>
      </trkpt>
      <trkpt lat="44.51936" lon="6.14573">
        <ele>1028.4000244141</ele>
        <time>2016-07-15T10:54:21.000Z</time>
      </trkpt>
      <trkpt lat="44.51935" lon="6.14568">
        <ele>1029.8000488281</ele>
        <time>2016-07-15T10:54:25.000Z</time>
      </trkpt>
      <trkpt lat="44.51936" lon="6.14571">
        <ele>1029</ele>
        <time>2016-07-15T10:54:30.000Z</time>
      </trkpt>
      <trkpt lat="44.51936" lon="6.14568">
        <ele>1030.1999511719</ele>
        <time>2016-07-15T10:54:35.000Z</time>
      </trkpt>
      <trkpt lat="44.51936" lon="6.14556">
        <ele>1033.8000488281</ele>
        <time>2016-07-15T10:54:42.000Z</time>
      </trkpt>
      <trkpt lat="44.51936" lon="6.14544">
        <ele>1037.5999755859</ele>
        <time>2016-07-15T10:54:49.000Z</time>
      </trkpt>
      <trkpt lat="44.51939" lon="6.14532">
        <ele>1044.4000244141</ele>
        <time>2016-07-15T10:54:53.000Z</time>
      </trkpt>
      <trkpt lat="44.51941" lon="6.14526">
        <ele>1047.5999755859</ele>
        <time>2016-07-15T10:54:55.000Z</time>
      </trkpt>
      <trkpt lat="44.51943" lon="6.14523">
        <ele>1050</ele>
        <time>2016-07-15T10:54:57.000Z</time>
      </trkpt>
      <trkpt lat="44.51944" lon="6.14513">
        <ele>1055</ele>
        <time>2016-07-15T10:55:03.000Z</time>
      </trkpt>
      <trkpt lat="44.51949" lon="6.14503">
        <ele>1061.4000244141</ele>
        <time>2016-07-15T10:55:10.000Z</time>
      </trkpt>
      <trkpt lat="44.51956" lon="6.14492">
        <ele>1067.1999511719</ele>
        <time>2016-07-15T10:55:20.000Z</time>
      </trkpt>
      <trkpt lat="44.51958" lon="6.14489">
        <ele>1068.4000244141</ele>
        <time>2016-07-15T10:55:22.000Z</time>
      </trkpt>
      <trkpt lat="44.51962" lon="6.14484">
        <ele>1070.4000244141</ele>
        <time>2016-07-15T10:55:26.000Z</time>
      </trkpt>
      <trkpt lat="44.51965" lon="6.14479">
        <ele>1072.1999511719</ele>
        <time>2016-07-15T10:55:30.000Z</time>
      </trkpt>
      <trkpt lat="44.51966" lon="6.14469">
        <ele>1077.8000488281</ele>
        <time>2016-07-15T10:55:36.000Z</time>
      </trkpt>
      <trkpt lat="44.51967" lon="6.14468">
        <ele>1078.5999755859</ele>
        <time>2016-07-15T10:55:37.000Z</time>
      </trkpt>
      <trkpt lat="44.51968" lon="6.14465">
        <ele>1080</ele>
        <time>2016-07-15T10:55:39.000Z</time>
      </trkpt>
      <trkpt lat="44.51968" lon="6.14463">
        <ele>1081.8000488281</ele>
        <time>2016-07-15T10:55:43.000Z</time>
      </trkpt>
      <trkpt lat="44.51967" lon="6.14463">
        <ele>1081.8000488281</ele>
        <time>2016-07-15T10:55:44.000Z</time>
      </trkpt>
      <trkpt lat="44.51966" lon="6.14463">
        <ele>1082</ele>
        <time>2016-07-15T10:55:49.000Z</time>
      </trkpt>
      <trkpt lat="44.51965" lon="6.14462">
        <ele>1082</ele>
        <time>2016-07-15T10:55:58.000Z</time>
      </trkpt>
      <trkpt lat="44.51973" lon="6.1446">
        <ele>1082.5999755859</ele>
        <time>2016-07-15T10:56:30.000Z</time>
      </trkpt>
      <trkpt lat="44.51978" lon="6.14459">
        <ele>1083.1999511719</ele>
        <time>2016-07-15T10:56:52.000Z</time>
      </trkpt>
      <trkpt lat="44.51978" lon="6.1446">
        <ele>1082.4000244141</ele>
        <time>2016-07-15T10:57:08.000Z</time>
      </trkpt>
      <trkpt lat="44.51979" lon="6.14459">
        <ele>1083</ele>
        <time>2016-07-15T10:57:33.000Z</time>
      </trkpt>
      <trkpt lat="44.5198" lon="6.14459">
        <ele>1082.8000488281</ele>
        <time>2016-07-15T10:57:44.000Z</time>
      </trkpt>
      <trkpt lat="44.51978" lon="6.14461">
        <ele>1082</ele>
        <time>2016-07-15T10:57:46.000Z</time>
      </trkpt>
      <trkpt lat="44.51976" lon="6.14462">
        <ele>1081.4000244141</ele>
        <time>2016-07-15T10:57:52.000Z</time>
      </trkpt>
      <trkpt lat="44.51973" lon="6.14461">
        <ele>1082.4000244141</ele>
        <time>2016-07-15T10:58:08.000Z</time>
      </trkpt>
      <trkpt lat="44.51971" lon="6.14459">
        <ele>1083.5999755859</ele>
        <time>2016-07-15T10:58:21.000Z</time>
      </trkpt>
      <trkpt lat="44.5197" lon="6.1446">
        <ele>1083.1999511719</ele>
        <time>2016-07-15T10:58:34.000Z</time>
      </trkpt>
      <trkpt lat="44.51973" lon="6.14461">
        <ele>1082.5999755859</ele>
        <time>2016-07-15T10:59:10.000Z</time>
      </trkpt>
      <trkpt lat="44.51973" lon="6.1446">
        <ele>1082.5999755859</ele>
        <time>2016-07-15T10:59:27.000Z</time>
      </trkpt>
      <trkpt lat="44.51974" lon="6.1446">
        <ele>1082.5999755859</ele>
        <time>2016-07-15T10:59:29.000Z</time>
      </trkpt>
      <trkpt lat="44.51979" lon="6.14461">
        <ele>1081.8000488281</ele>
        <time>2016-07-15T10:59:33.000Z</time>
      </trkpt>
      <trkpt lat="44.51979" lon="6.14462">
        <ele>1081.1999511719</ele>
        <time>2016-07-15T10:59:40.000Z</time>
      </trkpt>
      <trkpt lat="44.51975" lon="6.14464">
        <ele>1080.4000244141</ele>
        <time>2016-07-15T10:59:44.000Z</time>
      </trkpt>
      <trkpt lat="44.51977" lon="6.14466">
        <ele>1078.8000488281</ele>
        <time>2016-07-15T11:00:27.000Z</time>
      </trkpt>
      <trkpt lat="44.51978" lon="6.14468">
        <ele>1077.5999755859</ele>
        <time>2016-07-15T11:00:31.000Z</time>
      </trkpt>
      <trkpt lat="44.51978" lon="6.14467">
        <ele>1077.8000488281</ele>
        <time>2016-07-15T11:00:36.000Z</time>
      </trkpt>
      <trkpt lat="44.51976" lon="6.14466">
        <ele>1078.5999755859</ele>
        <time>2016-07-15T11:00:41.000Z</time>
      </trkpt>
      <trkpt lat="44.51975" lon="6.14466">
        <ele>1078.8000488281</ele>
        <time>2016-07-15T11:00:47.000Z</time>
      </trkpt>
      <trkpt lat="44.51973" lon="6.14468">
        <ele>1077.5999755859</ele>
        <time>2016-07-15T11:00:56.000Z</time>
      </trkpt>
      <trkpt lat="44.51975" lon="6.14468">
        <ele>1078</ele>
        <time>2016-07-15T11:01:00.000Z</time>
      </trkpt>
      <trkpt lat="44.51977" lon="6.14467">
        <ele>1078.1999511719</ele>
        <time>2016-07-15T11:01:24.000Z</time>
      </trkpt>
      <trkpt lat="44.51976" lon="6.14465">
        <ele>1079.8000488281</ele>
        <time>2016-07-15T11:01:39.000Z</time>
      </trkpt>
      <trkpt lat="44.51977" lon="6.14463">
        <ele>1080.4000244141</ele>
        <time>2016-07-15T11:01:47.000Z</time>
      </trkpt>
      <trkpt lat="44.51975" lon="6.14463">
        <ele>1080.5999755859</ele>
        <time>2016-07-15T11:02:17.000Z</time>
      </trkpt>
      <trkpt lat="44.51971" lon="6.14463">
        <ele>1081.4000244141</ele>
        <time>2016-07-15T11:02:50.000Z</time>
      </trkpt>
      <trkpt lat="44.51971" lon="6.14462">
        <ele>1081.5999755859</ele>
        <time>2016-07-15T11:02:54.000Z</time>
      </trkpt>
      <trkpt lat="44.51971" lon="6.14464">
        <ele>1080.8000488281</ele>
        <time>2016-07-15T11:03:00.000Z</time>
      </trkpt>
      <trkpt lat="44.51972" lon="6.14463">
        <ele>1080.8000488281</ele>
        <time>2016-07-15T11:03:14.000Z</time>
      </trkpt>
      <trkpt lat="44.51976" lon="6.14464">
        <ele>1079.8000488281</ele>
        <time>2016-07-15T11:03:18.000Z</time>
      </trkpt>
      <trkpt lat="44.51975" lon="6.14463">
        <ele>1080.5999755859</ele>
        <time>2016-07-15T11:03:27.000Z</time>
      </trkpt>
      <trkpt lat="44.51971" lon="6.14465">
        <ele>1079.5999755859</ele>
        <time>2016-07-15T11:03:51.000Z</time>
      </trkpt>
      <trkpt lat="44.51972" lon="6.14465">
        <ele>1079.8000488281</ele>
        <time>2016-07-15T11:03:55.000Z</time>
      </trkpt>
      <trkpt lat="44.51975" lon="6.14463">
        <ele>1080.8000488281</ele>
        <time>2016-07-15T11:04:09.000Z</time>
      </trkpt>
      <trkpt lat="44.51976" lon="6.14462">
        <ele>1081</ele>
        <time>2016-07-15T11:04:20.000Z</time>
      </trkpt>
      <trkpt lat="44.51975" lon="6.14462">
        <ele>1081.1999511719</ele>
        <time>2016-07-15T11:04:32.000Z</time>
      </trkpt>
      <trkpt lat="44.51977" lon="6.14461">
        <ele>1081.8000488281</ele>
        <time>2016-07-15T11:04:44.000Z</time>
      </trkpt>
      <trkpt lat="44.51978" lon="6.14461">
        <ele>1081.8000488281</ele>
        <time>2016-07-15T11:04:50.000Z</time>
      </trkpt>
      <trkpt lat="44.51979" lon="6.14462">
        <ele>1081.4000244141</ele>
        <time>2016-07-15T11:04:59.000Z</time>
      </trkpt>
      <trkpt lat="44.51975" lon="6.14463">
        <ele>1080.8000488281</ele>
        <time>2016-07-15T11:05:04.000Z</time>
      </trkpt>
      <trkpt lat="44.51975" lon="6.14462">
        <ele>1081.4000244141</ele>
        <time>2016-07-15T11:05:14.000Z</time>
      </trkpt>
      <trkpt lat="44.51976" lon="6.14462">
        <ele>1081.1999511719</ele>
        <time>2016-07-15T11:05:18.000Z</time>
      </trkpt>
      <trkpt lat="44.51977" lon="6.14462">
        <ele>1081.1999511719</ele>
        <time>2016-07-15T11:05:22.000Z</time>
      </trkpt>
      <trkpt lat="44.51976" lon="6.14462">
        <ele>1081.1999511719</ele>
        <time>2016-07-15T11:05:29.000Z</time>
      </trkpt>
      <trkpt lat="44.51974" lon="6.1446">
        <ele>1082.8000488281</ele>
        <time>2016-07-15T11:05:42.000Z</time>
      </trkpt>
      <trkpt lat="44.51972" lon="6.14462">
        <ele>1082</ele>
        <time>2016-07-15T11:05:46.000Z</time>
      </trkpt>
      <trkpt lat="44.51968" lon="6.14465">
        <ele>1080.4000244141</ele>
        <time>2016-07-15T11:05:51.000Z</time>
      </trkpt>
      <trkpt lat="44.51967" lon="6.14465">
        <ele>1080.5999755859</ele>
        <time>2016-07-15T11:05:58.000Z</time>
      </trkpt>
      <trkpt lat="44.51966" lon="6.14464">
        <ele>1080.8000488281</ele>
        <time>2016-07-15T11:06:07.000Z</time>
      </trkpt>
      <trkpt lat="44.5196" lon="6.14466">
        <ele>1080</ele>
        <time>2016-07-15T11:06:18.000Z</time>
      </trkpt>
      <trkpt lat="44.51951" lon="6.14469">
        <ele>1079</ele>
        <time>2016-07-15T11:06:25.000Z</time>
      </trkpt>
      <trkpt lat="44.51945" lon="6.14471">
        <ele>1075.1999511719</ele>
        <time>2016-07-15T11:06:30.000Z</time>
      </trkpt>
      <trkpt lat="44.51944" lon="6.14472">
        <ele>1074.1999511719</ele>
        <time>2016-07-15T11:06:31.000Z</time>
      </trkpt>
      <trkpt lat="44.51939" lon="6.14473">
        <ele>1072</ele>
        <time>2016-07-15T11:06:35.000Z</time>
      </trkpt>
      <trkpt lat="44.51931" lon="6.14474">
        <ele>1068.4000244141</ele>
        <time>2016-07-15T11:06:41.000Z</time>
      </trkpt>
      <trkpt lat="44.51926" lon="6.14476">
        <ele>1065.5999755859</ele>
        <time>2016-07-15T11:06:45.000Z</time>
      </trkpt>
      <trkpt lat="44.51927" lon="6.14472">
        <ele>1067.5999755859</ele>
        <time>2016-07-15T11:06:50.000Z</time>
      </trkpt>
      <trkpt lat="44.51929" lon="6.14468">
        <ele>1070.1999511719</ele>
        <time>2016-07-15T11:06:53.000Z</time>
      </trkpt>
      <trkpt lat="44.51934" lon="6.14461">
        <ele>1075</ele>
        <time>2016-07-15T11:07:00.000Z</time>
      </trkpt>
      <trkpt lat="44.51934" lon="6.1446">
        <ele>1075.5999755859</ele>
        <time>2016-07-15T11:07:01.000Z</time>
      </trkpt>
      <trkpt lat="44.51931" lon="6.14462">
        <ele>1073.5999755859</ele>
        <time>2016-07-15T11:07:06.000Z</time>
      </trkpt>
      <trkpt lat="44.51928" lon="6.14462">
        <ele>1072.5999755859</ele>
        <time>2016-07-15T11:07:08.000Z</time>
      </trkpt>
      <trkpt lat="44.51926" lon="6.1446">
        <ele>1072.8000488281</ele>
        <time>2016-07-15T11:07:11.000Z</time>
      </trkpt>
      <trkpt lat="44.5193" lon="6.14454">
        <ele>1077.1999511719</ele>
        <time>2016-07-15T11:07:18.000Z</time>
      </trkpt>
      <trkpt lat="44.51931" lon="6.1445">
        <ele>1080.1999511719</ele>
        <time>2016-07-15T11:07:23.000Z</time>
      </trkpt>
      <trkpt lat="44.51933" lon="6.14446">
        <ele>1084.5999755859</ele>
        <time>2016-07-15T11:07:28.000Z</time>
      </trkpt>
      <trkpt lat="44.51935" lon="6.1444">
        <ele>1089.4000244141</ele>
        <time>2016-07-15T11:07:32.000Z</time>
      </trkpt>
      <trkpt lat="44.51931" lon="6.1444">
        <ele>1086.8000488281</ele>
        <time>2016-07-15T11:07:38.000Z</time>
      </trkpt>
      <trkpt lat="44.51924" lon="6.14441">
        <ele>1082.5999755859</ele>
        <time>2016-07-15T11:07:45.000Z</time>
      </trkpt>
      <trkpt lat="44.51919" lon="6.1444">
        <ele>1080.1999511719</ele>
        <time>2016-07-15T11:07:50.000Z</time>
      </trkpt>
      <trkpt lat="44.51918" lon="6.1444">
        <ele>1079.4000244141</ele>
        <time>2016-07-15T11:07:51.000Z</time>
      </trkpt>
      <trkpt lat="44.51914" lon="6.14441">
        <ele>1076.4000244141</ele>
        <time>2016-07-15T11:07:56.000Z</time>
      </trkpt>
      <trkpt lat="44.5191" lon="6.14442">
        <ele>1074.5999755859</ele>
        <time>2016-07-15T11:08:00.000Z</time>
      </trkpt>
      <trkpt lat="44.51907" lon="6.14444">
        <ele>1072.8000488281</ele>
        <time>2016-07-15T11:08:07.000Z</time>
      </trkpt>
      <trkpt lat="44.51904" lon="6.14442">
        <ele>1072.5999755859</ele>
        <time>2016-07-15T11:08:14.000Z</time>
      </trkpt>
      <trkpt lat="44.51903" lon="6.14441">
        <ele>1072.5999755859</ele>
        <time>2016-07-15T11:08:16.000Z</time>
      </trkpt>
      <trkpt lat="44.51902" lon="6.14428">
        <ele>1077.8000488281</ele>
        <time>2016-07-15T11:08:26.000Z</time>
      </trkpt>
      <trkpt lat="44.51899" lon="6.14423">
        <ele>1079.1999511719</ele>
        <time>2016-07-15T11:08:33.000Z</time>
      </trkpt>
      <trkpt lat="44.51895" lon="6.14417">
        <ele>1081.1999511719</ele>
        <time>2016-07-15T11:08:39.000Z</time>
      </trkpt>
      <trkpt lat="44.5189" lon="6.14408">
        <ele>1083.8000488281</ele>
        <time>2016-07-15T11:08:47.000Z</time>
      </trkpt>
      <trkpt lat="44.51881" lon="6.144">
        <ele>1084.4000244141</ele>
        <time>2016-07-15T11:08:56.000Z</time>
      </trkpt>
      <trkpt lat="44.51874" lon="6.14389">
        <ele>1085.5999755859</ele>
        <time>2016-07-15T11:09:06.000Z</time>
      </trkpt>
      <trkpt lat="44.51872" lon="6.14386">
        <ele>1085.4000244141</ele>
        <time>2016-07-15T11:09:09.000Z</time>
      </trkpt>
      <trkpt lat="44.51865" lon="6.14376">
        <ele>1084</ele>
        <time>2016-07-15T11:09:19.000Z</time>
      </trkpt>
      <trkpt lat="44.51857" lon="6.14365">
        <ele>1083.1999511719</ele>
        <time>2016-07-15T11:09:28.000Z</time>
      </trkpt>
      <trkpt lat="44.51852" lon="6.14355">
        <ele>1083</ele>
        <time>2016-07-15T11:09:35.000Z</time>
      </trkpt>
      <trkpt lat="44.51849" lon="6.14348">
        <ele>1083</ele>
        <time>2016-07-15T11:09:41.000Z</time>
      </trkpt>
      <trkpt lat="44.51847" lon="6.14347">
        <ele>1082.8000488281</ele>
        <time>2016-07-15T11:09:43.000Z</time>
      </trkpt>
      <trkpt lat="44.51846" lon="6.14344">
        <ele>1083.1999511719</ele>
        <time>2016-07-15T11:09:48.000Z</time>
      </trkpt>
      <trkpt lat="44.51844" lon="6.14338">
        <ele>1083.8000488281</ele>
        <time>2016-07-15T11:09:55.000Z</time>
      </trkpt>
      <trkpt lat="44.51842" lon="6.14329">
        <ele>1085</ele>
        <time>2016-07-15T11:10:00.000Z</time>
      </trkpt>
      <trkpt lat="44.51842" lon="6.14316">
        <ele>1089</ele>
        <time>2016-07-15T11:10:08.000Z</time>
      </trkpt>
      <trkpt lat="44.51842" lon="6.14303">
        <ele>1090.8000488281</ele>
        <time>2016-07-15T11:10:16.000Z</time>
      </trkpt>
      <trkpt lat="44.51842" lon="6.14302">
        <ele>1090.8000488281</ele>
        <time>2016-07-15T11:10:17.000Z</time>
      </trkpt>
      <trkpt lat="44.51843" lon="6.1429">
        <ele>1092</ele>
        <time>2016-07-15T11:10:24.000Z</time>
      </trkpt>
      <trkpt lat="44.51843" lon="6.1428">
        <ele>1092.5999755859</ele>
        <time>2016-07-15T11:10:30.000Z</time>
      </trkpt>
      <trkpt lat="44.51845" lon="6.14271">
        <ele>1093.1999511719</ele>
        <time>2016-07-15T11:10:36.000Z</time>
      </trkpt>
      <trkpt lat="44.51848" lon="6.14259">
        <ele>1095</ele>
        <time>2016-07-15T11:10:44.000Z</time>
      </trkpt>
      <trkpt lat="44.51851" lon="6.14252">
        <ele>1096.4000244141</ele>
        <time>2016-07-15T11:10:49.000Z</time>
      </trkpt>
      <trkpt lat="44.51852" lon="6.14253">
        <ele>1097</ele>
        <time>2016-07-15T11:12:00.000Z</time>
      </trkpt>
      <trkpt lat="44.51853" lon="6.1425">
        <ele>1097.4000244141</ele>
        <time>2016-07-15T11:12:04.000Z</time>
      </trkpt>
      <trkpt lat="44.51853" lon="6.14241">
        <ele>1097.8000488281</ele>
        <time>2016-07-15T11:12:09.000Z</time>
      </trkpt>
      <trkpt lat="44.51852" lon="6.14239">
        <ele>1097.4000244141</ele>
        <time>2016-07-15T11:12:12.000Z</time>
      </trkpt>
      <trkpt lat="44.51849" lon="6.1424">
        <ele>1095.4000244141</ele>
        <time>2016-07-15T11:12:17.000Z</time>
      </trkpt>
      <trkpt lat="44.51845" lon="6.14243">
        <ele>1093.5999755859</ele>
        <time>2016-07-15T11:12:22.000Z</time>
      </trkpt>
      <trkpt lat="44.51841" lon="6.14247">
        <ele>1091.1999511719</ele>
        <time>2016-07-15T11:12:29.000Z</time>
      </trkpt>
      <trkpt lat="44.51837" lon="6.14252">
        <ele>1089.4000244141</ele>
        <time>2016-07-15T11:12:35.000Z</time>
      </trkpt>
      <trkpt lat="44.51834" lon="6.14255">
        <ele>1087.8000488281</ele>
        <time>2016-07-15T11:12:39.000Z</time>
      </trkpt>
      <trkpt lat="44.51831" lon="6.14255">
        <ele>1086</ele>
        <time>2016-07-15T11:12:44.000Z</time>
      </trkpt>
      <trkpt lat="44.51831" lon="6.14253">
        <ele>1086</ele>
        <time>2016-07-15T11:12:45.000Z</time>
      </trkpt>
      <trkpt lat="44.51832" lon="6.14241">
        <ele>1086.8000488281</ele>
        <time>2016-07-15T11:12:53.000Z</time>
      </trkpt>
      <trkpt lat="44.51833" lon="6.14232">
        <ele>1087</ele>
        <time>2016-07-15T11:12:59.000Z</time>
      </trkpt>
      <trkpt lat="44.51833" lon="6.14227">
        <ele>1087</ele>
        <time>2016-07-15T11:13:03.000Z</time>
      </trkpt>
      <trkpt lat="44.51835" lon="6.14219">
        <ele>1088</ele>
        <time>2016-07-15T11:13:10.000Z</time>
      </trkpt>
      <trkpt lat="44.51836" lon="6.14218">
        <ele>1088.1999511719</ele>
        <time>2016-07-15T11:13:11.000Z</time>
      </trkpt>
      <trkpt lat="44.51838" lon="6.14207">
        <ele>1089.1999511719</ele>
        <time>2016-07-15T11:13:19.000Z</time>
      </trkpt>
      <trkpt lat="44.51843" lon="6.14198">
        <ele>1090.4000244141</ele>
        <time>2016-07-15T11:13:26.000Z</time>
      </trkpt>
      <trkpt lat="44.51844" lon="6.14197">
        <ele>1090.4000244141</ele>
        <time>2016-07-15T11:13:27.000Z</time>
      </trkpt>
      <trkpt lat="44.51847" lon="6.14188">
        <ele>1089.5999755859</ele>
        <time>2016-07-15T11:13:34.000Z</time>
      </trkpt>
      <trkpt lat="44.51849" lon="6.1418">
        <ele>1089</ele>
        <time>2016-07-15T11:13:41.000Z</time>
      </trkpt>
      <trkpt lat="44.51851" lon="6.14178">
        <ele>1089</ele>
        <time>2016-07-15T11:13:43.000Z</time>
      </trkpt>
      <trkpt lat="44.51855" lon="6.14164">
        <ele>1087.8000488281</ele>
        <time>2016-07-15T11:13:51.000Z</time>
      </trkpt>
      <trkpt lat="44.51857" lon="6.14161">
        <ele>1087.8000488281</ele>
        <time>2016-07-15T11:13:53.000Z</time>
      </trkpt>
      <trkpt lat="44.51862" lon="6.14156">
        <ele>1088.5999755859</ele>
        <time>2016-07-15T11:13:59.000Z</time>
      </trkpt>
      <trkpt lat="44.51863" lon="6.14155">
        <ele>1088.5999755859</ele>
        <time>2016-07-15T11:14:00.000Z</time>
      </trkpt>
      <trkpt lat="44.51868" lon="6.14148">
        <ele>1089.1999511719</ele>
        <time>2016-07-15T11:14:06.000Z</time>
      </trkpt>
      <trkpt lat="44.51872" lon="6.14144">
        <ele>1089</ele>
        <time>2016-07-15T11:14:13.000Z</time>
      </trkpt>
      <trkpt lat="44.51872" lon="6.14143">
        <ele>1089</ele>
        <time>2016-07-15T11:14:14.000Z</time>
      </trkpt>
      <trkpt lat="44.51875" lon="6.14138">
        <ele>1088.8000488281</ele>
        <time>2016-07-15T11:14:20.000Z</time>
      </trkpt>
      <trkpt lat="44.51877" lon="6.14134">
        <ele>1088.5999755859</ele>
        <time>2016-07-15T11:14:23.000Z</time>
      </trkpt>
      <trkpt lat="44.51881" lon="6.14127">
        <ele>1088.5999755859</ele>
        <time>2016-07-15T11:14:31.000Z</time>
      </trkpt>
      <trkpt lat="44.51885" lon="6.14124">
        <ele>1089</ele>
        <time>2016-07-15T11:14:36.000Z</time>
      </trkpt>
      <trkpt lat="44.51884" lon="6.14122">
        <ele>1088.5999755859</ele>
        <time>2016-07-15T11:14:38.000Z</time>
      </trkpt>
      <trkpt lat="44.51884" lon="6.14121">
        <ele>1088.4000244141</ele>
        <time>2016-07-15T11:14:39.000Z</time>
      </trkpt>
      <trkpt lat="44.51879" lon="6.14122">
        <ele>1087.5999755859</ele>
        <time>2016-07-15T11:14:45.000Z</time>
      </trkpt>
      <trkpt lat="44.51877" lon="6.14119">
        <ele>1086.8000488281</ele>
        <time>2016-07-15T11:14:51.000Z</time>
      </trkpt>
      <trkpt lat="44.51882" lon="6.14115">
        <ele>1087.1999511719</ele>
        <time>2016-07-15T11:14:57.000Z</time>
      </trkpt>
      <trkpt lat="44.51886" lon="6.14115">
        <ele>1088</ele>
        <time>2016-07-15T11:15:01.000Z</time>
      </trkpt>
      <trkpt lat="44.5189" lon="6.14115">
        <ele>1089</ele>
        <time>2016-07-15T11:15:06.000Z</time>
      </trkpt>
      <trkpt lat="44.51893" lon="6.14113">
        <ele>1089.1999511719</ele>
        <time>2016-07-15T11:15:10.000Z</time>
      </trkpt>
      <trkpt lat="44.51894" lon="6.14112">
        <ele>1089.1999511719</ele>
        <time>2016-07-15T11:15:11.000Z</time>
      </trkpt>
      <trkpt lat="44.51895" lon="6.14109">
        <ele>1089</ele>
        <time>2016-07-15T11:15:14.000Z</time>
      </trkpt>
      <trkpt lat="44.51892" lon="6.14101">
        <ele>1087.4000244141</ele>
        <time>2016-07-15T11:15:22.000Z</time>
      </trkpt>
      <trkpt lat="44.51893" lon="6.14102">
        <ele>1087.8000488281</ele>
        <time>2016-07-15T11:15:24.000Z</time>
      </trkpt>
      <trkpt lat="44.51893" lon="6.14104">
        <ele>1088</ele>
        <time>2016-07-15T11:15:29.000Z</time>
      </trkpt>
      <trkpt lat="44.51893" lon="6.141">
        <ele>1087.5999755859</ele>
        <time>2016-07-15T11:15:35.000Z</time>
      </trkpt>
      <trkpt lat="44.5189" lon="6.14096">
        <ele>1086.4000244141</ele>
        <time>2016-07-15T11:15:39.000Z</time>
      </trkpt>
      <trkpt lat="44.51889" lon="6.14094">
        <ele>1085.8000488281</ele>
        <time>2016-07-15T11:15:41.000Z</time>
      </trkpt>
      <trkpt lat="44.51883" lon="6.14092">
        <ele>1084.4000244141</ele>
        <time>2016-07-15T11:15:48.000Z</time>
      </trkpt>
      <trkpt lat="44.51876" lon="6.14086">
        <ele>1082.1999511719</ele>
        <time>2016-07-15T11:15:55.000Z</time>
      </trkpt>
      <trkpt lat="44.51875" lon="6.14085">
        <ele>1081.8000488281</ele>
        <time>2016-07-15T11:15:57.000Z</time>
      </trkpt>
      <trkpt lat="44.51872" lon="6.1408">
        <ele>1080.5999755859</ele>
        <time>2016-07-15T11:16:03.000Z</time>
      </trkpt>
      <trkpt lat="44.51873" lon="6.14073">
        <ele>1079.8000488281</ele>
        <time>2016-07-15T11:16:09.000Z</time>
      </trkpt>
      <trkpt lat="44.51868" lon="6.14063">
        <ele>1077.5999755859</ele>
        <time>2016-07-15T11:16:17.000Z</time>
      </trkpt>
      <trkpt lat="44.51865" lon="6.14053">
        <ele>1077.1999511719</ele>
        <time>2016-07-15T11:16:24.000Z</time>
      </trkpt>
      <trkpt lat="44.51865" lon="6.14044">
        <ele>1078</ele>
        <time>2016-07-15T11:16:30.000Z</time>
      </trkpt>
      <trkpt lat="44.51866" lon="6.14034">
        <ele>1078.8000488281</ele>
        <time>2016-07-15T11:16:37.000Z</time>
      </trkpt>
      <trkpt lat="44.51866" lon="6.14033">
        <ele>1079</ele>
        <time>2016-07-15T11:16:38.000Z</time>
      </trkpt>
      <trkpt lat="44.51865" lon="6.14027">
        <ele>1079.4000244141</ele>
        <time>2016-07-15T11:16:42.000Z</time>
      </trkpt>
      <trkpt lat="44.51866" lon="6.14021">
        <ele>1080</ele>
        <time>2016-07-15T11:16:47.000Z</time>
      </trkpt>
      <trkpt lat="44.51866" lon="6.1402">
        <ele>1080</ele>
        <time>2016-07-15T11:16:48.000Z</time>
      </trkpt>
      <trkpt lat="44.5186" lon="6.14009">
        <ele>1079.5999755859</ele>
        <time>2016-07-15T11:16:56.000Z</time>
      </trkpt>
      <trkpt lat="44.51857" lon="6.14008">
        <ele>1078.8000488281</ele>
        <time>2016-07-15T11:17:00.000Z</time>
      </trkpt>
      <trkpt lat="44.51848" lon="6.14002">
        <ele>1076.8000488281</ele>
        <time>2016-07-15T11:17:09.000Z</time>
      </trkpt>
      <trkpt lat="44.51847" lon="6.14001">
        <ele>1076.8000488281</ele>
        <time>2016-07-15T11:17:11.000Z</time>
      </trkpt>
      <trkpt lat="44.5184" lon="6.13986">
        <ele>1076</ele>
        <time>2016-07-15T11:17:22.000Z</time>
      </trkpt>
      <trkpt lat="44.51835" lon="6.13973">
        <ele>1076.5999755859</ele>
        <time>2016-07-15T11:17:30.000Z</time>
      </trkpt>
      <trkpt lat="44.5183" lon="6.13962">
        <ele>1077.8000488281</ele>
        <time>2016-07-15T11:17:37.000Z</time>
      </trkpt>
      <trkpt lat="44.51828" lon="6.13959">
        <ele>1078</ele>
        <time>2016-07-15T11:17:39.000Z</time>
      </trkpt>
      <trkpt lat="44.51827" lon="6.13957">
        <ele>1078.1999511719</ele>
        <time>2016-07-15T11:17:41.000Z</time>
      </trkpt>
      <trkpt lat="44.51825" lon="6.13949">
        <ele>1079.1999511719</ele>
        <time>2016-07-15T11:17:49.000Z</time>
      </trkpt>
      <trkpt lat="44.51821" lon="6.13942">
        <ele>1080</ele>
        <time>2016-07-15T11:17:55.000Z</time>
      </trkpt>
      <trkpt lat="44.51815" lon="6.13936">
        <ele>1079.8000488281</ele>
        <time>2016-07-15T11:18:02.000Z</time>
      </trkpt>
      <trkpt lat="44.51813" lon="6.13934">
        <ele>1079.5999755859</ele>
        <time>2016-07-15T11:18:04.000Z</time>
      </trkpt>
      <trkpt lat="44.51808" lon="6.13931">
        <ele>1079</ele>
        <time>2016-07-15T11:18:09.000Z</time>
      </trkpt>
      <trkpt lat="44.51798" lon="6.13925">
        <ele>1078</ele>
        <time>2016-07-15T11:18:16.000Z</time>
      </trkpt>
      <trkpt lat="44.51795" lon="6.13914">
        <ele>1079.4000244141</ele>
        <time>2016-07-15T11:18:22.000Z</time>
      </trkpt>
      <trkpt lat="44.51796" lon="6.13908">
        <ele>1081.1999511719</ele>
        <time>2016-07-15T11:18:27.000Z</time>
      </trkpt>
      <trkpt lat="44.51797" lon="6.13904">
        <ele>1082.1999511719</ele>
        <time>2016-07-15T11:18:30.000Z</time>
      </trkpt>
      <trkpt lat="44.51799" lon="6.13894">
        <ele>1085.1999511719</ele>
        <time>2016-07-15T11:18:36.000Z</time>
      </trkpt>
      <trkpt lat="44.518" lon="6.13883">
        <ele>1087.8000488281</ele>
        <time>2016-07-15T11:18:42.000Z</time>
      </trkpt>
      <trkpt lat="44.518" lon="6.13879">
        <ele>1088.4000244141</ele>
        <time>2016-07-15T11:18:44.000Z</time>
      </trkpt>
      <trkpt lat="44.51801" lon="6.13867">
        <ele>1091</ele>
        <time>2016-07-15T11:18:51.000Z</time>
      </trkpt>
      <trkpt lat="44.51804" lon="6.13855">
        <ele>1094.4000244141</ele>
        <time>2016-07-15T11:18:58.000Z</time>
      </trkpt>
      <trkpt lat="44.51807" lon="6.13848">
        <ele>1096.5999755859</ele>
        <time>2016-07-15T11:19:03.000Z</time>
      </trkpt>
      <trkpt lat="44.51809" lon="6.1384">
        <ele>1098.8000488281</ele>
        <time>2016-07-15T11:19:08.000Z</time>
      </trkpt>
      <trkpt lat="44.51809" lon="6.13835">
        <ele>1099.8000488281</ele>
        <time>2016-07-15T11:19:11.000Z</time>
      </trkpt>
      <trkpt lat="44.5181" lon="6.13823">
        <ele>1101.8000488281</ele>
        <time>2016-07-15T11:19:18.000Z</time>
      </trkpt>
      <trkpt lat="44.51811" lon="6.13816">
        <ele>1103</ele>
        <time>2016-07-15T11:19:22.000Z</time>
      </trkpt>
      <trkpt lat="44.51813" lon="6.13807">
        <ele>1104.8000488281</ele>
        <time>2016-07-15T11:19:27.000Z</time>
      </trkpt>
      <trkpt lat="44.51816" lon="6.13797">
        <ele>1107</ele>
        <time>2016-07-15T11:19:33.000Z</time>
      </trkpt>
      <trkpt lat="44.51816" lon="6.13795">
        <ele>1107.4000244141</ele>
        <time>2016-07-15T11:19:34.000Z</time>
      </trkpt>
      <trkpt lat="44.51817" lon="6.13789">
        <ele>1108.4000244141</ele>
        <time>2016-07-15T11:19:37.000Z</time>
      </trkpt>
      <trkpt lat="44.51819" lon="6.13781">
        <ele>1109.8000488281</ele>
        <time>2016-07-15T11:19:42.000Z</time>
      </trkpt>
      <trkpt lat="44.51819" lon="6.13779">
        <ele>1110.1999511719</ele>
        <time>2016-07-15T11:19:43.000Z</time>
      </trkpt>
      <trkpt lat="44.5182" lon="6.13777">
        <ele>1110.5999755859</ele>
        <time>2016-07-15T11:19:44.000Z</time>
      </trkpt>
      <trkpt lat="44.51823" lon="6.13774">
        <ele>1111.8000488281</ele>
        <time>2016-07-15T11:19:51.000Z</time>
      </trkpt>
      <trkpt lat="44.51824" lon="6.13773">
        <ele>1112</ele>
        <time>2016-07-15T11:19:53.000Z</time>
      </trkpt>
      <trkpt lat="44.51826" lon="6.13775">
        <ele>1112.4000244141</ele>
        <time>2016-07-15T11:19:58.000Z</time>
      </trkpt>
      <trkpt lat="44.51826" lon="6.13773">
        <ele>1112.5999755859</ele>
        <time>2016-07-15T11:20:04.000Z</time>
      </trkpt>
      <trkpt lat="44.51828" lon="6.13768">
        <ele>1113</ele>
        <time>2016-07-15T11:20:10.000Z</time>
      </trkpt>
      <trkpt lat="44.51829" lon="6.13764">
        <ele>1112.8000488281</ele>
        <time>2016-07-15T11:20:17.000Z</time>
      </trkpt>
      <trkpt lat="44.51827" lon="6.13759">
        <ele>1112.4000244141</ele>
        <time>2016-07-15T11:20:21.000Z</time>
      </trkpt>
      <trkpt lat="44.51824" lon="6.13752">
        <ele>1112</ele>
        <time>2016-07-15T11:20:29.000Z</time>
      </trkpt>
      <trkpt lat="44.51826" lon="6.13751">
        <ele>1112</ele>
        <time>2016-07-15T11:20:38.000Z</time>
      </trkpt>
      <trkpt lat="44.51827" lon="6.13747">
        <ele>1111.5999755859</ele>
        <time>2016-07-15T11:20:56.000Z</time>
      </trkpt>
      <trkpt lat="44.51826" lon="6.13742">
        <ele>1111.4000244141</ele>
        <time>2016-07-15T11:21:04.000Z</time>
      </trkpt>
      <trkpt lat="44.51826" lon="6.13735">
        <ele>1111</ele>
        <time>2016-07-15T11:21:09.000Z</time>
      </trkpt>
      <trkpt lat="44.51823" lon="6.13729">
        <ele>1110.5999755859</ele>
        <time>2016-07-15T11:21:15.000Z</time>
      </trkpt>
      <trkpt lat="44.51821" lon="6.13726">
        <ele>1110.1999511719</ele>
        <time>2016-07-15T11:21:19.000Z</time>
      </trkpt>
      <trkpt lat="44.51821" lon="6.13716">
        <ele>1108.4000244141</ele>
        <time>2016-07-15T11:21:28.000Z</time>
      </trkpt>
      <trkpt lat="44.51821" lon="6.13711">
        <ele>1107.4000244141</ele>
        <time>2016-07-15T11:21:31.000Z</time>
      </trkpt>
      <trkpt lat="44.5182" lon="6.13703">
        <ele>1106</ele>
        <time>2016-07-15T11:21:37.000Z</time>
      </trkpt>
      <trkpt lat="44.51816" lon="6.13692">
        <ele>1104</ele>
        <time>2016-07-15T11:21:44.000Z</time>
      </trkpt>
      <trkpt lat="44.51816" lon="6.13689">
        <ele>1103.4000244141</ele>
        <time>2016-07-15T11:21:46.000Z</time>
      </trkpt>
      <trkpt lat="44.51814" lon="6.13684">
        <ele>1102.5999755859</ele>
        <time>2016-07-15T11:21:50.000Z</time>
      </trkpt>
      <trkpt lat="44.51808" lon="6.13679">
        <ele>1101.5999755859</ele>
        <time>2016-07-15T11:21:56.000Z</time>
      </trkpt>
      <trkpt lat="44.51805" lon="6.13676">
        <ele>1101</ele>
        <time>2016-07-15T11:21:59.000Z</time>
      </trkpt>
      <trkpt lat="44.518" lon="6.13668">
        <ele>1099.5999755859</ele>
        <time>2016-07-15T11:22:06.000Z</time>
      </trkpt>
      <trkpt lat="44.51797" lon="6.13665">
        <ele>1099</ele>
        <time>2016-07-15T11:22:10.000Z</time>
      </trkpt>
      <trkpt lat="44.51789" lon="6.13656">
        <ele>1097.1999511719</ele>
        <time>2016-07-15T11:22:18.000Z</time>
      </trkpt>
      <trkpt lat="44.51782" lon="6.1365">
        <ele>1096</ele>
        <time>2016-07-15T11:22:25.000Z</time>
      </trkpt>
      <trkpt lat="44.51779" lon="6.13645">
        <ele>1095.1999511719</ele>
        <time>2016-07-15T11:22:29.000Z</time>
      </trkpt>
      <trkpt lat="44.51776" lon="6.13642">
        <ele>1094.5999755859</ele>
        <time>2016-07-15T11:22:34.000Z</time>
      </trkpt>
      <trkpt lat="44.51775" lon="6.1364">
        <ele>1094.1999511719</ele>
        <time>2016-07-15T11:22:36.000Z</time>
      </trkpt>
      <trkpt lat="44.51773" lon="6.13633">
        <ele>1092.4000244141</ele>
        <time>2016-07-15T11:22:41.000Z</time>
      </trkpt>
      <trkpt lat="44.51771" lon="6.13629">
        <ele>1091.8000488281</ele>
        <time>2016-07-15T11:22:43.000Z</time>
      </trkpt>
      <trkpt lat="44.51767" lon="6.13621">
        <ele>1090</ele>
        <time>2016-07-15T11:22:51.000Z</time>
      </trkpt>
      <trkpt lat="44.51765" lon="6.13619">
        <ele>1089.4000244141</ele>
        <time>2016-07-15T11:22:54.000Z</time>
      </trkpt>
      <trkpt lat="44.51765" lon="6.13617">
        <ele>1089.1999511719</ele>
        <time>2016-07-15T11:22:56.000Z</time>
      </trkpt>
      <trkpt lat="44.51758" lon="6.13604">
        <ele>1086.1999511719</ele>
        <time>2016-07-15T11:23:06.000Z</time>
      </trkpt>
      <trkpt lat="44.51753" lon="6.13595">
        <ele>1084.4000244141</ele>
        <time>2016-07-15T11:23:13.000Z</time>
      </trkpt>
      <trkpt lat="44.51751" lon="6.13592">
        <ele>1083.5999755859</ele>
        <time>2016-07-15T11:23:16.000Z</time>
      </trkpt>
      <trkpt lat="44.51745" lon="6.13589">
        <ele>1082.8000488281</ele>
        <time>2016-07-15T11:23:22.000Z</time>
      </trkpt>
      <trkpt lat="44.51742" lon="6.13587">
        <ele>1082.4000244141</ele>
        <time>2016-07-15T11:23:25.000Z</time>
      </trkpt>
      <trkpt lat="44.51738" lon="6.13582">
        <ele>1081.4000244141</ele>
        <time>2016-07-15T11:23:30.000Z</time>
      </trkpt>
      <trkpt lat="44.51735" lon="6.1358">
        <ele>1080.8000488281</ele>
        <time>2016-07-15T11:23:32.000Z</time>
      </trkpt>
      <trkpt lat="44.5173" lon="6.13573">
        <ele>1079.1999511719</ele>
        <time>2016-07-15T11:23:38.000Z</time>
      </trkpt>
      <trkpt lat="44.51729" lon="6.13572">
        <ele>1079</ele>
        <time>2016-07-15T11:23:39.000Z</time>
      </trkpt>
      <trkpt lat="44.51729" lon="6.13571">
        <ele>1078.8000488281</ele>
        <time>2016-07-15T11:23:40.000Z</time>
      </trkpt>
      <trkpt lat="44.51723" lon="6.13566">
        <ele>1077.5999755859</ele>
        <time>2016-07-15T11:23:45.000Z</time>
      </trkpt>
      <trkpt lat="44.51721" lon="6.13564">
        <ele>1077.1999511719</ele>
        <time>2016-07-15T11:23:47.000Z</time>
      </trkpt>
      <trkpt lat="44.51718" lon="6.1356">
        <ele>1076.4000244141</ele>
        <time>2016-07-15T11:23:51.000Z</time>
      </trkpt>
      <trkpt lat="44.51713" lon="6.13547">
        <ele>1073.1999511719</ele>
        <time>2016-07-15T11:23:59.000Z</time>
      </trkpt>
      <trkpt lat="44.51709" lon="6.13536">
        <ele>1070.4000244141</ele>
        <time>2016-07-15T11:24:06.000Z</time>
      </trkpt>
      <trkpt lat="44.51704" lon="6.13523">
        <ele>1067</ele>
        <time>2016-07-15T11:24:15.000Z</time>
      </trkpt>
      <trkpt lat="44.51696" lon="6.13506">
        <ele>1062.5999755859</ele>
        <time>2016-07-15T11:24:29.000Z</time>
      </trkpt>
      <trkpt lat="44.51698" lon="6.13504">
        <ele>1062.1999511719</ele>
        <time>2016-07-15T11:24:31.000Z</time>
      </trkpt>
      <trkpt lat="44.51709" lon="6.13499">
        <ele>1061.4000244141</ele>
        <time>2016-07-15T11:24:40.000Z</time>
      </trkpt>
      <trkpt lat="44.51712" lon="6.13497">
        <ele>1061</ele>
        <time>2016-07-15T11:24:43.000Z</time>
      </trkpt>
      <trkpt lat="44.51709" lon="6.13487">
        <ele>1058.5999755859</ele>
        <time>2016-07-15T11:24:50.000Z</time>
      </trkpt>
      <trkpt lat="44.51702" lon="6.13483">
        <ele>1057.4000244141</ele>
        <time>2016-07-15T11:24:56.000Z</time>
      </trkpt>
      <trkpt lat="44.51695" lon="6.13479">
        <ele>1056</ele>
        <time>2016-07-15T11:25:02.000Z</time>
      </trkpt>
      <trkpt lat="44.51684" lon="6.1347">
        <ele>1053.8000488281</ele>
        <time>2016-07-15T11:25:12.000Z</time>
      </trkpt>
      <trkpt lat="44.51676" lon="6.13465">
        <ele>1052.4000244141</ele>
        <time>2016-07-15T11:25:20.000Z</time>
      </trkpt>
      <trkpt lat="44.51678" lon="6.13467">
        <ele>1052.8000488281</ele>
        <time>2016-07-15T11:25:26.000Z</time>
      </trkpt>
      <trkpt lat="44.51684" lon="6.13468">
        <ele>1053.4000244141</ele>
        <time>2016-07-15T11:25:31.000Z</time>
      </trkpt>
      <trkpt lat="44.51684" lon="6.13467">
        <ele>1053.1999511719</ele>
        <time>2016-07-15T11:25:38.000Z</time>
      </trkpt>
      <trkpt lat="44.51684" lon="6.13465">
        <ele>1052.8000488281</ele>
        <time>2016-07-15T11:25:42.000Z</time>
      </trkpt>
      <trkpt lat="44.51684" lon="6.13463">
        <ele>1052.4000244141</ele>
        <time>2016-07-15T11:25:49.000Z</time>
      </trkpt>
      <trkpt lat="44.51683" lon="6.13463">
        <ele>1052.4000244141</ele>
        <time>2016-07-15T11:26:18.000Z</time>
      </trkpt>
      <trkpt lat="44.51683" lon="6.13462">
        <ele>1052.1999511719</ele>
        <time>2016-07-15T11:26:19.000Z</time>
      </trkpt>
      <trkpt lat="44.51676" lon="6.1346">
        <ele>1051.4000244141</ele>
        <time>2016-07-15T11:26:24.000Z</time>
      </trkpt>
      <trkpt lat="44.51665" lon="6.13455">
        <ele>1050</ele>
        <time>2016-07-15T11:26:33.000Z</time>
      </trkpt>
      <trkpt lat="44.51654" lon="6.13451">
        <ele>1048.4000244141</ele>
        <time>2016-07-15T11:26:42.000Z</time>
      </trkpt>
      <trkpt lat="44.51653" lon="6.13451">
        <ele>1048.4000244141</ele>
        <time>2016-07-15T11:26:43.000Z</time>
      </trkpt>
      <trkpt lat="44.51649" lon="6.13449">
        <ele>1047.8000488281</ele>
        <time>2016-07-15T11:26:47.000Z</time>
      </trkpt>
      <trkpt lat="44.51645" lon="6.13447">
        <ele>1047.1999511719</ele>
        <time>2016-07-15T11:26:50.000Z</time>
      </trkpt>
      <trkpt lat="44.5164" lon="6.13441">
        <ele>1045.8000488281</ele>
        <time>2016-07-15T11:26:56.000Z</time>
      </trkpt>
      <trkpt lat="44.5164" lon="6.1344">
        <ele>1045.5999755859</ele>
        <time>2016-07-15T11:26:57.000Z</time>
      </trkpt>
      <trkpt lat="44.51639" lon="6.13438">
        <ele>1045.1999511719</ele>
        <time>2016-07-15T11:26:58.000Z</time>
      </trkpt>
      <trkpt lat="44.51635" lon="6.13431">
        <ele>1043.8000488281</ele>
        <time>2016-07-15T11:27:03.000Z</time>
      </trkpt>
      <trkpt lat="44.5163" lon="6.13422">
        <ele>1042</ele>
        <time>2016-07-15T11:27:10.000Z</time>
      </trkpt>
      <trkpt lat="44.51625" lon="6.13415">
        <ele>1040.1999511719</ele>
        <time>2016-07-15T11:27:16.000Z</time>
      </trkpt>
      <trkpt lat="44.51613" lon="6.1341">
        <ele>1038.8000488281</ele>
        <time>2016-07-15T11:27:25.000Z</time>
      </trkpt>
      <trkpt lat="44.51607" lon="6.13408">
        <ele>1038.4000244141</ele>
        <time>2016-07-15T11:27:31.000Z</time>
      </trkpt>
      <trkpt lat="44.516" lon="6.13402">
        <ele>1037.1999511719</ele>
        <time>2016-07-15T11:27:37.000Z</time>
      </trkpt>
      <trkpt lat="44.51598" lon="6.134">
        <ele>1037</ele>
        <time>2016-07-15T11:27:39.000Z</time>
      </trkpt>
      <trkpt lat="44.51592" lon="6.13391">
        <ele>1035.1999511719</ele>
        <time>2016-07-15T11:27:46.000Z</time>
      </trkpt>
      <trkpt lat="44.51589" lon="6.13382">
        <ele>1033.5999755859</ele>
        <time>2016-07-15T11:27:53.000Z</time>
      </trkpt>
      <trkpt lat="44.51586" lon="6.13375">
        <ele>1032.4000244141</ele>
        <time>2016-07-15T11:27:58.000Z</time>
      </trkpt>
      <trkpt lat="44.51585" lon="6.13374">
        <ele>1032.1999511719</ele>
        <time>2016-07-15T11:27:59.000Z</time>
      </trkpt>
      <trkpt lat="44.51584" lon="6.13368">
        <ele>1031.1999511719</ele>
        <time>2016-07-15T11:28:03.000Z</time>
      </trkpt>
      <trkpt lat="44.51578" lon="6.1336">
        <ele>1029.8000488281</ele>
        <time>2016-07-15T11:28:10.000Z</time>
      </trkpt>
      <trkpt lat="44.51577" lon="6.1336">
        <ele>1029.8000488281</ele>
        <time>2016-07-15T11:28:11.000Z</time>
      </trkpt>
      <trkpt lat="44.51571" lon="6.13355">
        <ele>1029</ele>
        <time>2016-07-15T11:28:16.000Z</time>
      </trkpt>
      <trkpt lat="44.51563" lon="6.13355">
        <ele>1028.8000488281</ele>
        <time>2016-07-15T11:28:23.000Z</time>
      </trkpt>
      <trkpt lat="44.51554" lon="6.13354">
        <ele>1028.5999755859</ele>
        <time>2016-07-15T11:28:30.000Z</time>
      </trkpt>
      <trkpt lat="44.51552" lon="6.13355">
        <ele>1028.5999755859</ele>
        <time>2016-07-15T11:28:31.000Z</time>
      </trkpt>
      <trkpt lat="44.51545" lon="6.13355">
        <ele>1028.5999755859</ele>
        <time>2016-07-15T11:28:36.000Z</time>
      </trkpt>
      <trkpt lat="44.5154" lon="6.13355">
        <ele>1028.5999755859</ele>
        <time>2016-07-15T11:28:40.000Z</time>
      </trkpt>
      <trkpt lat="44.51537" lon="6.13358">
        <ele>1029</ele>
        <time>2016-07-15T11:28:44.000Z</time>
      </trkpt>
      <trkpt lat="44.51535" lon="6.13364">
        <ele>1030</ele>
        <time>2016-07-15T11:28:49.000Z</time>
      </trkpt>
      <trkpt lat="44.51532" lon="6.13373">
        <ele>1031.5999755859</ele>
        <time>2016-07-15T11:28:55.000Z</time>
      </trkpt>
      <trkpt lat="44.51527" lon="6.13376">
        <ele>1032.8000488281</ele>
        <time>2016-07-15T11:28:59.000Z</time>
      </trkpt>
      <trkpt lat="44.51523" lon="6.13377">
        <ele>1033.4000244141</ele>
        <time>2016-07-15T11:29:02.000Z</time>
      </trkpt>
      <trkpt lat="44.51514" lon="6.13375">
        <ele>1034.1999511719</ele>
        <time>2016-07-15T11:29:08.000Z</time>
      </trkpt>
      <trkpt lat="44.51504" lon="6.13364">
        <ele>1033.5999755859</ele>
        <time>2016-07-15T11:29:18.000Z</time>
      </trkpt>
      <trkpt lat="44.51502" lon="6.13353">
        <ele>1032</ele>
        <time>2016-07-15T11:29:24.000Z</time>
      </trkpt>
      <trkpt lat="44.51502" lon="6.13351">
        <ele>1031.5999755859</ele>
        <time>2016-07-15T11:29:25.000Z</time>
      </trkpt>
      <trkpt lat="44.51499" lon="6.13339">
        <ele>1029.8000488281</ele>
        <time>2016-07-15T11:29:32.000Z</time>
      </trkpt>
      <trkpt lat="44.51498" lon="6.13337">
        <ele>1029.5999755859</ele>
        <time>2016-07-15T11:29:33.000Z</time>
      </trkpt>
      <trkpt lat="44.51494" lon="6.13327">
        <ele>1028.4000244141</ele>
        <time>2016-07-15T11:29:39.000Z</time>
      </trkpt>
      <trkpt lat="44.51492" lon="6.13315">
        <ele>1026.8000488281</ele>
        <time>2016-07-15T11:29:45.000Z</time>
      </trkpt>
      <trkpt lat="44.51489" lon="6.13305">
        <ele>1025.1999511719</ele>
        <time>2016-07-15T11:29:51.000Z</time>
      </trkpt>
      <trkpt lat="44.51488" lon="6.13303">
        <ele>1025</ele>
        <time>2016-07-15T11:29:52.000Z</time>
      </trkpt>
      <trkpt lat="44.51483" lon="6.13288">
        <ele>1022.200012207</ele>
        <time>2016-07-15T11:30:01.000Z</time>
      </trkpt>
      <trkpt lat="44.51477" lon="6.13277">
        <ele>1020.5999755859</ele>
        <time>2016-07-15T11:30:09.000Z</time>
      </trkpt>
      <trkpt lat="44.51471" lon="6.13263">
        <ele>1018.200012207</ele>
        <time>2016-07-15T11:30:18.000Z</time>
      </trkpt>
      <trkpt lat="44.5147" lon="6.13253">
        <ele>1016.200012207</ele>
        <time>2016-07-15T11:30:23.000Z</time>
      </trkpt>
      <trkpt lat="44.51469" lon="6.13243">
        <ele>1014.5999755859</ele>
        <time>2016-07-15T11:30:29.000Z</time>
      </trkpt>
      <trkpt lat="44.51461" lon="6.13233">
        <ele>1013.799987793</ele>
        <time>2016-07-15T11:30:37.000Z</time>
      </trkpt>
      <trkpt lat="44.51459" lon="6.13232">
        <ele>1013.5999755859</ele>
        <time>2016-07-15T11:30:39.000Z</time>
      </trkpt>
      <trkpt lat="44.51452" lon="6.13229">
        <ele>1013.4000244141</ele>
        <time>2016-07-15T11:30:45.000Z</time>
      </trkpt>
      <trkpt lat="44.51449" lon="6.1323">
        <ele>1013.799987793</ele>
        <time>2016-07-15T11:30:47.000Z</time>
      </trkpt>
      <trkpt lat="44.51443" lon="6.13229">
        <ele>1014.200012207</ele>
        <time>2016-07-15T11:30:53.000Z</time>
      </trkpt>
      <trkpt lat="44.51441" lon="6.13229">
        <ele>1014.200012207</ele>
        <time>2016-07-15T11:30:55.000Z</time>
      </trkpt>
      <trkpt lat="44.51433" lon="6.13226">
        <ele>1014.4000244141</ele>
        <time>2016-07-15T11:31:03.000Z</time>
      </trkpt>
      <trkpt lat="44.51429" lon="6.13224">
        <ele>1014.5999755859</ele>
        <time>2016-07-15T11:31:08.000Z</time>
      </trkpt>
      <trkpt lat="44.51423" lon="6.13218">
        <ele>1014</ele>
        <time>2016-07-15T11:31:14.000Z</time>
      </trkpt>
      <trkpt lat="44.51415" lon="6.13207">
        <ele>1012.799987793</ele>
        <time>2016-07-15T11:31:22.000Z</time>
      </trkpt>
      <trkpt lat="44.51411" lon="6.13198">
        <ele>1011.4000244141</ele>
        <time>2016-07-15T11:31:28.000Z</time>
      </trkpt>
      <trkpt lat="44.5141" lon="6.13195">
        <ele>1011.200012207</ele>
        <time>2016-07-15T11:31:30.000Z</time>
      </trkpt>
      <trkpt lat="44.51408" lon="6.13184">
        <ele>1009.4000244141</ele>
        <time>2016-07-15T11:31:36.000Z</time>
      </trkpt>
      <trkpt lat="44.51408" lon="6.13178">
        <ele>1008.4000244141</ele>
        <time>2016-07-15T11:31:40.000Z</time>
      </trkpt>
      <trkpt lat="44.51408" lon="6.13163">
        <ele>1006.200012207</ele>
        <time>2016-07-15T11:31:48.000Z</time>
      </trkpt>
      <trkpt lat="44.51408" lon="6.13159">
        <ele>1005.799987793</ele>
        <time>2016-07-15T11:31:50.000Z</time>
      </trkpt>
      <trkpt lat="44.51401" lon="6.13146">
        <ele>1004.200012207</ele>
        <time>2016-07-15T11:31:58.000Z</time>
      </trkpt>
      <trkpt lat="44.51398" lon="6.13136">
        <ele>1003.4000244141</ele>
        <time>2016-07-15T11:32:04.000Z</time>
      </trkpt>
      <trkpt lat="44.51398" lon="6.13132">
        <ele>1003.200012207</ele>
        <time>2016-07-15T11:32:06.000Z</time>
      </trkpt>
      <trkpt lat="44.51397" lon="6.13122">
        <ele>1002.4000244141</ele>
        <time>2016-07-15T11:32:12.000Z</time>
      </trkpt>
      <trkpt lat="44.51396" lon="6.13119">
        <ele>1002.200012207</ele>
        <time>2016-07-15T11:32:14.000Z</time>
      </trkpt>
      <trkpt lat="44.51395" lon="6.13113">
        <ele>1001.799987793</ele>
        <time>2016-07-15T11:32:20.000Z</time>
      </trkpt>
      <trkpt lat="44.51395" lon="6.13111">
        <ele>1001.5999755859</ele>
        <time>2016-07-15T11:32:21.000Z</time>
      </trkpt>
      <trkpt lat="44.51392" lon="6.13098">
        <ele>1000.5999755859</ele>
        <time>2016-07-15T11:32:28.000Z</time>
      </trkpt>
      <trkpt lat="44.51391" lon="6.13091">
        <ele>1000.200012207</ele>
        <time>2016-07-15T11:32:32.000Z</time>
      </trkpt>
      <trkpt lat="44.51389" lon="6.13081">
        <ele>999.40002441406</ele>
        <time>2016-07-15T11:32:37.000Z</time>
      </trkpt>
      <trkpt lat="44.51388" lon="6.13067">
        <ele>998.59997558594</ele>
        <time>2016-07-15T11:32:44.000Z</time>
      </trkpt>
      <trkpt lat="44.51387" lon="6.13065">
        <ele>998.59997558594</ele>
        <time>2016-07-15T11:32:45.000Z</time>
      </trkpt>
      <trkpt lat="44.51388" lon="6.13063">
        <ele>998.40002441406</ele>
        <time>2016-07-15T11:32:46.000Z</time>
      </trkpt>
      <trkpt lat="44.51387" lon="6.13057">
        <ele>998.20001220703</ele>
        <time>2016-07-15T11:32:49.000Z</time>
      </trkpt>
      <trkpt lat="44.51387" lon="6.13043">
        <ele>998.20001220703</ele>
        <time>2016-07-15T11:32:56.000Z</time>
      </trkpt>
      <trkpt lat="44.51388" lon="6.13042">
        <ele>998.20001220703</ele>
        <time>2016-07-15T11:32:57.000Z</time>
      </trkpt>
      <trkpt lat="44.51389" lon="6.13035">
        <ele>998.20001220703</ele>
        <time>2016-07-15T11:33:01.000Z</time>
      </trkpt>
      <trkpt lat="44.51388" lon="6.13032">
        <ele>998.20001220703</ele>
        <time>2016-07-15T11:33:05.000Z</time>
      </trkpt>
      <trkpt lat="44.51389" lon="6.13019">
        <ele>998.20001220703</ele>
        <time>2016-07-15T11:33:12.000Z</time>
      </trkpt>
      <trkpt lat="44.5139" lon="6.13002">
        <ele>998.20001220703</ele>
        <time>2016-07-15T11:33:21.000Z</time>
      </trkpt>
      <trkpt lat="44.51393" lon="6.12989">
        <ele>996.79998779297</ele>
        <time>2016-07-15T11:33:29.000Z</time>
      </trkpt>
      <trkpt lat="44.51393" lon="6.12987">
        <ele>996.79998779297</ele>
        <time>2016-07-15T11:33:30.000Z</time>
      </trkpt>
      <trkpt lat="44.51395" lon="6.1298">
        <ele>995.79998779297</ele>
        <time>2016-07-15T11:33:34.000Z</time>
      </trkpt>
      <trkpt lat="44.51396" lon="6.12973">
        <ele>995.59997558594</ele>
        <time>2016-07-15T11:33:38.000Z</time>
      </trkpt>
      <trkpt lat="44.51395" lon="6.12963">
        <ele>995.40002441406</ele>
        <time>2016-07-15T11:33:45.000Z</time>
      </trkpt>
      <trkpt lat="44.51395" lon="6.12961">
        <ele>995.40002441406</ele>
        <time>2016-07-15T11:33:46.000Z</time>
      </trkpt>
      <trkpt lat="44.51393" lon="6.12951">
        <ele>995.59997558594</ele>
        <time>2016-07-15T11:33:52.000Z</time>
      </trkpt>
      <trkpt lat="44.51392" lon="6.12949">
        <ele>995.59997558594</ele>
        <time>2016-07-15T11:33:53.000Z</time>
      </trkpt>
      <trkpt lat="44.5139" lon="6.12937">
        <ele>995.59997558594</ele>
        <time>2016-07-15T11:34:00.000Z</time>
      </trkpt>
      <trkpt lat="44.5139" lon="6.12933">
        <ele>995.59997558594</ele>
        <time>2016-07-15T11:34:02.000Z</time>
      </trkpt>
      <trkpt lat="44.51391" lon="6.12918">
        <ele>995.40002441406</ele>
        <time>2016-07-15T11:34:10.000Z</time>
      </trkpt>
      <trkpt lat="44.51395" lon="6.12903">
        <ele>993.79998779297</ele>
        <time>2016-07-15T11:34:19.000Z</time>
      </trkpt>
      <trkpt lat="44.514" lon="6.12891">
        <ele>992.40002441406</ele>
        <time>2016-07-15T11:34:26.000Z</time>
      </trkpt>
      <trkpt lat="44.51409" lon="6.12887">
        <ele>990.79998779297</ele>
        <time>2016-07-15T11:34:33.000Z</time>
      </trkpt>
      <trkpt lat="44.51419" lon="6.12883">
        <ele>989</ele>
        <time>2016-07-15T11:34:42.000Z</time>
      </trkpt>
      <trkpt lat="44.51424" lon="6.12878">
        <ele>988</ele>
        <time>2016-07-15T11:34:47.000Z</time>
      </trkpt>
      <trkpt lat="44.51429" lon="6.12872">
        <ele>987</ele>
        <time>2016-07-15T11:34:53.000Z</time>
      </trkpt>
      <trkpt lat="44.51433" lon="6.12863">
        <ele>986.20001220703</ele>
        <time>2016-07-15T11:35:01.000Z</time>
      </trkpt>
      <trkpt lat="44.51439" lon="6.12855">
        <ele>985</ele>
        <time>2016-07-15T11:35:08.000Z</time>
      </trkpt>
      <trkpt lat="44.51441" lon="6.1285">
        <ele>984.40002441406</ele>
        <time>2016-07-15T11:35:11.000Z</time>
      </trkpt>
      <trkpt lat="44.51449" lon="6.1284">
        <ele>983</ele>
        <time>2016-07-15T11:35:18.000Z</time>
      </trkpt>
      <trkpt lat="44.51455" lon="6.12826">
        <ele>982.40002441406</ele>
        <time>2016-07-15T11:35:26.000Z</time>
      </trkpt>
      <trkpt lat="44.5146" lon="6.12814">
        <ele>981.59997558594</ele>
        <time>2016-07-15T11:35:33.000Z</time>
      </trkpt>
      <trkpt lat="44.51469" lon="6.12802">
        <ele>979.79998779297</ele>
        <time>2016-07-15T11:35:41.000Z</time>
      </trkpt>
      <trkpt lat="44.51473" lon="6.12798">
        <ele>979</ele>
        <time>2016-07-15T11:35:45.000Z</time>
      </trkpt>
      <trkpt lat="44.51479" lon="6.1279">
        <ele>977.79998779297</ele>
        <time>2016-07-15T11:35:51.000Z</time>
      </trkpt>
      <trkpt lat="44.51487" lon="6.12778">
        <ele>976.20001220703</ele>
        <time>2016-07-15T11:35:58.000Z</time>
      </trkpt>
      <trkpt lat="44.51488" lon="6.12777">
        <ele>976</ele>
        <time>2016-07-15T11:35:59.000Z</time>
      </trkpt>
      <trkpt lat="44.51493" lon="6.12768">
        <ele>975</ele>
        <time>2016-07-15T11:36:05.000Z</time>
      </trkpt>
      <trkpt lat="44.51498" lon="6.12758">
        <ele>974.20001220703</ele>
        <time>2016-07-15T11:36:11.000Z</time>
      </trkpt>
      <trkpt lat="44.51508" lon="6.12745">
        <ele>973</ele>
        <time>2016-07-15T11:36:21.000Z</time>
      </trkpt>
      <trkpt lat="44.51509" lon="6.12744">
        <ele>973</ele>
        <time>2016-07-15T11:36:22.000Z</time>
      </trkpt>
      <trkpt lat="44.51514" lon="6.12737">
        <ele>972.40002441406</ele>
        <time>2016-07-15T11:36:27.000Z</time>
      </trkpt>
      <trkpt lat="44.51516" lon="6.12734">
        <ele>972.20001220703</ele>
        <time>2016-07-15T11:36:29.000Z</time>
      </trkpt>
      <trkpt lat="44.51521" lon="6.12724">
        <ele>971.40002441406</ele>
        <time>2016-07-15T11:36:35.000Z</time>
      </trkpt>
      <trkpt lat="44.51525" lon="6.12719">
        <ele>971</ele>
        <time>2016-07-15T11:36:39.000Z</time>
      </trkpt>
      <trkpt lat="44.51531" lon="6.12712">
        <ele>970</ele>
        <time>2016-07-15T11:36:46.000Z</time>
      </trkpt>
      <trkpt lat="44.51535" lon="6.12714">
        <ele>970</ele>
        <time>2016-07-15T11:36:50.000Z</time>
      </trkpt>
      <trkpt lat="44.51539" lon="6.12711">
        <ele>969.79998779297</ele>
        <time>2016-07-15T11:36:59.000Z</time>
      </trkpt>
      <trkpt lat="44.51539" lon="6.12709">
        <ele>969.59997558594</ele>
        <time>2016-07-15T11:37:11.000Z</time>
      </trkpt>
      <trkpt lat="44.51545" lon="6.12708">
        <ele>969.59997558594</ele>
        <time>2016-07-15T11:37:20.000Z</time>
      </trkpt>
      <trkpt lat="44.51546" lon="6.12708">
        <ele>969.59997558594</ele>
        <time>2016-07-15T11:37:21.000Z</time>
      </trkpt>
      <trkpt lat="44.5155" lon="6.12705">
        <ele>969.40002441406</ele>
        <time>2016-07-15T11:37:25.000Z</time>
      </trkpt>
      <trkpt lat="44.51553" lon="6.12702">
        <ele>969.20001220703</ele>
        <time>2016-07-15T11:37:29.000Z</time>
      </trkpt>
      <trkpt lat="44.51554" lon="6.12702">
        <ele>969.20001220703</ele>
        <time>2016-07-15T11:37:31.000Z</time>
      </trkpt>
      <trkpt lat="44.51557" lon="6.12701">
        <ele>969.20001220703</ele>
        <time>2016-07-15T11:37:35.000Z</time>
      </trkpt>
      <trkpt lat="44.51559" lon="6.12698">
        <ele>969</ele>
        <time>2016-07-15T11:37:38.000Z</time>
      </trkpt>
      <trkpt lat="44.51557" lon="6.1269">
        <ele>968.40002441406</ele>
        <time>2016-07-15T11:37:44.000Z</time>
      </trkpt>
      <trkpt lat="44.51557" lon="6.12688">
        <ele>968.20001220703</ele>
        <time>2016-07-15T11:37:45.000Z</time>
      </trkpt>
      <trkpt lat="44.51557" lon="6.12684">
        <ele>967.79998779297</ele>
        <time>2016-07-15T11:37:47.000Z</time>
      </trkpt>
      <trkpt lat="44.51555" lon="6.12677">
        <ele>967.40002441406</ele>
        <time>2016-07-15T11:37:52.000Z</time>
      </trkpt>
      <trkpt lat="44.51554" lon="6.12676">
        <ele>967.20001220703</ele>
        <time>2016-07-15T11:37:53.000Z</time>
      </trkpt>
      <trkpt lat="44.51553" lon="6.12675">
        <ele>967.20001220703</ele>
        <time>2016-07-15T11:37:54.000Z</time>
      </trkpt>
      <trkpt lat="44.51547" lon="6.12674">
        <ele>967.20001220703</ele>
        <time>2016-07-15T11:37:59.000Z</time>
      </trkpt>
      <trkpt lat="44.51545" lon="6.12674">
        <ele>967.20001220703</ele>
        <time>2016-07-15T11:38:01.000Z</time>
      </trkpt>
      <trkpt lat="44.51539" lon="6.12673">
        <ele>967.20001220703</ele>
        <time>2016-07-15T11:38:07.000Z</time>
      </trkpt>
      <trkpt lat="44.51535" lon="6.12663">
        <ele>966.40002441406</ele>
        <time>2016-07-15T11:38:14.000Z</time>
      </trkpt>
      <trkpt lat="44.51535" lon="6.12662">
        <ele>966.20001220703</ele>
        <time>2016-07-15T11:38:15.000Z</time>
      </trkpt>
      <trkpt lat="44.51535" lon="6.12659">
        <ele>966</ele>
        <time>2016-07-15T11:38:17.000Z</time>
      </trkpt>
      <trkpt lat="44.51535" lon="6.12653">
        <ele>965.59997558594</ele>
        <time>2016-07-15T11:38:20.000Z</time>
      </trkpt>
      <trkpt lat="44.51535" lon="6.1264">
        <ele>964.79998779297</ele>
        <time>2016-07-15T11:38:27.000Z</time>
      </trkpt>
      <trkpt lat="44.51534" lon="6.12638">
        <ele>964.59997558594</ele>
        <time>2016-07-15T11:38:28.000Z</time>
      </trkpt>
      <trkpt lat="44.51533" lon="6.12625">
        <ele>963.79998779297</ele>
        <time>2016-07-15T11:38:36.000Z</time>
      </trkpt>
      <trkpt lat="44.51533" lon="6.12623">
        <ele>963.79998779297</ele>
        <time>2016-07-15T11:38:37.000Z</time>
      </trkpt>
      <trkpt lat="44.51538" lon="6.12617">
        <ele>963.59997558594</ele>
        <time>2016-07-15T11:38:43.000Z</time>
      </trkpt>
      <trkpt lat="44.51538" lon="6.12614">
        <ele>963.20001220703</ele>
        <time>2016-07-15T11:38:52.000Z</time>
      </trkpt>
      <trkpt lat="44.51539" lon="6.12611">
        <ele>963.20001220703</ele>
        <time>2016-07-15T11:39:01.000Z</time>
      </trkpt>
      <trkpt lat="44.5154" lon="6.12605">
        <ele>962.79998779297</ele>
        <time>2016-07-15T11:39:20.000Z</time>
      </trkpt>
      <trkpt lat="44.5154" lon="6.12606">
        <ele>962.79998779297</ele>
        <time>2016-07-15T11:39:28.000Z</time>
      </trkpt>
      <trkpt lat="44.5154" lon="6.12609">
        <ele>963</ele>
        <time>2016-07-15T11:39:33.000Z</time>
      </trkpt>
      <trkpt lat="44.51539" lon="6.12607">
        <ele>963</ele>
        <time>2016-07-15T11:39:36.000Z</time>
      </trkpt>
      <trkpt lat="44.51539" lon="6.12606">
        <ele>962.79998779297</ele>
        <time>2016-07-15T11:39:43.000Z</time>
      </trkpt>
      <trkpt lat="44.51541" lon="6.12606">
        <ele>963</ele>
        <time>2016-07-15T11:39:48.000Z</time>
      </trkpt>
      <trkpt lat="44.51539" lon="6.126">
        <ele>962.59997558594</ele>
        <time>2016-07-15T11:39:55.000Z</time>
      </trkpt>
      <trkpt lat="44.51536" lon="6.12596">
        <ele>962.20001220703</ele>
        <time>2016-07-15T11:39:59.000Z</time>
      </trkpt>
      <trkpt lat="44.5155" lon="6.12628">
        <ele>964.40002441406</ele>
        <time>2016-07-15T12:23:41.000Z</time>
      </trkpt>
      <trkpt lat="44.51548" lon="6.12624">
        <ele>964.20001220703</ele>
        <time>2016-07-15T12:23:46.000Z</time>
      </trkpt>
      <trkpt lat="44.51541" lon="6.12615">
        <ele>963.40002441406</ele>
        <time>2016-07-15T12:23:54.000Z</time>
      </trkpt>
      <trkpt lat="44.51541" lon="6.12613">
        <ele>963.40002441406</ele>
        <time>2016-07-15T12:23:55.000Z</time>
      </trkpt>
      <trkpt lat="44.5154" lon="6.12611">
        <ele>963.20001220703</ele>
        <time>2016-07-15T12:23:56.000Z</time>
      </trkpt>
      <trkpt lat="44.51542" lon="6.12603">
        <ele>962.79998779297</ele>
        <time>2016-07-15T12:24:01.000Z</time>
      </trkpt>
      <trkpt lat="44.51545" lon="6.12588">
        <ele>962</ele>
        <time>2016-07-15T12:24:10.000Z</time>
      </trkpt>
      <trkpt lat="44.51549" lon="6.12576">
        <ele>961.40002441406</ele>
        <time>2016-07-15T12:24:17.000Z</time>
      </trkpt>
      <trkpt lat="44.51555" lon="6.12564">
        <ele>961.79998779297</ele>
        <time>2016-07-15T12:24:26.000Z</time>
      </trkpt>
      <trkpt lat="44.51562" lon="6.12554">
        <ele>962.40002441406</ele>
        <time>2016-07-15T12:24:35.000Z</time>
      </trkpt>
      <trkpt lat="44.51571" lon="6.12546">
        <ele>963.20001220703</ele>
        <time>2016-07-15T12:24:43.000Z</time>
      </trkpt>
      <trkpt lat="44.51582" lon="6.12536">
        <ele>964.40002441406</ele>
        <time>2016-07-15T12:24:53.000Z</time>
      </trkpt>
      <trkpt lat="44.51583" lon="6.12536">
        <ele>964.40002441406</ele>
        <time>2016-07-15T12:24:54.000Z</time>
      </trkpt>
      <trkpt lat="44.51589" lon="6.12533">
        <ele>965</ele>
        <time>2016-07-15T12:24:59.000Z</time>
      </trkpt>
      <trkpt lat="44.51591" lon="6.12529">
        <ele>965.40002441406</ele>
        <time>2016-07-15T12:25:02.000Z</time>
      </trkpt>
      <trkpt lat="44.51593" lon="6.12518">
        <ele>966.40002441406</ele>
        <time>2016-07-15T12:25:08.000Z</time>
      </trkpt>
      <trkpt lat="44.51594" lon="6.12503">
        <ele>967.40002441406</ele>
        <time>2016-07-15T12:25:16.000Z</time>
      </trkpt>
      <trkpt lat="44.51596" lon="6.1249">
        <ele>968.59997558594</ele>
        <time>2016-07-15T12:25:23.000Z</time>
      </trkpt>
      <trkpt lat="44.51599" lon="6.12477">
        <ele>969.59997558594</ele>
        <time>2016-07-15T12:25:30.000Z</time>
      </trkpt>
      <trkpt lat="44.51601" lon="6.1247">
        <ele>970</ele>
        <time>2016-07-15T12:25:34.000Z</time>
      </trkpt>
      <trkpt lat="44.51601" lon="6.12455">
        <ele>970.59997558594</ele>
        <time>2016-07-15T12:25:42.000Z</time>
      </trkpt>
      <trkpt lat="44.516" lon="6.12448">
        <ele>971</ele>
        <time>2016-07-15T12:25:47.000Z</time>
      </trkpt>
      <trkpt lat="44.51598" lon="6.12432">
        <ele>971.59997558594</ele>
        <time>2016-07-15T12:25:55.000Z</time>
      </trkpt>
      <trkpt lat="44.51591" lon="6.12418">
        <ele>971.20001220703</ele>
        <time>2016-07-15T12:26:03.000Z</time>
      </trkpt>
      <trkpt lat="44.51581" lon="6.12402">
        <ele>970.40002441406</ele>
        <time>2016-07-15T12:26:12.000Z</time>
      </trkpt>
      <trkpt lat="44.51572" lon="6.12391">
        <ele>969.59997558594</ele>
        <time>2016-07-15T12:26:20.000Z</time>
      </trkpt>
      <trkpt lat="44.51566" lon="6.12381">
        <ele>968.59997558594</ele>
        <time>2016-07-15T12:26:27.000Z</time>
      </trkpt>
      <trkpt lat="44.51559" lon="6.12364">
        <ele>967.59997558594</ele>
        <time>2016-07-15T12:26:36.000Z</time>
      </trkpt>
      <trkpt lat="44.51557" lon="6.12345">
        <ele>967.59997558594</ele>
        <time>2016-07-15T12:26:45.000Z</time>
      </trkpt>
      <trkpt lat="44.51558" lon="6.12337">
        <ele>967.79998779297</ele>
        <time>2016-07-15T12:26:49.000Z</time>
      </trkpt>
      <trkpt lat="44.51567" lon="6.12326">
        <ele>969.20001220703</ele>
        <time>2016-07-15T12:26:58.000Z</time>
      </trkpt>
      <trkpt lat="44.51571" lon="6.12325">
        <ele>969.79998779297</ele>
        <time>2016-07-15T12:27:02.000Z</time>
      </trkpt>
      <trkpt lat="44.51583" lon="6.12328">
        <ele>971.59997558594</ele>
        <time>2016-07-15T12:27:10.000Z</time>
      </trkpt>
      <trkpt lat="44.5159" lon="6.1233">
        <ele>972.79998779297</ele>
        <time>2016-07-15T12:27:16.000Z</time>
      </trkpt>
      <trkpt lat="44.51591" lon="6.1233">
        <ele>973</ele>
        <time>2016-07-15T12:27:17.000Z</time>
      </trkpt>
      <trkpt lat="44.51594" lon="6.1233">
        <ele>973.40002441406</ele>
        <time>2016-07-15T12:27:19.000Z</time>
      </trkpt>
      <trkpt lat="44.51599" lon="6.12333">
        <ele>974.20001220703</ele>
        <time>2016-07-15T12:27:25.000Z</time>
      </trkpt>
      <trkpt lat="44.51604" lon="6.12337">
        <ele>975</ele>
        <time>2016-07-15T12:27:30.000Z</time>
      </trkpt>
      <trkpt lat="44.51605" lon="6.12339">
        <ele>975.20001220703</ele>
        <time>2016-07-15T12:27:33.000Z</time>
      </trkpt>
      <trkpt lat="44.51608" lon="6.12342">
        <ele>975.59997558594</ele>
        <time>2016-07-15T12:27:36.000Z</time>
      </trkpt>
      <trkpt lat="44.51616" lon="6.12336">
        <ele>976.79998779297</ele>
        <time>2016-07-15T12:27:43.000Z</time>
      </trkpt>
      <trkpt lat="44.51616" lon="6.12335">
        <ele>976.79998779297</ele>
        <time>2016-07-15T12:27:44.000Z</time>
      </trkpt>
      <trkpt lat="44.51616" lon="6.12333">
        <ele>976.79998779297</ele>
        <time>2016-07-15T12:27:46.000Z</time>
      </trkpt>
      <trkpt lat="44.51611" lon="6.12321">
        <ele>976</ele>
        <time>2016-07-15T12:27:55.000Z</time>
      </trkpt>
      <trkpt lat="44.51606" lon="6.12314">
        <ele>975.20001220703</ele>
        <time>2016-07-15T12:28:01.000Z</time>
      </trkpt>
      <trkpt lat="44.51605" lon="6.12312">
        <ele>975</ele>
        <time>2016-07-15T12:28:03.000Z</time>
      </trkpt>
      <trkpt lat="44.51599" lon="6.12308">
        <ele>974.20001220703</ele>
        <time>2016-07-15T12:28:08.000Z</time>
      </trkpt>
      <trkpt lat="44.51596" lon="6.12305">
        <ele>973.59997558594</ele>
        <time>2016-07-15T12:28:13.000Z</time>
      </trkpt>
      <trkpt lat="44.51591" lon="6.12301">
        <ele>972.79998779297</ele>
        <time>2016-07-15T12:28:18.000Z</time>
      </trkpt>
      <trkpt lat="44.51588" lon="6.123">
        <ele>972.40002441406</ele>
        <time>2016-07-15T12:28:22.000Z</time>
      </trkpt>
      <trkpt lat="44.51584" lon="6.12298">
        <ele>971.79998779297</ele>
        <time>2016-07-15T12:28:28.000Z</time>
      </trkpt>
      <trkpt lat="44.51583" lon="6.12296">
        <ele>971.79998779297</ele>
        <time>2016-07-15T12:28:29.000Z</time>
      </trkpt>
      <trkpt lat="44.51576" lon="6.12288">
        <ele>970.59997558594</ele>
        <time>2016-07-15T12:28:35.000Z</time>
      </trkpt>
      <trkpt lat="44.51575" lon="6.12288">
        <ele>970.40002441406</ele>
        <time>2016-07-15T12:28:36.000Z</time>
      </trkpt>
      <trkpt lat="44.51566" lon="6.12286">
        <ele>969</ele>
        <time>2016-07-15T12:28:42.000Z</time>
      </trkpt>
      <trkpt lat="44.51558" lon="6.12284">
        <ele>967.79998779297</ele>
        <time>2016-07-15T12:28:48.000Z</time>
      </trkpt>
      <trkpt lat="44.51547" lon="6.12281">
        <ele>966.20001220703</ele>
        <time>2016-07-15T12:28:57.000Z</time>
      </trkpt>
      <trkpt lat="44.51539" lon="6.12276">
        <ele>964.79998779297</ele>
        <time>2016-07-15T12:29:05.000Z</time>
      </trkpt>
      <trkpt lat="44.5153" lon="6.1227">
        <ele>963.59997558594</ele>
        <time>2016-07-15T12:29:12.000Z</time>
      </trkpt>
      <trkpt lat="44.51525" lon="6.1226">
        <ele>963.20001220703</ele>
        <time>2016-07-15T12:29:18.000Z</time>
      </trkpt>
      <trkpt lat="44.51518" lon="6.12246">
        <ele>962.59997558594</ele>
        <time>2016-07-15T12:29:26.000Z</time>
      </trkpt>
      <trkpt lat="44.51512" lon="6.12228">
        <ele>962</ele>
        <time>2016-07-15T12:29:35.000Z</time>
      </trkpt>
      <trkpt lat="44.51508" lon="6.12216">
        <ele>962.20001220703</ele>
        <time>2016-07-15T12:29:41.000Z</time>
      </trkpt>
      <trkpt lat="44.51503" lon="6.122">
        <ele>962.79998779297</ele>
        <time>2016-07-15T12:29:49.000Z</time>
      </trkpt>
      <trkpt lat="44.515" lon="6.12182">
        <ele>963.59997558594</ele>
        <time>2016-07-15T12:29:58.000Z</time>
      </trkpt>
      <trkpt lat="44.51503" lon="6.12165">
        <ele>964.79998779297</ele>
        <time>2016-07-15T12:30:07.000Z</time>
      </trkpt>
      <trkpt lat="44.51509" lon="6.12147">
        <ele>966.40002441406</ele>
        <time>2016-07-15T12:30:17.000Z</time>
      </trkpt>
      <trkpt lat="44.51506" lon="6.12136">
        <ele>966.59997558594</ele>
        <time>2016-07-15T12:30:23.000Z</time>
      </trkpt>
      <trkpt lat="44.51495" lon="6.12122">
        <ele>966.40002441406</ele>
        <time>2016-07-15T12:30:33.000Z</time>
      </trkpt>
      <trkpt lat="44.51487" lon="6.12112">
        <ele>966</ele>
        <time>2016-07-15T12:30:40.000Z</time>
      </trkpt>
      <trkpt lat="44.51481" lon="6.12102">
        <ele>966</ele>
        <time>2016-07-15T12:30:47.000Z</time>
      </trkpt>
      <trkpt lat="44.51475" lon="6.12089">
        <ele>966</ele>
        <time>2016-07-15T12:30:55.000Z</time>
      </trkpt>
      <trkpt lat="44.51464" lon="6.12054">
        <ele>967.20001220703</ele>
        <time>2016-07-15T12:31:14.000Z</time>
      </trkpt>
      <trkpt lat="44.51459" lon="6.12038">
        <ele>967.79998779297</ele>
        <time>2016-07-15T12:31:23.000Z</time>
      </trkpt>
      <trkpt lat="44.51454" lon="6.12021">
        <ele>968.40002441406</ele>
        <time>2016-07-15T12:31:32.000Z</time>
      </trkpt>
      <trkpt lat="44.51447" lon="6.12">
        <ele>969</ele>
        <time>2016-07-15T12:31:44.000Z</time>
      </trkpt>
      <trkpt lat="44.5144" lon="6.11977">
        <ele>970</ele>
        <time>2016-07-15T12:31:56.000Z</time>
      </trkpt>
      <trkpt lat="44.51435" lon="6.1196">
        <ele>971</ele>
        <time>2016-07-15T12:32:07.000Z</time>
      </trkpt>
      <trkpt lat="44.51432" lon="6.11946">
        <ele>972</ele>
        <time>2016-07-15T12:32:15.000Z</time>
      </trkpt>
      <trkpt lat="44.51427" lon="6.11927">
        <ele>973.20001220703</ele>
        <time>2016-07-15T12:32:25.000Z</time>
      </trkpt>
      <trkpt lat="44.51422" lon="6.11911">
        <ele>974.40002441406</ele>
        <time>2016-07-15T12:32:34.000Z</time>
      </trkpt>
      <trkpt lat="44.51416" lon="6.11889">
        <ele>975.20001220703</ele>
        <time>2016-07-15T12:32:45.000Z</time>
      </trkpt>
      <trkpt lat="44.51411" lon="6.11865">
        <ele>974.40002441406</ele>
        <time>2016-07-15T12:32:58.000Z</time>
      </trkpt>
      <trkpt lat="44.51407" lon="6.11838">
        <ele>974.79998779297</ele>
        <time>2016-07-15T12:33:12.000Z</time>
      </trkpt>
      <trkpt lat="44.51405" lon="6.11824">
        <ele>975.40002441406</ele>
        <time>2016-07-15T12:33:19.000Z</time>
      </trkpt>
      <trkpt lat="44.51403" lon="6.11813">
        <ele>975.79998779297</ele>
        <time>2016-07-15T12:33:25.000Z</time>
      </trkpt>
      <trkpt lat="44.514" lon="6.11796">
        <ele>974.59997558594</ele>
        <time>2016-07-15T12:33:33.000Z</time>
      </trkpt>
      <trkpt lat="44.51395" lon="6.1177">
        <ele>972.40002441406</ele>
        <time>2016-07-15T12:33:46.000Z</time>
      </trkpt>
      <trkpt lat="44.51393" lon="6.11749">
        <ele>971.40002441406</ele>
        <time>2016-07-15T12:33:57.000Z</time>
      </trkpt>
      <trkpt lat="44.51396" lon="6.1173">
        <ele>973.20001220703</ele>
        <time>2016-07-15T12:34:07.000Z</time>
      </trkpt>
      <trkpt lat="44.514" lon="6.11711">
        <ele>975</ele>
        <time>2016-07-15T12:34:16.000Z</time>
      </trkpt>
      <trkpt lat="44.51401" lon="6.117">
        <ele>975.79998779297</ele>
        <time>2016-07-15T12:34:23.000Z</time>
      </trkpt>
      <trkpt lat="44.51405" lon="6.11676">
        <ele>977.20001220703</ele>
        <time>2016-07-15T12:34:34.000Z</time>
      </trkpt>
      <trkpt lat="44.5141" lon="6.11659">
        <ele>977.40002441406</ele>
        <time>2016-07-15T12:34:43.000Z</time>
      </trkpt>
      <trkpt lat="44.51414" lon="6.11641">
        <ele>978</ele>
        <time>2016-07-15T12:34:53.000Z</time>
      </trkpt>
      <trkpt lat="44.51412" lon="6.11624">
        <ele>980.59997558594</ele>
        <time>2016-07-15T12:35:02.000Z</time>
      </trkpt>
      <trkpt lat="44.51408" lon="6.11609">
        <ele>982.20001220703</ele>
        <time>2016-07-15T12:35:10.000Z</time>
      </trkpt>
      <trkpt lat="44.51398" lon="6.11598">
        <ele>982</ele>
        <time>2016-07-15T12:35:19.000Z</time>
      </trkpt>
      <trkpt lat="44.51385" lon="6.11583">
        <ele>981.79998779297</ele>
        <time>2016-07-15T12:35:31.000Z</time>
      </trkpt>
      <trkpt lat="44.51375" lon="6.1158">
        <ele>980.40002441406</ele>
        <time>2016-07-15T12:35:38.000Z</time>
      </trkpt>
      <trkpt lat="44.51363" lon="6.11577">
        <ele>979.40002441406</ele>
        <time>2016-07-15T12:35:47.000Z</time>
      </trkpt>
      <trkpt lat="44.51336" lon="6.11569">
        <ele>982</ele>
        <time>2016-07-15T12:36:07.000Z</time>
      </trkpt>
      <trkpt lat="44.51321" lon="6.11561">
        <ele>984</ele>
        <time>2016-07-15T12:36:19.000Z</time>
      </trkpt>
      <trkpt lat="44.5131" lon="6.11558">
        <ele>984.79998779297</ele>
        <time>2016-07-15T12:36:28.000Z</time>
      </trkpt>
      <trkpt lat="44.51295" lon="6.11554">
        <ele>985.79998779297</ele>
        <time>2016-07-15T12:36:39.000Z</time>
      </trkpt>
      <trkpt lat="44.51279" lon="6.1155">
        <ele>986.20001220703</ele>
        <time>2016-07-15T12:36:53.000Z</time>
      </trkpt>
      <trkpt lat="44.51269" lon="6.11545">
        <ele>985.59997558594</ele>
        <time>2016-07-15T12:37:01.000Z</time>
      </trkpt>
      <trkpt lat="44.51266" lon="6.11539">
        <ele>985.79998779297</ele>
        <time>2016-07-15T12:37:05.000Z</time>
      </trkpt>
      <trkpt lat="44.51266" lon="6.11533">
        <ele>986.20001220703</ele>
        <time>2016-07-15T12:37:13.000Z</time>
      </trkpt>
      <trkpt lat="44.51267" lon="6.11532">
        <ele>986.20001220703</ele>
        <time>2016-07-15T12:37:28.000Z</time>
      </trkpt>
      <trkpt lat="44.51271" lon="6.11532">
        <ele>986.59997558594</ele>
        <time>2016-07-15T12:37:55.000Z</time>
      </trkpt>
      <trkpt lat="44.51273" lon="6.11532">
        <ele>986.79998779297</ele>
        <time>2016-07-15T12:37:59.000Z</time>
      </trkpt>
      <trkpt lat="44.5128" lon="6.11526">
        <ele>987.79998779297</ele>
        <time>2016-07-15T12:38:05.000Z</time>
      </trkpt>
      <trkpt lat="44.51285" lon="6.11512">
        <ele>988.79998779297</ele>
        <time>2016-07-15T12:38:13.000Z</time>
      </trkpt>
      <trkpt lat="44.5129" lon="6.11501">
        <ele>989.20001220703</ele>
        <time>2016-07-15T12:38:20.000Z</time>
      </trkpt>
      <trkpt lat="44.51296" lon="6.11488">
        <ele>990</ele>
        <time>2016-07-15T12:38:28.000Z</time>
      </trkpt>
      <trkpt lat="44.51298" lon="6.11483">
        <ele>991.40002441406</ele>
        <time>2016-07-15T12:38:31.000Z</time>
      </trkpt>
      <trkpt lat="44.51303" lon="6.1147">
        <ele>993.59997558594</ele>
        <time>2016-07-15T12:38:38.000Z</time>
      </trkpt>
      <trkpt lat="44.51306" lon="6.1146">
        <ele>994.20001220703</ele>
        <time>2016-07-15T12:38:43.000Z</time>
      </trkpt>
      <trkpt lat="44.51315" lon="6.11454">
        <ele>995.40002441406</ele>
        <time>2016-07-15T12:38:55.000Z</time>
      </trkpt>
      <trkpt lat="44.51316" lon="6.11454">
        <ele>995.59997558594</ele>
        <time>2016-07-15T12:38:56.000Z</time>
      </trkpt>
      <trkpt lat="44.51328" lon="6.11449">
        <ele>997.20001220703</ele>
        <time>2016-07-15T12:39:07.000Z</time>
      </trkpt>
      <trkpt lat="44.51335" lon="6.11443">
        <ele>998.20001220703</ele>
        <time>2016-07-15T12:39:13.000Z</time>
      </trkpt>
      <trkpt lat="44.51343" lon="6.11437">
        <ele>1000.4000244141</ele>
        <time>2016-07-15T12:39:21.000Z</time>
      </trkpt>
      <trkpt lat="44.51351" lon="6.11432">
        <ele>1002.5999755859</ele>
        <time>2016-07-15T12:39:29.000Z</time>
      </trkpt>
      <trkpt lat="44.51359" lon="6.11427">
        <ele>1004.5999755859</ele>
        <time>2016-07-15T12:39:38.000Z</time>
      </trkpt>
      <trkpt lat="44.51366" lon="6.11425">
        <ele>1006.200012207</ele>
        <time>2016-07-15T12:39:45.000Z</time>
      </trkpt>
      <trkpt lat="44.51375" lon="6.11428">
        <ele>1007.799987793</ele>
        <time>2016-07-15T12:39:53.000Z</time>
      </trkpt>
      <trkpt lat="44.5138" lon="6.11428">
        <ele>1008.799987793</ele>
        <time>2016-07-15T12:39:57.000Z</time>
      </trkpt>
      <trkpt lat="44.51389" lon="6.11432">
        <ele>1010.4000244141</ele>
        <time>2016-07-15T12:40:05.000Z</time>
      </trkpt>
      <trkpt lat="44.51399" lon="6.11439">
        <ele>1011.5999755859</ele>
        <time>2016-07-15T12:40:13.000Z</time>
      </trkpt>
      <trkpt lat="44.514" lon="6.11439">
        <ele>1011.799987793</ele>
        <time>2016-07-15T12:40:14.000Z</time>
      </trkpt>
      <trkpt lat="44.51403" lon="6.11441">
        <ele>1012.4000244141</ele>
        <time>2016-07-15T12:40:17.000Z</time>
      </trkpt>
      <trkpt lat="44.51408" lon="6.11441">
        <ele>1013.4000244141</ele>
        <time>2016-07-15T12:40:21.000Z</time>
      </trkpt>
      <trkpt lat="44.51416" lon="6.11434">
        <ele>1015.799987793</ele>
        <time>2016-07-15T12:40:28.000Z</time>
      </trkpt>
      <trkpt lat="44.51424" lon="6.11427">
        <ele>1018.799987793</ele>
        <time>2016-07-15T12:40:34.000Z</time>
      </trkpt>
      <trkpt lat="44.51431" lon="6.11429">
        <ele>1020.200012207</ele>
        <time>2016-07-15T12:40:38.000Z</time>
      </trkpt>
      <trkpt lat="44.5144" lon="6.11436">
        <ele>1021.4000244141</ele>
        <time>2016-07-15T12:40:43.000Z</time>
      </trkpt>
      <trkpt lat="44.51448" lon="6.1145">
        <ele>1021.799987793</ele>
        <time>2016-07-15T12:40:48.000Z</time>
      </trkpt>
      <trkpt lat="44.51452" lon="6.11454">
        <ele>1022.4000244141</ele>
        <time>2016-07-15T12:40:50.000Z</time>
      </trkpt>
      <trkpt lat="44.5146" lon="6.11455">
        <ele>1024.5999755859</ele>
        <time>2016-07-15T12:40:57.000Z</time>
      </trkpt>
      <trkpt lat="44.5146" lon="6.11459">
        <ele>1024</ele>
        <time>2016-07-15T12:40:59.000Z</time>
      </trkpt>
      <trkpt lat="44.51463" lon="6.11476">
        <ele>1023</ele>
        <time>2016-07-15T12:41:08.000Z</time>
      </trkpt>
      <trkpt lat="44.51471" lon="6.11487">
        <ele>1023</ele>
        <time>2016-07-15T12:41:16.000Z</time>
      </trkpt>
      <trkpt lat="44.51472" lon="6.11488">
        <ele>1023</ele>
        <time>2016-07-15T12:41:17.000Z</time>
      </trkpt>
      <trkpt lat="44.51476" lon="6.11489">
        <ele>1023.799987793</ele>
        <time>2016-07-15T12:41:26.000Z</time>
      </trkpt>
      <trkpt lat="44.51487" lon="6.11499">
        <ele>1024.5999755859</ele>
        <time>2016-07-15T12:41:36.000Z</time>
      </trkpt>
      <trkpt lat="44.51498" lon="6.11511">
        <ele>1025</ele>
        <time>2016-07-15T12:41:46.000Z</time>
      </trkpt>
      <trkpt lat="44.51512" lon="6.11524">
        <ele>1026.1999511719</ele>
        <time>2016-07-15T12:41:59.000Z</time>
      </trkpt>
      <trkpt lat="44.51524" lon="6.11536">
        <ele>1027</ele>
        <time>2016-07-15T12:42:10.000Z</time>
      </trkpt>
      <trkpt lat="44.51539" lon="6.11546">
        <ele>1028.8000488281</ele>
        <time>2016-07-15T12:42:22.000Z</time>
      </trkpt>
      <trkpt lat="44.51555" lon="6.11554">
        <ele>1031.5999755859</ele>
        <time>2016-07-15T12:42:35.000Z</time>
      </trkpt>
      <trkpt lat="44.51571" lon="6.11556">
        <ele>1035.5999755859</ele>
        <time>2016-07-15T12:42:47.000Z</time>
      </trkpt>
      <trkpt lat="44.51589" lon="6.11557">
        <ele>1040</ele>
        <time>2016-07-15T12:43:00.000Z</time>
      </trkpt>
      <trkpt lat="44.51602" lon="6.11555">
        <ele>1044</ele>
        <time>2016-07-15T12:43:09.000Z</time>
      </trkpt>
      <trkpt lat="44.51615" lon="6.11552">
        <ele>1047.5999755859</ele>
        <time>2016-07-15T12:43:18.000Z</time>
      </trkpt>
      <trkpt lat="44.51628" lon="6.11553">
        <ele>1048.5999755859</ele>
        <time>2016-07-15T12:43:27.000Z</time>
      </trkpt>
      <trkpt lat="44.51638" lon="6.11555">
        <ele>1049</ele>
        <time>2016-07-15T12:43:34.000Z</time>
      </trkpt>
      <trkpt lat="44.51651" lon="6.11559">
        <ele>1049.1999511719</ele>
        <time>2016-07-15T12:43:43.000Z</time>
      </trkpt>
      <trkpt lat="44.5167" lon="6.11564">
        <ele>1049.4000244141</ele>
        <time>2016-07-15T12:43:57.000Z</time>
      </trkpt>
      <trkpt lat="44.51682" lon="6.11563">
        <ele>1050.4000244141</ele>
        <time>2016-07-15T12:44:06.000Z</time>
      </trkpt>
      <trkpt lat="44.51691" lon="6.11559">
        <ele>1051.5999755859</ele>
        <time>2016-07-15T12:44:12.000Z</time>
      </trkpt>
      <trkpt lat="44.51699" lon="6.11554">
        <ele>1053</ele>
        <time>2016-07-15T12:44:19.000Z</time>
      </trkpt>
      <trkpt lat="44.51705" lon="6.1155">
        <ele>1054.8000488281</ele>
        <time>2016-07-15T12:44:24.000Z</time>
      </trkpt>
      <trkpt lat="44.51718" lon="6.11542">
        <ele>1058.4000244141</ele>
        <time>2016-07-15T12:44:33.000Z</time>
      </trkpt>
      <trkpt lat="44.51733" lon="6.11534">
        <ele>1062.4000244141</ele>
        <time>2016-07-15T12:44:44.000Z</time>
      </trkpt>
      <trkpt lat="44.51748" lon="6.11534">
        <ele>1064.8000488281</ele>
        <time>2016-07-15T12:44:54.000Z</time>
      </trkpt>
      <trkpt lat="44.51755" lon="6.11536">
        <ele>1065.5999755859</ele>
        <time>2016-07-15T12:45:01.000Z</time>
      </trkpt>
      <trkpt lat="44.51758" lon="6.11536">
        <ele>1066</ele>
        <time>2016-07-15T12:45:11.000Z</time>
      </trkpt>
      <trkpt lat="44.51759" lon="6.11535">
        <ele>1066.1999511719</ele>
        <time>2016-07-15T12:45:22.000Z</time>
      </trkpt>
      <trkpt lat="44.51763" lon="6.11525">
        <ele>1068.4000244141</ele>
        <time>2016-07-15T12:45:29.000Z</time>
      </trkpt>
      <trkpt lat="44.51763" lon="6.11519">
        <ele>1069.4000244141</ele>
        <time>2016-07-15T12:45:32.000Z</time>
      </trkpt>
      <trkpt lat="44.51768" lon="6.11506">
        <ele>1072.1999511719</ele>
        <time>2016-07-15T12:45:40.000Z</time>
      </trkpt>
      <trkpt lat="44.51775" lon="6.11504">
        <ele>1073.5999755859</ele>
        <time>2016-07-15T12:45:48.000Z</time>
      </trkpt>
      <trkpt lat="44.5178" lon="6.11499">
        <ele>1074.8000488281</ele>
        <time>2016-07-15T12:45:54.000Z</time>
      </trkpt>
      <trkpt lat="44.5179" lon="6.11489">
        <ele>1077.8000488281</ele>
        <time>2016-07-15T12:46:03.000Z</time>
      </trkpt>
      <trkpt lat="44.518" lon="6.11477">
        <ele>1079.4000244141</ele>
        <time>2016-07-15T12:46:13.000Z</time>
      </trkpt>
      <trkpt lat="44.51805" lon="6.11462">
        <ele>1081.1999511719</ele>
        <time>2016-07-15T12:46:21.000Z</time>
      </trkpt>
      <trkpt lat="44.51809" lon="6.11445">
        <ele>1083</ele>
        <time>2016-07-15T12:46:30.000Z</time>
      </trkpt>
      <trkpt lat="44.51812" lon="6.11426">
        <ele>1085.1999511719</ele>
        <time>2016-07-15T12:46:39.000Z</time>
      </trkpt>
      <trkpt lat="44.5181" lon="6.11402">
        <ele>1087</ele>
        <time>2016-07-15T12:46:51.000Z</time>
      </trkpt>
      <trkpt lat="44.5181" lon="6.11379">
        <ele>1087.4000244141</ele>
        <time>2016-07-15T12:47:02.000Z</time>
      </trkpt>
      <trkpt lat="44.51809" lon="6.11361">
        <ele>1087</ele>
        <time>2016-07-15T12:47:11.000Z</time>
      </trkpt>
      <trkpt lat="44.51808" lon="6.11337">
        <ele>1086.4000244141</ele>
        <time>2016-07-15T12:47:23.000Z</time>
      </trkpt>
      <trkpt lat="44.51808" lon="6.11325">
        <ele>1086.5999755859</ele>
        <time>2016-07-15T12:47:30.000Z</time>
      </trkpt>
      <trkpt lat="44.51807" lon="6.11301">
        <ele>1086.4000244141</ele>
        <time>2016-07-15T12:47:42.000Z</time>
      </trkpt>
      <trkpt lat="44.51806" lon="6.11282">
        <ele>1085.4000244141</ele>
        <time>2016-07-15T12:47:51.000Z</time>
      </trkpt>
      <trkpt lat="44.51803" lon="6.11262">
        <ele>1084.4000244141</ele>
        <time>2016-07-15T12:48:01.000Z</time>
      </trkpt>
      <trkpt lat="44.518" lon="6.11242">
        <ele>1083.4000244141</ele>
        <time>2016-07-15T12:48:11.000Z</time>
      </trkpt>
      <trkpt lat="44.51797" lon="6.1123">
        <ele>1083.5999755859</ele>
        <time>2016-07-15T12:48:17.000Z</time>
      </trkpt>
      <trkpt lat="44.51796" lon="6.11213">
        <ele>1083.1999511719</ele>
        <time>2016-07-15T12:48:25.000Z</time>
      </trkpt>
      <trkpt lat="44.51792" lon="6.11193">
        <ele>1082.5999755859</ele>
        <time>2016-07-15T12:48:35.000Z</time>
      </trkpt>
      <trkpt lat="44.5179" lon="6.11173">
        <ele>1082.1999511719</ele>
        <time>2016-07-15T12:48:45.000Z</time>
      </trkpt>
      <trkpt lat="44.51792" lon="6.1115">
        <ele>1082.1999511719</ele>
        <time>2016-07-15T12:48:57.000Z</time>
      </trkpt>
      <trkpt lat="44.51796" lon="6.1113">
        <ele>1082.4000244141</ele>
        <time>2016-07-15T12:49:08.000Z</time>
      </trkpt>
      <trkpt lat="44.51798" lon="6.11112">
        <ele>1081.8000488281</ele>
        <time>2016-07-15T12:49:17.000Z</time>
      </trkpt>
      <trkpt lat="44.51799" lon="6.11094">
        <ele>1081.1999511719</ele>
        <time>2016-07-15T12:49:26.000Z</time>
      </trkpt>
      <trkpt lat="44.51803" lon="6.1108">
        <ele>1081.1999511719</ele>
        <time>2016-07-15T12:49:34.000Z</time>
      </trkpt>
      <trkpt lat="44.51805" lon="6.11071">
        <ele>1081.8000488281</ele>
        <time>2016-07-15T12:49:40.000Z</time>
      </trkpt>
      <trkpt lat="44.51807" lon="6.11056">
        <ele>1081.8000488281</ele>
        <time>2016-07-15T12:49:48.000Z</time>
      </trkpt>
      <trkpt lat="44.51807" lon="6.11038">
        <ele>1080.1999511719</ele>
        <time>2016-07-15T12:49:57.000Z</time>
      </trkpt>
      <trkpt lat="44.51808" lon="6.11014">
        <ele>1078</ele>
        <time>2016-07-15T12:50:09.000Z</time>
      </trkpt>
      <trkpt lat="44.51808" lon="6.11002">
        <ele>1077</ele>
        <time>2016-07-15T12:50:16.000Z</time>
      </trkpt>
      <trkpt lat="44.51811" lon="6.10985">
        <ele>1077.1999511719</ele>
        <time>2016-07-15T12:50:25.000Z</time>
      </trkpt>
      <trkpt lat="44.51813" lon="6.10976">
        <ele>1077.4000244141</ele>
        <time>2016-07-15T12:50:32.000Z</time>
      </trkpt>
      <trkpt lat="44.51814" lon="6.10968">
        <ele>1077.1999511719</ele>
        <time>2016-07-15T12:50:43.000Z</time>
      </trkpt>
      <trkpt lat="44.5182" lon="6.10945">
        <ele>1076.8000488281</ele>
        <time>2016-07-15T12:50:56.000Z</time>
      </trkpt>
      <trkpt lat="44.51825" lon="6.10926">
        <ele>1076.4000244141</ele>
        <time>2016-07-15T12:51:06.000Z</time>
      </trkpt>
      <trkpt lat="44.51831" lon="6.10903">
        <ele>1075.4000244141</ele>
        <time>2016-07-15T12:51:18.000Z</time>
      </trkpt>
      <trkpt lat="44.51833" lon="6.1089">
        <ele>1075</ele>
        <time>2016-07-15T12:51:26.000Z</time>
      </trkpt>
      <trkpt lat="44.51835" lon="6.10884">
        <ele>1075.1999511719</ele>
        <time>2016-07-15T12:51:29.000Z</time>
      </trkpt>
      <trkpt lat="44.51835" lon="6.10878">
        <ele>1075.1999511719</ele>
        <time>2016-07-15T12:51:32.000Z</time>
      </trkpt>
      <trkpt lat="44.51837" lon="6.1086">
        <ele>1074.5999755859</ele>
        <time>2016-07-15T12:51:41.000Z</time>
      </trkpt>
      <trkpt lat="44.51838" lon="6.10841">
        <ele>1073</ele>
        <time>2016-07-15T12:51:51.000Z</time>
      </trkpt>
      <trkpt lat="44.51839" lon="6.10821">
        <ele>1071.1999511719</ele>
        <time>2016-07-15T12:52:01.000Z</time>
      </trkpt>
      <trkpt lat="44.51842" lon="6.10798">
        <ele>1070.5999755859</ele>
        <time>2016-07-15T12:52:13.000Z</time>
      </trkpt>
      <trkpt lat="44.5185" lon="6.10782">
        <ele>1071</ele>
        <time>2016-07-15T12:52:23.000Z</time>
      </trkpt>
      <trkpt lat="44.51857" lon="6.10765">
        <ele>1070.4000244141</ele>
        <time>2016-07-15T12:52:33.000Z</time>
      </trkpt>
      <trkpt lat="44.51865" lon="6.10751">
        <ele>1070.1999511719</ele>
        <time>2016-07-15T12:52:43.000Z</time>
      </trkpt>
      <trkpt lat="44.51872" lon="6.10745">
        <ele>1071</ele>
        <time>2016-07-15T12:52:51.000Z</time>
      </trkpt>
      <trkpt lat="44.5188" lon="6.10743">
        <ele>1072.5999755859</ele>
        <time>2016-07-15T12:52:57.000Z</time>
      </trkpt>
      <trkpt lat="44.51889" lon="6.10736">
        <ele>1072.4000244141</ele>
        <time>2016-07-15T12:53:05.000Z</time>
      </trkpt>
      <trkpt lat="44.519" lon="6.10727">
        <ele>1071.4000244141</ele>
        <time>2016-07-15T12:53:13.000Z</time>
      </trkpt>
      <trkpt lat="44.51901" lon="6.10722">
        <ele>1070.8000488281</ele>
        <time>2016-07-15T12:53:22.000Z</time>
      </trkpt>
      <trkpt lat="44.51899" lon="6.10706">
        <ele>1067.5999755859</ele>
        <time>2016-07-15T12:54:16.000Z</time>
      </trkpt>
      <trkpt lat="44.519" lon="6.10714">
        <ele>1069</ele>
        <time>2016-07-15T12:54:26.000Z</time>
      </trkpt>
      <trkpt lat="44.51905" lon="6.10714">
        <ele>1069.5999755859</ele>
        <time>2016-07-15T12:54:52.000Z</time>
      </trkpt>
      <trkpt lat="44.51914" lon="6.10707">
        <ele>1069.1999511719</ele>
        <time>2016-07-15T12:54:59.000Z</time>
      </trkpt>
      <trkpt lat="44.51924" lon="6.10703">
        <ele>1069.5999755859</ele>
        <time>2016-07-15T12:55:06.000Z</time>
      </trkpt>
      <trkpt lat="44.5193" lon="6.10701">
        <ele>1070.1999511719</ele>
        <time>2016-07-15T12:55:12.000Z</time>
      </trkpt>
      <trkpt lat="44.51934" lon="6.107">
        <ele>1070.5999755859</ele>
        <time>2016-07-15T12:55:15.000Z</time>
      </trkpt>
      <trkpt lat="44.51942" lon="6.10697">
        <ele>1071.4000244141</ele>
        <time>2016-07-15T12:55:21.000Z</time>
      </trkpt>
      <trkpt lat="44.51949" lon="6.10694">
        <ele>1072</ele>
        <time>2016-07-15T12:55:27.000Z</time>
      </trkpt>
      <trkpt lat="44.5195" lon="6.10693">
        <ele>1072.1999511719</ele>
        <time>2016-07-15T12:55:28.000Z</time>
      </trkpt>
      <trkpt lat="44.51952" lon="6.10691">
        <ele>1072</ele>
        <time>2016-07-15T12:55:30.000Z</time>
      </trkpt>
      <trkpt lat="44.51958" lon="6.10688">
        <ele>1071.5999755859</ele>
        <time>2016-07-15T12:55:36.000Z</time>
      </trkpt>
      <trkpt lat="44.51959" lon="6.10687">
        <ele>1071.4000244141</ele>
        <time>2016-07-15T12:55:37.000Z</time>
      </trkpt>
      <trkpt lat="44.51972" lon="6.10684">
        <ele>1071.4000244141</ele>
        <time>2016-07-15T12:55:46.000Z</time>
      </trkpt>
      <trkpt lat="44.51983" lon="6.10683">
        <ele>1071.4000244141</ele>
        <time>2016-07-15T12:55:55.000Z</time>
      </trkpt>
      <trkpt lat="44.51988" lon="6.10683">
        <ele>1071.5999755859</ele>
        <time>2016-07-15T12:56:00.000Z</time>
      </trkpt>
      <trkpt lat="44.51998" lon="6.10686">
        <ele>1072.1999511719</ele>
        <time>2016-07-15T12:56:07.000Z</time>
      </trkpt>
      <trkpt lat="44.52001" lon="6.10687">
        <ele>1072.1999511719</ele>
        <time>2016-07-15T12:56:09.000Z</time>
      </trkpt>
      <trkpt lat="44.52005" lon="6.10688">
        <ele>1072.4000244141</ele>
        <time>2016-07-15T12:56:12.000Z</time>
      </trkpt>
      <trkpt lat="44.52015" lon="6.10687">
        <ele>1072</ele>
        <time>2016-07-15T12:56:19.000Z</time>
      </trkpt>
      <trkpt lat="44.5202" lon="6.10688">
        <ele>1072.1999511719</ele>
        <time>2016-07-15T12:56:22.000Z</time>
      </trkpt>
      <trkpt lat="44.52031" lon="6.10689">
        <ele>1072.1999511719</ele>
        <time>2016-07-15T12:56:29.000Z</time>
      </trkpt>
      <trkpt lat="44.52037" lon="6.10688">
        <ele>1071.8000488281</ele>
        <time>2016-07-15T12:56:34.000Z</time>
      </trkpt>
      <trkpt lat="44.52047" lon="6.10686">
        <ele>1070.8000488281</ele>
        <time>2016-07-15T12:56:41.000Z</time>
      </trkpt>
      <trkpt lat="44.52052" lon="6.10686">
        <ele>1070.5999755859</ele>
        <time>2016-07-15T12:56:45.000Z</time>
      </trkpt>
      <trkpt lat="44.52064" lon="6.10686">
        <ele>1069.8000488281</ele>
        <time>2016-07-15T12:56:53.000Z</time>
      </trkpt>
      <trkpt lat="44.52074" lon="6.10686">
        <ele>1069.1999511719</ele>
        <time>2016-07-15T12:57:00.000Z</time>
      </trkpt>
      <trkpt lat="44.52089" lon="6.10685">
        <ele>1068.1999511719</ele>
        <time>2016-07-15T12:57:10.000Z</time>
      </trkpt>
      <trkpt lat="44.52098" lon="6.10686">
        <ele>1067.8000488281</ele>
        <time>2016-07-15T12:57:16.000Z</time>
      </trkpt>
      <trkpt lat="44.52107" lon="6.10686">
        <ele>1067.4000244141</ele>
        <time>2016-07-15T12:57:22.000Z</time>
      </trkpt>
      <trkpt lat="44.52108" lon="6.10686">
        <ele>1067.1999511719</ele>
        <time>2016-07-15T12:57:23.000Z</time>
      </trkpt>
      <trkpt lat="44.52118" lon="6.10684">
        <ele>1066.1999511719</ele>
        <time>2016-07-15T12:57:30.000Z</time>
      </trkpt>
      <trkpt lat="44.52125" lon="6.10687">
        <ele>1065</ele>
        <time>2016-07-15T12:57:36.000Z</time>
      </trkpt>
      <trkpt lat="44.52133" lon="6.10694">
        <ele>1064.4000244141</ele>
        <time>2016-07-15T12:57:43.000Z</time>
      </trkpt>
      <trkpt lat="44.52141" lon="6.10704">
        <ele>1064.4000244141</ele>
        <time>2016-07-15T12:57:51.000Z</time>
      </trkpt>
      <trkpt lat="44.5215" lon="6.10713">
        <ele>1064</ele>
        <time>2016-07-15T12:57:58.000Z</time>
      </trkpt>
      <trkpt lat="44.52163" lon="6.10719">
        <ele>1062.1999511719</ele>
        <time>2016-07-15T12:58:06.000Z</time>
      </trkpt>
      <trkpt lat="44.52171" lon="6.10724">
        <ele>1061.1999511719</ele>
        <time>2016-07-15T12:58:12.000Z</time>
      </trkpt>
      <trkpt lat="44.52179" lon="6.10733">
        <ele>1061</ele>
        <time>2016-07-15T12:58:20.000Z</time>
      </trkpt>
      <trkpt lat="44.5218" lon="6.10735">
        <ele>1061</ele>
        <time>2016-07-15T12:58:21.000Z</time>
      </trkpt>
      <trkpt lat="44.52187" lon="6.10748">
        <ele>1061.1999511719</ele>
        <time>2016-07-15T12:58:29.000Z</time>
      </trkpt>
      <trkpt lat="44.52193" lon="6.10762">
        <ele>1062.1999511719</ele>
        <time>2016-07-15T12:58:37.000Z</time>
      </trkpt>
      <trkpt lat="44.52199" lon="6.10776">
        <ele>1063</ele>
        <time>2016-07-15T12:58:45.000Z</time>
      </trkpt>
      <trkpt lat="44.52201" lon="6.10784">
        <ele>1063.4000244141</ele>
        <time>2016-07-15T12:58:50.000Z</time>
      </trkpt>
      <trkpt lat="44.52211" lon="6.10795">
        <ele>1061.5999755859</ele>
        <time>2016-07-15T12:58:58.000Z</time>
      </trkpt>
      <trkpt lat="44.52217" lon="6.10803">
        <ele>1060.4000244141</ele>
        <time>2016-07-15T12:59:04.000Z</time>
      </trkpt>
      <trkpt lat="44.52225" lon="6.10812">
        <ele>1059</ele>
        <time>2016-07-15T12:59:12.000Z</time>
      </trkpt>
      <trkpt lat="44.52226" lon="6.10816">
        <ele>1059.1999511719</ele>
        <time>2016-07-15T12:59:15.000Z</time>
      </trkpt>
      <trkpt lat="44.52228" lon="6.10819">
        <ele>1059</ele>
        <time>2016-07-15T12:59:18.000Z</time>
      </trkpt>
      <trkpt lat="44.52235" lon="6.10822">
        <ele>1057.1999511719</ele>
        <time>2016-07-15T12:59:23.000Z</time>
      </trkpt>
      <trkpt lat="44.52242" lon="6.10824">
        <ele>1054.5999755859</ele>
        <time>2016-07-15T12:59:30.000Z</time>
      </trkpt>
      <trkpt lat="44.52249" lon="6.10828">
        <ele>1053</ele>
        <time>2016-07-15T12:59:36.000Z</time>
      </trkpt>
      <trkpt lat="44.52253" lon="6.1083">
        <ele>1051.5999755859</ele>
        <time>2016-07-15T12:59:40.000Z</time>
      </trkpt>
      <trkpt lat="44.52257" lon="6.10832">
        <ele>1050.4000244141</ele>
        <time>2016-07-15T12:59:45.000Z</time>
      </trkpt>
      <trkpt lat="44.52265" lon="6.10838">
        <ele>1048.4000244141</ele>
        <time>2016-07-15T12:59:51.000Z</time>
      </trkpt>
      <trkpt lat="44.52274" lon="6.10843">
        <ele>1046.1999511719</ele>
        <time>2016-07-15T12:59:57.000Z</time>
      </trkpt>
      <trkpt lat="44.52287" lon="6.10851">
        <ele>1043</ele>
        <time>2016-07-15T13:00:07.000Z</time>
      </trkpt>
      <trkpt lat="44.52288" lon="6.10852">
        <ele>1043</ele>
        <time>2016-07-15T13:00:08.000Z</time>
      </trkpt>
      <trkpt lat="44.52296" lon="6.10857">
        <ele>1042</ele>
        <time>2016-07-15T13:00:13.000Z</time>
      </trkpt>
      <trkpt lat="44.52301" lon="6.1086">
        <ele>1041.5999755859</ele>
        <time>2016-07-15T13:00:18.000Z</time>
      </trkpt>
      <trkpt lat="44.52309" lon="6.10862">
        <ele>1040</ele>
        <time>2016-07-15T13:00:24.000Z</time>
      </trkpt>
      <trkpt lat="44.52316" lon="6.10867">
        <ele>1039</ele>
        <time>2016-07-15T13:00:29.000Z</time>
      </trkpt>
      <trkpt lat="44.52326" lon="6.10875">
        <ele>1038.4000244141</ele>
        <time>2016-07-15T13:00:36.000Z</time>
      </trkpt>
      <trkpt lat="44.52331" lon="6.10879">
        <ele>1037.8000488281</ele>
        <time>2016-07-15T13:00:40.000Z</time>
      </trkpt>
      <trkpt lat="44.5234" lon="6.10889">
        <ele>1037.5999755859</ele>
        <time>2016-07-15T13:00:47.000Z</time>
      </trkpt>
      <trkpt lat="44.52354" lon="6.10925">
        <ele>1038.1999511719</ele>
        <time>2016-07-15T13:01:06.000Z</time>
      </trkpt>
      <trkpt lat="44.5236" lon="6.10936">
        <ele>1037.8000488281</ele>
        <time>2016-07-15T13:01:13.000Z</time>
      </trkpt>
      <trkpt lat="44.52362" lon="6.10939">
        <ele>1037.5999755859</ele>
        <time>2016-07-15T13:01:15.000Z</time>
      </trkpt>
      <trkpt lat="44.52367" lon="6.10947">
        <ele>1037.1999511719</ele>
        <time>2016-07-15T13:01:20.000Z</time>
      </trkpt>
      <trkpt lat="44.52377" lon="6.10964">
        <ele>1036.5999755859</ele>
        <time>2016-07-15T13:01:29.000Z</time>
      </trkpt>
      <trkpt lat="44.52377" lon="6.10977">
        <ele>1037.8000488281</ele>
        <time>2016-07-15T13:01:36.000Z</time>
      </trkpt>
      <trkpt lat="44.52372" lon="6.10984">
        <ele>1039.5999755859</ele>
        <time>2016-07-15T13:01:42.000Z</time>
      </trkpt>
      <trkpt lat="44.52366" lon="6.10986">
        <ele>1041</ele>
        <time>2016-07-15T13:01:48.000Z</time>
      </trkpt>
      <trkpt lat="44.52364" lon="6.10989">
        <ele>1041.5999755859</ele>
        <time>2016-07-15T13:01:55.000Z</time>
      </trkpt>
      <trkpt lat="44.52358" lon="6.10993">
        <ele>1043.5999755859</ele>
        <time>2016-07-15T13:02:01.000Z</time>
      </trkpt>
      <trkpt lat="44.52355" lon="6.10997">
        <ele>1044.5999755859</ele>
        <time>2016-07-15T13:02:04.000Z</time>
      </trkpt>
      <trkpt lat="44.52353" lon="6.11008">
        <ele>1046</ele>
        <time>2016-07-15T13:02:10.000Z</time>
      </trkpt>
      <trkpt lat="44.52353" lon="6.1101">
        <ele>1046</ele>
        <time>2016-07-15T13:02:11.000Z</time>
      </trkpt>
      <trkpt lat="44.52356" lon="6.1102">
        <ele>1046.1999511719</ele>
        <time>2016-07-15T13:02:17.000Z</time>
      </trkpt>
      <trkpt lat="44.52363" lon="6.11027">
        <ele>1044.8000488281</ele>
        <time>2016-07-15T13:02:24.000Z</time>
      </trkpt>
      <trkpt lat="44.52364" lon="6.11028">
        <ele>1044.5999755859</ele>
        <time>2016-07-15T13:02:25.000Z</time>
      </trkpt>
      <trkpt lat="44.52366" lon="6.11037">
        <ele>1044.5999755859</ele>
        <time>2016-07-15T13:02:32.000Z</time>
      </trkpt>
      <trkpt lat="44.52366" lon="6.11039">
        <ele>1044.8000488281</ele>
        <time>2016-07-15T13:02:33.000Z</time>
      </trkpt>
      <trkpt lat="44.52364" lon="6.11047">
        <ele>1045.8000488281</ele>
        <time>2016-07-15T13:02:37.000Z</time>
      </trkpt>
      <trkpt lat="44.52367" lon="6.11052">
        <ele>1045.4000244141</ele>
        <time>2016-07-15T13:02:43.000Z</time>
      </trkpt>
      <trkpt lat="44.52369" lon="6.11052">
        <ele>1045.1999511719</ele>
        <time>2016-07-15T13:02:44.000Z</time>
      </trkpt>
      <trkpt lat="44.52381" lon="6.11055">
        <ele>1043.4000244141</ele>
        <time>2016-07-15T13:02:52.000Z</time>
      </trkpt>
      <trkpt lat="44.52388" lon="6.11056">
        <ele>1042.1999511719</ele>
        <time>2016-07-15T13:02:58.000Z</time>
      </trkpt>
      <trkpt lat="44.5239" lon="6.11056">
        <ele>1041.8000488281</ele>
        <time>2016-07-15T13:03:01.000Z</time>
      </trkpt>
      <trkpt lat="44.52393" lon="6.11062">
        <ele>1042</ele>
        <time>2016-07-15T13:03:05.000Z</time>
      </trkpt>
      <trkpt lat="44.52395" lon="6.11069">
        <ele>1043.1999511719</ele>
        <time>2016-07-15T13:03:10.000Z</time>
      </trkpt>
      <trkpt lat="44.52403" lon="6.1107">
        <ele>1042.1999511719</ele>
        <time>2016-07-15T13:03:16.000Z</time>
      </trkpt>
      <trkpt lat="44.52408" lon="6.11069">
        <ele>1041</ele>
        <time>2016-07-15T13:03:20.000Z</time>
      </trkpt>
      <trkpt lat="44.52419" lon="6.11066">
        <ele>1038.5999755859</ele>
        <time>2016-07-15T13:03:28.000Z</time>
      </trkpt>
      <trkpt lat="44.52422" lon="6.11067">
        <ele>1038</ele>
        <time>2016-07-15T13:03:32.000Z</time>
      </trkpt>
      <trkpt lat="44.52427" lon="6.11067">
        <ele>1037.4000244141</ele>
        <time>2016-07-15T13:03:38.000Z</time>
      </trkpt>
      <trkpt lat="44.52435" lon="6.11066">
        <ele>1036</ele>
        <time>2016-07-15T13:03:44.000Z</time>
      </trkpt>
      <trkpt lat="44.52442" lon="6.11074">
        <ele>1036.4000244141</ele>
        <time>2016-07-15T13:03:50.000Z</time>
      </trkpt>
      <trkpt lat="44.52449" lon="6.11081">
        <ele>1036.8000488281</ele>
        <time>2016-07-15T13:03:55.000Z</time>
      </trkpt>
      <trkpt lat="44.52455" lon="6.11086">
        <ele>1036.8000488281</ele>
        <time>2016-07-15T13:04:00.000Z</time>
      </trkpt>
      <trkpt lat="44.52459" lon="6.11088">
        <ele>1036.5999755859</ele>
        <time>2016-07-15T13:04:03.000Z</time>
      </trkpt>
      <trkpt lat="44.52464" lon="6.1109">
        <ele>1036.4000244141</ele>
        <time>2016-07-15T13:04:06.000Z</time>
      </trkpt>
      <trkpt lat="44.52474" lon="6.11088">
        <ele>1034.5999755859</ele>
        <time>2016-07-15T13:04:12.000Z</time>
      </trkpt>
      <trkpt lat="44.52485" lon="6.11083">
        <ele>1031.5999755859</ele>
        <time>2016-07-15T13:04:20.000Z</time>
      </trkpt>
      <trkpt lat="44.525" lon="6.11078">
        <ele>1028</ele>
        <time>2016-07-15T13:04:30.000Z</time>
      </trkpt>
      <trkpt lat="44.52515" lon="6.11075">
        <ele>1024.8000488281</ele>
        <time>2016-07-15T13:04:40.000Z</time>
      </trkpt>
      <trkpt lat="44.52522" lon="6.11082">
        <ele>1025</ele>
        <time>2016-07-15T13:04:46.000Z</time>
      </trkpt>
      <trkpt lat="44.52525" lon="6.11087">
        <ele>1026</ele>
        <time>2016-07-15T13:04:49.000Z</time>
      </trkpt>
      <trkpt lat="44.52528" lon="6.11097">
        <ele>1027.8000488281</ele>
        <time>2016-07-15T13:04:55.000Z</time>
      </trkpt>
      <trkpt lat="44.5253" lon="6.11098">
        <ele>1027.8000488281</ele>
        <time>2016-07-15T13:04:56.000Z</time>
      </trkpt>
      <trkpt lat="44.52531" lon="6.11098">
        <ele>1027.4000244141</ele>
        <time>2016-07-15T13:04:57.000Z</time>
      </trkpt>
      <trkpt lat="44.52539" lon="6.11091">
        <ele>1025.5999755859</ele>
        <time>2016-07-15T13:05:03.000Z</time>
      </trkpt>
      <trkpt lat="44.5254" lon="6.1109">
        <ele>1025.4000244141</ele>
        <time>2016-07-15T13:05:04.000Z</time>
      </trkpt>
      <trkpt lat="44.52549" lon="6.11077">
        <ele>1022.4000244141</ele>
        <time>2016-07-15T13:05:13.000Z</time>
      </trkpt>
      <trkpt lat="44.52558" lon="6.11066">
        <ele>1019</ele>
        <time>2016-07-15T13:05:21.000Z</time>
      </trkpt>
      <trkpt lat="44.52569" lon="6.1106">
        <ele>1017.200012207</ele>
        <time>2016-07-15T13:05:29.000Z</time>
      </trkpt>
      <trkpt lat="44.52581" lon="6.11058">
        <ele>1016.5999755859</ele>
        <time>2016-07-15T13:05:38.000Z</time>
      </trkpt>
      <trkpt lat="44.52589" lon="6.1106">
        <ele>1016.5999755859</ele>
        <time>2016-07-15T13:05:44.000Z</time>
      </trkpt>
      <trkpt lat="44.5259" lon="6.1106">
        <ele>1016.5999755859</ele>
        <time>2016-07-15T13:05:45.000Z</time>
      </trkpt>
      <trkpt lat="44.52599" lon="6.11057">
        <ele>1016</ele>
        <time>2016-07-15T13:05:52.000Z</time>
      </trkpt>
      <trkpt lat="44.52607" lon="6.11051">
        <ele>1015</ele>
        <time>2016-07-15T13:05:59.000Z</time>
      </trkpt>
      <trkpt lat="44.52614" lon="6.11047">
        <ele>1013.799987793</ele>
        <time>2016-07-15T13:06:04.000Z</time>
      </trkpt>
      <trkpt lat="44.52618" lon="6.11045">
        <ele>1013</ele>
        <time>2016-07-15T13:06:09.000Z</time>
      </trkpt>
      <trkpt lat="44.52623" lon="6.11046">
        <ele>1013.5999755859</ele>
        <time>2016-07-15T13:06:13.000Z</time>
      </trkpt>
      <trkpt lat="44.5263" lon="6.11046">
        <ele>1014</ele>
        <time>2016-07-15T13:06:18.000Z</time>
      </trkpt>
      <trkpt lat="44.52641" lon="6.11041">
        <ele>1013.5999755859</ele>
        <time>2016-07-15T13:06:26.000Z</time>
      </trkpt>
      <trkpt lat="44.52651" lon="6.11033">
        <ele>1012.4000244141</ele>
        <time>2016-07-15T13:06:33.000Z</time>
      </trkpt>
      <trkpt lat="44.52663" lon="6.11022">
        <ele>1010.799987793</ele>
        <time>2016-07-15T13:06:43.000Z</time>
      </trkpt>
      <trkpt lat="44.52671" lon="6.1101">
        <ele>1007.4000244141</ele>
        <time>2016-07-15T13:06:51.000Z</time>
      </trkpt>
      <trkpt lat="44.52681" lon="6.11001">
        <ele>1004.200012207</ele>
        <time>2016-07-15T13:06:59.000Z</time>
      </trkpt>
      <trkpt lat="44.52688" lon="6.10996">
        <ele>1002.799987793</ele>
        <time>2016-07-15T13:07:05.000Z</time>
      </trkpt>
      <trkpt lat="44.52694" lon="6.10993">
        <ele>1001.799987793</ele>
        <time>2016-07-15T13:07:10.000Z</time>
      </trkpt>
      <trkpt lat="44.52699" lon="6.10994">
        <ele>1001.799987793</ele>
        <time>2016-07-15T13:07:14.000Z</time>
      </trkpt>
      <trkpt lat="44.527" lon="6.10995">
        <ele>1002</ele>
        <time>2016-07-15T13:07:16.000Z</time>
      </trkpt>
      <trkpt lat="44.52704" lon="6.10996">
        <ele>1002.5999755859</ele>
        <time>2016-07-15T13:07:20.000Z</time>
      </trkpt>
      <trkpt lat="44.52714" lon="6.1099">
        <ele>1002</ele>
        <time>2016-07-15T13:07:27.000Z</time>
      </trkpt>
      <trkpt lat="44.5272" lon="6.10981">
        <ele>998.59997558594</ele>
        <time>2016-07-15T13:07:33.000Z</time>
      </trkpt>
      <trkpt lat="44.5273" lon="6.10976">
        <ele>996.59997558594</ele>
        <time>2016-07-15T13:07:41.000Z</time>
      </trkpt>
      <trkpt lat="44.52738" lon="6.10974">
        <ele>996</ele>
        <time>2016-07-15T13:07:47.000Z</time>
      </trkpt>
      <trkpt lat="44.52748" lon="6.10971">
        <ele>995.20001220703</ele>
        <time>2016-07-15T13:07:55.000Z</time>
      </trkpt>
      <trkpt lat="44.52768" lon="6.1097">
        <ele>995</ele>
        <time>2016-07-15T13:08:09.000Z</time>
      </trkpt>
      <trkpt lat="44.52778" lon="6.10971">
        <ele>995</ele>
        <time>2016-07-15T13:08:16.000Z</time>
      </trkpt>
      <trkpt lat="44.5278" lon="6.10972">
        <ele>995</ele>
        <time>2016-07-15T13:08:17.000Z</time>
      </trkpt>
      <trkpt lat="44.52783" lon="6.10972">
        <ele>994.79998779297</ele>
        <time>2016-07-15T13:08:19.000Z</time>
      </trkpt>
      <trkpt lat="44.52791" lon="6.10973">
        <ele>994.79998779297</ele>
        <time>2016-07-15T13:08:24.000Z</time>
      </trkpt>
      <trkpt lat="44.52802" lon="6.10973">
        <ele>994.40002441406</ele>
        <time>2016-07-15T13:08:32.000Z</time>
      </trkpt>
      <trkpt lat="44.52815" lon="6.10971">
        <ele>993.20001220703</ele>
        <time>2016-07-15T13:08:40.000Z</time>
      </trkpt>
      <trkpt lat="44.52828" lon="6.10966">
        <ele>991.20001220703</ele>
        <time>2016-07-15T13:08:49.000Z</time>
      </trkpt>
      <trkpt lat="44.52839" lon="6.10964">
        <ele>990.40002441406</ele>
        <time>2016-07-15T13:08:56.000Z</time>
      </trkpt>
      <trkpt lat="44.52852" lon="6.10965">
        <ele>990</ele>
        <time>2016-07-15T13:09:04.000Z</time>
      </trkpt>
      <trkpt lat="44.52861" lon="6.10966">
        <ele>990</ele>
        <time>2016-07-15T13:09:11.000Z</time>
      </trkpt>
      <trkpt lat="44.52868" lon="6.1097">
        <ele>990.79998779297</ele>
        <time>2016-07-15T13:09:17.000Z</time>
      </trkpt>
      <trkpt lat="44.52879" lon="6.10968">
        <ele>989.20001220703</ele>
        <time>2016-07-15T13:09:24.000Z</time>
      </trkpt>
      <trkpt lat="44.52891" lon="6.10962">
        <ele>986.40002441406</ele>
        <time>2016-07-15T13:09:32.000Z</time>
      </trkpt>
      <trkpt lat="44.52901" lon="6.10967">
        <ele>986.59997558594</ele>
        <time>2016-07-15T13:09:39.000Z</time>
      </trkpt>
      <trkpt lat="44.52912" lon="6.1097">
        <ele>986.59997558594</ele>
        <time>2016-07-15T13:09:46.000Z</time>
      </trkpt>
      <trkpt lat="44.52925" lon="6.10969">
        <ele>985</ele>
        <time>2016-07-15T13:09:54.000Z</time>
      </trkpt>
      <trkpt lat="44.5294" lon="6.10972">
        <ele>984.59997558594</ele>
        <time>2016-07-15T13:10:04.000Z</time>
      </trkpt>
      <trkpt lat="44.5295" lon="6.10969">
        <ele>983.20001220703</ele>
        <time>2016-07-15T13:10:11.000Z</time>
      </trkpt>
      <trkpt lat="44.5296" lon="6.10967">
        <ele>982.20001220703</ele>
        <time>2016-07-15T13:10:15.000Z</time>
      </trkpt>
      <trkpt lat="44.52976" lon="6.10973">
        <ele>982.59997558594</ele>
        <time>2016-07-15T13:10:21.000Z</time>
      </trkpt>
      <trkpt lat="44.52993" lon="6.10978">
        <ele>982.79998779297</ele>
        <time>2016-07-15T13:10:26.000Z</time>
      </trkpt>
      <trkpt lat="44.53004" lon="6.10977">
        <ele>982</ele>
        <time>2016-07-15T13:10:30.000Z</time>
      </trkpt>
      <trkpt lat="44.53013" lon="6.10982">
        <ele>983</ele>
        <time>2016-07-15T13:10:34.000Z</time>
      </trkpt>
      <trkpt lat="44.53014" lon="6.10982">
        <ele>983</ele>
        <time>2016-07-15T13:10:35.000Z</time>
      </trkpt>
      <trkpt lat="44.53022" lon="6.10985">
        <ele>983.40002441406</ele>
        <time>2016-07-15T13:10:40.000Z</time>
      </trkpt>
      <trkpt lat="44.53026" lon="6.10986">
        <ele>983.79998779297</ele>
        <time>2016-07-15T13:10:42.000Z</time>
      </trkpt>
      <trkpt lat="44.53038" lon="6.10993">
        <ele>985.20001220703</ele>
        <time>2016-07-15T13:10:50.000Z</time>
      </trkpt>
      <trkpt lat="44.53051" lon="6.11001">
        <ele>986.40002441406</ele>
        <time>2016-07-15T13:10:59.000Z</time>
      </trkpt>
      <trkpt lat="44.53056" lon="6.11004">
        <ele>987</ele>
        <time>2016-07-15T13:11:03.000Z</time>
      </trkpt>
      <trkpt lat="44.53063" lon="6.11005">
        <ele>986.79998779297</ele>
        <time>2016-07-15T13:11:09.000Z</time>
      </trkpt>
      <trkpt lat="44.53067" lon="6.11006">
        <ele>986.79998779297</ele>
        <time>2016-07-15T13:11:12.000Z</time>
      </trkpt>
      <trkpt lat="44.53078" lon="6.11007">
        <ele>987</ele>
        <time>2016-07-15T13:11:19.000Z</time>
      </trkpt>
      <trkpt lat="44.53093" lon="6.11007">
        <ele>986.40002441406</ele>
        <time>2016-07-15T13:11:28.000Z</time>
      </trkpt>
      <trkpt lat="44.53098" lon="6.11005">
        <ele>986</ele>
        <time>2016-07-15T13:11:32.000Z</time>
      </trkpt>
      <trkpt lat="44.53107" lon="6.11">
        <ele>984.40002441406</ele>
        <time>2016-07-15T13:11:39.000Z</time>
      </trkpt>
      <trkpt lat="44.53115" lon="6.10998">
        <ele>983.59997558594</ele>
        <time>2016-07-15T13:11:46.000Z</time>
      </trkpt>
      <trkpt lat="44.53116" lon="6.10997">
        <ele>983.40002441406</ele>
        <time>2016-07-15T13:11:47.000Z</time>
      </trkpt>
      <trkpt lat="44.53124" lon="6.10988">
        <ele>980.20001220703</ele>
        <time>2016-07-15T13:11:55.000Z</time>
      </trkpt>
      <trkpt lat="44.53129" lon="6.10987">
        <ele>979.20001220703</ele>
        <time>2016-07-15T13:12:03.000Z</time>
      </trkpt>
      <trkpt lat="44.53134" lon="6.10989">
        <ele>979.20001220703</ele>
        <time>2016-07-15T13:12:08.000Z</time>
      </trkpt>
      <trkpt lat="44.53143" lon="6.1099">
        <ele>978.40002441406</ele>
        <time>2016-07-15T13:12:16.000Z</time>
      </trkpt>
      <trkpt lat="44.53147" lon="6.1099">
        <ele>978</ele>
        <time>2016-07-15T13:12:18.000Z</time>
      </trkpt>
      <trkpt lat="44.53154" lon="6.10988">
        <ele>976.79998779297</ele>
        <time>2016-07-15T13:12:25.000Z</time>
      </trkpt>
      <trkpt lat="44.53159" lon="6.10984">
        <ele>975.20001220703</ele>
        <time>2016-07-15T13:12:31.000Z</time>
      </trkpt>
      <trkpt lat="44.53161" lon="6.10984">
        <ele>975.20001220703</ele>
        <time>2016-07-15T13:12:32.000Z</time>
      </trkpt>
      <trkpt lat="44.53164" lon="6.10987">
        <ele>975.59997558594</ele>
        <time>2016-07-15T13:12:35.000Z</time>
      </trkpt>
      <trkpt lat="44.5317" lon="6.10988">
        <ele>975</ele>
        <time>2016-07-15T13:12:41.000Z</time>
      </trkpt>
      <trkpt lat="44.53176" lon="6.10988">
        <ele>974.40002441406</ele>
        <time>2016-07-15T13:12:47.000Z</time>
      </trkpt>
      <trkpt lat="44.53179" lon="6.10989">
        <ele>974.20001220703</ele>
        <time>2016-07-15T13:12:49.000Z</time>
      </trkpt>
      <trkpt lat="44.53181" lon="6.10989">
        <ele>974</ele>
        <time>2016-07-15T13:12:51.000Z</time>
      </trkpt>
      <trkpt lat="44.5319" lon="6.10991">
        <ele>973.79998779297</ele>
        <time>2016-07-15T13:12:59.000Z</time>
      </trkpt>
      <trkpt lat="44.53193" lon="6.10991">
        <ele>973.40002441406</ele>
        <time>2016-07-15T13:13:01.000Z</time>
      </trkpt>
      <trkpt lat="44.53205" lon="6.10986">
        <ele>969.79998779297</ele>
        <time>2016-07-15T13:13:09.000Z</time>
      </trkpt>
      <trkpt lat="44.53214" lon="6.10987">
        <ele>967.40002441406</ele>
        <time>2016-07-15T13:13:16.000Z</time>
      </trkpt>
      <trkpt lat="44.53215" lon="6.10989">
        <ele>967.40002441406</ele>
        <time>2016-07-15T13:13:17.000Z</time>
      </trkpt>
      <trkpt lat="44.53221" lon="6.10993">
        <ele>966.40002441406</ele>
        <time>2016-07-15T13:13:23.000Z</time>
      </trkpt>
      <trkpt lat="44.53222" lon="6.10994">
        <ele>966.20001220703</ele>
        <time>2016-07-15T13:13:24.000Z</time>
      </trkpt>
      <trkpt lat="44.53224" lon="6.10995">
        <ele>965.79998779297</ele>
        <time>2016-07-15T13:13:26.000Z</time>
      </trkpt>
      <trkpt lat="44.5323" lon="6.10994">
        <ele>963.79998779297</ele>
        <time>2016-07-15T13:13:31.000Z</time>
      </trkpt>
      <trkpt lat="44.53231" lon="6.10994">
        <ele>963.59997558594</ele>
        <time>2016-07-15T13:13:32.000Z</time>
      </trkpt>
      <trkpt lat="44.53236" lon="6.10993">
        <ele>962</ele>
        <time>2016-07-15T13:13:36.000Z</time>
      </trkpt>
      <trkpt lat="44.53242" lon="6.10999">
        <ele>961.20001220703</ele>
        <time>2016-07-15T13:13:41.000Z</time>
      </trkpt>
      <trkpt lat="44.53244" lon="6.11006">
        <ele>962.20001220703</ele>
        <time>2016-07-15T13:13:44.000Z</time>
      </trkpt>
      <trkpt lat="44.53245" lon="6.1101">
        <ele>962.79998779297</ele>
        <time>2016-07-15T13:13:46.000Z</time>
      </trkpt>
      <trkpt lat="44.53246" lon="6.11017">
        <ele>964</ele>
        <time>2016-07-15T13:13:50.000Z</time>
      </trkpt>
      <trkpt lat="44.53247" lon="6.11028">
        <ele>966.40002441406</ele>
        <time>2016-07-15T13:13:59.000Z</time>
      </trkpt>
      <trkpt lat="44.53252" lon="6.11032">
        <ele>965.40002441406</ele>
        <time>2016-07-15T13:14:14.000Z</time>
      </trkpt>
      <trkpt lat="44.53254" lon="6.11033">
        <ele>965</ele>
        <time>2016-07-15T13:14:16.000Z</time>
      </trkpt>
      <trkpt lat="44.53259" lon="6.11033">
        <ele>963.59997558594</ele>
        <time>2016-07-15T13:14:22.000Z</time>
      </trkpt>
      <trkpt lat="44.5326" lon="6.11033">
        <ele>963.20001220703</ele>
        <time>2016-07-15T13:14:23.000Z</time>
      </trkpt>
      <trkpt lat="44.53265" lon="6.11033">
        <ele>961.79998779297</ele>
        <time>2016-07-15T13:14:28.000Z</time>
      </trkpt>
      <trkpt lat="44.53271" lon="6.11034">
        <ele>960.20001220703</ele>
        <time>2016-07-15T13:14:33.000Z</time>
      </trkpt>
      <trkpt lat="44.53276" lon="6.11039">
        <ele>959.59997558594</ele>
        <time>2016-07-15T13:14:38.000Z</time>
      </trkpt>
      <trkpt lat="44.53282" lon="6.11043">
        <ele>958.79998779297</ele>
        <time>2016-07-15T13:14:43.000Z</time>
      </trkpt>
      <trkpt lat="44.53283" lon="6.11043">
        <ele>958.59997558594</ele>
        <time>2016-07-15T13:14:44.000Z</time>
      </trkpt>
      <trkpt lat="44.53287" lon="6.11044">
        <ele>957.59997558594</ele>
        <time>2016-07-15T13:14:47.000Z</time>
      </trkpt>
      <trkpt lat="44.5329" lon="6.11049">
        <ele>957.79998779297</ele>
        <time>2016-07-15T13:14:51.000Z</time>
      </trkpt>
      <trkpt lat="44.53291" lon="6.11053">
        <ele>958.20001220703</ele>
        <time>2016-07-15T13:14:53.000Z</time>
      </trkpt>
      <trkpt lat="44.53292" lon="6.11058">
        <ele>959</ele>
        <time>2016-07-15T13:14:56.000Z</time>
      </trkpt>
      <trkpt lat="44.53296" lon="6.11066">
        <ele>959.40002441406</ele>
        <time>2016-07-15T13:15:02.000Z</time>
      </trkpt>
      <trkpt lat="44.53301" lon="6.11067">
        <ele>958.40002441406</ele>
        <time>2016-07-15T13:15:06.000Z</time>
      </trkpt>
      <trkpt lat="44.53303" lon="6.11067">
        <ele>957.59997558594</ele>
        <time>2016-07-15T13:15:08.000Z</time>
      </trkpt>
      <trkpt lat="44.53304" lon="6.11068">
        <ele>957.59997558594</ele>
        <time>2016-07-15T13:15:13.000Z</time>
      </trkpt>
      <trkpt lat="44.5331" lon="6.11071">
        <ele>956.40002441406</ele>
        <time>2016-07-15T13:15:21.000Z</time>
      </trkpt>
      <trkpt lat="44.53317" lon="6.11077">
        <ele>955.59997558594</ele>
        <time>2016-07-15T13:15:27.000Z</time>
      </trkpt>
      <trkpt lat="44.53325" lon="6.11093">
        <ele>956.40002441406</ele>
        <time>2016-07-15T13:15:34.000Z</time>
      </trkpt>
      <trkpt lat="44.5333" lon="6.11099">
        <ele>956</ele>
        <time>2016-07-15T13:15:38.000Z</time>
      </trkpt>
      <trkpt lat="44.53335" lon="6.11107">
        <ele>956.20001220703</ele>
        <time>2016-07-15T13:15:45.000Z</time>
      </trkpt>
      <trkpt lat="44.53337" lon="6.11109">
        <ele>955.79998779297</ele>
        <time>2016-07-15T13:15:47.000Z</time>
      </trkpt>
      <trkpt lat="44.53344" lon="6.11122">
        <ele>956.79998779297</ele>
        <time>2016-07-15T13:16:15.000Z</time>
      </trkpt>
      <trkpt lat="44.53345" lon="6.11123">
        <ele>956.59997558594</ele>
        <time>2016-07-15T13:16:28.000Z</time>
      </trkpt>
      <trkpt lat="44.5335" lon="6.11127">
        <ele>955.79998779297</ele>
        <time>2016-07-15T13:16:40.000Z</time>
      </trkpt>
      <trkpt lat="44.5335" lon="6.11128">
        <ele>956.20001220703</ele>
        <time>2016-07-15T13:16:41.000Z</time>
      </trkpt>
      <trkpt lat="44.53352" lon="6.11133">
        <ele>956.59997558594</ele>
        <time>2016-07-15T13:16:44.000Z</time>
      </trkpt>
      <trkpt lat="44.53357" lon="6.11148">
        <ele>959.20001220703</ele>
        <time>2016-07-15T13:16:52.000Z</time>
      </trkpt>
      <trkpt lat="44.53359" lon="6.11151">
        <ele>959.20001220703</ele>
        <time>2016-07-15T13:16:54.000Z</time>
      </trkpt>
      <trkpt lat="44.53364" lon="6.11159">
        <ele>959.79998779297</ele>
        <time>2016-07-15T13:17:01.000Z</time>
      </trkpt>
      <trkpt lat="44.53367" lon="6.11164">
        <ele>960</ele>
        <time>2016-07-15T13:17:05.000Z</time>
      </trkpt>
      <trkpt lat="44.53375" lon="6.11176">
        <ele>960.79998779297</ele>
        <time>2016-07-15T13:17:13.000Z</time>
      </trkpt>
      <trkpt lat="44.53374" lon="6.11178">
        <ele>961.40002441406</ele>
        <time>2016-07-15T13:17:14.000Z</time>
      </trkpt>
      <trkpt lat="44.53373" lon="6.11188">
        <ele>964.79998779297</ele>
        <time>2016-07-15T13:17:20.000Z</time>
      </trkpt>
      <trkpt lat="44.53377" lon="6.11196">
        <ele>966</ele>
        <time>2016-07-15T13:17:25.000Z</time>
      </trkpt>
      <trkpt lat="44.53382" lon="6.11202">
        <ele>965.59997558594</ele>
        <time>2016-07-15T13:17:29.000Z</time>
      </trkpt>
      <trkpt lat="44.53391" lon="6.11213">
        <ele>965.59997558594</ele>
        <time>2016-07-15T13:17:37.000Z</time>
      </trkpt>
      <trkpt lat="44.53394" lon="6.11215">
        <ele>965.40002441406</ele>
        <time>2016-07-15T13:17:39.000Z</time>
      </trkpt>
      <trkpt lat="44.53403" lon="6.11223">
        <ele>964.20001220703</ele>
        <time>2016-07-15T13:17:45.000Z</time>
      </trkpt>
      <trkpt lat="44.53405" lon="6.11224">
        <ele>964</ele>
        <time>2016-07-15T13:17:46.000Z</time>
      </trkpt>
      <trkpt lat="44.53417" lon="6.11234">
        <ele>961.59997558594</ele>
        <time>2016-07-15T13:17:55.000Z</time>
      </trkpt>
      <trkpt lat="44.53426" lon="6.11247">
        <ele>960.20001220703</ele>
        <time>2016-07-15T13:18:03.000Z</time>
      </trkpt>
      <trkpt lat="44.53432" lon="6.11255">
        <ele>958.79998779297</ele>
        <time>2016-07-15T13:18:09.000Z</time>
      </trkpt>
      <trkpt lat="44.53435" lon="6.11259">
        <ele>958.40002441406</ele>
        <time>2016-07-15T13:18:12.000Z</time>
      </trkpt>
      <trkpt lat="44.53441" lon="6.11274">
        <ele>958</ele>
        <time>2016-07-15T13:18:20.000Z</time>
      </trkpt>
      <trkpt lat="44.53446" lon="6.11282">
        <ele>957.20001220703</ele>
        <time>2016-07-15T13:18:26.000Z</time>
      </trkpt>
      <trkpt lat="44.53447" lon="6.11283">
        <ele>957</ele>
        <time>2016-07-15T13:18:27.000Z</time>
      </trkpt>
      <trkpt lat="44.53449" lon="6.11288">
        <ele>957</ele>
        <time>2016-07-15T13:18:31.000Z</time>
      </trkpt>
      <trkpt lat="44.53452" lon="6.11293">
        <ele>956.79998779297</ele>
        <time>2016-07-15T13:18:34.000Z</time>
      </trkpt>
      <trkpt lat="44.5346" lon="6.11307">
        <ele>957.59997558594</ele>
        <time>2016-07-15T13:18:42.000Z</time>
      </trkpt>
      <trkpt lat="44.53467" lon="6.11319">
        <ele>957.40002441406</ele>
        <time>2016-07-15T13:18:49.000Z</time>
      </trkpt>
      <trkpt lat="44.53469" lon="6.11331">
        <ele>957.40002441406</ele>
        <time>2016-07-15T13:18:55.000Z</time>
      </trkpt>
      <trkpt lat="44.53469" lon="6.11334">
        <ele>957.59997558594</ele>
        <time>2016-07-15T13:18:57.000Z</time>
      </trkpt>
      <trkpt lat="44.5348" lon="6.11347">
        <ele>956.79998779297</ele>
        <time>2016-07-15T13:19:04.000Z</time>
      </trkpt>
      <trkpt lat="44.53485" lon="6.11355">
        <ele>956.59997558594</ele>
        <time>2016-07-15T13:19:08.000Z</time>
      </trkpt>
      <trkpt lat="44.53487" lon="6.11365">
        <ele>957.20001220703</ele>
        <time>2016-07-15T13:19:13.000Z</time>
      </trkpt>
      <trkpt lat="44.53487" lon="6.11369">
        <ele>957.59997558594</ele>
        <time>2016-07-15T13:19:15.000Z</time>
      </trkpt>
      <trkpt lat="44.53486" lon="6.11384">
        <ele>959.20001220703</ele>
        <time>2016-07-15T13:19:22.000Z</time>
      </trkpt>
      <trkpt lat="44.53487" lon="6.11397">
        <ele>960.40002441406</ele>
        <time>2016-07-15T13:19:28.000Z</time>
      </trkpt>
      <trkpt lat="44.53487" lon="6.11405">
        <ele>961.20001220703</ele>
        <time>2016-07-15T13:19:32.000Z</time>
      </trkpt>
      <trkpt lat="44.53489" lon="6.11409">
        <ele>961</ele>
        <time>2016-07-15T13:19:38.000Z</time>
      </trkpt>
      <trkpt lat="44.53493" lon="6.11418">
        <ele>961.20001220703</ele>
        <time>2016-07-15T13:20:12.000Z</time>
      </trkpt>
      <trkpt lat="44.53503" lon="6.11424">
        <ele>959.79998779297</ele>
        <time>2016-07-15T13:20:20.000Z</time>
      </trkpt>
      <trkpt lat="44.5351" lon="6.11432">
        <ele>959.40002441406</ele>
        <time>2016-07-15T13:20:26.000Z</time>
      </trkpt>
      <trkpt lat="44.53516" lon="6.11442">
        <ele>959.20001220703</ele>
        <time>2016-07-15T13:20:33.000Z</time>
      </trkpt>
      <trkpt lat="44.53516" lon="6.11444">
        <ele>959.20001220703</ele>
        <time>2016-07-15T13:20:34.000Z</time>
      </trkpt>
      <trkpt lat="44.53518" lon="6.11454">
        <ele>959.79998779297</ele>
        <time>2016-07-15T13:20:40.000Z</time>
      </trkpt>
      <trkpt lat="44.53518" lon="6.11456">
        <ele>960</ele>
        <time>2016-07-15T13:20:41.000Z</time>
      </trkpt>
      <trkpt lat="44.53519" lon="6.1146">
        <ele>960.40002441406</ele>
        <time>2016-07-15T13:20:44.000Z</time>
      </trkpt>
      <trkpt lat="44.53516" lon="6.11465">
        <ele>961.79998779297</ele>
        <time>2016-07-15T13:20:47.000Z</time>
      </trkpt>
      <trkpt lat="44.53515" lon="6.11469">
        <ele>962.79998779297</ele>
        <time>2016-07-15T13:20:50.000Z</time>
      </trkpt>
      <trkpt lat="44.53518" lon="6.11478">
        <ele>963.59997558594</ele>
        <time>2016-07-15T13:20:54.000Z</time>
      </trkpt>
      <trkpt lat="44.53519" lon="6.11483">
        <ele>964.40002441406</ele>
        <time>2016-07-15T13:20:57.000Z</time>
      </trkpt>
      <trkpt lat="44.53519" lon="6.11501">
        <ele>967.59997558594</ele>
        <time>2016-07-15T13:21:04.000Z</time>
      </trkpt>
      <trkpt lat="44.5352" lon="6.11507">
        <ele>968.40002441406</ele>
        <time>2016-07-15T13:21:07.000Z</time>
      </trkpt>
      <trkpt lat="44.5352" lon="6.11516">
        <ele>970</ele>
        <time>2016-07-15T13:21:12.000Z</time>
      </trkpt>
      <trkpt lat="44.53522" lon="6.11524">
        <ele>970.79998779297</ele>
        <time>2016-07-15T13:21:16.000Z</time>
      </trkpt>
      <trkpt lat="44.53524" lon="6.11539">
        <ele>973</ele>
        <time>2016-07-15T13:21:25.000Z</time>
      </trkpt>
      <trkpt lat="44.53527" lon="6.11549">
        <ele>974.20001220703</ele>
        <time>2016-07-15T13:21:32.000Z</time>
      </trkpt>
      <trkpt lat="44.53532" lon="6.11556">
        <ele>973.79998779297</ele>
        <time>2016-07-15T13:21:38.000Z</time>
      </trkpt>
      <trkpt lat="44.53539" lon="6.11565">
        <ele>973.40002441406</ele>
        <time>2016-07-15T13:21:45.000Z</time>
      </trkpt>
      <trkpt lat="44.53547" lon="6.11578">
        <ele>972.59997558594</ele>
        <time>2016-07-15T13:21:53.000Z</time>
      </trkpt>
      <trkpt lat="44.53552" lon="6.11583">
        <ele>971.59997558594</ele>
        <time>2016-07-15T13:21:59.000Z</time>
      </trkpt>
      <trkpt lat="44.53553" lon="6.11584">
        <ele>971.59997558594</ele>
        <time>2016-07-15T13:22:00.000Z</time>
      </trkpt>
      <trkpt lat="44.53561" lon="6.11587">
        <ele>969.79998779297</ele>
        <time>2016-07-15T13:22:07.000Z</time>
      </trkpt>
      <trkpt lat="44.53567" lon="6.11591">
        <ele>968.79998779297</ele>
        <time>2016-07-15T13:22:10.000Z</time>
      </trkpt>
      <trkpt lat="44.53574" lon="6.11592">
        <ele>967.20001220703</ele>
        <time>2016-07-15T13:22:14.000Z</time>
      </trkpt>
      <trkpt lat="44.5358" lon="6.11592">
        <ele>965.59997558594</ele>
        <time>2016-07-15T13:22:20.000Z</time>
      </trkpt>
      <trkpt lat="44.53581" lon="6.1159">
        <ele>965.40002441406</ele>
        <time>2016-07-15T13:22:21.000Z</time>
      </trkpt>
      <trkpt lat="44.53591" lon="6.11575">
        <ele>962</ele>
        <time>2016-07-15T13:22:31.000Z</time>
      </trkpt>
      <trkpt lat="44.53601" lon="6.11565">
        <ele>959</ele>
        <time>2016-07-15T13:22:39.000Z</time>
      </trkpt>
      <trkpt lat="44.53617" lon="6.11554">
        <ele>954.79998779297</ele>
        <time>2016-07-15T13:22:51.000Z</time>
      </trkpt>
      <trkpt lat="44.53625" lon="6.11555">
        <ele>955.40002441406</ele>
        <time>2016-07-15T13:22:56.000Z</time>
      </trkpt>
      <trkpt lat="44.53635" lon="6.11563">
        <ele>956.20001220703</ele>
        <time>2016-07-15T13:23:05.000Z</time>
      </trkpt>
      <trkpt lat="44.53644" lon="6.11573">
        <ele>956.79998779297</ele>
        <time>2016-07-15T13:23:13.000Z</time>
      </trkpt>
      <trkpt lat="44.53648" lon="6.11586">
        <ele>957.40002441406</ele>
        <time>2016-07-15T13:23:20.000Z</time>
      </trkpt>
      <trkpt lat="44.53655" lon="6.11604">
        <ele>958.59997558594</ele>
        <time>2016-07-15T13:23:30.000Z</time>
      </trkpt>
      <trkpt lat="44.53662" lon="6.11621">
        <ele>960</ele>
        <time>2016-07-15T13:23:40.000Z</time>
      </trkpt>
      <trkpt lat="44.5367" lon="6.11638">
        <ele>961.20001220703</ele>
        <time>2016-07-15T13:23:50.000Z</time>
      </trkpt>
      <trkpt lat="44.53677" lon="6.11654">
        <ele>961.79998779297</ele>
        <time>2016-07-15T13:23:59.000Z</time>
      </trkpt>
      <trkpt lat="44.53686" lon="6.11673">
        <ele>961.79998779297</ele>
        <time>2016-07-15T13:24:09.000Z</time>
      </trkpt>
      <trkpt lat="44.53693" lon="6.11689">
        <ele>962</ele>
        <time>2016-07-15T13:24:18.000Z</time>
      </trkpt>
      <trkpt lat="44.53701" lon="6.11707">
        <ele>962</ele>
        <time>2016-07-15T13:24:28.000Z</time>
      </trkpt>
      <trkpt lat="44.53708" lon="6.11721">
        <ele>962</ele>
        <time>2016-07-15T13:24:36.000Z</time>
      </trkpt>
      <trkpt lat="44.53714" lon="6.11736">
        <ele>962.20001220703</ele>
        <time>2016-07-15T13:24:44.000Z</time>
      </trkpt>
      <trkpt lat="44.53722" lon="6.11757">
        <ele>962.40002441406</ele>
        <time>2016-07-15T13:24:55.000Z</time>
      </trkpt>
      <trkpt lat="44.53729" lon="6.11773">
        <ele>962.59997558594</ele>
        <time>2016-07-15T13:25:04.000Z</time>
      </trkpt>
      <trkpt lat="44.53734" lon="6.11786">
        <ele>962.79998779297</ele>
        <time>2016-07-15T13:25:11.000Z</time>
      </trkpt>
      <trkpt lat="44.53742" lon="6.11801">
        <ele>962.79998779297</ele>
        <time>2016-07-15T13:25:19.000Z</time>
      </trkpt>
      <trkpt lat="44.5375" lon="6.11817">
        <ele>962.79998779297</ele>
        <time>2016-07-15T13:25:28.000Z</time>
      </trkpt>
      <trkpt lat="44.5376" lon="6.11838">
        <ele>962.40002441406</ele>
        <time>2016-07-15T13:25:39.000Z</time>
      </trkpt>
      <trkpt lat="44.53766" lon="6.11853">
        <ele>962</ele>
        <time>2016-07-15T13:25:48.000Z</time>
      </trkpt>
      <trkpt lat="44.53771" lon="6.11864">
        <ele>961.79998779297</ele>
        <time>2016-07-15T13:25:55.000Z</time>
      </trkpt>
      <trkpt lat="44.53778" lon="6.11878">
        <ele>961.40002441406</ele>
        <time>2016-07-15T13:26:03.000Z</time>
      </trkpt>
      <trkpt lat="44.53785" lon="6.11894">
        <ele>961</ele>
        <time>2016-07-15T13:26:11.000Z</time>
      </trkpt>
      <trkpt lat="44.53791" lon="6.11908">
        <ele>961.40002441406</ele>
        <time>2016-07-15T13:26:19.000Z</time>
      </trkpt>
      <trkpt lat="44.53793" lon="6.11912">
        <ele>961.40002441406</ele>
        <time>2016-07-15T13:26:21.000Z</time>
      </trkpt>
      <trkpt lat="44.53799" lon="6.11927">
        <ele>961.79998779297</ele>
        <time>2016-07-15T13:26:28.000Z</time>
      </trkpt>
      <trkpt lat="44.53803" lon="6.11944">
        <ele>962.20001220703</ele>
        <time>2016-07-15T13:26:36.000Z</time>
      </trkpt>
      <trkpt lat="44.53808" lon="6.11958">
        <ele>962.59997558594</ele>
        <time>2016-07-15T13:26:42.000Z</time>
      </trkpt>
      <trkpt lat="44.53817" lon="6.11978">
        <ele>963</ele>
        <time>2016-07-15T13:26:53.000Z</time>
      </trkpt>
      <trkpt lat="44.53818" lon="6.11981">
        <ele>963</ele>
        <time>2016-07-15T13:26:57.000Z</time>
      </trkpt>
      <trkpt lat="44.53821" lon="6.11986">
        <ele>962.79998779297</ele>
        <time>2016-07-15T13:27:03.000Z</time>
      </trkpt>
      <trkpt lat="44.53818" lon="6.11982">
        <ele>963</ele>
        <time>2016-07-15T13:27:06.000Z</time>
      </trkpt>
      <trkpt lat="44.53814" lon="6.11974">
        <ele>963</ele>
        <time>2016-07-15T13:27:12.000Z</time>
      </trkpt>
      <trkpt lat="44.53809" lon="6.11963">
        <ele>962.59997558594</ele>
        <time>2016-07-15T13:27:20.000Z</time>
      </trkpt>
      <trkpt lat="44.53801" lon="6.11943">
        <ele>962.20001220703</ele>
        <time>2016-07-15T13:27:31.000Z</time>
      </trkpt>
      <trkpt lat="44.53799" lon="6.11936">
        <ele>962</ele>
        <time>2016-07-15T13:27:35.000Z</time>
      </trkpt>
      <trkpt lat="44.53793" lon="6.11934">
        <ele>962</ele>
        <time>2016-07-15T13:27:41.000Z</time>
      </trkpt>
      <trkpt lat="44.53793" lon="6.11933">
        <ele>962</ele>
        <time>2016-07-15T13:27:59.000Z</time>
      </trkpt>
      <trkpt lat="44.53796" lon="6.11932">
        <ele>962</ele>
        <time>2016-07-15T13:28:18.000Z</time>
      </trkpt>
      <trkpt lat="44.538" lon="6.1194">
        <ele>962.20001220703</ele>
        <time>2016-07-15T13:28:22.000Z</time>
      </trkpt>
      <trkpt lat="44.53809" lon="6.11964">
        <ele>962.59997558594</ele>
        <time>2016-07-15T13:28:29.000Z</time>
      </trkpt>
      <trkpt lat="44.53819" lon="6.11986">
        <ele>962.79998779297</ele>
        <time>2016-07-15T13:28:35.000Z</time>
      </trkpt>
      <trkpt lat="44.5383" lon="6.12008">
        <ele>962.59997558594</ele>
        <time>2016-07-15T13:28:41.000Z</time>
      </trkpt>
      <trkpt lat="44.53843" lon="6.12032">
        <ele>962.40002441406</ele>
        <time>2016-07-15T13:28:46.000Z</time>
      </trkpt>
      <trkpt lat="44.53855" lon="6.12056">
        <ele>962.40002441406</ele>
        <time>2016-07-15T13:28:51.000Z</time>
      </trkpt>
      <trkpt lat="44.53868" lon="6.12081">
        <ele>962.79998779297</ele>
        <time>2016-07-15T13:28:56.000Z</time>
      </trkpt>
      <trkpt lat="44.53878" lon="6.12102">
        <ele>962.79998779297</ele>
        <time>2016-07-15T13:29:00.000Z</time>
      </trkpt>
      <trkpt lat="44.5389" lon="6.12126">
        <ele>963</ele>
        <time>2016-07-15T13:29:04.000Z</time>
      </trkpt>
      <trkpt lat="44.53902" lon="6.12149">
        <ele>963</ele>
        <time>2016-07-15T13:29:08.000Z</time>
      </trkpt>
      <trkpt lat="44.53914" lon="6.12173">
        <ele>962.79998779297</ele>
        <time>2016-07-15T13:29:12.000Z</time>
      </trkpt>
      <trkpt lat="44.53925" lon="6.12196">
        <ele>962.79998779297</ele>
        <time>2016-07-15T13:29:16.000Z</time>
      </trkpt>
      <trkpt lat="44.53937" lon="6.12219">
        <ele>962.79998779297</ele>
        <time>2016-07-15T13:29:20.000Z</time>
      </trkpt>
      <trkpt lat="44.53948" lon="6.12242">
        <ele>962.59997558594</ele>
        <time>2016-07-15T13:29:24.000Z</time>
      </trkpt>
      <trkpt lat="44.53957" lon="6.1226">
        <ele>962.59997558594</ele>
        <time>2016-07-15T13:29:29.000Z</time>
      </trkpt>
      <trkpt lat="44.53968" lon="6.12283">
        <ele>962.59997558594</ele>
        <time>2016-07-15T13:29:37.000Z</time>
      </trkpt>
      <trkpt lat="44.5398" lon="6.12307">
        <ele>962.79998779297</ele>
        <time>2016-07-15T13:29:45.000Z</time>
      </trkpt>
      <trkpt lat="44.53991" lon="6.1233">
        <ele>963.20001220703</ele>
        <time>2016-07-15T13:29:53.000Z</time>
      </trkpt>
      <trkpt lat="44.54002" lon="6.12354">
        <ele>963.79998779297</ele>
        <time>2016-07-15T13:30:01.000Z</time>
      </trkpt>
      <trkpt lat="44.54014" lon="6.12377">
        <ele>964</ele>
        <time>2016-07-15T13:30:09.000Z</time>
      </trkpt>
      <trkpt lat="44.54021" lon="6.12391">
        <ele>964.20001220703</ele>
        <time>2016-07-15T13:30:16.000Z</time>
      </trkpt>
      <trkpt lat="44.54027" lon="6.12404">
        <ele>964.20001220703</ele>
        <time>2016-07-15T13:30:23.000Z</time>
      </trkpt>
      <trkpt lat="44.54035" lon="6.12419">
        <ele>964.20001220703</ele>
        <time>2016-07-15T13:30:32.000Z</time>
      </trkpt>
      <trkpt lat="44.54043" lon="6.12427">
        <ele>963.59997558594</ele>
        <time>2016-07-15T13:30:38.000Z</time>
      </trkpt>
      <trkpt lat="44.54051" lon="6.12441">
        <ele>963.20001220703</ele>
        <time>2016-07-15T13:30:46.000Z</time>
      </trkpt>
      <trkpt lat="44.54058" lon="6.1246">
        <ele>962.79998779297</ele>
        <time>2016-07-15T13:30:56.000Z</time>
      </trkpt>
      <trkpt lat="44.54067" lon="6.12484">
        <ele>962.59997558594</ele>
        <time>2016-07-15T13:31:08.000Z</time>
      </trkpt>
      <trkpt lat="44.54071" lon="6.12498">
        <ele>962.79998779297</ele>
        <time>2016-07-15T13:31:15.000Z</time>
      </trkpt>
      <trkpt lat="44.54079" lon="6.12523">
        <ele>963.40002441406</ele>
        <time>2016-07-15T13:31:27.000Z</time>
      </trkpt>
      <trkpt lat="44.54086" lon="6.12543">
        <ele>963.20001220703</ele>
        <time>2016-07-15T13:31:38.000Z</time>
      </trkpt>
      <trkpt lat="44.54093" lon="6.12559">
        <ele>962.79998779297</ele>
        <time>2016-07-15T13:31:47.000Z</time>
      </trkpt>
      <trkpt lat="44.541" lon="6.12573">
        <ele>962.40002441406</ele>
        <time>2016-07-15T13:31:55.000Z</time>
      </trkpt>
      <trkpt lat="44.54109" lon="6.12589">
        <ele>961.59997558594</ele>
        <time>2016-07-15T13:32:05.000Z</time>
      </trkpt>
      <trkpt lat="44.54114" lon="6.12601">
        <ele>961.20001220703</ele>
        <time>2016-07-15T13:32:12.000Z</time>
      </trkpt>
      <trkpt lat="44.54125" lon="6.1262">
        <ele>960.20001220703</ele>
        <time>2016-07-15T13:32:23.000Z</time>
      </trkpt>
      <trkpt lat="44.54132" lon="6.12633">
        <ele>959.59997558594</ele>
        <time>2016-07-15T13:32:31.000Z</time>
      </trkpt>
      <trkpt lat="44.54141" lon="6.12646">
        <ele>959</ele>
        <time>2016-07-15T13:32:40.000Z</time>
      </trkpt>
      <trkpt lat="44.54149" lon="6.12653">
        <ele>959.20001220703</ele>
        <time>2016-07-15T13:32:47.000Z</time>
      </trkpt>
      <trkpt lat="44.54156" lon="6.12667">
        <ele>959.79998779297</ele>
        <time>2016-07-15T13:32:55.000Z</time>
      </trkpt>
      <trkpt lat="44.54159" lon="6.1267">
        <ele>959.79998779297</ele>
        <time>2016-07-15T13:33:00.000Z</time>
      </trkpt>
      <trkpt lat="44.54166" lon="6.12671">
        <ele>959.59997558594</ele>
        <time>2016-07-15T13:33:05.000Z</time>
      </trkpt>
      <trkpt lat="44.54172" lon="6.1267">
        <ele>959.20001220703</ele>
        <time>2016-07-15T13:33:11.000Z</time>
      </trkpt>
      <trkpt lat="44.54173" lon="6.12668">
        <ele>959</ele>
        <time>2016-07-15T13:33:13.000Z</time>
      </trkpt>
      <trkpt lat="44.54173" lon="6.12662">
        <ele>958.59997558594</ele>
        <time>2016-07-15T13:33:20.000Z</time>
      </trkpt>
      <trkpt lat="44.54175" lon="6.12663">
        <ele>958.59997558594</ele>
        <time>2016-07-15T13:33:24.000Z</time>
      </trkpt>
      <trkpt lat="44.54174" lon="6.12669">
        <ele>959.20001220703</ele>
        <time>2016-07-15T13:33:35.000Z</time>
      </trkpt>
      <trkpt lat="44.54173" lon="6.12675">
        <ele>959.59997558594</ele>
        <time>2016-07-15T13:33:38.000Z</time>
      </trkpt>
      <trkpt lat="44.54177" lon="6.1269">
        <ele>960.40002441406</ele>
        <time>2016-07-15T13:33:44.000Z</time>
      </trkpt>
      <trkpt lat="44.54189" lon="6.12709">
        <ele>961.20001220703</ele>
        <time>2016-07-15T13:33:55.000Z</time>
      </trkpt>
      <trkpt lat="44.542" lon="6.12725">
        <ele>961.79998779297</ele>
        <time>2016-07-15T13:34:05.000Z</time>
      </trkpt>
      <trkpt lat="44.54214" lon="6.12745">
        <ele>961.79998779297</ele>
        <time>2016-07-15T13:34:17.000Z</time>
      </trkpt>
      <trkpt lat="44.54225" lon="6.1276">
        <ele>961.59997558594</ele>
        <time>2016-07-15T13:34:27.000Z</time>
      </trkpt>
      <trkpt lat="44.54235" lon="6.12775">
        <ele>961.59997558594</ele>
        <time>2016-07-15T13:34:36.000Z</time>
      </trkpt>
      <trkpt lat="44.54243" lon="6.12787">
        <ele>961.40002441406</ele>
        <time>2016-07-15T13:34:44.000Z</time>
      </trkpt>
      <trkpt lat="44.54246" lon="6.12792">
        <ele>961.40002441406</ele>
        <time>2016-07-15T13:34:47.000Z</time>
      </trkpt>
      <trkpt lat="44.54254" lon="6.12804">
        <ele>961.40002441406</ele>
        <time>2016-07-15T13:34:54.000Z</time>
      </trkpt>
      <trkpt lat="44.54267" lon="6.12823">
        <ele>960.59997558594</ele>
        <time>2016-07-15T13:35:06.000Z</time>
      </trkpt>
      <trkpt lat="44.54276" lon="6.12836">
        <ele>960</ele>
        <time>2016-07-15T13:35:14.000Z</time>
      </trkpt>
      <trkpt lat="44.54286" lon="6.12851">
        <ele>959.20001220703</ele>
        <time>2016-07-15T13:35:23.000Z</time>
      </trkpt>
      <trkpt lat="44.54294" lon="6.12865">
        <ele>959.20001220703</ele>
        <time>2016-07-15T13:35:31.000Z</time>
      </trkpt>
      <trkpt lat="44.54299" lon="6.1288">
        <ele>959.40002441406</ele>
        <time>2016-07-15T13:35:39.000Z</time>
      </trkpt>
      <trkpt lat="44.54308" lon="6.12894">
        <ele>959.20001220703</ele>
        <time>2016-07-15T13:35:47.000Z</time>
      </trkpt>
      <trkpt lat="44.54313" lon="6.12903">
        <ele>959</ele>
        <time>2016-07-15T13:35:53.000Z</time>
      </trkpt>
      <trkpt lat="44.54339" lon="6.12946">
        <ele>957.59997558594</ele>
        <time>2016-07-15T13:36:18.000Z</time>
      </trkpt>
      <trkpt lat="44.54349" lon="6.1296">
        <ele>957.20001220703</ele>
        <time>2016-07-15T13:36:27.000Z</time>
      </trkpt>
      <trkpt lat="44.54356" lon="6.12974">
        <ele>956.59997558594</ele>
        <time>2016-07-15T13:36:35.000Z</time>
      </trkpt>
      <trkpt lat="44.54365" lon="6.12988">
        <ele>955.79998779297</ele>
        <time>2016-07-15T13:36:43.000Z</time>
      </trkpt>
      <trkpt lat="44.54374" lon="6.13005">
        <ele>955.59997558594</ele>
        <time>2016-07-15T13:36:53.000Z</time>
      </trkpt>
      <trkpt lat="44.5438" lon="6.13015">
        <ele>955.59997558594</ele>
        <time>2016-07-15T13:36:59.000Z</time>
      </trkpt>
      <trkpt lat="44.54384" lon="6.13031">
        <ele>955.59997558594</ele>
        <time>2016-07-15T13:37:07.000Z</time>
      </trkpt>
      <trkpt lat="44.54391" lon="6.13046">
        <ele>955.40002441406</ele>
        <time>2016-07-15T13:37:15.000Z</time>
      </trkpt>
      <trkpt lat="44.54399" lon="6.13063">
        <ele>955.20001220703</ele>
        <time>2016-07-15T13:37:24.000Z</time>
      </trkpt>
      <trkpt lat="44.54407" lon="6.13081">
        <ele>953.40002441406</ele>
        <time>2016-07-15T13:37:34.000Z</time>
      </trkpt>
      <trkpt lat="44.54412" lon="6.13091">
        <ele>952.59997558594</ele>
        <time>2016-07-15T13:37:41.000Z</time>
      </trkpt>
      <trkpt lat="44.54417" lon="6.13097">
        <ele>952</ele>
        <time>2016-07-15T13:37:47.000Z</time>
      </trkpt>
      <trkpt lat="44.54427" lon="6.13111">
        <ele>950.79998779297</ele>
        <time>2016-07-15T13:37:56.000Z</time>
      </trkpt>
      <trkpt lat="44.54436" lon="6.13125">
        <ele>949.59997558594</ele>
        <time>2016-07-15T13:38:05.000Z</time>
      </trkpt>
      <trkpt lat="44.54444" lon="6.13138">
        <ele>948.40002441406</ele>
        <time>2016-07-15T13:38:13.000Z</time>
      </trkpt>
      <trkpt lat="44.5445" lon="6.13149">
        <ele>947.59997558594</ele>
        <time>2016-07-15T13:38:20.000Z</time>
      </trkpt>
      <trkpt lat="44.54461" lon="6.13165">
        <ele>946.59997558594</ele>
        <time>2016-07-15T13:38:31.000Z</time>
      </trkpt>
      <trkpt lat="44.54469" lon="6.13174">
        <ele>946</ele>
        <time>2016-07-15T13:38:38.000Z</time>
      </trkpt>
      <trkpt lat="44.54478" lon="6.13185">
        <ele>945.40002441406</ele>
        <time>2016-07-15T13:38:47.000Z</time>
      </trkpt>
      <trkpt lat="44.54488" lon="6.13197">
        <ele>944.59997558594</ele>
        <time>2016-07-15T13:38:57.000Z</time>
      </trkpt>
      <trkpt lat="44.545" lon="6.13209">
        <ele>943.79998779297</ele>
        <time>2016-07-15T13:39:07.000Z</time>
      </trkpt>
      <trkpt lat="44.54511" lon="6.13223">
        <ele>943</ele>
        <time>2016-07-15T13:39:16.000Z</time>
      </trkpt>
      <trkpt lat="44.54521" lon="6.13229">
        <ele>942.79998779297</ele>
        <time>2016-07-15T13:39:24.000Z</time>
      </trkpt>
      <trkpt lat="44.54527" lon="6.13237">
        <ele>942.59997558594</ele>
        <time>2016-07-15T13:39:30.000Z</time>
      </trkpt>
      <trkpt lat="44.54531" lon="6.13247">
        <ele>942.20001220703</ele>
        <time>2016-07-15T13:39:36.000Z</time>
      </trkpt>
      <trkpt lat="44.54537" lon="6.13257">
        <ele>942.20001220703</ele>
        <time>2016-07-15T13:39:42.000Z</time>
      </trkpt>
      <trkpt lat="44.54542" lon="6.13266">
        <ele>942.59997558594</ele>
        <time>2016-07-15T13:39:48.000Z</time>
      </trkpt>
      <trkpt lat="44.54547" lon="6.1328">
        <ele>942.59997558594</ele>
        <time>2016-07-15T13:39:56.000Z</time>
      </trkpt>
      <trkpt lat="44.54551" lon="6.13299">
        <ele>942.40002441406</ele>
        <time>2016-07-15T13:40:05.000Z</time>
      </trkpt>
      <trkpt lat="44.5455" lon="6.13316">
        <ele>942</ele>
        <time>2016-07-15T13:40:13.000Z</time>
      </trkpt>
      <trkpt lat="44.54554" lon="6.13341">
        <ele>941.79998779297</ele>
        <time>2016-07-15T13:40:25.000Z</time>
      </trkpt>
      <trkpt lat="44.54553" lon="6.13347">
        <ele>941.20001220703</ele>
        <time>2016-07-15T13:40:31.000Z</time>
      </trkpt>
      <trkpt lat="44.54552" lon="6.13347">
        <ele>941</ele>
        <time>2016-07-15T13:40:41.000Z</time>
      </trkpt>
      <trkpt lat="44.54551" lon="6.13347">
        <ele>940.79998779297</ele>
        <time>2016-07-15T13:40:50.000Z</time>
      </trkpt>
      <trkpt lat="44.54548" lon="6.13347">
        <ele>940.40002441406</ele>
        <time>2016-07-15T13:41:15.000Z</time>
      </trkpt>
      <trkpt lat="44.54549" lon="6.13346">
        <ele>940.59997558594</ele>
        <time>2016-07-15T13:41:20.000Z</time>
      </trkpt>
      <trkpt lat="44.5455" lon="6.13347">
        <ele>940.79998779297</ele>
        <time>2016-07-15T13:41:28.000Z</time>
      </trkpt>
      <trkpt lat="44.54553" lon="6.1335">
        <ele>941</ele>
        <time>2016-07-15T13:41:44.000Z</time>
      </trkpt>
      <trkpt lat="44.54554" lon="6.13351">
        <ele>941</ele>
        <time>2016-07-15T13:41:45.000Z</time>
      </trkpt>
      <trkpt lat="44.54554" lon="6.13357">
        <ele>940.79998779297</ele>
        <time>2016-07-15T13:41:49.000Z</time>
      </trkpt>
      <trkpt lat="44.54557" lon="6.13372">
        <ele>940.40002441406</ele>
        <time>2016-07-15T13:41:58.000Z</time>
      </trkpt>
      <trkpt lat="44.54559" lon="6.13386">
        <ele>940</ele>
        <time>2016-07-15T13:42:07.000Z</time>
      </trkpt>
      <trkpt lat="44.54561" lon="6.13399">
        <ele>939.20001220703</ele>
        <time>2016-07-15T13:42:15.000Z</time>
      </trkpt>
      <trkpt lat="44.54563" lon="6.13412">
        <ele>938</ele>
        <time>2016-07-15T13:42:23.000Z</time>
      </trkpt>
      <trkpt lat="44.54567" lon="6.13428">
        <ele>937</ele>
        <time>2016-07-15T13:42:33.000Z</time>
      </trkpt>
      <trkpt lat="44.54571" lon="6.13439">
        <ele>936.59997558594</ele>
        <time>2016-07-15T13:42:41.000Z</time>
      </trkpt>
      <trkpt lat="44.54574" lon="6.13453">
        <ele>936</ele>
        <time>2016-07-15T13:42:50.000Z</time>
      </trkpt>
      <trkpt lat="44.54574" lon="6.1346">
        <ele>935.59997558594</ele>
        <time>2016-07-15T13:42:55.000Z</time>
      </trkpt>
      <trkpt lat="44.54575" lon="6.13467">
        <ele>935</ele>
        <time>2016-07-15T13:43:02.000Z</time>
      </trkpt>
      <trkpt lat="44.54577" lon="6.13483">
        <ele>933.59997558594</ele>
        <time>2016-07-15T13:43:12.000Z</time>
      </trkpt>
      <trkpt lat="44.5458" lon="6.13495">
        <ele>931.79998779297</ele>
        <time>2016-07-15T13:43:19.000Z</time>
      </trkpt>
      <trkpt lat="44.54582" lon="6.13506">
        <ele>929.79998779297</ele>
        <time>2016-07-15T13:43:26.000Z</time>
      </trkpt>
      <trkpt lat="44.54583" lon="6.13515">
        <ele>928.20001220703</ele>
        <time>2016-07-15T13:43:32.000Z</time>
      </trkpt>
      <trkpt lat="44.54583" lon="6.13526">
        <ele>926.20001220703</ele>
        <time>2016-07-15T13:43:39.000Z</time>
      </trkpt>
      <trkpt lat="44.54585" lon="6.13536">
        <ele>926.20001220703</ele>
        <time>2016-07-15T13:43:46.000Z</time>
      </trkpt>
      <trkpt lat="44.54588" lon="6.13546">
        <ele>926.20001220703</ele>
        <time>2016-07-15T13:43:53.000Z</time>
      </trkpt>
      <trkpt lat="44.54591" lon="6.13552">
        <ele>926.20001220703</ele>
        <time>2016-07-15T13:43:59.000Z</time>
      </trkpt>
      <trkpt lat="44.54591" lon="6.13551">
        <ele>926.20001220703</ele>
        <time>2016-07-15T13:44:03.000Z</time>
      </trkpt>
      <trkpt lat="44.54593" lon="6.13553">
        <ele>926.20001220703</ele>
        <time>2016-07-15T13:44:08.000Z</time>
      </trkpt>
      <trkpt lat="44.54595" lon="6.13562">
        <ele>926.20001220703</ele>
        <time>2016-07-15T13:44:15.000Z</time>
      </trkpt>
      <trkpt lat="44.54596" lon="6.13564">
        <ele>926.20001220703</ele>
        <time>2016-07-15T13:44:16.000Z</time>
      </trkpt>
      <trkpt lat="44.54598" lon="6.13568">
        <ele>926.20001220703</ele>
        <time>2016-07-15T13:44:20.000Z</time>
      </trkpt>
      <trkpt lat="44.546" lon="6.13571">
        <ele>926</ele>
        <time>2016-07-15T13:44:22.000Z</time>
      </trkpt>
      <trkpt lat="44.54605" lon="6.13575">
        <ele>925.79998779297</ele>
        <time>2016-07-15T13:44:28.000Z</time>
      </trkpt>
      <trkpt lat="44.54608" lon="6.13578">
        <ele>925.59997558594</ele>
        <time>2016-07-15T13:44:32.000Z</time>
      </trkpt>
      <trkpt lat="44.5461" lon="6.13579">
        <ele>925.40002441406</ele>
        <time>2016-07-15T13:44:34.000Z</time>
      </trkpt>
      <trkpt lat="44.54614" lon="6.13583">
        <ele>925</ele>
        <time>2016-07-15T13:44:39.000Z</time>
      </trkpt>
      <trkpt lat="44.54616" lon="6.13585">
        <ele>925</ele>
        <time>2016-07-15T13:44:41.000Z</time>
      </trkpt>
      <trkpt lat="44.54625" lon="6.13588">
        <ele>923.40002441406</ele>
        <time>2016-07-15T13:44:49.000Z</time>
      </trkpt>
      <trkpt lat="44.54626" lon="6.13589">
        <ele>923.20001220703</ele>
        <time>2016-07-15T13:44:50.000Z</time>
      </trkpt>
      <trkpt lat="44.54629" lon="6.13591">
        <ele>922.59997558594</ele>
        <time>2016-07-15T13:44:53.000Z</time>
      </trkpt>
      <trkpt lat="44.54638" lon="6.13595">
        <ele>921</ele>
        <time>2016-07-15T13:45:00.000Z</time>
      </trkpt>
      <trkpt lat="44.5464" lon="6.13596">
        <ele>920.79998779297</ele>
        <time>2016-07-15T13:45:01.000Z</time>
      </trkpt>
      <trkpt lat="44.54649" lon="6.13599">
        <ele>919</ele>
        <time>2016-07-15T13:45:09.000Z</time>
      </trkpt>
      <trkpt lat="44.5465" lon="6.13599">
        <ele>918.79998779297</ele>
        <time>2016-07-15T13:45:10.000Z</time>
      </trkpt>
      <trkpt lat="44.54659" lon="6.13603">
        <ele>917</ele>
        <time>2016-07-15T13:45:18.000Z</time>
      </trkpt>
      <trkpt lat="44.54669" lon="6.13611">
        <ele>915.40002441406</ele>
        <time>2016-07-15T13:45:25.000Z</time>
      </trkpt>
      <trkpt lat="44.54678" lon="6.13617">
        <ele>914</ele>
        <time>2016-07-15T13:45:31.000Z</time>
      </trkpt>
      <trkpt lat="44.54686" lon="6.13623">
        <ele>913</ele>
        <time>2016-07-15T13:45:37.000Z</time>
      </trkpt>
      <trkpt lat="44.54688" lon="6.13625">
        <ele>912.59997558594</ele>
        <time>2016-07-15T13:45:39.000Z</time>
      </trkpt>
      <trkpt lat="44.54695" lon="6.13631">
        <ele>911.40002441406</ele>
        <time>2016-07-15T13:45:46.000Z</time>
      </trkpt>
      <trkpt lat="44.54702" lon="6.13637">
        <ele>910.59997558594</ele>
        <time>2016-07-15T13:45:53.000Z</time>
      </trkpt>
      <trkpt lat="44.54703" lon="6.13638">
        <ele>910.59997558594</ele>
        <time>2016-07-15T13:45:54.000Z</time>
      </trkpt>
      <trkpt lat="44.54705" lon="6.13639">
        <ele>910.79998779297</ele>
        <time>2016-07-15T13:46:03.000Z</time>
      </trkpt>
      <trkpt lat="44.54708" lon="6.13638">
        <ele>911.20001220703</ele>
        <time>2016-07-15T13:46:08.000Z</time>
      </trkpt>
      <trkpt lat="44.54713" lon="6.13637">
        <ele>911.79998779297</ele>
        <time>2016-07-15T13:46:12.000Z</time>
      </trkpt>
      <trkpt lat="44.54725" lon="6.13631">
        <ele>913.20001220703</ele>
        <time>2016-07-15T13:46:22.000Z</time>
      </trkpt>
      <trkpt lat="44.54737" lon="6.13625">
        <ele>914.79998779297</ele>
        <time>2016-07-15T13:46:31.000Z</time>
      </trkpt>
      <trkpt lat="44.54745" lon="6.13619">
        <ele>916</ele>
        <time>2016-07-15T13:46:38.000Z</time>
      </trkpt>
      <trkpt lat="44.54755" lon="6.13605">
        <ele>916.20001220703</ele>
        <time>2016-07-15T13:46:48.000Z</time>
      </trkpt>
      <trkpt lat="44.54768" lon="6.13586">
        <ele>913.20001220703</ele>
        <time>2016-07-15T13:47:01.000Z</time>
      </trkpt>
      <trkpt lat="44.54772" lon="6.1358">
        <ele>912.20001220703</ele>
        <time>2016-07-15T13:47:05.000Z</time>
      </trkpt>
      <trkpt lat="44.54777" lon="6.13573">
        <ele>911</ele>
        <time>2016-07-15T13:47:10.000Z</time>
      </trkpt>
      <trkpt lat="44.54783" lon="6.13566">
        <ele>909.59997558594</ele>
        <time>2016-07-15T13:47:15.000Z</time>
      </trkpt>
      <trkpt lat="44.54793" lon="6.13557">
        <ele>910</ele>
        <time>2016-07-15T13:47:24.000Z</time>
      </trkpt>
      <trkpt lat="44.548" lon="6.13553">
        <ele>910.59997558594</ele>
        <time>2016-07-15T13:47:30.000Z</time>
      </trkpt>
      <trkpt lat="44.54807" lon="6.13546">
        <ele>911.40002441406</ele>
        <time>2016-07-15T13:47:37.000Z</time>
      </trkpt>
      <trkpt lat="44.54818" lon="6.13538">
        <ele>912.59997558594</ele>
        <time>2016-07-15T13:47:45.000Z</time>
      </trkpt>
      <trkpt lat="44.5483" lon="6.13535">
        <ele>914</ele>
        <time>2016-07-15T13:47:52.000Z</time>
      </trkpt>
      <trkpt lat="44.54844" lon="6.13535">
        <ele>915.20001220703</ele>
        <time>2016-07-15T13:48:01.000Z</time>
      </trkpt>
      <trkpt lat="44.54857" lon="6.13535">
        <ele>915.40002441406</ele>
        <time>2016-07-15T13:48:10.000Z</time>
      </trkpt>
      <trkpt lat="44.54876" lon="6.13534">
        <ele>915.79998779297</ele>
        <time>2016-07-15T13:48:22.000Z</time>
      </trkpt>
      <trkpt lat="44.54892" lon="6.13533">
        <ele>916.20001220703</ele>
        <time>2016-07-15T13:48:32.000Z</time>
      </trkpt>
      <trkpt lat="44.54909" lon="6.13536">
        <ele>917.20001220703</ele>
        <time>2016-07-15T13:48:44.000Z</time>
      </trkpt>
      <trkpt lat="44.54924" lon="6.13539">
        <ele>918</ele>
        <time>2016-07-15T13:48:54.000Z</time>
      </trkpt>
      <trkpt lat="44.54937" lon="6.13543">
        <ele>918.79998779297</ele>
        <time>2016-07-15T13:49:03.000Z</time>
      </trkpt>
      <trkpt lat="44.54952" lon="6.13547">
        <ele>919.59997558594</ele>
        <time>2016-07-15T13:49:14.000Z</time>
      </trkpt>
      <trkpt lat="44.54964" lon="6.13552">
        <ele>919.40002441406</ele>
        <time>2016-07-15T13:49:22.000Z</time>
      </trkpt>
      <trkpt lat="44.54979" lon="6.1356">
        <ele>919.59997558594</ele>
        <time>2016-07-15T13:49:33.000Z</time>
      </trkpt>
      <trkpt lat="44.54991" lon="6.13568">
        <ele>919.79998779297</ele>
        <time>2016-07-15T13:49:42.000Z</time>
      </trkpt>
      <trkpt lat="44.55007" lon="6.13579">
        <ele>920.20001220703</ele>
        <time>2016-07-15T13:49:54.000Z</time>
      </trkpt>
      <trkpt lat="44.55021" lon="6.13587">
        <ele>920.59997558594</ele>
        <time>2016-07-15T13:50:04.000Z</time>
      </trkpt>
      <trkpt lat="44.55032" lon="6.13594">
        <ele>920.79998779297</ele>
        <time>2016-07-15T13:50:12.000Z</time>
      </trkpt>
      <trkpt lat="44.55044" lon="6.13602">
        <ele>920.20001220703</ele>
        <time>2016-07-15T13:50:21.000Z</time>
      </trkpt>
      <trkpt lat="44.55054" lon="6.13609">
        <ele>919.79998779297</ele>
        <time>2016-07-15T13:50:28.000Z</time>
      </trkpt>
      <trkpt lat="44.55065" lon="6.13619">
        <ele>919.59997558594</ele>
        <time>2016-07-15T13:50:37.000Z</time>
      </trkpt>
      <trkpt lat="44.55077" lon="6.13631">
        <ele>919.40002441406</ele>
        <time>2016-07-15T13:50:47.000Z</time>
      </trkpt>
      <trkpt lat="44.55088" lon="6.13642">
        <ele>919.40002441406</ele>
        <time>2016-07-15T13:50:56.000Z</time>
      </trkpt>
      <trkpt lat="44.55096" lon="6.13653">
        <ele>919.40002441406</ele>
        <time>2016-07-15T13:51:04.000Z</time>
      </trkpt>
      <trkpt lat="44.55102" lon="6.13659">
        <ele>919</ele>
        <time>2016-07-15T13:51:09.000Z</time>
      </trkpt>
      <trkpt lat="44.55112" lon="6.13669">
        <ele>918.40002441406</ele>
        <time>2016-07-15T13:51:17.000Z</time>
      </trkpt>
      <trkpt lat="44.55123" lon="6.1368">
        <ele>917.59997558594</ele>
        <time>2016-07-15T13:51:26.000Z</time>
      </trkpt>
      <trkpt lat="44.55138" lon="6.13693">
        <ele>916</ele>
        <time>2016-07-15T13:51:37.000Z</time>
      </trkpt>
      <trkpt lat="44.55149" lon="6.13704">
        <ele>914.59997558594</ele>
        <time>2016-07-15T13:51:45.000Z</time>
      </trkpt>
      <trkpt lat="44.55158" lon="6.13714">
        <ele>913.79998779297</ele>
        <time>2016-07-15T13:51:52.000Z</time>
      </trkpt>
      <trkpt lat="44.55169" lon="6.13724">
        <ele>912.59997558594</ele>
        <time>2016-07-15T13:52:00.000Z</time>
      </trkpt>
      <trkpt lat="44.55183" lon="6.13735">
        <ele>911</ele>
        <time>2016-07-15T13:52:11.000Z</time>
      </trkpt>
      <trkpt lat="44.55195" lon="6.13744">
        <ele>910.20001220703</ele>
        <time>2016-07-15T13:52:20.000Z</time>
      </trkpt>
      <trkpt lat="44.55212" lon="6.13756">
        <ele>909</ele>
        <time>2016-07-15T13:52:32.000Z</time>
      </trkpt>
      <trkpt lat="44.55226" lon="6.13767">
        <ele>908.20001220703</ele>
        <time>2016-07-15T13:52:42.000Z</time>
      </trkpt>
      <trkpt lat="44.5523" lon="6.1377">
        <ele>907.79998779297</ele>
        <time>2016-07-15T13:52:49.000Z</time>
      </trkpt>
      <trkpt lat="44.55236" lon="6.13772">
        <ele>907.40002441406</ele>
        <time>2016-07-15T13:52:58.000Z</time>
      </trkpt>
      <trkpt lat="44.55249" lon="6.13778">
        <ele>906.20001220703</ele>
        <time>2016-07-15T13:53:07.000Z</time>
      </trkpt>
      <trkpt lat="44.55266" lon="6.13782">
        <ele>904.59997558594</ele>
        <time>2016-07-15T13:53:19.000Z</time>
      </trkpt>
      <trkpt lat="44.5528" lon="6.13786">
        <ele>903.40002441406</ele>
        <time>2016-07-15T13:53:29.000Z</time>
      </trkpt>
      <trkpt lat="44.55308" lon="6.13784">
        <ele>901.59997558594</ele>
        <time>2016-07-15T13:53:48.000Z</time>
      </trkpt>
      <trkpt lat="44.55324" lon="6.13783">
        <ele>900.79998779297</ele>
        <time>2016-07-15T13:53:59.000Z</time>
      </trkpt>
      <trkpt lat="44.5534" lon="6.13781">
        <ele>899.79998779297</ele>
        <time>2016-07-15T13:54:10.000Z</time>
      </trkpt>
      <trkpt lat="44.55355" lon="6.13781">
        <ele>899.59997558594</ele>
        <time>2016-07-15T13:54:20.000Z</time>
      </trkpt>
      <trkpt lat="44.55367" lon="6.13781">
        <ele>899.20001220703</ele>
        <time>2016-07-15T13:54:28.000Z</time>
      </trkpt>
      <trkpt lat="44.55378" lon="6.13784">
        <ele>899.20001220703</ele>
        <time>2016-07-15T13:54:37.000Z</time>
      </trkpt>
      <trkpt lat="44.5539" lon="6.13787">
        <ele>899</ele>
        <time>2016-07-15T13:54:46.000Z</time>
      </trkpt>
      <trkpt lat="44.55398" lon="6.13791">
        <ele>899.20001220703</ele>
        <time>2016-07-15T13:54:53.000Z</time>
      </trkpt>
      <trkpt lat="44.5541" lon="6.13798">
        <ele>899.20001220703</ele>
        <time>2016-07-15T13:55:01.000Z</time>
      </trkpt>
      <trkpt lat="44.55422" lon="6.13806">
        <ele>899.40002441406</ele>
        <time>2016-07-15T13:55:10.000Z</time>
      </trkpt>
      <trkpt lat="44.55426" lon="6.13808">
        <ele>899.40002441406</ele>
        <time>2016-07-15T13:55:16.000Z</time>
      </trkpt>
      <trkpt lat="44.55432" lon="6.1381">
        <ele>899.40002441406</ele>
        <time>2016-07-15T13:55:26.000Z</time>
      </trkpt>
      <trkpt lat="44.55442" lon="6.13817">
        <ele>899.59997558594</ele>
        <time>2016-07-15T13:55:34.000Z</time>
      </trkpt>
      <trkpt lat="44.5545" lon="6.13824">
        <ele>899.79998779297</ele>
        <time>2016-07-15T13:55:42.000Z</time>
      </trkpt>
      <trkpt lat="44.5546" lon="6.1383">
        <ele>899.40002441406</ele>
        <time>2016-07-15T13:55:50.000Z</time>
      </trkpt>
      <trkpt lat="44.5547" lon="6.13841">
        <ele>899.20001220703</ele>
        <time>2016-07-15T13:55:58.000Z</time>
      </trkpt>
      <trkpt lat="44.5548" lon="6.13854">
        <ele>899.20001220703</ele>
        <time>2016-07-15T13:56:07.000Z</time>
      </trkpt>
      <trkpt lat="44.55488" lon="6.13866">
        <ele>899.20001220703</ele>
        <time>2016-07-15T13:56:15.000Z</time>
      </trkpt>
      <trkpt lat="44.55498" lon="6.13877">
        <ele>899</ele>
        <time>2016-07-15T13:56:24.000Z</time>
      </trkpt>
      <trkpt lat="44.55508" lon="6.13887">
        <ele>898.79998779297</ele>
        <time>2016-07-15T13:56:33.000Z</time>
      </trkpt>
      <trkpt lat="44.55518" lon="6.13895">
        <ele>898.40002441406</ele>
        <time>2016-07-15T13:56:41.000Z</time>
      </trkpt>
      <trkpt lat="44.55529" lon="6.13904">
        <ele>898</ele>
        <time>2016-07-15T13:56:50.000Z</time>
      </trkpt>
      <trkpt lat="44.55539" lon="6.13912">
        <ele>898</ele>
        <time>2016-07-15T13:56:58.000Z</time>
      </trkpt>
      <trkpt lat="44.55544" lon="6.13917">
        <ele>898.20001220703</ele>
        <time>2016-07-15T13:57:03.000Z</time>
      </trkpt>
      <trkpt lat="44.55546" lon="6.13921">
        <ele>898.40002441406</ele>
        <time>2016-07-15T13:57:05.000Z</time>
      </trkpt>
      <trkpt lat="44.55556" lon="6.13933">
        <ele>898.79998779297</ele>
        <time>2016-07-15T13:57:14.000Z</time>
      </trkpt>
      <trkpt lat="44.55566" lon="6.13945">
        <ele>899.20001220703</ele>
        <time>2016-07-15T13:57:23.000Z</time>
      </trkpt>
      <trkpt lat="44.55573" lon="6.1395">
        <ele>899.40002441406</ele>
        <time>2016-07-15T13:57:29.000Z</time>
      </trkpt>
      <trkpt lat="44.55578" lon="6.13954">
        <ele>899.59997558594</ele>
        <time>2016-07-15T13:57:33.000Z</time>
      </trkpt>
      <trkpt lat="44.5558" lon="6.13957">
        <ele>899.59997558594</ele>
        <time>2016-07-15T13:57:35.000Z</time>
      </trkpt>
      <trkpt lat="44.55596" lon="6.13972">
        <ele>900.20001220703</ele>
        <time>2016-07-15T13:57:46.000Z</time>
      </trkpt>
      <trkpt lat="44.55609" lon="6.13988">
        <ele>900.20001220703</ele>
        <time>2016-07-15T13:57:57.000Z</time>
      </trkpt>
      <trkpt lat="44.55628" lon="6.14003">
        <ele>899.79998779297</ele>
        <time>2016-07-15T13:58:12.000Z</time>
      </trkpt>
      <trkpt lat="44.5564" lon="6.14009">
        <ele>899.79998779297</ele>
        <time>2016-07-15T13:58:21.000Z</time>
      </trkpt>
      <trkpt lat="44.55648" lon="6.14019">
        <ele>899.59997558594</ele>
        <time>2016-07-15T13:58:28.000Z</time>
      </trkpt>
      <trkpt lat="44.55659" lon="6.14029">
        <ele>899.59997558594</ele>
        <time>2016-07-15T13:58:37.000Z</time>
      </trkpt>
      <trkpt lat="44.5568" lon="6.14047">
        <ele>899.20001220703</ele>
        <time>2016-07-15T13:58:55.000Z</time>
      </trkpt>
      <trkpt lat="44.55688" lon="6.14052">
        <ele>899.20001220703</ele>
        <time>2016-07-15T13:59:01.000Z</time>
      </trkpt>
      <trkpt lat="44.557" lon="6.14062">
        <ele>899.20001220703</ele>
        <time>2016-07-15T13:59:10.000Z</time>
      </trkpt>
      <trkpt lat="44.55716" lon="6.14075">
        <ele>898.40002441406</ele>
        <time>2016-07-15T13:59:22.000Z</time>
      </trkpt>
      <trkpt lat="44.55725" lon="6.14085">
        <ele>898.20001220703</ele>
        <time>2016-07-15T13:59:29.000Z</time>
      </trkpt>
      <trkpt lat="44.55724" lon="6.14091">
        <ele>898.79998779297</ele>
        <time>2016-07-15T13:59:33.000Z</time>
      </trkpt>
      <trkpt lat="44.55723" lon="6.14094">
        <ele>899</ele>
        <time>2016-07-15T13:59:38.000Z</time>
      </trkpt>
      <trkpt lat="44.55723" lon="6.14093">
        <ele>899</ele>
        <time>2016-07-15T13:59:41.000Z</time>
      </trkpt>
      <trkpt lat="44.55724" lon="6.14094">
        <ele>899</ele>
        <time>2016-07-15T13:59:46.000Z</time>
      </trkpt>
      <trkpt lat="44.55724" lon="6.14095">
        <ele>899</ele>
        <time>2016-07-15T13:59:54.000Z</time>
      </trkpt>
      <trkpt lat="44.55723" lon="6.14093">
        <ele>899</ele>
        <time>2016-07-15T14:00:02.000Z</time>
      </trkpt>
      <trkpt lat="44.5572" lon="6.1409">
        <ele>899</ele>
        <time>2016-07-15T14:00:07.000Z</time>
      </trkpt>
      <trkpt lat="44.55717" lon="6.14088">
        <ele>899.20001220703</ele>
        <time>2016-07-15T14:00:12.000Z</time>
      </trkpt>
      <trkpt lat="44.55723" lon="6.14091">
        <ele>898.79998779297</ele>
        <time>2016-07-15T14:06:13.000Z</time>
      </trkpt>
      <trkpt lat="44.55723" lon="6.14093">
        <ele>899</ele>
        <time>2016-07-15T14:06:21.000Z</time>
      </trkpt>
      <trkpt lat="44.55724" lon="6.14094">
        <ele>899</ele>
        <time>2016-07-15T14:06:34.000Z</time>
      </trkpt>
      <trkpt lat="44.55728" lon="6.14091">
        <ele>898.20001220703</ele>
        <time>2016-07-15T14:06:43.000Z</time>
      </trkpt>
      <trkpt lat="44.5573" lon="6.1409">
        <ele>898</ele>
        <time>2016-07-15T14:06:44.000Z</time>
      </trkpt>
      <trkpt lat="44.55739" lon="6.14099">
        <ele>897.59997558594</ele>
        <time>2016-07-15T14:06:52.000Z</time>
      </trkpt>
      <trkpt lat="44.55747" lon="6.14111">
        <ele>897.59997558594</ele>
        <time>2016-07-15T14:07:00.000Z</time>
      </trkpt>
      <trkpt lat="44.55757" lon="6.14126">
        <ele>897.59997558594</ele>
        <time>2016-07-15T14:07:10.000Z</time>
      </trkpt>
      <trkpt lat="44.55764" lon="6.14138">
        <ele>897.59997558594</ele>
        <time>2016-07-15T14:07:18.000Z</time>
      </trkpt>
      <trkpt lat="44.55775" lon="6.14154">
        <ele>897.79998779297</ele>
        <time>2016-07-15T14:07:29.000Z</time>
      </trkpt>
      <trkpt lat="44.55781" lon="6.14164">
        <ele>898</ele>
        <time>2016-07-15T14:07:36.000Z</time>
      </trkpt>
      <trkpt lat="44.55789" lon="6.14178">
        <ele>898.40002441406</ele>
        <time>2016-07-15T14:07:45.000Z</time>
      </trkpt>
      <trkpt lat="44.55798" lon="6.14194">
        <ele>898.59997558594</ele>
        <time>2016-07-15T14:07:55.000Z</time>
      </trkpt>
      <trkpt lat="44.55816" lon="6.14224">
        <ele>899</ele>
        <time>2016-07-15T14:08:15.000Z</time>
      </trkpt>
      <trkpt lat="44.55819" lon="6.14227">
        <ele>898.79998779297</ele>
        <time>2016-07-15T14:08:20.000Z</time>
      </trkpt>
      <trkpt lat="44.55822" lon="6.14233">
        <ele>898.59997558594</ele>
        <time>2016-07-15T14:08:41.000Z</time>
      </trkpt>
      <trkpt lat="44.55829" lon="6.14247">
        <ele>898.40002441406</ele>
        <time>2016-07-15T14:08:50.000Z</time>
      </trkpt>
      <trkpt lat="44.55833" lon="6.14255">
        <ele>898.20001220703</ele>
        <time>2016-07-15T14:08:55.000Z</time>
      </trkpt>
      <trkpt lat="44.55848" lon="6.1428">
        <ele>897.20001220703</ele>
        <time>2016-07-15T14:09:12.000Z</time>
      </trkpt>
      <trkpt lat="44.5586" lon="6.14301">
        <ele>896.40002441406</ele>
        <time>2016-07-15T14:09:25.000Z</time>
      </trkpt>
      <trkpt lat="44.5587" lon="6.14313">
        <ele>896</ele>
        <time>2016-07-15T14:09:34.000Z</time>
      </trkpt>
      <trkpt lat="44.55876" lon="6.14319">
        <ele>895.79998779297</ele>
        <time>2016-07-15T14:09:40.000Z</time>
      </trkpt>
      <trkpt lat="44.55882" lon="6.14325">
        <ele>895.79998779297</ele>
        <time>2016-07-15T14:09:45.000Z</time>
      </trkpt>
      <trkpt lat="44.55896" lon="6.14341">
        <ele>895.79998779297</ele>
        <time>2016-07-15T14:09:57.000Z</time>
      </trkpt>
      <trkpt lat="44.55905" lon="6.14355">
        <ele>895.79998779297</ele>
        <time>2016-07-15T14:10:05.000Z</time>
      </trkpt>
      <trkpt lat="44.55913" lon="6.14365">
        <ele>895.79998779297</ele>
        <time>2016-07-15T14:10:13.000Z</time>
      </trkpt>
      <trkpt lat="44.55917" lon="6.14367">
        <ele>895.79998779297</ele>
        <time>2016-07-15T14:10:19.000Z</time>
      </trkpt>
      <trkpt lat="44.55921" lon="6.14372">
        <ele>895.79998779297</ele>
        <time>2016-07-15T14:10:40.000Z</time>
      </trkpt>
      <trkpt lat="44.5593" lon="6.1438">
        <ele>895.59997558594</ele>
        <time>2016-07-15T14:10:48.000Z</time>
      </trkpt>
      <trkpt lat="44.55941" lon="6.1439">
        <ele>895.40002441406</ele>
        <time>2016-07-15T14:10:57.000Z</time>
      </trkpt>
      <trkpt lat="44.55953" lon="6.14399">
        <ele>895.20001220703</ele>
        <time>2016-07-15T14:11:07.000Z</time>
      </trkpt>
      <trkpt lat="44.55962" lon="6.14406">
        <ele>895.40002441406</ele>
        <time>2016-07-15T14:11:15.000Z</time>
      </trkpt>
      <trkpt lat="44.55968" lon="6.14412">
        <ele>895.40002441406</ele>
        <time>2016-07-15T14:11:22.000Z</time>
      </trkpt>
      <trkpt lat="44.55978" lon="6.14421">
        <ele>895.59997558594</ele>
        <time>2016-07-15T14:11:31.000Z</time>
      </trkpt>
      <trkpt lat="44.5599" lon="6.14429">
        <ele>895.79998779297</ele>
        <time>2016-07-15T14:11:41.000Z</time>
      </trkpt>
      <trkpt lat="44.56002" lon="6.14434">
        <ele>895.79998779297</ele>
        <time>2016-07-15T14:11:51.000Z</time>
      </trkpt>
      <trkpt lat="44.56032" lon="6.14448">
        <ele>896</ele>
        <time>2016-07-15T14:12:10.000Z</time>
      </trkpt>
      <trkpt lat="44.56052" lon="6.14457">
        <ele>896.59997558594</ele>
        <time>2016-07-15T14:12:15.000Z</time>
      </trkpt>
      <trkpt lat="44.56071" lon="6.14468">
        <ele>897.59997558594</ele>
        <time>2016-07-15T14:12:21.000Z</time>
      </trkpt>
      <trkpt lat="44.56089" lon="6.14478">
        <ele>898.40002441406</ele>
        <time>2016-07-15T14:12:27.000Z</time>
      </trkpt>
      <trkpt lat="44.56108" lon="6.14488">
        <ele>899.20001220703</ele>
        <time>2016-07-15T14:12:33.000Z</time>
      </trkpt>
      <trkpt lat="44.56125" lon="6.14498">
        <ele>900</ele>
        <time>2016-07-15T14:12:38.000Z</time>
      </trkpt>
      <trkpt lat="44.56143" lon="6.14508">
        <ele>901.40002441406</ele>
        <time>2016-07-15T14:12:44.000Z</time>
      </trkpt>
      <trkpt lat="44.5616" lon="6.14516">
        <ele>902.40002441406</ele>
        <time>2016-07-15T14:12:50.000Z</time>
      </trkpt>
      <trkpt lat="44.5618" lon="6.14524">
        <ele>903.20001220703</ele>
        <time>2016-07-15T14:12:56.000Z</time>
      </trkpt>
      <trkpt lat="44.56199" lon="6.14523">
        <ele>903.59997558594</ele>
        <time>2016-07-15T14:13:02.000Z</time>
      </trkpt>
      <trkpt lat="44.5622" lon="6.14521">
        <ele>904</ele>
        <time>2016-07-15T14:13:10.000Z</time>
      </trkpt>
      <trkpt lat="44.56237" lon="6.14519">
        <ele>904.40002441406</ele>
        <time>2016-07-15T14:13:16.000Z</time>
      </trkpt>
      <trkpt lat="44.56248" lon="6.14514">
        <ele>904.59997558594</ele>
        <time>2016-07-15T14:13:23.000Z</time>
      </trkpt>
      <trkpt lat="44.56257" lon="6.1451">
        <ele>904.79998779297</ele>
        <time>2016-07-15T14:13:30.000Z</time>
      </trkpt>
      <trkpt lat="44.56266" lon="6.14509">
        <ele>905.20001220703</ele>
        <time>2016-07-15T14:13:36.000Z</time>
      </trkpt>
      <trkpt lat="44.56277" lon="6.14506">
        <ele>905.59997558594</ele>
        <time>2016-07-15T14:13:44.000Z</time>
      </trkpt>
      <trkpt lat="44.56288" lon="6.14505">
        <ele>905.79998779297</ele>
        <time>2016-07-15T14:13:52.000Z</time>
      </trkpt>
      <trkpt lat="44.563" lon="6.1451">
        <ele>905.40002441406</ele>
        <time>2016-07-15T14:14:00.000Z</time>
      </trkpt>
      <trkpt lat="44.56323" lon="6.14548">
        <ele>905.59997558594</ele>
        <time>2016-07-15T14:14:13.000Z</time>
      </trkpt>
      <trkpt lat="44.56333" lon="6.14571">
        <ele>905.79998779297</ele>
        <time>2016-07-15T14:14:20.000Z</time>
      </trkpt>
      <trkpt lat="44.56341" lon="6.14581">
        <ele>905.59997558594</ele>
        <time>2016-07-15T14:14:26.000Z</time>
      </trkpt>
      <trkpt lat="44.56351" lon="6.14595">
        <ele>905.20001220703</ele>
        <time>2016-07-15T14:14:36.000Z</time>
      </trkpt>
      <trkpt lat="44.56358" lon="6.14613">
        <ele>905.20001220703</ele>
        <time>2016-07-15T14:14:46.000Z</time>
      </trkpt>
      <trkpt lat="44.56359" lon="6.14652">
        <ele>905.40002441406</ele>
        <time>2016-07-15T14:15:05.000Z</time>
      </trkpt>
      <trkpt lat="44.56361" lon="6.14665">
        <ele>905.40002441406</ele>
        <time>2016-07-15T14:15:11.000Z</time>
      </trkpt>
      <trkpt lat="44.56364" lon="6.14679">
        <ele>905.59997558594</ele>
        <time>2016-07-15T14:15:18.000Z</time>
      </trkpt>
      <trkpt lat="44.56365" lon="6.14693">
        <ele>905.59997558594</ele>
        <time>2016-07-15T14:15:25.000Z</time>
      </trkpt>
      <trkpt lat="44.5637" lon="6.14702">
        <ele>905.79998779297</ele>
        <time>2016-07-15T14:15:31.000Z</time>
      </trkpt>
      <trkpt lat="44.56376" lon="6.14707">
        <ele>905.79998779297</ele>
        <time>2016-07-15T14:15:37.000Z</time>
      </trkpt>
      <trkpt lat="44.56385" lon="6.14721">
        <ele>906.20001220703</ele>
        <time>2016-07-15T14:15:46.000Z</time>
      </trkpt>
      <trkpt lat="44.56392" lon="6.14734">
        <ele>906.59997558594</ele>
        <time>2016-07-15T14:15:54.000Z</time>
      </trkpt>
      <trkpt lat="44.56401" lon="6.14748">
        <ele>907.20001220703</ele>
        <time>2016-07-15T14:16:04.000Z</time>
      </trkpt>
      <trkpt lat="44.56408" lon="6.14763">
        <ele>907.79998779297</ele>
        <time>2016-07-15T14:16:13.000Z</time>
      </trkpt>
      <trkpt lat="44.56414" lon="6.14776">
        <ele>908.40002441406</ele>
        <time>2016-07-15T14:16:22.000Z</time>
      </trkpt>
      <trkpt lat="44.5642" lon="6.14791">
        <ele>909</ele>
        <time>2016-07-15T14:16:31.000Z</time>
      </trkpt>
      <trkpt lat="44.56423" lon="6.14799">
        <ele>909.40002441406</ele>
        <time>2016-07-15T14:16:36.000Z</time>
      </trkpt>
      <trkpt lat="44.56425" lon="6.14806">
        <ele>909.79998779297</ele>
        <time>2016-07-15T14:16:40.000Z</time>
      </trkpt>
      <trkpt lat="44.56432" lon="6.14821">
        <ele>910.20001220703</ele>
        <time>2016-07-15T14:16:49.000Z</time>
      </trkpt>
      <trkpt lat="44.56447" lon="6.14845">
        <ele>910.79998779297</ele>
        <time>2016-07-15T14:17:06.000Z</time>
      </trkpt>
      <trkpt lat="44.5645" lon="6.14855">
        <ele>911</ele>
        <time>2016-07-15T14:17:12.000Z</time>
      </trkpt>
      <trkpt lat="44.56451" lon="6.14865">
        <ele>911.20001220703</ele>
        <time>2016-07-15T14:17:17.000Z</time>
      </trkpt>
      <trkpt lat="44.56455" lon="6.1488">
        <ele>911</ele>
        <time>2016-07-15T14:17:26.000Z</time>
      </trkpt>
      <trkpt lat="44.56463" lon="6.14888">
        <ele>910.20001220703</ele>
        <time>2016-07-15T14:17:34.000Z</time>
      </trkpt>
      <trkpt lat="44.56464" lon="6.14889">
        <ele>910</ele>
        <time>2016-07-15T14:17:35.000Z</time>
      </trkpt>
      <trkpt lat="44.56465" lon="6.14891">
        <ele>909.79998779297</ele>
        <time>2016-07-15T14:17:37.000Z</time>
      </trkpt>
      <trkpt lat="44.56472" lon="6.14899">
        <ele>909.20001220703</ele>
        <time>2016-07-15T14:17:44.000Z</time>
      </trkpt>
      <trkpt lat="44.56475" lon="6.14903">
        <ele>908.79998779297</ele>
        <time>2016-07-15T14:17:47.000Z</time>
      </trkpt>
      <trkpt lat="44.5648" lon="6.14915">
        <ele>908.20001220703</ele>
        <time>2016-07-15T14:17:55.000Z</time>
      </trkpt>
      <trkpt lat="44.56482" lon="6.14922">
        <ele>908.20001220703</ele>
        <time>2016-07-15T14:18:00.000Z</time>
      </trkpt>
      <trkpt lat="44.56485" lon="6.14929">
        <ele>907.79998779297</ele>
        <time>2016-07-15T14:18:07.000Z</time>
      </trkpt>
      <trkpt lat="44.56488" lon="6.1494">
        <ele>908.40002441406</ele>
        <time>2016-07-15T14:18:22.000Z</time>
      </trkpt>
      <trkpt lat="44.5649" lon="6.14955">
        <ele>909.20001220703</ele>
        <time>2016-07-15T14:18:27.000Z</time>
      </trkpt>
      <trkpt lat="44.56492" lon="6.14966">
        <ele>909.79998779297</ele>
        <time>2016-07-15T14:18:34.000Z</time>
      </trkpt>
      <trkpt lat="44.56495" lon="6.14987">
        <ele>909.79998779297</ele>
        <time>2016-07-15T14:18:42.000Z</time>
      </trkpt>
      <trkpt lat="44.56496" lon="6.15008">
        <ele>909.20001220703</ele>
        <time>2016-07-15T14:18:51.000Z</time>
      </trkpt>
      <trkpt lat="44.56496" lon="6.15023">
        <ele>908.79998779297</ele>
        <time>2016-07-15T14:18:59.000Z</time>
      </trkpt>
      <trkpt lat="44.56504" lon="6.15052">
        <ele>907</ele>
        <time>2016-07-15T14:19:14.000Z</time>
      </trkpt>
      <trkpt lat="44.56505" lon="6.15056">
        <ele>906.79998779297</ele>
        <time>2016-07-15T14:19:16.000Z</time>
      </trkpt>
      <trkpt lat="44.5651" lon="6.15067">
        <ele>905.40002441406</ele>
        <time>2016-07-15T14:19:22.000Z</time>
      </trkpt>
      <trkpt lat="44.56511" lon="6.15069">
        <ele>905.20001220703</ele>
        <time>2016-07-15T14:19:24.000Z</time>
      </trkpt>
      <trkpt lat="44.56515" lon="6.1508">
        <ele>904</ele>
        <time>2016-07-15T14:19:30.000Z</time>
      </trkpt>
      <trkpt lat="44.5652" lon="6.15093">
        <ele>902.59997558594</ele>
        <time>2016-07-15T14:19:38.000Z</time>
      </trkpt>
      <trkpt lat="44.56523" lon="6.15103">
        <ele>901.59997558594</ele>
        <time>2016-07-15T14:19:46.000Z</time>
      </trkpt>
      <trkpt lat="44.56526" lon="6.15115">
        <ele>900.59997558594</ele>
        <time>2016-07-15T14:19:54.000Z</time>
      </trkpt>
      <trkpt lat="44.56531" lon="6.1513">
        <ele>899.20001220703</ele>
        <time>2016-07-15T14:20:02.000Z</time>
      </trkpt>
      <trkpt lat="44.56535" lon="6.15148">
        <ele>897.79998779297</ele>
        <time>2016-07-15T14:20:11.000Z</time>
      </trkpt>
      <trkpt lat="44.56539" lon="6.15165">
        <ele>896.79998779297</ele>
        <time>2016-07-15T14:20:20.000Z</time>
      </trkpt>
      <trkpt lat="44.56542" lon="6.1518">
        <ele>895.79998779297</ele>
        <time>2016-07-15T14:20:27.000Z</time>
      </trkpt>
      <trkpt lat="44.56547" lon="6.15198">
        <ele>894.59997558594</ele>
        <time>2016-07-15T14:20:37.000Z</time>
      </trkpt>
      <trkpt lat="44.56553" lon="6.15207">
        <ele>893.59997558594</ele>
        <time>2016-07-15T14:20:44.000Z</time>
      </trkpt>
      <trkpt lat="44.56561" lon="6.15209">
        <ele>892.59997558594</ele>
        <time>2016-07-15T14:20:50.000Z</time>
      </trkpt>
      <trkpt lat="44.56587" lon="6.1521">
        <ele>889.40002441406</ele>
        <time>2016-07-15T14:21:11.000Z</time>
      </trkpt>
      <trkpt lat="44.56601" lon="6.1521">
        <ele>887.59997558594</ele>
        <time>2016-07-15T14:21:20.000Z</time>
      </trkpt>
      <trkpt lat="44.56614" lon="6.15208">
        <ele>885.59997558594</ele>
        <time>2016-07-15T14:21:30.000Z</time>
      </trkpt>
      <trkpt lat="44.56626" lon="6.15205">
        <ele>884.40002441406</ele>
        <time>2016-07-15T14:21:40.000Z</time>
      </trkpt>
      <trkpt lat="44.56636" lon="6.152">
        <ele>883.79998779297</ele>
        <time>2016-07-15T14:21:47.000Z</time>
      </trkpt>
      <trkpt lat="44.56638" lon="6.15198">
        <ele>883.59997558594</ele>
        <time>2016-07-15T14:21:48.000Z</time>
      </trkpt>
      <trkpt lat="44.56646" lon="6.15191">
        <ele>883</ele>
        <time>2016-07-15T14:21:56.000Z</time>
      </trkpt>
      <trkpt lat="44.56654" lon="6.1518">
        <ele>882.40002441406</ele>
        <time>2016-07-15T14:22:05.000Z</time>
      </trkpt>
      <trkpt lat="44.56658" lon="6.15176">
        <ele>882</ele>
        <time>2016-07-15T14:22:08.000Z</time>
      </trkpt>
      <trkpt lat="44.56661" lon="6.15178">
        <ele>881.79998779297</ele>
        <time>2016-07-15T14:22:11.000Z</time>
      </trkpt>
      <trkpt lat="44.56662" lon="6.15181">
        <ele>881.79998779297</ele>
        <time>2016-07-15T14:22:19.000Z</time>
      </trkpt>
      <trkpt lat="44.56661" lon="6.15183">
        <ele>881.79998779297</ele>
        <time>2016-07-15T14:22:41.000Z</time>
      </trkpt>
      <trkpt lat="44.56664" lon="6.15182">
        <ele>881.59997558594</ele>
        <time>2016-07-15T14:23:20.000Z</time>
      </trkpt>
      <trkpt lat="44.56663" lon="6.15184">
        <ele>881.59997558594</ele>
        <time>2016-07-15T14:23:57.000Z</time>
      </trkpt>
      <trkpt lat="44.56663" lon="6.15192">
        <ele>881.79998779297</ele>
        <time>2016-07-15T14:24:10.000Z</time>
      </trkpt>
      <trkpt lat="44.56662" lon="6.15204">
        <ele>881.79998779297</ele>
        <time>2016-07-15T14:24:17.000Z</time>
      </trkpt>
      <trkpt lat="44.56662" lon="6.15216">
        <ele>881.79998779297</ele>
        <time>2016-07-15T14:24:25.000Z</time>
      </trkpt>
      <trkpt lat="44.56663" lon="6.15226">
        <ele>881.79998779297</ele>
        <time>2016-07-15T14:24:31.000Z</time>
      </trkpt>
      <trkpt lat="44.56663" lon="6.15235">
        <ele>881.59997558594</ele>
        <time>2016-07-15T14:24:36.000Z</time>
      </trkpt>
      <trkpt lat="44.56664" lon="6.15255">
        <ele>881.40002441406</ele>
        <time>2016-07-15T14:24:47.000Z</time>
      </trkpt>
      <trkpt lat="44.56665" lon="6.15271">
        <ele>881.20001220703</ele>
        <time>2016-07-15T14:24:56.000Z</time>
      </trkpt>
      <trkpt lat="44.56665" lon="6.15285">
        <ele>880.79998779297</ele>
        <time>2016-07-15T14:25:04.000Z</time>
      </trkpt>
      <trkpt lat="44.56665" lon="6.15297">
        <ele>880.59997558594</ele>
        <time>2016-07-15T14:25:11.000Z</time>
      </trkpt>
      <trkpt lat="44.56665" lon="6.15308">
        <ele>880.20001220703</ele>
        <time>2016-07-15T14:25:17.000Z</time>
      </trkpt>
      <trkpt lat="44.56665" lon="6.15323">
        <ele>880</ele>
        <time>2016-07-15T14:25:25.000Z</time>
      </trkpt>
      <trkpt lat="44.56665" lon="6.15335">
        <ele>879.79998779297</ele>
        <time>2016-07-15T14:25:32.000Z</time>
      </trkpt>
      <trkpt lat="44.56664" lon="6.1535">
        <ele>879.79998779297</ele>
        <time>2016-07-15T14:25:40.000Z</time>
      </trkpt>
      <trkpt lat="44.56663" lon="6.15363">
        <ele>879.59997558594</ele>
        <time>2016-07-15T14:25:47.000Z</time>
      </trkpt>
      <trkpt lat="44.56663" lon="6.15376">
        <ele>879.20001220703</ele>
        <time>2016-07-15T14:25:55.000Z</time>
      </trkpt>
      <trkpt lat="44.56662" lon="6.15387">
        <ele>879</ele>
        <time>2016-07-15T14:26:01.000Z</time>
      </trkpt>
      <trkpt lat="44.56661" lon="6.15401">
        <ele>878.79998779297</ele>
        <time>2016-07-15T14:26:08.000Z</time>
      </trkpt>
      <trkpt lat="44.56661" lon="6.15407">
        <ele>878.79998779297</ele>
        <time>2016-07-15T14:26:12.000Z</time>
      </trkpt>
      <trkpt lat="44.56662" lon="6.15412">
        <ele>878.59997558594</ele>
        <time>2016-07-15T14:26:16.000Z</time>
      </trkpt>
      <trkpt lat="44.56664" lon="6.15425">
        <ele>878.40002441406</ele>
        <time>2016-07-15T14:26:24.000Z</time>
      </trkpt>
      <trkpt lat="44.56666" lon="6.15439">
        <ele>878.20001220703</ele>
        <time>2016-07-15T14:26:32.000Z</time>
      </trkpt>
      <trkpt lat="44.56669" lon="6.15453">
        <ele>877.79998779297</ele>
        <time>2016-07-15T14:26:41.000Z</time>
      </trkpt>
      <trkpt lat="44.5667" lon="6.15459">
        <ele>877.59997558594</ele>
        <time>2016-07-15T14:26:44.000Z</time>
      </trkpt>
      <trkpt lat="44.56671" lon="6.15468">
        <ele>877.40002441406</ele>
        <time>2016-07-15T14:26:49.000Z</time>
      </trkpt>
      <trkpt lat="44.56671" lon="6.15469">
        <ele>877.20001220703</ele>
        <time>2016-07-15T14:26:50.000Z</time>
      </trkpt>
      <trkpt lat="44.5667" lon="6.15468">
        <ele>877.40002441406</ele>
        <time>2016-07-15T14:26:56.000Z</time>
      </trkpt>
      <trkpt lat="44.56672" lon="6.1548">
        <ele>877</ele>
        <time>2016-07-15T14:27:02.000Z</time>
      </trkpt>
      <trkpt lat="44.56673" lon="6.15494">
        <ele>877.20001220703</ele>
        <time>2016-07-15T14:27:10.000Z</time>
      </trkpt>
      <trkpt lat="44.56674" lon="6.15518">
        <ele>877.40002441406</ele>
        <time>2016-07-15T14:27:22.000Z</time>
      </trkpt>
      <trkpt lat="44.56672" lon="6.15536">
        <ele>877.79998779297</ele>
        <time>2016-07-15T14:27:30.000Z</time>
      </trkpt>
      <trkpt lat="44.5667" lon="6.15554">
        <ele>878</ele>
        <time>2016-07-15T14:27:38.000Z</time>
      </trkpt>
      <trkpt lat="44.5667" lon="6.15575">
        <ele>878.40002441406</ele>
        <time>2016-07-15T14:27:49.000Z</time>
      </trkpt>
      <trkpt lat="44.5667" lon="6.15599">
        <ele>879</ele>
        <time>2016-07-15T14:28:00.000Z</time>
      </trkpt>
      <trkpt lat="44.5667" lon="6.15622">
        <ele>879.40002441406</ele>
        <time>2016-07-15T14:28:10.000Z</time>
      </trkpt>
      <trkpt lat="44.56668" lon="6.1564">
        <ele>879.79998779297</ele>
        <time>2016-07-15T14:28:20.000Z</time>
      </trkpt>
      <trkpt lat="44.56665" lon="6.15656">
        <ele>880.40002441406</ele>
        <time>2016-07-15T14:28:27.000Z</time>
      </trkpt>
      <trkpt lat="44.56661" lon="6.15671">
        <ele>881.20001220703</ele>
        <time>2016-07-15T14:28:36.000Z</time>
      </trkpt>
      <trkpt lat="44.56658" lon="6.15687">
        <ele>882</ele>
        <time>2016-07-15T14:28:44.000Z</time>
      </trkpt>
      <trkpt lat="44.56653" lon="6.15699">
        <ele>882.40002441406</ele>
        <time>2016-07-15T14:28:52.000Z</time>
      </trkpt>
      <trkpt lat="44.56642" lon="6.15724">
        <ele>883</ele>
        <time>2016-07-15T14:29:07.000Z</time>
      </trkpt>
      <trkpt lat="44.56641" lon="6.15726">
        <ele>883</ele>
        <time>2016-07-15T14:29:08.000Z</time>
      </trkpt>
      <trkpt lat="44.56634" lon="6.15746">
        <ele>883.79998779297</ele>
        <time>2016-07-15T14:29:20.000Z</time>
      </trkpt>
      <trkpt lat="44.5663" lon="6.15762">
        <ele>883.59997558594</ele>
        <time>2016-07-15T14:29:29.000Z</time>
      </trkpt>
      <trkpt lat="44.56628" lon="6.15775">
        <ele>883.40002441406</ele>
        <time>2016-07-15T14:29:36.000Z</time>
      </trkpt>
      <trkpt lat="44.56626" lon="6.15788">
        <ele>883.40002441406</ele>
        <time>2016-07-15T14:29:43.000Z</time>
      </trkpt>
      <trkpt lat="44.56625" lon="6.15799">
        <ele>883.40002441406</ele>
        <time>2016-07-15T14:29:49.000Z</time>
      </trkpt>
      <trkpt lat="44.56623" lon="6.15821">
        <ele>883.40002441406</ele>
        <time>2016-07-15T14:30:00.000Z</time>
      </trkpt>
      <trkpt lat="44.56619" lon="6.15843">
        <ele>883.40002441406</ele>
        <time>2016-07-15T14:30:11.000Z</time>
      </trkpt>
      <trkpt lat="44.56614" lon="6.15864">
        <ele>883.79998779297</ele>
        <time>2016-07-15T14:30:22.000Z</time>
      </trkpt>
      <trkpt lat="44.56611" lon="6.15872">
        <ele>884.20001220703</ele>
        <time>2016-07-15T14:30:27.000Z</time>
      </trkpt>
      <trkpt lat="44.5661" lon="6.15881">
        <ele>884.40002441406</ele>
        <time>2016-07-15T14:30:34.000Z</time>
      </trkpt>
      <trkpt lat="44.56606" lon="6.15905">
        <ele>885.20001220703</ele>
        <time>2016-07-15T14:30:46.000Z</time>
      </trkpt>
      <trkpt lat="44.56601" lon="6.15924">
        <ele>886</ele>
        <time>2016-07-15T14:30:56.000Z</time>
      </trkpt>
      <trkpt lat="44.56599" lon="6.15944">
        <ele>886.79998779297</ele>
        <time>2016-07-15T14:31:06.000Z</time>
      </trkpt>
      <trkpt lat="44.56596" lon="6.15964">
        <ele>887.40002441406</ele>
        <time>2016-07-15T14:31:16.000Z</time>
      </trkpt>
      <trkpt lat="44.56595" lon="6.15987">
        <ele>887.40002441406</ele>
        <time>2016-07-15T14:31:27.000Z</time>
      </trkpt>
      <trkpt lat="44.56594" lon="6.16007">
        <ele>887.79998779297</ele>
        <time>2016-07-15T14:31:37.000Z</time>
      </trkpt>
      <trkpt lat="44.56593" lon="6.16012">
        <ele>887.79998779297</ele>
        <time>2016-07-15T14:31:43.000Z</time>
      </trkpt>
      <trkpt lat="44.56593" lon="6.16019">
        <ele>888</ele>
        <time>2016-07-15T14:31:47.000Z</time>
      </trkpt>
      <trkpt lat="44.56591" lon="6.1603">
        <ele>888.20001220703</ele>
        <time>2016-07-15T14:31:54.000Z</time>
      </trkpt>
      <trkpt lat="44.56589" lon="6.16046">
        <ele>889</ele>
        <time>2016-07-15T14:32:02.000Z</time>
      </trkpt>
      <trkpt lat="44.56587" lon="6.16056">
        <ele>889.40002441406</ele>
        <time>2016-07-15T14:32:07.000Z</time>
      </trkpt>
      <trkpt lat="44.56586" lon="6.16064">
        <ele>889.59997558594</ele>
        <time>2016-07-15T14:32:12.000Z</time>
      </trkpt>
      <trkpt lat="44.56584" lon="6.16068">
        <ele>889.59997558594</ele>
        <time>2016-07-15T14:32:18.000Z</time>
      </trkpt>
      <trkpt lat="44.56583" lon="6.16075">
        <ele>889.40002441406</ele>
        <time>2016-07-15T14:32:24.000Z</time>
      </trkpt>
      <trkpt lat="44.56576" lon="6.16095">
        <ele>889.20001220703</ele>
        <time>2016-07-15T14:32:35.000Z</time>
      </trkpt>
      <trkpt lat="44.56569" lon="6.1611">
        <ele>889.20001220703</ele>
        <time>2016-07-15T14:32:44.000Z</time>
      </trkpt>
      <trkpt lat="44.5656" lon="6.16131">
        <ele>888.79998779297</ele>
        <time>2016-07-15T14:32:56.000Z</time>
      </trkpt>
      <trkpt lat="44.56558" lon="6.16135">
        <ele>888.79998779297</ele>
        <time>2016-07-15T14:33:00.000Z</time>
      </trkpt>
      <trkpt lat="44.56558" lon="6.16134">
        <ele>888.79998779297</ele>
        <time>2016-07-15T14:33:07.000Z</time>
      </trkpt>
      <trkpt lat="44.56558" lon="6.16133">
        <ele>888.79998779297</ele>
        <time>2016-07-15T14:33:09.000Z</time>
      </trkpt>
      <trkpt lat="44.56567" lon="6.16134">
        <ele>888.20001220703</ele>
        <time>2016-07-15T14:33:17.000Z</time>
      </trkpt>
      <trkpt lat="44.56575" lon="6.16137">
        <ele>887.40002441406</ele>
        <time>2016-07-15T14:33:25.000Z</time>
      </trkpt>
      <trkpt lat="44.56577" lon="6.16139">
        <ele>887.20001220703</ele>
        <time>2016-07-15T14:33:27.000Z</time>
      </trkpt>
      <trkpt lat="44.56584" lon="6.16138">
        <ele>886.79998779297</ele>
        <time>2016-07-15T14:33:34.000Z</time>
      </trkpt>
      <trkpt lat="44.56593" lon="6.16139">
        <ele>886</ele>
        <time>2016-07-15T14:33:42.000Z</time>
      </trkpt>
      <trkpt lat="44.56598" lon="6.16138">
        <ele>885.59997558594</ele>
        <time>2016-07-15T14:33:49.000Z</time>
      </trkpt>
      <trkpt lat="44.56592" lon="6.16138">
        <ele>886.20001220703</ele>
        <time>2016-07-15T14:34:13.000Z</time>
      </trkpt>
      <trkpt lat="44.56585" lon="6.16138">
        <ele>886.59997558594</ele>
        <time>2016-07-15T14:34:20.000Z</time>
      </trkpt>
      <trkpt lat="44.56576" lon="6.16136">
        <ele>887.40002441406</ele>
        <time>2016-07-15T14:34:28.000Z</time>
      </trkpt>
      <trkpt lat="44.56569" lon="6.16134">
        <ele>888</ele>
        <time>2016-07-15T14:34:35.000Z</time>
      </trkpt>
      <trkpt lat="44.5656" lon="6.16134">
        <ele>888.59997558594</ele>
        <time>2016-07-15T14:34:42.000Z</time>
      </trkpt>
      <trkpt lat="44.56548" lon="6.16141">
        <ele>889.20001220703</ele>
        <time>2016-07-15T14:34:52.000Z</time>
      </trkpt>
      <trkpt lat="44.5654" lon="6.16149">
        <ele>889.40002441406</ele>
        <time>2016-07-15T14:35:00.000Z</time>
      </trkpt>
      <trkpt lat="44.56532" lon="6.16157">
        <ele>889.20001220703</ele>
        <time>2016-07-15T14:35:09.000Z</time>
      </trkpt>
      <trkpt lat="44.56523" lon="6.1617">
        <ele>889.40002441406</ele>
        <time>2016-07-15T14:35:19.000Z</time>
      </trkpt>
      <trkpt lat="44.56515" lon="6.1618">
        <ele>889.59997558594</ele>
        <time>2016-07-15T14:35:27.000Z</time>
      </trkpt>
      <trkpt lat="44.56507" lon="6.16191">
        <ele>889.79998779297</ele>
        <time>2016-07-15T14:35:37.000Z</time>
      </trkpt>
      <trkpt lat="44.56502" lon="6.16197">
        <ele>889.79998779297</ele>
        <time>2016-07-15T14:35:43.000Z</time>
      </trkpt>
      <trkpt lat="44.56495" lon="6.16208">
        <ele>889.59997558594</ele>
        <time>2016-07-15T14:35:51.000Z</time>
      </trkpt>
      <trkpt lat="44.56494" lon="6.16212">
        <ele>889.40002441406</ele>
        <time>2016-07-15T14:35:53.000Z</time>
      </trkpt>
      <trkpt lat="44.56484" lon="6.16228">
        <ele>889</ele>
        <time>2016-07-15T14:36:03.000Z</time>
      </trkpt>
      <trkpt lat="44.56479" lon="6.16236">
        <ele>889</ele>
        <time>2016-07-15T14:36:10.000Z</time>
      </trkpt>
      <trkpt lat="44.5647" lon="6.16247">
        <ele>889</ele>
        <time>2016-07-15T14:36:19.000Z</time>
      </trkpt>
      <trkpt lat="44.56465" lon="6.16258">
        <ele>889</ele>
        <time>2016-07-15T14:36:26.000Z</time>
      </trkpt>
      <trkpt lat="44.56463" lon="6.16265">
        <ele>888.79998779297</ele>
        <time>2016-07-15T14:36:29.000Z</time>
      </trkpt>
      <trkpt lat="44.56457" lon="6.16283">
        <ele>888.20001220703</ele>
        <time>2016-07-15T14:36:39.000Z</time>
      </trkpt>
      <trkpt lat="44.5645" lon="6.16293">
        <ele>888.40002441406</ele>
        <time>2016-07-15T14:36:46.000Z</time>
      </trkpt>
      <trkpt lat="44.56439" lon="6.16314">
        <ele>888</ele>
        <time>2016-07-15T14:36:57.000Z</time>
      </trkpt>
      <trkpt lat="44.56431" lon="6.16325">
        <ele>888</ele>
        <time>2016-07-15T14:37:06.000Z</time>
      </trkpt>
      <trkpt lat="44.56427" lon="6.16334">
        <ele>888</ele>
        <time>2016-07-15T14:37:11.000Z</time>
      </trkpt>
      <trkpt lat="44.56419" lon="6.16351">
        <ele>887.79998779297</ele>
        <time>2016-07-15T14:37:21.000Z</time>
      </trkpt>
      <trkpt lat="44.56418" lon="6.16353">
        <ele>887.59997558594</ele>
        <time>2016-07-15T14:37:22.000Z</time>
      </trkpt>
      <trkpt lat="44.56411" lon="6.16366">
        <ele>888</ele>
        <time>2016-07-15T14:37:30.000Z</time>
      </trkpt>
      <trkpt lat="44.56405" lon="6.16381">
        <ele>888.79998779297</ele>
        <time>2016-07-15T14:37:38.000Z</time>
      </trkpt>
      <trkpt lat="44.564" lon="6.16396">
        <ele>889.40002441406</ele>
        <time>2016-07-15T14:37:45.000Z</time>
      </trkpt>
      <trkpt lat="44.56399" lon="6.16399">
        <ele>889.79998779297</ele>
        <time>2016-07-15T14:37:47.000Z</time>
      </trkpt>
      <trkpt lat="44.56395" lon="6.16415">
        <ele>890.79998779297</ele>
        <time>2016-07-15T14:37:56.000Z</time>
      </trkpt>
      <trkpt lat="44.56395" lon="6.1643">
        <ele>891.20001220703</ele>
        <time>2016-07-15T14:38:03.000Z</time>
      </trkpt>
      <trkpt lat="44.56398" lon="6.16443">
        <ele>891</ele>
        <time>2016-07-15T14:38:12.000Z</time>
      </trkpt>
      <trkpt lat="44.56399" lon="6.1645">
        <ele>891</ele>
        <time>2016-07-15T14:38:16.000Z</time>
      </trkpt>
      <trkpt lat="44.56402" lon="6.16468">
        <ele>890.79998779297</ele>
        <time>2016-07-15T14:38:26.000Z</time>
      </trkpt>
      <trkpt lat="44.56402" lon="6.16471">
        <ele>890.79998779297</ele>
        <time>2016-07-15T14:38:27.000Z</time>
      </trkpt>
      <trkpt lat="44.56403" lon="6.16483">
        <ele>890.79998779297</ele>
        <time>2016-07-15T14:38:33.000Z</time>
      </trkpt>
      <trkpt lat="44.56403" lon="6.16493">
        <ele>891</ele>
        <time>2016-07-15T14:38:39.000Z</time>
      </trkpt>
      <trkpt lat="44.564" lon="6.16501">
        <ele>891.40002441406</ele>
        <time>2016-07-15T14:38:43.000Z</time>
      </trkpt>
      <trkpt lat="44.564" lon="6.16506">
        <ele>891.40002441406</ele>
        <time>2016-07-15T14:38:45.000Z</time>
      </trkpt>
      <trkpt lat="44.56399" lon="6.16516">
        <ele>891.59997558594</ele>
        <time>2016-07-15T14:38:50.000Z</time>
      </trkpt>
      <trkpt lat="44.56399" lon="6.16518">
        <ele>891.59997558594</ele>
        <time>2016-07-15T14:38:51.000Z</time>
      </trkpt>
      <trkpt lat="44.56398" lon="6.1652">
        <ele>891.59997558594</ele>
        <time>2016-07-15T14:38:52.000Z</time>
      </trkpt>
      <trkpt lat="44.56394" lon="6.16544">
        <ele>892.20001220703</ele>
        <time>2016-07-15T14:39:05.000Z</time>
      </trkpt>
      <trkpt lat="44.56393" lon="6.16558">
        <ele>892.20001220703</ele>
        <time>2016-07-15T14:39:12.000Z</time>
      </trkpt>
      <trkpt lat="44.56393" lon="6.1656">
        <ele>892.40002441406</ele>
        <time>2016-07-15T14:39:13.000Z</time>
      </trkpt>
      <trkpt lat="44.56391" lon="6.16572">
        <ele>892.79998779297</ele>
        <time>2016-07-15T14:39:20.000Z</time>
      </trkpt>
      <trkpt lat="44.56391" lon="6.16575">
        <ele>892.79998779297</ele>
        <time>2016-07-15T14:39:21.000Z</time>
      </trkpt>
      <trkpt lat="44.56389" lon="6.16582">
        <ele>893.20001220703</ele>
        <time>2016-07-15T14:39:25.000Z</time>
      </trkpt>
      <trkpt lat="44.56387" lon="6.16597">
        <ele>893.20001220703</ele>
        <time>2016-07-15T14:39:33.000Z</time>
      </trkpt>
      <trkpt lat="44.56386" lon="6.16609">
        <ele>893</ele>
        <time>2016-07-15T14:39:39.000Z</time>
      </trkpt>
      <trkpt lat="44.56386" lon="6.16624">
        <ele>893</ele>
        <time>2016-07-15T14:39:47.000Z</time>
      </trkpt>
      <trkpt lat="44.56383" lon="6.16639">
        <ele>893</ele>
        <time>2016-07-15T14:39:56.000Z</time>
      </trkpt>
      <trkpt lat="44.56379" lon="6.16657">
        <ele>893</ele>
        <time>2016-07-15T14:40:05.000Z</time>
      </trkpt>
      <trkpt lat="44.56377" lon="6.1667">
        <ele>893</ele>
        <time>2016-07-15T14:40:13.000Z</time>
      </trkpt>
      <trkpt lat="44.56374" lon="6.16688">
        <ele>893</ele>
        <time>2016-07-15T14:40:21.000Z</time>
      </trkpt>
      <trkpt lat="44.56372" lon="6.16706">
        <ele>893</ele>
        <time>2016-07-15T14:40:29.000Z</time>
      </trkpt>
      <trkpt lat="44.5637" lon="6.16725">
        <ele>892.79998779297</ele>
        <time>2016-07-15T14:40:38.000Z</time>
      </trkpt>
      <trkpt lat="44.56367" lon="6.16739">
        <ele>893</ele>
        <time>2016-07-15T14:40:45.000Z</time>
      </trkpt>
      <trkpt lat="44.56361" lon="6.16758">
        <ele>892.79998779297</ele>
        <time>2016-07-15T14:40:56.000Z</time>
      </trkpt>
      <trkpt lat="44.56356" lon="6.16778">
        <ele>892.79998779297</ele>
        <time>2016-07-15T14:41:06.000Z</time>
      </trkpt>
      <trkpt lat="44.56353" lon="6.16793">
        <ele>892.79998779297</ele>
        <time>2016-07-15T14:41:14.000Z</time>
      </trkpt>
      <trkpt lat="44.5635" lon="6.16814">
        <ele>892.40002441406</ele>
        <time>2016-07-15T14:41:23.000Z</time>
      </trkpt>
      <trkpt lat="44.56346" lon="6.16834">
        <ele>892.79998779297</ele>
        <time>2016-07-15T14:41:33.000Z</time>
      </trkpt>
      <trkpt lat="44.56345" lon="6.16849">
        <ele>893</ele>
        <time>2016-07-15T14:41:40.000Z</time>
      </trkpt>
      <trkpt lat="44.56346" lon="6.16863">
        <ele>893.20001220703</ele>
        <time>2016-07-15T14:41:47.000Z</time>
      </trkpt>
      <trkpt lat="44.56347" lon="6.16865">
        <ele>893.20001220703</ele>
        <time>2016-07-15T14:41:48.000Z</time>
      </trkpt>
      <trkpt lat="44.56348" lon="6.16877">
        <ele>893.20001220703</ele>
        <time>2016-07-15T14:41:55.000Z</time>
      </trkpt>
      <trkpt lat="44.5635" lon="6.16896">
        <ele>893.40002441406</ele>
        <time>2016-07-15T14:42:04.000Z</time>
      </trkpt>
      <trkpt lat="44.5635" lon="6.16914">
        <ele>893.40002441406</ele>
        <time>2016-07-15T14:42:13.000Z</time>
      </trkpt>
      <trkpt lat="44.56348" lon="6.16933">
        <ele>893.40002441406</ele>
        <time>2016-07-15T14:42:22.000Z</time>
      </trkpt>
      <trkpt lat="44.56347" lon="6.16947">
        <ele>893.40002441406</ele>
        <time>2016-07-15T14:42:29.000Z</time>
      </trkpt>
      <trkpt lat="44.56344" lon="6.16969">
        <ele>893.20001220703</ele>
        <time>2016-07-15T14:42:40.000Z</time>
      </trkpt>
      <trkpt lat="44.56343" lon="6.1699">
        <ele>893.40002441406</ele>
        <time>2016-07-15T14:42:50.000Z</time>
      </trkpt>
      <trkpt lat="44.56342" lon="6.17013">
        <ele>894.20001220703</ele>
        <time>2016-07-15T14:43:02.000Z</time>
      </trkpt>
      <trkpt lat="44.5634" lon="6.17025">
        <ele>894.59997558594</ele>
        <time>2016-07-15T14:43:08.000Z</time>
      </trkpt>
      <trkpt lat="44.56335" lon="6.1704">
        <ele>894.79998779297</ele>
        <time>2016-07-15T14:43:16.000Z</time>
      </trkpt>
      <trkpt lat="44.56331" lon="6.17048">
        <ele>894.59997558594</ele>
        <time>2016-07-15T14:43:21.000Z</time>
      </trkpt>
      <trkpt lat="44.56329" lon="6.17055">
        <ele>894.59997558594</ele>
        <time>2016-07-15T14:43:26.000Z</time>
      </trkpt>
      <trkpt lat="44.56322" lon="6.17066">
        <ele>895</ele>
        <time>2016-07-15T14:43:34.000Z</time>
      </trkpt>
      <trkpt lat="44.56319" lon="6.17076">
        <ele>896.20001220703</ele>
        <time>2016-07-15T14:43:39.000Z</time>
      </trkpt>
      <trkpt lat="44.56313" lon="6.17087">
        <ele>897.40002441406</ele>
        <time>2016-07-15T14:43:47.000Z</time>
      </trkpt>
      <trkpt lat="44.56308" lon="6.17099">
        <ele>897.59997558594</ele>
        <time>2016-07-15T14:43:55.000Z</time>
      </trkpt>
      <trkpt lat="44.56301" lon="6.17116">
        <ele>897.59997558594</ele>
        <time>2016-07-15T14:44:05.000Z</time>
      </trkpt>
      <trkpt lat="44.56296" lon="6.17137">
        <ele>898</ele>
        <time>2016-07-15T14:44:16.000Z</time>
      </trkpt>
      <trkpt lat="44.56294" lon="6.17152">
        <ele>898.20001220703</ele>
        <time>2016-07-15T14:44:24.000Z</time>
      </trkpt>
      <trkpt lat="44.56295" lon="6.17178">
        <ele>898.59997558594</ele>
        <time>2016-07-15T14:44:37.000Z</time>
      </trkpt>
      <trkpt lat="44.56298" lon="6.1719">
        <ele>899.20001220703</ele>
        <time>2016-07-15T14:44:44.000Z</time>
      </trkpt>
      <trkpt lat="44.56302" lon="6.17207">
        <ele>899.79998779297</ele>
        <time>2016-07-15T14:44:53.000Z</time>
      </trkpt>
      <trkpt lat="44.56308" lon="6.17227">
        <ele>900.79998779297</ele>
        <time>2016-07-15T14:45:04.000Z</time>
      </trkpt>
      <trkpt lat="44.56314" lon="6.17245">
        <ele>900.79998779297</ele>
        <time>2016-07-15T14:45:13.000Z</time>
      </trkpt>
      <trkpt lat="44.56319" lon="6.17263">
        <ele>900.59997558594</ele>
        <time>2016-07-15T14:45:22.000Z</time>
      </trkpt>
      <trkpt lat="44.56321" lon="6.17269">
        <ele>900.59997558594</ele>
        <time>2016-07-15T14:45:28.000Z</time>
      </trkpt>
      <trkpt lat="44.56324" lon="6.17274">
        <ele>900.79998779297</ele>
        <time>2016-07-15T14:45:32.000Z</time>
      </trkpt>
      <trkpt lat="44.56331" lon="6.17295">
        <ele>901.40002441406</ele>
        <time>2016-07-15T14:45:42.000Z</time>
      </trkpt>
      <trkpt lat="44.56337" lon="6.17314">
        <ele>901.79998779297</ele>
        <time>2016-07-15T14:45:51.000Z</time>
      </trkpt>
      <trkpt lat="44.56342" lon="6.17325">
        <ele>902</ele>
        <time>2016-07-15T14:45:57.000Z</time>
      </trkpt>
      <trkpt lat="44.56349" lon="6.1734">
        <ele>902.40002441406</ele>
        <time>2016-07-15T14:46:04.000Z</time>
      </trkpt>
      <trkpt lat="44.56357" lon="6.17355">
        <ele>902.79998779297</ele>
        <time>2016-07-15T14:46:11.000Z</time>
      </trkpt>
      <trkpt lat="44.56364" lon="6.17365">
        <ele>903.20001220703</ele>
        <time>2016-07-15T14:46:17.000Z</time>
      </trkpt>
      <trkpt lat="44.56373" lon="6.17377">
        <ele>903.79998779297</ele>
        <time>2016-07-15T14:46:25.000Z</time>
      </trkpt>
      <trkpt lat="44.56377" lon="6.17389">
        <ele>904</ele>
        <time>2016-07-15T14:46:31.000Z</time>
      </trkpt>
      <trkpt lat="44.56381" lon="6.17404">
        <ele>904.40002441406</ele>
        <time>2016-07-15T14:46:39.000Z</time>
      </trkpt>
      <trkpt lat="44.56386" lon="6.17422">
        <ele>904.79998779297</ele>
        <time>2016-07-15T14:46:47.000Z</time>
      </trkpt>
      <trkpt lat="44.56389" lon="6.1744">
        <ele>905.40002441406</ele>
        <time>2016-07-15T14:46:55.000Z</time>
      </trkpt>
      <trkpt lat="44.56393" lon="6.17466">
        <ele>906</ele>
        <time>2016-07-15T14:47:07.000Z</time>
      </trkpt>
      <trkpt lat="44.56395" lon="6.17487">
        <ele>906.40002441406</ele>
        <time>2016-07-15T14:47:17.000Z</time>
      </trkpt>
      <trkpt lat="44.56397" lon="6.17505">
        <ele>906.79998779297</ele>
        <time>2016-07-15T14:47:25.000Z</time>
      </trkpt>
      <trkpt lat="44.56399" lon="6.17519">
        <ele>906.59997558594</ele>
        <time>2016-07-15T14:47:30.000Z</time>
      </trkpt>
      <trkpt lat="44.564" lon="6.17538">
        <ele>905.79998779297</ele>
        <time>2016-07-15T14:47:35.000Z</time>
      </trkpt>
      <trkpt lat="44.56402" lon="6.17558">
        <ele>905</ele>
        <time>2016-07-15T14:47:40.000Z</time>
      </trkpt>
      <trkpt lat="44.56405" lon="6.1759">
        <ele>905.79998779297</ele>
        <time>2016-07-15T14:47:48.000Z</time>
      </trkpt>
      <trkpt lat="44.56408" lon="6.17617">
        <ele>906.40002441406</ele>
        <time>2016-07-15T14:47:55.000Z</time>
      </trkpt>
      <trkpt lat="44.56412" lon="6.17642">
        <ele>907.40002441406</ele>
        <time>2016-07-15T14:48:01.000Z</time>
      </trkpt>
      <trkpt lat="44.56415" lon="6.17662">
        <ele>907.20001220703</ele>
        <time>2016-07-15T14:48:07.000Z</time>
      </trkpt>
      <trkpt lat="44.56415" lon="6.17665">
        <ele>907</ele>
        <time>2016-07-15T14:48:08.000Z</time>
      </trkpt>
      <trkpt lat="44.56416" lon="6.17676">
        <ele>906.79998779297</ele>
        <time>2016-07-15T14:48:11.000Z</time>
      </trkpt>
      <trkpt lat="44.5642" lon="6.17699">
        <ele>906.59997558594</ele>
        <time>2016-07-15T14:48:19.000Z</time>
      </trkpt>
      <trkpt lat="44.56422" lon="6.17709">
        <ele>906.79998779297</ele>
        <time>2016-07-15T14:48:25.000Z</time>
      </trkpt>
      <trkpt lat="44.56423" lon="6.17721">
        <ele>906.79998779297</ele>
        <time>2016-07-15T14:48:32.000Z</time>
      </trkpt>
      <trkpt lat="44.56425" lon="6.17734">
        <ele>906.40002441406</ele>
        <time>2016-07-15T14:48:39.000Z</time>
      </trkpt>
      <trkpt lat="44.56428" lon="6.1775">
        <ele>905.79998779297</ele>
        <time>2016-07-15T14:48:48.000Z</time>
      </trkpt>
      <trkpt lat="44.56433" lon="6.17779">
        <ele>904.20001220703</ele>
        <time>2016-07-15T14:49:04.000Z</time>
      </trkpt>
      <trkpt lat="44.56436" lon="6.17796">
        <ele>903.20001220703</ele>
        <time>2016-07-15T14:49:13.000Z</time>
      </trkpt>
      <trkpt lat="44.56438" lon="6.17811">
        <ele>903.40002441406</ele>
        <time>2016-07-15T14:49:20.000Z</time>
      </trkpt>
      <trkpt lat="44.56443" lon="6.17832">
        <ele>902.40002441406</ele>
        <time>2016-07-15T14:49:30.000Z</time>
      </trkpt>
      <trkpt lat="44.56451" lon="6.17852">
        <ele>901.59997558594</ele>
        <time>2016-07-15T14:49:41.000Z</time>
      </trkpt>
      <trkpt lat="44.5646" lon="6.17875">
        <ele>901.40002441406</ele>
        <time>2016-07-15T14:49:53.000Z</time>
      </trkpt>
      <trkpt lat="44.56468" lon="6.17897">
        <ele>901.20001220703</ele>
        <time>2016-07-15T14:50:05.000Z</time>
      </trkpt>
      <trkpt lat="44.56472" lon="6.17915">
        <ele>900.20001220703</ele>
        <time>2016-07-15T14:50:14.000Z</time>
      </trkpt>
      <trkpt lat="44.56473" lon="6.17936">
        <ele>900</ele>
        <time>2016-07-15T14:50:24.000Z</time>
      </trkpt>
      <trkpt lat="44.56475" lon="6.17956">
        <ele>900</ele>
        <time>2016-07-15T14:50:35.000Z</time>
      </trkpt>
      <trkpt lat="44.56479" lon="6.17979">
        <ele>900</ele>
        <time>2016-07-15T14:50:47.000Z</time>
      </trkpt>
      <trkpt lat="44.56482" lon="6.17999">
        <ele>900.20001220703</ele>
        <time>2016-07-15T14:50:58.000Z</time>
      </trkpt>
      <trkpt lat="44.56486" lon="6.18017">
        <ele>900.59997558594</ele>
        <time>2016-07-15T14:51:08.000Z</time>
      </trkpt>
      <trkpt lat="44.56489" lon="6.18034">
        <ele>901</ele>
        <time>2016-07-15T14:51:17.000Z</time>
      </trkpt>
      <trkpt lat="44.56491" lon="6.18047">
        <ele>901.20001220703</ele>
        <time>2016-07-15T14:51:24.000Z</time>
      </trkpt>
      <trkpt lat="44.56495" lon="6.18059">
        <ele>901.59997558594</ele>
        <time>2016-07-15T14:51:31.000Z</time>
      </trkpt>
      <trkpt lat="44.56496" lon="6.18065">
        <ele>901.79998779297</ele>
        <time>2016-07-15T14:51:34.000Z</time>
      </trkpt>
      <trkpt lat="44.56497" lon="6.18067">
        <ele>901.79998779297</ele>
        <time>2016-07-15T14:51:41.000Z</time>
      </trkpt>
      <trkpt lat="44.56497" lon="6.18076">
        <ele>902.20001220703</ele>
        <time>2016-07-15T14:51:46.000Z</time>
      </trkpt>
      <trkpt lat="44.565" lon="6.18106">
        <ele>903</ele>
        <time>2016-07-15T14:52:01.000Z</time>
      </trkpt>
      <trkpt lat="44.56501" lon="6.18119">
        <ele>903.40002441406</ele>
        <time>2016-07-15T14:52:08.000Z</time>
      </trkpt>
      <trkpt lat="44.56502" lon="6.1813">
        <ele>904</ele>
        <time>2016-07-15T14:52:14.000Z</time>
      </trkpt>
      <trkpt lat="44.56503" lon="6.18143">
        <ele>904.40002441406</ele>
        <time>2016-07-15T14:52:21.000Z</time>
      </trkpt>
      <trkpt lat="44.56506" lon="6.18157">
        <ele>905</ele>
        <time>2016-07-15T14:52:28.000Z</time>
      </trkpt>
      <trkpt lat="44.56512" lon="6.18171">
        <ele>905.79998779297</ele>
        <time>2016-07-15T14:52:36.000Z</time>
      </trkpt>
      <trkpt lat="44.56515" lon="6.18185">
        <ele>906.59997558594</ele>
        <time>2016-07-15T14:52:43.000Z</time>
      </trkpt>
      <trkpt lat="44.56518" lon="6.18194">
        <ele>907</ele>
        <time>2016-07-15T14:52:49.000Z</time>
      </trkpt>
      <trkpt lat="44.56524" lon="6.18209">
        <ele>907.79998779297</ele>
        <time>2016-07-15T14:52:57.000Z</time>
      </trkpt>
      <trkpt lat="44.56524" lon="6.18212">
        <ele>908</ele>
        <time>2016-07-15T14:52:59.000Z</time>
      </trkpt>
      <trkpt lat="44.56525" lon="6.18215">
        <ele>908.20001220703</ele>
        <time>2016-07-15T14:53:00.000Z</time>
      </trkpt>
      <trkpt lat="44.56529" lon="6.18225">
        <ele>908.59997558594</ele>
        <time>2016-07-15T14:53:06.000Z</time>
      </trkpt>
      <trkpt lat="44.56532" lon="6.18234">
        <ele>908.59997558594</ele>
        <time>2016-07-15T14:53:11.000Z</time>
      </trkpt>
      <trkpt lat="44.56532" lon="6.18239">
        <ele>908.40002441406</ele>
        <time>2016-07-15T14:53:15.000Z</time>
      </trkpt>
      <trkpt lat="44.56534" lon="6.18246">
        <ele>908.40002441406</ele>
        <time>2016-07-15T14:53:19.000Z</time>
      </trkpt>
      <trkpt lat="44.56536" lon="6.18254">
        <ele>907.59997558594</ele>
        <time>2016-07-15T14:53:24.000Z</time>
      </trkpt>
      <trkpt lat="44.56538" lon="6.18263">
        <ele>907</ele>
        <time>2016-07-15T14:53:29.000Z</time>
      </trkpt>
      <trkpt lat="44.56542" lon="6.18275">
        <ele>905.59997558594</ele>
        <time>2016-07-15T14:53:35.000Z</time>
      </trkpt>
      <trkpt lat="44.56544" lon="6.18284">
        <ele>904.79998779297</ele>
        <time>2016-07-15T14:53:40.000Z</time>
      </trkpt>
      <trkpt lat="44.56545" lon="6.18286">
        <ele>904.59997558594</ele>
        <time>2016-07-15T14:53:41.000Z</time>
      </trkpt>
      <trkpt lat="44.56546" lon="6.1829">
        <ele>904.20001220703</ele>
        <time>2016-07-15T14:53:43.000Z</time>
      </trkpt>
      <trkpt lat="44.56552" lon="6.18305">
        <ele>902.20001220703</ele>
        <time>2016-07-15T14:53:51.000Z</time>
      </trkpt>
      <trkpt lat="44.56557" lon="6.18327">
        <ele>900.79998779297</ele>
        <time>2016-07-15T14:54:02.000Z</time>
      </trkpt>
      <trkpt lat="44.56559" lon="6.18343">
        <ele>899.79998779297</ele>
        <time>2016-07-15T14:54:10.000Z</time>
      </trkpt>
      <trkpt lat="44.56561" lon="6.18356">
        <ele>898.79998779297</ele>
        <time>2016-07-15T14:54:17.000Z</time>
      </trkpt>
      <trkpt lat="44.56566" lon="6.18378">
        <ele>896.79998779297</ele>
        <time>2016-07-15T14:54:28.000Z</time>
      </trkpt>
      <trkpt lat="44.56571" lon="6.18394">
        <ele>895</ele>
        <time>2016-07-15T14:54:37.000Z</time>
      </trkpt>
      <trkpt lat="44.56576" lon="6.18411">
        <ele>894.59997558594</ele>
        <time>2016-07-15T14:54:46.000Z</time>
      </trkpt>
      <trkpt lat="44.56581" lon="6.18427">
        <ele>894.20001220703</ele>
        <time>2016-07-15T14:54:55.000Z</time>
      </trkpt>
      <trkpt lat="44.56587" lon="6.18443">
        <ele>893.79998779297</ele>
        <time>2016-07-15T14:55:04.000Z</time>
      </trkpt>
      <trkpt lat="44.56589" lon="6.18459">
        <ele>893.59997558594</ele>
        <time>2016-07-15T14:55:12.000Z</time>
      </trkpt>
      <trkpt lat="44.56592" lon="6.18475">
        <ele>893.20001220703</ele>
        <time>2016-07-15T14:55:20.000Z</time>
      </trkpt>
      <trkpt lat="44.56594" lon="6.18493">
        <ele>892.79998779297</ele>
        <time>2016-07-15T14:55:29.000Z</time>
      </trkpt>
      <trkpt lat="44.56595" lon="6.18501">
        <ele>892.59997558594</ele>
        <time>2016-07-15T14:55:33.000Z</time>
      </trkpt>
      <trkpt lat="44.56595" lon="6.18522">
        <ele>892.40002441406</ele>
        <time>2016-07-15T14:55:43.000Z</time>
      </trkpt>
      <trkpt lat="44.56594" lon="6.18543">
        <ele>892.40002441406</ele>
        <time>2016-07-15T14:55:53.000Z</time>
      </trkpt>
      <trkpt lat="44.56593" lon="6.18568">
        <ele>892</ele>
        <time>2016-07-15T14:56:05.000Z</time>
      </trkpt>
      <trkpt lat="44.56591" lon="6.18587">
        <ele>890</ele>
        <time>2016-07-15T14:56:14.000Z</time>
      </trkpt>
      <trkpt lat="44.56588" lon="6.18606">
        <ele>888.40002441406</ele>
        <time>2016-07-15T14:56:24.000Z</time>
      </trkpt>
      <trkpt lat="44.56586" lon="6.1862">
        <ele>887.59997558594</ele>
        <time>2016-07-15T14:56:31.000Z</time>
      </trkpt>
      <trkpt lat="44.56583" lon="6.18633">
        <ele>888</ele>
        <time>2016-07-15T14:56:38.000Z</time>
      </trkpt>
      <trkpt lat="44.56581" lon="6.18648">
        <ele>888.20001220703</ele>
        <time>2016-07-15T14:56:46.000Z</time>
      </trkpt>
      <trkpt lat="44.56578" lon="6.18665">
        <ele>888.79998779297</ele>
        <time>2016-07-15T14:56:55.000Z</time>
      </trkpt>
      <trkpt lat="44.56576" lon="6.18681">
        <ele>889.20001220703</ele>
        <time>2016-07-15T14:57:03.000Z</time>
      </trkpt>
      <trkpt lat="44.56577" lon="6.18701">
        <ele>888.20001220703</ele>
        <time>2016-07-15T14:57:13.000Z</time>
      </trkpt>
      <trkpt lat="44.5658" lon="6.18723">
        <ele>886.79998779297</ele>
        <time>2016-07-15T14:57:24.000Z</time>
      </trkpt>
      <trkpt lat="44.56584" lon="6.18742">
        <ele>885.20001220703</ele>
        <time>2016-07-15T14:57:34.000Z</time>
      </trkpt>
      <trkpt lat="44.56589" lon="6.18758">
        <ele>883.59997558594</ele>
        <time>2016-07-15T14:57:43.000Z</time>
      </trkpt>
      <trkpt lat="44.56592" lon="6.18771">
        <ele>882.40002441406</ele>
        <time>2016-07-15T14:57:50.000Z</time>
      </trkpt>
      <trkpt lat="44.56594" lon="6.18787">
        <ele>881.59997558594</ele>
        <time>2016-07-15T14:57:58.000Z</time>
      </trkpt>
      <trkpt lat="44.56593" lon="6.18801">
        <ele>881.40002441406</ele>
        <time>2016-07-15T14:58:05.000Z</time>
      </trkpt>
      <trkpt lat="44.5659" lon="6.18814">
        <ele>881.40002441406</ele>
        <time>2016-07-15T14:58:12.000Z</time>
      </trkpt>
      <trkpt lat="44.56584" lon="6.18834">
        <ele>881.20001220703</ele>
        <time>2016-07-15T14:58:23.000Z</time>
      </trkpt>
      <trkpt lat="44.56579" lon="6.18848">
        <ele>881.20001220703</ele>
        <time>2016-07-15T14:58:31.000Z</time>
      </trkpt>
      <trkpt lat="44.56578" lon="6.18863">
        <ele>880.20001220703</ele>
        <time>2016-07-15T14:58:39.000Z</time>
      </trkpt>
      <trkpt lat="44.56578" lon="6.18865">
        <ele>880</ele>
        <time>2016-07-15T14:58:40.000Z</time>
      </trkpt>
      <trkpt lat="44.56578" lon="6.18867">
        <ele>880</ele>
        <time>2016-07-15T14:58:41.000Z</time>
      </trkpt>
      <trkpt lat="44.56578" lon="6.18876">
        <ele>879.20001220703</ele>
        <time>2016-07-15T14:58:46.000Z</time>
      </trkpt>
      <trkpt lat="44.56578" lon="6.18879">
        <ele>879</ele>
        <time>2016-07-15T14:58:48.000Z</time>
      </trkpt>
      <trkpt lat="44.56574" lon="6.18899">
        <ele>878.40002441406</ele>
        <time>2016-07-15T14:58:59.000Z</time>
      </trkpt>
      <trkpt lat="44.56573" lon="6.18902">
        <ele>878.40002441406</ele>
        <time>2016-07-15T14:59:01.000Z</time>
      </trkpt>
      <trkpt lat="44.56575" lon="6.18908">
        <ele>877.79998779297</ele>
        <time>2016-07-15T14:59:07.000Z</time>
      </trkpt>
      <trkpt lat="44.56573" lon="6.18909">
        <ele>878.20001220703</ele>
        <time>2016-07-15T15:00:12.000Z</time>
      </trkpt>
      <trkpt lat="44.56572" lon="6.18908">
        <ele>878.40002441406</ele>
        <time>2016-07-15T15:00:20.000Z</time>
      </trkpt>
      <trkpt lat="44.56571" lon="6.18908">
        <ele>878.79998779297</ele>
        <time>2016-07-15T15:00:42.000Z</time>
      </trkpt>
      <trkpt lat="44.56572" lon="6.18908">
        <ele>878.40002441406</ele>
        <time>2016-07-15T15:00:48.000Z</time>
      </trkpt>
      <trkpt lat="44.56572" lon="6.18909">
        <ele>878.40002441406</ele>
        <time>2016-07-15T15:01:14.000Z</time>
      </trkpt>
      <trkpt lat="44.5657" lon="6.18907">
        <ele>879</ele>
        <time>2016-07-15T15:01:26.000Z</time>
      </trkpt>
      <trkpt lat="44.56569" lon="6.18905">
        <ele>879.40002441406</ele>
        <time>2016-07-15T15:02:11.000Z</time>
      </trkpt>
      <trkpt lat="44.56568" lon="6.18904">
        <ele>879.59997558594</ele>
        <time>2016-07-15T15:02:26.000Z</time>
      </trkpt>
      <trkpt lat="44.56571" lon="6.18905">
        <ele>879</ele>
        <time>2016-07-15T15:02:44.000Z</time>
      </trkpt>
      <trkpt lat="44.56572" lon="6.18907">
        <ele>878.40002441406</ele>
        <time>2016-07-15T15:03:09.000Z</time>
      </trkpt>
      <trkpt lat="44.5657" lon="6.1891">
        <ele>879</ele>
        <time>2016-07-15T15:03:13.000Z</time>
      </trkpt>
      <trkpt lat="44.56566" lon="6.18914">
        <ele>879.79998779297</ele>
        <time>2016-07-15T15:03:19.000Z</time>
      </trkpt>
      <trkpt lat="44.56565" lon="6.18916">
        <ele>880</ele>
        <time>2016-07-15T15:03:20.000Z</time>
      </trkpt>
      <trkpt lat="44.56564" lon="6.18926">
        <ele>879.59997558594</ele>
        <time>2016-07-15T15:03:26.000Z</time>
      </trkpt>
      <trkpt lat="44.56565" lon="6.18926">
        <ele>879.59997558594</ele>
        <time>2016-07-15T15:03:30.000Z</time>
      </trkpt>
      <trkpt lat="44.56562" lon="6.18932">
        <ele>879.40002441406</ele>
        <time>2016-07-15T15:03:44.000Z</time>
      </trkpt>
      <trkpt lat="44.56558" lon="6.18951">
        <ele>878.40002441406</ele>
        <time>2016-07-15T15:03:55.000Z</time>
      </trkpt>
      <trkpt lat="44.56555" lon="6.18968">
        <ele>877.20001220703</ele>
        <time>2016-07-15T15:04:05.000Z</time>
      </trkpt>
      <trkpt lat="44.56553" lon="6.18989">
        <ele>876.20001220703</ele>
        <time>2016-07-15T15:04:16.000Z</time>
      </trkpt>
      <trkpt lat="44.56552" lon="6.19007">
        <ele>875.20001220703</ele>
        <time>2016-07-15T15:04:25.000Z</time>
      </trkpt>
      <trkpt lat="44.56551" lon="6.19022">
        <ele>874.59997558594</ele>
        <time>2016-07-15T15:04:33.000Z</time>
      </trkpt>
      <trkpt lat="44.5655" lon="6.19039">
        <ele>873.79998779297</ele>
        <time>2016-07-15T15:04:41.000Z</time>
      </trkpt>
      <trkpt lat="44.5655" lon="6.19051">
        <ele>873</ele>
        <time>2016-07-15T15:04:47.000Z</time>
      </trkpt>
      <trkpt lat="44.56548" lon="6.19067">
        <ele>872.59997558594</ele>
        <time>2016-07-15T15:04:55.000Z</time>
      </trkpt>
      <trkpt lat="44.56546" lon="6.19088">
        <ele>871.79998779297</ele>
        <time>2016-07-15T15:05:05.000Z</time>
      </trkpt>
      <trkpt lat="44.56543" lon="6.19103">
        <ele>871</ele>
        <time>2016-07-15T15:05:12.000Z</time>
      </trkpt>
      <trkpt lat="44.56539" lon="6.19121">
        <ele>870.20001220703</ele>
        <time>2016-07-15T15:05:21.000Z</time>
      </trkpt>
      <trkpt lat="44.56539" lon="6.19122">
        <ele>870.20001220703</ele>
        <time>2016-07-15T15:05:22.000Z</time>
      </trkpt>
      <trkpt lat="44.56534" lon="6.19128">
        <ele>870.20001220703</ele>
        <time>2016-07-15T15:05:26.000Z</time>
      </trkpt>
      <trkpt lat="44.56525" lon="6.19144">
        <ele>870.20001220703</ele>
        <time>2016-07-15T15:05:35.000Z</time>
      </trkpt>
      <trkpt lat="44.56519" lon="6.19161">
        <ele>869</ele>
        <time>2016-07-15T15:05:44.000Z</time>
      </trkpt>
      <trkpt lat="44.56511" lon="6.19184">
        <ele>867.59997558594</ele>
        <time>2016-07-15T15:05:56.000Z</time>
      </trkpt>
      <trkpt lat="44.56503" lon="6.19204">
        <ele>866.20001220703</ele>
        <time>2016-07-15T15:06:04.000Z</time>
      </trkpt>
      <trkpt lat="44.56494" lon="6.19228">
        <ele>864</ele>
        <time>2016-07-15T15:06:12.000Z</time>
      </trkpt>
      <trkpt lat="44.56485" lon="6.19249">
        <ele>864</ele>
        <time>2016-07-15T15:06:19.000Z</time>
      </trkpt>
      <trkpt lat="44.56476" lon="6.19272">
        <ele>863</ele>
        <time>2016-07-15T15:06:27.000Z</time>
      </trkpt>
      <trkpt lat="44.56469" lon="6.19291">
        <ele>861.79998779297</ele>
        <time>2016-07-15T15:06:35.000Z</time>
      </trkpt>
      <trkpt lat="44.56461" lon="6.1931">
        <ele>860.59997558594</ele>
        <time>2016-07-15T15:06:45.000Z</time>
      </trkpt>
      <trkpt lat="44.56452" lon="6.19332">
        <ele>860.79998779297</ele>
        <time>2016-07-15T15:06:56.000Z</time>
      </trkpt>
      <trkpt lat="44.56443" lon="6.19354">
        <ele>861.20001220703</ele>
        <time>2016-07-15T15:07:07.000Z</time>
      </trkpt>
      <trkpt lat="44.56437" lon="6.19369">
        <ele>861.59997558594</ele>
        <time>2016-07-15T15:07:15.000Z</time>
      </trkpt>
      <trkpt lat="44.5643" lon="6.19386">
        <ele>861.59997558594</ele>
        <time>2016-07-15T15:07:24.000Z</time>
      </trkpt>
      <trkpt lat="44.56422" lon="6.19408">
        <ele>861</ele>
        <time>2016-07-15T15:07:35.000Z</time>
      </trkpt>
      <trkpt lat="44.5642" lon="6.19423">
        <ele>860.79998779297</ele>
        <time>2016-07-15T15:07:42.000Z</time>
      </trkpt>
      <trkpt lat="44.56415" lon="6.1944">
        <ele>860.59997558594</ele>
        <time>2016-07-15T15:07:50.000Z</time>
      </trkpt>
      <trkpt lat="44.56407" lon="6.19462">
        <ele>860.20001220703</ele>
        <time>2016-07-15T15:08:01.000Z</time>
      </trkpt>
      <trkpt lat="44.56399" lon="6.19483">
        <ele>860</ele>
        <time>2016-07-15T15:08:12.000Z</time>
      </trkpt>
      <trkpt lat="44.5639" lon="6.19502">
        <ele>860.40002441406</ele>
        <time>2016-07-15T15:08:22.000Z</time>
      </trkpt>
      <trkpt lat="44.56383" lon="6.19521">
        <ele>859.59997558594</ele>
        <time>2016-07-15T15:08:32.000Z</time>
      </trkpt>
      <trkpt lat="44.56376" lon="6.19539">
        <ele>859</ele>
        <time>2016-07-15T15:08:41.000Z</time>
      </trkpt>
      <trkpt lat="44.56368" lon="6.1956">
        <ele>858</ele>
        <time>2016-07-15T15:08:52.000Z</time>
      </trkpt>
      <trkpt lat="44.56358" lon="6.19584">
        <ele>858.40002441406</ele>
        <time>2016-07-15T15:09:04.000Z</time>
      </trkpt>
      <trkpt lat="44.56349" lon="6.19608">
        <ele>858.59997558594</ele>
        <time>2016-07-15T15:09:16.000Z</time>
      </trkpt>
      <trkpt lat="44.5634" lon="6.19629">
        <ele>858.20001220703</ele>
        <time>2016-07-15T15:09:27.000Z</time>
      </trkpt>
      <trkpt lat="44.56331" lon="6.19649">
        <ele>857.40002441406</ele>
        <time>2016-07-15T15:09:37.000Z</time>
      </trkpt>
      <trkpt lat="44.56327" lon="6.1966">
        <ele>857.40002441406</ele>
        <time>2016-07-15T15:09:43.000Z</time>
      </trkpt>
      <trkpt lat="44.56324" lon="6.19665">
        <ele>857.20001220703</ele>
        <time>2016-07-15T15:09:47.000Z</time>
      </trkpt>
      <trkpt lat="44.56324" lon="6.19687">
        <ele>857</ele>
        <time>2016-07-15T15:09:58.000Z</time>
      </trkpt>
      <trkpt lat="44.56325" lon="6.19689">
        <ele>856.79998779297</ele>
        <time>2016-07-15T15:10:03.000Z</time>
      </trkpt>
      <trkpt lat="44.56328" lon="6.19692">
        <ele>856.79998779297</ele>
        <time>2016-07-15T15:10:14.000Z</time>
      </trkpt>
      <trkpt lat="44.56335" lon="6.19697">
        <ele>856.79998779297</ele>
        <time>2016-07-15T15:10:19.000Z</time>
      </trkpt>
      <trkpt lat="44.56342" lon="6.19709">
        <ele>856.40002441406</ele>
        <time>2016-07-15T15:10:26.000Z</time>
      </trkpt>
      <trkpt lat="44.56342" lon="6.19728">
        <ele>855.79998779297</ele>
        <time>2016-07-15T15:10:34.000Z</time>
      </trkpt>
      <trkpt lat="44.56338" lon="6.19743">
        <ele>855.79998779297</ele>
        <time>2016-07-15T15:10:41.000Z</time>
      </trkpt>
      <trkpt lat="44.56332" lon="6.19764">
        <ele>856</ele>
        <time>2016-07-15T15:10:51.000Z</time>
      </trkpt>
      <trkpt lat="44.5633" lon="6.19789">
        <ele>855.59997558594</ele>
        <time>2016-07-15T15:11:02.000Z</time>
      </trkpt>
      <trkpt lat="44.56331" lon="6.19804">
        <ele>855</ele>
        <time>2016-07-15T15:11:09.000Z</time>
      </trkpt>
      <trkpt lat="44.56339" lon="6.19806">
        <ele>855.40002441406</ele>
        <time>2016-07-15T15:11:15.000Z</time>
      </trkpt>
      <trkpt lat="44.56342" lon="6.19803">
        <ele>855.79998779297</ele>
        <time>2016-07-15T15:11:18.000Z</time>
      </trkpt>
      <trkpt lat="44.56344" lon="6.19802">
        <ele>855.79998779297</ele>
        <time>2016-07-15T15:11:20.000Z</time>
      </trkpt>
      <trkpt lat="44.56348" lon="6.19809">
        <ele>856</ele>
        <time>2016-07-15T15:11:26.000Z</time>
      </trkpt>
      <trkpt lat="44.56352" lon="6.19812">
        <ele>856</ele>
        <time>2016-07-15T15:11:29.000Z</time>
      </trkpt>
      <trkpt lat="44.56366" lon="6.19815">
        <ele>856.79998779297</ele>
        <time>2016-07-15T15:11:40.000Z</time>
      </trkpt>
      <trkpt lat="44.56378" lon="6.19818">
        <ele>857.20001220703</ele>
        <time>2016-07-15T15:11:49.000Z</time>
      </trkpt>
      <trkpt lat="44.56379" lon="6.19817">
        <ele>857.20001220703</ele>
        <time>2016-07-15T15:11:50.000Z</time>
      </trkpt>
      <trkpt lat="44.5638" lon="6.19818">
        <ele>857.20001220703</ele>
        <time>2016-07-15T15:11:55.000Z</time>
      </trkpt>
      <trkpt lat="44.56382" lon="6.1982">
        <ele>857.20001220703</ele>
        <time>2016-07-15T15:12:01.000Z</time>
      </trkpt>
      <trkpt lat="44.56387" lon="6.19821">
        <ele>857.20001220703</ele>
        <time>2016-07-15T15:12:10.000Z</time>
      </trkpt>
      <trkpt lat="44.56395" lon="6.19824">
        <ele>857.40002441406</ele>
        <time>2016-07-15T15:12:16.000Z</time>
      </trkpt>
      <trkpt lat="44.56403" lon="6.19829">
        <ele>857.40002441406</ele>
        <time>2016-07-15T15:12:22.000Z</time>
      </trkpt>
      <trkpt lat="44.56409" lon="6.19833">
        <ele>857.40002441406</ele>
        <time>2016-07-15T15:12:27.000Z</time>
      </trkpt>
      <trkpt lat="44.56418" lon="6.19837">
        <ele>857.59997558594</ele>
        <time>2016-07-15T15:12:33.000Z</time>
      </trkpt>
      <trkpt lat="44.56428" lon="6.19842">
        <ele>857.79998779297</ele>
        <time>2016-07-15T15:12:40.000Z</time>
      </trkpt>
      <trkpt lat="44.56441" lon="6.19846">
        <ele>857.79998779297</ele>
        <time>2016-07-15T15:12:48.000Z</time>
      </trkpt>
      <trkpt lat="44.56448" lon="6.19847">
        <ele>858</ele>
        <time>2016-07-15T15:12:52.000Z</time>
      </trkpt>
      <trkpt lat="44.56459" lon="6.19848">
        <ele>858</ele>
        <time>2016-07-15T15:12:59.000Z</time>
      </trkpt>
      <trkpt lat="44.56466" lon="6.19846">
        <ele>858</ele>
        <time>2016-07-15T15:13:06.000Z</time>
      </trkpt>
      <trkpt lat="44.56468" lon="6.19846">
        <ele>858</ele>
        <time>2016-07-15T15:13:07.000Z</time>
      </trkpt>
      <trkpt lat="44.56468" lon="6.19852">
        <ele>858</ele>
        <time>2016-07-15T15:13:10.000Z</time>
      </trkpt>
      <trkpt lat="44.56467" lon="6.19862">
        <ele>858</ele>
        <time>2016-07-15T15:13:15.000Z</time>
      </trkpt>
      <trkpt lat="44.56467" lon="6.19864">
        <ele>858</ele>
        <time>2016-07-15T15:13:16.000Z</time>
      </trkpt>
      <trkpt lat="44.56465" lon="6.19882">
        <ele>858</ele>
        <time>2016-07-15T15:13:24.000Z</time>
      </trkpt>
      <trkpt lat="44.56464" lon="6.19902">
        <ele>858.20001220703</ele>
        <time>2016-07-15T15:13:33.000Z</time>
      </trkpt>
      <trkpt lat="44.56465" lon="6.19915">
        <ele>858.59997558594</ele>
        <time>2016-07-15T15:13:39.000Z</time>
      </trkpt>
      <trkpt lat="44.56469" lon="6.19931">
        <ele>859.40002441406</ele>
        <time>2016-07-15T15:13:47.000Z</time>
      </trkpt>
      <trkpt lat="44.56472" lon="6.1995">
        <ele>860.20001220703</ele>
        <time>2016-07-15T15:13:56.000Z</time>
      </trkpt>
      <trkpt lat="44.56475" lon="6.19974">
        <ele>861.20001220703</ele>
        <time>2016-07-15T15:14:07.000Z</time>
      </trkpt>
      <trkpt lat="44.56479" lon="6.1999">
        <ele>861.40002441406</ele>
        <time>2016-07-15T15:14:15.000Z</time>
      </trkpt>
      <trkpt lat="44.56484" lon="6.20002">
        <ele>861.20001220703</ele>
        <time>2016-07-15T15:14:22.000Z</time>
      </trkpt>
      <trkpt lat="44.5649" lon="6.20018">
        <ele>861</ele>
        <time>2016-07-15T15:14:31.000Z</time>
      </trkpt>
      <trkpt lat="44.56497" lon="6.20034">
        <ele>861</ele>
        <time>2016-07-15T15:14:40.000Z</time>
      </trkpt>
    </trkseg>
  </trk>
  <trk>
    <name><![CDATA[05 - La BâtieNeuve sud : Vière]]></name>
    <extensions>
      <line xmlns="http://www.topografix.com/GPX/gpx_style/0/2">
        <color>FF0000</color>
        <width>4</width>
      </line>
    </extensions>
    <trkseg>
      <trkpt lat="44.57436" lon="6.21435">
        <ele>980.79998779297</ele>
        <time>2016-07-13T07:37:39.000Z</time>
      </trkpt>
      <trkpt lat="44.57437" lon="6.21429">
        <ele>980.79998779297</ele>
        <time>2016-07-13T07:37:43.000Z</time>
      </trkpt>
      <trkpt lat="44.57438" lon="6.21415">
        <ele>980.40002441406</ele>
        <time>2016-07-13T07:37:52.000Z</time>
      </trkpt>
      <trkpt lat="44.57449" lon="6.21395">
        <ele>982.40002441406</ele>
        <time>2016-07-13T07:38:06.000Z</time>
      </trkpt>
      <trkpt lat="44.57456" lon="6.2137">
        <ele>984.59997558594</ele>
        <time>2016-07-13T07:38:23.000Z</time>
      </trkpt>
      <trkpt lat="44.57457" lon="6.21352">
        <ele>984.79998779297</ele>
        <time>2016-07-13T07:38:34.000Z</time>
      </trkpt>
      <trkpt lat="44.57453" lon="6.21333">
        <ele>983</ele>
        <time>2016-07-13T07:38:47.000Z</time>
      </trkpt>
      <trkpt lat="44.57449" lon="6.21318">
        <ele>981.59997558594</ele>
        <time>2016-07-13T07:38:57.000Z</time>
      </trkpt>
      <trkpt lat="44.57445" lon="6.21303">
        <ele>980.20001220703</ele>
        <time>2016-07-13T07:39:07.000Z</time>
      </trkpt>
      <trkpt lat="44.57442" lon="6.21288">
        <ele>979.40002441406</ele>
        <time>2016-07-13T07:39:16.000Z</time>
      </trkpt>
      <trkpt lat="44.57439" lon="6.21274">
        <ele>978.40002441406</ele>
        <time>2016-07-13T07:39:25.000Z</time>
      </trkpt>
      <trkpt lat="44.57434" lon="6.21259">
        <ele>977</ele>
        <time>2016-07-13T07:39:34.000Z</time>
      </trkpt>
      <trkpt lat="44.57433" lon="6.21247">
        <ele>976.79998779297</ele>
        <time>2016-07-13T07:39:42.000Z</time>
      </trkpt>
      <trkpt lat="44.57432" lon="6.21231">
        <ele>976.20001220703</ele>
        <time>2016-07-13T07:39:52.000Z</time>
      </trkpt>
      <trkpt lat="44.57432" lon="6.21218">
        <ele>975.40002441406</ele>
        <time>2016-07-13T07:40:00.000Z</time>
      </trkpt>
      <trkpt lat="44.57432" lon="6.21203">
        <ele>975</ele>
        <time>2016-07-13T07:40:09.000Z</time>
      </trkpt>
      <trkpt lat="44.57431" lon="6.21201">
        <ele>975</ele>
        <time>2016-07-13T07:40:10.000Z</time>
      </trkpt>
      <trkpt lat="44.57429" lon="6.21189">
        <ele>974.20001220703</ele>
        <time>2016-07-13T07:40:18.000Z</time>
      </trkpt>
      <trkpt lat="44.57425" lon="6.21172">
        <ele>973.20001220703</ele>
        <time>2016-07-13T07:40:27.000Z</time>
      </trkpt>
      <trkpt lat="44.57424" lon="6.21161">
        <ele>973</ele>
        <time>2016-07-13T07:40:33.000Z</time>
      </trkpt>
      <trkpt lat="44.57421" lon="6.21143">
        <ele>972</ele>
        <time>2016-07-13T07:40:42.000Z</time>
      </trkpt>
      <trkpt lat="44.57413" lon="6.21127">
        <ele>969.59997558594</ele>
        <time>2016-07-13T07:40:52.000Z</time>
      </trkpt>
      <trkpt lat="44.57412" lon="6.21126">
        <ele>969.20001220703</ele>
        <time>2016-07-13T07:40:53.000Z</time>
      </trkpt>
      <trkpt lat="44.57408" lon="6.21131">
        <ele>967.79998779297</ele>
        <time>2016-07-13T07:40:59.000Z</time>
      </trkpt>
      <trkpt lat="44.57407" lon="6.21136">
        <ele>967.59997558594</ele>
        <time>2016-07-13T07:41:02.000Z</time>
      </trkpt>
      <trkpt lat="44.5741" lon="6.21151">
        <ele>968.59997558594</ele>
        <time>2016-07-13T07:41:11.000Z</time>
      </trkpt>
      <trkpt lat="44.5741" lon="6.21159">
        <ele>968.59997558594</ele>
        <time>2016-07-13T07:41:17.000Z</time>
      </trkpt>
      <trkpt lat="44.5741" lon="6.21161">
        <ele>968.59997558594</ele>
        <time>2016-07-13T07:41:18.000Z</time>
      </trkpt>
      <trkpt lat="44.5741" lon="6.2117">
        <ele>968.40002441406</ele>
        <time>2016-07-13T07:41:23.000Z</time>
      </trkpt>
      <trkpt lat="44.5741" lon="6.21173">
        <ele>968.40002441406</ele>
        <time>2016-07-13T07:41:24.000Z</time>
      </trkpt>
      <trkpt lat="44.57409" lon="6.21183">
        <ele>968</ele>
        <time>2016-07-13T07:41:30.000Z</time>
      </trkpt>
      <trkpt lat="44.57408" lon="6.21191">
        <ele>967.79998779297</ele>
        <time>2016-07-13T07:41:35.000Z</time>
      </trkpt>
      <trkpt lat="44.57406" lon="6.21196">
        <ele>967.59997558594</ele>
        <time>2016-07-13T07:41:38.000Z</time>
      </trkpt>
      <trkpt lat="44.57406" lon="6.212">
        <ele>967.79998779297</ele>
        <time>2016-07-13T07:41:40.000Z</time>
      </trkpt>
      <trkpt lat="44.57401" lon="6.21214">
        <ele>967.59997558594</ele>
        <time>2016-07-13T07:41:48.000Z</time>
      </trkpt>
      <trkpt lat="44.57401" lon="6.21217">
        <ele>967.59997558594</ele>
        <time>2016-07-13T07:41:51.000Z</time>
      </trkpt>
      <trkpt lat="44.57399" lon="6.21222">
        <ele>967.40002441406</ele>
        <time>2016-07-13T07:41:55.000Z</time>
      </trkpt>
      <trkpt lat="44.57398" lon="6.21224">
        <ele>967.20001220703</ele>
        <time>2016-07-13T07:41:57.000Z</time>
      </trkpt>
      <trkpt lat="44.57395" lon="6.2123">
        <ele>966.79998779297</ele>
        <time>2016-07-13T07:42:01.000Z</time>
      </trkpt>
      <trkpt lat="44.57389" lon="6.21242">
        <ele>965.59997558594</ele>
        <time>2016-07-13T07:42:09.000Z</time>
      </trkpt>
      <trkpt lat="44.57385" lon="6.21253">
        <ele>964.59997558594</ele>
        <time>2016-07-13T07:42:16.000Z</time>
      </trkpt>
      <trkpt lat="44.57384" lon="6.21255">
        <ele>964.59997558594</ele>
        <time>2016-07-13T07:42:17.000Z</time>
      </trkpt>
      <trkpt lat="44.57381" lon="6.21265">
        <ele>964</ele>
        <time>2016-07-13T07:42:22.000Z</time>
      </trkpt>
      <trkpt lat="44.57379" lon="6.21268">
        <ele>963.59997558594</ele>
        <time>2016-07-13T07:42:24.000Z</time>
      </trkpt>
      <trkpt lat="44.57374" lon="6.21278">
        <ele>962.79998779297</ele>
        <time>2016-07-13T07:42:30.000Z</time>
      </trkpt>
      <trkpt lat="44.57372" lon="6.21282">
        <ele>962.40002441406</ele>
        <time>2016-07-13T07:42:33.000Z</time>
      </trkpt>
      <trkpt lat="44.57371" lon="6.21286">
        <ele>962.20001220703</ele>
        <time>2016-07-13T07:42:35.000Z</time>
      </trkpt>
      <trkpt lat="44.5737" lon="6.21289">
        <ele>961.79998779297</ele>
        <time>2016-07-13T07:42:37.000Z</time>
      </trkpt>
      <trkpt lat="44.57367" lon="6.21299">
        <ele>961.40002441406</ele>
        <time>2016-07-13T07:42:43.000Z</time>
      </trkpt>
      <trkpt lat="44.57367" lon="6.21304">
        <ele>961.40002441406</ele>
        <time>2016-07-13T07:42:45.000Z</time>
      </trkpt>
      <trkpt lat="44.57364" lon="6.21313">
        <ele>961</ele>
        <time>2016-07-13T07:42:51.000Z</time>
      </trkpt>
      <trkpt lat="44.57364" lon="6.21315">
        <ele>960.59997558594</ele>
        <time>2016-07-13T07:42:52.000Z</time>
      </trkpt>
      <trkpt lat="44.57362" lon="6.21321">
        <ele>959.79998779297</ele>
        <time>2016-07-13T07:42:56.000Z</time>
      </trkpt>
      <trkpt lat="44.5736" lon="6.21324">
        <ele>959.40002441406</ele>
        <time>2016-07-13T07:42:58.000Z</time>
      </trkpt>
      <trkpt lat="44.57354" lon="6.21337">
        <ele>957.20001220703</ele>
        <time>2016-07-13T07:43:06.000Z</time>
      </trkpt>
      <trkpt lat="44.57347" lon="6.21352">
        <ele>954.79998779297</ele>
        <time>2016-07-13T07:43:15.000Z</time>
      </trkpt>
      <trkpt lat="44.57341" lon="6.21365">
        <ele>952.59997558594</ele>
        <time>2016-07-13T07:43:23.000Z</time>
      </trkpt>
      <trkpt lat="44.5734" lon="6.21366">
        <ele>952.40002441406</ele>
        <time>2016-07-13T07:43:30.000Z</time>
      </trkpt>
      <trkpt lat="44.57338" lon="6.21371">
        <ele>951.59997558594</ele>
        <time>2016-07-13T07:43:35.000Z</time>
      </trkpt>
      <trkpt lat="44.57334" lon="6.21379">
        <ele>950.40002441406</ele>
        <time>2016-07-13T07:43:38.000Z</time>
      </trkpt>
      <trkpt lat="44.57325" lon="6.21401">
        <ele>948</ele>
        <time>2016-07-13T07:43:50.000Z</time>
      </trkpt>
      <trkpt lat="44.5732" lon="6.21415">
        <ele>947</ele>
        <time>2016-07-13T07:43:58.000Z</time>
      </trkpt>
      <trkpt lat="44.57317" lon="6.21427">
        <ele>946.40002441406</ele>
        <time>2016-07-13T07:44:06.000Z</time>
      </trkpt>
      <trkpt lat="44.57312" lon="6.21447">
        <ele>945.40002441406</ele>
        <time>2016-07-13T07:44:18.000Z</time>
      </trkpt>
      <trkpt lat="44.57311" lon="6.21456">
        <ele>945.20001220703</ele>
        <time>2016-07-13T07:44:25.000Z</time>
      </trkpt>
      <trkpt lat="44.57309" lon="6.2147">
        <ele>945.20001220703</ele>
        <time>2016-07-13T07:44:35.000Z</time>
      </trkpt>
      <trkpt lat="44.57307" lon="6.21483">
        <ele>944.79998779297</ele>
        <time>2016-07-13T07:44:43.000Z</time>
      </trkpt>
      <trkpt lat="44.57305" lon="6.21496">
        <ele>944</ele>
        <time>2016-07-13T07:44:51.000Z</time>
      </trkpt>
      <trkpt lat="44.57301" lon="6.21511">
        <ele>943.40002441406</ele>
        <time>2016-07-13T07:45:00.000Z</time>
      </trkpt>
      <trkpt lat="44.57296" lon="6.21531">
        <ele>942.40002441406</ele>
        <time>2016-07-13T07:45:12.000Z</time>
      </trkpt>
      <trkpt lat="44.57292" lon="6.21547">
        <ele>941.79998779297</ele>
        <time>2016-07-13T07:45:22.000Z</time>
      </trkpt>
      <trkpt lat="44.57288" lon="6.21561">
        <ele>941</ele>
        <time>2016-07-13T07:45:31.000Z</time>
      </trkpt>
      <trkpt lat="44.57286" lon="6.21573">
        <ele>941</ele>
        <time>2016-07-13T07:45:39.000Z</time>
      </trkpt>
      <trkpt lat="44.57282" lon="6.21587">
        <ele>941</ele>
        <time>2016-07-13T07:45:47.000Z</time>
      </trkpt>
      <trkpt lat="44.57278" lon="6.21599">
        <ele>941</ele>
        <time>2016-07-13T07:45:55.000Z</time>
      </trkpt>
      <trkpt lat="44.5726" lon="6.21636">
        <ele>939.40002441406</ele>
        <time>2016-07-13T07:46:20.000Z</time>
      </trkpt>
      <trkpt lat="44.57254" lon="6.21649">
        <ele>939.20001220703</ele>
        <time>2016-07-13T07:46:29.000Z</time>
      </trkpt>
      <trkpt lat="44.57247" lon="6.21666">
        <ele>938.59997558594</ele>
        <time>2016-07-13T07:46:40.000Z</time>
      </trkpt>
      <trkpt lat="44.57241" lon="6.21684">
        <ele>938</ele>
        <time>2016-07-13T07:46:51.000Z</time>
      </trkpt>
      <trkpt lat="44.57235" lon="6.21697">
        <ele>937</ele>
        <time>2016-07-13T07:46:59.000Z</time>
      </trkpt>
      <trkpt lat="44.57227" lon="6.21712">
        <ele>935.40002441406</ele>
        <time>2016-07-13T07:47:09.000Z</time>
      </trkpt>
      <trkpt lat="44.57218" lon="6.21727">
        <ele>933.59997558594</ele>
        <time>2016-07-13T07:47:19.000Z</time>
      </trkpt>
      <trkpt lat="44.57211" lon="6.21738">
        <ele>932</ele>
        <time>2016-07-13T07:47:27.000Z</time>
      </trkpt>
      <trkpt lat="44.57203" lon="6.21752">
        <ele>930.59997558594</ele>
        <time>2016-07-13T07:47:40.000Z</time>
      </trkpt>
      <trkpt lat="44.57196" lon="6.21765">
        <ele>929.40002441406</ele>
        <time>2016-07-13T07:47:48.000Z</time>
      </trkpt>
      <trkpt lat="44.5719" lon="6.21781">
        <ele>928.59997558594</ele>
        <time>2016-07-13T07:47:57.000Z</time>
      </trkpt>
      <trkpt lat="44.57186" lon="6.21793">
        <ele>928.20001220703</ele>
        <time>2016-07-13T07:48:03.000Z</time>
      </trkpt>
      <trkpt lat="44.57183" lon="6.21806">
        <ele>928.40002441406</ele>
        <time>2016-07-13T07:48:11.000Z</time>
      </trkpt>
      <trkpt lat="44.57177" lon="6.21823">
        <ele>928.59997558594</ele>
        <time>2016-07-13T07:48:21.000Z</time>
      </trkpt>
      <trkpt lat="44.57174" lon="6.21836">
        <ele>928.59997558594</ele>
        <time>2016-07-13T07:48:28.000Z</time>
      </trkpt>
      <trkpt lat="44.57168" lon="6.21853">
        <ele>928.59997558594</ele>
        <time>2016-07-13T07:48:37.000Z</time>
      </trkpt>
      <trkpt lat="44.57164" lon="6.21868">
        <ele>928.79998779297</ele>
        <time>2016-07-13T07:48:45.000Z</time>
      </trkpt>
      <trkpt lat="44.57159" lon="6.21886">
        <ele>929.40002441406</ele>
        <time>2016-07-13T07:48:54.000Z</time>
      </trkpt>
      <trkpt lat="44.57156" lon="6.21896">
        <ele>929.59997558594</ele>
        <time>2016-07-13T07:49:00.000Z</time>
      </trkpt>
      <trkpt lat="44.57144" lon="6.2192">
        <ele>929.59997558594</ele>
        <time>2016-07-13T07:49:16.000Z</time>
      </trkpt>
      <trkpt lat="44.57136" lon="6.21931">
        <ele>928.79998779297</ele>
        <time>2016-07-13T07:49:24.000Z</time>
      </trkpt>
      <trkpt lat="44.57135" lon="6.21932">
        <ele>928.79998779297</ele>
        <time>2016-07-13T07:49:25.000Z</time>
      </trkpt>
      <trkpt lat="44.57131" lon="6.2194">
        <ele>928.20001220703</ele>
        <time>2016-07-13T07:49:31.000Z</time>
      </trkpt>
      <trkpt lat="44.57128" lon="6.2195">
        <ele>928</ele>
        <time>2016-07-13T07:49:37.000Z</time>
      </trkpt>
      <trkpt lat="44.57127" lon="6.21953">
        <ele>927.79998779297</ele>
        <time>2016-07-13T07:49:39.000Z</time>
      </trkpt>
      <trkpt lat="44.57126" lon="6.21955">
        <ele>927.79998779297</ele>
        <time>2016-07-13T07:49:40.000Z</time>
      </trkpt>
      <trkpt lat="44.57121" lon="6.21963">
        <ele>927.20001220703</ele>
        <time>2016-07-13T07:49:46.000Z</time>
      </trkpt>
      <trkpt lat="44.57113" lon="6.21965">
        <ele>926.40002441406</ele>
        <time>2016-07-13T07:49:52.000Z</time>
      </trkpt>
      <trkpt lat="44.57109" lon="6.21969">
        <ele>926</ele>
        <time>2016-07-13T07:49:58.000Z</time>
      </trkpt>
      <trkpt lat="44.57104" lon="6.2195">
        <ele>925.20001220703</ele>
        <time>2016-07-13T07:50:20.000Z</time>
      </trkpt>
      <trkpt lat="44.57099" lon="6.21937">
        <ele>924.40002441406</ele>
        <time>2016-07-13T07:50:28.000Z</time>
      </trkpt>
      <trkpt lat="44.5709" lon="6.21925">
        <ele>923.40002441406</ele>
        <time>2016-07-13T07:50:37.000Z</time>
      </trkpt>
      <trkpt lat="44.57082" lon="6.21915">
        <ele>922.40002441406</ele>
        <time>2016-07-13T07:50:45.000Z</time>
      </trkpt>
      <trkpt lat="44.57071" lon="6.21904">
        <ele>921</ele>
        <time>2016-07-13T07:50:55.000Z</time>
      </trkpt>
      <trkpt lat="44.57035" lon="6.21896">
        <ele>917</ele>
        <time>2016-07-13T07:51:22.000Z</time>
      </trkpt>
      <trkpt lat="44.5703" lon="6.21892">
        <ele>916.40002441406</ele>
        <time>2016-07-13T07:51:26.000Z</time>
      </trkpt>
      <trkpt lat="44.57022" lon="6.2188">
        <ele>915.40002441406</ele>
        <time>2016-07-13T07:51:35.000Z</time>
      </trkpt>
      <trkpt lat="44.57018" lon="6.21867">
        <ele>914.40002441406</ele>
        <time>2016-07-13T07:51:42.000Z</time>
      </trkpt>
      <trkpt lat="44.57016" lon="6.21853">
        <ele>913.59997558594</ele>
        <time>2016-07-13T07:51:49.000Z</time>
      </trkpt>
      <trkpt lat="44.57011" lon="6.21841">
        <ele>912.59997558594</ele>
        <time>2016-07-13T07:51:57.000Z</time>
      </trkpt>
      <trkpt lat="44.57002" lon="6.2183">
        <ele>911.40002441406</ele>
        <time>2016-07-13T07:52:07.000Z</time>
      </trkpt>
      <trkpt lat="44.56988" lon="6.21823">
        <ele>910.20001220703</ele>
        <time>2016-07-13T07:52:18.000Z</time>
      </trkpt>
      <trkpt lat="44.56979" lon="6.21815">
        <ele>909.20001220703</ele>
        <time>2016-07-13T07:52:26.000Z</time>
      </trkpt>
      <trkpt lat="44.56977" lon="6.21813">
        <ele>909</ele>
        <time>2016-07-13T07:52:28.000Z</time>
      </trkpt>
      <trkpt lat="44.56973" lon="6.21808">
        <ele>908.40002441406</ele>
        <time>2016-07-13T07:52:33.000Z</time>
      </trkpt>
      <trkpt lat="44.56969" lon="6.21806">
        <ele>908</ele>
        <time>2016-07-13T07:52:38.000Z</time>
      </trkpt>
      <trkpt lat="44.56966" lon="6.21806">
        <ele>907.79998779297</ele>
        <time>2016-07-13T07:52:40.000Z</time>
      </trkpt>
      <trkpt lat="44.56958" lon="6.21811">
        <ele>907.40002441406</ele>
        <time>2016-07-13T07:52:46.000Z</time>
      </trkpt>
      <trkpt lat="44.56953" lon="6.21817">
        <ele>907.20001220703</ele>
        <time>2016-07-13T07:52:51.000Z</time>
      </trkpt>
      <trkpt lat="44.56946" lon="6.21824">
        <ele>906.79998779297</ele>
        <time>2016-07-13T07:52:57.000Z</time>
      </trkpt>
      <trkpt lat="44.56942" lon="6.21829">
        <ele>906.59997558594</ele>
        <time>2016-07-13T07:53:01.000Z</time>
      </trkpt>
      <trkpt lat="44.56932" lon="6.21851">
        <ele>906.20001220703</ele>
        <time>2016-07-13T07:53:14.000Z</time>
      </trkpt>
      <trkpt lat="44.56927" lon="6.21863">
        <ele>906</ele>
        <time>2016-07-13T07:53:21.000Z</time>
      </trkpt>
      <trkpt lat="44.56922" lon="6.21879">
        <ele>906</ele>
        <time>2016-07-13T07:53:30.000Z</time>
      </trkpt>
      <trkpt lat="44.56916" lon="6.2189">
        <ele>906.20001220703</ele>
        <time>2016-07-13T07:53:39.000Z</time>
      </trkpt>
      <trkpt lat="44.56916" lon="6.21891">
        <ele>906.20001220703</ele>
        <time>2016-07-13T07:53:40.000Z</time>
      </trkpt>
      <trkpt lat="44.56913" lon="6.21899">
        <ele>906.40002441406</ele>
        <time>2016-07-13T07:53:45.000Z</time>
      </trkpt>
      <trkpt lat="44.56906" lon="6.21918">
        <ele>906.79998779297</ele>
        <time>2016-07-13T07:53:55.000Z</time>
      </trkpt>
      <trkpt lat="44.56896" lon="6.21929">
        <ele>906.59997558594</ele>
        <time>2016-07-13T07:54:08.000Z</time>
      </trkpt>
      <trkpt lat="44.56895" lon="6.21926">
        <ele>906.40002441406</ele>
        <time>2016-07-13T07:54:23.000Z</time>
      </trkpt>
      <trkpt lat="44.56887" lon="6.21919">
        <ele>905.40002441406</ele>
        <time>2016-07-13T07:54:31.000Z</time>
      </trkpt>
      <trkpt lat="44.56885" lon="6.21916">
        <ele>905.20001220703</ele>
        <time>2016-07-13T07:54:37.000Z</time>
      </trkpt>
      <trkpt lat="44.56889" lon="6.21918">
        <ele>905.59997558594</ele>
        <time>2016-07-13T07:54:48.000Z</time>
      </trkpt>
      <trkpt lat="44.56893" lon="6.21924">
        <ele>906.20001220703</ele>
        <time>2016-07-13T07:54:53.000Z</time>
      </trkpt>
      <trkpt lat="44.56891" lon="6.21933">
        <ele>906.20001220703</ele>
        <time>2016-07-13T07:54:58.000Z</time>
      </trkpt>
      <trkpt lat="44.56882" lon="6.21944">
        <ele>906</ele>
        <time>2016-07-13T07:55:07.000Z</time>
      </trkpt>
      <trkpt lat="44.56868" lon="6.21963">
        <ele>905.40002441406</ele>
        <time>2016-07-13T07:55:20.000Z</time>
      </trkpt>
      <trkpt lat="44.56863" lon="6.21974">
        <ele>905.40002441406</ele>
        <time>2016-07-13T07:55:27.000Z</time>
      </trkpt>
      <trkpt lat="44.56855" lon="6.21988">
        <ele>905</ele>
        <time>2016-07-13T07:55:37.000Z</time>
      </trkpt>
      <trkpt lat="44.56849" lon="6.22">
        <ele>904.79998779297</ele>
        <time>2016-07-13T07:55:45.000Z</time>
      </trkpt>
      <trkpt lat="44.56843" lon="6.2201">
        <ele>904.59997558594</ele>
        <time>2016-07-13T07:55:52.000Z</time>
      </trkpt>
      <trkpt lat="44.56836" lon="6.22022">
        <ele>904.20001220703</ele>
        <time>2016-07-13T07:56:00.000Z</time>
      </trkpt>
      <trkpt lat="44.56837" lon="6.22022">
        <ele>904.20001220703</ele>
        <time>2016-07-13T07:56:06.000Z</time>
      </trkpt>
      <trkpt lat="44.56833" lon="6.22027">
        <ele>904</ele>
        <time>2016-07-13T07:56:15.000Z</time>
      </trkpt>
      <trkpt lat="44.56825" lon="6.22036">
        <ele>903.59997558594</ele>
        <time>2016-07-13T07:56:22.000Z</time>
      </trkpt>
      <trkpt lat="44.56815" lon="6.22042">
        <ele>903</ele>
        <time>2016-07-13T07:56:30.000Z</time>
      </trkpt>
      <trkpt lat="44.56807" lon="6.2205">
        <ele>902.59997558594</ele>
        <time>2016-07-13T07:56:37.000Z</time>
      </trkpt>
      <trkpt lat="44.56799" lon="6.22055">
        <ele>902</ele>
        <time>2016-07-13T07:56:43.000Z</time>
      </trkpt>
      <trkpt lat="44.56791" lon="6.22055">
        <ele>901.40002441406</ele>
        <time>2016-07-13T07:56:49.000Z</time>
      </trkpt>
      <trkpt lat="44.5679" lon="6.22054">
        <ele>901.20001220703</ele>
        <time>2016-07-13T07:56:50.000Z</time>
      </trkpt>
      <trkpt lat="44.5679" lon="6.22053">
        <ele>901.20001220703</ele>
        <time>2016-07-13T07:56:55.000Z</time>
      </trkpt>
      <trkpt lat="44.56791" lon="6.22051">
        <ele>901</ele>
        <time>2016-07-13T07:56:58.000Z</time>
      </trkpt>
      <trkpt lat="44.56792" lon="6.22052">
        <ele>901.20001220703</ele>
        <time>2016-07-13T07:56:59.000Z</time>
      </trkpt>
      <trkpt lat="44.56789" lon="6.22065">
        <ele>901.40002441406</ele>
        <time>2016-07-13T07:57:08.000Z</time>
      </trkpt>
      <trkpt lat="44.56778" lon="6.22077">
        <ele>900.59997558594</ele>
        <time>2016-07-13T07:57:18.000Z</time>
      </trkpt>
      <trkpt lat="44.56771" lon="6.22083">
        <ele>900</ele>
        <time>2016-07-13T07:57:24.000Z</time>
      </trkpt>
      <trkpt lat="44.56763" lon="6.22088">
        <ele>899.20001220703</ele>
        <time>2016-07-13T07:57:30.000Z</time>
      </trkpt>
      <trkpt lat="44.56753" lon="6.22094">
        <ele>898.40002441406</ele>
        <time>2016-07-13T07:57:37.000Z</time>
      </trkpt>
      <trkpt lat="44.56742" lon="6.22099">
        <ele>897.40002441406</ele>
        <time>2016-07-13T07:57:45.000Z</time>
      </trkpt>
      <trkpt lat="44.56734" lon="6.22096">
        <ele>896.40002441406</ele>
        <time>2016-07-13T07:57:51.000Z</time>
      </trkpt>
      <trkpt lat="44.56727" lon="6.22093">
        <ele>895.59997558594</ele>
        <time>2016-07-13T07:57:57.000Z</time>
      </trkpt>
      <trkpt lat="44.56725" lon="6.22092">
        <ele>895.40002441406</ele>
        <time>2016-07-13T07:57:59.000Z</time>
      </trkpt>
      <trkpt lat="44.56712" lon="6.22083">
        <ele>894</ele>
        <time>2016-07-13T07:58:09.000Z</time>
      </trkpt>
      <trkpt lat="44.567" lon="6.22072">
        <ele>892.40002441406</ele>
        <time>2016-07-13T07:58:20.000Z</time>
      </trkpt>
      <trkpt lat="44.56692" lon="6.22065">
        <ele>891.40002441406</ele>
        <time>2016-07-13T07:58:27.000Z</time>
      </trkpt>
      <trkpt lat="44.56682" lon="6.22057">
        <ele>890.40002441406</ele>
        <time>2016-07-13T07:58:35.000Z</time>
      </trkpt>
      <trkpt lat="44.56672" lon="6.22048">
        <ele>889.59997558594</ele>
        <time>2016-07-13T07:58:43.000Z</time>
      </trkpt>
      <trkpt lat="44.56663" lon="6.22042">
        <ele>888.79998779297</ele>
        <time>2016-07-13T07:58:50.000Z</time>
      </trkpt>
      <trkpt lat="44.56655" lon="6.22036">
        <ele>888</ele>
        <time>2016-07-13T07:58:56.000Z</time>
      </trkpt>
      <trkpt lat="44.56644" lon="6.2203">
        <ele>887</ele>
        <time>2016-07-13T07:59:05.000Z</time>
      </trkpt>
      <trkpt lat="44.56623" lon="6.22021">
        <ele>885.40002441406</ele>
        <time>2016-07-13T07:59:20.000Z</time>
      </trkpt>
      <trkpt lat="44.56613" lon="6.2202">
        <ele>884.59997558594</ele>
        <time>2016-07-13T07:59:27.000Z</time>
      </trkpt>
      <trkpt lat="44.56605" lon="6.22019">
        <ele>884</ele>
        <time>2016-07-13T07:59:32.000Z</time>
      </trkpt>
      <trkpt lat="44.56595" lon="6.22017">
        <ele>883.40002441406</ele>
        <time>2016-07-13T07:59:39.000Z</time>
      </trkpt>
      <trkpt lat="44.56588" lon="6.22015">
        <ele>882.79998779297</ele>
        <time>2016-07-13T07:59:44.000Z</time>
      </trkpt>
      <trkpt lat="44.56581" lon="6.22014">
        <ele>882.20001220703</ele>
        <time>2016-07-13T07:59:49.000Z</time>
      </trkpt>
      <trkpt lat="44.56571" lon="6.22012">
        <ele>881.40002441406</ele>
        <time>2016-07-13T07:59:56.000Z</time>
      </trkpt>
      <trkpt lat="44.56563" lon="6.22009">
        <ele>880.79998779297</ele>
        <time>2016-07-13T08:00:02.000Z</time>
      </trkpt>
      <trkpt lat="44.56553" lon="6.22008">
        <ele>880</ele>
        <time>2016-07-13T08:00:09.000Z</time>
      </trkpt>
      <trkpt lat="44.56542" lon="6.22007">
        <ele>879.20001220703</ele>
        <time>2016-07-13T08:00:17.000Z</time>
      </trkpt>
      <trkpt lat="44.56531" lon="6.22005">
        <ele>878.40002441406</ele>
        <time>2016-07-13T08:00:25.000Z</time>
      </trkpt>
      <trkpt lat="44.56522" lon="6.22003">
        <ele>877.59997558594</ele>
        <time>2016-07-13T08:00:32.000Z</time>
      </trkpt>
      <trkpt lat="44.56512" lon="6.22003">
        <ele>877</ele>
        <time>2016-07-13T08:00:39.000Z</time>
      </trkpt>
      <trkpt lat="44.56502" lon="6.22003">
        <ele>876.20001220703</ele>
        <time>2016-07-13T08:00:46.000Z</time>
      </trkpt>
      <trkpt lat="44.56498" lon="6.21998">
        <ele>875.79998779297</ele>
        <time>2016-07-13T08:00:50.000Z</time>
      </trkpt>
      <trkpt lat="44.56489" lon="6.21995">
        <ele>875.20001220703</ele>
        <time>2016-07-13T08:00:57.000Z</time>
      </trkpt>
      <trkpt lat="44.56482" lon="6.21987">
        <ele>874.40002441406</ele>
        <time>2016-07-13T08:01:04.000Z</time>
      </trkpt>
      <trkpt lat="44.56481" lon="6.21985">
        <ele>874.40002441406</ele>
        <time>2016-07-13T08:01:05.000Z</time>
      </trkpt>
      <trkpt lat="44.56473" lon="6.21983">
        <ele>873.79998779297</ele>
        <time>2016-07-13T08:01:11.000Z</time>
      </trkpt>
      <trkpt lat="44.56461" lon="6.21982">
        <ele>872.79998779297</ele>
        <time>2016-07-13T08:01:20.000Z</time>
      </trkpt>
      <trkpt lat="44.56451" lon="6.21982">
        <ele>872</ele>
        <time>2016-07-13T08:01:27.000Z</time>
      </trkpt>
      <trkpt lat="44.56441" lon="6.21983">
        <ele>872</ele>
        <time>2016-07-13T08:01:34.000Z</time>
      </trkpt>
      <trkpt lat="44.56438" lon="6.21984">
        <ele>872</ele>
        <time>2016-07-13T08:01:36.000Z</time>
      </trkpt>
      <trkpt lat="44.56434" lon="6.21987">
        <ele>872</ele>
        <time>2016-07-13T08:01:40.000Z</time>
      </trkpt>
      <trkpt lat="44.56433" lon="6.21988">
        <ele>872</ele>
        <time>2016-07-13T08:01:41.000Z</time>
      </trkpt>
      <trkpt lat="44.56425" lon="6.21993">
        <ele>872</ele>
        <time>2016-07-13T08:01:48.000Z</time>
      </trkpt>
      <trkpt lat="44.56424" lon="6.21997">
        <ele>872.20001220703</ele>
        <time>2016-07-13T08:01:51.000Z</time>
      </trkpt>
      <trkpt lat="44.56423" lon="6.22">
        <ele>872.20001220703</ele>
        <time>2016-07-13T08:01:53.000Z</time>
      </trkpt>
      <trkpt lat="44.56424" lon="6.21999">
        <ele>872.20001220703</ele>
        <time>2016-07-13T08:01:56.000Z</time>
      </trkpt>
      <trkpt lat="44.56425" lon="6.22">
        <ele>872.20001220703</ele>
        <time>2016-07-13T08:02:02.000Z</time>
      </trkpt>
      <trkpt lat="44.56424" lon="6.22001">
        <ele>872.20001220703</ele>
        <time>2016-07-13T08:02:16.000Z</time>
      </trkpt>
      <trkpt lat="44.56423" lon="6.21997">
        <ele>872.20001220703</ele>
        <time>2016-07-13T08:02:47.000Z</time>
      </trkpt>
      <trkpt lat="44.56422" lon="6.21996">
        <ele>872</ele>
        <time>2016-07-13T08:03:20.000Z</time>
      </trkpt>
      <trkpt lat="44.56424" lon="6.21995">
        <ele>872</ele>
        <time>2016-07-13T08:03:47.000Z</time>
      </trkpt>
      <trkpt lat="44.56424" lon="6.21996">
        <ele>872.20001220703</ele>
        <time>2016-07-13T08:03:52.000Z</time>
      </trkpt>
      <trkpt lat="44.56424" lon="6.21997">
        <ele>872.20001220703</ele>
        <time>2016-07-13T08:03:56.000Z</time>
      </trkpt>
      <trkpt lat="44.56424" lon="6.21998">
        <ele>872.20001220703</ele>
        <time>2016-07-13T08:04:05.000Z</time>
      </trkpt>
      <trkpt lat="44.56423" lon="6.22006">
        <ele>872.40002441406</ele>
        <time>2016-07-13T08:04:09.000Z</time>
      </trkpt>
      <trkpt lat="44.56421" lon="6.22022">
        <ele>872.59997558594</ele>
        <time>2016-07-13T08:04:18.000Z</time>
      </trkpt>
      <trkpt lat="44.56422" lon="6.22033">
        <ele>873</ele>
        <time>2016-07-13T08:04:24.000Z</time>
      </trkpt>
      <trkpt lat="44.56422" lon="6.22038">
        <ele>873</ele>
        <time>2016-07-13T08:04:27.000Z</time>
      </trkpt>
      <trkpt lat="44.56418" lon="6.22044">
        <ele>872.79998779297</ele>
        <time>2016-07-13T08:04:31.000Z</time>
      </trkpt>
      <trkpt lat="44.56411" lon="6.22056">
        <ele>872.59997558594</ele>
        <time>2016-07-13T08:04:39.000Z</time>
      </trkpt>
      <trkpt lat="44.56406" lon="6.22067">
        <ele>872.59997558594</ele>
        <time>2016-07-13T08:04:45.000Z</time>
      </trkpt>
      <trkpt lat="44.564" lon="6.22084">
        <ele>873.20001220703</ele>
        <time>2016-07-13T08:04:54.000Z</time>
      </trkpt>
      <trkpt lat="44.56396" lon="6.221">
        <ele>873.79998779297</ele>
        <time>2016-07-13T08:05:02.000Z</time>
      </trkpt>
      <trkpt lat="44.56391" lon="6.22114">
        <ele>874</ele>
        <time>2016-07-13T08:05:10.000Z</time>
      </trkpt>
      <trkpt lat="44.56389" lon="6.22115">
        <ele>873.79998779297</ele>
        <time>2016-07-13T08:05:12.000Z</time>
      </trkpt>
      <trkpt lat="44.56384" lon="6.22109">
        <ele>873.59997558594</ele>
        <time>2016-07-13T08:05:16.000Z</time>
      </trkpt>
      <trkpt lat="44.5638" lon="6.22095">
        <ele>872.79998779297</ele>
        <time>2016-07-13T08:05:24.000Z</time>
      </trkpt>
      <trkpt lat="44.56376" lon="6.22081">
        <ele>872</ele>
        <time>2016-07-13T08:05:31.000Z</time>
      </trkpt>
      <trkpt lat="44.56374" lon="6.22068">
        <ele>871.59997558594</ele>
        <time>2016-07-13T08:05:38.000Z</time>
      </trkpt>
      <trkpt lat="44.56374" lon="6.22052">
        <ele>871.20001220703</ele>
        <time>2016-07-13T08:05:46.000Z</time>
      </trkpt>
      <trkpt lat="44.56372" lon="6.22026">
        <ele>871.20001220703</ele>
        <time>2016-07-13T08:05:59.000Z</time>
      </trkpt>
      <trkpt lat="44.5637" lon="6.21999">
        <ele>871</ele>
        <time>2016-07-13T08:06:12.000Z</time>
      </trkpt>
      <trkpt lat="44.56367" lon="6.21977">
        <ele>871</ele>
        <time>2016-07-13T08:06:22.000Z</time>
      </trkpt>
      <trkpt lat="44.56363" lon="6.21959">
        <ele>870.59997558594</ele>
        <time>2016-07-13T08:06:31.000Z</time>
      </trkpt>
      <trkpt lat="44.5636" lon="6.2195">
        <ele>870.20001220703</ele>
        <time>2016-07-13T08:06:36.000Z</time>
      </trkpt>
      <trkpt lat="44.56353" lon="6.21939">
        <ele>869.59997558594</ele>
        <time>2016-07-13T08:06:43.000Z</time>
      </trkpt>
      <trkpt lat="44.5634" lon="6.21925">
        <ele>868.40002441406</ele>
        <time>2016-07-13T08:06:53.000Z</time>
      </trkpt>
      <trkpt lat="44.56333" lon="6.21911">
        <ele>867.59997558594</ele>
        <time>2016-07-13T08:07:01.000Z</time>
      </trkpt>
      <trkpt lat="44.56328" lon="6.21886">
        <ele>867.20001220703</ele>
        <time>2016-07-13T08:07:13.000Z</time>
      </trkpt>
      <trkpt lat="44.56324" lon="6.21865">
        <ele>867.20001220703</ele>
        <time>2016-07-13T08:07:23.000Z</time>
      </trkpt>
      <trkpt lat="44.56322" lon="6.21852">
        <ele>867.20001220703</ele>
        <time>2016-07-13T08:07:30.000Z</time>
      </trkpt>
      <trkpt lat="44.56317" lon="6.21833">
        <ele>866.20001220703</ele>
        <time>2016-07-13T08:07:39.000Z</time>
      </trkpt>
      <trkpt lat="44.56313" lon="6.21817">
        <ele>865.20001220703</ele>
        <time>2016-07-13T08:07:47.000Z</time>
      </trkpt>
      <trkpt lat="44.56309" lon="6.21795">
        <ele>864</ele>
        <time>2016-07-13T08:07:57.000Z</time>
      </trkpt>
      <trkpt lat="44.56308" lon="6.21778">
        <ele>863.20001220703</ele>
        <time>2016-07-13T08:08:05.000Z</time>
      </trkpt>
      <trkpt lat="44.56305" lon="6.2176">
        <ele>862.20001220703</ele>
        <time>2016-07-13T08:08:14.000Z</time>
      </trkpt>
      <trkpt lat="44.56303" lon="6.21739">
        <ele>861.20001220703</ele>
        <time>2016-07-13T08:08:24.000Z</time>
      </trkpt>
      <trkpt lat="44.56301" lon="6.21716">
        <ele>860</ele>
        <time>2016-07-13T08:08:35.000Z</time>
      </trkpt>
      <trkpt lat="44.56301" lon="6.217">
        <ele>859.20001220703</ele>
        <time>2016-07-13T08:08:43.000Z</time>
      </trkpt>
      <trkpt lat="44.56301" lon="6.2168">
        <ele>858.20001220703</ele>
        <time>2016-07-13T08:08:52.000Z</time>
      </trkpt>
      <trkpt lat="44.56301" lon="6.21678">
        <ele>858.20001220703</ele>
        <time>2016-07-13T08:08:53.000Z</time>
      </trkpt>
      <trkpt lat="44.56302" lon="6.21673">
        <ele>858</ele>
        <time>2016-07-13T08:08:59.000Z</time>
      </trkpt>
      <trkpt lat="44.56303" lon="6.21664">
        <ele>857.59997558594</ele>
        <time>2016-07-13T08:09:05.000Z</time>
      </trkpt>
      <trkpt lat="44.56302" lon="6.21652">
        <ele>857</ele>
        <time>2016-07-13T08:09:11.000Z</time>
      </trkpt>
      <trkpt lat="44.56299" lon="6.2163">
        <ele>856</ele>
        <time>2016-07-13T08:09:21.000Z</time>
      </trkpt>
      <trkpt lat="44.56296" lon="6.21614">
        <ele>855.20001220703</ele>
        <time>2016-07-13T08:09:29.000Z</time>
      </trkpt>
      <trkpt lat="44.5629" lon="6.21601">
        <ele>854.59997558594</ele>
        <time>2016-07-13T08:09:36.000Z</time>
      </trkpt>
      <trkpt lat="44.56286" lon="6.21589">
        <ele>854</ele>
        <time>2016-07-13T08:09:42.000Z</time>
      </trkpt>
      <trkpt lat="44.5628" lon="6.21575">
        <ele>852.79998779297</ele>
        <time>2016-07-13T08:09:50.000Z</time>
      </trkpt>
      <trkpt lat="44.56274" lon="6.21558">
        <ele>851.59997558594</ele>
        <time>2016-07-13T08:09:59.000Z</time>
      </trkpt>
      <trkpt lat="44.56264" lon="6.21543">
        <ele>850.20001220703</ele>
        <time>2016-07-13T08:10:09.000Z</time>
      </trkpt>
      <trkpt lat="44.56255" lon="6.21532">
        <ele>848.79998779297</ele>
        <time>2016-07-13T08:10:18.000Z</time>
      </trkpt>
      <trkpt lat="44.56247" lon="6.21519">
        <ele>847.59997558594</ele>
        <time>2016-07-13T08:10:26.000Z</time>
      </trkpt>
      <trkpt lat="44.56243" lon="6.21505">
        <ele>847</ele>
        <time>2016-07-13T08:10:33.000Z</time>
      </trkpt>
      <trkpt lat="44.56237" lon="6.21484">
        <ele>846.20001220703</ele>
        <time>2016-07-13T08:10:43.000Z</time>
      </trkpt>
      <trkpt lat="44.56229" lon="6.21475">
        <ele>845</ele>
        <time>2016-07-13T08:10:50.000Z</time>
      </trkpt>
      <trkpt lat="44.56222" lon="6.21465">
        <ele>843.79998779297</ele>
        <time>2016-07-13T08:10:56.000Z</time>
      </trkpt>
      <trkpt lat="44.56219" lon="6.21454">
        <ele>843.20001220703</ele>
        <time>2016-07-13T08:11:02.000Z</time>
      </trkpt>
      <trkpt lat="44.56213" lon="6.2144">
        <ele>842.20001220703</ele>
        <time>2016-07-13T08:11:10.000Z</time>
      </trkpt>
      <trkpt lat="44.56203" lon="6.21425">
        <ele>840.59997558594</ele>
        <time>2016-07-13T08:11:19.000Z</time>
      </trkpt>
      <trkpt lat="44.56199" lon="6.21415">
        <ele>840</ele>
        <time>2016-07-13T08:11:24.000Z</time>
      </trkpt>
      <trkpt lat="44.56192" lon="6.21403">
        <ele>839.20001220703</ele>
        <time>2016-07-13T08:11:31.000Z</time>
      </trkpt>
      <trkpt lat="44.5619" lon="6.21391">
        <ele>838.79998779297</ele>
        <time>2016-07-13T08:11:37.000Z</time>
      </trkpt>
      <trkpt lat="44.56185" lon="6.21377">
        <ele>838.20001220703</ele>
        <time>2016-07-13T08:11:44.000Z</time>
      </trkpt>
      <trkpt lat="44.56173" lon="6.21367">
        <ele>837</ele>
        <time>2016-07-13T08:11:53.000Z</time>
      </trkpt>
      <trkpt lat="44.56147" lon="6.21354">
        <ele>834.20001220703</ele>
        <time>2016-07-13T08:12:12.000Z</time>
      </trkpt>
      <trkpt lat="44.56145" lon="6.21341">
        <ele>834</ele>
        <time>2016-07-13T08:12:18.000Z</time>
      </trkpt>
      <trkpt lat="44.56149" lon="6.21323">
        <ele>834.20001220703</ele>
        <time>2016-07-13T08:12:27.000Z</time>
      </trkpt>
      <trkpt lat="44.56152" lon="6.21304">
        <ele>834.40002441406</ele>
        <time>2016-07-13T08:12:36.000Z</time>
      </trkpt>
      <trkpt lat="44.56157" lon="6.21286">
        <ele>835</ele>
        <time>2016-07-13T08:12:45.000Z</time>
      </trkpt>
      <trkpt lat="44.56161" lon="6.21267">
        <ele>835.59997558594</ele>
        <time>2016-07-13T08:12:54.000Z</time>
      </trkpt>
      <trkpt lat="44.56161" lon="6.21265">
        <ele>835.59997558594</ele>
        <time>2016-07-13T08:12:55.000Z</time>
      </trkpt>
      <trkpt lat="44.56163" lon="6.21264">
        <ele>835.79998779297</ele>
        <time>2016-07-13T08:12:59.000Z</time>
      </trkpt>
      <trkpt lat="44.56159" lon="6.21258">
        <ele>835.40002441406</ele>
        <time>2016-07-13T08:13:12.000Z</time>
      </trkpt>
      <trkpt lat="44.56153" lon="6.21243">
        <ele>835</ele>
        <time>2016-07-13T08:13:20.000Z</time>
      </trkpt>
      <trkpt lat="44.56146" lon="6.21222">
        <ele>834.40002441406</ele>
        <time>2016-07-13T08:13:30.000Z</time>
      </trkpt>
      <trkpt lat="44.56138" lon="6.212">
        <ele>834</ele>
        <time>2016-07-13T08:13:41.000Z</time>
      </trkpt>
      <trkpt lat="44.56132" lon="6.21186">
        <ele>833.59997558594</ele>
        <time>2016-07-13T08:13:48.000Z</time>
      </trkpt>
      <trkpt lat="44.56128" lon="6.21177">
        <ele>833.40002441406</ele>
        <time>2016-07-13T08:13:53.000Z</time>
      </trkpt>
      <trkpt lat="44.56128" lon="6.21175">
        <ele>833.59997558594</ele>
        <time>2016-07-13T08:13:54.000Z</time>
      </trkpt>
      <trkpt lat="44.5613" lon="6.2117">
        <ele>833.79998779297</ele>
        <time>2016-07-13T08:13:57.000Z</time>
      </trkpt>
      <trkpt lat="44.56143" lon="6.21151">
        <ele>834.59997558594</ele>
        <time>2016-07-13T08:14:09.000Z</time>
      </trkpt>
      <trkpt lat="44.56144" lon="6.2115">
        <ele>834.59997558594</ele>
        <time>2016-07-13T08:14:10.000Z</time>
      </trkpt>
      <trkpt lat="44.5615" lon="6.21138">
        <ele>835</ele>
        <time>2016-07-13T08:14:19.000Z</time>
      </trkpt>
      <trkpt lat="44.56147" lon="6.21126">
        <ele>834.79998779297</ele>
        <time>2016-07-13T08:14:30.000Z</time>
      </trkpt>
      <trkpt lat="44.56143" lon="6.21125">
        <ele>834.59997558594</ele>
        <time>2016-07-13T08:14:35.000Z</time>
      </trkpt>
      <trkpt lat="44.56134" lon="6.21125">
        <ele>834</ele>
        <time>2016-07-13T08:14:42.000Z</time>
      </trkpt>
      <trkpt lat="44.56125" lon="6.21121">
        <ele>833.40002441406</ele>
        <time>2016-07-13T08:14:50.000Z</time>
      </trkpt>
      <trkpt lat="44.56117" lon="6.21115">
        <ele>833</ele>
        <time>2016-07-13T08:14:57.000Z</time>
      </trkpt>
      <trkpt lat="44.56104" lon="6.21114">
        <ele>832.40002441406</ele>
        <time>2016-07-13T08:15:14.000Z</time>
      </trkpt>
      <trkpt lat="44.56099" lon="6.21114">
        <ele>832.20001220703</ele>
        <time>2016-07-13T08:15:16.000Z</time>
      </trkpt>
      <trkpt lat="44.56095" lon="6.21112">
        <ele>832</ele>
        <time>2016-07-13T08:15:23.000Z</time>
      </trkpt>
      <trkpt lat="44.56087" lon="6.21111">
        <ele>831.59997558594</ele>
        <time>2016-07-13T08:15:31.000Z</time>
      </trkpt>
      <trkpt lat="44.56073" lon="6.21112">
        <ele>830.79998779297</ele>
        <time>2016-07-13T08:15:40.000Z</time>
      </trkpt>
      <trkpt lat="44.56059" lon="6.21112">
        <ele>830.20001220703</ele>
        <time>2016-07-13T08:15:49.000Z</time>
      </trkpt>
      <trkpt lat="44.56045" lon="6.21114">
        <ele>829.59997558594</ele>
        <time>2016-07-13T08:15:58.000Z</time>
      </trkpt>
      <trkpt lat="44.56033" lon="6.21114">
        <ele>829</ele>
        <time>2016-07-13T08:16:06.000Z</time>
      </trkpt>
      <trkpt lat="44.56015" lon="6.21111">
        <ele>827.79998779297</ele>
        <time>2016-07-13T08:16:18.000Z</time>
      </trkpt>
      <trkpt lat="44.56003" lon="6.21106">
        <ele>827</ele>
        <time>2016-07-13T08:16:26.000Z</time>
      </trkpt>
      <trkpt lat="44.55992" lon="6.2111">
        <ele>826.59997558594</ele>
        <time>2016-07-13T08:16:34.000Z</time>
      </trkpt>
      <trkpt lat="44.55982" lon="6.21112">
        <ele>826</ele>
        <time>2016-07-13T08:16:41.000Z</time>
      </trkpt>
      <trkpt lat="44.55971" lon="6.21119">
        <ele>825.59997558594</ele>
        <time>2016-07-13T08:16:49.000Z</time>
      </trkpt>
      <trkpt lat="44.55958" lon="6.21119">
        <ele>825</ele>
        <time>2016-07-13T08:16:57.000Z</time>
      </trkpt>
      <trkpt lat="44.55948" lon="6.21115">
        <ele>824.40002441406</ele>
        <time>2016-07-13T08:17:04.000Z</time>
      </trkpt>
      <trkpt lat="44.55931" lon="6.21106">
        <ele>823.40002441406</ele>
        <time>2016-07-13T08:17:16.000Z</time>
      </trkpt>
      <trkpt lat="44.55921" lon="6.21101">
        <ele>822.59997558594</ele>
        <time>2016-07-13T08:17:23.000Z</time>
      </trkpt>
      <trkpt lat="44.55907" lon="6.21099">
        <ele>821.79998779297</ele>
        <time>2016-07-13T08:17:32.000Z</time>
      </trkpt>
      <trkpt lat="44.5589" lon="6.21098">
        <ele>821</ele>
        <time>2016-07-13T08:17:43.000Z</time>
      </trkpt>
      <trkpt lat="44.55879" lon="6.21096">
        <ele>820.40002441406</ele>
        <time>2016-07-13T08:17:50.000Z</time>
      </trkpt>
      <trkpt lat="44.55864" lon="6.21092">
        <ele>819.59997558594</ele>
        <time>2016-07-13T08:18:00.000Z</time>
      </trkpt>
      <trkpt lat="44.55832" lon="6.21071">
        <ele>818</ele>
        <time>2016-07-13T08:18:22.000Z</time>
      </trkpt>
      <trkpt lat="44.55826" lon="6.21064">
        <ele>817.59997558594</ele>
        <time>2016-07-13T08:18:28.000Z</time>
      </trkpt>
      <trkpt lat="44.55818" lon="6.21054">
        <ele>817</ele>
        <time>2016-07-13T08:18:34.000Z</time>
      </trkpt>
      <trkpt lat="44.55806" lon="6.21041">
        <ele>816</ele>
        <time>2016-07-13T08:18:43.000Z</time>
      </trkpt>
      <trkpt lat="44.55796" lon="6.21041">
        <ele>815.59997558594</ele>
        <time>2016-07-13T08:18:49.000Z</time>
      </trkpt>
      <trkpt lat="44.55782" lon="6.21039">
        <ele>815</ele>
        <time>2016-07-13T08:18:58.000Z</time>
      </trkpt>
      <trkpt lat="44.55751" lon="6.21024">
        <ele>813</ele>
        <time>2016-07-13T08:19:19.000Z</time>
      </trkpt>
      <trkpt lat="44.55735" lon="6.21013">
        <ele>811.79998779297</ele>
        <time>2016-07-13T08:19:30.000Z</time>
      </trkpt>
      <trkpt lat="44.55729" lon="6.20998">
        <ele>811</ele>
        <time>2016-07-13T08:19:38.000Z</time>
      </trkpt>
      <trkpt lat="44.55724" lon="6.20986">
        <ele>810.40002441406</ele>
        <time>2016-07-13T08:19:45.000Z</time>
      </trkpt>
      <trkpt lat="44.55713" lon="6.20975">
        <ele>809.59997558594</ele>
        <time>2016-07-13T08:19:54.000Z</time>
      </trkpt>
      <trkpt lat="44.55703" lon="6.2096">
        <ele>809.59997558594</ele>
        <time>2016-07-13T08:20:03.000Z</time>
      </trkpt>
      <trkpt lat="44.55691" lon="6.20932">
        <ele>809.79998779297</ele>
        <time>2016-07-13T08:20:19.000Z</time>
      </trkpt>
      <trkpt lat="44.5569" lon="6.20917">
        <ele>810.20001220703</ele>
        <time>2016-07-13T08:20:26.000Z</time>
      </trkpt>
      <trkpt lat="44.55689" lon="6.209">
        <ele>810.59997558594</ele>
        <time>2016-07-13T08:20:34.000Z</time>
      </trkpt>
      <trkpt lat="44.55685" lon="6.20883">
        <ele>810.59997558594</ele>
        <time>2016-07-13T08:20:42.000Z</time>
      </trkpt>
      <trkpt lat="44.55681" lon="6.20864">
        <ele>810.40002441406</ele>
        <time>2016-07-13T08:20:51.000Z</time>
      </trkpt>
      <trkpt lat="44.55674" lon="6.20841">
        <ele>810</ele>
        <time>2016-07-13T08:21:02.000Z</time>
      </trkpt>
      <trkpt lat="44.55665" lon="6.20828">
        <ele>809.79998779297</ele>
        <time>2016-07-13T08:21:10.000Z</time>
      </trkpt>
      <trkpt lat="44.55648" lon="6.20812">
        <ele>809.40002441406</ele>
        <time>2016-07-13T08:21:23.000Z</time>
      </trkpt>
      <trkpt lat="44.55633" lon="6.208">
        <ele>808.40002441406</ele>
        <time>2016-07-13T08:21:34.000Z</time>
      </trkpt>
      <trkpt lat="44.5562" lon="6.20787">
        <ele>807.59997558594</ele>
        <time>2016-07-13T08:21:44.000Z</time>
      </trkpt>
      <trkpt lat="44.55609" lon="6.20773">
        <ele>806.40002441406</ele>
        <time>2016-07-13T08:21:53.000Z</time>
      </trkpt>
      <trkpt lat="44.55592" lon="6.20761">
        <ele>805.40002441406</ele>
        <time>2016-07-13T08:22:05.000Z</time>
      </trkpt>
      <trkpt lat="44.55577" lon="6.20747">
        <ele>804.20001220703</ele>
        <time>2016-07-13T08:22:17.000Z</time>
      </trkpt>
      <trkpt lat="44.55566" lon="6.2074">
        <ele>803.40002441406</ele>
        <time>2016-07-13T08:22:25.000Z</time>
      </trkpt>
      <trkpt lat="44.55552" lon="6.20733">
        <ele>802.59997558594</ele>
        <time>2016-07-13T08:22:34.000Z</time>
      </trkpt>
      <trkpt lat="44.55537" lon="6.20726">
        <ele>802</ele>
        <time>2016-07-13T08:22:44.000Z</time>
      </trkpt>
      <trkpt lat="44.55526" lon="6.20717">
        <ele>801.40002441406</ele>
        <time>2016-07-13T08:22:53.000Z</time>
      </trkpt>
      <trkpt lat="44.55504" lon="6.20699">
        <ele>800.20001220703</ele>
        <time>2016-07-13T08:23:10.000Z</time>
      </trkpt>
      <trkpt lat="44.55493" lon="6.20686">
        <ele>799.40002441406</ele>
        <time>2016-07-13T08:23:19.000Z</time>
      </trkpt>
      <trkpt lat="44.55481" lon="6.20676">
        <ele>798.79998779297</ele>
        <time>2016-07-13T08:23:28.000Z</time>
      </trkpt>
      <trkpt lat="44.55468" lon="6.20672">
        <ele>798</ele>
        <time>2016-07-13T08:23:36.000Z</time>
      </trkpt>
      <trkpt lat="44.55452" lon="6.20669">
        <ele>797</ele>
        <time>2016-07-13T08:23:46.000Z</time>
      </trkpt>
      <trkpt lat="44.55439" lon="6.20668">
        <ele>796.20001220703</ele>
        <time>2016-07-13T08:23:54.000Z</time>
      </trkpt>
      <trkpt lat="44.55437" lon="6.20668">
        <ele>796.20001220703</ele>
        <time>2016-07-13T08:23:55.000Z</time>
      </trkpt>
      <trkpt lat="44.55429" lon="6.20672">
        <ele>795.59997558594</ele>
        <time>2016-07-13T08:24:01.000Z</time>
      </trkpt>
      <trkpt lat="44.55407" lon="6.20668">
        <ele>794.40002441406</ele>
        <time>2016-07-13T08:24:14.000Z</time>
      </trkpt>
      <trkpt lat="44.55397" lon="6.20665">
        <ele>793.79998779297</ele>
        <time>2016-07-13T08:24:21.000Z</time>
      </trkpt>
      <trkpt lat="44.55383" lon="6.20662">
        <ele>793</ele>
        <time>2016-07-13T08:24:30.000Z</time>
      </trkpt>
      <trkpt lat="44.55367" lon="6.20657">
        <ele>792.40002441406</ele>
        <time>2016-07-13T08:24:40.000Z</time>
      </trkpt>
      <trkpt lat="44.55356" lon="6.20654">
        <ele>792.20001220703</ele>
        <time>2016-07-13T08:24:49.000Z</time>
      </trkpt>
      <trkpt lat="44.55351" lon="6.20652">
        <ele>792</ele>
        <time>2016-07-13T08:25:01.000Z</time>
      </trkpt>
      <trkpt lat="44.55331" lon="6.20652">
        <ele>791.79998779297</ele>
        <time>2016-07-13T08:25:14.000Z</time>
      </trkpt>
      <trkpt lat="44.55325" lon="6.20653">
        <ele>791.79998779297</ele>
        <time>2016-07-13T08:25:18.000Z</time>
      </trkpt>
      <trkpt lat="44.5531" lon="6.20655">
        <ele>791.59997558594</ele>
        <time>2016-07-13T08:25:27.000Z</time>
      </trkpt>
      <trkpt lat="44.55298" lon="6.20656">
        <ele>791.59997558594</ele>
        <time>2016-07-13T08:25:34.000Z</time>
      </trkpt>
      <trkpt lat="44.55282" lon="6.20658">
        <ele>791</ele>
        <time>2016-07-13T08:25:44.000Z</time>
      </trkpt>
      <trkpt lat="44.55271" lon="6.20665">
        <ele>790.79998779297</ele>
        <time>2016-07-13T08:25:51.000Z</time>
      </trkpt>
      <trkpt lat="44.55263" lon="6.20677">
        <ele>790.59997558594</ele>
        <time>2016-07-13T08:25:59.000Z</time>
      </trkpt>
      <trkpt lat="44.55258" lon="6.20681">
        <ele>790.40002441406</ele>
        <time>2016-07-13T08:26:04.000Z</time>
      </trkpt>
      <trkpt lat="44.5525" lon="6.20687">
        <ele>790.20001220703</ele>
        <time>2016-07-13T08:26:11.000Z</time>
      </trkpt>
      <trkpt lat="44.55237" lon="6.20693">
        <ele>789.79998779297</ele>
        <time>2016-07-13T08:26:20.000Z</time>
      </trkpt>
      <trkpt lat="44.55227" lon="6.20693">
        <ele>789.59997558594</ele>
        <time>2016-07-13T08:26:26.000Z</time>
      </trkpt>
      <trkpt lat="44.55214" lon="6.20696">
        <ele>789</ele>
        <time>2016-07-13T08:26:34.000Z</time>
      </trkpt>
      <trkpt lat="44.55203" lon="6.20703">
        <ele>788.79998779297</ele>
        <time>2016-07-13T08:26:42.000Z</time>
      </trkpt>
      <trkpt lat="44.55193" lon="6.20709">
        <ele>788.40002441406</ele>
        <time>2016-07-13T08:26:49.000Z</time>
      </trkpt>
      <trkpt lat="44.55184" lon="6.20713">
        <ele>788.20001220703</ele>
        <time>2016-07-13T08:26:55.000Z</time>
      </trkpt>
      <trkpt lat="44.55172" lon="6.20714">
        <ele>787.79998779297</ele>
        <time>2016-07-13T08:27:02.000Z</time>
      </trkpt>
      <trkpt lat="44.5517" lon="6.20714">
        <ele>787.79998779297</ele>
        <time>2016-07-13T08:27:07.000Z</time>
      </trkpt>
      <trkpt lat="44.55163" lon="6.20716">
        <ele>787.40002441406</ele>
        <time>2016-07-13T08:27:15.000Z</time>
      </trkpt>
      <trkpt lat="44.55146" lon="6.20721">
        <ele>787</ele>
        <time>2016-07-13T08:27:26.000Z</time>
      </trkpt>
      <trkpt lat="44.55134" lon="6.20723">
        <ele>786.59997558594</ele>
        <time>2016-07-13T08:27:34.000Z</time>
      </trkpt>
      <trkpt lat="44.55121" lon="6.20733">
        <ele>786.20001220703</ele>
        <time>2016-07-13T08:27:43.000Z</time>
      </trkpt>
      <trkpt lat="44.55109" lon="6.2074">
        <ele>785.59997558594</ele>
        <time>2016-07-13T08:27:51.000Z</time>
      </trkpt>
      <trkpt lat="44.55088" lon="6.2076">
        <ele>784.59997558594</ele>
        <time>2016-07-13T08:28:07.000Z</time>
      </trkpt>
      <trkpt lat="44.55077" lon="6.20776">
        <ele>784.20001220703</ele>
        <time>2016-07-13T08:28:17.000Z</time>
      </trkpt>
      <trkpt lat="44.55068" lon="6.20785">
        <ele>783.79998779297</ele>
        <time>2016-07-13T08:28:24.000Z</time>
      </trkpt>
      <trkpt lat="44.55054" lon="6.20792">
        <ele>783.40002441406</ele>
        <time>2016-07-13T08:28:34.000Z</time>
      </trkpt>
      <trkpt lat="44.55039" lon="6.20796">
        <ele>783</ele>
        <time>2016-07-13T08:28:43.000Z</time>
      </trkpt>
      <trkpt lat="44.55026" lon="6.20804">
        <ele>782.59997558594</ele>
        <time>2016-07-13T08:28:52.000Z</time>
      </trkpt>
      <trkpt lat="44.55014" lon="6.20812">
        <ele>782.59997558594</ele>
        <time>2016-07-13T08:29:01.000Z</time>
      </trkpt>
      <trkpt lat="44.55004" lon="6.20822">
        <ele>782.20001220703</ele>
        <time>2016-07-13T08:29:09.000Z</time>
      </trkpt>
      <trkpt lat="44.54993" lon="6.20835">
        <ele>781.79998779297</ele>
        <time>2016-07-13T08:29:18.000Z</time>
      </trkpt>
      <trkpt lat="44.5498" lon="6.20842">
        <ele>781.40002441406</ele>
        <time>2016-07-13T08:29:27.000Z</time>
      </trkpt>
      <trkpt lat="44.54966" lon="6.20845">
        <ele>781.20001220703</ele>
        <time>2016-07-13T08:29:36.000Z</time>
      </trkpt>
      <trkpt lat="44.54948" lon="6.20845">
        <ele>780.79998779297</ele>
        <time>2016-07-13T08:29:47.000Z</time>
      </trkpt>
      <trkpt lat="44.54912" lon="6.2085">
        <ele>779.20001220703</ele>
        <time>2016-07-13T08:30:10.000Z</time>
      </trkpt>
      <trkpt lat="44.54897" lon="6.20859">
        <ele>778.59997558594</ele>
        <time>2016-07-13T08:30:20.000Z</time>
      </trkpt>
      <trkpt lat="44.54882" lon="6.20865">
        <ele>778.20001220703</ele>
        <time>2016-07-13T08:30:29.000Z</time>
      </trkpt>
      <trkpt lat="44.54871" lon="6.20865">
        <ele>777.79998779297</ele>
        <time>2016-07-13T08:30:36.000Z</time>
      </trkpt>
      <trkpt lat="44.54861" lon="6.20862">
        <ele>777.40002441406</ele>
        <time>2016-07-13T08:30:43.000Z</time>
      </trkpt>
      <trkpt lat="44.54847" lon="6.20856">
        <ele>777</ele>
        <time>2016-07-13T08:30:52.000Z</time>
      </trkpt>
      <trkpt lat="44.54837" lon="6.20854">
        <ele>776.79998779297</ele>
        <time>2016-07-13T08:30:58.000Z</time>
      </trkpt>
      <trkpt lat="44.54823" lon="6.20857">
        <ele>776.59997558594</ele>
        <time>2016-07-13T08:31:07.000Z</time>
      </trkpt>
      <trkpt lat="44.54805" lon="6.2086">
        <ele>776.40002441406</ele>
        <time>2016-07-13T08:31:18.000Z</time>
      </trkpt>
      <trkpt lat="44.5479" lon="6.20866">
        <ele>776.40002441406</ele>
        <time>2016-07-13T08:31:28.000Z</time>
      </trkpt>
      <trkpt lat="44.54772" lon="6.20874">
        <ele>776.40002441406</ele>
        <time>2016-07-13T08:31:39.000Z</time>
      </trkpt>
      <trkpt lat="44.54759" lon="6.20883">
        <ele>776.40002441406</ele>
        <time>2016-07-13T08:31:48.000Z</time>
      </trkpt>
      <trkpt lat="44.54749" lon="6.20892">
        <ele>776.59997558594</ele>
        <time>2016-07-13T08:31:56.000Z</time>
      </trkpt>
      <trkpt lat="44.54739" lon="6.20895">
        <ele>776.40002441406</ele>
        <time>2016-07-13T08:32:02.000Z</time>
      </trkpt>
      <trkpt lat="44.54737" lon="6.20894">
        <ele>776.40002441406</ele>
        <time>2016-07-13T08:32:03.000Z</time>
      </trkpt>
      <trkpt lat="44.54726" lon="6.20894">
        <ele>776.20001220703</ele>
        <time>2016-07-13T08:32:11.000Z</time>
      </trkpt>
      <trkpt lat="44.54713" lon="6.20892">
        <ele>776</ele>
        <time>2016-07-13T08:32:19.000Z</time>
      </trkpt>
      <trkpt lat="44.54694" lon="6.20885">
        <ele>775.79998779297</ele>
        <time>2016-07-13T08:32:31.000Z</time>
      </trkpt>
      <trkpt lat="44.54676" lon="6.20884">
        <ele>775.59997558594</ele>
        <time>2016-07-13T08:32:42.000Z</time>
      </trkpt>
      <trkpt lat="44.54659" lon="6.2089">
        <ele>775.40002441406</ele>
        <time>2016-07-13T08:32:53.000Z</time>
      </trkpt>
      <trkpt lat="44.54648" lon="6.20893">
        <ele>775.40002441406</ele>
        <time>2016-07-13T08:33:01.000Z</time>
      </trkpt>
      <trkpt lat="44.54638" lon="6.20893">
        <ele>775.20001220703</ele>
        <time>2016-07-13T08:33:07.000Z</time>
      </trkpt>
      <trkpt lat="44.54624" lon="6.20893">
        <ele>775</ele>
        <time>2016-07-13T08:33:16.000Z</time>
      </trkpt>
      <trkpt lat="44.54612" lon="6.20894">
        <ele>775.59997558594</ele>
        <time>2016-07-13T08:33:23.000Z</time>
      </trkpt>
      <trkpt lat="44.54599" lon="6.20895">
        <ele>777.20001220703</ele>
        <time>2016-07-13T08:33:31.000Z</time>
      </trkpt>
      <trkpt lat="44.54587" lon="6.20895">
        <ele>778.59997558594</ele>
        <time>2016-07-13T08:33:39.000Z</time>
      </trkpt>
      <trkpt lat="44.54582" lon="6.20895">
        <ele>779.20001220703</ele>
        <time>2016-07-13T08:33:42.000Z</time>
      </trkpt>
      <trkpt lat="44.5457" lon="6.20898">
        <ele>780.79998779297</ele>
        <time>2016-07-13T08:33:50.000Z</time>
      </trkpt>
      <trkpt lat="44.54562" lon="6.20901">
        <ele>781.79998779297</ele>
        <time>2016-07-13T08:33:55.000Z</time>
      </trkpt>
      <trkpt lat="44.54556" lon="6.20906">
        <ele>782.79998779297</ele>
        <time>2016-07-13T08:34:02.000Z</time>
      </trkpt>
      <trkpt lat="44.54551" lon="6.20906">
        <ele>783.40002441406</ele>
        <time>2016-07-13T08:34:08.000Z</time>
      </trkpt>
      <trkpt lat="44.54541" lon="6.20907">
        <ele>785.20001220703</ele>
        <time>2016-07-13T08:34:14.000Z</time>
      </trkpt>
      <trkpt lat="44.54531" lon="6.20909">
        <ele>788</ele>
        <time>2016-07-13T08:34:20.000Z</time>
      </trkpt>
      <trkpt lat="44.54521" lon="6.20907">
        <ele>789.40002441406</ele>
        <time>2016-07-13T08:34:26.000Z</time>
      </trkpt>
      <trkpt lat="44.54509" lon="6.20901">
        <ele>790.59997558594</ele>
        <time>2016-07-13T08:34:34.000Z</time>
      </trkpt>
      <trkpt lat="44.54507" lon="6.20899">
        <ele>790.79998779297</ele>
        <time>2016-07-13T08:34:39.000Z</time>
      </trkpt>
      <trkpt lat="44.54505" lon="6.20897">
        <ele>790.79998779297</ele>
        <time>2016-07-13T08:34:57.000Z</time>
      </trkpt>
      <trkpt lat="44.54506" lon="6.20902">
        <ele>791.59997558594</ele>
        <time>2016-07-13T08:35:07.000Z</time>
      </trkpt>
      <trkpt lat="44.54513" lon="6.20907">
        <ele>791.20001220703</ele>
        <time>2016-07-13T08:35:13.000Z</time>
      </trkpt>
      <trkpt lat="44.54525" lon="6.20914">
        <ele>789.79998779297</ele>
        <time>2016-07-13T08:35:22.000Z</time>
      </trkpt>
      <trkpt lat="44.54533" lon="6.20922">
        <ele>789.59997558594</ele>
        <time>2016-07-13T08:35:30.000Z</time>
      </trkpt>
      <trkpt lat="44.54541" lon="6.20933">
        <ele>789.59997558594</ele>
        <time>2016-07-13T08:35:38.000Z</time>
      </trkpt>
      <trkpt lat="44.54547" lon="6.20947">
        <ele>790.40002441406</ele>
        <time>2016-07-13T08:35:46.000Z</time>
      </trkpt>
      <trkpt lat="44.54547" lon="6.20949">
        <ele>790.79998779297</ele>
        <time>2016-07-13T08:35:47.000Z</time>
      </trkpt>
      <trkpt lat="44.54542" lon="6.20955">
        <ele>793</ele>
        <time>2016-07-13T08:35:52.000Z</time>
      </trkpt>
      <trkpt lat="44.54533" lon="6.20954">
        <ele>795</ele>
        <time>2016-07-13T08:36:00.000Z</time>
      </trkpt>
      <trkpt lat="44.54525" lon="6.20951">
        <ele>796</ele>
        <time>2016-07-13T08:36:06.000Z</time>
      </trkpt>
      <trkpt lat="44.54517" lon="6.20956">
        <ele>798.59997558594</ele>
        <time>2016-07-13T08:36:13.000Z</time>
      </trkpt>
      <trkpt lat="44.54515" lon="6.20959">
        <ele>799.40002441406</ele>
        <time>2016-07-13T08:36:15.000Z</time>
      </trkpt>
      <trkpt lat="44.54514" lon="6.20971">
        <ele>801.40002441406</ele>
        <time>2016-07-13T08:36:22.000Z</time>
      </trkpt>
      <trkpt lat="44.54517" lon="6.2098">
        <ele>802.40002441406</ele>
        <time>2016-07-13T08:36:28.000Z</time>
      </trkpt>
      <trkpt lat="44.54518" lon="6.20988">
        <ele>803.40002441406</ele>
        <time>2016-07-13T08:36:32.000Z</time>
      </trkpt>
      <trkpt lat="44.5452" lon="6.21003">
        <ele>805.79998779297</ele>
        <time>2016-07-13T08:36:40.000Z</time>
      </trkpt>
      <trkpt lat="44.54522" lon="6.21019">
        <ele>808</ele>
        <time>2016-07-13T08:36:48.000Z</time>
      </trkpt>
      <trkpt lat="44.54522" lon="6.21034">
        <ele>810.40002441406</ele>
        <time>2016-07-13T08:36:56.000Z</time>
      </trkpt>
      <trkpt lat="44.54525" lon="6.21055">
        <ele>813</ele>
        <time>2016-07-13T08:37:07.000Z</time>
      </trkpt>
      <trkpt lat="44.54527" lon="6.2107">
        <ele>814.20001220703</ele>
        <time>2016-07-13T08:37:16.000Z</time>
      </trkpt>
      <trkpt lat="44.54527" lon="6.21071">
        <ele>814.40002441406</ele>
        <time>2016-07-13T08:37:17.000Z</time>
      </trkpt>
      <trkpt lat="44.54528" lon="6.21083">
        <ele>816.20001220703</ele>
        <time>2016-07-13T08:37:23.000Z</time>
      </trkpt>
      <trkpt lat="44.54529" lon="6.21085">
        <ele>816.59997558594</ele>
        <time>2016-07-13T08:37:24.000Z</time>
      </trkpt>
      <trkpt lat="44.54534" lon="6.21096">
        <ele>818.20001220703</ele>
        <time>2016-07-13T08:37:31.000Z</time>
      </trkpt>
      <trkpt lat="44.54535" lon="6.21097">
        <ele>818.40002441406</ele>
        <time>2016-07-13T08:37:32.000Z</time>
      </trkpt>
      <trkpt lat="44.54539" lon="6.21109">
        <ele>818.79998779297</ele>
        <time>2016-07-13T08:37:39.000Z</time>
      </trkpt>
      <trkpt lat="44.54544" lon="6.21122">
        <ele>819</ele>
        <time>2016-07-13T08:37:46.000Z</time>
      </trkpt>
      <trkpt lat="44.54548" lon="6.21138">
        <ele>820.40002441406</ele>
        <time>2016-07-13T08:37:54.000Z</time>
      </trkpt>
      <trkpt lat="44.54553" lon="6.21152">
        <ele>820.59997558594</ele>
        <time>2016-07-13T08:38:02.000Z</time>
      </trkpt>
      <trkpt lat="44.54559" lon="6.21179">
        <ele>822.40002441406</ele>
        <time>2016-07-13T08:38:18.000Z</time>
      </trkpt>
      <trkpt lat="44.54561" lon="6.2119">
        <ele>823.40002441406</ele>
        <time>2016-07-13T08:38:24.000Z</time>
      </trkpt>
      <trkpt lat="44.54561" lon="6.21193">
        <ele>823.79998779297</ele>
        <time>2016-07-13T08:38:26.000Z</time>
      </trkpt>
      <trkpt lat="44.54561" lon="6.21201">
        <ele>824.79998779297</ele>
        <time>2016-07-13T08:38:30.000Z</time>
      </trkpt>
      <trkpt lat="44.54562" lon="6.21211">
        <ele>826</ele>
        <time>2016-07-13T08:38:36.000Z</time>
      </trkpt>
      <trkpt lat="44.54565" lon="6.21217">
        <ele>825.79998779297</ele>
        <time>2016-07-13T08:38:40.000Z</time>
      </trkpt>
      <trkpt lat="44.54569" lon="6.21221">
        <ele>825.20001220703</ele>
        <time>2016-07-13T08:38:43.000Z</time>
      </trkpt>
      <trkpt lat="44.54573" lon="6.21229">
        <ele>825</ele>
        <time>2016-07-13T08:38:49.000Z</time>
      </trkpt>
      <trkpt lat="44.54578" lon="6.21244">
        <ele>826.20001220703</ele>
        <time>2016-07-13T08:38:57.000Z</time>
      </trkpt>
      <trkpt lat="44.54578" lon="6.21248">
        <ele>826.59997558594</ele>
        <time>2016-07-13T08:38:59.000Z</time>
      </trkpt>
      <trkpt lat="44.54577" lon="6.21257">
        <ele>828.59997558594</ele>
        <time>2016-07-13T08:39:04.000Z</time>
      </trkpt>
      <trkpt lat="44.54576" lon="6.21271">
        <ele>831.59997558594</ele>
        <time>2016-07-13T08:39:12.000Z</time>
      </trkpt>
      <trkpt lat="44.54575" lon="6.21283">
        <ele>834.20001220703</ele>
        <time>2016-07-13T08:39:27.000Z</time>
      </trkpt>
      <trkpt lat="44.54579" lon="6.21292">
        <ele>834.79998779297</ele>
        <time>2016-07-13T08:39:32.000Z</time>
      </trkpt>
      <trkpt lat="44.5458" lon="6.21293">
        <ele>834.79998779297</ele>
        <time>2016-07-13T08:39:33.000Z</time>
      </trkpt>
      <trkpt lat="44.54583" lon="6.21303">
        <ele>835.59997558594</ele>
        <time>2016-07-13T08:39:38.000Z</time>
      </trkpt>
      <trkpt lat="44.54584" lon="6.21307">
        <ele>836</ele>
        <time>2016-07-13T08:39:40.000Z</time>
      </trkpt>
      <trkpt lat="44.54586" lon="6.21313">
        <ele>836.59997558594</ele>
        <time>2016-07-13T08:39:43.000Z</time>
      </trkpt>
      <trkpt lat="44.54591" lon="6.21326">
        <ele>836.59997558594</ele>
        <time>2016-07-13T08:39:50.000Z</time>
      </trkpt>
      <trkpt lat="44.54591" lon="6.21328">
        <ele>836.79998779297</ele>
        <time>2016-07-13T08:39:51.000Z</time>
      </trkpt>
      <trkpt lat="44.54591" lon="6.2133">
        <ele>837</ele>
        <time>2016-07-13T08:39:52.000Z</time>
      </trkpt>
      <trkpt lat="44.54592" lon="6.21343">
        <ele>838.40002441406</ele>
        <time>2016-07-13T08:39:58.000Z</time>
      </trkpt>
      <trkpt lat="44.54595" lon="6.2135">
        <ele>838.40002441406</ele>
        <time>2016-07-13T08:40:02.000Z</time>
      </trkpt>
      <trkpt lat="44.546" lon="6.2136">
        <ele>838.40002441406</ele>
        <time>2016-07-13T08:40:08.000Z</time>
      </trkpt>
      <trkpt lat="44.546" lon="6.21362">
        <ele>838.59997558594</ele>
        <time>2016-07-13T08:40:09.000Z</time>
      </trkpt>
      <trkpt lat="44.546" lon="6.21374">
        <ele>840</ele>
        <time>2016-07-13T08:40:15.000Z</time>
      </trkpt>
      <trkpt lat="44.54602" lon="6.21386">
        <ele>841.40002441406</ele>
        <time>2016-07-13T08:40:21.000Z</time>
      </trkpt>
      <trkpt lat="44.54602" lon="6.21389">
        <ele>841.79998779297</ele>
        <time>2016-07-13T08:40:22.000Z</time>
      </trkpt>
      <trkpt lat="44.54603" lon="6.21398">
        <ele>842.59997558594</ele>
        <time>2016-07-13T08:40:27.000Z</time>
      </trkpt>
      <trkpt lat="44.54603" lon="6.214">
        <ele>842.79998779297</ele>
        <time>2016-07-13T08:40:28.000Z</time>
      </trkpt>
      <trkpt lat="44.54604" lon="6.21415">
        <ele>844.20001220703</ele>
        <time>2016-07-13T08:40:35.000Z</time>
      </trkpt>
      <trkpt lat="44.54604" lon="6.21432">
        <ele>846</ele>
        <time>2016-07-13T08:40:43.000Z</time>
      </trkpt>
      <trkpt lat="44.5461" lon="6.21447">
        <ele>845.59997558594</ele>
        <time>2016-07-13T08:40:51.000Z</time>
      </trkpt>
      <trkpt lat="44.5461" lon="6.21459">
        <ele>846.59997558594</ele>
        <time>2016-07-13T08:40:57.000Z</time>
      </trkpt>
      <trkpt lat="44.54611" lon="6.2147">
        <ele>847.40002441406</ele>
        <time>2016-07-13T08:41:04.000Z</time>
      </trkpt>
      <trkpt lat="44.54612" lon="6.21472">
        <ele>847.59997558594</ele>
        <time>2016-07-13T08:41:05.000Z</time>
      </trkpt>
      <trkpt lat="44.54617" lon="6.21489">
        <ele>847.40002441406</ele>
        <time>2016-07-13T08:41:13.000Z</time>
      </trkpt>
      <trkpt lat="44.54619" lon="6.21503">
        <ele>848.40002441406</ele>
        <time>2016-07-13T08:41:20.000Z</time>
      </trkpt>
      <trkpt lat="44.54617" lon="6.21514">
        <ele>850.20001220703</ele>
        <time>2016-07-13T08:41:26.000Z</time>
      </trkpt>
      <trkpt lat="44.54619" lon="6.21528">
        <ele>851.59997558594</ele>
        <time>2016-07-13T08:41:33.000Z</time>
      </trkpt>
      <trkpt lat="44.54622" lon="6.21541">
        <ele>852</ele>
        <time>2016-07-13T08:41:40.000Z</time>
      </trkpt>
      <trkpt lat="44.54624" lon="6.21558">
        <ele>853.59997558594</ele>
        <time>2016-07-13T08:41:48.000Z</time>
      </trkpt>
      <trkpt lat="44.54624" lon="6.21562">
        <ele>854</ele>
        <time>2016-07-13T08:41:50.000Z</time>
      </trkpt>
      <trkpt lat="44.54626" lon="6.21577">
        <ele>855.20001220703</ele>
        <time>2016-07-13T08:41:58.000Z</time>
      </trkpt>
      <trkpt lat="44.54628" lon="6.21598">
        <ele>857.20001220703</ele>
        <time>2016-07-13T08:42:08.000Z</time>
      </trkpt>
      <trkpt lat="44.54628" lon="6.2162">
        <ele>860.20001220703</ele>
        <time>2016-07-13T08:42:19.000Z</time>
      </trkpt>
      <trkpt lat="44.54631" lon="6.21638">
        <ele>861.59997558594</ele>
        <time>2016-07-13T08:42:28.000Z</time>
      </trkpt>
      <trkpt lat="44.54633" lon="6.21646">
        <ele>862</ele>
        <time>2016-07-13T08:42:34.000Z</time>
      </trkpt>
      <trkpt lat="44.54636" lon="6.2166">
        <ele>863.59997558594</ele>
        <time>2016-07-13T08:42:42.000Z</time>
      </trkpt>
      <trkpt lat="44.54636" lon="6.21673">
        <ele>865.40002441406</ele>
        <time>2016-07-13T08:42:49.000Z</time>
      </trkpt>
      <trkpt lat="44.54641" lon="6.21691">
        <ele>866.20001220703</ele>
        <time>2016-07-13T08:42:58.000Z</time>
      </trkpt>
      <trkpt lat="44.54645" lon="6.217">
        <ele>866.40002441406</ele>
        <time>2016-07-13T08:43:03.000Z</time>
      </trkpt>
      <trkpt lat="44.5465" lon="6.21707">
        <ele>865.79998779297</ele>
        <time>2016-07-13T08:43:08.000Z</time>
      </trkpt>
      <trkpt lat="44.54655" lon="6.21726">
        <ele>866.79998779297</ele>
        <time>2016-07-13T08:43:18.000Z</time>
      </trkpt>
      <trkpt lat="44.54655" lon="6.21739">
        <ele>869</ele>
        <time>2016-07-13T08:43:25.000Z</time>
      </trkpt>
      <trkpt lat="44.54656" lon="6.21756">
        <ele>871.59997558594</ele>
        <time>2016-07-13T08:43:33.000Z</time>
      </trkpt>
      <trkpt lat="44.54663" lon="6.21771">
        <ele>872.59997558594</ele>
        <time>2016-07-13T08:43:42.000Z</time>
      </trkpt>
      <trkpt lat="44.54667" lon="6.21782">
        <ele>873.20001220703</ele>
        <time>2016-07-13T08:43:49.000Z</time>
      </trkpt>
      <trkpt lat="44.54669" lon="6.21795">
        <ele>873.79998779297</ele>
        <time>2016-07-13T08:43:56.000Z</time>
      </trkpt>
      <trkpt lat="44.54674" lon="6.21807">
        <ele>874</ele>
        <time>2016-07-13T08:44:04.000Z</time>
      </trkpt>
      <trkpt lat="44.54676" lon="6.21816">
        <ele>874.79998779297</ele>
        <time>2016-07-13T08:44:09.000Z</time>
      </trkpt>
      <trkpt lat="44.54677" lon="6.21819">
        <ele>875</ele>
        <time>2016-07-13T08:44:11.000Z</time>
      </trkpt>
      <trkpt lat="44.54679" lon="6.21826">
        <ele>875.79998779297</ele>
        <time>2016-07-13T08:44:15.000Z</time>
      </trkpt>
      <trkpt lat="44.54688" lon="6.21841">
        <ele>876.79998779297</ele>
        <time>2016-07-13T08:44:25.000Z</time>
      </trkpt>
      <trkpt lat="44.54696" lon="6.21858">
        <ele>878</ele>
        <time>2016-07-13T08:44:35.000Z</time>
      </trkpt>
      <trkpt lat="44.54702" lon="6.21874">
        <ele>879.20001220703</ele>
        <time>2016-07-13T08:44:45.000Z</time>
      </trkpt>
      <trkpt lat="44.54706" lon="6.21889">
        <ele>880.79998779297</ele>
        <time>2016-07-13T08:44:54.000Z</time>
      </trkpt>
      <trkpt lat="44.54708" lon="6.21897">
        <ele>881.20001220703</ele>
        <time>2016-07-13T08:44:58.000Z</time>
      </trkpt>
      <trkpt lat="44.5471" lon="6.21905">
        <ele>881.20001220703</ele>
        <time>2016-07-13T08:45:03.000Z</time>
      </trkpt>
      <trkpt lat="44.5471" lon="6.21922">
        <ele>882.20001220703</ele>
        <time>2016-07-13T08:45:12.000Z</time>
      </trkpt>
      <trkpt lat="44.54708" lon="6.21935">
        <ele>883</ele>
        <time>2016-07-13T08:45:19.000Z</time>
      </trkpt>
      <trkpt lat="44.54707" lon="6.21952">
        <ele>884.20001220703</ele>
        <time>2016-07-13T08:45:28.000Z</time>
      </trkpt>
      <trkpt lat="44.54707" lon="6.21953">
        <ele>884.20001220703</ele>
        <time>2016-07-13T08:45:29.000Z</time>
      </trkpt>
      <trkpt lat="44.54704" lon="6.21966">
        <ele>885.40002441406</ele>
        <time>2016-07-13T08:45:37.000Z</time>
      </trkpt>
      <trkpt lat="44.54704" lon="6.21967">
        <ele>885.59997558594</ele>
        <time>2016-07-13T08:45:38.000Z</time>
      </trkpt>
      <trkpt lat="44.54702" lon="6.21973">
        <ele>886.40002441406</ele>
        <time>2016-07-13T08:45:42.000Z</time>
      </trkpt>
      <trkpt lat="44.54699" lon="6.21978">
        <ele>886.79998779297</ele>
        <time>2016-07-13T08:45:46.000Z</time>
      </trkpt>
      <trkpt lat="44.54693" lon="6.21988">
        <ele>886.59997558594</ele>
        <time>2016-07-13T08:45:53.000Z</time>
      </trkpt>
      <trkpt lat="44.54686" lon="6.21999">
        <ele>886.20001220703</ele>
        <time>2016-07-13T08:46:01.000Z</time>
      </trkpt>
      <trkpt lat="44.54682" lon="6.22003">
        <ele>885.79998779297</ele>
        <time>2016-07-13T08:46:05.000Z</time>
      </trkpt>
      <trkpt lat="44.5468" lon="6.22006">
        <ele>885.79998779297</ele>
        <time>2016-07-13T08:46:08.000Z</time>
      </trkpt>
      <trkpt lat="44.54678" lon="6.22009">
        <ele>885.59997558594</ele>
        <time>2016-07-13T08:46:18.000Z</time>
      </trkpt>
      <trkpt lat="44.54674" lon="6.22018">
        <ele>885.40002441406</ele>
        <time>2016-07-13T08:46:31.000Z</time>
      </trkpt>
      <trkpt lat="44.54669" lon="6.22029">
        <ele>885</ele>
        <time>2016-07-13T08:46:38.000Z</time>
      </trkpt>
      <trkpt lat="44.54658" lon="6.22046">
        <ele>885.40002441406</ele>
        <time>2016-07-13T08:46:49.000Z</time>
      </trkpt>
      <trkpt lat="44.5465" lon="6.22059">
        <ele>885.59997558594</ele>
        <time>2016-07-13T08:46:58.000Z</time>
      </trkpt>
      <trkpt lat="44.54641" lon="6.22069">
        <ele>884.59997558594</ele>
        <time>2016-07-13T08:47:07.000Z</time>
      </trkpt>
      <trkpt lat="44.5463" lon="6.2207">
        <ele>884.40002441406</ele>
        <time>2016-07-13T08:47:15.000Z</time>
      </trkpt>
      <trkpt lat="44.54625" lon="6.22069">
        <ele>884.40002441406</ele>
        <time>2016-07-13T08:47:18.000Z</time>
      </trkpt>
      <trkpt lat="44.54616" lon="6.22071">
        <ele>885.20001220703</ele>
        <time>2016-07-13T08:47:25.000Z</time>
      </trkpt>
      <trkpt lat="44.54603" lon="6.22078">
        <ele>884.40002441406</ele>
        <time>2016-07-13T08:47:34.000Z</time>
      </trkpt>
      <trkpt lat="44.54594" lon="6.22086">
        <ele>883.79998779297</ele>
        <time>2016-07-13T08:47:42.000Z</time>
      </trkpt>
      <trkpt lat="44.54586" lon="6.22097">
        <ele>883.59997558594</ele>
        <time>2016-07-13T08:47:49.000Z</time>
      </trkpt>
      <trkpt lat="44.54575" lon="6.2211">
        <ele>883.79998779297</ele>
        <time>2016-07-13T08:47:59.000Z</time>
      </trkpt>
      <trkpt lat="44.54563" lon="6.22131">
        <ele>887</ele>
        <time>2016-07-13T08:48:12.000Z</time>
      </trkpt>
      <trkpt lat="44.54555" lon="6.2214">
        <ele>888.59997558594</ele>
        <time>2016-07-13T08:48:19.000Z</time>
      </trkpt>
      <trkpt lat="44.54545" lon="6.22148">
        <ele>889.79998779297</ele>
        <time>2016-07-13T08:48:27.000Z</time>
      </trkpt>
      <trkpt lat="44.54532" lon="6.22159">
        <ele>892.20001220703</ele>
        <time>2016-07-13T08:48:37.000Z</time>
      </trkpt>
      <trkpt lat="44.54522" lon="6.22175">
        <ele>895.20001220703</ele>
        <time>2016-07-13T08:48:47.000Z</time>
      </trkpt>
      <trkpt lat="44.54515" lon="6.22195">
        <ele>898.59997558594</ele>
        <time>2016-07-13T08:48:57.000Z</time>
      </trkpt>
      <trkpt lat="44.54507" lon="6.22211">
        <ele>901</ele>
        <time>2016-07-13T08:49:07.000Z</time>
      </trkpt>
      <trkpt lat="44.54496" lon="6.22223">
        <ele>902</ele>
        <time>2016-07-13T08:49:17.000Z</time>
      </trkpt>
      <trkpt lat="44.54481" lon="6.22232">
        <ele>902.59997558594</ele>
        <time>2016-07-13T08:49:27.000Z</time>
      </trkpt>
      <trkpt lat="44.54466" lon="6.22236">
        <ele>902.79998779297</ele>
        <time>2016-07-13T08:49:38.000Z</time>
      </trkpt>
      <trkpt lat="44.54454" lon="6.22238">
        <ele>903</ele>
        <time>2016-07-13T08:49:47.000Z</time>
      </trkpt>
      <trkpt lat="44.54444" lon="6.22238">
        <ele>902.59997558594</ele>
        <time>2016-07-13T08:49:54.000Z</time>
      </trkpt>
      <trkpt lat="44.54432" lon="6.22241">
        <ele>901.79998779297</ele>
        <time>2016-07-13T08:50:03.000Z</time>
      </trkpt>
      <trkpt lat="44.54423" lon="6.22247">
        <ele>901.59997558594</ele>
        <time>2016-07-13T08:50:11.000Z</time>
      </trkpt>
      <trkpt lat="44.54419" lon="6.22242">
        <ele>900.79998779297</ele>
        <time>2016-07-13T08:50:16.000Z</time>
      </trkpt>
      <trkpt lat="44.54416" lon="6.22241">
        <ele>900.40002441406</ele>
        <time>2016-07-13T08:50:25.000Z</time>
      </trkpt>
      <trkpt lat="44.54414" lon="6.22239">
        <ele>900</ele>
        <time>2016-07-13T08:50:27.000Z</time>
      </trkpt>
      <trkpt lat="44.54402" lon="6.22242">
        <ele>899.40002441406</ele>
        <time>2016-07-13T08:50:37.000Z</time>
      </trkpt>
      <trkpt lat="44.54391" lon="6.22253">
        <ele>899.59997558594</ele>
        <time>2016-07-13T08:50:48.000Z</time>
      </trkpt>
      <trkpt lat="44.54384" lon="6.22266">
        <ele>901.20001220703</ele>
        <time>2016-07-13T08:50:56.000Z</time>
      </trkpt>
      <trkpt lat="44.54375" lon="6.22279">
        <ele>902.59997558594</ele>
        <time>2016-07-13T08:51:05.000Z</time>
      </trkpt>
      <trkpt lat="44.54368" lon="6.22296">
        <ele>904.79998779297</ele>
        <time>2016-07-13T08:51:15.000Z</time>
      </trkpt>
      <trkpt lat="44.54364" lon="6.22299">
        <ele>905.20001220703</ele>
        <time>2016-07-13T08:51:18.000Z</time>
      </trkpt>
      <trkpt lat="44.54358" lon="6.22295">
        <ele>904.79998779297</ele>
        <time>2016-07-13T08:51:23.000Z</time>
      </trkpt>
      <trkpt lat="44.54347" lon="6.22286">
        <ele>903.79998779297</ele>
        <time>2016-07-13T08:51:32.000Z</time>
      </trkpt>
      <trkpt lat="44.54339" lon="6.2228">
        <ele>903</ele>
        <time>2016-07-13T08:51:41.000Z</time>
      </trkpt>
      <trkpt lat="44.54333" lon="6.22279">
        <ele>903</ele>
        <time>2016-07-13T08:52:12.000Z</time>
      </trkpt>
      <trkpt lat="44.54322" lon="6.22276">
        <ele>902.79998779297</ele>
        <time>2016-07-13T08:52:21.000Z</time>
      </trkpt>
      <trkpt lat="44.54317" lon="6.22277">
        <ele>903</ele>
        <time>2016-07-13T08:52:27.000Z</time>
      </trkpt>
      <trkpt lat="44.54316" lon="6.22276">
        <ele>902.79998779297</ele>
        <time>2016-07-13T08:52:34.000Z</time>
      </trkpt>
      <trkpt lat="44.54313" lon="6.22275">
        <ele>902.79998779297</ele>
        <time>2016-07-13T08:52:59.000Z</time>
      </trkpt>
      <trkpt lat="44.54308" lon="6.22274">
        <ele>902.79998779297</ele>
        <time>2016-07-13T08:53:08.000Z</time>
      </trkpt>
      <trkpt lat="44.54307" lon="6.22275">
        <ele>902.79998779297</ele>
        <time>2016-07-13T08:53:45.000Z</time>
      </trkpt>
      <trkpt lat="44.54307" lon="6.22273">
        <ele>902.59997558594</ele>
        <time>2016-07-13T08:54:07.000Z</time>
      </trkpt>
      <trkpt lat="44.54307" lon="6.22274">
        <ele>902.79998779297</ele>
        <time>2016-07-13T08:54:59.000Z</time>
      </trkpt>
      <trkpt lat="44.54307" lon="6.22273">
        <ele>902.59997558594</ele>
        <time>2016-07-13T08:55:04.000Z</time>
      </trkpt>
      <trkpt lat="44.54307" lon="6.22274">
        <ele>902.59997558594</ele>
        <time>2016-07-13T08:55:16.000Z</time>
      </trkpt>
      <trkpt lat="44.54302" lon="6.22276">
        <ele>903</ele>
        <time>2016-07-13T08:55:35.000Z</time>
      </trkpt>
      <trkpt lat="44.54293" lon="6.22281">
        <ele>903.79998779297</ele>
        <time>2016-07-13T08:55:42.000Z</time>
      </trkpt>
      <trkpt lat="44.54283" lon="6.22284">
        <ele>904.40002441406</ele>
        <time>2016-07-13T08:55:49.000Z</time>
      </trkpt>
      <trkpt lat="44.54273" lon="6.22286">
        <ele>904.79998779297</ele>
        <time>2016-07-13T08:55:54.000Z</time>
      </trkpt>
      <trkpt lat="44.54245" lon="6.22286">
        <ele>904.79998779297</ele>
        <time>2016-07-13T08:56:11.000Z</time>
      </trkpt>
      <trkpt lat="44.54231" lon="6.22292">
        <ele>905.20001220703</ele>
        <time>2016-07-13T08:56:21.000Z</time>
      </trkpt>
      <trkpt lat="44.5422" lon="6.22294">
        <ele>905.20001220703</ele>
        <time>2016-07-13T08:56:29.000Z</time>
      </trkpt>
      <trkpt lat="44.5421" lon="6.22292">
        <ele>905</ele>
        <time>2016-07-13T08:56:36.000Z</time>
      </trkpt>
      <trkpt lat="44.54196" lon="6.22283">
        <ele>903.79998779297</ele>
        <time>2016-07-13T08:56:46.000Z</time>
      </trkpt>
      <trkpt lat="44.54185" lon="6.2227">
        <ele>902.40002441406</ele>
        <time>2016-07-13T08:56:56.000Z</time>
      </trkpt>
      <trkpt lat="44.54176" lon="6.22258">
        <ele>901.20001220703</ele>
        <time>2016-07-13T08:57:04.000Z</time>
      </trkpt>
      <trkpt lat="44.54171" lon="6.22248">
        <ele>900.20001220703</ele>
        <time>2016-07-13T08:57:10.000Z</time>
      </trkpt>
      <trkpt lat="44.54162" lon="6.22239">
        <ele>899.20001220703</ele>
        <time>2016-07-13T08:57:17.000Z</time>
      </trkpt>
      <trkpt lat="44.54149" lon="6.22233">
        <ele>898.40002441406</ele>
        <time>2016-07-13T08:57:26.000Z</time>
      </trkpt>
      <trkpt lat="44.54136" lon="6.22234">
        <ele>898.59997558594</ele>
        <time>2016-07-13T08:57:34.000Z</time>
      </trkpt>
      <trkpt lat="44.54119" lon="6.22236">
        <ele>898.59997558594</ele>
        <time>2016-07-13T08:57:45.000Z</time>
      </trkpt>
      <trkpt lat="44.54105" lon="6.22242">
        <ele>901.59997558594</ele>
        <time>2016-07-13T08:57:54.000Z</time>
      </trkpt>
      <trkpt lat="44.54096" lon="6.22247">
        <ele>903.79998779297</ele>
        <time>2016-07-13T08:58:01.000Z</time>
      </trkpt>
      <trkpt lat="44.54087" lon="6.22249">
        <ele>905.79998779297</ele>
        <time>2016-07-13T08:58:08.000Z</time>
      </trkpt>
      <trkpt lat="44.54082" lon="6.22245">
        <ele>906.59997558594</ele>
        <time>2016-07-13T08:58:39.000Z</time>
      </trkpt>
      <trkpt lat="44.5408" lon="6.22231">
        <ele>905.79998779297</ele>
        <time>2016-07-13T08:58:47.000Z</time>
      </trkpt>
      <trkpt lat="44.54075" lon="6.22222">
        <ele>906</ele>
        <time>2016-07-13T08:58:53.000Z</time>
      </trkpt>
      <trkpt lat="44.54066" lon="6.22219">
        <ele>907.59997558594</ele>
        <time>2016-07-13T08:59:00.000Z</time>
      </trkpt>
      <trkpt lat="44.54056" lon="6.22228">
        <ele>910.59997558594</ele>
        <time>2016-07-13T08:59:06.000Z</time>
      </trkpt>
      <trkpt lat="44.54046" lon="6.22231">
        <ele>912.79998779297</ele>
        <time>2016-07-13T08:59:13.000Z</time>
      </trkpt>
      <trkpt lat="44.5404" lon="6.22227">
        <ele>913.59997558594</ele>
        <time>2016-07-13T08:59:18.000Z</time>
      </trkpt>
      <trkpt lat="44.54039" lon="6.22213">
        <ele>912.40002441406</ele>
        <time>2016-07-13T08:59:23.000Z</time>
      </trkpt>
      <trkpt lat="44.5404" lon="6.22211">
        <ele>912</ele>
        <time>2016-07-13T08:59:24.000Z</time>
      </trkpt>
      <trkpt lat="44.54039" lon="6.222">
        <ele>911.20001220703</ele>
        <time>2016-07-13T08:59:30.000Z</time>
      </trkpt>
      <trkpt lat="44.54033" lon="6.22193">
        <ele>912</ele>
        <time>2016-07-13T08:59:36.000Z</time>
      </trkpt>
      <trkpt lat="44.5403" lon="6.22191">
        <ele>912.79998779297</ele>
        <time>2016-07-13T08:59:38.000Z</time>
      </trkpt>
      <trkpt lat="44.5402" lon="6.22185">
        <ele>915.59997558594</ele>
        <time>2016-07-13T08:59:46.000Z</time>
      </trkpt>
      <trkpt lat="44.54008" lon="6.22177">
        <ele>918.79998779297</ele>
        <time>2016-07-13T08:59:55.000Z</time>
      </trkpt>
      <trkpt lat="44.53993" lon="6.22175">
        <ele>923.40002441406</ele>
        <time>2016-07-13T09:00:05.000Z</time>
      </trkpt>
      <trkpt lat="44.53975" lon="6.22154">
        <ele>927.59997558594</ele>
        <time>2016-07-13T09:00:18.000Z</time>
      </trkpt>
      <trkpt lat="44.5397" lon="6.22139">
        <ele>927.40002441406</ele>
        <time>2016-07-13T09:00:25.000Z</time>
      </trkpt>
      <trkpt lat="44.53962" lon="6.22127">
        <ele>928.59997558594</ele>
        <time>2016-07-13T09:00:33.000Z</time>
      </trkpt>
      <trkpt lat="44.5395" lon="6.22121">
        <ele>931.79998779297</ele>
        <time>2016-07-13T09:00:42.000Z</time>
      </trkpt>
      <trkpt lat="44.53944" lon="6.22111">
        <ele>931.79998779297</ele>
        <time>2016-07-13T09:00:48.000Z</time>
      </trkpt>
      <trkpt lat="44.53937" lon="6.22096">
        <ele>931.40002441406</ele>
        <time>2016-07-13T09:00:57.000Z</time>
      </trkpt>
      <trkpt lat="44.53928" lon="6.22076">
        <ele>931.20001220703</ele>
        <time>2016-07-13T09:01:09.000Z</time>
      </trkpt>
      <trkpt lat="44.53922" lon="6.22057">
        <ele>930.40002441406</ele>
        <time>2016-07-13T09:01:20.000Z</time>
      </trkpt>
      <trkpt lat="44.53922" lon="6.2204">
        <ele>929.79998779297</ele>
        <time>2016-07-13T09:01:29.000Z</time>
      </trkpt>
      <trkpt lat="44.53921" lon="6.22024">
        <ele>930</ele>
        <time>2016-07-13T09:01:37.000Z</time>
      </trkpt>
      <trkpt lat="44.53922" lon="6.22011">
        <ele>930.20001220703</ele>
        <time>2016-07-13T09:01:44.000Z</time>
      </trkpt>
      <trkpt lat="44.53921" lon="6.21992">
        <ele>930.79998779297</ele>
        <time>2016-07-13T09:01:54.000Z</time>
      </trkpt>
      <trkpt lat="44.53919" lon="6.21976">
        <ele>931.40002441406</ele>
        <time>2016-07-13T09:02:03.000Z</time>
      </trkpt>
      <trkpt lat="44.53912" lon="6.21965">
        <ele>932.40002441406</ele>
        <time>2016-07-13T09:02:11.000Z</time>
      </trkpt>
      <trkpt lat="44.53901" lon="6.2196">
        <ele>934.20001220703</ele>
        <time>2016-07-13T09:02:17.000Z</time>
      </trkpt>
      <trkpt lat="44.53893" lon="6.21953">
        <ele>935.40002441406</ele>
        <time>2016-07-13T09:02:24.000Z</time>
      </trkpt>
      <trkpt lat="44.5388" lon="6.21947">
        <ele>937.79998779297</ele>
        <time>2016-07-13T09:02:35.000Z</time>
      </trkpt>
      <trkpt lat="44.53865" lon="6.21946">
        <ele>940.59997558594</ele>
        <time>2016-07-13T09:02:46.000Z</time>
      </trkpt>
      <trkpt lat="44.53851" lon="6.2195">
        <ele>941.40002441406</ele>
        <time>2016-07-13T09:02:57.000Z</time>
      </trkpt>
      <trkpt lat="44.53841" lon="6.21959">
        <ele>942</ele>
        <time>2016-07-13T09:03:06.000Z</time>
      </trkpt>
      <trkpt lat="44.53834" lon="6.21977">
        <ele>942.40002441406</ele>
        <time>2016-07-13T09:03:16.000Z</time>
      </trkpt>
      <trkpt lat="44.53827" lon="6.21993">
        <ele>943</ele>
        <time>2016-07-13T09:03:25.000Z</time>
      </trkpt>
      <trkpt lat="44.53815" lon="6.22007">
        <ele>943.59997558594</ele>
        <time>2016-07-13T09:03:35.000Z</time>
      </trkpt>
      <trkpt lat="44.53805" lon="6.22018">
        <ele>944.20001220703</ele>
        <time>2016-07-13T09:03:44.000Z</time>
      </trkpt>
      <trkpt lat="44.53793" lon="6.22027">
        <ele>944.59997558594</ele>
        <time>2016-07-13T09:03:53.000Z</time>
      </trkpt>
      <trkpt lat="44.53782" lon="6.22036">
        <ele>945.40002441406</ele>
        <time>2016-07-13T09:04:03.000Z</time>
      </trkpt>
      <trkpt lat="44.5378" lon="6.22039">
        <ele>945.79998779297</ele>
        <time>2016-07-13T09:04:10.000Z</time>
      </trkpt>
      <trkpt lat="44.53776" lon="6.22035">
        <ele>946.40002441406</ele>
        <time>2016-07-13T09:04:43.000Z</time>
      </trkpt>
      <trkpt lat="44.53769" lon="6.22037">
        <ele>947.40002441406</ele>
        <time>2016-07-13T09:04:49.000Z</time>
      </trkpt>
      <trkpt lat="44.53757" lon="6.22042">
        <ele>948.59997558594</ele>
        <time>2016-07-13T09:04:58.000Z</time>
      </trkpt>
      <trkpt lat="44.53727" lon="6.22048">
        <ele>949.20001220703</ele>
        <time>2016-07-13T09:05:18.000Z</time>
      </trkpt>
      <trkpt lat="44.53713" lon="6.22052">
        <ele>949.40002441406</ele>
        <time>2016-07-13T09:05:27.000Z</time>
      </trkpt>
      <trkpt lat="44.53696" lon="6.22054">
        <ele>950.59997558594</ele>
        <time>2016-07-13T09:05:39.000Z</time>
      </trkpt>
      <trkpt lat="44.53689" lon="6.22061">
        <ele>952.20001220703</ele>
        <time>2016-07-13T09:05:46.000Z</time>
      </trkpt>
      <trkpt lat="44.5368" lon="6.22066">
        <ele>954.59997558594</ele>
        <time>2016-07-13T09:05:54.000Z</time>
      </trkpt>
      <trkpt lat="44.53673" lon="6.22069">
        <ele>956.59997558594</ele>
        <time>2016-07-13T09:06:00.000Z</time>
      </trkpt>
      <trkpt lat="44.53663" lon="6.22078">
        <ele>960.20001220703</ele>
        <time>2016-07-13T09:06:10.000Z</time>
      </trkpt>
      <trkpt lat="44.53657" lon="6.22086">
        <ele>962.20001220703</ele>
        <time>2016-07-13T09:06:16.000Z</time>
      </trkpt>
      <trkpt lat="44.53653" lon="6.22078">
        <ele>962.79998779297</ele>
        <time>2016-07-13T09:06:22.000Z</time>
      </trkpt>
      <trkpt lat="44.53654" lon="6.22075">
        <ele>962.20001220703</ele>
        <time>2016-07-13T09:06:24.000Z</time>
      </trkpt>
      <trkpt lat="44.53658" lon="6.22057">
        <ele>960.40002441406</ele>
        <time>2016-07-13T09:06:34.000Z</time>
      </trkpt>
      <trkpt lat="44.53655" lon="6.22045">
        <ele>961.40002441406</ele>
        <time>2016-07-13T09:06:41.000Z</time>
      </trkpt>
      <trkpt lat="44.53653" lon="6.22033">
        <ele>962.40002441406</ele>
        <time>2016-07-13T09:06:48.000Z</time>
      </trkpt>
      <trkpt lat="44.53653" lon="6.22031">
        <ele>962.40002441406</ele>
        <time>2016-07-13T09:06:49.000Z</time>
      </trkpt>
      <trkpt lat="44.53658" lon="6.22026">
        <ele>961</ele>
        <time>2016-07-13T09:06:54.000Z</time>
      </trkpt>
      <trkpt lat="44.53671" lon="6.22019">
        <ele>958.59997558594</ele>
        <time>2016-07-13T09:07:04.000Z</time>
      </trkpt>
      <trkpt lat="44.53683" lon="6.22005">
        <ele>957.40002441406</ele>
        <time>2016-07-13T09:07:15.000Z</time>
      </trkpt>
      <trkpt lat="44.53691" lon="6.21987">
        <ele>957.20001220703</ele>
        <time>2016-07-13T09:07:26.000Z</time>
      </trkpt>
      <trkpt lat="44.53694" lon="6.2197">
        <ele>957</ele>
        <time>2016-07-13T09:07:35.000Z</time>
      </trkpt>
      <trkpt lat="44.53694" lon="6.21952">
        <ele>957.79998779297</ele>
        <time>2016-07-13T09:07:44.000Z</time>
      </trkpt>
      <trkpt lat="44.5369" lon="6.21935">
        <ele>959</ele>
        <time>2016-07-13T09:07:53.000Z</time>
      </trkpt>
      <trkpt lat="44.5368" lon="6.2194">
        <ele>959.79998779297</ele>
        <time>2016-07-13T09:08:05.000Z</time>
      </trkpt>
      <trkpt lat="44.53678" lon="6.21958">
        <ele>959.40002441406</ele>
        <time>2016-07-13T09:08:15.000Z</time>
      </trkpt>
      <trkpt lat="44.53672" lon="6.21971">
        <ele>961.40002441406</ele>
        <time>2016-07-13T09:08:24.000Z</time>
      </trkpt>
      <trkpt lat="44.53662" lon="6.2198">
        <ele>963.79998779297</ele>
        <time>2016-07-13T09:08:33.000Z</time>
      </trkpt>
      <trkpt lat="44.53648" lon="6.21981">
        <ele>966.59997558594</ele>
        <time>2016-07-13T09:08:43.000Z</time>
      </trkpt>
      <trkpt lat="44.53634" lon="6.21981">
        <ele>969.40002441406</ele>
        <time>2016-07-13T09:08:54.000Z</time>
      </trkpt>
      <trkpt lat="44.53628" lon="6.21982">
        <ele>970.40002441406</ele>
        <time>2016-07-13T09:08:59.000Z</time>
      </trkpt>
      <trkpt lat="44.53616" lon="6.21983">
        <ele>973.40002441406</ele>
        <time>2016-07-13T09:09:07.000Z</time>
      </trkpt>
      <trkpt lat="44.53599" lon="6.21983">
        <ele>978.79998779297</ele>
        <time>2016-07-13T09:09:15.000Z</time>
      </trkpt>
      <trkpt lat="44.53586" lon="6.21974">
        <ele>982.40002441406</ele>
        <time>2016-07-13T09:09:22.000Z</time>
      </trkpt>
      <trkpt lat="44.53578" lon="6.21961">
        <ele>983</ele>
        <time>2016-07-13T09:09:30.000Z</time>
      </trkpt>
      <trkpt lat="44.53572" lon="6.21949">
        <ele>982.79998779297</ele>
        <time>2016-07-13T09:09:37.000Z</time>
      </trkpt>
      <trkpt lat="44.53566" lon="6.2194">
        <ele>983.20001220703</ele>
        <time>2016-07-13T09:09:43.000Z</time>
      </trkpt>
      <trkpt lat="44.53558" lon="6.21929">
        <ele>984</ele>
        <time>2016-07-13T09:09:51.000Z</time>
      </trkpt>
      <trkpt lat="44.53558" lon="6.2193">
        <ele>984.20001220703</ele>
        <time>2016-07-13T09:09:57.000Z</time>
      </trkpt>
      <trkpt lat="44.53558" lon="6.21928">
        <ele>983.59997558594</ele>
        <time>2016-07-13T09:10:01.000Z</time>
      </trkpt>
      <trkpt lat="44.53555" lon="6.21927">
        <ele>984.59997558594</ele>
        <time>2016-07-13T09:10:36.000Z</time>
      </trkpt>
      <trkpt lat="44.53549" lon="6.21921">
        <ele>985.40002441406</ele>
        <time>2016-07-13T09:10:43.000Z</time>
      </trkpt>
      <trkpt lat="44.53549" lon="6.21919">
        <ele>985.20001220703</ele>
        <time>2016-07-13T09:10:44.000Z</time>
      </trkpt>
      <trkpt lat="44.53548" lon="6.21918">
        <ele>985.20001220703</ele>
        <time>2016-07-13T09:10:45.000Z</time>
      </trkpt>
      <trkpt lat="44.53544" lon="6.21915">
        <ele>986</ele>
        <time>2016-07-13T09:10:49.000Z</time>
      </trkpt>
      <trkpt lat="44.53542" lon="6.21913">
        <ele>986.40002441406</ele>
        <time>2016-07-13T09:10:52.000Z</time>
      </trkpt>
      <trkpt lat="44.53533" lon="6.21907">
        <ele>988</ele>
        <time>2016-07-13T09:11:00.000Z</time>
      </trkpt>
      <trkpt lat="44.5353" lon="6.21906">
        <ele>988.20001220703</ele>
        <time>2016-07-13T09:11:03.000Z</time>
      </trkpt>
      <trkpt lat="44.5353" lon="6.21905">
        <ele>988.20001220703</ele>
        <time>2016-07-13T09:11:07.000Z</time>
      </trkpt>
      <trkpt lat="44.53525" lon="6.21902">
        <ele>988.20001220703</ele>
        <time>2016-07-13T09:11:26.000Z</time>
      </trkpt>
      <trkpt lat="44.53515" lon="6.21897">
        <ele>988.59997558594</ele>
        <time>2016-07-13T09:11:34.000Z</time>
      </trkpt>
      <trkpt lat="44.53505" lon="6.2189">
        <ele>987.79998779297</ele>
        <time>2016-07-13T09:11:42.000Z</time>
      </trkpt>
      <trkpt lat="44.53502" lon="6.21887">
        <ele>987</ele>
        <time>2016-07-13T09:11:45.000Z</time>
      </trkpt>
      <trkpt lat="44.53498" lon="6.21883">
        <ele>986.40002441406</ele>
        <time>2016-07-13T09:11:48.000Z</time>
      </trkpt>
      <trkpt lat="44.53489" lon="6.21884">
        <ele>987.79998779297</ele>
        <time>2016-07-13T09:11:56.000Z</time>
      </trkpt>
      <trkpt lat="44.53488" lon="6.21886">
        <ele>988.40002441406</ele>
        <time>2016-07-13T09:11:57.000Z</time>
      </trkpt>
      <trkpt lat="44.53492" lon="6.21894">
        <ele>990.59997558594</ele>
        <time>2016-07-13T09:12:03.000Z</time>
      </trkpt>
      <trkpt lat="44.53502" lon="6.21901">
        <ele>990.79998779297</ele>
        <time>2016-07-13T09:12:12.000Z</time>
      </trkpt>
      <trkpt lat="44.5351" lon="6.21911">
        <ele>991.40002441406</ele>
        <time>2016-07-13T09:12:20.000Z</time>
      </trkpt>
      <trkpt lat="44.53515" lon="6.21915">
        <ele>991.59997558594</ele>
        <time>2016-07-13T09:12:27.000Z</time>
      </trkpt>
      <trkpt lat="44.53518" lon="6.21915">
        <ele>991.20001220703</ele>
        <time>2016-07-13T09:12:48.000Z</time>
      </trkpt>
      <trkpt lat="44.53523" lon="6.21923">
        <ele>992</ele>
        <time>2016-07-13T09:12:54.000Z</time>
      </trkpt>
      <trkpt lat="44.53526" lon="6.21933">
        <ele>993.20001220703</ele>
        <time>2016-07-13T09:13:00.000Z</time>
      </trkpt>
      <trkpt lat="44.53527" lon="6.21951">
        <ele>996.20001220703</ele>
        <time>2016-07-13T09:13:09.000Z</time>
      </trkpt>
      <trkpt lat="44.53525" lon="6.21968">
        <ele>999.40002441406</ele>
        <time>2016-07-13T09:13:19.000Z</time>
      </trkpt>
      <trkpt lat="44.53523" lon="6.21981">
        <ele>1002.200012207</ele>
        <time>2016-07-13T09:13:26.000Z</time>
      </trkpt>
      <trkpt lat="44.53519" lon="6.21997">
        <ele>1002.5999755859</ele>
        <time>2016-07-13T09:13:35.000Z</time>
      </trkpt>
      <trkpt lat="44.53514" lon="6.22015">
        <ele>1003.4000244141</ele>
        <time>2016-07-13T09:13:45.000Z</time>
      </trkpt>
      <trkpt lat="44.53512" lon="6.22031">
        <ele>1003.5999755859</ele>
        <time>2016-07-13T09:13:53.000Z</time>
      </trkpt>
      <trkpt lat="44.53507" lon="6.22051">
        <ele>1006</ele>
        <time>2016-07-13T09:14:04.000Z</time>
      </trkpt>
      <trkpt lat="44.535" lon="6.22067">
        <ele>1009.200012207</ele>
        <time>2016-07-13T09:14:14.000Z</time>
      </trkpt>
      <trkpt lat="44.53499" lon="6.22069">
        <ele>1009.200012207</ele>
        <time>2016-07-13T09:14:15.000Z</time>
      </trkpt>
      <trkpt lat="44.535" lon="6.22077">
        <ele>1008.799987793</ele>
        <time>2016-07-13T09:14:19.000Z</time>
      </trkpt>
      <trkpt lat="44.53505" lon="6.22092">
        <ele>1007</ele>
        <time>2016-07-13T09:14:28.000Z</time>
      </trkpt>
      <trkpt lat="44.53503" lon="6.22104">
        <ele>1007.4000244141</ele>
        <time>2016-07-13T09:14:35.000Z</time>
      </trkpt>
      <trkpt lat="44.53497" lon="6.22115">
        <ele>1009</ele>
        <time>2016-07-13T09:14:43.000Z</time>
      </trkpt>
      <trkpt lat="44.53489" lon="6.22124">
        <ele>1011</ele>
        <time>2016-07-13T09:14:51.000Z</time>
      </trkpt>
      <trkpt lat="44.53484" lon="6.22134">
        <ele>1012.200012207</ele>
        <time>2016-07-13T09:14:58.000Z</time>
      </trkpt>
      <trkpt lat="44.5348" lon="6.22151">
        <ele>1013.4000244141</ele>
        <time>2016-07-13T09:15:08.000Z</time>
      </trkpt>
      <trkpt lat="44.53476" lon="6.22171">
        <ele>1015.200012207</ele>
        <time>2016-07-13T09:15:19.000Z</time>
      </trkpt>
      <trkpt lat="44.53472" lon="6.2218">
        <ele>1015</ele>
        <time>2016-07-13T09:15:25.000Z</time>
      </trkpt>
      <trkpt lat="44.53474" lon="6.22199">
        <ele>1013</ele>
        <time>2016-07-13T09:15:34.000Z</time>
      </trkpt>
      <trkpt lat="44.53475" lon="6.22217">
        <ele>1011</ele>
        <time>2016-07-13T09:15:43.000Z</time>
      </trkpt>
      <trkpt lat="44.53476" lon="6.22224">
        <ele>1010.200012207</ele>
        <time>2016-07-13T09:15:47.000Z</time>
      </trkpt>
      <trkpt lat="44.53475" lon="6.22228">
        <ele>1010</ele>
        <time>2016-07-13T09:15:53.000Z</time>
      </trkpt>
      <trkpt lat="44.53476" lon="6.22236">
        <ele>1009.4000244141</ele>
        <time>2016-07-13T09:15:58.000Z</time>
      </trkpt>
      <trkpt lat="44.53474" lon="6.22252">
        <ele>1009.200012207</ele>
        <time>2016-07-13T09:16:06.000Z</time>
      </trkpt>
      <trkpt lat="44.53473" lon="6.22268">
        <ele>1008.5999755859</ele>
        <time>2016-07-13T09:16:14.000Z</time>
      </trkpt>
      <trkpt lat="44.53473" lon="6.22276">
        <ele>1008.4000244141</ele>
        <time>2016-07-13T09:16:18.000Z</time>
      </trkpt>
      <trkpt lat="44.5347" lon="6.22282">
        <ele>1008.4000244141</ele>
        <time>2016-07-13T09:16:23.000Z</time>
      </trkpt>
      <trkpt lat="44.53465" lon="6.22297">
        <ele>1008.4000244141</ele>
        <time>2016-07-13T09:16:30.000Z</time>
      </trkpt>
      <trkpt lat="44.53457" lon="6.22303">
        <ele>1009.4000244141</ele>
        <time>2016-07-13T09:16:37.000Z</time>
      </trkpt>
      <trkpt lat="44.53447" lon="6.22305">
        <ele>1010.5999755859</ele>
        <time>2016-07-13T09:16:45.000Z</time>
      </trkpt>
      <trkpt lat="44.53436" lon="6.22304">
        <ele>1012</ele>
        <time>2016-07-13T09:16:52.000Z</time>
      </trkpt>
      <trkpt lat="44.53422" lon="6.22306">
        <ele>1014.4000244141</ele>
        <time>2016-07-13T09:17:03.000Z</time>
      </trkpt>
      <trkpt lat="44.53406" lon="6.22311">
        <ele>1016.799987793</ele>
        <time>2016-07-13T09:17:13.000Z</time>
      </trkpt>
      <trkpt lat="44.53395" lon="6.22314">
        <ele>1018.5999755859</ele>
        <time>2016-07-13T09:17:21.000Z</time>
      </trkpt>
      <trkpt lat="44.53381" lon="6.2232">
        <ele>1020.799987793</ele>
        <time>2016-07-13T09:17:32.000Z</time>
      </trkpt>
      <trkpt lat="44.53369" lon="6.22322">
        <ele>1022.5999755859</ele>
        <time>2016-07-13T09:17:40.000Z</time>
      </trkpt>
      <trkpt lat="44.53365" lon="6.2232">
        <ele>1023.200012207</ele>
        <time>2016-07-13T09:17:44.000Z</time>
      </trkpt>
      <trkpt lat="44.53357" lon="6.22319">
        <ele>1024</ele>
        <time>2016-07-13T09:17:51.000Z</time>
      </trkpt>
      <trkpt lat="44.53356" lon="6.22318">
        <ele>1024.1999511719</ele>
        <time>2016-07-13T09:17:52.000Z</time>
      </trkpt>
      <trkpt lat="44.53348" lon="6.22303">
        <ele>1023.799987793</ele>
        <time>2016-07-13T09:18:06.000Z</time>
      </trkpt>
      <trkpt lat="44.53341" lon="6.22291">
        <ele>1022.799987793</ele>
        <time>2016-07-13T09:18:14.000Z</time>
      </trkpt>
      <trkpt lat="44.5333" lon="6.22279">
        <ele>1022.200012207</ele>
        <time>2016-07-13T09:18:24.000Z</time>
      </trkpt>
      <trkpt lat="44.53325" lon="6.22272">
        <ele>1021.799987793</ele>
        <time>2016-07-13T09:18:32.000Z</time>
      </trkpt>
      <trkpt lat="44.5332" lon="6.22267">
        <ele>1021.5999755859</ele>
        <time>2016-07-13T09:18:38.000Z</time>
      </trkpt>
      <trkpt lat="44.53309" lon="6.2226">
        <ele>1021.799987793</ele>
        <time>2016-07-13T09:18:47.000Z</time>
      </trkpt>
      <trkpt lat="44.53295" lon="6.22252">
        <ele>1022</ele>
        <time>2016-07-13T09:18:58.000Z</time>
      </trkpt>
      <trkpt lat="44.53287" lon="6.22245">
        <ele>1022</ele>
        <time>2016-07-13T09:19:05.000Z</time>
      </trkpt>
      <trkpt lat="44.53275" lon="6.2224">
        <ele>1021.5999755859</ele>
        <time>2016-07-13T09:19:14.000Z</time>
      </trkpt>
      <trkpt lat="44.53268" lon="6.22237">
        <ele>1021.200012207</ele>
        <time>2016-07-13T09:19:18.000Z</time>
      </trkpt>
      <trkpt lat="44.53256" lon="6.22239">
        <ele>1021.4000244141</ele>
        <time>2016-07-13T09:19:27.000Z</time>
      </trkpt>
      <trkpt lat="44.53249" lon="6.22244">
        <ele>1022.200012207</ele>
        <time>2016-07-13T09:19:33.000Z</time>
      </trkpt>
      <trkpt lat="44.53239" lon="6.22247">
        <ele>1022.5999755859</ele>
        <time>2016-07-13T09:19:40.000Z</time>
      </trkpt>
      <trkpt lat="44.5323" lon="6.2225">
        <ele>1023</ele>
        <time>2016-07-13T09:19:47.000Z</time>
      </trkpt>
      <trkpt lat="44.53218" lon="6.22249">
        <ele>1023</ele>
        <time>2016-07-13T09:19:56.000Z</time>
      </trkpt>
      <trkpt lat="44.5321" lon="6.22246">
        <ele>1022.5999755859</ele>
        <time>2016-07-13T09:20:03.000Z</time>
      </trkpt>
      <trkpt lat="44.53197" lon="6.22247">
        <ele>1022.799987793</ele>
        <time>2016-07-13T09:20:12.000Z</time>
      </trkpt>
      <trkpt lat="44.53184" lon="6.22251">
        <ele>1023</ele>
        <time>2016-07-13T09:20:21.000Z</time>
      </trkpt>
      <trkpt lat="44.5317" lon="6.22259">
        <ele>1024</ele>
        <time>2016-07-13T09:20:32.000Z</time>
      </trkpt>
      <trkpt lat="44.53153" lon="6.22269">
        <ele>1025.4000244141</ele>
        <time>2016-07-13T09:20:44.000Z</time>
      </trkpt>
      <trkpt lat="44.5314" lon="6.22279">
        <ele>1027.8000488281</ele>
        <time>2016-07-13T09:20:55.000Z</time>
      </trkpt>
      <trkpt lat="44.53113" lon="6.22285">
        <ele>1029.5999755859</ele>
        <time>2016-07-13T09:21:15.000Z</time>
      </trkpt>
      <trkpt lat="44.53105" lon="6.22285">
        <ele>1030</ele>
        <time>2016-07-13T09:21:23.000Z</time>
      </trkpt>
      <trkpt lat="44.531" lon="6.22284">
        <ele>1030</ele>
        <time>2016-07-13T09:21:27.000Z</time>
      </trkpt>
      <trkpt lat="44.53091" lon="6.22282">
        <ele>1030</ele>
        <time>2016-07-13T09:21:34.000Z</time>
      </trkpt>
      <trkpt lat="44.5308" lon="6.2228">
        <ele>1029.8000488281</ele>
        <time>2016-07-13T09:21:43.000Z</time>
      </trkpt>
      <trkpt lat="44.5307" lon="6.22282">
        <ele>1030</ele>
        <time>2016-07-13T09:21:49.000Z</time>
      </trkpt>
      <trkpt lat="44.53061" lon="6.22293">
        <ele>1031.1999511719</ele>
        <time>2016-07-13T09:21:59.000Z</time>
      </trkpt>
      <trkpt lat="44.53057" lon="6.22298">
        <ele>1031.5999755859</ele>
        <time>2016-07-13T09:22:02.000Z</time>
      </trkpt>
      <trkpt lat="44.53042" lon="6.22308">
        <ele>1032.5999755859</ele>
        <time>2016-07-13T09:22:15.000Z</time>
      </trkpt>
      <trkpt lat="44.53031" lon="6.22312">
        <ele>1033.4000244141</ele>
        <time>2016-07-13T09:22:23.000Z</time>
      </trkpt>
      <trkpt lat="44.53021" lon="6.22315">
        <ele>1035.1999511719</ele>
        <time>2016-07-13T09:22:30.000Z</time>
      </trkpt>
      <trkpt lat="44.53011" lon="6.22321">
        <ele>1038</ele>
        <time>2016-07-13T09:22:37.000Z</time>
      </trkpt>
      <trkpt lat="44.53" lon="6.22328">
        <ele>1041</ele>
        <time>2016-07-13T09:22:45.000Z</time>
      </trkpt>
      <trkpt lat="44.52988" lon="6.22337">
        <ele>1044.4000244141</ele>
        <time>2016-07-13T09:22:55.000Z</time>
      </trkpt>
      <trkpt lat="44.52979" lon="6.22343">
        <ele>1046.4000244141</ele>
        <time>2016-07-13T09:23:01.000Z</time>
      </trkpt>
      <trkpt lat="44.52968" lon="6.22349">
        <ele>1045</ele>
        <time>2016-07-13T09:23:10.000Z</time>
      </trkpt>
      <trkpt lat="44.52961" lon="6.22353">
        <ele>1044.1999511719</ele>
        <time>2016-07-13T09:23:15.000Z</time>
      </trkpt>
      <trkpt lat="44.52958" lon="6.22355">
        <ele>1044</ele>
        <time>2016-07-13T09:23:17.000Z</time>
      </trkpt>
      <trkpt lat="44.52956" lon="6.22356">
        <ele>1043.5999755859</ele>
        <time>2016-07-13T09:23:19.000Z</time>
      </trkpt>
      <trkpt lat="44.52954" lon="6.22357">
        <ele>1043.4000244141</ele>
        <time>2016-07-13T09:23:20.000Z</time>
      </trkpt>
      <trkpt lat="44.52954" lon="6.22359">
        <ele>1043.4000244141</ele>
        <time>2016-07-13T09:23:28.000Z</time>
      </trkpt>
      <trkpt lat="44.52951" lon="6.22356">
        <ele>1043</ele>
        <time>2016-07-13T09:23:33.000Z</time>
      </trkpt>
      <trkpt lat="44.52946" lon="6.2235">
        <ele>1044.8000488281</ele>
        <time>2016-07-13T09:23:39.000Z</time>
      </trkpt>
      <trkpt lat="44.52945" lon="6.22338">
        <ele>1045.1999511719</ele>
        <time>2016-07-13T09:25:15.000Z</time>
      </trkpt>
      <trkpt lat="44.52948" lon="6.2233">
        <ele>1044</ele>
        <time>2016-07-13T09:25:23.000Z</time>
      </trkpt>
      <trkpt lat="44.52949" lon="6.22328">
        <ele>1043.4000244141</ele>
        <time>2016-07-13T09:25:24.000Z</time>
      </trkpt>
      <trkpt lat="44.52952" lon="6.22324">
        <ele>1043.1999511719</ele>
        <time>2016-07-13T09:25:29.000Z</time>
      </trkpt>
      <trkpt lat="44.5296" lon="6.22315">
        <ele>1042.5999755859</ele>
        <time>2016-07-13T09:25:37.000Z</time>
      </trkpt>
      <trkpt lat="44.52962" lon="6.22313">
        <ele>1041.8000488281</ele>
        <time>2016-07-13T09:25:40.000Z</time>
      </trkpt>
      <trkpt lat="44.52969" lon="6.22303">
        <ele>1041.8000488281</ele>
        <time>2016-07-13T09:26:19.000Z</time>
      </trkpt>
      <trkpt lat="44.52975" lon="6.22298">
        <ele>1041.5999755859</ele>
        <time>2016-07-13T09:26:25.000Z</time>
      </trkpt>
      <trkpt lat="44.5298" lon="6.22293">
        <ele>1041.4000244141</ele>
        <time>2016-07-13T09:26:31.000Z</time>
      </trkpt>
      <trkpt lat="44.52984" lon="6.22291">
        <ele>1041.1999511719</ele>
        <time>2016-07-13T09:26:34.000Z</time>
      </trkpt>
      <trkpt lat="44.52991" lon="6.22283">
        <ele>1041.4000244141</ele>
        <time>2016-07-13T09:26:40.000Z</time>
      </trkpt>
      <trkpt lat="44.52997" lon="6.22275">
        <ele>1041.4000244141</ele>
        <time>2016-07-13T09:26:46.000Z</time>
      </trkpt>
      <trkpt lat="44.52999" lon="6.22274">
        <ele>1040.5999755859</ele>
        <time>2016-07-13T09:26:47.000Z</time>
      </trkpt>
      <trkpt lat="44.53001" lon="6.22273">
        <ele>1039.5999755859</ele>
        <time>2016-07-13T09:26:49.000Z</time>
      </trkpt>
      <trkpt lat="44.53007" lon="6.2227">
        <ele>1037</ele>
        <time>2016-07-13T09:26:55.000Z</time>
      </trkpt>
      <trkpt lat="44.53013" lon="6.22266">
        <ele>1034.5999755859</ele>
        <time>2016-07-13T09:27:00.000Z</time>
      </trkpt>
      <trkpt lat="44.5302" lon="6.22256">
        <ele>1030.8000488281</ele>
        <time>2016-07-13T09:27:07.000Z</time>
      </trkpt>
      <trkpt lat="44.53024" lon="6.22247">
        <ele>1028</ele>
        <time>2016-07-13T09:27:13.000Z</time>
      </trkpt>
      <trkpt lat="44.53027" lon="6.2224">
        <ele>1026</ele>
        <time>2016-07-13T09:27:17.000Z</time>
      </trkpt>
      <trkpt lat="44.53027" lon="6.22236">
        <ele>1025.4000244141</ele>
        <time>2016-07-13T09:27:19.000Z</time>
      </trkpt>
      <trkpt lat="44.53028" lon="6.22227">
        <ele>1024.1999511719</ele>
        <time>2016-07-13T09:27:23.000Z</time>
      </trkpt>
      <trkpt lat="44.53029" lon="6.22219">
        <ele>1024</ele>
        <time>2016-07-13T09:27:27.000Z</time>
      </trkpt>
      <trkpt lat="44.53029" lon="6.22203">
        <ele>1024.4000244141</ele>
        <time>2016-07-13T09:27:35.000Z</time>
      </trkpt>
      <trkpt lat="44.53028" lon="6.22187">
        <ele>1025.4000244141</ele>
        <time>2016-07-13T09:27:44.000Z</time>
      </trkpt>
      <trkpt lat="44.53026" lon="6.22176">
        <ele>1026.4000244141</ele>
        <time>2016-07-13T09:27:50.000Z</time>
      </trkpt>
      <trkpt lat="44.53025" lon="6.22173">
        <ele>1026.8000488281</ele>
        <time>2016-07-13T09:27:52.000Z</time>
      </trkpt>
      <trkpt lat="44.53025" lon="6.22162">
        <ele>1027</ele>
        <time>2016-07-13T09:27:59.000Z</time>
      </trkpt>
      <trkpt lat="44.53026" lon="6.2216">
        <ele>1026.8000488281</ele>
        <time>2016-07-13T09:28:00.000Z</time>
      </trkpt>
      <trkpt lat="44.53028" lon="6.22154">
        <ele>1026.4000244141</ele>
        <time>2016-07-13T09:28:03.000Z</time>
      </trkpt>
      <trkpt lat="44.5303" lon="6.22145">
        <ele>1026.1999511719</ele>
        <time>2016-07-13T09:28:08.000Z</time>
      </trkpt>
      <trkpt lat="44.53031" lon="6.22138">
        <ele>1025.4000244141</ele>
        <time>2016-07-13T09:28:12.000Z</time>
      </trkpt>
      <trkpt lat="44.53032" lon="6.22132">
        <ele>1025.1999511719</ele>
        <time>2016-07-13T09:28:15.000Z</time>
      </trkpt>
      <trkpt lat="44.53033" lon="6.22119">
        <ele>1024.4000244141</ele>
        <time>2016-07-13T09:28:23.000Z</time>
      </trkpt>
      <trkpt lat="44.53034" lon="6.22111">
        <ele>1024.1999511719</ele>
        <time>2016-07-13T09:28:26.000Z</time>
      </trkpt>
      <trkpt lat="44.53036" lon="6.22103">
        <ele>1023.5999755859</ele>
        <time>2016-07-13T09:28:31.000Z</time>
      </trkpt>
      <trkpt lat="44.53041" lon="6.22093">
        <ele>1022.5999755859</ele>
        <time>2016-07-13T09:28:37.000Z</time>
      </trkpt>
      <trkpt lat="44.53046" lon="6.22081">
        <ele>1021.4000244141</ele>
        <time>2016-07-13T09:28:44.000Z</time>
      </trkpt>
      <trkpt lat="44.53046" lon="6.2208">
        <ele>1021.4000244141</ele>
        <time>2016-07-13T09:28:45.000Z</time>
      </trkpt>
      <trkpt lat="44.5305" lon="6.22069">
        <ele>1019.200012207</ele>
        <time>2016-07-13T09:28:51.000Z</time>
      </trkpt>
      <trkpt lat="44.53055" lon="6.22057">
        <ele>1016</ele>
        <time>2016-07-13T09:28:58.000Z</time>
      </trkpt>
      <trkpt lat="44.53055" lon="6.22042">
        <ele>1014</ele>
        <time>2016-07-13T09:29:05.000Z</time>
      </trkpt>
      <trkpt lat="44.53051" lon="6.22034">
        <ele>1014</ele>
        <time>2016-07-13T09:29:10.000Z</time>
      </trkpt>
      <trkpt lat="44.53045" lon="6.22026">
        <ele>1014.5999755859</ele>
        <time>2016-07-13T09:29:16.000Z</time>
      </trkpt>
      <trkpt lat="44.53037" lon="6.22019">
        <ele>1015.799987793</ele>
        <time>2016-07-13T09:29:23.000Z</time>
      </trkpt>
      <trkpt lat="44.5303" lon="6.22013">
        <ele>1016.5999755859</ele>
        <time>2016-07-13T09:29:28.000Z</time>
      </trkpt>
      <trkpt lat="44.53024" lon="6.22012">
        <ele>1017.5999755859</ele>
        <time>2016-07-13T09:29:33.000Z</time>
      </trkpt>
      <trkpt lat="44.53018" lon="6.22013">
        <ele>1018.5999755859</ele>
        <time>2016-07-13T09:29:37.000Z</time>
      </trkpt>
      <trkpt lat="44.53012" lon="6.22011">
        <ele>1019.200012207</ele>
        <time>2016-07-13T09:29:41.000Z</time>
      </trkpt>
      <trkpt lat="44.53" lon="6.22001">
        <ele>1020</ele>
        <time>2016-07-13T09:29:51.000Z</time>
      </trkpt>
      <trkpt lat="44.52992" lon="6.21996">
        <ele>1020.5999755859</ele>
        <time>2016-07-13T09:29:57.000Z</time>
      </trkpt>
      <trkpt lat="44.52984" lon="6.2199">
        <ele>1021</ele>
        <time>2016-07-13T09:30:04.000Z</time>
      </trkpt>
      <trkpt lat="44.52983" lon="6.21989">
        <ele>1021</ele>
        <time>2016-07-13T09:30:05.000Z</time>
      </trkpt>
      <trkpt lat="44.52974" lon="6.21982">
        <ele>1021.5999755859</ele>
        <time>2016-07-13T09:30:12.000Z</time>
      </trkpt>
      <trkpt lat="44.52967" lon="6.21977">
        <ele>1022</ele>
        <time>2016-07-13T09:30:19.000Z</time>
      </trkpt>
      <trkpt lat="44.52965" lon="6.21977">
        <ele>1022.200012207</ele>
        <time>2016-07-13T09:30:20.000Z</time>
      </trkpt>
      <trkpt lat="44.52961" lon="6.21976">
        <ele>1022.799987793</ele>
        <time>2016-07-13T09:30:24.000Z</time>
      </trkpt>
      <trkpt lat="44.52952" lon="6.21973">
        <ele>1023.799987793</ele>
        <time>2016-07-13T09:30:31.000Z</time>
      </trkpt>
      <trkpt lat="44.52946" lon="6.21969">
        <ele>1023.799987793</ele>
        <time>2016-07-13T09:30:36.000Z</time>
      </trkpt>
      <trkpt lat="44.52944" lon="6.21967">
        <ele>1023.4000244141</ele>
        <time>2016-07-13T09:30:38.000Z</time>
      </trkpt>
      <trkpt lat="44.52932" lon="6.21961">
        <ele>1023.4000244141</ele>
        <time>2016-07-13T09:30:47.000Z</time>
      </trkpt>
      <trkpt lat="44.52926" lon="6.21961">
        <ele>1023.5999755859</ele>
        <time>2016-07-13T09:30:53.000Z</time>
      </trkpt>
      <trkpt lat="44.52915" lon="6.21962">
        <ele>1024</ele>
        <time>2016-07-13T09:31:00.000Z</time>
      </trkpt>
      <trkpt lat="44.52905" lon="6.21976">
        <ele>1026.1999511719</ele>
        <time>2016-07-13T09:31:12.000Z</time>
      </trkpt>
      <trkpt lat="44.52896" lon="6.21979">
        <ele>1027</ele>
        <time>2016-07-13T09:31:20.000Z</time>
      </trkpt>
      <trkpt lat="44.52887" lon="6.21982">
        <ele>1027.8000488281</ele>
        <time>2016-07-13T09:31:28.000Z</time>
      </trkpt>
      <trkpt lat="44.52883" lon="6.21984">
        <ele>1028.1999511719</ele>
        <time>2016-07-13T09:31:31.000Z</time>
      </trkpt>
      <trkpt lat="44.52881" lon="6.21983">
        <ele>1028.1999511719</ele>
        <time>2016-07-13T09:31:37.000Z</time>
      </trkpt>
      <trkpt lat="44.52878" lon="6.21984">
        <ele>1028.4000244141</ele>
        <time>2016-07-13T09:31:47.000Z</time>
      </trkpt>
      <trkpt lat="44.52876" lon="6.21985">
        <ele>1028.8000488281</ele>
        <time>2016-07-13T09:31:49.000Z</time>
      </trkpt>
      <trkpt lat="44.52868" lon="6.21989">
        <ele>1030.8000488281</ele>
        <time>2016-07-13T09:31:55.000Z</time>
      </trkpt>
      <trkpt lat="44.52854" lon="6.21994">
        <ele>1033.4000244141</ele>
        <time>2016-07-13T09:32:07.000Z</time>
      </trkpt>
      <trkpt lat="44.52849" lon="6.21991">
        <ele>1033.1999511719</ele>
        <time>2016-07-13T09:32:10.000Z</time>
      </trkpt>
      <trkpt lat="44.5284" lon="6.2199">
        <ele>1033.5999755859</ele>
        <time>2016-07-13T09:32:17.000Z</time>
      </trkpt>
      <trkpt lat="44.52839" lon="6.2199">
        <ele>1033.8000488281</ele>
        <time>2016-07-13T09:32:18.000Z</time>
      </trkpt>
      <trkpt lat="44.52831" lon="6.21992">
        <ele>1035.1999511719</ele>
        <time>2016-07-13T09:32:24.000Z</time>
      </trkpt>
      <trkpt lat="44.52821" lon="6.22">
        <ele>1038.1999511719</ele>
        <time>2016-07-13T09:32:29.000Z</time>
      </trkpt>
      <trkpt lat="44.52808" lon="6.22012">
        <ele>1042.5999755859</ele>
        <time>2016-07-13T09:32:35.000Z</time>
      </trkpt>
      <trkpt lat="44.52807" lon="6.22014">
        <ele>1043</ele>
        <time>2016-07-13T09:32:37.000Z</time>
      </trkpt>
      <trkpt lat="44.52804" lon="6.22018">
        <ele>1044.1999511719</ele>
        <time>2016-07-13T09:32:40.000Z</time>
      </trkpt>
      <trkpt lat="44.528" lon="6.2203">
        <ele>1047.4000244141</ele>
        <time>2016-07-13T09:32:47.000Z</time>
      </trkpt>
      <trkpt lat="44.52799" lon="6.22038">
        <ele>1049.4000244141</ele>
        <time>2016-07-13T09:32:52.000Z</time>
      </trkpt>
      <trkpt lat="44.52796" lon="6.22044">
        <ele>1051</ele>
        <time>2016-07-13T09:32:58.000Z</time>
      </trkpt>
      <trkpt lat="44.52794" lon="6.22046">
        <ele>1051.5999755859</ele>
        <time>2016-07-13T09:33:00.000Z</time>
      </trkpt>
      <trkpt lat="44.52793" lon="6.22049">
        <ele>1052.4000244141</ele>
        <time>2016-07-13T09:33:03.000Z</time>
      </trkpt>
      <trkpt lat="44.52785" lon="6.22055">
        <ele>1054.1999511719</ele>
        <time>2016-07-13T09:33:13.000Z</time>
      </trkpt>
      <trkpt lat="44.52784" lon="6.22058">
        <ele>1055</ele>
        <time>2016-07-13T09:33:15.000Z</time>
      </trkpt>
      <trkpt lat="44.52778" lon="6.2206">
        <ele>1056.1999511719</ele>
        <time>2016-07-13T09:33:22.000Z</time>
      </trkpt>
      <trkpt lat="44.5277" lon="6.22064">
        <ele>1058.4000244141</ele>
        <time>2016-07-13T09:33:30.000Z</time>
      </trkpt>
      <trkpt lat="44.52765" lon="6.22069">
        <ele>1060.1999511719</ele>
        <time>2016-07-13T09:33:34.000Z</time>
      </trkpt>
      <trkpt lat="44.52759" lon="6.22074">
        <ele>1062.5999755859</ele>
        <time>2016-07-13T09:33:40.000Z</time>
      </trkpt>
      <trkpt lat="44.52752" lon="6.22078">
        <ele>1064.8000488281</ele>
        <time>2016-07-13T09:33:45.000Z</time>
      </trkpt>
      <trkpt lat="44.52748" lon="6.22081">
        <ele>1065.8000488281</ele>
        <time>2016-07-13T09:33:48.000Z</time>
      </trkpt>
      <trkpt lat="44.52742" lon="6.22086">
        <ele>1068.4000244141</ele>
        <time>2016-07-13T09:33:54.000Z</time>
      </trkpt>
      <trkpt lat="44.52738" lon="6.22093">
        <ele>1070.5999755859</ele>
        <time>2016-07-13T09:34:02.000Z</time>
      </trkpt>
      <trkpt lat="44.5274" lon="6.22095">
        <ele>1071.1999511719</ele>
        <time>2016-07-13T09:34:12.000Z</time>
      </trkpt>
      <trkpt lat="44.52741" lon="6.22094">
        <ele>1071</ele>
        <time>2016-07-13T09:34:14.000Z</time>
      </trkpt>
      <trkpt lat="44.52726" lon="6.22094">
        <ele>1072.5999755859</ele>
        <time>2016-07-13T09:34:24.000Z</time>
      </trkpt>
      <trkpt lat="44.52717" lon="6.22093">
        <ele>1073.5999755859</ele>
        <time>2016-07-13T09:34:32.000Z</time>
      </trkpt>
      <trkpt lat="44.52709" lon="6.22089">
        <ele>1073.4000244141</ele>
        <time>2016-07-13T09:34:38.000Z</time>
      </trkpt>
      <trkpt lat="44.52701" lon="6.22081">
        <ele>1071.8000488281</ele>
        <time>2016-07-13T09:34:46.000Z</time>
      </trkpt>
      <trkpt lat="44.52692" lon="6.22071">
        <ele>1070.4000244141</ele>
        <time>2016-07-13T09:34:56.000Z</time>
      </trkpt>
      <trkpt lat="44.52684" lon="6.22067">
        <ele>1070.4000244141</ele>
        <time>2016-07-13T09:35:02.000Z</time>
      </trkpt>
      <trkpt lat="44.52678" lon="6.22063">
        <ele>1070.1999511719</ele>
        <time>2016-07-13T09:35:07.000Z</time>
      </trkpt>
      <trkpt lat="44.52666" lon="6.22056">
        <ele>1070.4000244141</ele>
        <time>2016-07-13T09:35:17.000Z</time>
      </trkpt>
      <trkpt lat="44.52657" lon="6.22049">
        <ele>1070.4000244141</ele>
        <time>2016-07-13T09:35:24.000Z</time>
      </trkpt>
      <trkpt lat="44.52646" lon="6.22046">
        <ele>1071.5999755859</ele>
        <time>2016-07-13T09:35:32.000Z</time>
      </trkpt>
      <trkpt lat="44.52638" lon="6.2204">
        <ele>1071.8000488281</ele>
        <time>2016-07-13T09:35:38.000Z</time>
      </trkpt>
      <trkpt lat="44.52625" lon="6.22032">
        <ele>1072.1999511719</ele>
        <time>2016-07-13T09:35:47.000Z</time>
      </trkpt>
      <trkpt lat="44.52615" lon="6.2203">
        <ele>1073.1999511719</ele>
        <time>2016-07-13T09:35:54.000Z</time>
      </trkpt>
      <trkpt lat="44.52608" lon="6.22019">
        <ele>1071.4000244141</ele>
        <time>2016-07-13T09:36:02.000Z</time>
      </trkpt>
      <trkpt lat="44.526" lon="6.22005">
        <ele>1069</ele>
        <time>2016-07-13T09:36:10.000Z</time>
      </trkpt>
      <trkpt lat="44.52591" lon="6.21997">
        <ele>1068.1999511719</ele>
        <time>2016-07-13T09:36:19.000Z</time>
      </trkpt>
      <trkpt lat="44.52583" lon="6.21996">
        <ele>1068.5999755859</ele>
        <time>2016-07-13T09:36:24.000Z</time>
      </trkpt>
      <trkpt lat="44.52573" lon="6.21995">
        <ele>1069.1999511719</ele>
        <time>2016-07-13T09:36:30.000Z</time>
      </trkpt>
      <trkpt lat="44.52559" lon="6.21995">
        <ele>1070.4000244141</ele>
        <time>2016-07-13T09:36:39.000Z</time>
      </trkpt>
      <trkpt lat="44.52558" lon="6.21995">
        <ele>1070.4000244141</ele>
        <time>2016-07-13T09:36:40.000Z</time>
      </trkpt>
      <trkpt lat="44.52556" lon="6.21993">
        <ele>1070.1999511719</ele>
        <time>2016-07-13T09:36:42.000Z</time>
      </trkpt>
      <trkpt lat="44.52554" lon="6.2199">
        <ele>1069.5999755859</ele>
        <time>2016-07-13T09:36:45.000Z</time>
      </trkpt>
      <trkpt lat="44.5255" lon="6.21985">
        <ele>1069</ele>
        <time>2016-07-13T09:36:51.000Z</time>
      </trkpt>
      <trkpt lat="44.52544" lon="6.21982">
        <ele>1068.8000488281</ele>
        <time>2016-07-13T09:36:56.000Z</time>
      </trkpt>
      <trkpt lat="44.52528" lon="6.21989">
        <ele>1072.8000488281</ele>
        <time>2016-07-13T09:37:10.000Z</time>
      </trkpt>
      <trkpt lat="44.52527" lon="6.2199">
        <ele>1073.1999511719</ele>
        <time>2016-07-13T09:37:11.000Z</time>
      </trkpt>
      <trkpt lat="44.52523" lon="6.21994">
        <ele>1075</ele>
        <time>2016-07-13T09:37:16.000Z</time>
      </trkpt>
      <trkpt lat="44.52519" lon="6.21994">
        <ele>1075.5999755859</ele>
        <time>2016-07-13T09:37:21.000Z</time>
      </trkpt>
      <trkpt lat="44.52514" lon="6.21993">
        <ele>1076</ele>
        <time>2016-07-13T09:37:26.000Z</time>
      </trkpt>
      <trkpt lat="44.52507" lon="6.21995">
        <ele>1077.5999755859</ele>
        <time>2016-07-13T09:37:31.000Z</time>
      </trkpt>
      <trkpt lat="44.52502" lon="6.21999">
        <ele>1079.4000244141</ele>
        <time>2016-07-13T09:37:37.000Z</time>
      </trkpt>
      <trkpt lat="44.52496" lon="6.22002">
        <ele>1081.4000244141</ele>
        <time>2016-07-13T09:37:43.000Z</time>
      </trkpt>
      <trkpt lat="44.5249" lon="6.22003">
        <ele>1082.4000244141</ele>
        <time>2016-07-13T09:37:47.000Z</time>
      </trkpt>
      <trkpt lat="44.52488" lon="6.22002">
        <ele>1082.5999755859</ele>
        <time>2016-07-13T09:37:50.000Z</time>
      </trkpt>
      <trkpt lat="44.52483" lon="6.22002">
        <ele>1083.1999511719</ele>
        <time>2016-07-13T09:37:53.000Z</time>
      </trkpt>
      <trkpt lat="44.52477" lon="6.22002">
        <ele>1084.1999511719</ele>
        <time>2016-07-13T09:37:57.000Z</time>
      </trkpt>
      <trkpt lat="44.5247" lon="6.22003">
        <ele>1085.1999511719</ele>
        <time>2016-07-13T09:38:02.000Z</time>
      </trkpt>
      <trkpt lat="44.52468" lon="6.22002">
        <ele>1085.1999511719</ele>
        <time>2016-07-13T09:38:04.000Z</time>
      </trkpt>
      <trkpt lat="44.52467" lon="6.22002">
        <ele>1085.1999511719</ele>
        <time>2016-07-13T09:38:06.000Z</time>
      </trkpt>
      <trkpt lat="44.52465" lon="6.22002">
        <ele>1085.4000244141</ele>
        <time>2016-07-13T09:38:08.000Z</time>
      </trkpt>
      <trkpt lat="44.52461" lon="6.22003">
        <ele>1086</ele>
        <time>2016-07-13T09:38:11.000Z</time>
      </trkpt>
      <trkpt lat="44.52459" lon="6.22005">
        <ele>1086.4000244141</ele>
        <time>2016-07-13T09:38:12.000Z</time>
      </trkpt>
      <trkpt lat="44.5245" lon="6.22009">
        <ele>1088</ele>
        <time>2016-07-13T09:38:19.000Z</time>
      </trkpt>
      <trkpt lat="44.52449" lon="6.22009">
        <ele>1088</ele>
        <time>2016-07-13T09:38:20.000Z</time>
      </trkpt>
      <trkpt lat="44.52436" lon="6.22005">
        <ele>1090.4000244141</ele>
        <time>2016-07-13T09:38:28.000Z</time>
      </trkpt>
      <trkpt lat="44.52432" lon="6.22003">
        <ele>1091</ele>
        <time>2016-07-13T09:38:32.000Z</time>
      </trkpt>
      <trkpt lat="44.52424" lon="6.22006">
        <ele>1093.4000244141</ele>
        <time>2016-07-13T09:38:37.000Z</time>
      </trkpt>
      <trkpt lat="44.52422" lon="6.22007">
        <ele>1093.8000488281</ele>
        <time>2016-07-13T09:38:39.000Z</time>
      </trkpt>
      <trkpt lat="44.52418" lon="6.22006">
        <ele>1094.5999755859</ele>
        <time>2016-07-13T09:38:43.000Z</time>
      </trkpt>
      <trkpt lat="44.52413" lon="6.22008">
        <ele>1096.1999511719</ele>
        <time>2016-07-13T09:38:48.000Z</time>
      </trkpt>
      <trkpt lat="44.52408" lon="6.22008">
        <ele>1097.1999511719</ele>
        <time>2016-07-13T09:38:51.000Z</time>
      </trkpt>
      <trkpt lat="44.52406" lon="6.22007">
        <ele>1097.5999755859</ele>
        <time>2016-07-13T09:38:53.000Z</time>
      </trkpt>
      <trkpt lat="44.52403" lon="6.22007">
        <ele>1098.4000244141</ele>
        <time>2016-07-13T09:38:56.000Z</time>
      </trkpt>
      <trkpt lat="44.52396" lon="6.2201">
        <ele>1099.8000488281</ele>
        <time>2016-07-13T09:39:03.000Z</time>
      </trkpt>
      <trkpt lat="44.52392" lon="6.22008">
        <ele>1099.8000488281</ele>
        <time>2016-07-13T09:39:08.000Z</time>
      </trkpt>
      <trkpt lat="44.5239" lon="6.22009">
        <ele>1099.8000488281</ele>
        <time>2016-07-13T09:39:10.000Z</time>
      </trkpt>
      <trkpt lat="44.52386" lon="6.2201">
        <ele>1099.5999755859</ele>
        <time>2016-07-13T09:39:15.000Z</time>
      </trkpt>
      <trkpt lat="44.52382" lon="6.22013">
        <ele>1099.4000244141</ele>
        <time>2016-07-13T09:39:21.000Z</time>
      </trkpt>
      <trkpt lat="44.5238" lon="6.22018">
        <ele>1099</ele>
        <time>2016-07-13T09:39:25.000Z</time>
      </trkpt>
      <trkpt lat="44.52378" lon="6.2202">
        <ele>1098.8000488281</ele>
        <time>2016-07-13T09:39:27.000Z</time>
      </trkpt>
      <trkpt lat="44.52374" lon="6.22022">
        <ele>1098.5999755859</ele>
        <time>2016-07-13T09:39:32.000Z</time>
      </trkpt>
      <trkpt lat="44.52367" lon="6.22025">
        <ele>1098.1999511719</ele>
        <time>2016-07-13T09:39:36.000Z</time>
      </trkpt>
      <trkpt lat="44.52365" lon="6.22025">
        <ele>1099</ele>
        <time>2016-07-13T09:39:38.000Z</time>
      </trkpt>
      <trkpt lat="44.52355" lon="6.22026">
        <ele>1102</ele>
        <time>2016-07-13T09:39:43.000Z</time>
      </trkpt>
      <trkpt lat="44.5235" lon="6.22027">
        <ele>1103.5999755859</ele>
        <time>2016-07-13T09:39:46.000Z</time>
      </trkpt>
      <trkpt lat="44.52344" lon="6.22027">
        <ele>1105.5999755859</ele>
        <time>2016-07-13T09:39:51.000Z</time>
      </trkpt>
      <trkpt lat="44.52339" lon="6.22029">
        <ele>1107.1999511719</ele>
        <time>2016-07-13T09:39:55.000Z</time>
      </trkpt>
      <trkpt lat="44.52336" lon="6.22031">
        <ele>1108</ele>
        <time>2016-07-13T09:39:57.000Z</time>
      </trkpt>
      <trkpt lat="44.52335" lon="6.22032">
        <ele>1108</ele>
        <time>2016-07-13T09:39:59.000Z</time>
      </trkpt>
      <trkpt lat="44.52329" lon="6.2204">
        <ele>1107.4000244141</ele>
        <time>2016-07-13T09:40:06.000Z</time>
      </trkpt>
      <trkpt lat="44.52328" lon="6.22041">
        <ele>1107.4000244141</ele>
        <time>2016-07-13T09:40:07.000Z</time>
      </trkpt>
      <trkpt lat="44.52323" lon="6.22045">
        <ele>1107.4000244141</ele>
        <time>2016-07-13T09:40:13.000Z</time>
      </trkpt>
      <trkpt lat="44.52322" lon="6.22047">
        <ele>1107</ele>
        <time>2016-07-13T09:40:19.000Z</time>
      </trkpt>
      <trkpt lat="44.5232" lon="6.22047">
        <ele>1107.4000244141</ele>
        <time>2016-07-13T09:40:26.000Z</time>
      </trkpt>
      <trkpt lat="44.52311" lon="6.2205">
        <ele>1108.5999755859</ele>
        <time>2016-07-13T09:40:33.000Z</time>
      </trkpt>
      <trkpt lat="44.52303" lon="6.22054">
        <ele>1109.1999511719</ele>
        <time>2016-07-13T09:40:39.000Z</time>
      </trkpt>
      <trkpt lat="44.52302" lon="6.22055">
        <ele>1109.1999511719</ele>
        <time>2016-07-13T09:40:40.000Z</time>
      </trkpt>
      <trkpt lat="44.52299" lon="6.22055">
        <ele>1109.5999755859</ele>
        <time>2016-07-13T09:40:44.000Z</time>
      </trkpt>
      <trkpt lat="44.52295" lon="6.22061">
        <ele>1109.1999511719</ele>
        <time>2016-07-13T09:40:50.000Z</time>
      </trkpt>
      <trkpt lat="44.52293" lon="6.22065">
        <ele>1110.5999755859</ele>
        <time>2016-07-13T09:40:53.000Z</time>
      </trkpt>
      <trkpt lat="44.5229" lon="6.22066">
        <ele>1111.4000244141</ele>
        <time>2016-07-13T09:40:56.000Z</time>
      </trkpt>
      <trkpt lat="44.52285" lon="6.22069">
        <ele>1111.5999755859</ele>
        <time>2016-07-13T09:41:01.000Z</time>
      </trkpt>
      <trkpt lat="44.52277" lon="6.22074">
        <ele>1113.8000488281</ele>
        <time>2016-07-13T09:41:10.000Z</time>
      </trkpt>
      <trkpt lat="44.52276" lon="6.22076">
        <ele>1114.1999511719</ele>
        <time>2016-07-13T09:41:12.000Z</time>
      </trkpt>
      <trkpt lat="44.52275" lon="6.22078">
        <ele>1114.5999755859</ele>
        <time>2016-07-13T09:41:18.000Z</time>
      </trkpt>
      <trkpt lat="44.52274" lon="6.22083">
        <ele>1115.4000244141</ele>
        <time>2016-07-13T09:41:34.000Z</time>
      </trkpt>
      <trkpt lat="44.52272" lon="6.22088">
        <ele>1116.1999511719</ele>
        <time>2016-07-13T09:41:41.000Z</time>
      </trkpt>
      <trkpt lat="44.52276" lon="6.22089">
        <ele>1114.8000488281</ele>
        <time>2016-07-13T09:41:47.000Z</time>
      </trkpt>
      <trkpt lat="44.52275" lon="6.2209">
        <ele>1115.4000244141</ele>
        <time>2016-07-13T09:41:53.000Z</time>
      </trkpt>
      <trkpt lat="44.52269" lon="6.2209">
        <ele>1117.1999511719</ele>
        <time>2016-07-13T09:42:00.000Z</time>
      </trkpt>
      <trkpt lat="44.52266" lon="6.22088">
        <ele>1118.4000244141</ele>
        <time>2016-07-13T09:42:04.000Z</time>
      </trkpt>
      <trkpt lat="44.52262" lon="6.22088">
        <ele>1119.8000488281</ele>
        <time>2016-07-13T09:42:10.000Z</time>
      </trkpt>
      <trkpt lat="44.52259" lon="6.22088">
        <ele>1120.8000488281</ele>
        <time>2016-07-13T09:42:13.000Z</time>
      </trkpt>
      <trkpt lat="44.52257" lon="6.22089">
        <ele>1121.5999755859</ele>
        <time>2016-07-13T09:42:15.000Z</time>
      </trkpt>
      <trkpt lat="44.52256" lon="6.22089">
        <ele>1121.8000488281</ele>
        <time>2016-07-13T09:42:16.000Z</time>
      </trkpt>
      <trkpt lat="44.52252" lon="6.22088">
        <ele>1123.1999511719</ele>
        <time>2016-07-13T09:42:24.000Z</time>
      </trkpt>
      <trkpt lat="44.52253" lon="6.22086">
        <ele>1123</ele>
        <time>2016-07-13T09:42:28.000Z</time>
      </trkpt>
      <trkpt lat="44.52254" lon="6.22085">
        <ele>1122.5999755859</ele>
        <time>2016-07-13T09:42:36.000Z</time>
      </trkpt>
      <trkpt lat="44.52254" lon="6.22081">
        <ele>1122.5999755859</ele>
        <time>2016-07-13T09:42:41.000Z</time>
      </trkpt>
      <trkpt lat="44.52252" lon="6.22081">
        <ele>1123.1999511719</ele>
        <time>2016-07-13T09:42:45.000Z</time>
      </trkpt>
      <trkpt lat="44.52252" lon="6.22083">
        <ele>1123.1999511719</ele>
        <time>2016-07-13T09:42:51.000Z</time>
      </trkpt>
      <trkpt lat="44.52251" lon="6.22085">
        <ele>1123.8000488281</ele>
        <time>2016-07-13T09:42:56.000Z</time>
      </trkpt>
      <trkpt lat="44.52247" lon="6.22083">
        <ele>1125.1999511719</ele>
        <time>2016-07-13T09:43:02.000Z</time>
      </trkpt>
      <trkpt lat="44.52243" lon="6.22083">
        <ele>1126.4000244141</ele>
        <time>2016-07-13T09:43:07.000Z</time>
      </trkpt>
      <trkpt lat="44.5224" lon="6.2208">
        <ele>1127.5999755859</ele>
        <time>2016-07-13T09:43:13.000Z</time>
      </trkpt>
      <trkpt lat="44.52236" lon="6.22077">
        <ele>1128.5999755859</ele>
        <time>2016-07-13T09:43:20.000Z</time>
      </trkpt>
      <trkpt lat="44.52234" lon="6.22074">
        <ele>1129.1999511719</ele>
        <time>2016-07-13T09:43:26.000Z</time>
      </trkpt>
      <trkpt lat="44.52231" lon="6.22076">
        <ele>1130.5999755859</ele>
        <time>2016-07-13T09:43:35.000Z</time>
      </trkpt>
      <trkpt lat="44.52228" lon="6.22077">
        <ele>1131.5999755859</ele>
        <time>2016-07-13T09:43:48.000Z</time>
      </trkpt>
      <trkpt lat="44.5223" lon="6.22075">
        <ele>1130.8000488281</ele>
        <time>2016-07-13T09:43:55.000Z</time>
      </trkpt>
      <trkpt lat="44.5223" lon="6.22073">
        <ele>1130.5999755859</ele>
        <time>2016-07-13T09:44:18.000Z</time>
      </trkpt>
      <trkpt lat="44.52228" lon="6.22075">
        <ele>1131.4000244141</ele>
        <time>2016-07-13T09:44:24.000Z</time>
      </trkpt>
      <trkpt lat="44.52227" lon="6.22076">
        <ele>1131.8000488281</ele>
        <time>2016-07-13T09:44:27.000Z</time>
      </trkpt>
      <trkpt lat="44.52226" lon="6.22079">
        <ele>1132.4000244141</ele>
        <time>2016-07-13T09:44:35.000Z</time>
      </trkpt>
      <trkpt lat="44.52222" lon="6.22081">
        <ele>1134</ele>
        <time>2016-07-13T09:44:42.000Z</time>
      </trkpt>
      <trkpt lat="44.52216" lon="6.22082">
        <ele>1135.1999511719</ele>
        <time>2016-07-13T09:44:55.000Z</time>
      </trkpt>
      <trkpt lat="44.52214" lon="6.22085">
        <ele>1135.1999511719</ele>
        <time>2016-07-13T09:45:02.000Z</time>
      </trkpt>
      <trkpt lat="44.52212" lon="6.22088">
        <ele>1135</ele>
        <time>2016-07-13T09:45:05.000Z</time>
      </trkpt>
      <trkpt lat="44.52209" lon="6.22091">
        <ele>1135</ele>
        <time>2016-07-13T09:45:09.000Z</time>
      </trkpt>
      <trkpt lat="44.52209" lon="6.22093">
        <ele>1134.8000488281</ele>
        <time>2016-07-13T09:45:11.000Z</time>
      </trkpt>
      <trkpt lat="44.52205" lon="6.22099">
        <ele>1134.5999755859</ele>
        <time>2016-07-13T09:45:19.000Z</time>
      </trkpt>
      <trkpt lat="44.52202" lon="6.221">
        <ele>1134.8000488281</ele>
        <time>2016-07-13T09:45:22.000Z</time>
      </trkpt>
      <trkpt lat="44.52195" lon="6.22102">
        <ele>1136.5999755859</ele>
        <time>2016-07-13T09:45:31.000Z</time>
      </trkpt>
      <trkpt lat="44.52193" lon="6.22105">
        <ele>1136.8000488281</ele>
        <time>2016-07-13T09:45:36.000Z</time>
      </trkpt>
      <trkpt lat="44.5219" lon="6.22106">
        <ele>1137.5999755859</ele>
        <time>2016-07-13T09:45:41.000Z</time>
      </trkpt>
      <trkpt lat="44.52186" lon="6.22108">
        <ele>1138.5999755859</ele>
        <time>2016-07-13T09:45:46.000Z</time>
      </trkpt>
      <trkpt lat="44.52183" lon="6.2211">
        <ele>1139.4000244141</ele>
        <time>2016-07-13T09:45:50.000Z</time>
      </trkpt>
      <trkpt lat="44.52178" lon="6.22111">
        <ele>1140.5999755859</ele>
        <time>2016-07-13T09:45:57.000Z</time>
      </trkpt>
      <trkpt lat="44.52174" lon="6.22111">
        <ele>1142</ele>
        <time>2016-07-13T09:46:05.000Z</time>
      </trkpt>
      <trkpt lat="44.5217" lon="6.2211">
        <ele>1143.1999511719</ele>
        <time>2016-07-13T09:46:11.000Z</time>
      </trkpt>
      <trkpt lat="44.52165" lon="6.22111">
        <ele>1144.5999755859</ele>
        <time>2016-07-13T09:46:18.000Z</time>
      </trkpt>
      <trkpt lat="44.52161" lon="6.22109">
        <ele>1146.4000244141</ele>
        <time>2016-07-13T09:46:24.000Z</time>
      </trkpt>
      <trkpt lat="44.52159" lon="6.22106">
        <ele>1147.4000244141</ele>
        <time>2016-07-13T09:46:29.000Z</time>
      </trkpt>
      <trkpt lat="44.52158" lon="6.22105">
        <ele>1147.8000488281</ele>
        <time>2016-07-13T09:46:37.000Z</time>
      </trkpt>
      <trkpt lat="44.52159" lon="6.22106">
        <ele>1147.1999511719</ele>
        <time>2016-07-13T09:46:45.000Z</time>
      </trkpt>
      <trkpt lat="44.52159" lon="6.22107">
        <ele>1147</ele>
        <time>2016-07-13T09:46:51.000Z</time>
      </trkpt>
      <trkpt lat="44.52157" lon="6.22107">
        <ele>1147.8000488281</ele>
        <time>2016-07-13T09:46:56.000Z</time>
      </trkpt>
      <trkpt lat="44.52147" lon="6.22108">
        <ele>1149.8000488281</ele>
        <time>2016-07-13T09:47:04.000Z</time>
      </trkpt>
      <trkpt lat="44.5214" lon="6.22111">
        <ele>1151</ele>
        <time>2016-07-13T09:47:11.000Z</time>
      </trkpt>
      <trkpt lat="44.52133" lon="6.22114">
        <ele>1152</ele>
        <time>2016-07-13T09:47:17.000Z</time>
      </trkpt>
      <trkpt lat="44.52124" lon="6.22116">
        <ele>1154</ele>
        <time>2016-07-13T09:47:24.000Z</time>
      </trkpt>
      <trkpt lat="44.52122" lon="6.22116">
        <ele>1154.4000244141</ele>
        <time>2016-07-13T09:47:26.000Z</time>
      </trkpt>
      <trkpt lat="44.52112" lon="6.2212">
        <ele>1157</ele>
        <time>2016-07-13T09:47:34.000Z</time>
      </trkpt>
      <trkpt lat="44.5211" lon="6.2212">
        <ele>1158.1999511719</ele>
        <time>2016-07-13T09:47:37.000Z</time>
      </trkpt>
      <trkpt lat="44.52109" lon="6.2212">
        <ele>1158.5999755859</ele>
        <time>2016-07-13T09:47:39.000Z</time>
      </trkpt>
      <trkpt lat="44.52101" lon="6.22125">
        <ele>1160.5999755859</ele>
        <time>2016-07-13T09:47:46.000Z</time>
      </trkpt>
      <trkpt lat="44.52097" lon="6.2213">
        <ele>1161.8000488281</ele>
        <time>2016-07-13T09:47:51.000Z</time>
      </trkpt>
      <trkpt lat="44.52089" lon="6.2214">
        <ele>1163.8000488281</ele>
        <time>2016-07-13T09:47:59.000Z</time>
      </trkpt>
      <trkpt lat="44.52083" lon="6.22147">
        <ele>1166</ele>
        <time>2016-07-13T09:48:05.000Z</time>
      </trkpt>
      <trkpt lat="44.52072" lon="6.22161">
        <ele>1173.1999511719</ele>
        <time>2016-07-13T09:48:16.000Z</time>
      </trkpt>
      <trkpt lat="44.52068" lon="6.2217">
        <ele>1175.5999755859</ele>
        <time>2016-07-13T09:48:21.000Z</time>
      </trkpt>
      <trkpt lat="44.52065" lon="6.22184">
        <ele>1178</ele>
        <time>2016-07-13T09:48:30.000Z</time>
      </trkpt>
      <trkpt lat="44.52065" lon="6.22192">
        <ele>1178</ele>
        <time>2016-07-13T09:48:35.000Z</time>
      </trkpt>
      <trkpt lat="44.52064" lon="6.22204">
        <ele>1179</ele>
        <time>2016-07-13T09:48:43.000Z</time>
      </trkpt>
      <trkpt lat="44.52064" lon="6.22205">
        <ele>1179</ele>
        <time>2016-07-13T09:48:44.000Z</time>
      </trkpt>
      <trkpt lat="44.52064" lon="6.2221">
        <ele>1179</ele>
        <time>2016-07-13T09:48:47.000Z</time>
      </trkpt>
      <trkpt lat="44.52065" lon="6.22218">
        <ele>1178.8000488281</ele>
        <time>2016-07-13T09:48:53.000Z</time>
      </trkpt>
      <trkpt lat="44.52065" lon="6.22221">
        <ele>1178.8000488281</ele>
        <time>2016-07-13T09:48:55.000Z</time>
      </trkpt>
      <trkpt lat="44.52066" lon="6.22223">
        <ele>1178.5999755859</ele>
        <time>2016-07-13T09:48:58.000Z</time>
      </trkpt>
      <trkpt lat="44.52067" lon="6.22225">
        <ele>1178.1999511719</ele>
        <time>2016-07-13T09:49:00.000Z</time>
      </trkpt>
      <trkpt lat="44.52069" lon="6.22235">
        <ele>1177.5999755859</ele>
        <time>2016-07-13T09:49:06.000Z</time>
      </trkpt>
      <trkpt lat="44.5207" lon="6.22237">
        <ele>1177.5999755859</ele>
        <time>2016-07-13T09:49:07.000Z</time>
      </trkpt>
      <trkpt lat="44.52073" lon="6.22252">
        <ele>1177</ele>
        <time>2016-07-13T09:49:17.000Z</time>
      </trkpt>
      <trkpt lat="44.52077" lon="6.22258">
        <ele>1175.8000488281</ele>
        <time>2016-07-13T09:49:22.000Z</time>
      </trkpt>
      <trkpt lat="44.52079" lon="6.22262">
        <ele>1175.1999511719</ele>
        <time>2016-07-13T09:49:25.000Z</time>
      </trkpt>
      <trkpt lat="44.52084" lon="6.22271">
        <ele>1173.8000488281</ele>
        <time>2016-07-13T09:49:32.000Z</time>
      </trkpt>
      <trkpt lat="44.52085" lon="6.22274">
        <ele>1173.4000244141</ele>
        <time>2016-07-13T09:49:34.000Z</time>
      </trkpt>
      <trkpt lat="44.52089" lon="6.22281">
        <ele>1172.4000244141</ele>
        <time>2016-07-13T09:49:40.000Z</time>
      </trkpt>
      <trkpt lat="44.52094" lon="6.22287">
        <ele>1170.5999755859</ele>
        <time>2016-07-13T09:49:46.000Z</time>
      </trkpt>
      <trkpt lat="44.52095" lon="6.22289">
        <ele>1170.4000244141</ele>
        <time>2016-07-13T09:49:47.000Z</time>
      </trkpt>
      <trkpt lat="44.52095" lon="6.2229">
        <ele>1170.1999511719</ele>
        <time>2016-07-13T09:49:48.000Z</time>
      </trkpt>
      <trkpt lat="44.52095" lon="6.22301">
        <ele>1168.8000488281</ele>
        <time>2016-07-13T09:49:54.000Z</time>
      </trkpt>
      <trkpt lat="44.52095" lon="6.22303">
        <ele>1168.5999755859</ele>
        <time>2016-07-13T09:49:55.000Z</time>
      </trkpt>
      <trkpt lat="44.52094" lon="6.22305">
        <ele>1168.5999755859</ele>
        <time>2016-07-13T09:49:56.000Z</time>
      </trkpt>
      <trkpt lat="44.52091" lon="6.22312">
        <ele>1168.5999755859</ele>
        <time>2016-07-13T09:50:01.000Z</time>
      </trkpt>
      <trkpt lat="44.52088" lon="6.22316">
        <ele>1169.8000488281</ele>
        <time>2016-07-13T09:50:05.000Z</time>
      </trkpt>
      <trkpt lat="44.52083" lon="6.2232">
        <ele>1171.4000244141</ele>
        <time>2016-07-13T09:50:09.000Z</time>
      </trkpt>
      <trkpt lat="44.52075" lon="6.2233">
        <ele>1174.4000244141</ele>
        <time>2016-07-13T09:50:17.000Z</time>
      </trkpt>
      <trkpt lat="44.52072" lon="6.22335">
        <ele>1175.8000488281</ele>
        <time>2016-07-13T09:50:21.000Z</time>
      </trkpt>
      <trkpt lat="44.52068" lon="6.22341">
        <ele>1177.4000244141</ele>
        <time>2016-07-13T09:50:26.000Z</time>
      </trkpt>
      <trkpt lat="44.52064" lon="6.22345">
        <ele>1178.5999755859</ele>
        <time>2016-07-13T09:50:31.000Z</time>
      </trkpt>
      <trkpt lat="44.52059" lon="6.22347">
        <ele>1178.8000488281</ele>
        <time>2016-07-13T09:50:36.000Z</time>
      </trkpt>
      <trkpt lat="44.52056" lon="6.22349">
        <ele>1179.1999511719</ele>
        <time>2016-07-13T09:50:39.000Z</time>
      </trkpt>
      <trkpt lat="44.52051" lon="6.22351">
        <ele>1179.4000244141</ele>
        <time>2016-07-13T09:50:44.000Z</time>
      </trkpt>
      <trkpt lat="44.5204" lon="6.22368">
        <ele>1179.5999755859</ele>
        <time>2016-07-13T09:51:16.000Z</time>
      </trkpt>
      <trkpt lat="44.52039" lon="6.22368">
        <ele>1179.8000488281</ele>
        <time>2016-07-13T09:51:17.000Z</time>
      </trkpt>
      <trkpt lat="44.52032" lon="6.22373">
        <ele>1180.4000244141</ele>
        <time>2016-07-13T09:51:23.000Z</time>
      </trkpt>
      <trkpt lat="44.52031" lon="6.22374">
        <ele>1180.5999755859</ele>
        <time>2016-07-13T09:51:24.000Z</time>
      </trkpt>
      <trkpt lat="44.5203" lon="6.22374">
        <ele>1180.8000488281</ele>
        <time>2016-07-13T09:51:25.000Z</time>
      </trkpt>
      <trkpt lat="44.52025" lon="6.22374">
        <ele>1182</ele>
        <time>2016-07-13T09:51:30.000Z</time>
      </trkpt>
      <trkpt lat="44.52022" lon="6.22374">
        <ele>1183</ele>
        <time>2016-07-13T09:51:33.000Z</time>
      </trkpt>
      <trkpt lat="44.52018" lon="6.22375">
        <ele>1183.8000488281</ele>
        <time>2016-07-13T09:51:36.000Z</time>
      </trkpt>
      <trkpt lat="44.52012" lon="6.22376">
        <ele>1185</ele>
        <time>2016-07-13T09:51:42.000Z</time>
      </trkpt>
      <trkpt lat="44.52007" lon="6.22375">
        <ele>1186.4000244141</ele>
        <time>2016-07-13T09:51:48.000Z</time>
      </trkpt>
      <trkpt lat="44.52006" lon="6.22375">
        <ele>1186.5999755859</ele>
        <time>2016-07-13T09:51:49.000Z</time>
      </trkpt>
      <trkpt lat="44.52001" lon="6.22376">
        <ele>1187.5999755859</ele>
        <time>2016-07-13T09:51:54.000Z</time>
      </trkpt>
      <trkpt lat="44.52" lon="6.22377">
        <ele>1187.8000488281</ele>
        <time>2016-07-13T09:51:55.000Z</time>
      </trkpt>
      <trkpt lat="44.51998" lon="6.22379">
        <ele>1188.4000244141</ele>
        <time>2016-07-13T09:52:00.000Z</time>
      </trkpt>
      <trkpt lat="44.51994" lon="6.22383">
        <ele>1189</ele>
        <time>2016-07-13T09:52:04.000Z</time>
      </trkpt>
      <trkpt lat="44.51989" lon="6.22388">
        <ele>1190.1999511719</ele>
        <time>2016-07-13T09:52:09.000Z</time>
      </trkpt>
      <trkpt lat="44.51984" lon="6.22394">
        <ele>1191.1999511719</ele>
        <time>2016-07-13T09:52:15.000Z</time>
      </trkpt>
      <trkpt lat="44.51978" lon="6.22397">
        <ele>1192.5999755859</ele>
        <time>2016-07-13T09:52:21.000Z</time>
      </trkpt>
      <trkpt lat="44.51974" lon="6.22401">
        <ele>1194.1999511719</ele>
        <time>2016-07-13T09:52:25.000Z</time>
      </trkpt>
      <trkpt lat="44.51967" lon="6.22406">
        <ele>1196.4000244141</ele>
        <time>2016-07-13T09:52:32.000Z</time>
      </trkpt>
      <trkpt lat="44.51964" lon="6.22408">
        <ele>1197.1999511719</ele>
        <time>2016-07-13T09:52:34.000Z</time>
      </trkpt>
      <trkpt lat="44.51962" lon="6.2241">
        <ele>1197.8000488281</ele>
        <time>2016-07-13T09:52:36.000Z</time>
      </trkpt>
      <trkpt lat="44.51963" lon="6.22412">
        <ele>1198.1999511719</ele>
        <time>2016-07-13T09:52:40.000Z</time>
      </trkpt>
      <trkpt lat="44.51967" lon="6.22414">
        <ele>1197.4000244141</ele>
        <time>2016-07-13T09:52:45.000Z</time>
      </trkpt>
      <trkpt lat="44.51973" lon="6.22417">
        <ele>1196</ele>
        <time>2016-07-13T09:52:52.000Z</time>
      </trkpt>
      <trkpt lat="44.51981" lon="6.22419">
        <ele>1194.5999755859</ele>
        <time>2016-07-13T09:52:58.000Z</time>
      </trkpt>
      <trkpt lat="44.5198" lon="6.22422">
        <ele>1195</ele>
        <time>2016-07-13T09:53:02.000Z</time>
      </trkpt>
      <trkpt lat="44.51973" lon="6.22433">
        <ele>1198.5999755859</ele>
        <time>2016-07-13T09:53:15.000Z</time>
      </trkpt>
      <trkpt lat="44.51971" lon="6.2244">
        <ele>1200.4000244141</ele>
        <time>2016-07-13T09:53:19.000Z</time>
      </trkpt>
      <trkpt lat="44.51968" lon="6.22443">
        <ele>1201.5999755859</ele>
        <time>2016-07-13T09:53:21.000Z</time>
      </trkpt>
      <trkpt lat="44.51962" lon="6.22448">
        <ele>1204</ele>
        <time>2016-07-13T09:53:26.000Z</time>
      </trkpt>
      <trkpt lat="44.51958" lon="6.22454">
        <ele>1206</ele>
        <time>2016-07-13T09:53:31.000Z</time>
      </trkpt>
      <trkpt lat="44.51955" lon="6.22461">
        <ele>1208</ele>
        <time>2016-07-13T09:53:36.000Z</time>
      </trkpt>
      <trkpt lat="44.51954" lon="6.22463">
        <ele>1208.5999755859</ele>
        <time>2016-07-13T09:53:38.000Z</time>
      </trkpt>
      <trkpt lat="44.51953" lon="6.22466">
        <ele>1209.1999511719</ele>
        <time>2016-07-13T09:53:40.000Z</time>
      </trkpt>
      <trkpt lat="44.51951" lon="6.22468">
        <ele>1210.4000244141</ele>
        <time>2016-07-13T09:53:43.000Z</time>
      </trkpt>
      <trkpt lat="44.51947" lon="6.22474">
        <ele>1212.1999511719</ele>
        <time>2016-07-13T09:53:48.000Z</time>
      </trkpt>
      <trkpt lat="44.51942" lon="6.22481">
        <ele>1214</ele>
        <time>2016-07-13T09:53:56.000Z</time>
      </trkpt>
      <trkpt lat="44.51939" lon="6.22484">
        <ele>1215</ele>
        <time>2016-07-13T09:53:59.000Z</time>
      </trkpt>
      <trkpt lat="44.51935" lon="6.2249">
        <ele>1216.4000244141</ele>
        <time>2016-07-13T09:54:05.000Z</time>
      </trkpt>
      <trkpt lat="44.51929" lon="6.22496">
        <ele>1218.4000244141</ele>
        <time>2016-07-13T09:54:12.000Z</time>
      </trkpt>
      <trkpt lat="44.51925" lon="6.22498">
        <ele>1219.4000244141</ele>
        <time>2016-07-13T09:54:16.000Z</time>
      </trkpt>
      <trkpt lat="44.51918" lon="6.22502">
        <ele>1221.4000244141</ele>
        <time>2016-07-13T09:54:24.000Z</time>
      </trkpt>
      <trkpt lat="44.51915" lon="6.22506">
        <ele>1222.5999755859</ele>
        <time>2016-07-13T09:54:28.000Z</time>
      </trkpt>
      <trkpt lat="44.51912" lon="6.22511">
        <ele>1223.8000488281</ele>
        <time>2016-07-13T09:54:33.000Z</time>
      </trkpt>
      <trkpt lat="44.51909" lon="6.22516">
        <ele>1225</ele>
        <time>2016-07-13T09:54:37.000Z</time>
      </trkpt>
      <trkpt lat="44.51905" lon="6.22523">
        <ele>1226.5999755859</ele>
        <time>2016-07-13T09:54:43.000Z</time>
      </trkpt>
      <trkpt lat="44.51899" lon="6.22531">
        <ele>1229</ele>
        <time>2016-07-13T09:54:50.000Z</time>
      </trkpt>
      <trkpt lat="44.51899" lon="6.22533">
        <ele>1229.4000244141</ele>
        <time>2016-07-13T09:54:51.000Z</time>
      </trkpt>
      <trkpt lat="44.51893" lon="6.22543">
        <ele>1231.8000488281</ele>
        <time>2016-07-13T09:54:58.000Z</time>
      </trkpt>
      <trkpt lat="44.51887" lon="6.22549">
        <ele>1234</ele>
        <time>2016-07-13T09:55:03.000Z</time>
      </trkpt>
      <trkpt lat="44.51881" lon="6.22557">
        <ele>1236.1999511719</ele>
        <time>2016-07-13T09:55:10.000Z</time>
      </trkpt>
      <trkpt lat="44.51881" lon="6.22558">
        <ele>1236.5999755859</ele>
        <time>2016-07-13T09:55:11.000Z</time>
      </trkpt>
      <trkpt lat="44.51878" lon="6.22562">
        <ele>1237.5999755859</ele>
        <time>2016-07-13T09:55:18.000Z</time>
      </trkpt>
      <trkpt lat="44.51873" lon="6.22564">
        <ele>1238.8000488281</ele>
        <time>2016-07-13T09:55:28.000Z</time>
      </trkpt>
      <trkpt lat="44.5187" lon="6.22566">
        <ele>1239.4000244141</ele>
        <time>2016-07-13T09:55:35.000Z</time>
      </trkpt>
      <trkpt lat="44.51868" lon="6.2257">
        <ele>1240.5999755859</ele>
        <time>2016-07-13T09:55:43.000Z</time>
      </trkpt>
      <trkpt lat="44.51865" lon="6.22576">
        <ele>1242</ele>
        <time>2016-07-13T09:55:48.000Z</time>
      </trkpt>
      <trkpt lat="44.51865" lon="6.2258">
        <ele>1242.5999755859</ele>
        <time>2016-07-13T09:55:51.000Z</time>
      </trkpt>
      <trkpt lat="44.51863" lon="6.2259">
        <ele>1244</ele>
        <time>2016-07-13T09:55:57.000Z</time>
      </trkpt>
      <trkpt lat="44.51863" lon="6.22591">
        <ele>1244.1999511719</ele>
        <time>2016-07-13T09:55:58.000Z</time>
      </trkpt>
      <trkpt lat="44.51863" lon="6.22594">
        <ele>1244.5999755859</ele>
        <time>2016-07-13T09:56:00.000Z</time>
      </trkpt>
      <trkpt lat="44.51862" lon="6.22601">
        <ele>1245.5999755859</ele>
        <time>2016-07-13T09:56:04.000Z</time>
      </trkpt>
      <trkpt lat="44.51861" lon="6.22603">
        <ele>1246</ele>
        <time>2016-07-13T09:56:06.000Z</time>
      </trkpt>
      <trkpt lat="44.51854" lon="6.22623">
        <ele>1250.1999511719</ele>
        <time>2016-07-13T09:56:18.000Z</time>
      </trkpt>
      <trkpt lat="44.51853" lon="6.22634">
        <ele>1251.5999755859</ele>
        <time>2016-07-13T09:56:25.000Z</time>
      </trkpt>
      <trkpt lat="44.51853" lon="6.22642">
        <ele>1252.4000244141</ele>
        <time>2016-07-13T09:56:31.000Z</time>
      </trkpt>
      <trkpt lat="44.51856" lon="6.22648">
        <ele>1252.1999511719</ele>
        <time>2016-07-13T09:56:37.000Z</time>
      </trkpt>
      <trkpt lat="44.51855" lon="6.22647">
        <ele>1252.4000244141</ele>
        <time>2016-07-13T09:56:41.000Z</time>
      </trkpt>
      <trkpt lat="44.51856" lon="6.22651">
        <ele>1252.4000244141</ele>
        <time>2016-07-13T09:56:48.000Z</time>
      </trkpt>
      <trkpt lat="44.51856" lon="6.22655">
        <ele>1252.4000244141</ele>
        <time>2016-07-13T09:56:51.000Z</time>
      </trkpt>
      <trkpt lat="44.51857" lon="6.22664">
        <ele>1252.5999755859</ele>
        <time>2016-07-13T09:56:57.000Z</time>
      </trkpt>
      <trkpt lat="44.51858" lon="6.22665">
        <ele>1252.4000244141</ele>
        <time>2016-07-13T09:56:58.000Z</time>
      </trkpt>
      <trkpt lat="44.51865" lon="6.22682">
        <ele>1251.4000244141</ele>
        <time>2016-07-13T09:57:10.000Z</time>
      </trkpt>
      <trkpt lat="44.51864" lon="6.22686">
        <ele>1251.8000488281</ele>
        <time>2016-07-13T09:57:16.000Z</time>
      </trkpt>
      <trkpt lat="44.51857" lon="6.22692">
        <ele>1254</ele>
        <time>2016-07-13T09:57:23.000Z</time>
      </trkpt>
      <trkpt lat="44.51851" lon="6.227">
        <ele>1256.1999511719</ele>
        <time>2016-07-13T09:57:30.000Z</time>
      </trkpt>
      <trkpt lat="44.51846" lon="6.22706">
        <ele>1257.5999755859</ele>
        <time>2016-07-13T09:57:36.000Z</time>
      </trkpt>
      <trkpt lat="44.5184" lon="6.22714">
        <ele>1260.1999511719</ele>
        <time>2016-07-13T09:57:45.000Z</time>
      </trkpt>
      <trkpt lat="44.51836" lon="6.22718">
        <ele>1261.5999755859</ele>
        <time>2016-07-13T09:57:51.000Z</time>
      </trkpt>
      <trkpt lat="44.51831" lon="6.22722">
        <ele>1263.4000244141</ele>
        <time>2016-07-13T09:57:58.000Z</time>
      </trkpt>
      <trkpt lat="44.5183" lon="6.22726">
        <ele>1264</ele>
        <time>2016-07-13T09:58:03.000Z</time>
      </trkpt>
      <trkpt lat="44.51828" lon="6.22729">
        <ele>1264.8000488281</ele>
        <time>2016-07-13T09:58:06.000Z</time>
      </trkpt>
      <trkpt lat="44.51825" lon="6.22734">
        <ele>1265.5999755859</ele>
        <time>2016-07-13T09:58:10.000Z</time>
      </trkpt>
      <trkpt lat="44.51819" lon="6.22746">
        <ele>1267.5999755859</ele>
        <time>2016-07-13T09:58:19.000Z</time>
      </trkpt>
      <trkpt lat="44.51816" lon="6.22755">
        <ele>1268.8000488281</ele>
        <time>2016-07-13T09:58:25.000Z</time>
      </trkpt>
      <trkpt lat="44.51815" lon="6.22757">
        <ele>1268.8000488281</ele>
        <time>2016-07-13T09:58:27.000Z</time>
      </trkpt>
      <trkpt lat="44.51812" lon="6.22766">
        <ele>1269.8000488281</ele>
        <time>2016-07-13T09:58:34.000Z</time>
      </trkpt>
      <trkpt lat="44.51807" lon="6.22774">
        <ele>1271.4000244141</ele>
        <time>2016-07-13T09:58:40.000Z</time>
      </trkpt>
      <trkpt lat="44.51803" lon="6.22783">
        <ele>1272.5999755859</ele>
        <time>2016-07-13T09:58:47.000Z</time>
      </trkpt>
      <trkpt lat="44.51802" lon="6.22786">
        <ele>1272.5999755859</ele>
        <time>2016-07-13T09:58:49.000Z</time>
      </trkpt>
      <trkpt lat="44.51802" lon="6.2279">
        <ele>1272.8000488281</ele>
        <time>2016-07-13T09:58:51.000Z</time>
      </trkpt>
      <trkpt lat="44.51797" lon="6.22798">
        <ele>1274.1999511719</ele>
        <time>2016-07-13T09:58:56.000Z</time>
      </trkpt>
      <trkpt lat="44.51796" lon="6.22799">
        <ele>1274.4000244141</ele>
        <time>2016-07-13T09:58:57.000Z</time>
      </trkpt>
      <trkpt lat="44.5179" lon="6.22812">
        <ele>1276.1999511719</ele>
        <time>2016-07-13T09:59:05.000Z</time>
      </trkpt>
      <trkpt lat="44.51789" lon="6.22814">
        <ele>1276.5999755859</ele>
        <time>2016-07-13T09:59:07.000Z</time>
      </trkpt>
      <trkpt lat="44.51783" lon="6.22829">
        <ele>1278.8000488281</ele>
        <time>2016-07-13T09:59:20.000Z</time>
      </trkpt>
      <trkpt lat="44.51782" lon="6.22844">
        <ele>1279.8000488281</ele>
        <time>2016-07-13T09:59:45.000Z</time>
      </trkpt>
      <trkpt lat="44.51781" lon="6.2285">
        <ele>1280.1999511719</ele>
        <time>2016-07-13T09:59:50.000Z</time>
      </trkpt>
      <trkpt lat="44.51781" lon="6.22858">
        <ele>1280.5999755859</ele>
        <time>2016-07-13T09:59:56.000Z</time>
      </trkpt>
      <trkpt lat="44.5178" lon="6.22865">
        <ele>1281.4000244141</ele>
        <time>2016-07-13T10:00:03.000Z</time>
      </trkpt>
      <trkpt lat="44.51775" lon="6.2287">
        <ele>1283.4000244141</ele>
        <time>2016-07-13T10:00:15.000Z</time>
      </trkpt>
      <trkpt lat="44.51771" lon="6.22873">
        <ele>1285</ele>
        <time>2016-07-13T10:00:18.000Z</time>
      </trkpt>
      <trkpt lat="44.51764" lon="6.22874">
        <ele>1287.8000488281</ele>
        <time>2016-07-13T10:00:23.000Z</time>
      </trkpt>
      <trkpt lat="44.51757" lon="6.22871">
        <ele>1290</ele>
        <time>2016-07-13T10:00:29.000Z</time>
      </trkpt>
      <trkpt lat="44.51751" lon="6.22867">
        <ele>1292</ele>
        <time>2016-07-13T10:00:35.000Z</time>
      </trkpt>
      <trkpt lat="44.51748" lon="6.22866">
        <ele>1292.8000488281</ele>
        <time>2016-07-13T10:00:37.000Z</time>
      </trkpt>
      <trkpt lat="44.51738" lon="6.22862">
        <ele>1296</ele>
        <time>2016-07-13T10:00:46.000Z</time>
      </trkpt>
      <trkpt lat="44.51731" lon="6.2286">
        <ele>1298.4000244141</ele>
        <time>2016-07-13T10:00:52.000Z</time>
      </trkpt>
      <trkpt lat="44.51731" lon="6.22861">
        <ele>1298.4000244141</ele>
        <time>2016-07-13T10:01:02.000Z</time>
      </trkpt>
      <trkpt lat="44.51734" lon="6.22861">
        <ele>1297.4000244141</ele>
        <time>2016-07-13T10:01:07.000Z</time>
      </trkpt>
      <trkpt lat="44.51739" lon="6.22862">
        <ele>1295.8000488281</ele>
        <time>2016-07-13T10:01:13.000Z</time>
      </trkpt>
      <trkpt lat="44.51742" lon="6.22865">
        <ele>1294.5999755859</ele>
        <time>2016-07-13T10:01:19.000Z</time>
      </trkpt>
      <trkpt lat="44.51745" lon="6.22868">
        <ele>1293.5999755859</ele>
        <time>2016-07-13T10:01:25.000Z</time>
      </trkpt>
      <trkpt lat="44.51752" lon="6.22871">
        <ele>1291.5999755859</ele>
        <time>2016-07-13T10:01:32.000Z</time>
      </trkpt>
      <trkpt lat="44.51752" lon="6.2287">
        <ele>1291.5999755859</ele>
        <time>2016-07-13T10:01:41.000Z</time>
      </trkpt>
      <trkpt lat="44.51757" lon="6.22867">
        <ele>1289.8000488281</ele>
        <time>2016-07-13T10:01:52.000Z</time>
      </trkpt>
      <trkpt lat="44.51758" lon="6.22869">
        <ele>1289.4000244141</ele>
        <time>2016-07-13T10:01:57.000Z</time>
      </trkpt>
      <trkpt lat="44.51761" lon="6.22872">
        <ele>1288.5999755859</ele>
        <time>2016-07-13T10:02:01.000Z</time>
      </trkpt>
      <trkpt lat="44.51761" lon="6.22874">
        <ele>1288.4000244141</ele>
        <time>2016-07-13T10:02:07.000Z</time>
      </trkpt>
      <trkpt lat="44.5176" lon="6.2287">
        <ele>1289</ele>
        <time>2016-07-13T10:02:12.000Z</time>
      </trkpt>
      <trkpt lat="44.51762" lon="6.22878">
        <ele>1288.1999511719</ele>
        <time>2016-07-13T10:02:19.000Z</time>
      </trkpt>
      <trkpt lat="44.51762" lon="6.22886">
        <ele>1288</ele>
        <time>2016-07-13T10:02:24.000Z</time>
      </trkpt>
      <trkpt lat="44.51763" lon="6.22889">
        <ele>1287.8000488281</ele>
        <time>2016-07-13T10:02:31.000Z</time>
      </trkpt>
      <trkpt lat="44.51762" lon="6.22892">
        <ele>1287.8000488281</ele>
        <time>2016-07-13T10:02:48.000Z</time>
      </trkpt>
      <trkpt lat="44.51762" lon="6.22897">
        <ele>1287.5999755859</ele>
        <time>2016-07-13T10:03:43.000Z</time>
      </trkpt>
      <trkpt lat="44.51763" lon="6.22895">
        <ele>1287.5999755859</ele>
        <time>2016-07-13T10:03:49.000Z</time>
      </trkpt>
      <trkpt lat="44.51763" lon="6.22894">
        <ele>1287.4000244141</ele>
        <time>2016-07-13T10:04:06.000Z</time>
      </trkpt>
      <trkpt lat="44.51763" lon="6.22897">
        <ele>1287.5999755859</ele>
        <time>2016-07-13T10:04:16.000Z</time>
      </trkpt>
      <trkpt lat="44.51763" lon="6.22896">
        <ele>1287.4000244141</ele>
        <time>2016-07-13T10:04:20.000Z</time>
      </trkpt>
      <trkpt lat="44.51762" lon="6.22896">
        <ele>1287.8000488281</ele>
        <time>2016-07-13T10:04:25.000Z</time>
      </trkpt>
      <trkpt lat="44.51763" lon="6.22895">
        <ele>1287.4000244141</ele>
        <time>2016-07-13T10:04:32.000Z</time>
      </trkpt>
      <trkpt lat="44.51763" lon="6.22898">
        <ele>1287.1999511719</ele>
        <time>2016-07-13T10:04:36.000Z</time>
      </trkpt>
      <trkpt lat="44.51765" lon="6.229">
        <ele>1286.5999755859</ele>
        <time>2016-07-13T10:04:38.000Z</time>
      </trkpt>
      <trkpt lat="44.5177" lon="6.22906">
        <ele>1284.5999755859</ele>
        <time>2016-07-13T10:04:45.000Z</time>
      </trkpt>
      <trkpt lat="44.51775" lon="6.22912">
        <ele>1282.8000488281</ele>
        <time>2016-07-13T10:04:51.000Z</time>
      </trkpt>
      <trkpt lat="44.51776" lon="6.22914">
        <ele>1282.5999755859</ele>
        <time>2016-07-13T10:04:52.000Z</time>
      </trkpt>
      <trkpt lat="44.51777" lon="6.22916">
        <ele>1282.1999511719</ele>
        <time>2016-07-13T10:04:54.000Z</time>
      </trkpt>
      <trkpt lat="44.51778" lon="6.22919">
        <ele>1281.5999755859</ele>
        <time>2016-07-13T10:04:56.000Z</time>
      </trkpt>
      <trkpt lat="44.51779" lon="6.22925">
        <ele>1281</ele>
        <time>2016-07-13T10:05:02.000Z</time>
      </trkpt>
      <trkpt lat="44.51773" lon="6.22927">
        <ele>1283</ele>
        <time>2016-07-13T10:05:11.000Z</time>
      </trkpt>
      <trkpt lat="44.51769" lon="6.22926">
        <ele>1284</ele>
        <time>2016-07-13T10:05:16.000Z</time>
      </trkpt>
      <trkpt lat="44.51767" lon="6.22927">
        <ele>1284.8000488281</ele>
        <time>2016-07-13T10:05:23.000Z</time>
      </trkpt>
      <trkpt lat="44.51765" lon="6.22928">
        <ele>1285.1999511719</ele>
        <time>2016-07-13T10:05:34.000Z</time>
      </trkpt>
      <trkpt lat="44.51767" lon="6.22928">
        <ele>1284.8000488281</ele>
        <time>2016-07-13T10:05:50.000Z</time>
      </trkpt>
      <trkpt lat="44.51762" lon="6.22927">
        <ele>1286.1999511719</ele>
        <time>2016-07-13T10:06:12.000Z</time>
      </trkpt>
      <trkpt lat="44.5176" lon="6.22927">
        <ele>1286.8000488281</ele>
        <time>2016-07-13T10:06:14.000Z</time>
      </trkpt>
      <trkpt lat="44.51759" lon="6.22926">
        <ele>1287.4000244141</ele>
        <time>2016-07-13T10:06:16.000Z</time>
      </trkpt>
      <trkpt lat="44.51755" lon="6.22926">
        <ele>1288.4000244141</ele>
        <time>2016-07-13T10:06:20.000Z</time>
      </trkpt>
      <trkpt lat="44.5175" lon="6.22923">
        <ele>1290.1999511719</ele>
        <time>2016-07-13T10:06:28.000Z</time>
      </trkpt>
      <trkpt lat="44.51745" lon="6.22924">
        <ele>1291.8000488281</ele>
        <time>2016-07-13T10:06:34.000Z</time>
      </trkpt>
      <trkpt lat="44.51741" lon="6.22924">
        <ele>1292.8000488281</ele>
        <time>2016-07-13T10:06:40.000Z</time>
      </trkpt>
      <trkpt lat="44.5174" lon="6.22922">
        <ele>1293.4000244141</ele>
        <time>2016-07-13T10:06:46.000Z</time>
      </trkpt>
      <trkpt lat="44.51741" lon="6.2292">
        <ele>1293.1999511719</ele>
        <time>2016-07-13T10:06:53.000Z</time>
      </trkpt>
      <trkpt lat="44.51739" lon="6.2292">
        <ele>1293.5999755859</ele>
        <time>2016-07-13T10:06:57.000Z</time>
      </trkpt>
      <trkpt lat="44.51728" lon="6.22922">
        <ele>1297</ele>
        <time>2016-07-13T10:07:11.000Z</time>
      </trkpt>
      <trkpt lat="44.51725" lon="6.22921">
        <ele>1298.1999511719</ele>
        <time>2016-07-13T10:07:13.000Z</time>
      </trkpt>
      <trkpt lat="44.51719" lon="6.22923">
        <ele>1299.5999755859</ele>
        <time>2016-07-13T10:07:18.000Z</time>
      </trkpt>
      <trkpt lat="44.51719" lon="6.22924">
        <ele>1299.8000488281</ele>
        <time>2016-07-13T10:07:20.000Z</time>
      </trkpt>
      <trkpt lat="44.51717" lon="6.22926">
        <ele>1300</ele>
        <time>2016-07-13T10:07:33.000Z</time>
      </trkpt>
      <trkpt lat="44.51716" lon="6.22928">
        <ele>1300.1999511719</ele>
        <time>2016-07-13T10:07:38.000Z</time>
      </trkpt>
      <trkpt lat="44.51716" lon="6.22931">
        <ele>1299.8000488281</ele>
        <time>2016-07-13T10:07:43.000Z</time>
      </trkpt>
      <trkpt lat="44.51715" lon="6.22933">
        <ele>1300.1999511719</ele>
        <time>2016-07-13T10:07:47.000Z</time>
      </trkpt>
      <trkpt lat="44.51715" lon="6.22934">
        <ele>1300</ele>
        <time>2016-07-13T10:07:54.000Z</time>
      </trkpt>
      <trkpt lat="44.51714" lon="6.22934">
        <ele>1300.1999511719</ele>
        <time>2016-07-13T10:07:55.000Z</time>
      </trkpt>
      <trkpt lat="44.51709" lon="6.22937">
        <ele>1301.4000244141</ele>
        <time>2016-07-13T10:08:00.000Z</time>
      </trkpt>
      <trkpt lat="44.51702" lon="6.22939">
        <ele>1303.4000244141</ele>
        <time>2016-07-13T10:08:08.000Z</time>
      </trkpt>
      <trkpt lat="44.51701" lon="6.22939">
        <ele>1303.5999755859</ele>
        <time>2016-07-13T10:08:10.000Z</time>
      </trkpt>
      <trkpt lat="44.51691" lon="6.22947">
        <ele>1306.1999511719</ele>
        <time>2016-07-13T10:08:20.000Z</time>
      </trkpt>
      <trkpt lat="44.51689" lon="6.22947">
        <ele>1306.5999755859</ele>
        <time>2016-07-13T10:08:22.000Z</time>
      </trkpt>
      <trkpt lat="44.51686" lon="6.22956">
        <ele>1307</ele>
        <time>2016-07-13T10:08:29.000Z</time>
      </trkpt>
      <trkpt lat="44.51684" lon="6.22959">
        <ele>1307.4000244141</ele>
        <time>2016-07-13T10:08:31.000Z</time>
      </trkpt>
      <trkpt lat="44.51681" lon="6.22967">
        <ele>1307.5999755859</ele>
        <time>2016-07-13T10:08:36.000Z</time>
      </trkpt>
      <trkpt lat="44.51678" lon="6.22978">
        <ele>1308.1999511719</ele>
        <time>2016-07-13T10:08:42.000Z</time>
      </trkpt>
      <trkpt lat="44.51678" lon="6.22981">
        <ele>1308.4000244141</ele>
        <time>2016-07-13T10:08:44.000Z</time>
      </trkpt>
      <trkpt lat="44.51671" lon="6.22994">
        <ele>1310.4000244141</ele>
        <time>2016-07-13T10:08:52.000Z</time>
      </trkpt>
      <trkpt lat="44.5167" lon="6.22997">
        <ele>1310.8000488281</ele>
        <time>2016-07-13T10:08:54.000Z</time>
      </trkpt>
      <trkpt lat="44.51662" lon="6.23005">
        <ele>1313.1999511719</ele>
        <time>2016-07-13T10:09:02.000Z</time>
      </trkpt>
      <trkpt lat="44.51659" lon="6.23008">
        <ele>1314.1999511719</ele>
        <time>2016-07-13T10:09:05.000Z</time>
      </trkpt>
      <trkpt lat="44.5165" lon="6.23021">
        <ele>1316.5999755859</ele>
        <time>2016-07-13T10:09:19.000Z</time>
      </trkpt>
      <trkpt lat="44.51649" lon="6.23021">
        <ele>1316.8000488281</ele>
        <time>2016-07-13T10:09:20.000Z</time>
      </trkpt>
      <trkpt lat="44.51647" lon="6.23019">
        <ele>1317.5999755859</ele>
        <time>2016-07-13T10:09:22.000Z</time>
      </trkpt>
      <trkpt lat="44.51643" lon="6.23019">
        <ele>1318.8000488281</ele>
        <time>2016-07-13T10:09:27.000Z</time>
      </trkpt>
      <trkpt lat="44.51639" lon="6.23028">
        <ele>1319.5999755859</ele>
        <time>2016-07-13T10:09:33.000Z</time>
      </trkpt>
      <trkpt lat="44.51639" lon="6.23029">
        <ele>1319.5999755859</ele>
        <time>2016-07-13T10:09:34.000Z</time>
      </trkpt>
      <trkpt lat="44.51638" lon="6.23039">
        <ele>1319.4000244141</ele>
        <time>2016-07-13T10:09:40.000Z</time>
      </trkpt>
      <trkpt lat="44.51639" lon="6.2304">
        <ele>1319.1999511719</ele>
        <time>2016-07-13T10:09:46.000Z</time>
      </trkpt>
      <trkpt lat="44.5164" lon="6.23041">
        <ele>1318.8000488281</ele>
        <time>2016-07-13T10:09:53.000Z</time>
      </trkpt>
      <trkpt lat="44.5164" lon="6.23047">
        <ele>1318.5999755859</ele>
        <time>2016-07-13T10:10:05.000Z</time>
      </trkpt>
      <trkpt lat="44.51637" lon="6.23059">
        <ele>1319</ele>
        <time>2016-07-13T10:10:12.000Z</time>
      </trkpt>
      <trkpt lat="44.51632" lon="6.23074">
        <ele>1321.5999755859</ele>
        <time>2016-07-13T10:10:21.000Z</time>
      </trkpt>
      <trkpt lat="44.51628" lon="6.23083">
        <ele>1322.8000488281</ele>
        <time>2016-07-13T10:10:27.000Z</time>
      </trkpt>
      <trkpt lat="44.5163" lon="6.23095">
        <ele>1322.5999755859</ele>
        <time>2016-07-13T10:10:35.000Z</time>
      </trkpt>
      <trkpt lat="44.51635" lon="6.23105">
        <ele>1321.8000488281</ele>
        <time>2016-07-13T10:10:42.000Z</time>
      </trkpt>
      <trkpt lat="44.51638" lon="6.23117">
        <ele>1321.1999511719</ele>
        <time>2016-07-13T10:10:49.000Z</time>
      </trkpt>
      <trkpt lat="44.51642" lon="6.23128">
        <ele>1320.5999755859</ele>
        <time>2016-07-13T10:10:57.000Z</time>
      </trkpt>
      <trkpt lat="44.51649" lon="6.23136">
        <ele>1319</ele>
        <time>2016-07-13T10:11:05.000Z</time>
      </trkpt>
      <trkpt lat="44.5165" lon="6.23138">
        <ele>1318.8000488281</ele>
        <time>2016-07-13T10:11:06.000Z</time>
      </trkpt>
      <trkpt lat="44.51652" lon="6.23144">
        <ele>1318.5999755859</ele>
        <time>2016-07-13T10:11:11.000Z</time>
      </trkpt>
      <trkpt lat="44.51653" lon="6.23147">
        <ele>1318.4000244141</ele>
        <time>2016-07-13T10:11:13.000Z</time>
      </trkpt>
      <trkpt lat="44.51658" lon="6.23158">
        <ele>1319</ele>
        <time>2016-07-13T10:11:22.000Z</time>
      </trkpt>
      <trkpt lat="44.51662" lon="6.2316">
        <ele>1318.1999511719</ele>
        <time>2016-07-13T10:11:25.000Z</time>
      </trkpt>
      <trkpt lat="44.51672" lon="6.23158">
        <ele>1315.5999755859</ele>
        <time>2016-07-13T10:11:33.000Z</time>
      </trkpt>
      <trkpt lat="44.51679" lon="6.23158">
        <ele>1314</ele>
        <time>2016-07-13T10:11:39.000Z</time>
      </trkpt>
      <trkpt lat="44.51687" lon="6.23163">
        <ele>1312.8000488281</ele>
        <time>2016-07-13T10:11:46.000Z</time>
      </trkpt>
      <trkpt lat="44.51692" lon="6.23168">
        <ele>1312.1999511719</ele>
        <time>2016-07-13T10:11:52.000Z</time>
      </trkpt>
      <trkpt lat="44.51698" lon="6.23176">
        <ele>1311.8000488281</ele>
        <time>2016-07-13T10:11:59.000Z</time>
      </trkpt>
      <trkpt lat="44.517" lon="6.23179">
        <ele>1311.8000488281</ele>
        <time>2016-07-13T10:12:06.000Z</time>
      </trkpt>
      <trkpt lat="44.51704" lon="6.23185">
        <ele>1312.4000244141</ele>
        <time>2016-07-13T10:12:21.000Z</time>
      </trkpt>
      <trkpt lat="44.5171" lon="6.23193">
        <ele>1312.8000488281</ele>
        <time>2016-07-13T10:12:27.000Z</time>
      </trkpt>
      <trkpt lat="44.5172" lon="6.23206">
        <ele>1313.5999755859</ele>
        <time>2016-07-13T10:12:37.000Z</time>
      </trkpt>
      <trkpt lat="44.5173" lon="6.23221">
        <ele>1314.5999755859</ele>
        <time>2016-07-13T10:12:48.000Z</time>
      </trkpt>
      <trkpt lat="44.51742" lon="6.23237">
        <ele>1316.4000244141</ele>
        <time>2016-07-13T10:13:00.000Z</time>
      </trkpt>
      <trkpt lat="44.5175" lon="6.23247">
        <ele>1317.5999755859</ele>
        <time>2016-07-13T10:13:08.000Z</time>
      </trkpt>
      <trkpt lat="44.51752" lon="6.23253">
        <ele>1318.5999755859</ele>
        <time>2016-07-13T10:13:11.000Z</time>
      </trkpt>
      <trkpt lat="44.51756" lon="6.23267">
        <ele>1321.1999511719</ele>
        <time>2016-07-13T10:13:19.000Z</time>
      </trkpt>
      <trkpt lat="44.51757" lon="6.23298">
        <ele>1328</ele>
        <time>2016-07-13T10:13:35.000Z</time>
      </trkpt>
      <trkpt lat="44.5176" lon="6.23314">
        <ele>1331.8000488281</ele>
        <time>2016-07-13T10:13:44.000Z</time>
      </trkpt>
      <trkpt lat="44.51765" lon="6.23334">
        <ele>1336.5999755859</ele>
        <time>2016-07-13T10:13:55.000Z</time>
      </trkpt>
      <trkpt lat="44.51769" lon="6.23348">
        <ele>1340.1999511719</ele>
        <time>2016-07-13T10:14:05.000Z</time>
      </trkpt>
      <trkpt lat="44.51773" lon="6.23359">
        <ele>1342.8000488281</ele>
        <time>2016-07-13T10:14:13.000Z</time>
      </trkpt>
      <trkpt lat="44.51777" lon="6.23366">
        <ele>1344.4000244141</ele>
        <time>2016-07-13T10:14:20.000Z</time>
      </trkpt>
      <trkpt lat="44.51781" lon="6.23373">
        <ele>1345.5999755859</ele>
        <time>2016-07-13T10:14:26.000Z</time>
      </trkpt>
      <trkpt lat="44.51789" lon="6.2338">
        <ele>1346.4000244141</ele>
        <time>2016-07-13T10:14:33.000Z</time>
      </trkpt>
      <trkpt lat="44.51798" lon="6.2339">
        <ele>1347.1999511719</ele>
        <time>2016-07-13T10:14:41.000Z</time>
      </trkpt>
      <trkpt lat="44.5181" lon="6.23401">
        <ele>1347.4000244141</ele>
        <time>2016-07-13T10:14:52.000Z</time>
      </trkpt>
      <trkpt lat="44.51821" lon="6.23406">
        <ele>1346.4000244141</ele>
        <time>2016-07-13T10:15:00.000Z</time>
      </trkpt>
      <trkpt lat="44.51828" lon="6.23411">
        <ele>1346.1999511719</ele>
        <time>2016-07-13T10:15:05.000Z</time>
      </trkpt>
      <trkpt lat="44.51835" lon="6.23417">
        <ele>1346</ele>
        <time>2016-07-13T10:15:11.000Z</time>
      </trkpt>
      <trkpt lat="44.51836" lon="6.23417">
        <ele>1345.8000488281</ele>
        <time>2016-07-13T10:15:12.000Z</time>
      </trkpt>
      <trkpt lat="44.51845" lon="6.23419">
        <ele>1344.4000244141</ele>
        <time>2016-07-13T10:15:19.000Z</time>
      </trkpt>
      <trkpt lat="44.51859" lon="6.23421">
        <ele>1341.8000488281</ele>
        <time>2016-07-13T10:15:29.000Z</time>
      </trkpt>
      <trkpt lat="44.51871" lon="6.23427">
        <ele>1340.8000488281</ele>
        <time>2016-07-13T10:15:38.000Z</time>
      </trkpt>
      <trkpt lat="44.51881" lon="6.23436">
        <ele>1341.4000244141</ele>
        <time>2016-07-13T10:15:47.000Z</time>
      </trkpt>
      <trkpt lat="44.51891" lon="6.23444">
        <ele>1341.5999755859</ele>
        <time>2016-07-13T10:15:55.000Z</time>
      </trkpt>
      <trkpt lat="44.51899" lon="6.23455">
        <ele>1343</ele>
        <time>2016-07-13T10:16:04.000Z</time>
      </trkpt>
      <trkpt lat="44.51906" lon="6.2347">
        <ele>1345.1999511719</ele>
        <time>2016-07-13T10:16:14.000Z</time>
      </trkpt>
      <trkpt lat="44.51908" lon="6.23475">
        <ele>1346.1999511719</ele>
        <time>2016-07-13T10:16:18.000Z</time>
      </trkpt>
      <trkpt lat="44.51909" lon="6.23484">
        <ele>1348</ele>
        <time>2016-07-13T10:16:24.000Z</time>
      </trkpt>
      <trkpt lat="44.51909" lon="6.23486">
        <ele>1348.1999511719</ele>
        <time>2016-07-13T10:16:25.000Z</time>
      </trkpt>
      <trkpt lat="44.5191" lon="6.23488">
        <ele>1348.4000244141</ele>
        <time>2016-07-13T10:16:26.000Z</time>
      </trkpt>
      <trkpt lat="44.51911" lon="6.23496">
        <ele>1349.5999755859</ele>
        <time>2016-07-13T10:16:30.000Z</time>
      </trkpt>
      <trkpt lat="44.51914" lon="6.23512">
        <ele>1352</ele>
        <time>2016-07-13T10:16:38.000Z</time>
      </trkpt>
      <trkpt lat="44.51917" lon="6.23525">
        <ele>1354</ele>
        <time>2016-07-13T10:16:45.000Z</time>
      </trkpt>
      <trkpt lat="44.51917" lon="6.23527">
        <ele>1354.1999511719</ele>
        <time>2016-07-13T10:16:46.000Z</time>
      </trkpt>
      <trkpt lat="44.5192" lon="6.23542">
        <ele>1356.8000488281</ele>
        <time>2016-07-13T10:16:53.000Z</time>
      </trkpt>
      <trkpt lat="44.51923" lon="6.23551">
        <ele>1358</ele>
        <time>2016-07-13T10:16:58.000Z</time>
      </trkpt>
      <trkpt lat="44.51924" lon="6.23553">
        <ele>1358.1999511719</ele>
        <time>2016-07-13T10:17:01.000Z</time>
      </trkpt>
      <trkpt lat="44.51928" lon="6.23566">
        <ele>1360.1999511719</ele>
        <time>2016-07-13T10:17:09.000Z</time>
      </trkpt>
      <trkpt lat="44.51929" lon="6.23566">
        <ele>1359.8000488281</ele>
        <time>2016-07-13T10:17:10.000Z</time>
      </trkpt>
      <trkpt lat="44.51931" lon="6.23562">
        <ele>1358.5999755859</ele>
        <time>2016-07-13T10:17:17.000Z</time>
      </trkpt>
      <trkpt lat="44.51931" lon="6.23565">
        <ele>1359.4000244141</ele>
        <time>2016-07-13T10:17:40.000Z</time>
      </trkpt>
      <trkpt lat="44.5193" lon="6.23571">
        <ele>1360.8000488281</ele>
        <time>2016-07-13T10:17:44.000Z</time>
      </trkpt>
      <trkpt lat="44.51936" lon="6.2358">
        <ele>1361.5999755859</ele>
        <time>2016-07-13T10:17:52.000Z</time>
      </trkpt>
      <trkpt lat="44.51943" lon="6.23585">
        <ele>1361.5999755859</ele>
        <time>2016-07-13T10:17:58.000Z</time>
      </trkpt>
      <trkpt lat="44.51946" lon="6.23588">
        <ele>1361.5999755859</ele>
        <time>2016-07-13T10:18:01.000Z</time>
      </trkpt>
      <trkpt lat="44.51954" lon="6.23599">
        <ele>1362.4000244141</ele>
        <time>2016-07-13T10:18:10.000Z</time>
      </trkpt>
      <trkpt lat="44.51956" lon="6.23603">
        <ele>1362.5999755859</ele>
        <time>2016-07-13T10:18:13.000Z</time>
      </trkpt>
      <trkpt lat="44.5196" lon="6.23609">
        <ele>1363.1999511719</ele>
        <time>2016-07-13T10:18:17.000Z</time>
      </trkpt>
      <trkpt lat="44.51963" lon="6.2362">
        <ele>1364.5999755859</ele>
        <time>2016-07-13T10:18:23.000Z</time>
      </trkpt>
      <trkpt lat="44.51965" lon="6.2363">
        <ele>1366.4000244141</ele>
        <time>2016-07-13T10:18:29.000Z</time>
      </trkpt>
      <trkpt lat="44.51967" lon="6.23634">
        <ele>1366.8000488281</ele>
        <time>2016-07-13T10:18:31.000Z</time>
      </trkpt>
      <trkpt lat="44.51969" lon="6.23639">
        <ele>1367.4000244141</ele>
        <time>2016-07-13T10:18:34.000Z</time>
      </trkpt>
      <trkpt lat="44.51976" lon="6.23651">
        <ele>1367.1999511719</ele>
        <time>2016-07-13T10:18:42.000Z</time>
      </trkpt>
      <trkpt lat="44.51977" lon="6.23656">
        <ele>1367</ele>
        <time>2016-07-13T10:18:45.000Z</time>
      </trkpt>
      <trkpt lat="44.51979" lon="6.23664">
        <ele>1366.8000488281</ele>
        <time>2016-07-13T10:18:49.000Z</time>
      </trkpt>
      <trkpt lat="44.51982" lon="6.23676">
        <ele>1366.8000488281</ele>
        <time>2016-07-13T10:18:55.000Z</time>
      </trkpt>
      <trkpt lat="44.51982" lon="6.23678">
        <ele>1366.8000488281</ele>
        <time>2016-07-13T10:18:56.000Z</time>
      </trkpt>
      <trkpt lat="44.51984" lon="6.2369">
        <ele>1367.5999755859</ele>
        <time>2016-07-13T10:19:03.000Z</time>
      </trkpt>
      <trkpt lat="44.51986" lon="6.23697">
        <ele>1368</ele>
        <time>2016-07-13T10:19:07.000Z</time>
      </trkpt>
      <trkpt lat="44.51988" lon="6.23706">
        <ele>1368.4000244141</ele>
        <time>2016-07-13T10:19:12.000Z</time>
      </trkpt>
      <trkpt lat="44.51989" lon="6.23714">
        <ele>1369</ele>
        <time>2016-07-13T10:19:16.000Z</time>
      </trkpt>
      <trkpt lat="44.51992" lon="6.23729">
        <ele>1370</ele>
        <time>2016-07-13T10:19:23.000Z</time>
      </trkpt>
      <trkpt lat="44.51994" lon="6.2374">
        <ele>1370.1999511719</ele>
        <time>2016-07-13T10:19:29.000Z</time>
      </trkpt>
      <trkpt lat="44.51994" lon="6.23759">
        <ele>1371.4000244141</ele>
        <time>2016-07-13T10:19:38.000Z</time>
      </trkpt>
      <trkpt lat="44.51995" lon="6.2377">
        <ele>1371.8000488281</ele>
        <time>2016-07-13T10:19:44.000Z</time>
      </trkpt>
      <trkpt lat="44.51995" lon="6.23772">
        <ele>1372</ele>
        <time>2016-07-13T10:19:45.000Z</time>
      </trkpt>
      <trkpt lat="44.51997" lon="6.23785">
        <ele>1372.4000244141</ele>
        <time>2016-07-13T10:19:52.000Z</time>
      </trkpt>
      <trkpt lat="44.52" lon="6.23798">
        <ele>1372.4000244141</ele>
        <time>2016-07-13T10:19:59.000Z</time>
      </trkpt>
      <trkpt lat="44.52003" lon="6.23814">
        <ele>1373</ele>
        <time>2016-07-13T10:20:07.000Z</time>
      </trkpt>
      <trkpt lat="44.52008" lon="6.23835">
        <ele>1372.5999755859</ele>
        <time>2016-07-13T10:20:18.000Z</time>
      </trkpt>
      <trkpt lat="44.52012" lon="6.23849">
        <ele>1371.8000488281</ele>
        <time>2016-07-13T10:20:26.000Z</time>
      </trkpt>
      <trkpt lat="44.52016" lon="6.23867">
        <ele>1371.5999755859</ele>
        <time>2016-07-13T10:20:35.000Z</time>
      </trkpt>
      <trkpt lat="44.5202" lon="6.23888">
        <ele>1371.8000488281</ele>
        <time>2016-07-13T10:20:46.000Z</time>
      </trkpt>
      <trkpt lat="44.52019" lon="6.23906">
        <ele>1373</ele>
        <time>2016-07-13T10:20:55.000Z</time>
      </trkpt>
      <trkpt lat="44.52016" lon="6.23921">
        <ele>1374.8000488281</ele>
        <time>2016-07-13T10:21:03.000Z</time>
      </trkpt>
      <trkpt lat="44.52015" lon="6.23935">
        <ele>1375.5999755859</ele>
        <time>2016-07-13T10:21:12.000Z</time>
      </trkpt>
      <trkpt lat="44.52016" lon="6.2394">
        <ele>1375.4000244141</ele>
        <time>2016-07-13T10:22:03.000Z</time>
      </trkpt>
      <trkpt lat="44.52013" lon="6.23943">
        <ele>1376.5999755859</ele>
        <time>2016-07-13T10:25:44.000Z</time>
      </trkpt>
      <trkpt lat="44.52012" lon="6.23942">
        <ele>1376.8000488281</ele>
        <time>2016-07-13T10:26:15.000Z</time>
      </trkpt>
      <trkpt lat="44.52012" lon="6.23943">
        <ele>1377</ele>
        <time>2016-07-13T10:26:22.000Z</time>
      </trkpt>
      <trkpt lat="44.52011" lon="6.23942">
        <ele>1377.1999511719</ele>
        <time>2016-07-13T10:26:27.000Z</time>
      </trkpt>
      <trkpt lat="44.5201" lon="6.2394">
        <ele>1377.8000488281</ele>
        <time>2016-07-13T10:26:30.000Z</time>
      </trkpt>
      <trkpt lat="44.52007" lon="6.23928">
        <ele>1378.5999755859</ele>
        <time>2016-07-13T10:26:37.000Z</time>
      </trkpt>
      <trkpt lat="44.52006" lon="6.23912">
        <ele>1378.8000488281</ele>
        <time>2016-07-13T10:26:46.000Z</time>
      </trkpt>
      <trkpt lat="44.52005" lon="6.23906">
        <ele>1378.8000488281</ele>
        <time>2016-07-13T10:26:51.000Z</time>
      </trkpt>
      <trkpt lat="44.52004" lon="6.23896">
        <ele>1379.1999511719</ele>
        <time>2016-07-13T10:26:59.000Z</time>
      </trkpt>
      <trkpt lat="44.52002" lon="6.23881">
        <ele>1378.4000244141</ele>
        <time>2016-07-13T10:27:08.000Z</time>
      </trkpt>
      <trkpt lat="44.52" lon="6.23875">
        <ele>1378.5999755859</ele>
        <time>2016-07-13T10:27:12.000Z</time>
      </trkpt>
      <trkpt lat="44.52" lon="6.23872">
        <ele>1378.8000488281</ele>
        <time>2016-07-13T10:27:14.000Z</time>
      </trkpt>
      <trkpt lat="44.51998" lon="6.23868">
        <ele>1378.8000488281</ele>
        <time>2016-07-13T10:27:17.000Z</time>
      </trkpt>
      <trkpt lat="44.51996" lon="6.23861">
        <ele>1379</ele>
        <time>2016-07-13T10:27:22.000Z</time>
      </trkpt>
      <trkpt lat="44.51996" lon="6.23858">
        <ele>1378.8000488281</ele>
        <time>2016-07-13T10:27:24.000Z</time>
      </trkpt>
      <trkpt lat="44.51991" lon="6.23849">
        <ele>1380.1999511719</ele>
        <time>2016-07-13T10:27:31.000Z</time>
      </trkpt>
      <trkpt lat="44.51987" lon="6.23842">
        <ele>1381.1999511719</ele>
        <time>2016-07-13T10:27:36.000Z</time>
      </trkpt>
      <trkpt lat="44.51984" lon="6.23836">
        <ele>1381.8000488281</ele>
        <time>2016-07-13T10:27:40.000Z</time>
      </trkpt>
      <trkpt lat="44.51981" lon="6.2383">
        <ele>1382.4000244141</ele>
        <time>2016-07-13T10:27:44.000Z</time>
      </trkpt>
      <trkpt lat="44.51983" lon="6.2383">
        <ele>1381.8000488281</ele>
        <time>2016-07-13T10:27:49.000Z</time>
      </trkpt>
      <trkpt lat="44.51982" lon="6.23829">
        <ele>1382</ele>
        <time>2016-07-13T10:27:58.000Z</time>
      </trkpt>
      <trkpt lat="44.5198" lon="6.23827">
        <ele>1382.5999755859</ele>
        <time>2016-07-13T10:28:01.000Z</time>
      </trkpt>
      <trkpt lat="44.51976" lon="6.23812">
        <ele>1383</ele>
        <time>2016-07-13T10:28:09.000Z</time>
      </trkpt>
      <trkpt lat="44.51974" lon="6.23806">
        <ele>1383.1999511719</ele>
        <time>2016-07-13T10:28:13.000Z</time>
      </trkpt>
      <trkpt lat="44.51971" lon="6.23796">
        <ele>1383.4000244141</ele>
        <time>2016-07-13T10:28:19.000Z</time>
      </trkpt>
      <trkpt lat="44.51969" lon="6.23783">
        <ele>1383.1999511719</ele>
        <time>2016-07-13T10:28:27.000Z</time>
      </trkpt>
      <trkpt lat="44.51965" lon="6.23768">
        <ele>1383</ele>
        <time>2016-07-13T10:28:35.000Z</time>
      </trkpt>
      <trkpt lat="44.51963" lon="6.23757">
        <ele>1382.8000488281</ele>
        <time>2016-07-13T10:28:41.000Z</time>
      </trkpt>
      <trkpt lat="44.51961" lon="6.23746">
        <ele>1382.5999755859</ele>
        <time>2016-07-13T10:28:48.000Z</time>
      </trkpt>
      <trkpt lat="44.51956" lon="6.23733">
        <ele>1383</ele>
        <time>2016-07-13T10:28:56.000Z</time>
      </trkpt>
      <trkpt lat="44.51953" lon="6.23725">
        <ele>1383.4000244141</ele>
        <time>2016-07-13T10:29:02.000Z</time>
      </trkpt>
      <trkpt lat="44.51952" lon="6.23723">
        <ele>1383.4000244141</ele>
        <time>2016-07-13T10:29:03.000Z</time>
      </trkpt>
      <trkpt lat="44.51947" lon="6.23713">
        <ele>1383.5999755859</ele>
        <time>2016-07-13T10:29:10.000Z</time>
      </trkpt>
      <trkpt lat="44.51946" lon="6.23712">
        <ele>1383.5999755859</ele>
        <time>2016-07-13T10:29:11.000Z</time>
      </trkpt>
      <trkpt lat="44.51941" lon="6.23706">
        <ele>1383.5999755859</ele>
        <time>2016-07-13T10:29:16.000Z</time>
      </trkpt>
      <trkpt lat="44.51939" lon="6.23704">
        <ele>1383.5999755859</ele>
        <time>2016-07-13T10:29:18.000Z</time>
      </trkpt>
      <trkpt lat="44.51935" lon="6.23699">
        <ele>1384</ele>
        <time>2016-07-13T10:29:22.000Z</time>
      </trkpt>
      <trkpt lat="44.5193" lon="6.23696">
        <ele>1384.4000244141</ele>
        <time>2016-07-13T10:29:26.000Z</time>
      </trkpt>
      <trkpt lat="44.51922" lon="6.23694">
        <ele>1385.4000244141</ele>
        <time>2016-07-13T10:29:31.000Z</time>
      </trkpt>
      <trkpt lat="44.51916" lon="6.23689">
        <ele>1386</ele>
        <time>2016-07-13T10:29:36.000Z</time>
      </trkpt>
      <trkpt lat="44.51915" lon="6.23688">
        <ele>1386</ele>
        <time>2016-07-13T10:29:37.000Z</time>
      </trkpt>
      <trkpt lat="44.51909" lon="6.23682">
        <ele>1386.4000244141</ele>
        <time>2016-07-13T10:29:42.000Z</time>
      </trkpt>
      <trkpt lat="44.51903" lon="6.23676">
        <ele>1386.5999755859</ele>
        <time>2016-07-13T10:29:48.000Z</time>
      </trkpt>
      <trkpt lat="44.51893" lon="6.23671">
        <ele>1387.5999755859</ele>
        <time>2016-07-13T10:29:56.000Z</time>
      </trkpt>
      <trkpt lat="44.51885" lon="6.23666">
        <ele>1388.5999755859</ele>
        <time>2016-07-13T10:30:02.000Z</time>
      </trkpt>
      <trkpt lat="44.51878" lon="6.23661">
        <ele>1389.4000244141</ele>
        <time>2016-07-13T10:30:08.000Z</time>
      </trkpt>
      <trkpt lat="44.51877" lon="6.23659">
        <ele>1389.1999511719</ele>
        <time>2016-07-13T10:30:09.000Z</time>
      </trkpt>
      <trkpt lat="44.51873" lon="6.23651">
        <ele>1388.5999755859</ele>
        <time>2016-07-13T10:30:14.000Z</time>
      </trkpt>
      <trkpt lat="44.51872" lon="6.23649">
        <ele>1388.5999755859</ele>
        <time>2016-07-13T10:30:15.000Z</time>
      </trkpt>
      <trkpt lat="44.51868" lon="6.2364">
        <ele>1387.8000488281</ele>
        <time>2016-07-13T10:30:22.000Z</time>
      </trkpt>
      <trkpt lat="44.51867" lon="6.23639">
        <ele>1387.5999755859</ele>
        <time>2016-07-13T10:30:23.000Z</time>
      </trkpt>
      <trkpt lat="44.51862" lon="6.23632">
        <ele>1387</ele>
        <time>2016-07-13T10:30:29.000Z</time>
      </trkpt>
      <trkpt lat="44.51856" lon="6.23625">
        <ele>1386.8000488281</ele>
        <time>2016-07-13T10:30:35.000Z</time>
      </trkpt>
      <trkpt lat="44.51849" lon="6.23621">
        <ele>1387.5999755859</ele>
        <time>2016-07-13T10:30:40.000Z</time>
      </trkpt>
      <trkpt lat="44.51846" lon="6.2362">
        <ele>1388</ele>
        <time>2016-07-13T10:30:42.000Z</time>
      </trkpt>
      <trkpt lat="44.51837" lon="6.23616">
        <ele>1388.8000488281</ele>
        <time>2016-07-13T10:30:49.000Z</time>
      </trkpt>
      <trkpt lat="44.5183" lon="6.23612">
        <ele>1389.5999755859</ele>
        <time>2016-07-13T10:30:55.000Z</time>
      </trkpt>
      <trkpt lat="44.5182" lon="6.23608">
        <ele>1391</ele>
        <time>2016-07-13T10:31:02.000Z</time>
      </trkpt>
      <trkpt lat="44.51809" lon="6.23605">
        <ele>1392.8000488281</ele>
        <time>2016-07-13T10:31:09.000Z</time>
      </trkpt>
      <trkpt lat="44.518" lon="6.236">
        <ele>1393.4000244141</ele>
        <time>2016-07-13T10:31:16.000Z</time>
      </trkpt>
      <trkpt lat="44.51799" lon="6.23599">
        <ele>1393.4000244141</ele>
        <time>2016-07-13T10:31:17.000Z</time>
      </trkpt>
      <trkpt lat="44.51796" lon="6.23597">
        <ele>1393.5999755859</ele>
        <time>2016-07-13T10:31:19.000Z</time>
      </trkpt>
      <trkpt lat="44.51792" lon="6.23593">
        <ele>1393.5999755859</ele>
        <time>2016-07-13T10:31:23.000Z</time>
      </trkpt>
      <trkpt lat="44.51782" lon="6.23581">
        <ele>1393</ele>
        <time>2016-07-13T10:31:33.000Z</time>
      </trkpt>
      <trkpt lat="44.5178" lon="6.2358">
        <ele>1393</ele>
        <time>2016-07-13T10:31:34.000Z</time>
      </trkpt>
      <trkpt lat="44.51771" lon="6.23574">
        <ele>1393.1999511719</ele>
        <time>2016-07-13T10:31:41.000Z</time>
      </trkpt>
      <trkpt lat="44.51764" lon="6.23564">
        <ele>1392.1999511719</ele>
        <time>2016-07-13T10:31:48.000Z</time>
      </trkpt>
      <trkpt lat="44.51758" lon="6.23561">
        <ele>1392.1999511719</ele>
        <time>2016-07-13T10:31:52.000Z</time>
      </trkpt>
      <trkpt lat="44.51749" lon="6.23552">
        <ele>1391.1999511719</ele>
        <time>2016-07-13T10:31:59.000Z</time>
      </trkpt>
      <trkpt lat="44.51738" lon="6.23545">
        <ele>1390.5999755859</ele>
        <time>2016-07-13T10:32:07.000Z</time>
      </trkpt>
      <trkpt lat="44.51728" lon="6.23537">
        <ele>1390</ele>
        <time>2016-07-13T10:32:15.000Z</time>
      </trkpt>
      <trkpt lat="44.51724" lon="6.23533">
        <ele>1389.5999755859</ele>
        <time>2016-07-13T10:32:19.000Z</time>
      </trkpt>
      <trkpt lat="44.51718" lon="6.2353">
        <ele>1389.5999755859</ele>
        <time>2016-07-13T10:32:23.000Z</time>
      </trkpt>
      <trkpt lat="44.51712" lon="6.23527">
        <ele>1389.4000244141</ele>
        <time>2016-07-13T10:32:28.000Z</time>
      </trkpt>
      <trkpt lat="44.51707" lon="6.23524">
        <ele>1389.4000244141</ele>
        <time>2016-07-13T10:32:32.000Z</time>
      </trkpt>
      <trkpt lat="44.51697" lon="6.23521">
        <ele>1389.8000488281</ele>
        <time>2016-07-13T10:32:40.000Z</time>
      </trkpt>
      <trkpt lat="44.51687" lon="6.23522">
        <ele>1390.5999755859</ele>
        <time>2016-07-13T10:32:46.000Z</time>
      </trkpt>
      <trkpt lat="44.51679" lon="6.23523">
        <ele>1391.1999511719</ele>
        <time>2016-07-13T10:32:52.000Z</time>
      </trkpt>
      <trkpt lat="44.51671" lon="6.23523">
        <ele>1391.5999755859</ele>
        <time>2016-07-13T10:32:59.000Z</time>
      </trkpt>
      <trkpt lat="44.51656" lon="6.23522">
        <ele>1392.1999511719</ele>
        <time>2016-07-13T10:33:08.000Z</time>
      </trkpt>
      <trkpt lat="44.51653" lon="6.23521">
        <ele>1392</ele>
        <time>2016-07-13T10:33:10.000Z</time>
      </trkpt>
      <trkpt lat="44.51649" lon="6.23517">
        <ele>1391.1999511719</ele>
        <time>2016-07-13T10:33:13.000Z</time>
      </trkpt>
      <trkpt lat="44.51643" lon="6.23508">
        <ele>1389</ele>
        <time>2016-07-13T10:33:20.000Z</time>
      </trkpt>
      <trkpt lat="44.51634" lon="6.235">
        <ele>1387</ele>
        <time>2016-07-13T10:33:27.000Z</time>
      </trkpt>
      <trkpt lat="44.5163" lon="6.23497">
        <ele>1386.4000244141</ele>
        <time>2016-07-13T10:33:32.000Z</time>
      </trkpt>
      <trkpt lat="44.5162" lon="6.23496">
        <ele>1387</ele>
        <time>2016-07-13T10:33:40.000Z</time>
      </trkpt>
      <trkpt lat="44.51619" lon="6.23497">
        <ele>1387.1999511719</ele>
        <time>2016-07-13T10:33:41.000Z</time>
      </trkpt>
      <trkpt lat="44.51609" lon="6.23502">
        <ele>1391.4000244141</ele>
        <time>2016-07-13T10:33:50.000Z</time>
      </trkpt>
      <trkpt lat="44.51601" lon="6.23505">
        <ele>1394.8000488281</ele>
        <time>2016-07-13T10:33:57.000Z</time>
      </trkpt>
      <trkpt lat="44.51582" lon="6.23503">
        <ele>1400</ele>
        <time>2016-07-13T10:34:10.000Z</time>
      </trkpt>
      <trkpt lat="44.5157" lon="6.23494">
        <ele>1401.1999511719</ele>
        <time>2016-07-13T10:34:17.000Z</time>
      </trkpt>
      <trkpt lat="44.51564" lon="6.23479">
        <ele>1398.5999755859</ele>
        <time>2016-07-13T10:34:25.000Z</time>
      </trkpt>
      <trkpt lat="44.5156" lon="6.23463">
        <ele>1396.4000244141</ele>
        <time>2016-07-13T10:34:33.000Z</time>
      </trkpt>
      <trkpt lat="44.51558" lon="6.23459">
        <ele>1396</ele>
        <time>2016-07-13T10:34:36.000Z</time>
      </trkpt>
      <trkpt lat="44.51547" lon="6.23447">
        <ele>1396.8000488281</ele>
        <time>2016-07-13T10:34:47.000Z</time>
      </trkpt>
      <trkpt lat="44.51541" lon="6.23444">
        <ele>1398.1999511719</ele>
        <time>2016-07-13T10:34:52.000Z</time>
      </trkpt>
      <trkpt lat="44.51532" lon="6.23435">
        <ele>1399</ele>
        <time>2016-07-13T10:35:00.000Z</time>
      </trkpt>
      <trkpt lat="44.51527" lon="6.23427">
        <ele>1398.5999755859</ele>
        <time>2016-07-13T10:35:06.000Z</time>
      </trkpt>
      <trkpt lat="44.5152" lon="6.23419">
        <ele>1399</ele>
        <time>2016-07-13T10:35:13.000Z</time>
      </trkpt>
      <trkpt lat="44.51512" lon="6.23417">
        <ele>1401</ele>
        <time>2016-07-13T10:35:18.000Z</time>
      </trkpt>
      <trkpt lat="44.51511" lon="6.23417">
        <ele>1401.4000244141</ele>
        <time>2016-07-13T10:35:19.000Z</time>
      </trkpt>
      <trkpt lat="44.51504" lon="6.23412">
        <ele>1402.4000244141</ele>
        <time>2016-07-13T10:35:24.000Z</time>
      </trkpt>
      <trkpt lat="44.51497" lon="6.23401">
        <ele>1402.4000244141</ele>
        <time>2016-07-13T10:35:31.000Z</time>
      </trkpt>
      <trkpt lat="44.51494" lon="6.23398">
        <ele>1402.1999511719</ele>
        <time>2016-07-13T10:35:33.000Z</time>
      </trkpt>
      <trkpt lat="44.51492" lon="6.23389">
        <ele>1401.5999755859</ele>
        <time>2016-07-13T10:35:37.000Z</time>
      </trkpt>
      <trkpt lat="44.51485" lon="6.2337">
        <ele>1401</ele>
        <time>2016-07-13T10:35:47.000Z</time>
      </trkpt>
      <trkpt lat="44.51479" lon="6.2336">
        <ele>1401.1999511719</ele>
        <time>2016-07-13T10:35:54.000Z</time>
      </trkpt>
      <trkpt lat="44.51475" lon="6.23353">
        <ele>1401.5999755859</ele>
        <time>2016-07-13T10:35:59.000Z</time>
      </trkpt>
      <trkpt lat="44.51465" lon="6.23341">
        <ele>1402.8000488281</ele>
        <time>2016-07-13T10:36:09.000Z</time>
      </trkpt>
      <trkpt lat="44.51462" lon="6.23337">
        <ele>1403.1999511719</ele>
        <time>2016-07-13T10:36:12.000Z</time>
      </trkpt>
      <trkpt lat="44.51457" lon="6.23333">
        <ele>1403.8000488281</ele>
        <time>2016-07-13T10:36:15.000Z</time>
      </trkpt>
      <trkpt lat="44.51452" lon="6.23321">
        <ele>1403.5999755859</ele>
        <time>2016-07-13T10:36:22.000Z</time>
      </trkpt>
      <trkpt lat="44.51451" lon="6.23317">
        <ele>1403.1999511719</ele>
        <time>2016-07-13T10:36:24.000Z</time>
      </trkpt>
      <trkpt lat="44.51451" lon="6.23313">
        <ele>1403</ele>
        <time>2016-07-13T10:36:26.000Z</time>
      </trkpt>
      <trkpt lat="44.51445" lon="6.23298">
        <ele>1402.8000488281</ele>
        <time>2016-07-13T10:36:34.000Z</time>
      </trkpt>
      <trkpt lat="44.5144" lon="6.23286">
        <ele>1403</ele>
        <time>2016-07-13T10:36:41.000Z</time>
      </trkpt>
      <trkpt lat="44.51434" lon="6.23275">
        <ele>1403.1999511719</ele>
        <time>2016-07-13T10:36:48.000Z</time>
      </trkpt>
      <trkpt lat="44.5143" lon="6.23267">
        <ele>1403.5999755859</ele>
        <time>2016-07-13T10:36:53.000Z</time>
      </trkpt>
      <trkpt lat="44.51426" lon="6.23255">
        <ele>1403</ele>
        <time>2016-07-13T10:37:00.000Z</time>
      </trkpt>
      <trkpt lat="44.51425" lon="6.23252">
        <ele>1403.1999511719</ele>
        <time>2016-07-13T10:37:02.000Z</time>
      </trkpt>
      <trkpt lat="44.51419" lon="6.23241">
        <ele>1403.5999755859</ele>
        <time>2016-07-13T10:37:09.000Z</time>
      </trkpt>
      <trkpt lat="44.51418" lon="6.23239">
        <ele>1403.5999755859</ele>
        <time>2016-07-13T10:37:10.000Z</time>
      </trkpt>
      <trkpt lat="44.51412" lon="6.23225">
        <ele>1403.8000488281</ele>
        <time>2016-07-13T10:37:19.000Z</time>
      </trkpt>
      <trkpt lat="44.5141" lon="6.23218">
        <ele>1404</ele>
        <time>2016-07-13T10:37:23.000Z</time>
      </trkpt>
      <trkpt lat="44.51405" lon="6.23206">
        <ele>1404.5999755859</ele>
        <time>2016-07-13T10:37:31.000Z</time>
      </trkpt>
      <trkpt lat="44.51404" lon="6.23204">
        <ele>1404.5999755859</ele>
        <time>2016-07-13T10:37:32.000Z</time>
      </trkpt>
      <trkpt lat="44.514" lon="6.23196">
        <ele>1405.1999511719</ele>
        <time>2016-07-13T10:37:37.000Z</time>
      </trkpt>
      <trkpt lat="44.514" lon="6.23194">
        <ele>1405.1999511719</ele>
        <time>2016-07-13T10:37:38.000Z</time>
      </trkpt>
      <trkpt lat="44.51392" lon="6.23179">
        <ele>1406.1999511719</ele>
        <time>2016-07-13T10:37:47.000Z</time>
      </trkpt>
      <trkpt lat="44.51388" lon="6.23169">
        <ele>1407</ele>
        <time>2016-07-13T10:37:53.000Z</time>
      </trkpt>
      <trkpt lat="44.51381" lon="6.23162">
        <ele>1408.4000244141</ele>
        <time>2016-07-13T10:37:59.000Z</time>
      </trkpt>
      <trkpt lat="44.51378" lon="6.23159">
        <ele>1408.8000488281</ele>
        <time>2016-07-13T10:38:01.000Z</time>
      </trkpt>
      <trkpt lat="44.51372" lon="6.23143">
        <ele>1409</ele>
        <time>2016-07-13T10:38:12.000Z</time>
      </trkpt>
      <trkpt lat="44.5137" lon="6.23134">
        <ele>1408.5999755859</ele>
        <time>2016-07-13T10:38:17.000Z</time>
      </trkpt>
      <trkpt lat="44.51363" lon="6.23122">
        <ele>1407.8000488281</ele>
        <time>2016-07-13T10:38:25.000Z</time>
      </trkpt>
      <trkpt lat="44.51356" lon="6.23109">
        <ele>1405.8000488281</ele>
        <time>2016-07-13T10:38:33.000Z</time>
      </trkpt>
      <trkpt lat="44.51351" lon="6.23097">
        <ele>1404</ele>
        <time>2016-07-13T10:38:40.000Z</time>
      </trkpt>
      <trkpt lat="44.51349" lon="6.23082">
        <ele>1402</ele>
        <time>2016-07-13T10:38:47.000Z</time>
      </trkpt>
      <trkpt lat="44.51348" lon="6.2308">
        <ele>1401.8000488281</ele>
        <time>2016-07-13T10:38:48.000Z</time>
      </trkpt>
      <trkpt lat="44.51344" lon="6.23067">
        <ele>1400</ele>
        <time>2016-07-13T10:38:55.000Z</time>
      </trkpt>
      <trkpt lat="44.51327" lon="6.23039">
        <ele>1396</ele>
        <time>2016-07-13T10:39:15.000Z</time>
      </trkpt>
      <trkpt lat="44.51314" lon="6.23038">
        <ele>1395</ele>
        <time>2016-07-13T10:39:24.000Z</time>
      </trkpt>
      <trkpt lat="44.51313" lon="6.23038">
        <ele>1394.8000488281</ele>
        <time>2016-07-13T10:39:25.000Z</time>
      </trkpt>
      <trkpt lat="44.51312" lon="6.23032">
        <ele>1394.1999511719</ele>
        <time>2016-07-13T10:39:31.000Z</time>
      </trkpt>
      <trkpt lat="44.51312" lon="6.23031">
        <ele>1394.1999511719</ele>
        <time>2016-07-13T10:39:32.000Z</time>
      </trkpt>
      <trkpt lat="44.51314" lon="6.23031">
        <ele>1394.1999511719</ele>
        <time>2016-07-13T10:39:34.000Z</time>
      </trkpt>
      <trkpt lat="44.51317" lon="6.23033">
        <ele>1394.5999755859</ele>
        <time>2016-07-13T10:39:42.000Z</time>
      </trkpt>
      <trkpt lat="44.51318" lon="6.23034">
        <ele>1394.8000488281</ele>
        <time>2016-07-13T10:39:43.000Z</time>
      </trkpt>
      <trkpt lat="44.51316" lon="6.23038">
        <ele>1395</ele>
        <time>2016-07-13T10:39:47.000Z</time>
      </trkpt>
      <trkpt lat="44.51315" lon="6.23038">
        <ele>1395</ele>
        <time>2016-07-13T10:39:48.000Z</time>
      </trkpt>
      <trkpt lat="44.51314" lon="6.2304">
        <ele>1395</ele>
        <time>2016-07-13T10:39:54.000Z</time>
      </trkpt>
      <trkpt lat="44.51312" lon="6.23045">
        <ele>1395.4000244141</ele>
        <time>2016-07-13T10:40:01.000Z</time>
      </trkpt>
      <trkpt lat="44.51309" lon="6.23048">
        <ele>1395.4000244141</ele>
        <time>2016-07-13T10:40:07.000Z</time>
      </trkpt>
      <trkpt lat="44.51305" lon="6.23048">
        <ele>1395.1999511719</ele>
        <time>2016-07-13T10:40:12.000Z</time>
      </trkpt>
      <trkpt lat="44.51304" lon="6.23046">
        <ele>1395</ele>
        <time>2016-07-13T10:40:18.000Z</time>
      </trkpt>
      <trkpt lat="44.51308" lon="6.23046">
        <ele>1395.1999511719</ele>
        <time>2016-07-13T10:40:24.000Z</time>
      </trkpt>
      <trkpt lat="44.51311" lon="6.23048">
        <ele>1395.5999755859</ele>
        <time>2016-07-13T10:40:30.000Z</time>
      </trkpt>
      <trkpt lat="44.51313" lon="6.23046">
        <ele>1395.5999755859</ele>
        <time>2016-07-13T10:40:36.000Z</time>
      </trkpt>
      <trkpt lat="44.51316" lon="6.23042">
        <ele>1395.4000244141</ele>
        <time>2016-07-13T10:40:52.000Z</time>
      </trkpt>
      <trkpt lat="44.51317" lon="6.2304">
        <ele>1395.1999511719</ele>
        <time>2016-07-13T10:40:53.000Z</time>
      </trkpt>
      <trkpt lat="44.5132" lon="6.23036">
        <ele>1395</ele>
        <time>2016-07-13T10:40:56.000Z</time>
      </trkpt>
      <trkpt lat="44.51322" lon="6.23033">
        <ele>1395</ele>
        <time>2016-07-13T10:40:58.000Z</time>
      </trkpt>
      <trkpt lat="44.51339" lon="6.23022">
        <ele>1395.1999511719</ele>
        <time>2016-07-13T10:41:11.000Z</time>
      </trkpt>
      <trkpt lat="44.51348" lon="6.23015">
        <ele>1395</ele>
        <time>2016-07-13T10:41:19.000Z</time>
      </trkpt>
      <trkpt lat="44.51353" lon="6.23011">
        <ele>1395.1999511719</ele>
        <time>2016-07-13T10:41:25.000Z</time>
      </trkpt>
      <trkpt lat="44.51358" lon="6.2301">
        <ele>1395.4000244141</ele>
        <time>2016-07-13T10:41:30.000Z</time>
      </trkpt>
      <trkpt lat="44.51361" lon="6.2301">
        <ele>1395.5999755859</ele>
        <time>2016-07-13T10:41:37.000Z</time>
      </trkpt>
      <trkpt lat="44.51362" lon="6.23009">
        <ele>1395.5999755859</ele>
        <time>2016-07-13T10:41:43.000Z</time>
      </trkpt>
      <trkpt lat="44.51363" lon="6.23009">
        <ele>1395.5999755859</ele>
        <time>2016-07-13T10:42:15.000Z</time>
      </trkpt>
      <trkpt lat="44.51362" lon="6.2301">
        <ele>1395.5999755859</ele>
        <time>2016-07-13T10:42:20.000Z</time>
      </trkpt>
      <trkpt lat="44.51364" lon="6.2301">
        <ele>1395.8000488281</ele>
        <time>2016-07-13T10:42:24.000Z</time>
      </trkpt>
      <trkpt lat="44.51363" lon="6.23009">
        <ele>1395.5999755859</ele>
        <time>2016-07-13T10:42:30.000Z</time>
      </trkpt>
      <trkpt lat="44.51364" lon="6.23011">
        <ele>1395.8000488281</ele>
        <time>2016-07-13T10:42:41.000Z</time>
      </trkpt>
      <trkpt lat="44.51364" lon="6.23006">
        <ele>1395.4000244141</ele>
        <time>2016-07-13T10:42:48.000Z</time>
      </trkpt>
      <trkpt lat="44.51363" lon="6.23005">
        <ele>1395.1999511719</ele>
        <time>2016-07-13T10:42:55.000Z</time>
      </trkpt>
      <trkpt lat="44.51364" lon="6.23008">
        <ele>1395.5999755859</ele>
        <time>2016-07-13T10:43:19.000Z</time>
      </trkpt>
      <trkpt lat="44.51365" lon="6.23009">
        <ele>1395.8000488281</ele>
        <time>2016-07-13T10:43:29.000Z</time>
      </trkpt>
      <trkpt lat="44.51365" lon="6.23011">
        <ele>1396</ele>
        <time>2016-07-13T10:43:32.000Z</time>
      </trkpt>
      <trkpt lat="44.51365" lon="6.23008">
        <ele>1395.5999755859</ele>
        <time>2016-07-13T10:43:41.000Z</time>
      </trkpt>
      <trkpt lat="44.51366" lon="6.23005">
        <ele>1395.4000244141</ele>
        <time>2016-07-13T10:43:52.000Z</time>
      </trkpt>
      <trkpt lat="44.5132" lon="6.23051">
        <ele>1396.5999755859</ele>
        <time>2016-07-13T11:39:51.000Z</time>
      </trkpt>
      <trkpt lat="44.51324" lon="6.23051">
        <ele>1396.8000488281</ele>
        <time>2016-07-13T11:39:54.000Z</time>
      </trkpt>
      <trkpt lat="44.51331" lon="6.23054">
        <ele>1397.5999755859</ele>
        <time>2016-07-13T11:40:01.000Z</time>
      </trkpt>
      <trkpt lat="44.51335" lon="6.23058">
        <ele>1398.1999511719</ele>
        <time>2016-07-13T11:40:04.000Z</time>
      </trkpt>
      <trkpt lat="44.51341" lon="6.23053">
        <ele>1398.1999511719</ele>
        <time>2016-07-13T11:40:09.000Z</time>
      </trkpt>
      <trkpt lat="44.51346" lon="6.23055">
        <ele>1398.8000488281</ele>
        <time>2016-07-13T11:40:14.000Z</time>
      </trkpt>
      <trkpt lat="44.51348" lon="6.23056">
        <ele>1399</ele>
        <time>2016-07-13T11:40:16.000Z</time>
      </trkpt>
      <trkpt lat="44.51355" lon="6.2306">
        <ele>1400</ele>
        <time>2016-07-13T11:40:22.000Z</time>
      </trkpt>
      <trkpt lat="44.51356" lon="6.2306">
        <ele>1400</ele>
        <time>2016-07-13T11:40:23.000Z</time>
      </trkpt>
      <trkpt lat="44.51359" lon="6.23055">
        <ele>1399.8000488281</ele>
        <time>2016-07-13T11:40:27.000Z</time>
      </trkpt>
      <trkpt lat="44.51367" lon="6.23063">
        <ele>1401</ele>
        <time>2016-07-13T11:40:35.000Z</time>
      </trkpt>
      <trkpt lat="44.51372" lon="6.23075">
        <ele>1400.8000488281</ele>
        <time>2016-07-13T11:40:43.000Z</time>
      </trkpt>
      <trkpt lat="44.5138" lon="6.23092">
        <ele>1400.4000244141</ele>
        <time>2016-07-13T11:40:54.000Z</time>
      </trkpt>
      <trkpt lat="44.51384" lon="6.23097">
        <ele>1399.8000488281</ele>
        <time>2016-07-13T11:40:58.000Z</time>
      </trkpt>
      <trkpt lat="44.51388" lon="6.23103">
        <ele>1399.4000244141</ele>
        <time>2016-07-13T11:41:02.000Z</time>
      </trkpt>
      <trkpt lat="44.5139" lon="6.23111">
        <ele>1399.8000488281</ele>
        <time>2016-07-13T11:41:08.000Z</time>
      </trkpt>
      <trkpt lat="44.5139" lon="6.23113">
        <ele>1400</ele>
        <time>2016-07-13T11:41:09.000Z</time>
      </trkpt>
      <trkpt lat="44.5139" lon="6.23114">
        <ele>1400</ele>
        <time>2016-07-13T11:41:10.000Z</time>
      </trkpt>
      <trkpt lat="44.51393" lon="6.23119">
        <ele>1399.5999755859</ele>
        <time>2016-07-13T11:41:15.000Z</time>
      </trkpt>
      <trkpt lat="44.51396" lon="6.23126">
        <ele>1399.5999755859</ele>
        <time>2016-07-13T11:41:20.000Z</time>
      </trkpt>
      <trkpt lat="44.51396" lon="6.23129">
        <ele>1400</ele>
        <time>2016-07-13T11:41:22.000Z</time>
      </trkpt>
      <trkpt lat="44.51397" lon="6.23136">
        <ele>1400.1999511719</ele>
        <time>2016-07-13T11:41:26.000Z</time>
      </trkpt>
      <trkpt lat="44.514" lon="6.23144">
        <ele>1400.4000244141</ele>
        <time>2016-07-13T11:41:31.000Z</time>
      </trkpt>
      <trkpt lat="44.51401" lon="6.23145">
        <ele>1400.4000244141</ele>
        <time>2016-07-13T11:41:32.000Z</time>
      </trkpt>
      <trkpt lat="44.51403" lon="6.23151">
        <ele>1400.4000244141</ele>
        <time>2016-07-13T11:41:36.000Z</time>
      </trkpt>
      <trkpt lat="44.51407" lon="6.23159">
        <ele>1400</ele>
        <time>2016-07-13T11:41:41.000Z</time>
      </trkpt>
      <trkpt lat="44.5141" lon="6.23168">
        <ele>1400</ele>
        <time>2016-07-13T11:41:46.000Z</time>
      </trkpt>
      <trkpt lat="44.51413" lon="6.23172">
        <ele>1399.4000244141</ele>
        <time>2016-07-13T11:41:49.000Z</time>
      </trkpt>
      <trkpt lat="44.51415" lon="6.23185">
        <ele>1400.1999511719</ele>
        <time>2016-07-13T11:41:56.000Z</time>
      </trkpt>
      <trkpt lat="44.51416" lon="6.23187">
        <ele>1400.1999511719</ele>
        <time>2016-07-13T11:41:57.000Z</time>
      </trkpt>
      <trkpt lat="44.51418" lon="6.23192">
        <ele>1400.1999511719</ele>
        <time>2016-07-13T11:42:03.000Z</time>
      </trkpt>
      <trkpt lat="44.51418" lon="6.23193">
        <ele>1400.1999511719</ele>
        <time>2016-07-13T11:42:04.000Z</time>
      </trkpt>
      <trkpt lat="44.51419" lon="6.23199">
        <ele>1400.4000244141</ele>
        <time>2016-07-13T11:42:10.000Z</time>
      </trkpt>
      <trkpt lat="44.51422" lon="6.23202">
        <ele>1400</ele>
        <time>2016-07-13T11:42:15.000Z</time>
      </trkpt>
      <trkpt lat="44.51422" lon="6.23204">
        <ele>1399.8000488281</ele>
        <time>2016-07-13T11:42:16.000Z</time>
      </trkpt>
      <trkpt lat="44.51425" lon="6.23212">
        <ele>1399.8000488281</ele>
        <time>2016-07-13T11:42:22.000Z</time>
      </trkpt>
      <trkpt lat="44.51426" lon="6.23215">
        <ele>1399.4000244141</ele>
        <time>2016-07-13T11:42:24.000Z</time>
      </trkpt>
      <trkpt lat="44.51435" lon="6.23231">
        <ele>1398.4000244141</ele>
        <time>2016-07-13T11:42:34.000Z</time>
      </trkpt>
      <trkpt lat="44.5144" lon="6.23241">
        <ele>1398</ele>
        <time>2016-07-13T11:42:40.000Z</time>
      </trkpt>
      <trkpt lat="44.51442" lon="6.23248">
        <ele>1398</ele>
        <time>2016-07-13T11:42:44.000Z</time>
      </trkpt>
      <trkpt lat="44.51447" lon="6.23259">
        <ele>1398.1999511719</ele>
        <time>2016-07-13T11:42:51.000Z</time>
      </trkpt>
      <trkpt lat="44.5145" lon="6.23268">
        <ele>1398.1999511719</ele>
        <time>2016-07-13T11:42:56.000Z</time>
      </trkpt>
      <trkpt lat="44.51452" lon="6.23271">
        <ele>1398</ele>
        <time>2016-07-13T11:42:58.000Z</time>
      </trkpt>
      <trkpt lat="44.51454" lon="6.23274">
        <ele>1398</ele>
        <time>2016-07-13T11:43:00.000Z</time>
      </trkpt>
      <trkpt lat="44.51455" lon="6.23278">
        <ele>1398</ele>
        <time>2016-07-13T11:43:02.000Z</time>
      </trkpt>
      <trkpt lat="44.51458" lon="6.23285">
        <ele>1397.8000488281</ele>
        <time>2016-07-13T11:43:06.000Z</time>
      </trkpt>
      <trkpt lat="44.51463" lon="6.23299">
        <ele>1397.8000488281</ele>
        <time>2016-07-13T11:43:14.000Z</time>
      </trkpt>
      <trkpt lat="44.51468" lon="6.2331">
        <ele>1397.1999511719</ele>
        <time>2016-07-13T11:43:20.000Z</time>
      </trkpt>
      <trkpt lat="44.51475" lon="6.23319">
        <ele>1396.4000244141</ele>
        <time>2016-07-13T11:43:27.000Z</time>
      </trkpt>
      <trkpt lat="44.51482" lon="6.23327">
        <ele>1395.4000244141</ele>
        <time>2016-07-13T11:43:34.000Z</time>
      </trkpt>
      <trkpt lat="44.51483" lon="6.23328">
        <ele>1395.4000244141</ele>
        <time>2016-07-13T11:43:35.000Z</time>
      </trkpt>
      <trkpt lat="44.51486" lon="6.23333">
        <ele>1395</ele>
        <time>2016-07-13T11:43:40.000Z</time>
      </trkpt>
      <trkpt lat="44.51491" lon="6.2334">
        <ele>1394.5999755859</ele>
        <time>2016-07-13T11:43:46.000Z</time>
      </trkpt>
      <trkpt lat="44.51494" lon="6.23344">
        <ele>1394.4000244141</ele>
        <time>2016-07-13T11:43:52.000Z</time>
      </trkpt>
      <trkpt lat="44.51493" lon="6.23344">
        <ele>1394.5999755859</ele>
        <time>2016-07-13T11:43:57.000Z</time>
      </trkpt>
      <trkpt lat="44.51496" lon="6.23348">
        <ele>1394.4000244141</ele>
        <time>2016-07-13T11:44:02.000Z</time>
      </trkpt>
      <trkpt lat="44.51499" lon="6.2336">
        <ele>1395</ele>
        <time>2016-07-13T11:44:09.000Z</time>
      </trkpt>
      <trkpt lat="44.515" lon="6.23361">
        <ele>1395.1999511719</ele>
        <time>2016-07-13T11:44:10.000Z</time>
      </trkpt>
      <trkpt lat="44.51502" lon="6.23371">
        <ele>1395.8000488281</ele>
        <time>2016-07-13T11:44:16.000Z</time>
      </trkpt>
      <trkpt lat="44.51507" lon="6.23382">
        <ele>1396.1999511719</ele>
        <time>2016-07-13T11:44:23.000Z</time>
      </trkpt>
      <trkpt lat="44.51508" lon="6.23383">
        <ele>1396</ele>
        <time>2016-07-13T11:44:24.000Z</time>
      </trkpt>
      <trkpt lat="44.5151" lon="6.23384">
        <ele>1395.5999755859</ele>
        <time>2016-07-13T11:44:26.000Z</time>
      </trkpt>
      <trkpt lat="44.51513" lon="6.23391">
        <ele>1395.5999755859</ele>
        <time>2016-07-13T11:44:30.000Z</time>
      </trkpt>
      <trkpt lat="44.51518" lon="6.23399">
        <ele>1395.4000244141</ele>
        <time>2016-07-13T11:44:37.000Z</time>
      </trkpt>
      <trkpt lat="44.51524" lon="6.23408">
        <ele>1395.5999755859</ele>
        <time>2016-07-13T11:44:44.000Z</time>
      </trkpt>
      <trkpt lat="44.51526" lon="6.23412">
        <ele>1396</ele>
        <time>2016-07-13T11:44:49.000Z</time>
      </trkpt>
      <trkpt lat="44.51531" lon="6.23419">
        <ele>1396</ele>
        <time>2016-07-13T11:44:57.000Z</time>
      </trkpt>
      <trkpt lat="44.51539" lon="6.23427">
        <ele>1395</ele>
        <time>2016-07-13T11:45:04.000Z</time>
      </trkpt>
      <trkpt lat="44.51551" lon="6.23434">
        <ele>1393</ele>
        <time>2016-07-13T11:45:12.000Z</time>
      </trkpt>
      <trkpt lat="44.5156" lon="6.23445">
        <ele>1392.5999755859</ele>
        <time>2016-07-13T11:45:20.000Z</time>
      </trkpt>
      <trkpt lat="44.51564" lon="6.23458">
        <ele>1394</ele>
        <time>2016-07-13T11:45:27.000Z</time>
      </trkpt>
      <trkpt lat="44.51569" lon="6.23475">
        <ele>1396.4000244141</ele>
        <time>2016-07-13T11:45:37.000Z</time>
      </trkpt>
      <trkpt lat="44.51569" lon="6.23478">
        <ele>1397</ele>
        <time>2016-07-13T11:45:43.000Z</time>
      </trkpt>
      <trkpt lat="44.51571" lon="6.23479">
        <ele>1396.5999755859</ele>
        <time>2016-07-13T11:45:52.000Z</time>
      </trkpt>
      <trkpt lat="44.51574" lon="6.23485">
        <ele>1397.1999511719</ele>
        <time>2016-07-13T11:45:58.000Z</time>
      </trkpt>
      <trkpt lat="44.51573" lon="6.23485">
        <ele>1397.4000244141</ele>
        <time>2016-07-13T11:46:03.000Z</time>
      </trkpt>
      <trkpt lat="44.51577" lon="6.23491">
        <ele>1398</ele>
        <time>2016-07-13T11:46:11.000Z</time>
      </trkpt>
      <trkpt lat="44.51585" lon="6.23496">
        <ele>1397</ele>
        <time>2016-07-13T11:46:18.000Z</time>
      </trkpt>
      <trkpt lat="44.51596" lon="6.23494">
        <ele>1393.1999511719</ele>
        <time>2016-07-13T11:46:26.000Z</time>
      </trkpt>
      <trkpt lat="44.51601" lon="6.2349">
        <ele>1390.1999511719</ele>
        <time>2016-07-13T11:46:31.000Z</time>
      </trkpt>
      <trkpt lat="44.51607" lon="6.23487">
        <ele>1387.5999755859</ele>
        <time>2016-07-13T11:46:36.000Z</time>
      </trkpt>
      <trkpt lat="44.51615" lon="6.23484">
        <ele>1384</ele>
        <time>2016-07-13T11:46:43.000Z</time>
      </trkpt>
      <trkpt lat="44.51627" lon="6.23488">
        <ele>1384</ele>
        <time>2016-07-13T11:46:52.000Z</time>
      </trkpt>
      <trkpt lat="44.51634" lon="6.23494">
        <ele>1385.1999511719</ele>
        <time>2016-07-13T11:46:59.000Z</time>
      </trkpt>
      <trkpt lat="44.51635" lon="6.23495">
        <ele>1385.5999755859</ele>
        <time>2016-07-13T11:47:00.000Z</time>
      </trkpt>
      <trkpt lat="44.51642" lon="6.23504">
        <ele>1387.8000488281</ele>
        <time>2016-07-13T11:47:07.000Z</time>
      </trkpt>
      <trkpt lat="44.51644" lon="6.23507">
        <ele>1388.4000244141</ele>
        <time>2016-07-13T11:47:09.000Z</time>
      </trkpt>
      <trkpt lat="44.51653" lon="6.23513">
        <ele>1389.5999755859</ele>
        <time>2016-07-13T11:47:16.000Z</time>
      </trkpt>
      <trkpt lat="44.51664" lon="6.23511">
        <ele>1388.5999755859</ele>
        <time>2016-07-13T11:47:23.000Z</time>
      </trkpt>
      <trkpt lat="44.51676" lon="6.23509">
        <ele>1387.4000244141</ele>
        <time>2016-07-13T11:47:31.000Z</time>
      </trkpt>
      <trkpt lat="44.51686" lon="6.23507">
        <ele>1386.4000244141</ele>
        <time>2016-07-13T11:47:38.000Z</time>
      </trkpt>
      <trkpt lat="44.51696" lon="6.23508">
        <ele>1386.1999511719</ele>
        <time>2016-07-13T11:47:46.000Z</time>
      </trkpt>
      <trkpt lat="44.51699" lon="6.23511">
        <ele>1386.8000488281</ele>
        <time>2016-07-13T11:47:50.000Z</time>
      </trkpt>
      <trkpt lat="44.51701" lon="6.23512">
        <ele>1386.8000488281</ele>
        <time>2016-07-13T11:47:53.000Z</time>
      </trkpt>
      <trkpt lat="44.51707" lon="6.23515">
        <ele>1387</ele>
        <time>2016-07-13T11:47:58.000Z</time>
      </trkpt>
      <trkpt lat="44.51717" lon="6.23524">
        <ele>1388</ele>
        <time>2016-07-13T11:48:06.000Z</time>
      </trkpt>
      <trkpt lat="44.51727" lon="6.23532">
        <ele>1388.8000488281</ele>
        <time>2016-07-13T11:48:13.000Z</time>
      </trkpt>
      <trkpt lat="44.51738" lon="6.23539">
        <ele>1389.1999511719</ele>
        <time>2016-07-13T11:48:20.000Z</time>
      </trkpt>
      <trkpt lat="44.51742" lon="6.23542">
        <ele>1389.4000244141</ele>
        <time>2016-07-13T11:48:23.000Z</time>
      </trkpt>
      <trkpt lat="44.51749" lon="6.23547">
        <ele>1389.8000488281</ele>
        <time>2016-07-13T11:48:28.000Z</time>
      </trkpt>
      <trkpt lat="44.51753" lon="6.23549">
        <ele>1389.5999755859</ele>
        <time>2016-07-13T11:48:31.000Z</time>
      </trkpt>
      <trkpt lat="44.51762" lon="6.23553">
        <ele>1389.4000244141</ele>
        <time>2016-07-13T11:48:37.000Z</time>
      </trkpt>
      <trkpt lat="44.51774" lon="6.23559">
        <ele>1389.5999755859</ele>
        <time>2016-07-13T11:48:45.000Z</time>
      </trkpt>
      <trkpt lat="44.51775" lon="6.2356">
        <ele>1389.5999755859</ele>
        <time>2016-07-13T11:48:46.000Z</time>
      </trkpt>
      <trkpt lat="44.51781" lon="6.23565">
        <ele>1390</ele>
        <time>2016-07-13T11:48:51.000Z</time>
      </trkpt>
      <trkpt lat="44.51792" lon="6.23572">
        <ele>1389.1999511719</ele>
        <time>2016-07-13T11:48:59.000Z</time>
      </trkpt>
      <trkpt lat="44.51799" lon="6.23577">
        <ele>1388.8000488281</ele>
        <time>2016-07-13T11:49:04.000Z</time>
      </trkpt>
      <trkpt lat="44.51809" lon="6.23582">
        <ele>1387.8000488281</ele>
        <time>2016-07-13T11:49:11.000Z</time>
      </trkpt>
      <trkpt lat="44.51818" lon="6.23586">
        <ele>1386.8000488281</ele>
        <time>2016-07-13T11:49:17.000Z</time>
      </trkpt>
      <trkpt lat="44.51828" lon="6.23591">
        <ele>1385.5999755859</ele>
        <time>2016-07-13T11:49:24.000Z</time>
      </trkpt>
      <trkpt lat="44.51837" lon="6.23596">
        <ele>1384.5999755859</ele>
        <time>2016-07-13T11:49:31.000Z</time>
      </trkpt>
      <trkpt lat="44.51845" lon="6.236">
        <ele>1383.8000488281</ele>
        <time>2016-07-13T11:49:37.000Z</time>
      </trkpt>
      <trkpt lat="44.51852" lon="6.23606">
        <ele>1383.5999755859</ele>
        <time>2016-07-13T11:49:43.000Z</time>
      </trkpt>
      <trkpt lat="44.51853" lon="6.23607">
        <ele>1383.5999755859</ele>
        <time>2016-07-13T11:49:44.000Z</time>
      </trkpt>
      <trkpt lat="44.51862" lon="6.23617">
        <ele>1384</ele>
        <time>2016-07-13T11:49:51.000Z</time>
      </trkpt>
      <trkpt lat="44.51863" lon="6.23618">
        <ele>1383.8000488281</ele>
        <time>2016-07-13T11:49:52.000Z</time>
      </trkpt>
      <trkpt lat="44.5187" lon="6.23627">
        <ele>1384.5999755859</ele>
        <time>2016-07-13T11:49:58.000Z</time>
      </trkpt>
      <trkpt lat="44.51873" lon="6.23634">
        <ele>1385.1999511719</ele>
        <time>2016-07-13T11:50:02.000Z</time>
      </trkpt>
      <trkpt lat="44.51884" lon="6.23644">
        <ele>1385.5999755859</ele>
        <time>2016-07-13T11:50:10.000Z</time>
      </trkpt>
      <trkpt lat="44.51894" lon="6.2365">
        <ele>1384.5999755859</ele>
        <time>2016-07-13T11:50:17.000Z</time>
      </trkpt>
      <trkpt lat="44.51901" lon="6.23655">
        <ele>1384</ele>
        <time>2016-07-13T11:50:23.000Z</time>
      </trkpt>
      <trkpt lat="44.51908" lon="6.2366">
        <ele>1383.4000244141</ele>
        <time>2016-07-13T11:50:29.000Z</time>
      </trkpt>
      <trkpt lat="44.51917" lon="6.23666">
        <ele>1382.5999755859</ele>
        <time>2016-07-13T11:50:36.000Z</time>
      </trkpt>
      <trkpt lat="44.51922" lon="6.23669">
        <ele>1382.1999511719</ele>
        <time>2016-07-13T11:50:40.000Z</time>
      </trkpt>
      <trkpt lat="44.51932" lon="6.2368">
        <ele>1381.8000488281</ele>
        <time>2016-07-13T11:50:49.000Z</time>
      </trkpt>
      <trkpt lat="44.51936" lon="6.23684">
        <ele>1381.5999755859</ele>
        <time>2016-07-13T11:50:53.000Z</time>
      </trkpt>
      <trkpt lat="44.51941" lon="6.23692">
        <ele>1382</ele>
        <time>2016-07-13T11:50:58.000Z</time>
      </trkpt>
      <trkpt lat="44.51949" lon="6.23705">
        <ele>1382</ele>
        <time>2016-07-13T11:51:06.000Z</time>
      </trkpt>
      <trkpt lat="44.51952" lon="6.23711">
        <ele>1381.8000488281</ele>
        <time>2016-07-13T11:51:10.000Z</time>
      </trkpt>
      <trkpt lat="44.51955" lon="6.23721">
        <ele>1382.4000244141</ele>
        <time>2016-07-13T11:51:16.000Z</time>
      </trkpt>
      <trkpt lat="44.51959" lon="6.23732">
        <ele>1382.1999511719</ele>
        <time>2016-07-13T11:51:22.000Z</time>
      </trkpt>
      <trkpt lat="44.5196" lon="6.23734">
        <ele>1382</ele>
        <time>2016-07-13T11:51:23.000Z</time>
      </trkpt>
      <trkpt lat="44.51964" lon="6.23743">
        <ele>1381.1999511719</ele>
        <time>2016-07-13T11:51:28.000Z</time>
      </trkpt>
      <trkpt lat="44.51968" lon="6.23751">
        <ele>1380.4000244141</ele>
        <time>2016-07-13T11:51:32.000Z</time>
      </trkpt>
      <trkpt lat="44.51975" lon="6.23762">
        <ele>1378.8000488281</ele>
        <time>2016-07-13T11:51:39.000Z</time>
      </trkpt>
      <trkpt lat="44.51976" lon="6.23767">
        <ele>1378.8000488281</ele>
        <time>2016-07-13T11:51:41.000Z</time>
      </trkpt>
      <trkpt lat="44.5198" lon="6.23776">
        <ele>1378</ele>
        <time>2016-07-13T11:51:46.000Z</time>
      </trkpt>
      <trkpt lat="44.51986" lon="6.23789">
        <ele>1377</ele>
        <time>2016-07-13T11:51:52.000Z</time>
      </trkpt>
      <trkpt lat="44.51987" lon="6.23791">
        <ele>1377</ele>
        <time>2016-07-13T11:51:53.000Z</time>
      </trkpt>
      <trkpt lat="44.51994" lon="6.23803">
        <ele>1375.1999511719</ele>
        <time>2016-07-13T11:52:00.000Z</time>
      </trkpt>
      <trkpt lat="44.52002" lon="6.23809">
        <ele>1372.5999755859</ele>
        <time>2016-07-13T11:52:06.000Z</time>
      </trkpt>
      <trkpt lat="44.52011" lon="6.23819">
        <ele>1370.1999511719</ele>
        <time>2016-07-13T11:52:14.000Z</time>
      </trkpt>
      <trkpt lat="44.52018" lon="6.23826">
        <ele>1368</ele>
        <time>2016-07-13T11:52:20.000Z</time>
      </trkpt>
      <trkpt lat="44.52037" lon="6.23833">
        <ele>1361.8000488281</ele>
        <time>2016-07-13T11:52:34.000Z</time>
      </trkpt>
      <trkpt lat="44.5205" lon="6.23828">
        <ele>1359.1999511719</ele>
        <time>2016-07-13T11:52:43.000Z</time>
      </trkpt>
      <trkpt lat="44.52061" lon="6.23821">
        <ele>1358.1999511719</ele>
        <time>2016-07-13T11:52:52.000Z</time>
      </trkpt>
      <trkpt lat="44.52069" lon="6.23813">
        <ele>1357.5999755859</ele>
        <time>2016-07-13T11:52:59.000Z</time>
      </trkpt>
      <trkpt lat="44.52075" lon="6.23805">
        <ele>1356.4000244141</ele>
        <time>2016-07-13T11:53:07.000Z</time>
      </trkpt>
      <trkpt lat="44.52077" lon="6.23802">
        <ele>1356.1999511719</ele>
        <time>2016-07-13T11:53:09.000Z</time>
      </trkpt>
      <trkpt lat="44.52077" lon="6.23782">
        <ele>1354.5999755859</ele>
        <time>2016-07-13T11:53:19.000Z</time>
      </trkpt>
      <trkpt lat="44.52078" lon="6.23773">
        <ele>1354</ele>
        <time>2016-07-13T11:53:26.000Z</time>
      </trkpt>
      <trkpt lat="44.52077" lon="6.23766">
        <ele>1353.4000244141</ele>
        <time>2016-07-13T11:53:32.000Z</time>
      </trkpt>
      <trkpt lat="44.52079" lon="6.23724">
        <ele>1349.4000244141</ele>
        <time>2016-07-13T11:53:49.000Z</time>
      </trkpt>
      <trkpt lat="44.52082" lon="6.23709">
        <ele>1348.1999511719</ele>
        <time>2016-07-13T11:53:56.000Z</time>
      </trkpt>
      <trkpt lat="44.52087" lon="6.23695">
        <ele>1346.5999755859</ele>
        <time>2016-07-13T11:54:03.000Z</time>
      </trkpt>
      <trkpt lat="44.52099" lon="6.23674">
        <ele>1341.4000244141</ele>
        <time>2016-07-13T11:54:15.000Z</time>
      </trkpt>
      <trkpt lat="44.52108" lon="6.23655">
        <ele>1337</ele>
        <time>2016-07-13T11:54:25.000Z</time>
      </trkpt>
      <trkpt lat="44.52113" lon="6.23639">
        <ele>1334</ele>
        <time>2016-07-13T11:54:33.000Z</time>
      </trkpt>
      <trkpt lat="44.52118" lon="6.23618">
        <ele>1332</ele>
        <time>2016-07-13T11:54:43.000Z</time>
      </trkpt>
      <trkpt lat="44.52119" lon="6.23613">
        <ele>1331.5999755859</ele>
        <time>2016-07-13T11:54:48.000Z</time>
      </trkpt>
      <trkpt lat="44.5212" lon="6.23605">
        <ele>1331</ele>
        <time>2016-07-13T11:55:19.000Z</time>
      </trkpt>
      <trkpt lat="44.52121" lon="6.23579">
        <ele>1329.1999511719</ele>
        <time>2016-07-13T11:55:31.000Z</time>
      </trkpt>
      <trkpt lat="44.52125" lon="6.23558">
        <ele>1328.8000488281</ele>
        <time>2016-07-13T11:55:41.000Z</time>
      </trkpt>
      <trkpt lat="44.52127" lon="6.23537">
        <ele>1328.1999511719</ele>
        <time>2016-07-13T11:55:51.000Z</time>
      </trkpt>
      <trkpt lat="44.52128" lon="6.23519">
        <ele>1327.1999511719</ele>
        <time>2016-07-13T11:56:00.000Z</time>
      </trkpt>
      <trkpt lat="44.52127" lon="6.23503">
        <ele>1326</ele>
        <time>2016-07-13T11:56:07.000Z</time>
      </trkpt>
      <trkpt lat="44.52125" lon="6.23486">
        <ele>1324.4000244141</ele>
        <time>2016-07-13T11:56:15.000Z</time>
      </trkpt>
      <trkpt lat="44.52124" lon="6.23469">
        <ele>1322.8000488281</ele>
        <time>2016-07-13T11:56:23.000Z</time>
      </trkpt>
      <trkpt lat="44.52126" lon="6.23448">
        <ele>1321.1999511719</ele>
        <time>2016-07-13T11:56:33.000Z</time>
      </trkpt>
      <trkpt lat="44.52127" lon="6.23421">
        <ele>1319</ele>
        <time>2016-07-13T11:56:46.000Z</time>
      </trkpt>
      <trkpt lat="44.52126" lon="6.23403">
        <ele>1317</ele>
        <time>2016-07-13T11:56:55.000Z</time>
      </trkpt>
      <trkpt lat="44.5213" lon="6.23391">
        <ele>1317.1999511719</ele>
        <time>2016-07-13T11:57:02.000Z</time>
      </trkpt>
      <trkpt lat="44.52138" lon="6.23379">
        <ele>1318.4000244141</ele>
        <time>2016-07-13T11:57:10.000Z</time>
      </trkpt>
      <trkpt lat="44.52144" lon="6.23364">
        <ele>1318.8000488281</ele>
        <time>2016-07-13T11:57:18.000Z</time>
      </trkpt>
      <trkpt lat="44.52154" lon="6.2333">
        <ele>1317.5999755859</ele>
        <time>2016-07-13T11:57:35.000Z</time>
      </trkpt>
      <trkpt lat="44.52155" lon="6.23308">
        <ele>1314.5999755859</ele>
        <time>2016-07-13T11:57:45.000Z</time>
      </trkpt>
      <trkpt lat="44.52156" lon="6.23283">
        <ele>1311.8000488281</ele>
        <time>2016-07-13T11:57:56.000Z</time>
      </trkpt>
      <trkpt lat="44.52159" lon="6.23259">
        <ele>1309.5999755859</ele>
        <time>2016-07-13T11:58:07.000Z</time>
      </trkpt>
      <trkpt lat="44.5216" lon="6.23239">
        <ele>1307.5999755859</ele>
        <time>2016-07-13T11:58:16.000Z</time>
      </trkpt>
      <trkpt lat="44.52159" lon="6.2323">
        <ele>1306.4000244141</ele>
        <time>2016-07-13T11:58:23.000Z</time>
      </trkpt>
      <trkpt lat="44.52159" lon="6.23232">
        <ele>1306.4000244141</ele>
        <time>2016-07-13T11:58:44.000Z</time>
      </trkpt>
      <trkpt lat="44.5216" lon="6.23233">
        <ele>1306.8000488281</ele>
        <time>2016-07-13T11:59:06.000Z</time>
      </trkpt>
      <trkpt lat="44.52161" lon="6.23229">
        <ele>1306.4000244141</ele>
        <time>2016-07-13T12:01:10.000Z</time>
      </trkpt>
      <trkpt lat="44.52162" lon="6.23221">
        <ele>1306.1999511719</ele>
        <time>2016-07-13T12:01:18.000Z</time>
      </trkpt>
      <trkpt lat="44.52162" lon="6.23209">
        <ele>1305.5999755859</ele>
        <time>2016-07-13T12:01:25.000Z</time>
      </trkpt>
      <trkpt lat="44.52161" lon="6.23194">
        <ele>1304.4000244141</ele>
        <time>2016-07-13T12:01:34.000Z</time>
      </trkpt>
      <trkpt lat="44.52163" lon="6.23182">
        <ele>1304</ele>
        <time>2016-07-13T12:01:41.000Z</time>
      </trkpt>
      <trkpt lat="44.52165" lon="6.23173">
        <ele>1303.8000488281</ele>
        <time>2016-07-13T12:01:47.000Z</time>
      </trkpt>
      <trkpt lat="44.52168" lon="6.23168">
        <ele>1304</ele>
        <time>2016-07-13T12:01:54.000Z</time>
      </trkpt>
      <trkpt lat="44.52167" lon="6.23167">
        <ele>1303.5999755859</ele>
        <time>2016-07-13T12:01:59.000Z</time>
      </trkpt>
      <trkpt lat="44.52164" lon="6.23168">
        <ele>1303.1999511719</ele>
        <time>2016-07-13T12:02:05.000Z</time>
      </trkpt>
      <trkpt lat="44.52163" lon="6.23171">
        <ele>1303.1999511719</ele>
        <time>2016-07-13T12:02:08.000Z</time>
      </trkpt>
      <trkpt lat="44.52161" lon="6.23175">
        <ele>1303.1999511719</ele>
        <time>2016-07-13T12:02:12.000Z</time>
      </trkpt>
      <trkpt lat="44.52159" lon="6.23179">
        <ele>1303</ele>
        <time>2016-07-13T12:02:18.000Z</time>
      </trkpt>
      <trkpt lat="44.52159" lon="6.23178">
        <ele>1303</ele>
        <time>2016-07-13T12:02:28.000Z</time>
      </trkpt>
      <trkpt lat="44.52162" lon="6.23174">
        <ele>1303.1999511719</ele>
        <time>2016-07-13T12:02:32.000Z</time>
      </trkpt>
      <trkpt lat="44.52164" lon="6.23166">
        <ele>1303</ele>
        <time>2016-07-13T12:02:37.000Z</time>
      </trkpt>
      <trkpt lat="44.52166" lon="6.23163">
        <ele>1303.1999511719</ele>
        <time>2016-07-13T12:02:39.000Z</time>
      </trkpt>
      <trkpt lat="44.52168" lon="6.23156">
        <ele>1303.1999511719</ele>
        <time>2016-07-13T12:02:43.000Z</time>
      </trkpt>
      <trkpt lat="44.52171" lon="6.23149">
        <ele>1303.1999511719</ele>
        <time>2016-07-13T12:02:50.000Z</time>
      </trkpt>
      <trkpt lat="44.52174" lon="6.23144">
        <ele>1303.4000244141</ele>
        <time>2016-07-13T12:02:57.000Z</time>
      </trkpt>
      <trkpt lat="44.52178" lon="6.23128">
        <ele>1303.1999511719</ele>
        <time>2016-07-13T12:03:06.000Z</time>
      </trkpt>
      <trkpt lat="44.52179" lon="6.23124">
        <ele>1303</ele>
        <time>2016-07-13T12:03:08.000Z</time>
      </trkpt>
      <trkpt lat="44.52178" lon="6.23122">
        <ele>1302.8000488281</ele>
        <time>2016-07-13T12:03:10.000Z</time>
      </trkpt>
      <trkpt lat="44.52181" lon="6.23115">
        <ele>1302.4000244141</ele>
        <time>2016-07-13T12:03:15.000Z</time>
      </trkpt>
      <trkpt lat="44.52185" lon="6.23099">
        <ele>1301.5999755859</ele>
        <time>2016-07-13T12:03:24.000Z</time>
      </trkpt>
      <trkpt lat="44.52189" lon="6.23078">
        <ele>1300.5999755859</ele>
        <time>2016-07-13T12:03:35.000Z</time>
      </trkpt>
      <trkpt lat="44.52196" lon="6.23046">
        <ele>1299</ele>
        <time>2016-07-13T12:03:52.000Z</time>
      </trkpt>
      <trkpt lat="44.52199" lon="6.23028">
        <ele>1298.4000244141</ele>
        <time>2016-07-13T12:04:01.000Z</time>
      </trkpt>
      <trkpt lat="44.522" lon="6.23025">
        <ele>1298.1999511719</ele>
        <time>2016-07-13T12:04:03.000Z</time>
      </trkpt>
      <trkpt lat="44.52202" lon="6.23012">
        <ele>1297.8000488281</ele>
        <time>2016-07-13T12:04:10.000Z</time>
      </trkpt>
      <trkpt lat="44.52203" lon="6.23008">
        <ele>1297.5999755859</ele>
        <time>2016-07-13T12:04:12.000Z</time>
      </trkpt>
      <trkpt lat="44.52207" lon="6.22994">
        <ele>1297.1999511719</ele>
        <time>2016-07-13T12:04:20.000Z</time>
      </trkpt>
      <trkpt lat="44.52209" lon="6.22977">
        <ele>1295.5999755859</ele>
        <time>2016-07-13T12:04:29.000Z</time>
      </trkpt>
      <trkpt lat="44.52207" lon="6.22972">
        <ele>1295</ele>
        <time>2016-07-13T12:04:32.000Z</time>
      </trkpt>
      <trkpt lat="44.52195" lon="6.22969">
        <ele>1293.4000244141</ele>
        <time>2016-07-13T12:04:41.000Z</time>
      </trkpt>
      <trkpt lat="44.52187" lon="6.22963">
        <ele>1291.8000488281</ele>
        <time>2016-07-13T12:04:47.000Z</time>
      </trkpt>
      <trkpt lat="44.52181" lon="6.22958">
        <ele>1290.8000488281</ele>
        <time>2016-07-13T12:04:53.000Z</time>
      </trkpt>
      <trkpt lat="44.52177" lon="6.22951">
        <ele>1289.5999755859</ele>
        <time>2016-07-13T12:05:07.000Z</time>
      </trkpt>
      <trkpt lat="44.5217" lon="6.22943">
        <ele>1287.8000488281</ele>
        <time>2016-07-13T12:05:14.000Z</time>
      </trkpt>
      <trkpt lat="44.52159" lon="6.22931">
        <ele>1285.4000244141</ele>
        <time>2016-07-13T12:05:24.000Z</time>
      </trkpt>
      <trkpt lat="44.52157" lon="6.2293">
        <ele>1285.1999511719</ele>
        <time>2016-07-13T12:05:30.000Z</time>
      </trkpt>
      <trkpt lat="44.52158" lon="6.2293">
        <ele>1285.1999511719</ele>
        <time>2016-07-13T12:05:39.000Z</time>
      </trkpt>
      <trkpt lat="44.52156" lon="6.2293">
        <ele>1285</ele>
        <time>2016-07-13T12:05:49.000Z</time>
      </trkpt>
      <trkpt lat="44.52152" lon="6.22925">
        <ele>1284</ele>
        <time>2016-07-13T12:05:54.000Z</time>
      </trkpt>
      <trkpt lat="44.52141" lon="6.22917">
        <ele>1282</ele>
        <time>2016-07-13T12:06:03.000Z</time>
      </trkpt>
      <trkpt lat="44.5213" lon="6.22911">
        <ele>1279.8000488281</ele>
        <time>2016-07-13T12:06:11.000Z</time>
      </trkpt>
      <trkpt lat="44.52127" lon="6.22909">
        <ele>1279.1999511719</ele>
        <time>2016-07-13T12:06:13.000Z</time>
      </trkpt>
      <trkpt lat="44.52118" lon="6.22905">
        <ele>1277.1999511719</ele>
        <time>2016-07-13T12:06:20.000Z</time>
      </trkpt>
      <trkpt lat="44.5211" lon="6.22897">
        <ele>1275.4000244141</ele>
        <time>2016-07-13T12:06:27.000Z</time>
      </trkpt>
      <trkpt lat="44.52101" lon="6.22884">
        <ele>1272.5999755859</ele>
        <time>2016-07-13T12:06:37.000Z</time>
      </trkpt>
      <trkpt lat="44.52096" lon="6.22877">
        <ele>1271</ele>
        <time>2016-07-13T12:06:43.000Z</time>
      </trkpt>
      <trkpt lat="44.52087" lon="6.22867">
        <ele>1268.5999755859</ele>
        <time>2016-07-13T12:06:51.000Z</time>
      </trkpt>
      <trkpt lat="44.5208" lon="6.22858">
        <ele>1266.1999511719</ele>
        <time>2016-07-13T12:06:59.000Z</time>
      </trkpt>
      <trkpt lat="44.5208" lon="6.22856">
        <ele>1266</ele>
        <time>2016-07-13T12:07:00.000Z</time>
      </trkpt>
      <trkpt lat="44.52081" lon="6.22852">
        <ele>1266</ele>
        <time>2016-07-13T12:07:03.000Z</time>
      </trkpt>
      <trkpt lat="44.52077" lon="6.22851">
        <ele>1265.1999511719</ele>
        <time>2016-07-13T12:07:07.000Z</time>
      </trkpt>
      <trkpt lat="44.52069" lon="6.22846">
        <ele>1263</ele>
        <time>2016-07-13T12:07:14.000Z</time>
      </trkpt>
      <trkpt lat="44.52065" lon="6.22834">
        <ele>1261.4000244141</ele>
        <time>2016-07-13T12:07:21.000Z</time>
      </trkpt>
      <trkpt lat="44.52065" lon="6.22832">
        <ele>1261.4000244141</ele>
        <time>2016-07-13T12:07:22.000Z</time>
      </trkpt>
      <trkpt lat="44.52073" lon="6.22824">
        <ele>1262.8000488281</ele>
        <time>2016-07-13T12:07:30.000Z</time>
      </trkpt>
      <trkpt lat="44.52083" lon="6.2282">
        <ele>1264.8000488281</ele>
        <time>2016-07-13T12:07:38.000Z</time>
      </trkpt>
      <trkpt lat="44.52094" lon="6.22815">
        <ele>1267</ele>
        <time>2016-07-13T12:07:47.000Z</time>
      </trkpt>
      <trkpt lat="44.52105" lon="6.2281">
        <ele>1269</ele>
        <time>2016-07-13T12:07:56.000Z</time>
      </trkpt>
      <trkpt lat="44.52116" lon="6.22808">
        <ele>1271</ele>
        <time>2016-07-13T12:08:04.000Z</time>
      </trkpt>
      <trkpt lat="44.52126" lon="6.22805">
        <ele>1270.4000244141</ele>
        <time>2016-07-13T12:08:12.000Z</time>
      </trkpt>
      <trkpt lat="44.52135" lon="6.228">
        <ele>1269.4000244141</ele>
        <time>2016-07-13T12:08:19.000Z</time>
      </trkpt>
      <trkpt lat="44.52157" lon="6.22784">
        <ele>1266</ele>
        <time>2016-07-13T12:08:41.000Z</time>
      </trkpt>
      <trkpt lat="44.52157" lon="6.22785">
        <ele>1266</ele>
        <time>2016-07-13T12:08:50.000Z</time>
      </trkpt>
      <trkpt lat="44.52162" lon="6.22783">
        <ele>1265.5999755859</ele>
        <time>2016-07-13T12:08:59.000Z</time>
      </trkpt>
      <trkpt lat="44.52169" lon="6.22781">
        <ele>1265.1999511719</ele>
        <time>2016-07-13T12:09:04.000Z</time>
      </trkpt>
      <trkpt lat="44.52176" lon="6.2278">
        <ele>1264.5999755859</ele>
        <time>2016-07-13T12:09:10.000Z</time>
      </trkpt>
      <trkpt lat="44.52187" lon="6.2278">
        <ele>1264</ele>
        <time>2016-07-13T12:09:18.000Z</time>
      </trkpt>
      <trkpt lat="44.52194" lon="6.22783">
        <ele>1264.4000244141</ele>
        <time>2016-07-13T12:09:24.000Z</time>
      </trkpt>
      <trkpt lat="44.52207" lon="6.22788">
        <ele>1264</ele>
        <time>2016-07-13T12:09:36.000Z</time>
      </trkpt>
      <trkpt lat="44.52217" lon="6.22794">
        <ele>1263.5999755859</ele>
        <time>2016-07-13T12:09:44.000Z</time>
      </trkpt>
      <trkpt lat="44.52227" lon="6.22799">
        <ele>1263</ele>
        <time>2016-07-13T12:09:52.000Z</time>
      </trkpt>
      <trkpt lat="44.52235" lon="6.22804">
        <ele>1262.4000244141</ele>
        <time>2016-07-13T12:09:59.000Z</time>
      </trkpt>
      <trkpt lat="44.52246" lon="6.22808">
        <ele>1261.5999755859</ele>
        <time>2016-07-13T12:10:07.000Z</time>
      </trkpt>
      <trkpt lat="44.52256" lon="6.22811">
        <ele>1260.4000244141</ele>
        <time>2016-07-13T12:10:15.000Z</time>
      </trkpt>
      <trkpt lat="44.52269" lon="6.22811">
        <ele>1258.1999511719</ele>
        <time>2016-07-13T12:10:24.000Z</time>
      </trkpt>
      <trkpt lat="44.52279" lon="6.22808">
        <ele>1256</ele>
        <time>2016-07-13T12:10:31.000Z</time>
      </trkpt>
      <trkpt lat="44.52288" lon="6.22803">
        <ele>1253.5999755859</ele>
        <time>2016-07-13T12:10:38.000Z</time>
      </trkpt>
      <trkpt lat="44.52297" lon="6.22799">
        <ele>1251.8000488281</ele>
        <time>2016-07-13T12:10:45.000Z</time>
      </trkpt>
      <trkpt lat="44.52308" lon="6.22794">
        <ele>1249.8000488281</ele>
        <time>2016-07-13T12:10:53.000Z</time>
      </trkpt>
      <trkpt lat="44.52316" lon="6.22789">
        <ele>1248.1999511719</ele>
        <time>2016-07-13T12:10:59.000Z</time>
      </trkpt>
      <trkpt lat="44.52321" lon="6.22787">
        <ele>1247.1999511719</ele>
        <time>2016-07-13T12:11:05.000Z</time>
      </trkpt>
      <trkpt lat="44.52322" lon="6.22786">
        <ele>1247</ele>
        <time>2016-07-13T12:11:07.000Z</time>
      </trkpt>
      <trkpt lat="44.52331" lon="6.2278">
        <ele>1245</ele>
        <time>2016-07-13T12:11:15.000Z</time>
      </trkpt>
      <trkpt lat="44.52334" lon="6.22776">
        <ele>1244</ele>
        <time>2016-07-13T12:11:19.000Z</time>
      </trkpt>
      <trkpt lat="44.52341" lon="6.22768">
        <ele>1242.8000488281</ele>
        <time>2016-07-13T12:11:26.000Z</time>
      </trkpt>
      <trkpt lat="44.52342" lon="6.22768">
        <ele>1242.8000488281</ele>
        <time>2016-07-13T12:11:27.000Z</time>
      </trkpt>
      <trkpt lat="44.52346" lon="6.2276">
        <ele>1241.5999755859</ele>
        <time>2016-07-13T12:11:32.000Z</time>
      </trkpt>
      <trkpt lat="44.52352" lon="6.22748">
        <ele>1239.8000488281</ele>
        <time>2016-07-13T12:11:40.000Z</time>
      </trkpt>
      <trkpt lat="44.52353" lon="6.22736">
        <ele>1237.8000488281</ele>
        <time>2016-07-13T12:11:47.000Z</time>
      </trkpt>
      <trkpt lat="44.52354" lon="6.2273">
        <ele>1237</ele>
        <time>2016-07-13T12:11:50.000Z</time>
      </trkpt>
      <trkpt lat="44.52356" lon="6.22728">
        <ele>1236.8000488281</ele>
        <time>2016-07-13T12:11:52.000Z</time>
      </trkpt>
      <trkpt lat="44.52357" lon="6.22725">
        <ele>1236.4000244141</ele>
        <time>2016-07-13T12:12:02.000Z</time>
      </trkpt>
      <trkpt lat="44.52356" lon="6.2272">
        <ele>1235.5999755859</ele>
        <time>2016-07-13T12:12:07.000Z</time>
      </trkpt>
      <trkpt lat="44.52357" lon="6.22721">
        <ele>1235.8000488281</ele>
        <time>2016-07-13T12:12:14.000Z</time>
      </trkpt>
      <trkpt lat="44.52356" lon="6.22718">
        <ele>1235.4000244141</ele>
        <time>2016-07-13T12:12:20.000Z</time>
      </trkpt>
      <trkpt lat="44.5236" lon="6.22711">
        <ele>1234.5999755859</ele>
        <time>2016-07-13T12:12:25.000Z</time>
      </trkpt>
      <trkpt lat="44.52361" lon="6.22711">
        <ele>1234.5999755859</ele>
        <time>2016-07-13T12:12:26.000Z</time>
      </trkpt>
      <trkpt lat="44.52362" lon="6.22711">
        <ele>1234.5999755859</ele>
        <time>2016-07-13T12:12:28.000Z</time>
      </trkpt>
      <trkpt lat="44.52364" lon="6.22708">
        <ele>1234.4000244141</ele>
        <time>2016-07-13T12:12:36.000Z</time>
      </trkpt>
      <trkpt lat="44.5236" lon="6.22703">
        <ele>1233.5999755859</ele>
        <time>2016-07-13T12:12:51.000Z</time>
      </trkpt>
      <trkpt lat="44.52356" lon="6.22694">
        <ele>1232.4000244141</ele>
        <time>2016-07-13T12:12:58.000Z</time>
      </trkpt>
      <trkpt lat="44.52354" lon="6.22682">
        <ele>1230.8000488281</ele>
        <time>2016-07-13T12:13:05.000Z</time>
      </trkpt>
      <trkpt lat="44.52353" lon="6.2267">
        <ele>1229.4000244141</ele>
        <time>2016-07-13T12:13:12.000Z</time>
      </trkpt>
      <trkpt lat="44.5235" lon="6.22661">
        <ele>1228.1999511719</ele>
        <time>2016-07-13T12:13:19.000Z</time>
      </trkpt>
      <trkpt lat="44.5235" lon="6.2266">
        <ele>1228.1999511719</ele>
        <time>2016-07-13T12:13:20.000Z</time>
      </trkpt>
      <trkpt lat="44.52348" lon="6.22654">
        <ele>1227.4000244141</ele>
        <time>2016-07-13T12:13:26.000Z</time>
      </trkpt>
      <trkpt lat="44.5235" lon="6.22661">
        <ele>1228.1999511719</ele>
        <time>2016-07-13T12:13:34.000Z</time>
      </trkpt>
      <trkpt lat="44.52352" lon="6.2267">
        <ele>1229.4000244141</ele>
        <time>2016-07-13T12:13:40.000Z</time>
      </trkpt>
      <trkpt lat="44.52352" lon="6.22683">
        <ele>1231</ele>
        <time>2016-07-13T12:13:48.000Z</time>
      </trkpt>
      <trkpt lat="44.52354" lon="6.22695">
        <ele>1232.4000244141</ele>
        <time>2016-07-13T12:13:55.000Z</time>
      </trkpt>
      <trkpt lat="44.52354" lon="6.22696">
        <ele>1232.5999755859</ele>
        <time>2016-07-13T12:13:56.000Z</time>
      </trkpt>
      <trkpt lat="44.52357" lon="6.227">
        <ele>1233.1999511719</ele>
        <time>2016-07-13T12:14:00.000Z</time>
      </trkpt>
      <trkpt lat="44.52361" lon="6.22703">
        <ele>1233.5999755859</ele>
        <time>2016-07-13T12:14:07.000Z</time>
      </trkpt>
      <trkpt lat="44.52363" lon="6.227">
        <ele>1233.4000244141</ele>
        <time>2016-07-13T12:14:14.000Z</time>
      </trkpt>
      <trkpt lat="44.52359" lon="6.22698">
        <ele>1233</ele>
        <time>2016-07-13T12:14:22.000Z</time>
      </trkpt>
      <trkpt lat="44.52358" lon="6.22697">
        <ele>1233</ele>
        <time>2016-07-13T12:14:23.000Z</time>
      </trkpt>
      <trkpt lat="44.52357" lon="6.22696">
        <ele>1232.5999755859</ele>
        <time>2016-07-13T12:14:28.000Z</time>
      </trkpt>
      <trkpt lat="44.52355" lon="6.22697">
        <ele>1232.8000488281</ele>
        <time>2016-07-13T12:14:40.000Z</time>
      </trkpt>
      <trkpt lat="44.52355" lon="6.22692">
        <ele>1232.1999511719</ele>
        <time>2016-07-13T12:15:27.000Z</time>
      </trkpt>
      <trkpt lat="44.52355" lon="6.22693">
        <ele>1232.4000244141</ele>
        <time>2016-07-13T12:15:33.000Z</time>
      </trkpt>
      <trkpt lat="44.52358" lon="6.22701">
        <ele>1233.4000244141</ele>
        <time>2016-07-13T12:16:34.000Z</time>
      </trkpt>
      <trkpt lat="44.52359" lon="6.22702">
        <ele>1233.4000244141</ele>
        <time>2016-07-13T12:16:41.000Z</time>
      </trkpt>
      <trkpt lat="44.52357" lon="6.22699">
        <ele>1233</ele>
        <time>2016-07-13T12:17:09.000Z</time>
      </trkpt>
      <trkpt lat="44.52354" lon="6.22692">
        <ele>1232.1999511719</ele>
        <time>2016-07-13T12:17:17.000Z</time>
      </trkpt>
      <trkpt lat="44.52353" lon="6.22693">
        <ele>1232.1999511719</ele>
        <time>2016-07-13T12:17:31.000Z</time>
      </trkpt>
      <trkpt lat="44.52353" lon="6.22689">
        <ele>1231.5999755859</ele>
        <time>2016-07-13T12:19:37.000Z</time>
      </trkpt>
      <trkpt lat="44.52353" lon="6.22688">
        <ele>1231.5999755859</ele>
        <time>2016-07-13T12:19:56.000Z</time>
      </trkpt>
      <trkpt lat="44.52352" lon="6.22692">
        <ele>1232</ele>
        <time>2016-07-13T12:20:02.000Z</time>
      </trkpt>
      <trkpt lat="44.52352" lon="6.22696">
        <ele>1232.5999755859</ele>
        <time>2016-07-13T12:20:05.000Z</time>
      </trkpt>
      <trkpt lat="44.52352" lon="6.22707">
        <ele>1233.8000488281</ele>
        <time>2016-07-13T12:20:12.000Z</time>
      </trkpt>
      <trkpt lat="44.52353" lon="6.22716">
        <ele>1235</ele>
        <time>2016-07-13T12:20:18.000Z</time>
      </trkpt>
      <trkpt lat="44.52354" lon="6.22717">
        <ele>1235.1999511719</ele>
        <time>2016-07-13T12:20:26.000Z</time>
      </trkpt>
      <trkpt lat="44.52354" lon="6.22714">
        <ele>1234.8000488281</ele>
        <time>2016-07-13T12:20:46.000Z</time>
      </trkpt>
      <trkpt lat="44.52352" lon="6.22705">
        <ele>1233.5999755859</ele>
        <time>2016-07-13T12:20:52.000Z</time>
      </trkpt>
      <trkpt lat="44.52353" lon="6.22698">
        <ele>1232.8000488281</ele>
        <time>2016-07-13T12:20:56.000Z</time>
      </trkpt>
      <trkpt lat="44.52353" lon="6.22688">
        <ele>1231.5999755859</ele>
        <time>2016-07-13T12:21:02.000Z</time>
      </trkpt>
      <trkpt lat="44.52348" lon="6.22682">
        <ele>1230.8000488281</ele>
        <time>2016-07-13T12:21:08.000Z</time>
      </trkpt>
      <trkpt lat="44.52343" lon="6.22679">
        <ele>1230.1999511719</ele>
        <time>2016-07-13T12:21:13.000Z</time>
      </trkpt>
      <trkpt lat="44.5234" lon="6.22678">
        <ele>1230</ele>
        <time>2016-07-13T12:21:19.000Z</time>
      </trkpt>
      <trkpt lat="44.52342" lon="6.22678">
        <ele>1230</ele>
        <time>2016-07-13T12:21:44.000Z</time>
      </trkpt>
      <trkpt lat="44.52344" lon="6.22672">
        <ele>1229.4000244141</ele>
        <time>2016-07-13T12:21:48.000Z</time>
      </trkpt>
      <trkpt lat="44.52344" lon="6.2267">
        <ele>1229</ele>
        <time>2016-07-13T12:21:50.000Z</time>
      </trkpt>
      <trkpt lat="44.52344" lon="6.22667">
        <ele>1228.8000488281</ele>
        <time>2016-07-13T12:21:54.000Z</time>
      </trkpt>
      <trkpt lat="44.52342" lon="6.22671">
        <ele>1229.1999511719</ele>
        <time>2016-07-13T12:22:03.000Z</time>
      </trkpt>
      <trkpt lat="44.52347" lon="6.22673">
        <ele>1229.5999755859</ele>
        <time>2016-07-13T12:22:07.000Z</time>
      </trkpt>
      <trkpt lat="44.5235" lon="6.22682">
        <ele>1230.8000488281</ele>
        <time>2016-07-13T12:22:13.000Z</time>
      </trkpt>
      <trkpt lat="44.52354" lon="6.22687">
        <ele>1231.5999755859</ele>
        <time>2016-07-13T12:22:20.000Z</time>
      </trkpt>
      <trkpt lat="44.52353" lon="6.22686">
        <ele>1231.4000244141</ele>
        <time>2016-07-13T12:22:26.000Z</time>
      </trkpt>
      <trkpt lat="44.52353" lon="6.22684">
        <ele>1231.1999511719</ele>
        <time>2016-07-13T12:22:28.000Z</time>
      </trkpt>
      <trkpt lat="44.52348" lon="6.22672">
        <ele>1229.4000244141</ele>
        <time>2016-07-13T12:22:36.000Z</time>
      </trkpt>
      <trkpt lat="44.52347" lon="6.22661">
        <ele>1228.1999511719</ele>
        <time>2016-07-13T12:22:42.000Z</time>
      </trkpt>
      <trkpt lat="44.52346" lon="6.22659">
        <ele>1228</ele>
        <time>2016-07-13T12:22:43.000Z</time>
      </trkpt>
      <trkpt lat="44.52343" lon="6.2265">
        <ele>1226.8000488281</ele>
        <time>2016-07-13T12:22:51.000Z</time>
      </trkpt>
      <trkpt lat="44.52341" lon="6.22648">
        <ele>1226.4000244141</ele>
        <time>2016-07-13T12:23:06.000Z</time>
      </trkpt>
      <trkpt lat="44.52334" lon="6.22635">
        <ele>1224.5999755859</ele>
        <time>2016-07-13T12:23:16.000Z</time>
      </trkpt>
      <trkpt lat="44.52325" lon="6.22623">
        <ele>1223.1999511719</ele>
        <time>2016-07-13T12:23:26.000Z</time>
      </trkpt>
      <trkpt lat="44.52317" lon="6.22615">
        <ele>1222</ele>
        <time>2016-07-13T12:23:34.000Z</time>
      </trkpt>
      <trkpt lat="44.52309" lon="6.22603">
        <ele>1220.4000244141</ele>
        <time>2016-07-13T12:23:43.000Z</time>
      </trkpt>
      <trkpt lat="44.52302" lon="6.2259">
        <ele>1218.5999755859</ele>
        <time>2016-07-13T12:23:52.000Z</time>
      </trkpt>
      <trkpt lat="44.52301" lon="6.22589">
        <ele>1218.4000244141</ele>
        <time>2016-07-13T12:23:53.000Z</time>
      </trkpt>
      <trkpt lat="44.523" lon="6.22587">
        <ele>1218.1999511719</ele>
        <time>2016-07-13T12:23:58.000Z</time>
      </trkpt>
      <trkpt lat="44.52301" lon="6.22587">
        <ele>1218.4000244141</ele>
        <time>2016-07-13T12:24:03.000Z</time>
      </trkpt>
      <trkpt lat="44.52299" lon="6.22575">
        <ele>1217</ele>
        <time>2016-07-13T12:24:54.000Z</time>
      </trkpt>
      <trkpt lat="44.52296" lon="6.22558">
        <ele>1214.8000488281</ele>
        <time>2016-07-13T12:25:04.000Z</time>
      </trkpt>
      <trkpt lat="44.5229" lon="6.22539">
        <ele>1212</ele>
        <time>2016-07-13T12:25:15.000Z</time>
      </trkpt>
      <trkpt lat="44.52285" lon="6.22524">
        <ele>1209.5999755859</ele>
        <time>2016-07-13T12:25:24.000Z</time>
      </trkpt>
      <trkpt lat="44.52281" lon="6.22511">
        <ele>1207.1999511719</ele>
        <time>2016-07-13T12:25:32.000Z</time>
      </trkpt>
      <trkpt lat="44.52277" lon="6.22492">
        <ele>1204</ele>
        <time>2016-07-13T12:25:43.000Z</time>
      </trkpt>
      <trkpt lat="44.52276" lon="6.22483">
        <ele>1202.5999755859</ele>
        <time>2016-07-13T12:25:48.000Z</time>
      </trkpt>
      <trkpt lat="44.52278" lon="6.22472">
        <ele>1200</ele>
        <time>2016-07-13T12:25:54.000Z</time>
      </trkpt>
      <trkpt lat="44.52285" lon="6.22458">
        <ele>1198.4000244141</ele>
        <time>2016-07-13T12:26:03.000Z</time>
      </trkpt>
      <trkpt lat="44.52292" lon="6.22447">
        <ele>1196.4000244141</ele>
        <time>2016-07-13T12:26:11.000Z</time>
      </trkpt>
      <trkpt lat="44.52296" lon="6.22442">
        <ele>1195.5999755859</ele>
        <time>2016-07-13T12:26:16.000Z</time>
      </trkpt>
      <trkpt lat="44.52302" lon="6.22436">
        <ele>1194.5999755859</ele>
        <time>2016-07-13T12:26:22.000Z</time>
      </trkpt>
      <trkpt lat="44.52304" lon="6.22435">
        <ele>1194.4000244141</ele>
        <time>2016-07-13T12:26:23.000Z</time>
      </trkpt>
      <trkpt lat="44.52317" lon="6.22424">
        <ele>1193.4000244141</ele>
        <time>2016-07-13T12:26:34.000Z</time>
      </trkpt>
      <trkpt lat="44.52324" lon="6.22415">
        <ele>1194</ele>
        <time>2016-07-13T12:26:41.000Z</time>
      </trkpt>
      <trkpt lat="44.52325" lon="6.22414">
        <ele>1194.1999511719</ele>
        <time>2016-07-13T12:26:42.000Z</time>
      </trkpt>
      <trkpt lat="44.52332" lon="6.22403">
        <ele>1194.4000244141</ele>
        <time>2016-07-13T12:26:49.000Z</time>
      </trkpt>
      <trkpt lat="44.52337" lon="6.22392">
        <ele>1193.5999755859</ele>
        <time>2016-07-13T12:26:56.000Z</time>
      </trkpt>
      <trkpt lat="44.52339" lon="6.22378">
        <ele>1189.5999755859</ele>
        <time>2016-07-13T12:27:04.000Z</time>
      </trkpt>
      <trkpt lat="44.52343" lon="6.22366">
        <ele>1187.1999511719</ele>
        <time>2016-07-13T12:27:12.000Z</time>
      </trkpt>
      <trkpt lat="44.52353" lon="6.22356">
        <ele>1188.5999755859</ele>
        <time>2016-07-13T12:27:22.000Z</time>
      </trkpt>
      <trkpt lat="44.52363" lon="6.22353">
        <ele>1191.4000244141</ele>
        <time>2016-07-13T12:27:30.000Z</time>
      </trkpt>
      <trkpt lat="44.52364" lon="6.22353">
        <ele>1191.8000488281</ele>
        <time>2016-07-13T12:27:31.000Z</time>
      </trkpt>
      <trkpt lat="44.52374" lon="6.2235">
        <ele>1191.1999511719</ele>
        <time>2016-07-13T12:27:39.000Z</time>
      </trkpt>
      <trkpt lat="44.52384" lon="6.22349">
        <ele>1189.8000488281</ele>
        <time>2016-07-13T12:27:47.000Z</time>
      </trkpt>
      <trkpt lat="44.52391" lon="6.22346">
        <ele>1188.1999511719</ele>
        <time>2016-07-13T12:27:53.000Z</time>
      </trkpt>
      <trkpt lat="44.52395" lon="6.22343">
        <ele>1187.1999511719</ele>
        <time>2016-07-13T12:27:57.000Z</time>
      </trkpt>
      <trkpt lat="44.52401" lon="6.22338">
        <ele>1186.4000244141</ele>
        <time>2016-07-13T12:28:03.000Z</time>
      </trkpt>
      <trkpt lat="44.52405" lon="6.22336">
        <ele>1186.1999511719</ele>
        <time>2016-07-13T12:28:08.000Z</time>
      </trkpt>
      <trkpt lat="44.52408" lon="6.22334">
        <ele>1185.8000488281</ele>
        <time>2016-07-13T12:28:14.000Z</time>
      </trkpt>
      <trkpt lat="44.52409" lon="6.22334">
        <ele>1185.8000488281</ele>
        <time>2016-07-13T12:28:15.000Z</time>
      </trkpt>
      <trkpt lat="44.52414" lon="6.22331">
        <ele>1185.4000244141</ele>
        <time>2016-07-13T12:28:21.000Z</time>
      </trkpt>
      <trkpt lat="44.52422" lon="6.22326">
        <ele>1184.8000488281</ele>
        <time>2016-07-13T12:28:29.000Z</time>
      </trkpt>
      <trkpt lat="44.52425" lon="6.22321">
        <ele>1184.4000244141</ele>
        <time>2016-07-13T12:28:34.000Z</time>
      </trkpt>
      <trkpt lat="44.52427" lon="6.22319">
        <ele>1184.1999511719</ele>
        <time>2016-07-13T12:28:38.000Z</time>
      </trkpt>
      <trkpt lat="44.52434" lon="6.22314">
        <ele>1183.5999755859</ele>
        <time>2016-07-13T12:28:45.000Z</time>
      </trkpt>
      <trkpt lat="44.52439" lon="6.22311">
        <ele>1183</ele>
        <time>2016-07-13T12:28:50.000Z</time>
      </trkpt>
      <trkpt lat="44.52442" lon="6.22309">
        <ele>1182.4000244141</ele>
        <time>2016-07-13T12:28:54.000Z</time>
      </trkpt>
      <trkpt lat="44.52447" lon="6.22306">
        <ele>1182</ele>
        <time>2016-07-13T12:28:58.000Z</time>
      </trkpt>
      <trkpt lat="44.52453" lon="6.22302">
        <ele>1181.4000244141</ele>
        <time>2016-07-13T12:29:04.000Z</time>
      </trkpt>
      <trkpt lat="44.52456" lon="6.223">
        <ele>1180.5999755859</ele>
        <time>2016-07-13T12:29:07.000Z</time>
      </trkpt>
      <trkpt lat="44.52459" lon="6.22297">
        <ele>1179.8000488281</ele>
        <time>2016-07-13T12:29:10.000Z</time>
      </trkpt>
      <trkpt lat="44.52466" lon="6.22293">
        <ele>1178</ele>
        <time>2016-07-13T12:29:17.000Z</time>
      </trkpt>
      <trkpt lat="44.5247" lon="6.22291">
        <ele>1177.1999511719</ele>
        <time>2016-07-13T12:29:21.000Z</time>
      </trkpt>
      <trkpt lat="44.52479" lon="6.2229">
        <ele>1175.5999755859</ele>
        <time>2016-07-13T12:29:27.000Z</time>
      </trkpt>
      <trkpt lat="44.52479" lon="6.22289">
        <ele>1175.4000244141</ele>
        <time>2016-07-13T12:29:28.000Z</time>
      </trkpt>
      <trkpt lat="44.52485" lon="6.22287">
        <ele>1174.1999511719</ele>
        <time>2016-07-13T12:29:33.000Z</time>
      </trkpt>
      <trkpt lat="44.52486" lon="6.22288">
        <ele>1174.1999511719</ele>
        <time>2016-07-13T12:29:34.000Z</time>
      </trkpt>
      <trkpt lat="44.52493" lon="6.22291">
        <ele>1173.4000244141</ele>
        <time>2016-07-13T12:29:38.000Z</time>
      </trkpt>
      <trkpt lat="44.52494" lon="6.22291">
        <ele>1173</ele>
        <time>2016-07-13T12:29:40.000Z</time>
      </trkpt>
      <trkpt lat="44.52499" lon="6.22293">
        <ele>1172.5999755859</ele>
        <time>2016-07-13T12:29:44.000Z</time>
      </trkpt>
      <trkpt lat="44.52505" lon="6.22295">
        <ele>1171.8000488281</ele>
        <time>2016-07-13T12:29:50.000Z</time>
      </trkpt>
      <trkpt lat="44.52506" lon="6.22296">
        <ele>1171.5999755859</ele>
        <time>2016-07-13T12:29:51.000Z</time>
      </trkpt>
      <trkpt lat="44.5251" lon="6.22296">
        <ele>1171</ele>
        <time>2016-07-13T12:29:55.000Z</time>
      </trkpt>
      <trkpt lat="44.52512" lon="6.22296">
        <ele>1170.8000488281</ele>
        <time>2016-07-13T12:29:57.000Z</time>
      </trkpt>
      <trkpt lat="44.52519" lon="6.22299">
        <ele>1169.8000488281</ele>
        <time>2016-07-13T12:30:04.000Z</time>
      </trkpt>
      <trkpt lat="44.5252" lon="6.22299">
        <ele>1169.8000488281</ele>
        <time>2016-07-13T12:30:05.000Z</time>
      </trkpt>
      <trkpt lat="44.52521" lon="6.223">
        <ele>1169.5999755859</ele>
        <time>2016-07-13T12:30:06.000Z</time>
      </trkpt>
      <trkpt lat="44.52526" lon="6.22301">
        <ele>1168.8000488281</ele>
        <time>2016-07-13T12:30:10.000Z</time>
      </trkpt>
      <trkpt lat="44.52537" lon="6.22306">
        <ele>1167</ele>
        <time>2016-07-13T12:30:21.000Z</time>
      </trkpt>
      <trkpt lat="44.52539" lon="6.22307">
        <ele>1166.5999755859</ele>
        <time>2016-07-13T12:30:23.000Z</time>
      </trkpt>
      <trkpt lat="44.52545" lon="6.22309">
        <ele>1165</ele>
        <time>2016-07-13T12:30:28.000Z</time>
      </trkpt>
      <trkpt lat="44.5255" lon="6.22309">
        <ele>1163.4000244141</ele>
        <time>2016-07-13T12:30:34.000Z</time>
      </trkpt>
      <trkpt lat="44.52556" lon="6.22314">
        <ele>1162.1999511719</ele>
        <time>2016-07-13T12:30:40.000Z</time>
      </trkpt>
      <trkpt lat="44.52562" lon="6.22317">
        <ele>1161</ele>
        <time>2016-07-13T12:30:44.000Z</time>
      </trkpt>
      <trkpt lat="44.52563" lon="6.22318">
        <ele>1160.8000488281</ele>
        <time>2016-07-13T12:30:45.000Z</time>
      </trkpt>
      <trkpt lat="44.52566" lon="6.22318">
        <ele>1160</ele>
        <time>2016-07-13T12:30:47.000Z</time>
      </trkpt>
      <trkpt lat="44.52571" lon="6.22317">
        <ele>1158.1999511719</ele>
        <time>2016-07-13T12:30:53.000Z</time>
      </trkpt>
      <trkpt lat="44.52577" lon="6.22313">
        <ele>1155.5999755859</ele>
        <time>2016-07-13T12:30:59.000Z</time>
      </trkpt>
      <trkpt lat="44.52581" lon="6.22311">
        <ele>1154</ele>
        <time>2016-07-13T12:31:03.000Z</time>
      </trkpt>
      <trkpt lat="44.52585" lon="6.22311">
        <ele>1152.8000488281</ele>
        <time>2016-07-13T12:31:07.000Z</time>
      </trkpt>
      <trkpt lat="44.5259" lon="6.22309">
        <ele>1150.8000488281</ele>
        <time>2016-07-13T12:31:12.000Z</time>
      </trkpt>
      <trkpt lat="44.52592" lon="6.22308">
        <ele>1150</ele>
        <time>2016-07-13T12:31:14.000Z</time>
      </trkpt>
      <trkpt lat="44.52598" lon="6.22307">
        <ele>1147.8000488281</ele>
        <time>2016-07-13T12:31:19.000Z</time>
      </trkpt>
      <trkpt lat="44.52602" lon="6.22307">
        <ele>1146.8000488281</ele>
        <time>2016-07-13T12:31:22.000Z</time>
      </trkpt>
      <trkpt lat="44.52605" lon="6.22307">
        <ele>1145.8000488281</ele>
        <time>2016-07-13T12:31:25.000Z</time>
      </trkpt>
      <trkpt lat="44.52612" lon="6.22305">
        <ele>1143.4000244141</ele>
        <time>2016-07-13T12:31:36.000Z</time>
      </trkpt>
      <trkpt lat="44.52613" lon="6.22305">
        <ele>1143</ele>
        <time>2016-07-13T12:31:37.000Z</time>
      </trkpt>
      <trkpt lat="44.52623" lon="6.22305">
        <ele>1140</ele>
        <time>2016-07-13T12:31:44.000Z</time>
      </trkpt>
      <trkpt lat="44.52627" lon="6.22303">
        <ele>1138.5999755859</ele>
        <time>2016-07-13T12:31:47.000Z</time>
      </trkpt>
      <trkpt lat="44.52629" lon="6.22302">
        <ele>1137.8000488281</ele>
        <time>2016-07-13T12:31:49.000Z</time>
      </trkpt>
      <trkpt lat="44.52636" lon="6.22304">
        <ele>1135.8000488281</ele>
        <time>2016-07-13T12:31:55.000Z</time>
      </trkpt>
      <trkpt lat="44.5264" lon="6.22306">
        <ele>1134.8000488281</ele>
        <time>2016-07-13T12:31:58.000Z</time>
      </trkpt>
      <trkpt lat="44.52642" lon="6.22306">
        <ele>1134.4000244141</ele>
        <time>2016-07-13T12:32:00.000Z</time>
      </trkpt>
      <trkpt lat="44.52646" lon="6.22306">
        <ele>1133</ele>
        <time>2016-07-13T12:32:03.000Z</time>
      </trkpt>
      <trkpt lat="44.52655" lon="6.22307">
        <ele>1130.1999511719</ele>
        <time>2016-07-13T12:32:09.000Z</time>
      </trkpt>
      <trkpt lat="44.52657" lon="6.22307">
        <ele>1129.8000488281</ele>
        <time>2016-07-13T12:32:10.000Z</time>
      </trkpt>
      <trkpt lat="44.52662" lon="6.22309">
        <ele>1128.4000244141</ele>
        <time>2016-07-13T12:32:14.000Z</time>
      </trkpt>
      <trkpt lat="44.52671" lon="6.22307">
        <ele>1125.4000244141</ele>
        <time>2016-07-13T12:32:21.000Z</time>
      </trkpt>
      <trkpt lat="44.52675" lon="6.22307">
        <ele>1124.1999511719</ele>
        <time>2016-07-13T12:32:24.000Z</time>
      </trkpt>
      <trkpt lat="44.52683" lon="6.22305">
        <ele>1121.4000244141</ele>
        <time>2016-07-13T12:32:31.000Z</time>
      </trkpt>
      <trkpt lat="44.5269" lon="6.22302">
        <ele>1118.8000488281</ele>
        <time>2016-07-13T12:32:37.000Z</time>
      </trkpt>
      <trkpt lat="44.52694" lon="6.22301">
        <ele>1117.4000244141</ele>
        <time>2016-07-13T12:32:43.000Z</time>
      </trkpt>
      <trkpt lat="44.52693" lon="6.22301">
        <ele>1117.8000488281</ele>
        <time>2016-07-13T12:33:10.000Z</time>
      </trkpt>
      <trkpt lat="44.52693" lon="6.223">
        <ele>1117.8000488281</ele>
        <time>2016-07-13T12:33:15.000Z</time>
      </trkpt>
      <trkpt lat="44.52692" lon="6.22296">
        <ele>1117.1999511719</ele>
        <time>2016-07-13T12:35:23.000Z</time>
      </trkpt>
      <trkpt lat="44.52695" lon="6.22297">
        <ele>1116.5999755859</ele>
        <time>2016-07-13T12:35:51.000Z</time>
      </trkpt>
      <trkpt lat="44.52696" lon="6.22298">
        <ele>1116.4000244141</ele>
        <time>2016-07-13T12:35:55.000Z</time>
      </trkpt>
      <trkpt lat="44.52704" lon="6.22298">
        <ele>1114</ele>
        <time>2016-07-13T12:36:02.000Z</time>
      </trkpt>
      <trkpt lat="44.52714" lon="6.22296">
        <ele>1111.4000244141</ele>
        <time>2016-07-13T12:36:10.000Z</time>
      </trkpt>
      <trkpt lat="44.52724" lon="6.22296">
        <ele>1108.5999755859</ele>
        <time>2016-07-13T12:36:19.000Z</time>
      </trkpt>
      <trkpt lat="44.52735" lon="6.22297">
        <ele>1105.8000488281</ele>
        <time>2016-07-13T12:36:28.000Z</time>
      </trkpt>
      <trkpt lat="44.52747" lon="6.22296">
        <ele>1102.8000488281</ele>
        <time>2016-07-13T12:36:37.000Z</time>
      </trkpt>
      <trkpt lat="44.52748" lon="6.22296">
        <ele>1102.4000244141</ele>
        <time>2016-07-13T12:36:38.000Z</time>
      </trkpt>
      <trkpt lat="44.52753" lon="6.22294">
        <ele>1100.8000488281</ele>
        <time>2016-07-13T12:36:43.000Z</time>
      </trkpt>
      <trkpt lat="44.52761" lon="6.22288">
        <ele>1098</ele>
        <time>2016-07-13T12:36:50.000Z</time>
      </trkpt>
      <trkpt lat="44.52768" lon="6.22285">
        <ele>1096.4000244141</ele>
        <time>2016-07-13T12:36:57.000Z</time>
      </trkpt>
      <trkpt lat="44.52779" lon="6.22286">
        <ele>1094.4000244141</ele>
        <time>2016-07-13T12:37:05.000Z</time>
      </trkpt>
      <trkpt lat="44.52787" lon="6.22282">
        <ele>1092.4000244141</ele>
        <time>2016-07-13T12:37:12.000Z</time>
      </trkpt>
      <trkpt lat="44.52797" lon="6.22275">
        <ele>1089.8000488281</ele>
        <time>2016-07-13T12:37:21.000Z</time>
      </trkpt>
      <trkpt lat="44.5281" lon="6.22263">
        <ele>1086.4000244141</ele>
        <time>2016-07-13T12:37:33.000Z</time>
      </trkpt>
      <trkpt lat="44.5282" lon="6.22253">
        <ele>1083.5999755859</ele>
        <time>2016-07-13T12:37:43.000Z</time>
      </trkpt>
      <trkpt lat="44.52828" lon="6.22244">
        <ele>1081.1999511719</ele>
        <time>2016-07-13T12:37:51.000Z</time>
      </trkpt>
      <trkpt lat="44.52833" lon="6.2224">
        <ele>1080</ele>
        <time>2016-07-13T12:37:55.000Z</time>
      </trkpt>
      <trkpt lat="44.52836" lon="6.22238">
        <ele>1079.4000244141</ele>
        <time>2016-07-13T12:38:01.000Z</time>
      </trkpt>
      <trkpt lat="44.52845" lon="6.22232">
        <ele>1077</ele>
        <time>2016-07-13T12:38:09.000Z</time>
      </trkpt>
      <trkpt lat="44.52851" lon="6.22227">
        <ele>1075.1999511719</ele>
        <time>2016-07-13T12:38:15.000Z</time>
      </trkpt>
      <trkpt lat="44.52859" lon="6.22223">
        <ele>1073.1999511719</ele>
        <time>2016-07-13T12:38:21.000Z</time>
      </trkpt>
      <trkpt lat="44.52871" lon="6.22218">
        <ele>1070.4000244141</ele>
        <time>2016-07-13T12:38:31.000Z</time>
      </trkpt>
      <trkpt lat="44.52883" lon="6.2222">
        <ele>1067.8000488281</ele>
        <time>2016-07-13T12:38:41.000Z</time>
      </trkpt>
      <trkpt lat="44.52884" lon="6.22221">
        <ele>1067.5999755859</ele>
        <time>2016-07-13T12:38:42.000Z</time>
      </trkpt>
      <trkpt lat="44.52889" lon="6.22216">
        <ele>1066</ele>
        <time>2016-07-13T12:38:47.000Z</time>
      </trkpt>
      <trkpt lat="44.52893" lon="6.22204">
        <ele>1064.1999511719</ele>
        <time>2016-07-13T12:38:55.000Z</time>
      </trkpt>
      <trkpt lat="44.52898" lon="6.22194">
        <ele>1062.5999755859</ele>
        <time>2016-07-13T12:39:02.000Z</time>
      </trkpt>
      <trkpt lat="44.529" lon="6.22187">
        <ele>1061.5999755859</ele>
        <time>2016-07-13T12:39:09.000Z</time>
      </trkpt>
      <trkpt lat="44.52903" lon="6.22183">
        <ele>1060.5999755859</ele>
        <time>2016-07-13T12:39:14.000Z</time>
      </trkpt>
      <trkpt lat="44.52908" lon="6.22186">
        <ele>1059.8000488281</ele>
        <time>2016-07-13T12:39:18.000Z</time>
      </trkpt>
      <trkpt lat="44.52907" lon="6.22189">
        <ele>1060</ele>
        <time>2016-07-13T12:39:52.000Z</time>
      </trkpt>
      <trkpt lat="44.52908" lon="6.22193">
        <ele>1060</ele>
        <time>2016-07-13T12:39:58.000Z</time>
      </trkpt>
      <trkpt lat="44.5291" lon="6.222">
        <ele>1060</ele>
        <time>2016-07-13T12:40:30.000Z</time>
      </trkpt>
      <trkpt lat="44.5291" lon="6.22203">
        <ele>1060.1999511719</ele>
        <time>2016-07-13T12:40:36.000Z</time>
      </trkpt>
      <trkpt lat="44.5291" lon="6.222">
        <ele>1060</ele>
        <time>2016-07-13T12:40:50.000Z</time>
      </trkpt>
      <trkpt lat="44.5291" lon="6.22192">
        <ele>1059.5999755859</ele>
        <time>2016-07-13T12:40:55.000Z</time>
      </trkpt>
      <trkpt lat="44.52909" lon="6.22189">
        <ele>1059.4000244141</ele>
        <time>2016-07-13T12:41:00.000Z</time>
      </trkpt>
      <trkpt lat="44.52909" lon="6.22188">
        <ele>1059.5999755859</ele>
        <time>2016-07-13T12:41:01.000Z</time>
      </trkpt>
      <trkpt lat="44.52909" lon="6.22176">
        <ele>1059.4000244141</ele>
        <time>2016-07-13T12:41:07.000Z</time>
      </trkpt>
      <trkpt lat="44.52908" lon="6.22161">
        <ele>1059.1999511719</ele>
        <time>2016-07-13T12:41:15.000Z</time>
      </trkpt>
      <trkpt lat="44.52905" lon="6.22142">
        <ele>1059</ele>
        <time>2016-07-13T12:41:25.000Z</time>
      </trkpt>
      <trkpt lat="44.529" lon="6.22119">
        <ele>1055.5999755859</ele>
        <time>2016-07-13T12:41:37.000Z</time>
      </trkpt>
      <trkpt lat="44.52897" lon="6.22104">
        <ele>1053.4000244141</ele>
        <time>2016-07-13T12:41:45.000Z</time>
      </trkpt>
      <trkpt lat="44.52893" lon="6.2209">
        <ele>1051.4000244141</ele>
        <time>2016-07-13T12:41:53.000Z</time>
      </trkpt>
      <trkpt lat="44.52892" lon="6.22083">
        <ele>1050.4000244141</ele>
        <time>2016-07-13T12:41:59.000Z</time>
      </trkpt>
      <trkpt lat="44.52894" lon="6.2208">
        <ele>1049.5999755859</ele>
        <time>2016-07-13T12:42:04.000Z</time>
      </trkpt>
      <trkpt lat="44.52899" lon="6.22085">
        <ele>1049.5999755859</ele>
        <time>2016-07-13T12:42:10.000Z</time>
      </trkpt>
      <trkpt lat="44.529" lon="6.22086">
        <ele>1049.8000488281</ele>
        <time>2016-07-13T12:42:11.000Z</time>
      </trkpt>
      <trkpt lat="44.52909" lon="6.22098">
        <ele>1050.1999511719</ele>
        <time>2016-07-13T12:42:20.000Z</time>
      </trkpt>
      <trkpt lat="44.52919" lon="6.22112">
        <ele>1050.5999755859</ele>
        <time>2016-07-13T12:42:30.000Z</time>
      </trkpt>
      <trkpt lat="44.5293" lon="6.22127">
        <ele>1051.5999755859</ele>
        <time>2016-07-13T12:42:41.000Z</time>
      </trkpt>
      <trkpt lat="44.52934" lon="6.22134">
        <ele>1052</ele>
        <time>2016-07-13T12:42:46.000Z</time>
      </trkpt>
      <trkpt lat="44.5294" lon="6.22145">
        <ele>1052.8000488281</ele>
        <time>2016-07-13T12:42:53.000Z</time>
      </trkpt>
      <trkpt lat="44.52944" lon="6.22158">
        <ele>1052.4000244141</ele>
        <time>2016-07-13T12:43:01.000Z</time>
      </trkpt>
      <trkpt lat="44.52945" lon="6.22165">
        <ele>1052.4000244141</ele>
        <time>2016-07-13T12:43:05.000Z</time>
      </trkpt>
      <trkpt lat="44.52945" lon="6.22173">
        <ele>1052.4000244141</ele>
        <time>2016-07-13T12:43:10.000Z</time>
      </trkpt>
      <trkpt lat="44.52948" lon="6.22183">
        <ele>1052</ele>
        <time>2016-07-13T12:43:17.000Z</time>
      </trkpt>
      <trkpt lat="44.52954" lon="6.22194">
        <ele>1050.1999511719</ele>
        <time>2016-07-13T12:43:25.000Z</time>
      </trkpt>
      <trkpt lat="44.52965" lon="6.22202">
        <ele>1046.4000244141</ele>
        <time>2016-07-13T12:43:37.000Z</time>
      </trkpt>
      <trkpt lat="44.5297" lon="6.22201">
        <ele>1044.8000488281</ele>
        <time>2016-07-13T12:43:46.000Z</time>
      </trkpt>
      <trkpt lat="44.52973" lon="6.22203">
        <ele>1043.5999755859</ele>
        <time>2016-07-13T12:43:49.000Z</time>
      </trkpt>
      <trkpt lat="44.52974" lon="6.22208">
        <ele>1043.4000244141</ele>
        <time>2016-07-13T12:43:53.000Z</time>
      </trkpt>
      <trkpt lat="44.52973" lon="6.2221">
        <ele>1043.5999755859</ele>
        <time>2016-07-13T12:43:55.000Z</time>
      </trkpt>
      <trkpt lat="44.5297" lon="6.22219">
        <ele>1044.8000488281</ele>
        <time>2016-07-13T12:44:02.000Z</time>
      </trkpt>
      <trkpt lat="44.52965" lon="6.22228">
        <ele>1046.5999755859</ele>
        <time>2016-07-13T12:44:09.000Z</time>
      </trkpt>
      <trkpt lat="44.52963" lon="6.22232">
        <ele>1048</ele>
        <time>2016-07-13T12:44:12.000Z</time>
      </trkpt>
      <trkpt lat="44.52961" lon="6.22244">
        <ele>1049.1999511719</ele>
        <time>2016-07-13T12:44:19.000Z</time>
      </trkpt>
      <trkpt lat="44.5296" lon="6.2225">
        <ele>1048.4000244141</ele>
        <time>2016-07-13T12:44:23.000Z</time>
      </trkpt>
      <trkpt lat="44.5296" lon="6.22253">
        <ele>1048.1999511719</ele>
        <time>2016-07-13T12:44:25.000Z</time>
      </trkpt>
      <trkpt lat="44.52959" lon="6.22263">
        <ele>1047.4000244141</ele>
        <time>2016-07-13T12:44:31.000Z</time>
      </trkpt>
      <trkpt lat="44.52958" lon="6.22267">
        <ele>1047</ele>
        <time>2016-07-13T12:44:34.000Z</time>
      </trkpt>
      <trkpt lat="44.52957" lon="6.22272">
        <ele>1046.5999755859</ele>
        <time>2016-07-13T12:44:38.000Z</time>
      </trkpt>
      <trkpt lat="44.52955" lon="6.22279">
        <ele>1046</ele>
        <time>2016-07-13T12:44:42.000Z</time>
      </trkpt>
      <trkpt lat="44.52954" lon="6.22281">
        <ele>1046</ele>
        <time>2016-07-13T12:44:44.000Z</time>
      </trkpt>
      <trkpt lat="44.52953" lon="6.22289">
        <ele>1045.1999511719</ele>
        <time>2016-07-13T12:44:50.000Z</time>
      </trkpt>
      <trkpt lat="44.52953" lon="6.22291">
        <ele>1045</ele>
        <time>2016-07-13T12:44:51.000Z</time>
      </trkpt>
      <trkpt lat="44.52955" lon="6.22301">
        <ele>1043.5999755859</ele>
        <time>2016-07-13T12:44:57.000Z</time>
      </trkpt>
      <trkpt lat="44.52954" lon="6.22313">
        <ele>1043</ele>
        <time>2016-07-13T12:45:05.000Z</time>
      </trkpt>
      <trkpt lat="44.52954" lon="6.22315">
        <ele>1043.4000244141</ele>
        <time>2016-07-13T12:45:06.000Z</time>
      </trkpt>
      <trkpt lat="44.52954" lon="6.22319">
        <ele>1043.4000244141</ele>
        <time>2016-07-13T12:45:08.000Z</time>
      </trkpt>
      <trkpt lat="44.52953" lon="6.22326">
        <ele>1043.4000244141</ele>
        <time>2016-07-13T12:45:12.000Z</time>
      </trkpt>
      <trkpt lat="44.52952" lon="6.22332">
        <ele>1043.1999511719</ele>
        <time>2016-07-13T12:45:16.000Z</time>
      </trkpt>
      <trkpt lat="44.52952" lon="6.22338">
        <ele>1043.1999511719</ele>
        <time>2016-07-13T12:45:19.000Z</time>
      </trkpt>
      <trkpt lat="44.52955" lon="6.22345">
        <ele>1043.5999755859</ele>
        <time>2016-07-13T12:45:25.000Z</time>
      </trkpt>
      <trkpt lat="44.52956" lon="6.22346">
        <ele>1043.5999755859</ele>
        <time>2016-07-13T12:45:26.000Z</time>
      </trkpt>
      <trkpt lat="44.5296" lon="6.2235">
        <ele>1044.1999511719</ele>
        <time>2016-07-13T12:45:31.000Z</time>
      </trkpt>
      <trkpt lat="44.5296" lon="6.22354">
        <ele>1044</ele>
        <time>2016-07-13T12:45:42.000Z</time>
      </trkpt>
      <trkpt lat="44.5296" lon="6.22353">
        <ele>1044.1999511719</ele>
        <time>2016-07-13T12:45:50.000Z</time>
      </trkpt>
      <trkpt lat="44.5296" lon="6.22355">
        <ele>1044</ele>
        <time>2016-07-13T12:45:55.000Z</time>
      </trkpt>
      <trkpt lat="44.52958" lon="6.22361">
        <ele>1043.8000488281</ele>
        <time>2016-07-13T12:46:01.000Z</time>
      </trkpt>
      <trkpt lat="44.52956" lon="6.2236">
        <ele>1043.5999755859</ele>
        <time>2016-07-13T12:46:07.000Z</time>
      </trkpt>
      <trkpt lat="44.52957" lon="6.22357">
        <ele>1043.8000488281</ele>
        <time>2016-07-13T12:46:10.000Z</time>
      </trkpt>
      <trkpt lat="44.52958" lon="6.22354">
        <ele>1043.8000488281</ele>
        <time>2016-07-13T12:46:17.000Z</time>
      </trkpt>
      <trkpt lat="44.52954" lon="6.22355">
        <ele>1043.4000244141</ele>
        <time>2016-07-13T12:46:27.000Z</time>
      </trkpt>
      <trkpt lat="44.52947" lon="6.22349">
        <ele>1044.4000244141</ele>
        <time>2016-07-13T12:47:01.000Z</time>
      </trkpt>
      <trkpt lat="44.52948" lon="6.22349">
        <ele>1044</ele>
        <time>2016-07-13T12:47:08.000Z</time>
      </trkpt>
      <trkpt lat="44.52953" lon="6.22345">
        <ele>1043.4000244141</ele>
        <time>2016-07-13T12:47:13.000Z</time>
      </trkpt>
      <trkpt lat="44.52961" lon="6.22338">
        <ele>1044.1999511719</ele>
        <time>2016-07-13T12:47:20.000Z</time>
      </trkpt>
      <trkpt lat="44.52965" lon="6.22335">
        <ele>1044.8000488281</ele>
        <time>2016-07-13T12:47:23.000Z</time>
      </trkpt>
      <trkpt lat="44.5297" lon="6.22331">
        <ele>1045.1999511719</ele>
        <time>2016-07-13T12:47:28.000Z</time>
      </trkpt>
      <trkpt lat="44.52978" lon="6.22325">
        <ele>1042.8000488281</ele>
        <time>2016-07-13T12:47:35.000Z</time>
      </trkpt>
      <trkpt lat="44.52987" lon="6.22319">
        <ele>1040.1999511719</ele>
        <time>2016-07-13T12:47:43.000Z</time>
      </trkpt>
      <trkpt lat="44.52994" lon="6.22313">
        <ele>1038</ele>
        <time>2016-07-13T12:47:50.000Z</time>
      </trkpt>
      <trkpt lat="44.53" lon="6.22303">
        <ele>1038</ele>
        <time>2016-07-13T12:47:57.000Z</time>
      </trkpt>
      <trkpt lat="44.53001" lon="6.22303">
        <ele>1038</ele>
        <time>2016-07-13T12:47:58.000Z</time>
      </trkpt>
      <trkpt lat="44.53004" lon="6.22304">
        <ele>1037.4000244141</ele>
        <time>2016-07-13T12:48:16.000Z</time>
      </trkpt>
      <trkpt lat="44.53013" lon="6.223">
        <ele>1036.8000488281</ele>
        <time>2016-07-13T12:48:23.000Z</time>
      </trkpt>
      <trkpt lat="44.5302" lon="6.22298">
        <ele>1036.1999511719</ele>
        <time>2016-07-13T12:48:28.000Z</time>
      </trkpt>
      <trkpt lat="44.5303" lon="6.2229">
        <ele>1031.4000244141</ele>
        <time>2016-07-13T12:48:36.000Z</time>
      </trkpt>
      <trkpt lat="44.53043" lon="6.2228">
        <ele>1029</ele>
        <time>2016-07-13T12:48:45.000Z</time>
      </trkpt>
      <trkpt lat="44.53052" lon="6.22271">
        <ele>1028</ele>
        <time>2016-07-13T12:48:53.000Z</time>
      </trkpt>
      <trkpt lat="44.53059" lon="6.22265">
        <ele>1027.4000244141</ele>
        <time>2016-07-13T12:48:58.000Z</time>
      </trkpt>
      <trkpt lat="44.53065" lon="6.2226">
        <ele>1026.8000488281</ele>
        <time>2016-07-13T12:49:03.000Z</time>
      </trkpt>
      <trkpt lat="44.53073" lon="6.2226">
        <ele>1026.5999755859</ele>
        <time>2016-07-13T12:49:10.000Z</time>
      </trkpt>
      <trkpt lat="44.53075" lon="6.22261">
        <ele>1026.5999755859</ele>
        <time>2016-07-13T12:49:11.000Z</time>
      </trkpt>
      <trkpt lat="44.53079" lon="6.22262">
        <ele>1026.8000488281</ele>
        <time>2016-07-13T12:49:16.000Z</time>
      </trkpt>
      <trkpt lat="44.5309" lon="6.22267">
        <ele>1027.1999511719</ele>
        <time>2016-07-13T12:49:23.000Z</time>
      </trkpt>
      <trkpt lat="44.53096" lon="6.2227">
        <ele>1027.4000244141</ele>
        <time>2016-07-13T12:49:29.000Z</time>
      </trkpt>
      <trkpt lat="44.53101" lon="6.22274">
        <ele>1028</ele>
        <time>2016-07-13T12:49:42.000Z</time>
      </trkpt>
      <trkpt lat="44.53116" lon="6.22277">
        <ele>1027.8000488281</ele>
        <time>2016-07-13T12:49:52.000Z</time>
      </trkpt>
      <trkpt lat="44.53128" lon="6.22274">
        <ele>1027</ele>
        <time>2016-07-13T12:50:01.000Z</time>
      </trkpt>
      <trkpt lat="44.53138" lon="6.22268">
        <ele>1025.4000244141</ele>
        <time>2016-07-13T12:50:08.000Z</time>
      </trkpt>
      <trkpt lat="44.53148" lon="6.22261">
        <ele>1023.799987793</ele>
        <time>2016-07-13T12:50:16.000Z</time>
      </trkpt>
      <trkpt lat="44.53191" lon="6.22246">
        <ele>1022.4000244141</ele>
        <time>2016-07-13T12:50:46.000Z</time>
      </trkpt>
      <trkpt lat="44.53203" lon="6.22244">
        <ele>1022.4000244141</ele>
        <time>2016-07-13T12:50:55.000Z</time>
      </trkpt>
      <trkpt lat="44.53214" lon="6.22248">
        <ele>1022.799987793</ele>
        <time>2016-07-13T12:51:03.000Z</time>
      </trkpt>
      <trkpt lat="44.53223" lon="6.22247">
        <ele>1022.5999755859</ele>
        <time>2016-07-13T12:51:10.000Z</time>
      </trkpt>
      <trkpt lat="44.53233" lon="6.22243">
        <ele>1022</ele>
        <time>2016-07-13T12:51:17.000Z</time>
      </trkpt>
      <trkpt lat="44.53243" lon="6.22238">
        <ele>1021.4000244141</ele>
        <time>2016-07-13T12:51:24.000Z</time>
      </trkpt>
      <trkpt lat="44.5326" lon="6.22234">
        <ele>1020.799987793</ele>
        <time>2016-07-13T12:51:36.000Z</time>
      </trkpt>
      <trkpt lat="44.53276" lon="6.22238">
        <ele>1021.4000244141</ele>
        <time>2016-07-13T12:51:47.000Z</time>
      </trkpt>
      <trkpt lat="44.53292" lon="6.22248">
        <ele>1022</ele>
        <time>2016-07-13T12:51:59.000Z</time>
      </trkpt>
      <trkpt lat="44.53307" lon="6.22259">
        <ele>1021.799987793</ele>
        <time>2016-07-13T12:52:11.000Z</time>
      </trkpt>
      <trkpt lat="44.53318" lon="6.22267">
        <ele>1021.799987793</ele>
        <time>2016-07-13T12:52:20.000Z</time>
      </trkpt>
      <trkpt lat="44.53332" lon="6.2228">
        <ele>1022.200012207</ele>
        <time>2016-07-13T12:52:32.000Z</time>
      </trkpt>
      <trkpt lat="44.53342" lon="6.22295">
        <ele>1023.200012207</ele>
        <time>2016-07-13T12:52:43.000Z</time>
      </trkpt>
      <trkpt lat="44.53348" lon="6.22309">
        <ele>1024.5999755859</ele>
        <time>2016-07-13T12:52:52.000Z</time>
      </trkpt>
      <trkpt lat="44.53358" lon="6.22322">
        <ele>1023.799987793</ele>
        <time>2016-07-13T12:53:01.000Z</time>
      </trkpt>
      <trkpt lat="44.53363" lon="6.22325">
        <ele>1023.4000244141</ele>
        <time>2016-07-13T12:53:04.000Z</time>
      </trkpt>
      <trkpt lat="44.53368" lon="6.22325">
        <ele>1022.799987793</ele>
        <time>2016-07-13T12:53:10.000Z</time>
      </trkpt>
      <trkpt lat="44.53382" lon="6.22325">
        <ele>1020.5999755859</ele>
        <time>2016-07-13T12:53:20.000Z</time>
      </trkpt>
      <trkpt lat="44.5342" lon="6.22312">
        <ele>1014.799987793</ele>
        <time>2016-07-13T12:53:49.000Z</time>
      </trkpt>
      <trkpt lat="44.53435" lon="6.2231">
        <ele>1012.4000244141</ele>
        <time>2016-07-13T12:54:00.000Z</time>
      </trkpt>
      <trkpt lat="44.53446" lon="6.2231">
        <ele>1010.5999755859</ele>
        <time>2016-07-13T12:54:08.000Z</time>
      </trkpt>
      <trkpt lat="44.53458" lon="6.22307">
        <ele>1009</ele>
        <time>2016-07-13T12:54:18.000Z</time>
      </trkpt>
      <trkpt lat="44.53467" lon="6.22294">
        <ele>1008.4000244141</ele>
        <time>2016-07-13T12:54:28.000Z</time>
      </trkpt>
      <trkpt lat="44.53469" lon="6.22281">
        <ele>1008.5999755859</ele>
        <time>2016-07-13T12:54:36.000Z</time>
      </trkpt>
      <trkpt lat="44.5347" lon="6.2228">
        <ele>1008.5999755859</ele>
        <time>2016-07-13T12:54:37.000Z</time>
      </trkpt>
      <trkpt lat="44.53472" lon="6.22269">
        <ele>1008.799987793</ele>
        <time>2016-07-13T12:54:44.000Z</time>
      </trkpt>
      <trkpt lat="44.53473" lon="6.22265">
        <ele>1008.799987793</ele>
        <time>2016-07-13T12:54:46.000Z</time>
      </trkpt>
      <trkpt lat="44.53473" lon="6.2226">
        <ele>1009</ele>
        <time>2016-07-13T12:54:49.000Z</time>
      </trkpt>
      <trkpt lat="44.53473" lon="6.22245">
        <ele>1009.799987793</ele>
        <time>2016-07-13T12:54:57.000Z</time>
      </trkpt>
      <trkpt lat="44.53472" lon="6.22234">
        <ele>1010.200012207</ele>
        <time>2016-07-13T12:55:03.000Z</time>
      </trkpt>
      <trkpt lat="44.53473" lon="6.2223">
        <ele>1010.200012207</ele>
        <time>2016-07-13T12:55:05.000Z</time>
      </trkpt>
      <trkpt lat="44.53472" lon="6.2222">
        <ele>1011.200012207</ele>
        <time>2016-07-13T12:55:10.000Z</time>
      </trkpt>
      <trkpt lat="44.53469" lon="6.222">
        <ele>1013.5999755859</ele>
        <time>2016-07-13T12:55:20.000Z</time>
      </trkpt>
      <trkpt lat="44.53468" lon="6.22194">
        <ele>1014.4000244141</ele>
        <time>2016-07-13T12:55:23.000Z</time>
      </trkpt>
      <trkpt lat="44.53472" lon="6.2218">
        <ele>1015</ele>
        <time>2016-07-13T12:55:31.000Z</time>
      </trkpt>
      <trkpt lat="44.53476" lon="6.22162">
        <ele>1015</ele>
        <time>2016-07-13T12:55:41.000Z</time>
      </trkpt>
      <trkpt lat="44.53478" lon="6.22147">
        <ele>1014</ele>
        <time>2016-07-13T12:55:49.000Z</time>
      </trkpt>
      <trkpt lat="44.53486" lon="6.22131">
        <ele>1011.5999755859</ele>
        <time>2016-07-13T12:55:59.000Z</time>
      </trkpt>
      <trkpt lat="44.53495" lon="6.22117">
        <ele>1009.4000244141</ele>
        <time>2016-07-13T12:56:08.000Z</time>
      </trkpt>
      <trkpt lat="44.53502" lon="6.22103">
        <ele>1007.799987793</ele>
        <time>2016-07-13T12:56:17.000Z</time>
      </trkpt>
      <trkpt lat="44.535" lon="6.22087">
        <ele>1008.799987793</ele>
        <time>2016-07-13T12:56:25.000Z</time>
      </trkpt>
      <trkpt lat="44.53498" lon="6.2207">
        <ele>1009.5999755859</ele>
        <time>2016-07-13T12:56:33.000Z</time>
      </trkpt>
      <trkpt lat="44.535" lon="6.22061">
        <ele>1009.200012207</ele>
        <time>2016-07-13T12:56:38.000Z</time>
      </trkpt>
      <trkpt lat="44.53504" lon="6.22051">
        <ele>1006.799987793</ele>
        <time>2016-07-13T12:56:44.000Z</time>
      </trkpt>
      <trkpt lat="44.53507" lon="6.22044">
        <ele>1005.4000244141</ele>
        <time>2016-07-13T12:56:48.000Z</time>
      </trkpt>
      <trkpt lat="44.53509" lon="6.22025">
        <ele>1004.200012207</ele>
        <time>2016-07-13T12:56:58.000Z</time>
      </trkpt>
      <trkpt lat="44.5351" lon="6.22021">
        <ele>1004.200012207</ele>
        <time>2016-07-13T12:57:01.000Z</time>
      </trkpt>
      <trkpt lat="44.53515" lon="6.2201">
        <ele>1003.4000244141</ele>
        <time>2016-07-13T12:57:08.000Z</time>
      </trkpt>
      <trkpt lat="44.53515" lon="6.22008">
        <ele>1003.200012207</ele>
        <time>2016-07-13T12:57:09.000Z</time>
      </trkpt>
      <trkpt lat="44.53519" lon="6.21994">
        <ele>1002.5999755859</ele>
        <time>2016-07-13T12:57:17.000Z</time>
      </trkpt>
      <trkpt lat="44.5352" lon="6.21983">
        <ele>1002.5999755859</ele>
        <time>2016-07-13T12:57:23.000Z</time>
      </trkpt>
      <trkpt lat="44.53521" lon="6.21975">
        <ele>1001.4000244141</ele>
        <time>2016-07-13T12:57:27.000Z</time>
      </trkpt>
      <trkpt lat="44.53523" lon="6.21956">
        <ele>997.59997558594</ele>
        <time>2016-07-13T12:57:36.000Z</time>
      </trkpt>
      <trkpt lat="44.53522" lon="6.21942">
        <ele>995.40002441406</ele>
        <time>2016-07-13T12:57:42.000Z</time>
      </trkpt>
      <trkpt lat="44.53522" lon="6.21941">
        <ele>995</ele>
        <time>2016-07-13T12:57:43.000Z</time>
      </trkpt>
      <trkpt lat="44.5352" lon="6.21934">
        <ele>994.20001220703</ele>
        <time>2016-07-13T12:57:47.000Z</time>
      </trkpt>
      <trkpt lat="44.53514" lon="6.21921">
        <ele>992.59997558594</ele>
        <time>2016-07-13T12:57:55.000Z</time>
      </trkpt>
      <trkpt lat="44.53503" lon="6.21907">
        <ele>991.79998779297</ele>
        <time>2016-07-13T12:58:05.000Z</time>
      </trkpt>
      <trkpt lat="44.53492" lon="6.219">
        <ele>991.79998779297</ele>
        <time>2016-07-13T12:58:14.000Z</time>
      </trkpt>
      <trkpt lat="44.53484" lon="6.21892">
        <ele>991</ele>
        <time>2016-07-13T12:58:21.000Z</time>
      </trkpt>
      <trkpt lat="44.53483" lon="6.2189">
        <ele>990.40002441406</ele>
        <time>2016-07-13T12:58:22.000Z</time>
      </trkpt>
      <trkpt lat="44.53487" lon="6.21881">
        <ele>987</ele>
        <time>2016-07-13T12:58:28.000Z</time>
      </trkpt>
      <trkpt lat="44.53496" lon="6.21883">
        <ele>986.40002441406</ele>
        <time>2016-07-13T12:58:34.000Z</time>
      </trkpt>
      <trkpt lat="44.535" lon="6.21886">
        <ele>987</ele>
        <time>2016-07-13T12:58:41.000Z</time>
      </trkpt>
      <trkpt lat="44.53502" lon="6.21889">
        <ele>987.79998779297</ele>
        <time>2016-07-13T12:59:37.000Z</time>
      </trkpt>
      <trkpt lat="44.53511" lon="6.21895">
        <ele>988.59997558594</ele>
        <time>2016-07-13T12:59:44.000Z</time>
      </trkpt>
      <trkpt lat="44.53525" lon="6.21901">
        <ele>988</ele>
        <time>2016-07-13T12:59:55.000Z</time>
      </trkpt>
      <trkpt lat="44.53536" lon="6.21907">
        <ele>987.20001220703</ele>
        <time>2016-07-13T13:00:04.000Z</time>
      </trkpt>
      <trkpt lat="44.53544" lon="6.21915">
        <ele>986</ele>
        <time>2016-07-13T13:00:11.000Z</time>
      </trkpt>
      <trkpt lat="44.53552" lon="6.21926">
        <ele>985.20001220703</ele>
        <time>2016-07-13T13:00:19.000Z</time>
      </trkpt>
      <trkpt lat="44.53563" lon="6.21939">
        <ele>983.79998779297</ele>
        <time>2016-07-13T13:00:29.000Z</time>
      </trkpt>
      <trkpt lat="44.5357" lon="6.2195">
        <ele>983.59997558594</ele>
        <time>2016-07-13T13:00:36.000Z</time>
      </trkpt>
      <trkpt lat="44.53578" lon="6.21966">
        <ele>983.79998779297</ele>
        <time>2016-07-13T13:00:46.000Z</time>
      </trkpt>
      <trkpt lat="44.53585" lon="6.21976">
        <ele>983</ele>
        <time>2016-07-13T13:00:54.000Z</time>
      </trkpt>
      <trkpt lat="44.53592" lon="6.21981">
        <ele>981.20001220703</ele>
        <time>2016-07-13T13:01:00.000Z</time>
      </trkpt>
      <trkpt lat="44.53601" lon="6.21984">
        <ele>978.20001220703</ele>
        <time>2016-07-13T13:01:07.000Z</time>
      </trkpt>
      <trkpt lat="44.5361" lon="6.21985">
        <ele>975.20001220703</ele>
        <time>2016-07-13T13:01:14.000Z</time>
      </trkpt>
      <trkpt lat="44.53622" lon="6.21983">
        <ele>971.79998779297</ele>
        <time>2016-07-13T13:01:23.000Z</time>
      </trkpt>
      <trkpt lat="44.53636" lon="6.21983">
        <ele>969</ele>
        <time>2016-07-13T13:01:33.000Z</time>
      </trkpt>
      <trkpt lat="44.53652" lon="6.21983">
        <ele>965.40002441406</ele>
        <time>2016-07-13T13:01:45.000Z</time>
      </trkpt>
      <trkpt lat="44.53663" lon="6.2198">
        <ele>963.40002441406</ele>
        <time>2016-07-13T13:01:53.000Z</time>
      </trkpt>
      <trkpt lat="44.5367" lon="6.21972">
        <ele>961.79998779297</ele>
        <time>2016-07-13T13:02:00.000Z</time>
      </trkpt>
      <trkpt lat="44.53677" lon="6.2196">
        <ele>959.59997558594</ele>
        <time>2016-07-13T13:02:08.000Z</time>
      </trkpt>
      <trkpt lat="44.53681" lon="6.21945">
        <ele>959.59997558594</ele>
        <time>2016-07-13T13:02:16.000Z</time>
      </trkpt>
      <trkpt lat="44.53683" lon="6.21933">
        <ele>959.79998779297</ele>
        <time>2016-07-13T13:02:23.000Z</time>
      </trkpt>
      <trkpt lat="44.53686" lon="6.21931">
        <ele>959.59997558594</ele>
        <time>2016-07-13T13:02:26.000Z</time>
      </trkpt>
      <trkpt lat="44.53691" lon="6.21945">
        <ele>958.59997558594</ele>
        <time>2016-07-13T13:02:34.000Z</time>
      </trkpt>
      <trkpt lat="44.53694" lon="6.2196">
        <ele>957.59997558594</ele>
        <time>2016-07-13T13:02:42.000Z</time>
      </trkpt>
      <trkpt lat="44.53695" lon="6.21963">
        <ele>957.20001220703</ele>
        <time>2016-07-13T13:02:44.000Z</time>
      </trkpt>
      <trkpt lat="44.53693" lon="6.2198">
        <ele>957.40002441406</ele>
        <time>2016-07-13T13:02:53.000Z</time>
      </trkpt>
      <trkpt lat="44.53688" lon="6.21996">
        <ele>957.20001220703</ele>
        <time>2016-07-13T13:03:02.000Z</time>
      </trkpt>
      <trkpt lat="44.53681" lon="6.2201">
        <ele>957.40002441406</ele>
        <time>2016-07-13T13:03:11.000Z</time>
      </trkpt>
      <trkpt lat="44.53673" lon="6.22019">
        <ele>958.20001220703</ele>
        <time>2016-07-13T13:03:19.000Z</time>
      </trkpt>
      <trkpt lat="44.53663" lon="6.22024">
        <ele>960</ele>
        <time>2016-07-13T13:03:28.000Z</time>
      </trkpt>
      <trkpt lat="44.53656" lon="6.22025">
        <ele>961.59997558594</ele>
        <time>2016-07-13T13:03:32.000Z</time>
      </trkpt>
      <trkpt lat="44.53655" lon="6.22028">
        <ele>961.79998779297</ele>
        <time>2016-07-13T13:03:34.000Z</time>
      </trkpt>
      <trkpt lat="44.53661" lon="6.22051">
        <ele>959.79998779297</ele>
        <time>2016-07-13T13:03:48.000Z</time>
      </trkpt>
      <trkpt lat="44.53661" lon="6.22064">
        <ele>959.59997558594</ele>
        <time>2016-07-13T13:03:55.000Z</time>
      </trkpt>
      <trkpt lat="44.53659" lon="6.22077">
        <ele>961.20001220703</ele>
        <time>2016-07-13T13:04:02.000Z</time>
      </trkpt>
      <trkpt lat="44.53659" lon="6.22086">
        <ele>961.59997558594</ele>
        <time>2016-07-13T13:04:07.000Z</time>
      </trkpt>
      <trkpt lat="44.53661" lon="6.22089">
        <ele>961.40002441406</ele>
        <time>2016-07-13T13:04:10.000Z</time>
      </trkpt>
      <trkpt lat="44.53665" lon="6.22086">
        <ele>960.20001220703</ele>
        <time>2016-07-13T13:04:14.000Z</time>
      </trkpt>
      <trkpt lat="44.53666" lon="6.2208">
        <ele>959.40002441406</ele>
        <time>2016-07-13T13:04:19.000Z</time>
      </trkpt>
      <trkpt lat="44.53674" lon="6.2207">
        <ele>956.59997558594</ele>
        <time>2016-07-13T13:04:37.000Z</time>
      </trkpt>
      <trkpt lat="44.53685" lon="6.22061">
        <ele>953.20001220703</ele>
        <time>2016-07-13T13:04:47.000Z</time>
      </trkpt>
      <trkpt lat="44.53692" lon="6.22054">
        <ele>951.59997558594</ele>
        <time>2016-07-13T13:04:54.000Z</time>
      </trkpt>
      <trkpt lat="44.53697" lon="6.22047">
        <ele>951</ele>
        <time>2016-07-13T13:04:59.000Z</time>
      </trkpt>
      <trkpt lat="44.53701" lon="6.22043">
        <ele>950.59997558594</ele>
        <time>2016-07-13T13:05:03.000Z</time>
      </trkpt>
      <trkpt lat="44.53712" lon="6.22045">
        <ele>950</ele>
        <time>2016-07-13T13:05:11.000Z</time>
      </trkpt>
      <trkpt lat="44.53714" lon="6.22045">
        <ele>950</ele>
        <time>2016-07-13T13:05:12.000Z</time>
      </trkpt>
      <trkpt lat="44.53716" lon="6.22045">
        <ele>949.79998779297</ele>
        <time>2016-07-13T13:05:15.000Z</time>
      </trkpt>
      <trkpt lat="44.53718" lon="6.22047">
        <ele>949.59997558594</ele>
        <time>2016-07-13T13:05:20.000Z</time>
      </trkpt>
      <trkpt lat="44.53721" lon="6.22046">
        <ele>949.59997558594</ele>
        <time>2016-07-13T13:05:24.000Z</time>
      </trkpt>
      <trkpt lat="44.53722" lon="6.22045">
        <ele>949.59997558594</ele>
        <time>2016-07-13T13:05:34.000Z</time>
      </trkpt>
      <trkpt lat="44.53726" lon="6.22045">
        <ele>949.59997558594</ele>
        <time>2016-07-13T13:05:52.000Z</time>
      </trkpt>
      <trkpt lat="44.53727" lon="6.22045">
        <ele>949.40002441406</ele>
        <time>2016-07-13T13:05:53.000Z</time>
      </trkpt>
      <trkpt lat="44.53732" lon="6.22044">
        <ele>949.40002441406</ele>
        <time>2016-07-13T13:05:56.000Z</time>
      </trkpt>
      <trkpt lat="44.53747" lon="6.2204">
        <ele>949.20001220703</ele>
        <time>2016-07-13T13:06:07.000Z</time>
      </trkpt>
      <trkpt lat="44.53759" lon="6.22035">
        <ele>949</ele>
        <time>2016-07-13T13:06:16.000Z</time>
      </trkpt>
      <trkpt lat="44.53772" lon="6.2203">
        <ele>946.79998779297</ele>
        <time>2016-07-13T13:06:26.000Z</time>
      </trkpt>
      <trkpt lat="44.53781" lon="6.22037">
        <ele>945.59997558594</ele>
        <time>2016-07-13T13:06:41.000Z</time>
      </trkpt>
      <trkpt lat="44.53786" lon="6.22039">
        <ele>945.20001220703</ele>
        <time>2016-07-13T13:06:47.000Z</time>
      </trkpt>
      <trkpt lat="44.53796" lon="6.22031">
        <ele>944.79998779297</ele>
        <time>2016-07-13T13:06:55.000Z</time>
      </trkpt>
      <trkpt lat="44.53808" lon="6.22018">
        <ele>944.20001220703</ele>
        <time>2016-07-13T13:07:05.000Z</time>
      </trkpt>
      <trkpt lat="44.53816" lon="6.22004">
        <ele>943.59997558594</ele>
        <time>2016-07-13T13:07:14.000Z</time>
      </trkpt>
      <trkpt lat="44.53819" lon="6.22">
        <ele>943.40002441406</ele>
        <time>2016-07-13T13:07:19.000Z</time>
      </trkpt>
      <trkpt lat="44.53829" lon="6.21988">
        <ele>942.79998779297</ele>
        <time>2016-07-13T13:07:28.000Z</time>
      </trkpt>
      <trkpt lat="44.53834" lon="6.21978">
        <ele>942.40002441406</ele>
        <time>2016-07-13T13:07:35.000Z</time>
      </trkpt>
      <trkpt lat="44.53841" lon="6.21961">
        <ele>942</ele>
        <time>2016-07-13T13:07:45.000Z</time>
      </trkpt>
      <trkpt lat="44.5385" lon="6.21949">
        <ele>941.40002441406</ele>
        <time>2016-07-13T13:07:54.000Z</time>
      </trkpt>
      <trkpt lat="44.53858" lon="6.21944">
        <ele>940.79998779297</ele>
        <time>2016-07-13T13:08:01.000Z</time>
      </trkpt>
      <trkpt lat="44.53862" lon="6.21944">
        <ele>940.59997558594</ele>
        <time>2016-07-13T13:08:04.000Z</time>
      </trkpt>
      <trkpt lat="44.53867" lon="6.21943">
        <ele>940.20001220703</ele>
        <time>2016-07-13T13:08:08.000Z</time>
      </trkpt>
      <trkpt lat="44.53871" lon="6.21941">
        <ele>939.40002441406</ele>
        <time>2016-07-13T13:08:16.000Z</time>
      </trkpt>
      <trkpt lat="44.5388" lon="6.21941">
        <ele>937.59997558594</ele>
        <time>2016-07-13T13:08:23.000Z</time>
      </trkpt>
      <trkpt lat="44.5389" lon="6.21946">
        <ele>935.79998779297</ele>
        <time>2016-07-13T13:08:31.000Z</time>
      </trkpt>
      <trkpt lat="44.53898" lon="6.21951">
        <ele>934.40002441406</ele>
        <time>2016-07-13T13:08:38.000Z</time>
      </trkpt>
      <trkpt lat="44.53914" lon="6.21964">
        <ele>931.79998779297</ele>
        <time>2016-07-13T13:08:52.000Z</time>
      </trkpt>
      <trkpt lat="44.53921" lon="6.21975">
        <ele>930.79998779297</ele>
        <time>2016-07-13T13:09:01.000Z</time>
      </trkpt>
      <trkpt lat="44.53924" lon="6.21988">
        <ele>930.20001220703</ele>
        <time>2016-07-13T13:09:09.000Z</time>
      </trkpt>
      <trkpt lat="44.53924" lon="6.22003">
        <ele>930</ele>
        <time>2016-07-13T13:09:17.000Z</time>
      </trkpt>
      <trkpt lat="44.53926" lon="6.22029">
        <ele>928.79998779297</ele>
        <time>2016-07-13T13:09:32.000Z</time>
      </trkpt>
      <trkpt lat="44.53927" lon="6.22031">
        <ele>928.59997558594</ele>
        <time>2016-07-13T13:09:33.000Z</time>
      </trkpt>
      <trkpt lat="44.53929" lon="6.22045">
        <ele>928</ele>
        <time>2016-07-13T13:09:41.000Z</time>
      </trkpt>
      <trkpt lat="44.53931" lon="6.22058">
        <ele>928</ele>
        <time>2016-07-13T13:09:48.000Z</time>
      </trkpt>
      <trkpt lat="44.53931" lon="6.22071">
        <ele>929.40002441406</ele>
        <time>2016-07-13T13:09:55.000Z</time>
      </trkpt>
      <trkpt lat="44.53936" lon="6.22084">
        <ele>929.79998779297</ele>
        <time>2016-07-13T13:10:03.000Z</time>
      </trkpt>
      <trkpt lat="44.53942" lon="6.22095">
        <ele>930.20001220703</ele>
        <time>2016-07-13T13:10:11.000Z</time>
      </trkpt>
      <trkpt lat="44.53947" lon="6.22108">
        <ele>930.40002441406</ele>
        <time>2016-07-13T13:10:19.000Z</time>
      </trkpt>
      <trkpt lat="44.53954" lon="6.22119">
        <ele>930.20001220703</ele>
        <time>2016-07-13T13:10:28.000Z</time>
      </trkpt>
      <trkpt lat="44.53976" lon="6.22151">
        <ele>927.20001220703</ele>
        <time>2016-07-13T13:10:54.000Z</time>
      </trkpt>
      <trkpt lat="44.53981" lon="6.2216">
        <ele>926.40002441406</ele>
        <time>2016-07-13T13:11:01.000Z</time>
      </trkpt>
      <trkpt lat="44.53989" lon="6.2217">
        <ele>924.40002441406</ele>
        <time>2016-07-13T13:11:09.000Z</time>
      </trkpt>
      <trkpt lat="44.53999" lon="6.22173">
        <ele>921.40002441406</ele>
        <time>2016-07-13T13:11:17.000Z</time>
      </trkpt>
      <trkpt lat="44.54011" lon="6.22175">
        <ele>917.59997558594</ele>
        <time>2016-07-13T13:11:27.000Z</time>
      </trkpt>
      <trkpt lat="44.54019" lon="6.22182">
        <ele>915.40002441406</ele>
        <time>2016-07-13T13:11:35.000Z</time>
      </trkpt>
      <trkpt lat="44.5403" lon="6.22189">
        <ele>912.40002441406</ele>
        <time>2016-07-13T13:11:44.000Z</time>
      </trkpt>
      <trkpt lat="44.54039" lon="6.22199">
        <ele>911</ele>
        <time>2016-07-13T13:11:53.000Z</time>
      </trkpt>
      <trkpt lat="44.5404" lon="6.2221">
        <ele>912</ele>
        <time>2016-07-13T13:11:59.000Z</time>
      </trkpt>
      <trkpt lat="44.54038" lon="6.22218">
        <ele>913.20001220703</ele>
        <time>2016-07-13T13:12:04.000Z</time>
      </trkpt>
      <trkpt lat="44.54043" lon="6.22227">
        <ele>913</ele>
        <time>2016-07-13T13:12:11.000Z</time>
      </trkpt>
      <trkpt lat="44.54054" lon="6.22226">
        <ele>910.79998779297</ele>
        <time>2016-07-13T13:12:19.000Z</time>
      </trkpt>
      <trkpt lat="44.54055" lon="6.22225">
        <ele>910.40002441406</ele>
        <time>2016-07-13T13:12:20.000Z</time>
      </trkpt>
      <trkpt lat="44.54063" lon="6.22225">
        <ele>908.59997558594</ele>
        <time>2016-07-13T13:12:27.000Z</time>
      </trkpt>
      <trkpt lat="44.5407" lon="6.22221">
        <ele>906.79998779297</ele>
        <time>2016-07-13T13:12:34.000Z</time>
      </trkpt>
      <trkpt lat="44.54077" lon="6.22226">
        <ele>906</ele>
        <time>2016-07-13T13:12:42.000Z</time>
      </trkpt>
      <trkpt lat="44.54078" lon="6.22237">
        <ele>906.79998779297</ele>
        <time>2016-07-13T13:12:48.000Z</time>
      </trkpt>
      <trkpt lat="44.54078" lon="6.2224">
        <ele>907</ele>
        <time>2016-07-13T13:12:50.000Z</time>
      </trkpt>
      <trkpt lat="44.54079" lon="6.22245">
        <ele>907.20001220703</ele>
        <time>2016-07-13T13:12:57.000Z</time>
      </trkpt>
      <trkpt lat="44.54079" lon="6.22242">
        <ele>907</ele>
        <time>2016-07-13T13:13:29.000Z</time>
      </trkpt>
      <trkpt lat="44.54078" lon="6.22243">
        <ele>907.20001220703</ele>
        <time>2016-07-13T13:13:35.000Z</time>
      </trkpt>
      <trkpt lat="44.5408" lon="6.22247">
        <ele>907.20001220703</ele>
        <time>2016-07-13T13:13:42.000Z</time>
      </trkpt>
      <trkpt lat="44.54084" lon="6.22248">
        <ele>906.40002441406</ele>
        <time>2016-07-13T13:13:46.000Z</time>
      </trkpt>
      <trkpt lat="44.54086" lon="6.22246">
        <ele>905.79998779297</ele>
        <time>2016-07-13T13:13:49.000Z</time>
      </trkpt>
      <trkpt lat="44.54091" lon="6.22241">
        <ele>904.40002441406</ele>
        <time>2016-07-13T13:14:11.000Z</time>
      </trkpt>
      <trkpt lat="44.54101" lon="6.22236">
        <ele>901.79998779297</ele>
        <time>2016-07-13T13:14:19.000Z</time>
      </trkpt>
      <trkpt lat="44.5412" lon="6.22232">
        <ele>898.40002441406</ele>
        <time>2016-07-13T13:14:32.000Z</time>
      </trkpt>
      <trkpt lat="44.54138" lon="6.22229">
        <ele>898</ele>
        <time>2016-07-13T13:14:45.000Z</time>
      </trkpt>
      <trkpt lat="44.54152" lon="6.22233">
        <ele>898.40002441406</ele>
        <time>2016-07-13T13:14:55.000Z</time>
      </trkpt>
      <trkpt lat="44.54162" lon="6.22241">
        <ele>899.20001220703</ele>
        <time>2016-07-13T13:15:03.000Z</time>
      </trkpt>
      <trkpt lat="44.54169" lon="6.22252">
        <ele>900.40002441406</ele>
        <time>2016-07-13T13:15:11.000Z</time>
      </trkpt>
      <trkpt lat="44.54179" lon="6.22269">
        <ele>902.40002441406</ele>
        <time>2016-07-13T13:15:23.000Z</time>
      </trkpt>
      <trkpt lat="44.54189" lon="6.22281">
        <ele>903.59997558594</ele>
        <time>2016-07-13T13:15:33.000Z</time>
      </trkpt>
      <trkpt lat="44.54196" lon="6.22287">
        <ele>904.40002441406</ele>
        <time>2016-07-13T13:15:41.000Z</time>
      </trkpt>
      <trkpt lat="44.54206" lon="6.22292">
        <ele>905</ele>
        <time>2016-07-13T13:15:49.000Z</time>
      </trkpt>
      <trkpt lat="44.54222" lon="6.22292">
        <ele>905</ele>
        <time>2016-07-13T13:16:00.000Z</time>
      </trkpt>
      <trkpt lat="44.54229" lon="6.2229">
        <ele>905</ele>
        <time>2016-07-13T13:16:05.000Z</time>
      </trkpt>
      <trkpt lat="44.54231" lon="6.22297">
        <ele>905.79998779297</ele>
        <time>2016-07-13T13:16:10.000Z</time>
      </trkpt>
      <trkpt lat="44.54228" lon="6.22301">
        <ele>906.20001220703</ele>
        <time>2016-07-13T13:16:13.000Z</time>
      </trkpt>
      <trkpt lat="44.54222" lon="6.22305">
        <ele>906.59997558594</ele>
        <time>2016-07-13T13:16:19.000Z</time>
      </trkpt>
      <trkpt lat="44.54213" lon="6.22311">
        <ele>907</ele>
        <time>2016-07-13T13:16:26.000Z</time>
      </trkpt>
      <trkpt lat="44.54199" lon="6.22313">
        <ele>907</ele>
        <time>2016-07-13T13:16:37.000Z</time>
      </trkpt>
      <trkpt lat="44.54185" lon="6.22312">
        <ele>906.59997558594</ele>
        <time>2016-07-13T13:16:47.000Z</time>
      </trkpt>
      <trkpt lat="44.54173" lon="6.2231">
        <ele>906.20001220703</ele>
        <time>2016-07-13T13:16:57.000Z</time>
      </trkpt>
      <trkpt lat="44.54163" lon="6.22317">
        <ele>906.20001220703</ele>
        <time>2016-07-13T13:17:06.000Z</time>
      </trkpt>
      <trkpt lat="44.54162" lon="6.22328">
        <ele>906.40002441406</ele>
        <time>2016-07-13T13:17:13.000Z</time>
      </trkpt>
      <trkpt lat="44.54163" lon="6.22329">
        <ele>906.59997558594</ele>
        <time>2016-07-13T13:17:14.000Z</time>
      </trkpt>
      <trkpt lat="44.54169" lon="6.2233">
        <ele>906.59997558594</ele>
        <time>2016-07-13T13:17:20.000Z</time>
      </trkpt>
      <trkpt lat="44.54173" lon="6.2233">
        <ele>906.79998779297</ele>
        <time>2016-07-13T13:17:25.000Z</time>
      </trkpt>
      <trkpt lat="44.54184" lon="6.22332">
        <ele>907</ele>
        <time>2016-07-13T13:17:33.000Z</time>
      </trkpt>
      <trkpt lat="44.54197" lon="6.22338">
        <ele>907.59997558594</ele>
        <time>2016-07-13T13:17:43.000Z</time>
      </trkpt>
      <trkpt lat="44.54202" lon="6.22341">
        <ele>907.79998779297</ele>
        <time>2016-07-13T13:17:49.000Z</time>
      </trkpt>
      <trkpt lat="44.54209" lon="6.22345">
        <ele>908.40002441406</ele>
        <time>2016-07-13T13:17:55.000Z</time>
      </trkpt>
      <trkpt lat="44.54214" lon="6.2234">
        <ele>908.79998779297</ele>
        <time>2016-07-13T13:18:01.000Z</time>
      </trkpt>
      <trkpt lat="44.54222" lon="6.22327">
        <ele>908.59997558594</ele>
        <time>2016-07-13T13:18:09.000Z</time>
      </trkpt>
      <trkpt lat="44.54232" lon="6.22321">
        <ele>908.20001220703</ele>
        <time>2016-07-13T13:18:17.000Z</time>
      </trkpt>
      <trkpt lat="44.54243" lon="6.22323">
        <ele>908.59997558594</ele>
        <time>2016-07-13T13:18:25.000Z</time>
      </trkpt>
      <trkpt lat="44.54252" lon="6.22325">
        <ele>908.79998779297</ele>
        <time>2016-07-13T13:18:32.000Z</time>
      </trkpt>
      <trkpt lat="44.54251" lon="6.22315">
        <ele>907.79998779297</ele>
        <time>2016-07-13T13:18:38.000Z</time>
      </trkpt>
      <trkpt lat="44.54248" lon="6.223">
        <ele>906.20001220703</ele>
        <time>2016-07-13T13:18:46.000Z</time>
      </trkpt>
      <trkpt lat="44.54247" lon="6.22298">
        <ele>906</ele>
        <time>2016-07-13T13:18:47.000Z</time>
      </trkpt>
      <trkpt lat="44.54245" lon="6.22294">
        <ele>905.59997558594</ele>
        <time>2016-07-13T13:18:50.000Z</time>
      </trkpt>
      <trkpt lat="44.5425" lon="6.22289">
        <ele>905.20001220703</ele>
        <time>2016-07-13T13:18:56.000Z</time>
      </trkpt>
      <trkpt lat="44.54258" lon="6.22292">
        <ele>905.40002441406</ele>
        <time>2016-07-13T13:19:00.000Z</time>
      </trkpt>
      <trkpt lat="44.54269" lon="6.22288">
        <ele>905</ele>
        <time>2016-07-13T13:19:09.000Z</time>
      </trkpt>
      <trkpt lat="44.54282" lon="6.22281">
        <ele>904</ele>
        <time>2016-07-13T13:19:16.000Z</time>
      </trkpt>
      <trkpt lat="44.54299" lon="6.22273">
        <ele>902.59997558594</ele>
        <time>2016-07-13T13:19:23.000Z</time>
      </trkpt>
      <trkpt lat="44.54318" lon="6.22272">
        <ele>902.40002441406</ele>
        <time>2016-07-13T13:19:29.000Z</time>
      </trkpt>
      <trkpt lat="44.54335" lon="6.22277">
        <ele>902.79998779297</ele>
        <time>2016-07-13T13:19:35.000Z</time>
      </trkpt>
      <trkpt lat="44.54344" lon="6.22282">
        <ele>903.20001220703</ele>
        <time>2016-07-13T13:19:40.000Z</time>
      </trkpt>
      <trkpt lat="44.54352" lon="6.22292">
        <ele>904.59997558594</ele>
        <time>2016-07-13T13:19:48.000Z</time>
      </trkpt>
      <trkpt lat="44.54363" lon="6.22295">
        <ele>904.59997558594</ele>
        <time>2016-07-13T13:19:56.000Z</time>
      </trkpt>
      <trkpt lat="44.54369" lon="6.22284">
        <ele>903</ele>
        <time>2016-07-13T13:20:02.000Z</time>
      </trkpt>
      <trkpt lat="44.54378" lon="6.22266">
        <ele>901</ele>
        <time>2016-07-13T13:20:12.000Z</time>
      </trkpt>
      <trkpt lat="44.54387" lon="6.22253">
        <ele>899.40002441406</ele>
        <time>2016-07-13T13:20:21.000Z</time>
      </trkpt>
      <trkpt lat="44.54392" lon="6.22243">
        <ele>898.59997558594</ele>
        <time>2016-07-13T13:20:27.000Z</time>
      </trkpt>
      <trkpt lat="44.54401" lon="6.22238">
        <ele>898.79998779297</ele>
        <time>2016-07-13T13:20:34.000Z</time>
      </trkpt>
      <trkpt lat="44.54411" lon="6.22244">
        <ele>900.20001220703</ele>
        <time>2016-07-13T13:20:41.000Z</time>
      </trkpt>
      <trkpt lat="44.54419" lon="6.22243">
        <ele>901</ele>
        <time>2016-07-13T13:20:48.000Z</time>
      </trkpt>
      <trkpt lat="44.54431" lon="6.22237">
        <ele>901.40002441406</ele>
        <time>2016-07-13T13:20:58.000Z</time>
      </trkpt>
      <trkpt lat="44.54441" lon="6.22236">
        <ele>902</ele>
        <time>2016-07-13T13:21:06.000Z</time>
      </trkpt>
      <trkpt lat="44.5445" lon="6.22236">
        <ele>902.59997558594</ele>
        <time>2016-07-13T13:21:12.000Z</time>
      </trkpt>
      <trkpt lat="44.5446" lon="6.22234">
        <ele>902.40002441406</ele>
        <time>2016-07-13T13:21:20.000Z</time>
      </trkpt>
      <trkpt lat="44.54481" lon="6.22227">
        <ele>902.20001220703</ele>
        <time>2016-07-13T13:21:36.000Z</time>
      </trkpt>
      <trkpt lat="44.54492" lon="6.22219">
        <ele>901.59997558594</ele>
        <time>2016-07-13T13:21:42.000Z</time>
      </trkpt>
      <trkpt lat="44.54499" lon="6.22212">
        <ele>901</ele>
        <time>2016-07-13T13:21:47.000Z</time>
      </trkpt>
      <trkpt lat="44.545" lon="6.22211">
        <ele>900.79998779297</ele>
        <time>2016-07-13T13:21:48.000Z</time>
      </trkpt>
      <trkpt lat="44.54504" lon="6.22203">
        <ele>900.20001220703</ele>
        <time>2016-07-13T13:21:54.000Z</time>
      </trkpt>
      <trkpt lat="44.54505" lon="6.22202">
        <ele>900</ele>
        <time>2016-07-13T13:21:55.000Z</time>
      </trkpt>
      <trkpt lat="44.54507" lon="6.22194">
        <ele>898.79998779297</ele>
        <time>2016-07-13T13:22:02.000Z</time>
      </trkpt>
      <trkpt lat="44.5451" lon="6.22187">
        <ele>897.59997558594</ele>
        <time>2016-07-13T13:22:13.000Z</time>
      </trkpt>
      <trkpt lat="44.54516" lon="6.22172">
        <ele>895</ele>
        <time>2016-07-13T13:22:21.000Z</time>
      </trkpt>
      <trkpt lat="44.54545" lon="6.22141">
        <ele>889</ele>
        <time>2016-07-13T13:22:48.000Z</time>
      </trkpt>
      <trkpt lat="44.54557" lon="6.22129">
        <ele>887</ele>
        <time>2016-07-13T13:22:58.000Z</time>
      </trkpt>
      <trkpt lat="44.54566" lon="6.22116">
        <ele>885</ele>
        <time>2016-07-13T13:23:07.000Z</time>
      </trkpt>
      <trkpt lat="44.54577" lon="6.221">
        <ele>883</ele>
        <time>2016-07-13T13:23:18.000Z</time>
      </trkpt>
      <trkpt lat="44.54586" lon="6.22089">
        <ele>883.40002441406</ele>
        <time>2016-07-13T13:23:26.000Z</time>
      </trkpt>
      <trkpt lat="44.54594" lon="6.22078">
        <ele>883.59997558594</ele>
        <time>2016-07-13T13:23:33.000Z</time>
      </trkpt>
      <trkpt lat="44.54598" lon="6.22076">
        <ele>884</ele>
        <time>2016-07-13T13:23:36.000Z</time>
      </trkpt>
      <trkpt lat="44.54606" lon="6.22075">
        <ele>884.40002441406</ele>
        <time>2016-07-13T13:23:41.000Z</time>
      </trkpt>
      <trkpt lat="44.5462" lon="6.22071">
        <ele>884.79998779297</ele>
        <time>2016-07-13T13:23:51.000Z</time>
      </trkpt>
      <trkpt lat="44.54633" lon="6.22072">
        <ele>884.20001220703</ele>
        <time>2016-07-13T13:23:59.000Z</time>
      </trkpt>
      <trkpt lat="44.54643" lon="6.22065">
        <ele>885.20001220703</ele>
        <time>2016-07-13T13:24:06.000Z</time>
      </trkpt>
      <trkpt lat="44.54652" lon="6.2205">
        <ele>885.40002441406</ele>
        <time>2016-07-13T13:24:15.000Z</time>
      </trkpt>
      <trkpt lat="44.54661" lon="6.22033">
        <ele>885</ele>
        <time>2016-07-13T13:24:25.000Z</time>
      </trkpt>
      <trkpt lat="44.54675" lon="6.22011">
        <ele>885.40002441406</ele>
        <time>2016-07-13T13:24:40.000Z</time>
      </trkpt>
      <trkpt lat="44.54682" lon="6.22004">
        <ele>885.79998779297</ele>
        <time>2016-07-13T13:24:47.000Z</time>
      </trkpt>
      <trkpt lat="44.54689" lon="6.21994">
        <ele>886.20001220703</ele>
        <time>2016-07-13T13:24:55.000Z</time>
      </trkpt>
      <trkpt lat="44.54692" lon="6.21987">
        <ele>886.40002441406</ele>
        <time>2016-07-13T13:24:59.000Z</time>
      </trkpt>
      <trkpt lat="44.54695" lon="6.21983">
        <ele>886.59997558594</ele>
        <time>2016-07-13T13:25:02.000Z</time>
      </trkpt>
      <trkpt lat="44.54699" lon="6.21975">
        <ele>886.79998779297</ele>
        <time>2016-07-13T13:25:07.000Z</time>
      </trkpt>
      <trkpt lat="44.547" lon="6.21971">
        <ele>886.59997558594</ele>
        <time>2016-07-13T13:25:09.000Z</time>
      </trkpt>
      <trkpt lat="44.54703" lon="6.21956">
        <ele>885.20001220703</ele>
        <time>2016-07-13T13:25:17.000Z</time>
      </trkpt>
      <trkpt lat="44.54703" lon="6.21933">
        <ele>884.20001220703</ele>
        <time>2016-07-13T13:25:26.000Z</time>
      </trkpt>
      <trkpt lat="44.54705" lon="6.21921">
        <ele>883.20001220703</ele>
        <time>2016-07-13T13:25:32.000Z</time>
      </trkpt>
      <trkpt lat="44.54702" lon="6.21891">
        <ele>882</ele>
        <time>2016-07-13T13:25:47.000Z</time>
      </trkpt>
      <trkpt lat="44.54698" lon="6.21875">
        <ele>880.20001220703</ele>
        <time>2016-07-13T13:25:56.000Z</time>
      </trkpt>
      <trkpt lat="44.54691" lon="6.21858">
        <ele>878.59997558594</ele>
        <time>2016-07-13T13:26:06.000Z</time>
      </trkpt>
      <trkpt lat="44.54686" lon="6.21846">
        <ele>877.79998779297</ele>
        <time>2016-07-13T13:26:13.000Z</time>
      </trkpt>
      <trkpt lat="44.54679" lon="6.21832">
        <ele>876.79998779297</ele>
        <time>2016-07-13T13:26:22.000Z</time>
      </trkpt>
      <trkpt lat="44.54674" lon="6.21821">
        <ele>876</ele>
        <time>2016-07-13T13:26:29.000Z</time>
      </trkpt>
      <trkpt lat="44.54671" lon="6.21814">
        <ele>875.40002441406</ele>
        <time>2016-07-13T13:26:33.000Z</time>
      </trkpt>
      <trkpt lat="44.54664" lon="6.21798">
        <ele>875</ele>
        <time>2016-07-13T13:26:42.000Z</time>
      </trkpt>
      <trkpt lat="44.54661" lon="6.21784">
        <ele>874.20001220703</ele>
        <time>2016-07-13T13:26:49.000Z</time>
      </trkpt>
      <trkpt lat="44.54657" lon="6.21775">
        <ele>874.20001220703</ele>
        <time>2016-07-13T13:26:55.000Z</time>
      </trkpt>
      <trkpt lat="44.54653" lon="6.21766">
        <ele>874.20001220703</ele>
        <time>2016-07-13T13:27:01.000Z</time>
      </trkpt>
      <trkpt lat="44.54648" lon="6.21749">
        <ele>872.59997558594</ele>
        <time>2016-07-13T13:27:09.000Z</time>
      </trkpt>
      <trkpt lat="44.5465" lon="6.21735">
        <ele>869.59997558594</ele>
        <time>2016-07-13T13:27:16.000Z</time>
      </trkpt>
      <trkpt lat="44.54647" lon="6.2172">
        <ele>868</ele>
        <time>2016-07-13T13:27:24.000Z</time>
      </trkpt>
      <trkpt lat="44.54641" lon="6.21704">
        <ele>868</ele>
        <time>2016-07-13T13:27:34.000Z</time>
      </trkpt>
      <trkpt lat="44.54637" lon="6.21694">
        <ele>867.79998779297</ele>
        <time>2016-07-13T13:27:39.000Z</time>
      </trkpt>
      <trkpt lat="44.54633" lon="6.21681">
        <ele>867.20001220703</ele>
        <time>2016-07-13T13:27:46.000Z</time>
      </trkpt>
      <trkpt lat="44.54631" lon="6.21665">
        <ele>865.79998779297</ele>
        <time>2016-07-13T13:27:54.000Z</time>
      </trkpt>
      <trkpt lat="44.54628" lon="6.2165">
        <ele>864.40002441406</ele>
        <time>2016-07-13T13:28:03.000Z</time>
      </trkpt>
      <trkpt lat="44.54623" lon="6.21633">
        <ele>863.59997558594</ele>
        <time>2016-07-13T13:28:12.000Z</time>
      </trkpt>
      <trkpt lat="44.54623" lon="6.21617">
        <ele>861.59997558594</ele>
        <time>2016-07-13T13:28:20.000Z</time>
      </trkpt>
      <trkpt lat="44.54623" lon="6.21599">
        <ele>859</ele>
        <time>2016-07-13T13:28:29.000Z</time>
      </trkpt>
      <trkpt lat="44.54621" lon="6.2158">
        <ele>857.20001220703</ele>
        <time>2016-07-13T13:28:39.000Z</time>
      </trkpt>
      <trkpt lat="44.5462" lon="6.21566">
        <ele>855.79998779297</ele>
        <time>2016-07-13T13:28:46.000Z</time>
      </trkpt>
      <trkpt lat="44.54619" lon="6.21551">
        <ele>854.20001220703</ele>
        <time>2016-07-13T13:28:54.000Z</time>
      </trkpt>
      <trkpt lat="44.54615" lon="6.21537">
        <ele>853.59997558594</ele>
        <time>2016-07-13T13:29:02.000Z</time>
      </trkpt>
      <trkpt lat="44.54615" lon="6.21525">
        <ele>852.40002441406</ele>
        <time>2016-07-13T13:29:07.000Z</time>
      </trkpt>
      <trkpt lat="44.54615" lon="6.21521">
        <ele>851.79998779297</ele>
        <time>2016-07-13T13:29:10.000Z</time>
      </trkpt>
      <trkpt lat="44.54615" lon="6.21512">
        <ele>850.79998779297</ele>
        <time>2016-07-13T13:29:15.000Z</time>
      </trkpt>
      <trkpt lat="44.54614" lon="6.21497">
        <ele>849.40002441406</ele>
        <time>2016-07-13T13:29:22.000Z</time>
      </trkpt>
      <trkpt lat="44.54611" lon="6.21486">
        <ele>849.20001220703</ele>
        <time>2016-07-13T13:29:27.000Z</time>
      </trkpt>
      <trkpt lat="44.54611" lon="6.21481">
        <ele>848.79998779297</ele>
        <time>2016-07-13T13:29:30.000Z</time>
      </trkpt>
      <trkpt lat="44.54602" lon="6.21458">
        <ele>849.59997558594</ele>
        <time>2016-07-13T13:29:43.000Z</time>
      </trkpt>
      <trkpt lat="44.54597" lon="6.21444">
        <ele>850</ele>
        <time>2016-07-13T13:29:50.000Z</time>
      </trkpt>
      <trkpt lat="44.54598" lon="6.21428">
        <ele>848.20001220703</ele>
        <time>2016-07-13T13:29:57.000Z</time>
      </trkpt>
      <trkpt lat="44.54596" lon="6.21414">
        <ele>847</ele>
        <time>2016-07-13T13:30:04.000Z</time>
      </trkpt>
      <trkpt lat="44.54596" lon="6.21413">
        <ele>847.20001220703</ele>
        <time>2016-07-13T13:30:06.000Z</time>
      </trkpt>
      <trkpt lat="44.54595" lon="6.21409">
        <ele>847.20001220703</ele>
        <time>2016-07-13T13:30:08.000Z</time>
      </trkpt>
      <trkpt lat="44.54593" lon="6.21397">
        <ele>846.59997558594</ele>
        <time>2016-07-13T13:30:14.000Z</time>
      </trkpt>
      <trkpt lat="44.54593" lon="6.21386">
        <ele>844.79998779297</ele>
        <time>2016-07-13T13:30:19.000Z</time>
      </trkpt>
      <trkpt lat="44.54593" lon="6.21379">
        <ele>843.59997558594</ele>
        <time>2016-07-13T13:30:23.000Z</time>
      </trkpt>
      <trkpt lat="44.54591" lon="6.2137">
        <ele>842.59997558594</ele>
        <time>2016-07-13T13:30:29.000Z</time>
      </trkpt>
      <trkpt lat="44.54591" lon="6.21368">
        <ele>842.59997558594</ele>
        <time>2016-07-13T13:30:30.000Z</time>
      </trkpt>
      <trkpt lat="44.54588" lon="6.21362">
        <ele>842.79998779297</ele>
        <time>2016-07-13T13:30:34.000Z</time>
      </trkpt>
      <trkpt lat="44.54588" lon="6.21359">
        <ele>842.20001220703</ele>
        <time>2016-07-13T13:30:36.000Z</time>
      </trkpt>
      <trkpt lat="44.54588" lon="6.21352">
        <ele>841.20001220703</ele>
        <time>2016-07-13T13:30:40.000Z</time>
      </trkpt>
      <trkpt lat="44.54587" lon="6.21345">
        <ele>840.79998779297</ele>
        <time>2016-07-13T13:30:43.000Z</time>
      </trkpt>
      <trkpt lat="44.54583" lon="6.21325">
        <ele>839.20001220703</ele>
        <time>2016-07-13T13:30:54.000Z</time>
      </trkpt>
      <trkpt lat="44.54581" lon="6.2132">
        <ele>839.40002441406</ele>
        <time>2016-07-13T13:30:58.000Z</time>
      </trkpt>
      <trkpt lat="44.5458" lon="6.21317">
        <ele>839.40002441406</ele>
        <time>2016-07-13T13:31:01.000Z</time>
      </trkpt>
      <trkpt lat="44.54577" lon="6.21309">
        <ele>839.20001220703</ele>
        <time>2016-07-13T13:31:05.000Z</time>
      </trkpt>
      <trkpt lat="44.54573" lon="6.21294">
        <ele>837.20001220703</ele>
        <time>2016-07-13T13:31:12.000Z</time>
      </trkpt>
      <trkpt lat="44.54571" lon="6.21279">
        <ele>835</ele>
        <time>2016-07-13T13:31:20.000Z</time>
      </trkpt>
      <trkpt lat="44.54571" lon="6.21277">
        <ele>834.79998779297</ele>
        <time>2016-07-13T13:31:21.000Z</time>
      </trkpt>
      <trkpt lat="44.54563" lon="6.21266">
        <ele>835</ele>
        <time>2016-07-13T13:31:28.000Z</time>
      </trkpt>
      <trkpt lat="44.5456" lon="6.21262">
        <ele>835.59997558594</ele>
        <time>2016-07-13T13:31:31.000Z</time>
      </trkpt>
      <trkpt lat="44.54556" lon="6.21249">
        <ele>834.40002441406</ele>
        <time>2016-07-13T13:31:39.000Z</time>
      </trkpt>
      <trkpt lat="44.54553" lon="6.21235">
        <ele>832.79998779297</ele>
        <time>2016-07-13T13:31:45.000Z</time>
      </trkpt>
      <trkpt lat="44.54551" lon="6.21222">
        <ele>831.40002441406</ele>
        <time>2016-07-13T13:31:51.000Z</time>
      </trkpt>
      <trkpt lat="44.54549" lon="6.21214">
        <ele>831</ele>
        <time>2016-07-13T13:31:56.000Z</time>
      </trkpt>
      <trkpt lat="44.54548" lon="6.21212">
        <ele>830.79998779297</ele>
        <time>2016-07-13T13:31:57.000Z</time>
      </trkpt>
      <trkpt lat="44.54547" lon="6.21205">
        <ele>830.40002441406</ele>
        <time>2016-07-13T13:32:00.000Z</time>
      </trkpt>
      <trkpt lat="44.54546" lon="6.21198">
        <ele>829.79998779297</ele>
        <time>2016-07-13T13:32:03.000Z</time>
      </trkpt>
      <trkpt lat="44.54546" lon="6.21186">
        <ele>828</ele>
        <time>2016-07-13T13:32:08.000Z</time>
      </trkpt>
      <trkpt lat="44.54546" lon="6.21183">
        <ele>827.59997558594</ele>
        <time>2016-07-13T13:32:09.000Z</time>
      </trkpt>
      <trkpt lat="44.54546" lon="6.21169">
        <ele>825.59997558594</ele>
        <time>2016-07-13T13:32:16.000Z</time>
      </trkpt>
      <trkpt lat="44.54541" lon="6.21156">
        <ele>825.20001220703</ele>
        <time>2016-07-13T13:32:23.000Z</time>
      </trkpt>
      <trkpt lat="44.54538" lon="6.21142">
        <ele>824.20001220703</ele>
        <time>2016-07-13T13:32:30.000Z</time>
      </trkpt>
      <trkpt lat="44.54535" lon="6.21135">
        <ele>824</ele>
        <time>2016-07-13T13:32:34.000Z</time>
      </trkpt>
      <trkpt lat="44.54532" lon="6.21126">
        <ele>823</ele>
        <time>2016-07-13T13:32:39.000Z</time>
      </trkpt>
      <trkpt lat="44.54527" lon="6.21118">
        <ele>821.79998779297</ele>
        <time>2016-07-13T13:32:44.000Z</time>
      </trkpt>
      <trkpt lat="44.54523" lon="6.21107">
        <ele>820</ele>
        <time>2016-07-13T13:32:49.000Z</time>
      </trkpt>
      <trkpt lat="44.54521" lon="6.21093">
        <ele>817.79998779297</ele>
        <time>2016-07-13T13:32:55.000Z</time>
      </trkpt>
      <trkpt lat="44.54522" lon="6.21078">
        <ele>815.40002441406</ele>
        <time>2016-07-13T13:33:02.000Z</time>
      </trkpt>
      <trkpt lat="44.54521" lon="6.21061">
        <ele>812.79998779297</ele>
        <time>2016-07-13T13:33:10.000Z</time>
      </trkpt>
      <trkpt lat="44.5452" lon="6.21041">
        <ele>812.20001220703</ele>
        <time>2016-07-13T13:33:18.000Z</time>
      </trkpt>
      <trkpt lat="44.54519" lon="6.21031">
        <ele>810.59997558594</ele>
        <time>2016-07-13T13:33:23.000Z</time>
      </trkpt>
      <trkpt lat="44.54515" lon="6.21011">
        <ele>807.79998779297</ele>
        <time>2016-07-13T13:33:32.000Z</time>
      </trkpt>
      <trkpt lat="44.54513" lon="6.20996">
        <ele>805.59997558594</ele>
        <time>2016-07-13T13:33:40.000Z</time>
      </trkpt>
      <trkpt lat="44.54512" lon="6.20983">
        <ele>803.79998779297</ele>
        <time>2016-07-13T13:33:46.000Z</time>
      </trkpt>
      <trkpt lat="44.54509" lon="6.20967">
        <ele>801.79998779297</ele>
        <time>2016-07-13T13:33:54.000Z</time>
      </trkpt>
      <trkpt lat="44.54509" lon="6.20966">
        <ele>801.59997558594</ele>
        <time>2016-07-13T13:33:55.000Z</time>
      </trkpt>
      <trkpt lat="44.54511" lon="6.2096">
        <ele>800.20001220703</ele>
        <time>2016-07-13T13:33:58.000Z</time>
      </trkpt>
      <trkpt lat="44.54513" lon="6.20955">
        <ele>799</ele>
        <time>2016-07-13T13:34:01.000Z</time>
      </trkpt>
      <trkpt lat="44.54523" lon="6.20956">
        <ele>797.40002441406</ele>
        <time>2016-07-13T13:34:08.000Z</time>
      </trkpt>
      <trkpt lat="44.54526" lon="6.20957">
        <ele>797</ele>
        <time>2016-07-13T13:34:10.000Z</time>
      </trkpt>
      <trkpt lat="44.54539" lon="6.20957">
        <ele>794.20001220703</ele>
        <time>2016-07-13T13:34:18.000Z</time>
      </trkpt>
      <trkpt lat="44.54541" lon="6.20955">
        <ele>793.40002441406</ele>
        <time>2016-07-13T13:34:20.000Z</time>
      </trkpt>
      <trkpt lat="44.54542" lon="6.20944">
        <ele>791.20001220703</ele>
        <time>2016-07-13T13:34:27.000Z</time>
      </trkpt>
      <trkpt lat="44.54541" lon="6.20943">
        <ele>791.20001220703</ele>
        <time>2016-07-13T13:34:28.000Z</time>
      </trkpt>
      <trkpt lat="44.54534" lon="6.2093">
        <ele>790.79998779297</ele>
        <time>2016-07-13T13:34:36.000Z</time>
      </trkpt>
      <trkpt lat="44.54523" lon="6.20915">
        <ele>790.59997558594</ele>
        <time>2016-07-13T13:34:46.000Z</time>
      </trkpt>
      <trkpt lat="44.54518" lon="6.20911">
        <ele>790.79998779297</ele>
        <time>2016-07-13T13:34:50.000Z</time>
      </trkpt>
      <trkpt lat="44.54523" lon="6.20906">
        <ele>788.79998779297</ele>
        <time>2016-07-13T13:34:55.000Z</time>
      </trkpt>
      <trkpt lat="44.54525" lon="6.20906">
        <ele>788.59997558594</ele>
        <time>2016-07-13T13:34:56.000Z</time>
      </trkpt>
      <trkpt lat="44.54536" lon="6.20905">
        <ele>786.40002441406</ele>
        <time>2016-07-13T13:35:03.000Z</time>
      </trkpt>
      <trkpt lat="44.54545" lon="6.20901">
        <ele>783.79998779297</ele>
        <time>2016-07-13T13:35:09.000Z</time>
      </trkpt>
      <trkpt lat="44.54557" lon="6.20896">
        <ele>782.20001220703</ele>
        <time>2016-07-13T13:35:16.000Z</time>
      </trkpt>
      <trkpt lat="44.5457" lon="6.20893">
        <ele>780.40002441406</ele>
        <time>2016-07-13T13:35:24.000Z</time>
      </trkpt>
      <trkpt lat="44.54597" lon="6.20891">
        <ele>777</ele>
        <time>2016-07-13T13:35:41.000Z</time>
      </trkpt>
      <trkpt lat="44.54611" lon="6.20889">
        <ele>775</ele>
        <time>2016-07-13T13:35:50.000Z</time>
      </trkpt>
      <trkpt lat="44.54619" lon="6.2089">
        <ele>775</ele>
        <time>2016-07-13T13:35:56.000Z</time>
      </trkpt>
      <trkpt lat="44.54629" lon="6.2089">
        <ele>775</ele>
        <time>2016-07-13T13:36:04.000Z</time>
      </trkpt>
      <trkpt lat="44.54638" lon="6.20894">
        <ele>775.20001220703</ele>
        <time>2016-07-13T13:36:10.000Z</time>
      </trkpt>
      <trkpt lat="44.54644" lon="6.20901">
        <ele>775.40002441406</ele>
        <time>2016-07-13T13:36:16.000Z</time>
      </trkpt>
      <trkpt lat="44.54645" lon="6.20902">
        <ele>775.40002441406</ele>
        <time>2016-07-13T13:36:17.000Z</time>
      </trkpt>
      <trkpt lat="44.54649" lon="6.20907">
        <ele>775.40002441406</ele>
        <time>2016-07-13T13:36:21.000Z</time>
      </trkpt>
      <trkpt lat="44.5465" lon="6.20908">
        <ele>775.40002441406</ele>
        <time>2016-07-13T13:36:30.000Z</time>
      </trkpt>
      <trkpt lat="44.54649" lon="6.20903">
        <ele>775.40002441406</ele>
        <time>2016-07-13T13:36:39.000Z</time>
      </trkpt>
      <trkpt lat="44.54647" lon="6.20898">
        <ele>775.40002441406</ele>
        <time>2016-07-13T13:36:43.000Z</time>
      </trkpt>
      <trkpt lat="44.5465" lon="6.20895">
        <ele>775.40002441406</ele>
        <time>2016-07-13T13:37:05.000Z</time>
      </trkpt>
      <trkpt lat="44.54649" lon="6.20895">
        <ele>775.40002441406</ele>
        <time>2016-07-13T13:37:20.000Z</time>
      </trkpt>
      <trkpt lat="44.54648" lon="6.20896">
        <ele>775.40002441406</ele>
        <time>2016-07-13T13:38:00.000Z</time>
      </trkpt>
      <trkpt lat="44.54653" lon="6.20891">
        <ele>775.40002441406</ele>
        <time>2016-07-13T13:38:09.000Z</time>
      </trkpt>
      <trkpt lat="44.54663" lon="6.20888">
        <ele>775.40002441406</ele>
        <time>2016-07-13T13:38:15.000Z</time>
      </trkpt>
      <trkpt lat="44.54675" lon="6.20883">
        <ele>775.59997558594</ele>
        <time>2016-07-13T13:38:21.000Z</time>
      </trkpt>
      <trkpt lat="44.54686" lon="6.20881">
        <ele>775.59997558594</ele>
        <time>2016-07-13T13:38:28.000Z</time>
      </trkpt>
      <trkpt lat="44.54696" lon="6.20884">
        <ele>775.79998779297</ele>
        <time>2016-07-13T13:38:34.000Z</time>
      </trkpt>
      <trkpt lat="44.54711" lon="6.2089">
        <ele>776</ele>
        <time>2016-07-13T13:38:44.000Z</time>
      </trkpt>
      <trkpt lat="44.54721" lon="6.20895">
        <ele>776.20001220703</ele>
        <time>2016-07-13T13:38:51.000Z</time>
      </trkpt>
      <trkpt lat="44.54731" lon="6.20895">
        <ele>776.40002441406</ele>
        <time>2016-07-13T13:38:57.000Z</time>
      </trkpt>
      <trkpt lat="44.54739" lon="6.20894">
        <ele>776.40002441406</ele>
        <time>2016-07-13T13:39:03.000Z</time>
      </trkpt>
      <trkpt lat="44.54749" lon="6.20886">
        <ele>776.40002441406</ele>
        <time>2016-07-13T13:39:10.000Z</time>
      </trkpt>
      <trkpt lat="44.54763" lon="6.20882">
        <ele>776.40002441406</ele>
        <time>2016-07-13T13:39:16.000Z</time>
      </trkpt>
      <trkpt lat="44.54782" lon="6.2087">
        <ele>776.40002441406</ele>
        <time>2016-07-13T13:39:21.000Z</time>
      </trkpt>
      <trkpt lat="44.54801" lon="6.20862">
        <ele>776.40002441406</ele>
        <time>2016-07-13T13:39:26.000Z</time>
      </trkpt>
      <trkpt lat="44.54821" lon="6.20859">
        <ele>776.59997558594</ele>
        <time>2016-07-13T13:39:30.000Z</time>
      </trkpt>
      <trkpt lat="44.54868" lon="6.20864">
        <ele>777.59997558594</ele>
        <time>2016-07-13T13:39:40.000Z</time>
      </trkpt>
      <trkpt lat="44.54881" lon="6.20863">
        <ele>778.20001220703</ele>
        <time>2016-07-13T13:39:43.000Z</time>
      </trkpt>
      <trkpt lat="44.54904" lon="6.20852">
        <ele>778.79998779297</ele>
        <time>2016-07-13T13:39:48.000Z</time>
      </trkpt>
      <trkpt lat="44.54924" lon="6.20845">
        <ele>779.59997558594</ele>
        <time>2016-07-13T13:39:52.000Z</time>
      </trkpt>
      <trkpt lat="44.54929" lon="6.20845">
        <ele>780</ele>
        <time>2016-07-13T13:39:53.000Z</time>
      </trkpt>
      <trkpt lat="44.54947" lon="6.20844">
        <ele>780.79998779297</ele>
        <time>2016-07-13T13:39:57.000Z</time>
      </trkpt>
      <trkpt lat="44.54965" lon="6.20842">
        <ele>781.20001220703</ele>
        <time>2016-07-13T13:40:01.000Z</time>
      </trkpt>
      <trkpt lat="44.5497" lon="6.20842">
        <ele>781.20001220703</ele>
        <time>2016-07-13T13:40:02.000Z</time>
      </trkpt>
      <trkpt lat="44.54983" lon="6.20837">
        <ele>781.40002441406</ele>
        <time>2016-07-13T13:40:05.000Z</time>
      </trkpt>
      <trkpt lat="44.55004" lon="6.20821">
        <ele>782.20001220703</ele>
        <time>2016-07-13T13:40:10.000Z</time>
      </trkpt>
      <trkpt lat="44.55021" lon="6.20807">
        <ele>782.59997558594</ele>
        <time>2016-07-13T13:40:14.000Z</time>
      </trkpt>
      <trkpt lat="44.55038" lon="6.20795">
        <ele>783</ele>
        <time>2016-07-13T13:40:18.000Z</time>
      </trkpt>
      <trkpt lat="44.55056" lon="6.20787">
        <ele>783.40002441406</ele>
        <time>2016-07-13T13:40:22.000Z</time>
      </trkpt>
      <trkpt lat="44.55073" lon="6.20777">
        <ele>784</ele>
        <time>2016-07-13T13:40:26.000Z</time>
      </trkpt>
      <trkpt lat="44.55106" lon="6.20756">
        <ele>785.40002441406</ele>
        <time>2016-07-13T13:40:33.000Z</time>
      </trkpt>
      <trkpt lat="44.5511" lon="6.20753">
        <ele>785.59997558594</ele>
        <time>2016-07-13T13:40:34.000Z</time>
      </trkpt>
      <trkpt lat="44.55131" lon="6.20744">
        <ele>786.59997558594</ele>
        <time>2016-07-13T13:40:39.000Z</time>
      </trkpt>
      <trkpt lat="44.55151" lon="6.20737">
        <ele>787.40002441406</ele>
        <time>2016-07-13T13:40:43.000Z</time>
      </trkpt>
      <trkpt lat="44.55172" lon="6.20732">
        <ele>788</ele>
        <time>2016-07-13T13:40:49.000Z</time>
      </trkpt>
      <trkpt lat="44.55189" lon="6.20724">
        <ele>788.59997558594</ele>
        <time>2016-07-13T13:40:55.000Z</time>
      </trkpt>
      <trkpt lat="44.55207" lon="6.20713">
        <ele>789</ele>
        <time>2016-07-13T13:41:02.000Z</time>
      </trkpt>
      <trkpt lat="44.55223" lon="6.20701">
        <ele>789.40002441406</ele>
        <time>2016-07-13T13:41:11.000Z</time>
      </trkpt>
      <trkpt lat="44.55234" lon="6.20693">
        <ele>789.79998779297</ele>
        <time>2016-07-13T13:41:19.000Z</time>
      </trkpt>
      <trkpt lat="44.55248" lon="6.20683">
        <ele>790.20001220703</ele>
        <time>2016-07-13T13:41:30.000Z</time>
      </trkpt>
      <trkpt lat="44.5527" lon="6.20666">
        <ele>790.79998779297</ele>
        <time>2016-07-13T13:41:48.000Z</time>
      </trkpt>
      <trkpt lat="44.55282" lon="6.20659">
        <ele>791</ele>
        <time>2016-07-13T13:41:57.000Z</time>
      </trkpt>
      <trkpt lat="44.55292" lon="6.20653">
        <ele>791.40002441406</ele>
        <time>2016-07-13T13:42:04.000Z</time>
      </trkpt>
      <trkpt lat="44.55305" lon="6.20652">
        <ele>791.40002441406</ele>
        <time>2016-07-13T13:42:14.000Z</time>
      </trkpt>
      <trkpt lat="44.55318" lon="6.2065">
        <ele>791.59997558594</ele>
        <time>2016-07-13T13:42:21.000Z</time>
      </trkpt>
      <trkpt lat="44.5533" lon="6.20649">
        <ele>791.59997558594</ele>
        <time>2016-07-13T13:42:30.000Z</time>
      </trkpt>
      <trkpt lat="44.55346" lon="6.20651">
        <ele>792</ele>
        <time>2016-07-13T13:42:40.000Z</time>
      </trkpt>
      <trkpt lat="44.5536" lon="6.20654">
        <ele>792.20001220703</ele>
        <time>2016-07-13T13:42:50.000Z</time>
      </trkpt>
      <trkpt lat="44.5537" lon="6.20656">
        <ele>792.40002441406</ele>
        <time>2016-07-13T13:42:58.000Z</time>
      </trkpt>
      <trkpt lat="44.55382" lon="6.2066">
        <ele>793</ele>
        <time>2016-07-13T13:43:05.000Z</time>
      </trkpt>
      <trkpt lat="44.55398" lon="6.20663">
        <ele>793.79998779297</ele>
        <time>2016-07-13T13:43:14.000Z</time>
      </trkpt>
      <trkpt lat="44.55413" lon="6.20665">
        <ele>794.79998779297</ele>
        <time>2016-07-13T13:43:23.000Z</time>
      </trkpt>
      <trkpt lat="44.55434" lon="6.20668">
        <ele>796</ele>
        <time>2016-07-13T13:43:37.000Z</time>
      </trkpt>
      <trkpt lat="44.55452" lon="6.20667">
        <ele>797</ele>
        <time>2016-07-13T13:43:49.000Z</time>
      </trkpt>
      <trkpt lat="44.55464" lon="6.20669">
        <ele>797.79998779297</ele>
        <time>2016-07-13T13:43:56.000Z</time>
      </trkpt>
      <trkpt lat="44.55475" lon="6.20674">
        <ele>798.40002441406</ele>
        <time>2016-07-13T13:44:05.000Z</time>
      </trkpt>
      <trkpt lat="44.55484" lon="6.20682">
        <ele>799</ele>
        <time>2016-07-13T13:44:13.000Z</time>
      </trkpt>
      <trkpt lat="44.55491" lon="6.20691">
        <ele>799.40002441406</ele>
        <time>2016-07-13T13:44:20.000Z</time>
      </trkpt>
      <trkpt lat="44.55503" lon="6.207">
        <ele>800.20001220703</ele>
        <time>2016-07-13T13:44:28.000Z</time>
      </trkpt>
      <trkpt lat="44.55522" lon="6.20711">
        <ele>801.20001220703</ele>
        <time>2016-07-13T13:44:40.000Z</time>
      </trkpt>
      <trkpt lat="44.55535" lon="6.2072">
        <ele>802</ele>
        <time>2016-07-13T13:44:49.000Z</time>
      </trkpt>
      <trkpt lat="44.55551" lon="6.2073">
        <ele>802.59997558594</ele>
        <time>2016-07-13T13:45:00.000Z</time>
      </trkpt>
      <trkpt lat="44.5556" lon="6.2074">
        <ele>803.40002441406</ele>
        <time>2016-07-13T13:45:07.000Z</time>
      </trkpt>
      <trkpt lat="44.55576" lon="6.20767">
        <ele>805.40002441406</ele>
        <time>2016-07-13T13:45:23.000Z</time>
      </trkpt>
      <trkpt lat="44.55587" lon="6.20778">
        <ele>806.20001220703</ele>
        <time>2016-07-13T13:45:31.000Z</time>
      </trkpt>
      <trkpt lat="44.55596" lon="6.20784">
        <ele>806.79998779297</ele>
        <time>2016-07-13T13:45:38.000Z</time>
      </trkpt>
      <trkpt lat="44.55602" lon="6.20794">
        <ele>807.59997558594</ele>
        <time>2016-07-13T13:45:44.000Z</time>
      </trkpt>
      <trkpt lat="44.5561" lon="6.20803">
        <ele>808.20001220703</ele>
        <time>2016-07-13T13:45:50.000Z</time>
      </trkpt>
      <trkpt lat="44.55624" lon="6.20818">
        <ele>809.20001220703</ele>
        <time>2016-07-13T13:46:02.000Z</time>
      </trkpt>
      <trkpt lat="44.55636" lon="6.20832">
        <ele>809.40002441406</ele>
        <time>2016-07-13T13:46:14.000Z</time>
      </trkpt>
      <trkpt lat="44.55643" lon="6.2084">
        <ele>809.59997558594</ele>
        <time>2016-07-13T13:46:20.000Z</time>
      </trkpt>
      <trkpt lat="44.55648" lon="6.20842">
        <ele>809.79998779297</ele>
        <time>2016-07-13T13:46:25.000Z</time>
      </trkpt>
      <trkpt lat="44.55668" lon="6.2087">
        <ele>810.20001220703</ele>
        <time>2016-07-13T13:46:45.000Z</time>
      </trkpt>
      <trkpt lat="44.55671" lon="6.20872">
        <ele>810.20001220703</ele>
        <time>2016-07-13T13:46:48.000Z</time>
      </trkpt>
      <trkpt lat="44.55678" lon="6.20879">
        <ele>810.40002441406</ele>
        <time>2016-07-13T13:46:55.000Z</time>
      </trkpt>
      <trkpt lat="44.55681" lon="6.2088">
        <ele>810.59997558594</ele>
        <time>2016-07-13T13:47:04.000Z</time>
      </trkpt>
      <trkpt lat="44.55684" lon="6.20887">
        <ele>810.59997558594</ele>
        <time>2016-07-13T13:47:13.000Z</time>
      </trkpt>
      <trkpt lat="44.55688" lon="6.209">
        <ele>810.59997558594</ele>
        <time>2016-07-13T13:47:20.000Z</time>
      </trkpt>
      <trkpt lat="44.5569" lon="6.20918">
        <ele>810.20001220703</ele>
        <time>2016-07-13T13:47:28.000Z</time>
      </trkpt>
      <trkpt lat="44.55693" lon="6.20933">
        <ele>809.79998779297</ele>
        <time>2016-07-13T13:47:35.000Z</time>
      </trkpt>
      <trkpt lat="44.55695" lon="6.20946">
        <ele>809.59997558594</ele>
        <time>2016-07-13T13:47:41.000Z</time>
      </trkpt>
      <trkpt lat="44.55698" lon="6.20961">
        <ele>809.40002441406</ele>
        <time>2016-07-13T13:47:47.000Z</time>
      </trkpt>
      <trkpt lat="44.55706" lon="6.20981">
        <ele>809.40002441406</ele>
        <time>2016-07-13T13:47:56.000Z</time>
      </trkpt>
      <trkpt lat="44.55714" lon="6.20992">
        <ele>810.20001220703</ele>
        <time>2016-07-13T13:48:05.000Z</time>
      </trkpt>
      <trkpt lat="44.55723" lon="6.21006">
        <ele>811</ele>
        <time>2016-07-13T13:48:13.000Z</time>
      </trkpt>
      <trkpt lat="44.5573" lon="6.21016">
        <ele>811.59997558594</ele>
        <time>2016-07-13T13:48:20.000Z</time>
      </trkpt>
      <trkpt lat="44.55741" lon="6.21027">
        <ele>812.59997558594</ele>
        <time>2016-07-13T13:48:30.000Z</time>
      </trkpt>
      <trkpt lat="44.55748" lon="6.21038">
        <ele>813.20001220703</ele>
        <time>2016-07-13T13:48:37.000Z</time>
      </trkpt>
      <trkpt lat="44.55758" lon="6.21047">
        <ele>814</ele>
        <time>2016-07-13T13:48:44.000Z</time>
      </trkpt>
      <trkpt lat="44.55771" lon="6.21054">
        <ele>815</ele>
        <time>2016-07-13T13:48:55.000Z</time>
      </trkpt>
      <trkpt lat="44.55777" lon="6.21064">
        <ele>815.59997558594</ele>
        <time>2016-07-13T13:49:02.000Z</time>
      </trkpt>
      <trkpt lat="44.55787" lon="6.21068">
        <ele>816.40002441406</ele>
        <time>2016-07-13T13:49:09.000Z</time>
      </trkpt>
      <trkpt lat="44.55799" lon="6.21069">
        <ele>816.79998779297</ele>
        <time>2016-07-13T13:49:18.000Z</time>
      </trkpt>
      <trkpt lat="44.55814" lon="6.21074">
        <ele>817.40002441406</ele>
        <time>2016-07-13T13:49:28.000Z</time>
      </trkpt>
      <trkpt lat="44.55824" lon="6.21082">
        <ele>818</ele>
        <time>2016-07-13T13:49:37.000Z</time>
      </trkpt>
      <trkpt lat="44.55832" lon="6.21085">
        <ele>818.20001220703</ele>
        <time>2016-07-13T13:49:43.000Z</time>
      </trkpt>
      <trkpt lat="44.5585" lon="6.21085">
        <ele>819</ele>
        <time>2016-07-13T13:49:55.000Z</time>
      </trkpt>
      <trkpt lat="44.55854" lon="6.21085">
        <ele>819</ele>
        <time>2016-07-13T13:49:59.000Z</time>
      </trkpt>
      <trkpt lat="44.55858" lon="6.21084">
        <ele>819.20001220703</ele>
        <time>2016-07-13T13:50:02.000Z</time>
      </trkpt>
      <trkpt lat="44.55871" lon="6.21091">
        <ele>819.79998779297</ele>
        <time>2016-07-13T13:50:12.000Z</time>
      </trkpt>
      <trkpt lat="44.5588" lon="6.21093">
        <ele>820.40002441406</ele>
        <time>2016-07-13T13:50:19.000Z</time>
      </trkpt>
      <trkpt lat="44.5589" lon="6.21095">
        <ele>820.79998779297</ele>
        <time>2016-07-13T13:50:26.000Z</time>
      </trkpt>
      <trkpt lat="44.55917" lon="6.21099">
        <ele>822.40002441406</ele>
        <time>2016-07-13T13:50:47.000Z</time>
      </trkpt>
      <trkpt lat="44.55927" lon="6.21103">
        <ele>823</ele>
        <time>2016-07-13T13:50:54.000Z</time>
      </trkpt>
      <trkpt lat="44.55937" lon="6.21108">
        <ele>823.79998779297</ele>
        <time>2016-07-13T13:51:02.000Z</time>
      </trkpt>
      <trkpt lat="44.55946" lon="6.21112">
        <ele>824.40002441406</ele>
        <time>2016-07-13T13:51:10.000Z</time>
      </trkpt>
      <trkpt lat="44.5596" lon="6.21115">
        <ele>825</ele>
        <time>2016-07-13T13:51:20.000Z</time>
      </trkpt>
      <trkpt lat="44.55972" lon="6.21111">
        <ele>825.59997558594</ele>
        <time>2016-07-13T13:51:28.000Z</time>
      </trkpt>
      <trkpt lat="44.55983" lon="6.21104">
        <ele>826</ele>
        <time>2016-07-13T13:51:37.000Z</time>
      </trkpt>
      <trkpt lat="44.55994" lon="6.21102">
        <ele>826.59997558594</ele>
        <time>2016-07-13T13:51:44.000Z</time>
      </trkpt>
      <trkpt lat="44.56003" lon="6.21104">
        <ele>827.20001220703</ele>
        <time>2016-07-13T13:51:50.000Z</time>
      </trkpt>
      <trkpt lat="44.56012" lon="6.21106">
        <ele>827.59997558594</ele>
        <time>2016-07-13T13:51:58.000Z</time>
      </trkpt>
      <trkpt lat="44.56025" lon="6.21111">
        <ele>828.40002441406</ele>
        <time>2016-07-13T13:52:07.000Z</time>
      </trkpt>
      <trkpt lat="44.5604" lon="6.2111">
        <ele>829.20001220703</ele>
        <time>2016-07-13T13:52:17.000Z</time>
      </trkpt>
      <trkpt lat="44.56052" lon="6.21107">
        <ele>829.79998779297</ele>
        <time>2016-07-13T13:52:25.000Z</time>
      </trkpt>
      <trkpt lat="44.56065" lon="6.21107">
        <ele>830.40002441406</ele>
        <time>2016-07-13T13:52:34.000Z</time>
      </trkpt>
      <trkpt lat="44.56079" lon="6.21105">
        <ele>831.20001220703</ele>
        <time>2016-07-13T13:52:44.000Z</time>
      </trkpt>
      <trkpt lat="44.56097" lon="6.21102">
        <ele>832</ele>
        <time>2016-07-13T13:52:56.000Z</time>
      </trkpt>
      <trkpt lat="44.56099" lon="6.21102">
        <ele>832</ele>
        <time>2016-07-13T13:52:57.000Z</time>
      </trkpt>
      <trkpt lat="44.56119" lon="6.21116">
        <ele>833</ele>
        <time>2016-07-13T13:53:14.000Z</time>
      </trkpt>
      <trkpt lat="44.56132" lon="6.2112">
        <ele>833.79998779297</ele>
        <time>2016-07-13T13:53:20.000Z</time>
      </trkpt>
      <trkpt lat="44.56147" lon="6.21122">
        <ele>834.79998779297</ele>
        <time>2016-07-13T13:53:26.000Z</time>
      </trkpt>
      <trkpt lat="44.56149" lon="6.21137">
        <ele>834.79998779297</ele>
        <time>2016-07-13T13:53:35.000Z</time>
      </trkpt>
      <trkpt lat="44.56141" lon="6.21151">
        <ele>834.40002441406</ele>
        <time>2016-07-13T13:53:43.000Z</time>
      </trkpt>
      <trkpt lat="44.56134" lon="6.21167">
        <ele>834.20001220703</ele>
        <time>2016-07-13T13:53:53.000Z</time>
      </trkpt>
      <trkpt lat="44.56134" lon="6.21181">
        <ele>834</ele>
        <time>2016-07-13T13:54:00.000Z</time>
      </trkpt>
      <trkpt lat="44.56143" lon="6.21195">
        <ele>834.40002441406</ele>
        <time>2016-07-13T13:54:08.000Z</time>
      </trkpt>
      <trkpt lat="44.56149" lon="6.21214">
        <ele>834.79998779297</ele>
        <time>2016-07-13T13:54:18.000Z</time>
      </trkpt>
      <trkpt lat="44.56155" lon="6.2123">
        <ele>835.20001220703</ele>
        <time>2016-07-13T13:54:26.000Z</time>
      </trkpt>
      <trkpt lat="44.5616" lon="6.21248">
        <ele>835.59997558594</ele>
        <time>2016-07-13T13:54:35.000Z</time>
      </trkpt>
      <trkpt lat="44.56163" lon="6.21262">
        <ele>835.79998779297</ele>
        <time>2016-07-13T13:54:42.000Z</time>
      </trkpt>
      <trkpt lat="44.56162" lon="6.21281">
        <ele>835.59997558594</ele>
        <time>2016-07-13T13:54:50.000Z</time>
      </trkpt>
      <trkpt lat="44.56158" lon="6.213">
        <ele>835</ele>
        <time>2016-07-13T13:55:00.000Z</time>
      </trkpt>
      <trkpt lat="44.56153" lon="6.21325">
        <ele>834.59997558594</ele>
        <time>2016-07-13T13:55:12.000Z</time>
      </trkpt>
      <trkpt lat="44.5615" lon="6.21347">
        <ele>834.40002441406</ele>
        <time>2016-07-13T13:55:23.000Z</time>
      </trkpt>
      <trkpt lat="44.56152" lon="6.21354">
        <ele>834.79998779297</ele>
        <time>2016-07-13T13:55:26.000Z</time>
      </trkpt>
      <trkpt lat="44.56179" lon="6.21371">
        <ele>837.59997558594</ele>
        <time>2016-07-13T13:55:47.000Z</time>
      </trkpt>
      <trkpt lat="44.56188" lon="6.21379">
        <ele>838.59997558594</ele>
        <time>2016-07-13T13:55:54.000Z</time>
      </trkpt>
      <trkpt lat="44.56194" lon="6.21393">
        <ele>839.20001220703</ele>
        <time>2016-07-13T13:56:02.000Z</time>
      </trkpt>
      <trkpt lat="44.56194" lon="6.21401">
        <ele>839.40002441406</ele>
        <time>2016-07-13T13:56:06.000Z</time>
      </trkpt>
      <trkpt lat="44.562" lon="6.21412">
        <ele>840.20001220703</ele>
        <time>2016-07-13T13:56:13.000Z</time>
      </trkpt>
      <trkpt lat="44.56208" lon="6.21424">
        <ele>841.40002441406</ele>
        <time>2016-07-13T13:56:22.000Z</time>
      </trkpt>
      <trkpt lat="44.56215" lon="6.21433">
        <ele>842.40002441406</ele>
        <time>2016-07-13T13:56:28.000Z</time>
      </trkpt>
      <trkpt lat="44.56221" lon="6.21446">
        <ele>843.40002441406</ele>
        <time>2016-07-13T13:56:36.000Z</time>
      </trkpt>
      <trkpt lat="44.56227" lon="6.21463">
        <ele>844.40002441406</ele>
        <time>2016-07-13T13:56:46.000Z</time>
      </trkpt>
      <trkpt lat="44.56231" lon="6.21472">
        <ele>845.20001220703</ele>
        <time>2016-07-13T13:56:52.000Z</time>
      </trkpt>
      <trkpt lat="44.5624" lon="6.21487">
        <ele>846.59997558594</ele>
        <time>2016-07-13T13:57:01.000Z</time>
      </trkpt>
      <trkpt lat="44.56247" lon="6.21505">
        <ele>847.59997558594</ele>
        <time>2016-07-13T13:57:11.000Z</time>
      </trkpt>
      <trkpt lat="44.56252" lon="6.21518">
        <ele>848.40002441406</ele>
        <time>2016-07-13T13:57:18.000Z</time>
      </trkpt>
      <trkpt lat="44.56259" lon="6.21528">
        <ele>849.40002441406</ele>
        <time>2016-07-13T13:57:26.000Z</time>
      </trkpt>
      <trkpt lat="44.5628" lon="6.21556">
        <ele>852.40002441406</ele>
        <time>2016-07-13T13:57:47.000Z</time>
      </trkpt>
      <trkpt lat="44.56289" lon="6.21577">
        <ele>853.79998779297</ele>
        <time>2016-07-13T13:57:59.000Z</time>
      </trkpt>
      <trkpt lat="44.56297" lon="6.21596">
        <ele>854.59997558594</ele>
        <time>2016-07-13T13:58:10.000Z</time>
      </trkpt>
      <trkpt lat="44.56302" lon="6.21611">
        <ele>855.40002441406</ele>
        <time>2016-07-13T13:58:19.000Z</time>
      </trkpt>
      <trkpt lat="44.56308" lon="6.21643">
        <ele>856.79998779297</ele>
        <time>2016-07-13T13:58:35.000Z</time>
      </trkpt>
      <trkpt lat="44.56309" lon="6.2165">
        <ele>857</ele>
        <time>2016-07-13T13:58:38.000Z</time>
      </trkpt>
      <trkpt lat="44.56308" lon="6.21665">
        <ele>857.79998779297</ele>
        <time>2016-07-13T13:58:55.000Z</time>
      </trkpt>
      <trkpt lat="44.56308" lon="6.21676">
        <ele>858.40002441406</ele>
        <time>2016-07-13T13:59:01.000Z</time>
      </trkpt>
      <trkpt lat="44.56308" lon="6.21681">
        <ele>858.59997558594</ele>
        <time>2016-07-13T13:59:04.000Z</time>
      </trkpt>
      <trkpt lat="44.56308" lon="6.21689">
        <ele>859</ele>
        <time>2016-07-13T13:59:08.000Z</time>
      </trkpt>
      <trkpt lat="44.56307" lon="6.21692">
        <ele>859</ele>
        <time>2016-07-13T13:59:10.000Z</time>
      </trkpt>
      <trkpt lat="44.56308" lon="6.21703">
        <ele>859.59997558594</ele>
        <time>2016-07-13T13:59:16.000Z</time>
      </trkpt>
      <trkpt lat="44.56308" lon="6.21709">
        <ele>859.79998779297</ele>
        <time>2016-07-13T13:59:19.000Z</time>
      </trkpt>
      <trkpt lat="44.56308" lon="6.21724">
        <ele>860.59997558594</ele>
        <time>2016-07-13T13:59:26.000Z</time>
      </trkpt>
      <trkpt lat="44.56309" lon="6.21738">
        <ele>861.40002441406</ele>
        <time>2016-07-13T13:59:33.000Z</time>
      </trkpt>
      <trkpt lat="44.56314" lon="6.21771">
        <ele>863.20001220703</ele>
        <time>2016-07-13T13:59:48.000Z</time>
      </trkpt>
      <trkpt lat="44.56314" lon="6.21772">
        <ele>863.20001220703</ele>
        <time>2016-07-13T13:59:49.000Z</time>
      </trkpt>
      <trkpt lat="44.56316" lon="6.21787">
        <ele>864</ele>
        <time>2016-07-13T13:59:56.000Z</time>
      </trkpt>
      <trkpt lat="44.56315" lon="6.21791">
        <ele>864.20001220703</ele>
        <time>2016-07-13T14:00:08.000Z</time>
      </trkpt>
      <trkpt lat="44.56316" lon="6.21802">
        <ele>864.59997558594</ele>
        <time>2016-07-13T14:00:14.000Z</time>
      </trkpt>
      <trkpt lat="44.5632" lon="6.21816">
        <ele>865.40002441406</ele>
        <time>2016-07-13T14:00:20.000Z</time>
      </trkpt>
      <trkpt lat="44.56323" lon="6.21827">
        <ele>866</ele>
        <time>2016-07-13T14:00:25.000Z</time>
      </trkpt>
      <trkpt lat="44.56324" lon="6.2184">
        <ele>866.79998779297</ele>
        <time>2016-07-13T14:00:29.000Z</time>
      </trkpt>
      <trkpt lat="44.56325" lon="6.21846">
        <ele>867.20001220703</ele>
        <time>2016-07-13T14:00:31.000Z</time>
      </trkpt>
      <trkpt lat="44.5633" lon="6.21869">
        <ele>867.79998779297</ele>
        <time>2016-07-13T14:00:39.000Z</time>
      </trkpt>
      <trkpt lat="44.56333" lon="6.21888">
        <ele>867.79998779297</ele>
        <time>2016-07-13T14:00:47.000Z</time>
      </trkpt>
      <trkpt lat="44.56338" lon="6.21907">
        <ele>868.20001220703</ele>
        <time>2016-07-13T14:00:56.000Z</time>
      </trkpt>
      <trkpt lat="44.56349" lon="6.21922">
        <ele>869.20001220703</ele>
        <time>2016-07-13T14:01:06.000Z</time>
      </trkpt>
      <trkpt lat="44.56359" lon="6.21931">
        <ele>870.20001220703</ele>
        <time>2016-07-13T14:01:14.000Z</time>
      </trkpt>
      <trkpt lat="44.56362" lon="6.21935">
        <ele>870.40002441406</ele>
        <time>2016-07-13T14:01:17.000Z</time>
      </trkpt>
      <trkpt lat="44.56363" lon="6.21941">
        <ele>870.59997558594</ele>
        <time>2016-07-13T14:01:20.000Z</time>
      </trkpt>
      <trkpt lat="44.56366" lon="6.21956">
        <ele>870.79998779297</ele>
        <time>2016-07-13T14:01:28.000Z</time>
      </trkpt>
      <trkpt lat="44.56371" lon="6.21983">
        <ele>871.20001220703</ele>
        <time>2016-07-13T14:01:40.000Z</time>
      </trkpt>
      <trkpt lat="44.56374" lon="6.22">
        <ele>871.20001220703</ele>
        <time>2016-07-13T14:01:48.000Z</time>
      </trkpt>
      <trkpt lat="44.56376" lon="6.22021">
        <ele>871.40002441406</ele>
        <time>2016-07-13T14:01:58.000Z</time>
      </trkpt>
      <trkpt lat="44.56376" lon="6.22037">
        <ele>871.40002441406</ele>
        <time>2016-07-13T14:02:05.000Z</time>
      </trkpt>
      <trkpt lat="44.56378" lon="6.22056">
        <ele>871.40002441406</ele>
        <time>2016-07-13T14:02:13.000Z</time>
      </trkpt>
      <trkpt lat="44.56377" lon="6.22072">
        <ele>871.79998779297</ele>
        <time>2016-07-13T14:02:21.000Z</time>
      </trkpt>
      <trkpt lat="44.56378" lon="6.22074">
        <ele>871.79998779297</ele>
        <time>2016-07-13T14:02:22.000Z</time>
      </trkpt>
      <trkpt lat="44.56383" lon="6.22085">
        <ele>872.59997558594</ele>
        <time>2016-07-13T14:02:28.000Z</time>
      </trkpt>
      <trkpt lat="44.56391" lon="6.22104">
        <ele>873.59997558594</ele>
        <time>2016-07-13T14:02:39.000Z</time>
      </trkpt>
      <trkpt lat="44.56396" lon="6.2211">
        <ele>874</ele>
        <time>2016-07-13T14:02:44.000Z</time>
      </trkpt>
      <trkpt lat="44.56398" lon="6.22104">
        <ele>874</ele>
        <time>2016-07-13T14:02:48.000Z</time>
      </trkpt>
      <trkpt lat="44.564" lon="6.22093">
        <ele>873.59997558594</ele>
        <time>2016-07-13T14:02:54.000Z</time>
      </trkpt>
      <trkpt lat="44.56403" lon="6.22081">
        <ele>873.20001220703</ele>
        <time>2016-07-13T14:03:00.000Z</time>
      </trkpt>
      <trkpt lat="44.56403" lon="6.22079">
        <ele>873</ele>
        <time>2016-07-13T14:03:01.000Z</time>
      </trkpt>
      <trkpt lat="44.56407" lon="6.22064">
        <ele>872.59997558594</ele>
        <time>2016-07-13T14:03:08.000Z</time>
      </trkpt>
      <trkpt lat="44.56416" lon="6.22044">
        <ele>872.79998779297</ele>
        <time>2016-07-13T14:03:19.000Z</time>
      </trkpt>
      <trkpt lat="44.56428" lon="6.22028">
        <ele>873</ele>
        <time>2016-07-13T14:03:29.000Z</time>
      </trkpt>
      <trkpt lat="44.56436" lon="6.2202">
        <ele>872.79998779297</ele>
        <time>2016-07-13T14:03:37.000Z</time>
      </trkpt>
      <trkpt lat="44.56441" lon="6.22017">
        <ele>872.79998779297</ele>
        <time>2016-07-13T14:03:43.000Z</time>
      </trkpt>
      <trkpt lat="44.56452" lon="6.22011">
        <ele>872.79998779297</ele>
        <time>2016-07-13T14:03:50.000Z</time>
      </trkpt>
      <trkpt lat="44.56464" lon="6.2201">
        <ele>873.79998779297</ele>
        <time>2016-07-13T14:03:59.000Z</time>
      </trkpt>
      <trkpt lat="44.56475" lon="6.22012">
        <ele>874.59997558594</ele>
        <time>2016-07-13T14:04:08.000Z</time>
      </trkpt>
      <trkpt lat="44.5648" lon="6.22014">
        <ele>875</ele>
        <time>2016-07-13T14:04:21.000Z</time>
      </trkpt>
      <trkpt lat="44.56491" lon="6.2201">
        <ele>875.59997558594</ele>
        <time>2016-07-13T14:04:29.000Z</time>
      </trkpt>
      <trkpt lat="44.56504" lon="6.22002">
        <ele>876.40002441406</ele>
        <time>2016-07-13T14:04:39.000Z</time>
      </trkpt>
      <trkpt lat="44.56516" lon="6.21993">
        <ele>877</ele>
        <time>2016-07-13T14:04:48.000Z</time>
      </trkpt>
      <trkpt lat="44.56527" lon="6.21994">
        <ele>877.79998779297</ele>
        <time>2016-07-13T14:04:56.000Z</time>
      </trkpt>
      <trkpt lat="44.56537" lon="6.21996">
        <ele>878.59997558594</ele>
        <time>2016-07-13T14:05:03.000Z</time>
      </trkpt>
      <trkpt lat="44.56553" lon="6.21999">
        <ele>879.79998779297</ele>
        <time>2016-07-13T14:05:15.000Z</time>
      </trkpt>
      <trkpt lat="44.56569" lon="6.22">
        <ele>881</ele>
        <time>2016-07-13T14:05:26.000Z</time>
      </trkpt>
      <trkpt lat="44.56583" lon="6.22005">
        <ele>882.20001220703</ele>
        <time>2016-07-13T14:05:36.000Z</time>
      </trkpt>
      <trkpt lat="44.56592" lon="6.22006">
        <ele>882.79998779297</ele>
        <time>2016-07-13T14:05:43.000Z</time>
      </trkpt>
      <trkpt lat="44.56604" lon="6.22007">
        <ele>883.59997558594</ele>
        <time>2016-07-13T14:05:52.000Z</time>
      </trkpt>
      <trkpt lat="44.56618" lon="6.22013">
        <ele>884.79998779297</ele>
        <time>2016-07-13T14:06:02.000Z</time>
      </trkpt>
      <trkpt lat="44.56636" lon="6.2202">
        <ele>886.40002441406</ele>
        <time>2016-07-13T14:06:14.000Z</time>
      </trkpt>
      <trkpt lat="44.56652" lon="6.22028">
        <ele>887.59997558594</ele>
        <time>2016-07-13T14:06:24.000Z</time>
      </trkpt>
      <trkpt lat="44.56674" lon="6.22044">
        <ele>889.59997558594</ele>
        <time>2016-07-13T14:06:43.000Z</time>
      </trkpt>
      <trkpt lat="44.56675" lon="6.22045">
        <ele>889.79998779297</ele>
        <time>2016-07-13T14:06:50.000Z</time>
      </trkpt>
      <trkpt lat="44.56684" lon="6.22048">
        <ele>890.40002441406</ele>
        <time>2016-07-13T14:06:56.000Z</time>
      </trkpt>
      <trkpt lat="44.56688" lon="6.22052">
        <ele>890.79998779297</ele>
        <time>2016-07-13T14:07:00.000Z</time>
      </trkpt>
      <trkpt lat="44.56699" lon="6.22058">
        <ele>891.79998779297</ele>
        <time>2016-07-13T14:07:07.000Z</time>
      </trkpt>
      <trkpt lat="44.56714" lon="6.22069">
        <ele>893.59997558594</ele>
        <time>2016-07-13T14:07:18.000Z</time>
      </trkpt>
      <trkpt lat="44.56736" lon="6.22089">
        <ele>896.40002441406</ele>
        <time>2016-07-13T14:07:34.000Z</time>
      </trkpt>
      <trkpt lat="44.56743" lon="6.22093">
        <ele>897.20001220703</ele>
        <time>2016-07-13T14:07:40.000Z</time>
      </trkpt>
      <trkpt lat="44.56755" lon="6.22091">
        <ele>898.59997558594</ele>
        <time>2016-07-13T14:07:47.000Z</time>
      </trkpt>
      <trkpt lat="44.56764" lon="6.22085">
        <ele>899.40002441406</ele>
        <time>2016-07-13T14:07:53.000Z</time>
      </trkpt>
      <trkpt lat="44.56777" lon="6.22073">
        <ele>900.40002441406</ele>
        <time>2016-07-13T14:08:04.000Z</time>
      </trkpt>
      <trkpt lat="44.56778" lon="6.22073">
        <ele>900.59997558594</ele>
        <time>2016-07-13T14:08:05.000Z</time>
      </trkpt>
      <trkpt lat="44.56782" lon="6.2207">
        <ele>900.79998779297</ele>
        <time>2016-07-13T14:08:09.000Z</time>
      </trkpt>
      <trkpt lat="44.56796" lon="6.22056">
        <ele>901.79998779297</ele>
        <time>2016-07-13T14:08:21.000Z</time>
      </trkpt>
      <trkpt lat="44.5681" lon="6.22046">
        <ele>902.59997558594</ele>
        <time>2016-07-13T14:08:32.000Z</time>
      </trkpt>
      <trkpt lat="44.5682" lon="6.22037">
        <ele>903.20001220703</ele>
        <time>2016-07-13T14:08:40.000Z</time>
      </trkpt>
      <trkpt lat="44.56834" lon="6.22021">
        <ele>904</ele>
        <time>2016-07-13T14:08:52.000Z</time>
      </trkpt>
      <trkpt lat="44.56844" lon="6.22008">
        <ele>904.40002441406</ele>
        <time>2016-07-13T14:09:01.000Z</time>
      </trkpt>
      <trkpt lat="44.56854" lon="6.21988">
        <ele>904.79998779297</ele>
        <time>2016-07-13T14:09:13.000Z</time>
      </trkpt>
      <trkpt lat="44.56864" lon="6.21968">
        <ele>905.40002441406</ele>
        <time>2016-07-13T14:09:25.000Z</time>
      </trkpt>
      <trkpt lat="44.56877" lon="6.21949">
        <ele>905.79998779297</ele>
        <time>2016-07-13T14:09:39.000Z</time>
      </trkpt>
      <trkpt lat="44.56897" lon="6.21928">
        <ele>906.59997558594</ele>
        <time>2016-07-13T14:09:55.000Z</time>
      </trkpt>
      <trkpt lat="44.56908" lon="6.2191">
        <ele>906.59997558594</ele>
        <time>2016-07-13T14:10:06.000Z</time>
      </trkpt>
      <trkpt lat="44.56912" lon="6.21894">
        <ele>906.20001220703</ele>
        <time>2016-07-13T14:10:14.000Z</time>
      </trkpt>
      <trkpt lat="44.5692" lon="6.21877">
        <ele>906</ele>
        <time>2016-07-13T14:10:23.000Z</time>
      </trkpt>
      <trkpt lat="44.56922" lon="6.21872">
        <ele>905.79998779297</ele>
        <time>2016-07-13T14:10:29.000Z</time>
      </trkpt>
      <trkpt lat="44.56933" lon="6.21848">
        <ele>906.20001220703</ele>
        <time>2016-07-13T14:10:43.000Z</time>
      </trkpt>
      <trkpt lat="44.56936" lon="6.21843">
        <ele>906.20001220703</ele>
        <time>2016-07-13T14:10:46.000Z</time>
      </trkpt>
      <trkpt lat="44.56937" lon="6.21839">
        <ele>906.20001220703</ele>
        <time>2016-07-13T14:10:48.000Z</time>
      </trkpt>
      <trkpt lat="44.56943" lon="6.21823">
        <ele>906.59997558594</ele>
        <time>2016-07-13T14:10:57.000Z</time>
      </trkpt>
      <trkpt lat="44.56947" lon="6.21814">
        <ele>906.59997558594</ele>
        <time>2016-07-13T14:11:02.000Z</time>
      </trkpt>
      <trkpt lat="44.56956" lon="6.21805">
        <ele>907</ele>
        <time>2016-07-13T14:11:11.000Z</time>
      </trkpt>
      <trkpt lat="44.56958" lon="6.21802">
        <ele>907</ele>
        <time>2016-07-13T14:11:13.000Z</time>
      </trkpt>
      <trkpt lat="44.56961" lon="6.21802">
        <ele>907.20001220703</ele>
        <time>2016-07-13T14:11:15.000Z</time>
      </trkpt>
      <trkpt lat="44.56965" lon="6.21804">
        <ele>907.59997558594</ele>
        <time>2016-07-13T14:11:18.000Z</time>
      </trkpt>
      <trkpt lat="44.56991" lon="6.21823">
        <ele>910.40002441406</ele>
        <time>2016-07-13T14:11:36.000Z</time>
      </trkpt>
      <trkpt lat="44.57012" lon="6.21834">
        <ele>912.40002441406</ele>
        <time>2016-07-13T14:11:51.000Z</time>
      </trkpt>
      <trkpt lat="44.57017" lon="6.21839">
        <ele>913</ele>
        <time>2016-07-13T14:11:56.000Z</time>
      </trkpt>
      <trkpt lat="44.57024" lon="6.21844">
        <ele>913.79998779297</ele>
        <time>2016-07-13T14:12:01.000Z</time>
      </trkpt>
      <trkpt lat="44.57032" lon="6.21852">
        <ele>914.79998779297</ele>
        <time>2016-07-13T14:12:08.000Z</time>
      </trkpt>
      <trkpt lat="44.57033" lon="6.21853">
        <ele>914.79998779297</ele>
        <time>2016-07-13T14:12:11.000Z</time>
      </trkpt>
      <trkpt lat="44.57036" lon="6.21853">
        <ele>915.20001220703</ele>
        <time>2016-07-13T14:12:14.000Z</time>
      </trkpt>
      <trkpt lat="44.57042" lon="6.21861">
        <ele>916.20001220703</ele>
        <time>2016-07-13T14:12:19.000Z</time>
      </trkpt>
      <trkpt lat="44.57049" lon="6.21875">
        <ele>917.59997558594</ele>
        <time>2016-07-13T14:12:27.000Z</time>
      </trkpt>
      <trkpt lat="44.57059" lon="6.21888">
        <ele>919.20001220703</ele>
        <time>2016-07-13T14:12:34.000Z</time>
      </trkpt>
      <trkpt lat="44.57072" lon="6.21907">
        <ele>921.20001220703</ele>
        <time>2016-07-13T14:12:45.000Z</time>
      </trkpt>
      <trkpt lat="44.57083" lon="6.21923">
        <ele>922.59997558594</ele>
        <time>2016-07-13T14:12:55.000Z</time>
      </trkpt>
      <trkpt lat="44.57095" lon="6.2194">
        <ele>924</ele>
        <time>2016-07-13T14:13:06.000Z</time>
      </trkpt>
      <trkpt lat="44.57106" lon="6.2195">
        <ele>925.40002441406</ele>
        <time>2016-07-13T14:13:15.000Z</time>
      </trkpt>
      <trkpt lat="44.57138" lon="6.2193">
        <ele>929.20001220703</ele>
        <time>2016-07-13T14:13:53.000Z</time>
      </trkpt>
      <trkpt lat="44.5715" lon="6.21914">
        <ele>930</ele>
        <time>2016-07-13T14:14:04.000Z</time>
      </trkpt>
      <trkpt lat="44.57157" lon="6.21893">
        <ele>929.59997558594</ele>
        <time>2016-07-13T14:14:15.000Z</time>
      </trkpt>
      <trkpt lat="44.57164" lon="6.21871">
        <ele>929</ele>
        <time>2016-07-13T14:14:26.000Z</time>
      </trkpt>
      <trkpt lat="44.5717" lon="6.21856">
        <ele>928.79998779297</ele>
        <time>2016-07-13T14:14:34.000Z</time>
      </trkpt>
      <trkpt lat="44.57176" lon="6.21832">
        <ele>928.79998779297</ele>
        <time>2016-07-13T14:14:46.000Z</time>
      </trkpt>
      <trkpt lat="44.57179" lon="6.21817">
        <ele>928.59997558594</ele>
        <time>2016-07-13T14:14:53.000Z</time>
      </trkpt>
      <trkpt lat="44.57183" lon="6.21803">
        <ele>928.20001220703</ele>
        <time>2016-07-13T14:15:00.000Z</time>
      </trkpt>
      <trkpt lat="44.57188" lon="6.21786">
        <ele>928.40002441406</ele>
        <time>2016-07-13T14:15:08.000Z</time>
      </trkpt>
      <trkpt lat="44.57193" lon="6.21773">
        <ele>929.20001220703</ele>
        <time>2016-07-13T14:15:15.000Z</time>
      </trkpt>
      <trkpt lat="44.57201" lon="6.21755">
        <ele>930.40002441406</ele>
        <time>2016-07-13T14:15:25.000Z</time>
      </trkpt>
      <trkpt lat="44.57212" lon="6.21734">
        <ele>932.20001220703</ele>
        <time>2016-07-13T14:15:37.000Z</time>
      </trkpt>
      <trkpt lat="44.57223" lon="6.21718">
        <ele>934.59997558594</ele>
        <time>2016-07-13T14:15:47.000Z</time>
      </trkpt>
      <trkpt lat="44.57229" lon="6.21708">
        <ele>935.79998779297</ele>
        <time>2016-07-13T14:15:54.000Z</time>
      </trkpt>
      <trkpt lat="44.57237" lon="6.21694">
        <ele>937.20001220703</ele>
        <time>2016-07-13T14:16:03.000Z</time>
      </trkpt>
      <trkpt lat="44.57242" lon="6.21679">
        <ele>938</ele>
        <time>2016-07-13T14:16:11.000Z</time>
      </trkpt>
      <trkpt lat="44.5725" lon="6.21657">
        <ele>938.79998779297</ele>
        <time>2016-07-13T14:16:23.000Z</time>
      </trkpt>
      <trkpt lat="44.57257" lon="6.2164">
        <ele>939.40002441406</ele>
        <time>2016-07-13T14:16:33.000Z</time>
      </trkpt>
      <trkpt lat="44.57265" lon="6.21624">
        <ele>939.40002441406</ele>
        <time>2016-07-13T14:16:42.000Z</time>
      </trkpt>
      <trkpt lat="44.57266" lon="6.21622">
        <ele>939.59997558594</ele>
        <time>2016-07-13T14:16:44.000Z</time>
      </trkpt>
      <trkpt lat="44.57274" lon="6.21612">
        <ele>940.79998779297</ele>
        <time>2016-07-13T14:16:52.000Z</time>
      </trkpt>
      <trkpt lat="44.57281" lon="6.21596">
        <ele>941.40002441406</ele>
        <time>2016-07-13T14:17:01.000Z</time>
      </trkpt>
      <trkpt lat="44.57286" lon="6.21584">
        <ele>941.59997558594</ele>
        <time>2016-07-13T14:17:08.000Z</time>
      </trkpt>
      <trkpt lat="44.57289" lon="6.21571">
        <ele>941.59997558594</ele>
        <time>2016-07-13T14:17:15.000Z</time>
      </trkpt>
      <trkpt lat="44.57294" lon="6.21554">
        <ele>942.40002441406</ele>
        <time>2016-07-13T14:17:24.000Z</time>
      </trkpt>
      <trkpt lat="44.57301" lon="6.21533">
        <ele>943.79998779297</ele>
        <time>2016-07-13T14:17:35.000Z</time>
      </trkpt>
      <trkpt lat="44.57307" lon="6.21507">
        <ele>944.79998779297</ele>
        <time>2016-07-13T14:17:48.000Z</time>
      </trkpt>
      <trkpt lat="44.57314" lon="6.21482">
        <ele>946.79998779297</ele>
        <time>2016-07-13T14:18:01.000Z</time>
      </trkpt>
      <trkpt lat="44.57321" lon="6.21457">
        <ele>948.40002441406</ele>
        <time>2016-07-13T14:18:14.000Z</time>
      </trkpt>
      <trkpt lat="44.57325" lon="6.2144">
        <ele>949.20001220703</ele>
        <time>2016-07-13T14:18:23.000Z</time>
      </trkpt>
      <trkpt lat="44.57332" lon="6.21416">
        <ele>950.20001220703</ele>
        <time>2016-07-13T14:18:36.000Z</time>
      </trkpt>
      <trkpt lat="44.57336" lon="6.21397">
        <ele>950.79998779297</ele>
        <time>2016-07-13T14:18:46.000Z</time>
      </trkpt>
      <trkpt lat="44.57342" lon="6.2138">
        <ele>952.79998779297</ele>
        <time>2016-07-13T14:18:55.000Z</time>
      </trkpt>
      <trkpt lat="44.5735" lon="6.2136">
        <ele>955.40002441406</ele>
        <time>2016-07-13T14:19:06.000Z</time>
      </trkpt>
      <trkpt lat="44.57356" lon="6.21344">
        <ele>957.59997558594</ele>
        <time>2016-07-13T14:19:15.000Z</time>
      </trkpt>
      <trkpt lat="44.57363" lon="6.21327">
        <ele>960.20001220703</ele>
        <time>2016-07-13T14:19:25.000Z</time>
      </trkpt>
      <trkpt lat="44.57369" lon="6.21315">
        <ele>962.20001220703</ele>
        <time>2016-07-13T14:19:32.000Z</time>
      </trkpt>
      <trkpt lat="44.57375" lon="6.2129">
        <ele>963.20001220703</ele>
        <time>2016-07-13T14:19:45.000Z</time>
      </trkpt>
      <trkpt lat="44.57381" lon="6.21275">
        <ele>964.40002441406</ele>
        <time>2016-07-13T14:19:54.000Z</time>
      </trkpt>
      <trkpt lat="44.57385" lon="6.21264">
        <ele>964.79998779297</ele>
        <time>2016-07-13T14:20:02.000Z</time>
      </trkpt>
      <trkpt lat="44.57385" lon="6.21263">
        <ele>964.79998779297</ele>
        <time>2016-07-13T14:20:03.000Z</time>
      </trkpt>
      <trkpt lat="44.57388" lon="6.21259">
        <ele>965.40002441406</ele>
        <time>2016-07-13T14:20:06.000Z</time>
      </trkpt>
      <trkpt lat="44.57394" lon="6.21246">
        <ele>967</ele>
        <time>2016-07-13T14:20:14.000Z</time>
      </trkpt>
      <trkpt lat="44.57408" lon="6.21211">
        <ele>969.20001220703</ele>
        <time>2016-07-13T14:20:34.000Z</time>
      </trkpt>
      <trkpt lat="44.5741" lon="6.21202">
        <ele>969.20001220703</ele>
        <time>2016-07-13T14:20:40.000Z</time>
      </trkpt>
      <trkpt lat="44.57415" lon="6.21186">
        <ele>969.59997558594</ele>
        <time>2016-07-13T14:20:48.000Z</time>
      </trkpt>
      <trkpt lat="44.57416" lon="6.21174">
        <ele>970.40002441406</ele>
        <time>2016-07-13T14:20:54.000Z</time>
      </trkpt>
      <trkpt lat="44.57416" lon="6.21161">
        <ele>970.40002441406</ele>
        <time>2016-07-13T14:21:01.000Z</time>
      </trkpt>
      <trkpt lat="44.57415" lon="6.21149">
        <ele>970.40002441406</ele>
        <time>2016-07-13T14:21:08.000Z</time>
      </trkpt>
      <trkpt lat="44.57414" lon="6.21134">
        <ele>969.79998779297</ele>
        <time>2016-07-13T14:21:16.000Z</time>
      </trkpt>
      <trkpt lat="44.57416" lon="6.21126">
        <ele>970.40002441406</ele>
        <time>2016-07-13T14:21:20.000Z</time>
      </trkpt>
      <trkpt lat="44.57421" lon="6.21128">
        <ele>972.20001220703</ele>
        <time>2016-07-13T14:21:24.000Z</time>
      </trkpt>
      <trkpt lat="44.57429" lon="6.21148">
        <ele>974.79998779297</ele>
        <time>2016-07-13T14:21:35.000Z</time>
      </trkpt>
      <trkpt lat="44.57432" lon="6.21166">
        <ele>975.59997558594</ele>
        <time>2016-07-13T14:21:45.000Z</time>
      </trkpt>
      <trkpt lat="44.57433" lon="6.21167">
        <ele>975.79998779297</ele>
        <time>2016-07-13T14:21:53.000Z</time>
      </trkpt>
      <trkpt lat="44.57435" lon="6.21173">
        <ele>976.40002441406</ele>
        <time>2016-07-13T14:22:02.000Z</time>
      </trkpt>
      <trkpt lat="44.57438" lon="6.21183">
        <ele>977.20001220703</ele>
        <time>2016-07-13T14:22:08.000Z</time>
      </trkpt>
      <trkpt lat="44.57441" lon="6.21196">
        <ele>978</ele>
        <time>2016-07-13T14:22:15.000Z</time>
      </trkpt>
      <trkpt lat="44.57443" lon="6.21213">
        <ele>978.59997558594</ele>
        <time>2016-07-13T14:22:24.000Z</time>
      </trkpt>
      <trkpt lat="44.57449" lon="6.21255">
        <ele>980.59997558594</ele>
        <time>2016-07-13T14:22:45.000Z</time>
      </trkpt>
      <trkpt lat="44.57455" lon="6.21274">
        <ele>982.79998779297</ele>
        <time>2016-07-13T14:22:56.000Z</time>
      </trkpt>
      <trkpt lat="44.57459" lon="6.2129">
        <ele>984.59997558594</ele>
        <time>2016-07-13T14:23:04.000Z</time>
      </trkpt>
      <trkpt lat="44.57462" lon="6.21299">
        <ele>985.79998779297</ele>
        <time>2016-07-13T14:23:10.000Z</time>
      </trkpt>
      <trkpt lat="44.57462" lon="6.21301">
        <ele>986</ele>
        <time>2016-07-13T14:23:11.000Z</time>
      </trkpt>
      <trkpt lat="44.57462" lon="6.21306">
        <ele>985.79998779297</ele>
        <time>2016-07-13T14:23:13.000Z</time>
      </trkpt>
      <trkpt lat="44.57467" lon="6.21321">
        <ele>988.20001220703</ele>
        <time>2016-07-13T14:23:21.000Z</time>
      </trkpt>
      <trkpt lat="44.57468" lon="6.21323">
        <ele>988.59997558594</ele>
        <time>2016-07-13T14:23:22.000Z</time>
      </trkpt>
      <trkpt lat="44.57475" lon="6.21339">
        <ele>992</ele>
        <time>2016-07-13T14:23:30.000Z</time>
      </trkpt>
      <trkpt lat="44.57481" lon="6.21359">
        <ele>994.79998779297</ele>
        <time>2016-07-13T14:23:41.000Z</time>
      </trkpt>
      <trkpt lat="44.57482" lon="6.2136">
        <ele>995</ele>
        <time>2016-07-13T14:23:42.000Z</time>
      </trkpt>
      <trkpt lat="44.5748" lon="6.21383">
        <ele>994.79998779297</ele>
        <time>2016-07-13T14:23:53.000Z</time>
      </trkpt>
      <trkpt lat="44.5748" lon="6.21388">
        <ele>994.79998779297</ele>
        <time>2016-07-13T14:23:58.000Z</time>
      </trkpt>
      <trkpt lat="44.57481" lon="6.21395">
        <ele>995</ele>
        <time>2016-07-13T14:24:15.000Z</time>
      </trkpt>
      <trkpt lat="44.57479" lon="6.21405">
        <ele>994.40002441406</ele>
        <time>2016-07-13T14:24:21.000Z</time>
      </trkpt>
      <trkpt lat="44.57476" lon="6.21416">
        <ele>993</ele>
        <time>2016-07-13T14:24:28.000Z</time>
      </trkpt>
      <trkpt lat="44.57474" lon="6.21429">
        <ele>992.79998779297</ele>
        <time>2016-07-13T14:24:36.000Z</time>
      </trkpt>
      <trkpt lat="44.57474" lon="6.21445">
        <ele>993.40002441406</ele>
        <time>2016-07-13T14:24:45.000Z</time>
      </trkpt>
      <trkpt lat="44.57474" lon="6.21454">
        <ele>994</ele>
        <time>2016-07-13T14:24:51.000Z</time>
      </trkpt>
      <trkpt lat="44.57475" lon="6.21466">
        <ele>995.20001220703</ele>
        <time>2016-07-13T14:24:58.000Z</time>
      </trkpt>
      <trkpt lat="44.57476" lon="6.21469">
        <ele>995.40002441406</ele>
        <time>2016-07-13T14:25:00.000Z</time>
      </trkpt>
      <trkpt lat="44.57478" lon="6.21472">
        <ele>996.20001220703</ele>
        <time>2016-07-13T14:25:03.000Z</time>
      </trkpt>
      <trkpt lat="44.57479" lon="6.21474">
        <ele>996.79998779297</ele>
        <time>2016-07-13T14:25:12.000Z</time>
      </trkpt>
      <trkpt lat="44.57478" lon="6.21473">
        <ele>996.59997558594</ele>
        <time>2016-07-13T14:25:27.000Z</time>
      </trkpt>
      <trkpt lat="44.57479" lon="6.21474">
        <ele>996.59997558594</ele>
        <time>2016-07-13T14:25:34.000Z</time>
      </trkpt>
      <trkpt lat="44.5748" lon="6.21474">
        <ele>997</ele>
        <time>2016-07-13T14:25:47.000Z</time>
      </trkpt>
    </trkseg>
  </trk>
</gpx>